<?xml version='1.0' encoding='UTF-8'?><gpx version="1.1" creator="JPX - https://github.com/jenetics/jpx" xmlns="http://www.topografix.com/GPX/1/1"><trk><trkseg><trkpt lat="45.586176317459355" lon="11.364818827325218"><ele>193.50000000000003</ele><time>2026-04-08T12:16:33.001Z</time></trkpt><trkpt lat="45.586179460041954" lon="11.364700043701"><ele>193.0</ele><time>2026-04-08T12:16:35.001Z</time></trkpt><trkpt lat="45.58615001299471" lon="11.364606013172201"><ele>192.5</ele><time>2026-04-08T12:16:37.001Z</time></trkpt><trkpt lat="45.58615311612555" lon="11.364505337724307"><ele>192.0</ele><time>2026-04-08T12:16:40.001Z</time></trkpt><trkpt lat="45.58623364815018" lon="11.36442450675682"><ele>191.5</ele><time>2026-04-08T12:17:43.001Z</time></trkpt><trkpt lat="45.58630041473519" lon="11.364396861671093"><ele>191.0</ele><time>2026-04-08T12:17:44.001Z</time></trkpt><trkpt lat="45.58638762978608" lon="11.3643490905277"><ele>191.0</ele><time>2026-04-08T12:17:45.001Z</time></trkpt><trkpt lat="45.58648421364876" lon="11.364299715329711"><ele>191.0</ele><time>2026-04-08T12:17:46.001Z</time></trkpt><trkpt lat="45.58660192680478" lon="11.364268975379435"><ele>191.0</ele><time>2026-04-08T12:17:47.001Z</time></trkpt><trkpt lat="45.5867079333359" lon="11.364208742763253"><ele>191.0</ele><time>2026-04-08T12:17:48.001Z</time></trkpt><trkpt lat="45.58679758706869" lon="11.364157348626515"><ele>191.0</ele><time>2026-04-08T12:17:49.001Z</time></trkpt><trkpt lat="45.586878959434884" lon="11.364116336641208"><ele>191.0</ele><time>2026-04-08T12:17:50.001Z</time></trkpt><trkpt lat="45.586940418996775" lon="11.364095144789006"><ele>191.0</ele><time>2026-04-08T12:17:51.001Z</time></trkpt><trkpt lat="45.58701498404812" lon="11.364085985965552"><ele>191.0</ele><time>2026-04-08T12:17:52.001Z</time></trkpt><trkpt lat="45.5870865846385" lon="11.364116785448312"><ele>191.0</ele><time>2026-04-08T12:17:53.001Z</time></trkpt><trkpt lat="45.5871594602196" lon="11.364149758419737"><ele>191.0</ele><time>2026-04-08T12:17:54.001Z</time></trkpt><trkpt lat="45.58721964103232" lon="11.364185695824162"><ele>191.0</ele><time>2026-04-08T12:17:55.001Z</time></trkpt><trkpt lat="45.5873145443082" lon="11.36429118256963"><ele>189.4</ele><time>2026-04-08T12:17:57.001Z</time></trkpt><trkpt lat="45.58742367052467" lon="11.364403210388318"><ele>187.8</ele><time>2026-04-08T12:17:59.001Z</time></trkpt><trkpt lat="45.587501641359545" lon="11.364443090888553"><ele>186.20000000000002</ele><time>2026-04-08T12:18:00.001Z</time></trkpt><trkpt lat="45.587583401580794" lon="11.364500982709512"><ele>184.60000000000002</ele><time>2026-04-08T12:18:01.001Z</time></trkpt><trkpt lat="45.58767648134992" lon="11.364551787876158"><ele>183.0</ele><time>2026-04-08T12:18:02.001Z</time></trkpt><trkpt lat="45.58776847966452" lon="11.36460349900276"><ele>182.16666666666666</ele><time>2026-04-08T12:18:03.001Z</time></trkpt><trkpt lat="45.58786351399753" lon="11.364652881713637"><ele>181.33333333333334</ele><time>2026-04-08T12:18:04.001Z</time></trkpt><trkpt lat="45.58794486301558" lon="11.364709152750551"><ele>180.5</ele><time>2026-04-08T12:18:05.001Z</time></trkpt><trkpt lat="45.58800881385759" lon="11.364778633285999"><ele>179.66666666666669</ele><time>2026-04-08T12:18:06Z</time></trkpt><trkpt lat="45.58807156734315" lon="11.364860472486468"><ele>178.83333333333334</ele><time>2026-04-08T12:18:07Z</time></trkpt><trkpt lat="45.58814457754014" lon="11.364913131399458"><ele>178.0</ele><time>2026-04-08T12:18:08Z</time></trkpt><trkpt lat="45.5882240167285" lon="11.364962817539446"><ele>177.60000000000002</ele><time>2026-04-08T12:18:09Z</time></trkpt><trkpt lat="45.588307715266076" lon="11.365005032084301"><ele>177.20000000000002</ele><time>2026-04-08T12:18:10Z</time></trkpt><trkpt lat="45.58841430073016" lon="11.36505410381597"><ele>176.8</ele><time>2026-04-08T12:18:11Z</time></trkpt><trkpt lat="45.58852160001421" lon="11.365072428115512"><ele>176.4</ele><time>2026-04-08T12:18:12Z</time></trkpt><trkpt lat="45.58861162111893" lon="11.365100681733857"><ele>176.0</ele><time>2026-04-08T12:18:13Z</time></trkpt><trkpt lat="45.58866377097995" lon="11.365153030502718"><ele>175.60000000000002</ele><time>2026-04-08T12:18:14Z</time></trkpt><trkpt lat="45.58871908963066" lon="11.365221585764317"><ele>175.2</ele><time>2026-04-08T12:18:15Z</time></trkpt><trkpt lat="45.58878642859773" lon="11.365288282021549"><ele>174.8</ele><time>2026-04-08T12:18:16Z</time></trkpt><trkpt lat="45.5888459288092" lon="11.365403490396947"><ele>174.39999999999998</ele><time>2026-04-08T12:18:17Z</time></trkpt><trkpt lat="45.58889887915387" lon="11.365527454877812"><ele>174.0</ele><time>2026-04-08T12:18:18Z</time></trkpt><trkpt lat="45.58895519657612" lon="11.365657127327275"><ele>173.75</ele><time>2026-04-08T12:18:19Z</time></trkpt><trkpt lat="45.58899977018133" lon="11.36578965056095"><ele>173.5</ele><time>2026-04-08T12:18:20Z</time></trkpt><trkpt lat="45.58901422799522" lon="11.365957647986699"><ele>173.25</ele><time>2026-04-08T12:18:21Z</time></trkpt><trkpt lat="45.5890206288781" lon="11.36613275008831"><ele>173.0</ele><time>2026-04-08T12:18:22Z</time></trkpt><trkpt lat="45.58900657918833" lon="11.366295516450814"><ele>172.0</ele><time>2026-04-08T12:18:23Z</time></trkpt><trkpt lat="45.58900998258943" lon="11.366436661275047"><ele>171.0</ele><time>2026-04-08T12:18:24Z</time></trkpt><trkpt lat="45.589011846256845" lon="11.366596233273345"><ele>170.0</ele><time>2026-04-08T12:18:25Z</time></trkpt><trkpt lat="45.58902500395768" lon="11.366782709648385"><ele>169.0</ele><time>2026-04-08T12:18:26Z</time></trkpt><trkpt lat="45.589055904187155" lon="11.366952466662056"><ele>169.0</ele><time>2026-04-08T12:18:27Z</time></trkpt><trkpt lat="45.58907308491064" lon="11.367112347335212"><ele>169.0</ele><time>2026-04-08T12:18:28Z</time></trkpt><trkpt lat="45.589094576081465" lon="11.367255063666338"><ele>169.0</ele><time>2026-04-08T12:18:29Z</time></trkpt><trkpt lat="45.58912285253905" lon="11.367389803599803"><ele>169.0</ele><time>2026-04-08T12:18:30Z</time></trkpt><trkpt lat="45.58916365729805" lon="11.367546096596262"><ele>169.0</ele><time>2026-04-08T12:18:31Z</time></trkpt><trkpt lat="45.589213092484776" lon="11.367681835837892"><ele>167.79999999999998</ele><time>2026-04-08T12:18:32Z</time></trkpt><trkpt lat="45.58926824612915" lon="11.367778952007576"><ele>166.6</ele><time>2026-04-08T12:18:33Z</time></trkpt><trkpt lat="45.58931149529526" lon="11.36787880794361"><ele>165.4</ele><time>2026-04-08T12:18:34Z</time></trkpt><trkpt lat="45.58938444431498" lon="11.368001665507053"><ele>164.2</ele><time>2026-04-08T12:18:36Z</time></trkpt><trkpt lat="45.58945784590304" lon="11.368115536518735"><ele>163.0</ele><time>2026-04-08T12:18:38Z</time></trkpt><trkpt lat="45.589494707542016" lon="11.368198639813642"><ele>162.5</ele><time>2026-04-08T12:18:39Z</time></trkpt><trkpt lat="45.58955491234931" lon="11.368293394937833"><ele>162.0</ele><time>2026-04-08T12:18:40Z</time></trkpt><trkpt lat="45.58961505481348" lon="11.36837039225855"><ele>161.5</ele><time>2026-04-08T12:18:41Z</time></trkpt><trkpt lat="45.58965846834868" lon="11.368473798872877"><ele>161.0</ele><time>2026-04-08T12:18:42Z</time></trkpt><trkpt lat="45.589666306494095" lon="11.36856840321666"><ele>160.5</ele><time>2026-04-08T12:18:43Z</time></trkpt><trkpt lat="45.58967865702001" lon="11.36867854121964"><ele>160.0</ele><time>2026-04-08T12:18:44Z</time></trkpt><trkpt lat="45.589706039018104" lon="11.368784113482274"><ele>159.2</ele><time>2026-04-08T12:18:45Z</time></trkpt><trkpt lat="45.58974697466183" lon="11.368890633198921"><ele>158.4</ele><time>2026-04-08T12:18:46Z</time></trkpt><trkpt lat="45.58980144000085" lon="11.369000262866665"><ele>157.6</ele><time>2026-04-08T12:18:47Z</time></trkpt><trkpt lat="45.58986193245318" lon="11.369111729220165"><ele>156.8</ele><time>2026-04-08T12:18:48Z</time></trkpt><trkpt lat="45.58991316334709" lon="11.3692107269029"><ele>156.0</ele><time>2026-04-08T12:18:49Z</time></trkpt><trkpt lat="45.58996939399526" lon="11.369313630902885"><ele>156.0</ele><time>2026-04-08T12:18:50Z</time></trkpt><trkpt lat="45.5900201059124" lon="11.369438147691358"><ele>156.0</ele><time>2026-04-08T12:18:51Z</time></trkpt><trkpt lat="45.59007679348767" lon="11.369567802621633"><ele>156.0</ele><time>2026-04-08T12:18:52Z</time></trkpt><trkpt lat="45.59014067686311" lon="11.36971146368931"><ele>156.0</ele><time>2026-04-08T12:18:53Z</time></trkpt><trkpt lat="45.59019336090154" lon="11.3698335416786"><ele>156.0</ele><time>2026-04-08T12:18:54Z</time></trkpt><trkpt lat="45.59024495213034" lon="11.369953812215181"><ele>155.75</ele><time>2026-04-08T12:18:55Z</time></trkpt><trkpt lat="45.59030302449318" lon="11.37008449607051"><ele>155.5</ele><time>2026-04-08T12:18:56Z</time></trkpt><trkpt lat="45.590360718568796" lon="11.370233534882013"><ele>155.25</ele><time>2026-04-08T12:18:57Z</time></trkpt><trkpt lat="45.590432330249314" lon="11.370390118277356"><ele>155.0</ele><time>2026-04-08T12:18:58Z</time></trkpt><trkpt lat="45.590495114238415" lon="11.370543952093682"><ele>155.75</ele><time>2026-04-08T12:18:59Z</time></trkpt><trkpt lat="45.590563031039885" lon="11.370721942827824"><ele>156.5</ele><time>2026-04-08T12:19:00Z</time></trkpt><trkpt lat="45.59064159303038" lon="11.370905216187255"><ele>157.25</ele><time>2026-04-08T12:19:01Z</time></trkpt><trkpt lat="45.590709289593526" lon="11.371077836680247"><ele>158.0</ele><time>2026-04-08T12:19:02Z</time></trkpt><trkpt lat="45.590767484944834" lon="11.371230373804593"><ele>158.0</ele><time>2026-04-08T12:19:03Z</time></trkpt><trkpt lat="45.590821598897605" lon="11.371369848818935"><ele>158.0</ele><time>2026-04-08T12:19:04Z</time></trkpt><trkpt lat="45.59086441827684" lon="11.371540278083355"><ele>158.0</ele><time>2026-04-08T12:19:05Z</time></trkpt><trkpt lat="45.59091313103851" lon="11.371698426364336"><ele>158.0</ele><time>2026-04-08T12:19:06Z</time></trkpt><trkpt lat="45.590947971249584" lon="11.37183516046616"><ele>158.0</ele><time>2026-04-08T12:19:07Z</time></trkpt><trkpt lat="45.59096072847315" lon="11.37193707403157"><ele>158.0</ele><time>2026-04-08T12:19:08Z</time></trkpt><trkpt lat="45.590970004092625" lon="11.372033060195276"><ele>158.0</ele><time>2026-04-08T12:19:09Z</time></trkpt><trkpt lat="45.59097850533416" lon="11.3721237012191"><ele>158.0</ele><time>2026-04-08T12:19:10Z</time></trkpt><trkpt lat="45.59098256284996" lon="11.372220228292298"><ele>158.0</ele><time>2026-04-08T12:19:12Z</time></trkpt><trkpt lat="45.591111962430865" lon="11.372304689094511"><ele>158.0</ele><time>2026-04-08T12:19:15Z</time></trkpt><trkpt lat="45.591171369543076" lon="11.372261150253047"><ele>157.6</ele><time>2026-04-08T12:19:16Z</time></trkpt><trkpt lat="45.59123705979709" lon="11.372173575321698"><ele>157.20000000000002</ele><time>2026-04-08T12:19:17Z</time></trkpt><trkpt lat="45.59130752936455" lon="11.37206462046882"><ele>156.8</ele><time>2026-04-08T12:19:18Z</time></trkpt><trkpt lat="45.59138357876907" lon="11.371963657126381"><ele>156.4</ele><time>2026-04-08T12:19:19Z</time></trkpt><trkpt lat="45.59144962930141" lon="11.371863376349463"><ele>156.0</ele><time>2026-04-08T12:19:20Z</time></trkpt><trkpt lat="45.591516818231504" lon="11.371753361864933"><ele>156.0</ele><time>2026-04-08T12:19:21Z</time></trkpt><trkpt lat="45.59159954407684" lon="11.37162058757985"><ele>156.0</ele><time>2026-04-08T12:19:22Z</time></trkpt><trkpt lat="45.591677458423305" lon="11.371503939841183"><ele>156.0</ele><time>2026-04-08T12:19:23Z</time></trkpt><trkpt lat="45.591748590731086" lon="11.371393909562471"><ele>156.0</ele><time>2026-04-08T12:19:24Z</time></trkpt><trkpt lat="45.591815252418115" lon="11.371290169158653"><ele>156.0</ele><time>2026-04-08T12:19:25Z</time></trkpt><trkpt lat="45.59188017878986" lon="11.371198681485145"><ele>156.2</ele><time>2026-04-08T12:19:26Z</time></trkpt><trkpt lat="45.59195383593548" lon="11.371097040383193"><ele>156.39999999999998</ele><time>2026-04-08T12:19:27Z</time></trkpt><trkpt lat="45.59202656441925" lon="11.370984702008505"><ele>156.6</ele><time>2026-04-08T12:19:28.001Z</time></trkpt><trkpt lat="45.592087196290215" lon="11.37088610204399"><ele>156.79999999999998</ele><time>2026-04-08T12:19:29.001Z</time></trkpt><trkpt lat="45.592152409539736" lon="11.370790429947693"><ele>157.0</ele><time>2026-04-08T12:19:30.001Z</time></trkpt><trkpt lat="45.59221707475909" lon="11.370694730579057"><ele>157.0</ele><time>2026-04-08T12:19:31.001Z</time></trkpt><trkpt lat="45.59227990927131" lon="11.370601249038236"><ele>157.0</ele><time>2026-04-08T12:19:32.001Z</time></trkpt><trkpt lat="45.592356734097" lon="11.370488539349244"><ele>157.0</ele><time>2026-04-08T12:19:33.001Z</time></trkpt><trkpt lat="45.592422817051364" lon="11.370393905799848"><ele>157.0</ele><time>2026-04-08T12:19:34.001Z</time></trkpt><trkpt lat="45.592482949607486" lon="11.3702979550858"><ele>157.0</ele><time>2026-04-08T12:19:35.001Z</time></trkpt><trkpt lat="45.592577089386474" lon="11.370179711245765"><ele>157.2</ele><time>2026-04-08T12:19:37.001Z</time></trkpt><trkpt lat="45.592639664261384" lon="11.37010048431922"><ele>157.39999999999998</ele><time>2026-04-08T12:19:38.001Z</time></trkpt><trkpt lat="45.592689422927926" lon="11.370043008849489"><ele>157.60000000000002</ele><time>2026-04-08T12:19:39.001Z</time></trkpt><trkpt lat="45.59274325675581" lon="11.36997449730497"><ele>157.8</ele><time>2026-04-08T12:19:40.001Z</time></trkpt><trkpt lat="45.59282635078753" lon="11.369855013077572"><ele>158.0</ele><time>2026-04-08T12:19:42.001Z</time></trkpt><trkpt lat="45.59290397932382" lon="11.369715000404922"><ele>158.0</ele><time>2026-04-08T12:19:44.001Z</time></trkpt><trkpt lat="45.5929381822681" lon="11.369636327623526"><ele>158.0</ele><time>2026-04-08T12:19:45.001Z</time></trkpt><trkpt lat="45.592977018308694" lon="11.369539923372944"><ele>158.0</ele><time>2026-04-08T12:19:46.001Z</time></trkpt><trkpt lat="45.593031975896" lon="11.369450762374253"><ele>158.0</ele><time>2026-04-08T12:19:47.001Z</time></trkpt><trkpt lat="45.59309065781892" lon="11.369351489974303"><ele>158.0</ele><time>2026-04-08T12:19:48.001Z</time></trkpt><trkpt lat="45.59314537920804" lon="11.36927525660577"><ele>158.0</ele><time>2026-04-08T12:19:49.001Z</time></trkpt><trkpt lat="45.59320231749802" lon="11.369166664796717"><ele>158.0</ele><time>2026-04-08T12:19:50.001Z</time></trkpt><trkpt lat="45.59325826486302" lon="11.369070105826545"><ele>158.0</ele><time>2026-04-08T12:19:51.001Z</time></trkpt><trkpt lat="45.59333008482364" lon="11.368966327223466"><ele>158.0</ele><time>2026-04-08T12:19:52.001Z</time></trkpt><trkpt lat="45.593400530719926" lon="11.368858973639647"><ele>158.0</ele><time>2026-04-08T12:19:53Z</time></trkpt><trkpt lat="45.59347024831443" lon="11.36873747538795"><ele>158.0</ele><time>2026-04-08T12:19:54Z</time></trkpt><trkpt lat="45.59353112686014" lon="11.368641660672044"><ele>158.0</ele><time>2026-04-08T12:19:55Z</time></trkpt><trkpt lat="45.59358919244695" lon="11.368545861597628"><ele>158.0</ele><time>2026-04-08T12:19:56Z</time></trkpt><trkpt lat="45.593649719826914" lon="11.36845576088307"><ele>158.0</ele><time>2026-04-08T12:19:57Z</time></trkpt><trkpt lat="45.5936984332522" lon="11.368381788221445"><ele>158.0</ele><time>2026-04-08T12:19:58Z</time></trkpt><trkpt lat="45.59377279118337" lon="11.368295502873268"><ele>158.0</ele><time>2026-04-08T12:19:59Z</time></trkpt><trkpt lat="45.59383632042243" lon="11.368236581383558"><ele>158.0</ele><time>2026-04-08T12:20:00Z</time></trkpt><trkpt lat="45.59389808814961" lon="11.368123002959381"><ele>158.0</ele><time>2026-04-08T12:20:01Z</time></trkpt><trkpt lat="45.59396730951423" lon="11.367996263169765"><ele>158.0</ele><time>2026-04-08T12:20:02Z</time></trkpt><trkpt lat="45.594053089688806" lon="11.367875377874677"><ele>158.0</ele><time>2026-04-08T12:20:03Z</time></trkpt><trkpt lat="45.594127993274334" lon="11.367755142777643"><ele>158.0</ele><time>2026-04-08T12:20:04Z</time></trkpt><trkpt lat="45.594197271426395" lon="11.367640428025506"><ele>158.0</ele><time>2026-04-08T12:20:05Z</time></trkpt><trkpt lat="45.59425544656881" lon="11.36752692864906"><ele>158.0</ele><time>2026-04-08T12:20:06Z</time></trkpt><trkpt lat="45.59431869246077" lon="11.367416195240088"><ele>158.0</ele><time>2026-04-08T12:20:07Z</time></trkpt><trkpt lat="45.59439516368845" lon="11.367301810801994"><ele>158.0</ele><time>2026-04-08T12:20:08Z</time></trkpt><trkpt lat="45.59447323233124" lon="11.367202463700803"><ele>158.0</ele><time>2026-04-08T12:20:09Z</time></trkpt><trkpt lat="45.59456032824661" lon="11.367088871739607"><ele>157.4</ele><time>2026-04-08T12:20:10Z</time></trkpt><trkpt lat="45.59464057010314" lon="11.366987505616368"><ele>156.8</ele><time>2026-04-08T12:20:11Z</time></trkpt><trkpt lat="45.59471231308672" lon="11.366879198630619"><ele>156.2</ele><time>2026-04-08T12:20:12Z</time></trkpt><trkpt lat="45.5947838787353" lon="11.366761104095964"><ele>155.6</ele><time>2026-04-08T12:20:13Z</time></trkpt><trkpt lat="45.5948606337189" lon="11.366640347422248"><ele>155.0</ele><time>2026-04-08T12:20:14Z</time></trkpt><trkpt lat="45.59496393011843" lon="11.36651635862715"><ele>155.0</ele><time>2026-04-08T12:20:15Z</time></trkpt><trkpt lat="45.5950603443285" lon="11.36637335569662"><ele>155.0</ele><time>2026-04-08T12:20:16Z</time></trkpt><trkpt lat="45.595154682214044" lon="11.366207536692228"><ele>155.0</ele><time>2026-04-08T12:20:17Z</time></trkpt><trkpt lat="45.595242596112655" lon="11.366081695066459"><ele>155.0</ele><time>2026-04-08T12:20:18Z</time></trkpt><trkpt lat="45.595318997605304" lon="11.365968948902774"><ele>156.25</ele><time>2026-04-08T12:20:19Z</time></trkpt><trkpt lat="45.59539129418778" lon="11.36586433412497"><ele>157.5</ele><time>2026-04-08T12:20:20Z</time></trkpt><trkpt lat="45.59547423451909" lon="11.365748083261234"><ele>158.75</ele><time>2026-04-08T12:20:21Z</time></trkpt><trkpt lat="45.59556021927616" lon="11.365612136322248"><ele>160.0</ele><time>2026-04-08T12:20:22Z</time></trkpt><trkpt lat="45.595636311299685" lon="11.36549345340493"><ele>160.0</ele><time>2026-04-08T12:20:23Z</time></trkpt><trkpt lat="45.59570002005382" lon="11.365383692313621"><ele>160.0</ele><time>2026-04-08T12:20:24Z</time></trkpt><trkpt lat="45.595777660370885" lon="11.365285654221621"><ele>160.0</ele><time>2026-04-08T12:20:25Z</time></trkpt><trkpt lat="45.59584527600142" lon="11.365185202202289"><ele>160.0</ele><time>2026-04-08T12:20:26Z</time></trkpt><trkpt lat="45.595900611148465" lon="11.36507272838838"><ele>160.0</ele><time>2026-04-08T12:20:27Z</time></trkpt><trkpt lat="45.595982350663725" lon="11.364967956601118"><ele>160.0</ele><time>2026-04-08T12:20:28Z</time></trkpt><trkpt lat="45.59605718289835" lon="11.364853664755602"><ele>160.0</ele><time>2026-04-08T12:20:29Z</time></trkpt><trkpt lat="45.59612745715651" lon="11.36474187926712"><ele>160.0</ele><time>2026-04-08T12:20:30Z</time></trkpt><trkpt lat="45.59619684653441" lon="11.364638258599273"><ele>160.0</ele><time>2026-04-08T12:20:31Z</time></trkpt><trkpt lat="45.59626353859031" lon="11.364536280582815"><ele>160.0</ele><time>2026-04-08T12:20:32Z</time></trkpt><trkpt lat="45.59634300323424" lon="11.364413885699276"><ele>160.66666666666669</ele><time>2026-04-08T12:20:33Z</time></trkpt><trkpt lat="45.5963998571325" lon="11.364319787506151"><ele>161.33333333333334</ele><time>2026-04-08T12:20:34Z</time></trkpt><trkpt lat="45.59645552569354" lon="11.364238328491403"><ele>162.0</ele><time>2026-04-08T12:20:35Z</time></trkpt><trkpt lat="45.59649970874318" lon="11.364167094411819"><ele>162.66666666666666</ele><time>2026-04-08T12:20:36Z</time></trkpt><trkpt lat="45.59658696650211" lon="11.364082429998142"><ele>163.33333333333331</ele><time>2026-04-08T12:20:38Z</time></trkpt><trkpt lat="45.5966526111624" lon="11.364150963406887"><ele>164.0</ele><time>2026-04-08T12:20:40Z</time></trkpt><trkpt lat="45.5966651273876" lon="11.36425624768794"><ele>164.0</ele><time>2026-04-08T12:20:41Z</time></trkpt><trkpt lat="45.59670899503462" lon="11.364342675458444"><ele>164.0</ele><time>2026-04-08T12:20:42Z</time></trkpt><trkpt lat="45.59674298659322" lon="11.364448912972554"><ele>164.0</ele><time>2026-04-08T12:20:43Z</time></trkpt><trkpt lat="45.596797208557824" lon="11.36454098775811"><ele>164.0</ele><time>2026-04-08T12:20:44Z</time></trkpt><trkpt lat="45.59685694632397" lon="11.364615296223013"><ele>164.0</ele><time>2026-04-08T12:20:45Z</time></trkpt><trkpt lat="45.596946722399316" lon="11.364683304537094"><ele>164.0</ele><time>2026-04-08T12:20:47Z</time></trkpt><trkpt lat="45.59702543884505" lon="11.36467492764368"><ele>164.33333333333331</ele><time>2026-04-08T12:20:48Z</time></trkpt><trkpt lat="45.59710053393007" lon="11.36461955354181"><ele>164.66666666666666</ele><time>2026-04-08T12:20:49Z</time></trkpt><trkpt lat="45.59717416203825" lon="11.364587139765378"><ele>165.0</ele><time>2026-04-08T12:20:50Z</time></trkpt><trkpt lat="45.59724273420277" lon="11.364557832498171"><ele>165.33333333333334</ele><time>2026-04-08T12:20:51Z</time></trkpt><trkpt lat="45.59730653087046" lon="11.36463240985579"><ele>165.66666666666669</ele><time>2026-04-08T12:20:52Z</time></trkpt><trkpt lat="45.597380963127286" lon="11.364636394852125"><ele>166.0</ele><time>2026-04-08T12:20:53Z</time></trkpt><trkpt lat="45.59747954158344" lon="11.3646059578484"><ele>166.0</ele><time>2026-04-08T12:20:54Z</time></trkpt><trkpt lat="45.59758490824414" lon="11.364587325172536"><ele>166.0</ele><time>2026-04-08T12:20:55Z</time></trkpt><trkpt lat="45.59769238151341" lon="11.36460560985689"><ele>166.0</ele><time>2026-04-08T12:20:56Z</time></trkpt><trkpt lat="45.59778429714552" lon="11.364607953173012"><ele>166.0</ele><time>2026-04-08T12:20:57Z</time></trkpt><trkpt lat="45.59786920239225" lon="11.364613465484837"><ele>166.0</ele><time>2026-04-08T12:20:58Z</time></trkpt><trkpt lat="45.59794190339395" lon="11.364625054733432"><ele>165.83333333333334</ele><time>2026-04-08T12:20:59Z</time></trkpt><trkpt lat="45.598013746360074" lon="11.364633350353746"><ele>165.66666666666669</ele><time>2026-04-08T12:21:00Z</time></trkpt><trkpt lat="45.598048801968766" lon="11.364715658894934"><ele>165.5</ele><time>2026-04-08T12:21:01Z</time></trkpt><trkpt lat="45.59810101553117" lon="11.364799166955102"><ele>165.33333333333334</ele><time>2026-04-08T12:21:02Z</time></trkpt><trkpt lat="45.5981613822337" lon="11.364887393730791"><ele>165.16666666666666</ele><time>2026-04-08T12:21:03Z</time></trkpt><trkpt lat="45.59823348568749" lon="11.364993788134592"><ele>165.0</ele><time>2026-04-08T12:21:04Z</time></trkpt><trkpt lat="45.59830903082948" lon="11.365105261013346"><ele>165.0</ele><time>2026-04-08T12:21:05Z</time></trkpt><trkpt lat="45.59837420373492" lon="11.365199419460247"><ele>165.0</ele><time>2026-04-08T12:21:06Z</time></trkpt><trkpt lat="45.598447147414994" lon="11.365275277973558"><ele>165.0</ele><time>2026-04-08T12:21:07Z</time></trkpt><trkpt lat="45.59849255617843" lon="11.365355645417713"><ele>165.0</ele><time>2026-04-08T12:21:08Z</time></trkpt><trkpt lat="45.598540047506376" lon="11.365416209434661"><ele>165.0</ele><time>2026-04-08T12:21:09Z</time></trkpt><trkpt lat="45.59859545983744" lon="11.365497332116732"><ele>165.0</ele><time>2026-04-08T12:21:10Z</time></trkpt><trkpt lat="45.59865872913551" lon="11.365596435327912"><ele>165.2</ele><time>2026-04-08T12:21:11Z</time></trkpt><trkpt lat="45.59873763372575" lon="11.365623453186776"><ele>165.4</ele><time>2026-04-08T12:21:12Z</time></trkpt><trkpt lat="45.59878118723085" lon="11.365746358499646"><ele>165.60000000000002</ele><time>2026-04-08T12:21:13Z</time></trkpt><trkpt lat="45.59886514212943" lon="11.365880772429827"><ele>165.8</ele><time>2026-04-08T12:21:14Z</time></trkpt><trkpt lat="45.59897067181722" lon="11.365957825960066"><ele>166.0</ele><time>2026-04-08T12:21:15Z</time></trkpt><trkpt lat="45.599061123285075" lon="11.366054334812956"><ele>166.0</ele><time>2026-04-08T12:21:16Z</time></trkpt><trkpt lat="45.59915728687588" lon="11.36615812708941"><ele>166.0</ele><time>2026-04-08T12:21:17Z</time></trkpt><trkpt lat="45.599264733010095" lon="11.366263372928403"><ele>166.0</ele><time>2026-04-08T12:21:18Z</time></trkpt><trkpt lat="45.59936546739276" lon="11.366346662947207"><ele>166.0</ele><time>2026-04-08T12:21:19Z</time></trkpt><trkpt lat="45.59946634722024" lon="11.36643712104501"><ele>165.75</ele><time>2026-04-08T12:21:20Z</time></trkpt><trkpt lat="45.5995676844467" lon="11.366533524578506"><ele>165.5</ele><time>2026-04-08T12:21:21Z</time></trkpt><trkpt lat="45.59967880949212" lon="11.366629325802931"><ele>165.25</ele><time>2026-04-08T12:21:22Z</time></trkpt><trkpt lat="45.59978438865059" lon="11.36672886794025"><ele>165.0</ele><time>2026-04-08T12:21:23Z</time></trkpt><trkpt lat="45.59987877512643" lon="11.366815697655545"><ele>165.0</ele><time>2026-04-08T12:21:24Z</time></trkpt><trkpt lat="45.59996084895768" lon="11.366893663476842"><ele>165.0</ele><time>2026-04-08T12:21:25Z</time></trkpt><trkpt lat="45.60003720835252" lon="11.366970029906136"><ele>165.0</ele><time>2026-04-08T12:21:26Z</time></trkpt><trkpt lat="45.60008768505584" lon="11.36703128915617"><ele>165.0</ele><time>2026-04-08T12:21:27Z</time></trkpt><trkpt lat="45.60011725671135" lon="11.36718498518514"><ele>165.0</ele><time>2026-04-08T12:21:29Z</time></trkpt><trkpt lat="45.60017353849502" lon="11.367315423141362"><ele>165.0</ele><time>2026-04-08T12:21:31Z</time></trkpt><trkpt lat="45.60022257829649" lon="11.367396775517298"><ele>165.0</ele><time>2026-04-08T12:21:32Z</time></trkpt><trkpt lat="45.60031095595423" lon="11.367383578712108"><ele>165.0</ele><time>2026-04-08T12:21:33Z</time></trkpt><trkpt lat="45.60041561092291" lon="11.367396336057114"><ele>165.0</ele><time>2026-04-08T12:21:34Z</time></trkpt><trkpt lat="45.600524100589084" lon="11.367447930557645"><ele>165.0</ele><time>2026-04-08T12:21:35Z</time></trkpt><trkpt lat="45.600620518408086" lon="11.367556146592946"><ele>165.0</ele><time>2026-04-08T12:21:36Z</time></trkpt><trkpt lat="45.60074043571082" lon="11.367629794457738"><ele>165.0</ele><time>2026-04-08T12:21:37Z</time></trkpt><trkpt lat="45.600858171190744" lon="11.367729961193682"><ele>165.0</ele><time>2026-04-08T12:21:38Z</time></trkpt><trkpt lat="45.60096987590045" lon="11.367828873002496"><ele>165.0</ele><time>2026-04-08T12:21:39Z</time></trkpt><trkpt lat="45.60107856129368" lon="11.367917995114684"><ele>165.0</ele><time>2026-04-08T12:21:40Z</time></trkpt><trkpt lat="45.60119945058496" lon="11.368011798682167"><ele>165.0</ele><time>2026-04-08T12:21:41Z</time></trkpt><trkpt lat="45.60131242367185" lon="11.368106178144401"><ele>165.0</ele><time>2026-04-08T12:21:42Z</time></trkpt><trkpt lat="45.6014096452909" lon="11.368208373884107"><ele>165.0</ele><time>2026-04-08T12:21:43Z</time></trkpt><trkpt lat="45.60148776768825" lon="11.36833238233729"><ele>165.0</ele><time>2026-04-08T12:21:44Z</time></trkpt><trkpt lat="45.601532589161444" lon="11.368489481235784"><ele>165.0</ele><time>2026-04-08T12:21:45Z</time></trkpt><trkpt lat="45.60160315239308" lon="11.368624678346672"><ele>165.0</ele><time>2026-04-08T12:21:46Z</time></trkpt><trkpt lat="45.60166775447865" lon="11.368773062606634"><ele>165.0</ele><time>2026-04-08T12:21:47Z</time></trkpt><trkpt lat="45.60175371462461" lon="11.368916050742092"><ele>164.75</ele><time>2026-04-08T12:21:48Z</time></trkpt><trkpt lat="45.60185289426579" lon="11.369029835570318"><ele>164.5</ele><time>2026-04-08T12:21:49Z</time></trkpt><trkpt lat="45.60196878409987" lon="11.369116901227159"><ele>164.25</ele><time>2026-04-08T12:21:50Z</time></trkpt><trkpt lat="45.602101552661395" lon="11.369181139076325"><ele>164.0</ele><time>2026-04-08T12:21:51Z</time></trkpt><trkpt lat="45.602221455566685" lon="11.369218050958871"><ele>164.75</ele><time>2026-04-08T12:21:52Z</time></trkpt><trkpt lat="45.60233444894107" lon="11.369240969948994"><ele>165.5</ele><time>2026-04-08T12:21:53Z</time></trkpt><trkpt lat="45.60245211849822" lon="11.36927502393588"><ele>166.25</ele><time>2026-04-08T12:21:54Z</time></trkpt><trkpt lat="45.60257210087727" lon="11.369307677218325"><ele>167.0</ele><time>2026-04-08T12:21:55Z</time></trkpt><trkpt lat="45.60269615213847" lon="11.369340088565032"><ele>167.0</ele><time>2026-04-08T12:21:56Z</time></trkpt><trkpt lat="45.602818133902765" lon="11.369354051440176"><ele>167.0</ele><time>2026-04-08T12:21:57Z</time></trkpt><trkpt lat="45.6029417331173" lon="11.36937402825809"><ele>167.0</ele><time>2026-04-08T12:21:58Z</time></trkpt><trkpt lat="45.60303493424569" lon="11.369376946401417"><ele>167.0</ele><time>2026-04-08T12:21:59Z</time></trkpt><trkpt lat="45.603117345724684" lon="11.36937507439469"><ele>167.0</ele><time>2026-04-08T12:22:00Z</time></trkpt><trkpt lat="45.603180413384806" lon="11.369372433383962"><ele>168.6</ele><time>2026-04-08T12:22:01Z</time></trkpt><trkpt lat="45.60326339388198" lon="11.369416964051585"><ele>170.2</ele><time>2026-04-08T12:22:03Z</time></trkpt><trkpt lat="45.60326648475135" lon="11.369610869688112"><ele>171.8</ele><time>2026-04-08T12:22:05Z</time></trkpt><trkpt lat="45.60323409355368" lon="11.369729376207319"><ele>173.4</ele><time>2026-04-08T12:22:06Z</time></trkpt><trkpt lat="45.60317929762457" lon="11.369861781963369"><ele>175.0</ele><time>2026-04-08T12:22:07Z</time></trkpt><trkpt lat="45.6031453469685" lon="11.370019403717077"><ele>175.5</ele><time>2026-04-08T12:22:08Z</time></trkpt><trkpt lat="45.60310266202388" lon="11.370171471323038"><ele>176.0</ele><time>2026-04-08T12:22:09Z</time></trkpt><trkpt lat="45.603062629771294" lon="11.3703149874344"><ele>176.5</ele><time>2026-04-08T12:22:10Z</time></trkpt><trkpt lat="45.603013118130015" lon="11.370473486401213"><ele>177.0</ele><time>2026-04-08T12:22:11Z</time></trkpt><trkpt lat="45.60295760510197" lon="11.370632563456056"><ele>178.0</ele><time>2026-04-08T12:22:12Z</time></trkpt><trkpt lat="45.60286638620303" lon="11.370774162858714"><ele>179.0</ele><time>2026-04-08T12:22:13Z</time></trkpt><trkpt lat="45.6027741595146" lon="11.370909294751652"><ele>180.0</ele><time>2026-04-08T12:22:14Z</time></trkpt><trkpt lat="45.60268323324909" lon="11.371037796512084"><ele>181.0</ele><time>2026-04-08T12:22:15Z</time></trkpt><trkpt lat="45.60261363434892" lon="11.371162346947864"><ele>179.20000000000002</ele><time>2026-04-08T12:22:16Z</time></trkpt><trkpt lat="45.60253937854965" lon="11.371269583135286"><ele>177.4</ele><time>2026-04-08T12:22:17Z</time></trkpt><trkpt lat="45.602479473295006" lon="11.37139041399236"><ele>175.6</ele><time>2026-04-08T12:22:18Z</time></trkpt><trkpt lat="45.602444970920814" lon="11.3715262957954"><ele>173.8</ele><time>2026-04-08T12:22:19Z</time></trkpt><trkpt lat="45.60242240977951" lon="11.371669845735033"><ele>172.0</ele><time>2026-04-08T12:22:20Z</time></trkpt><trkpt lat="45.60239977364929" lon="11.371822298300891"><ele>172.0</ele><time>2026-04-08T12:22:21Z</time></trkpt><trkpt lat="45.60237321563273" lon="11.371988466198944"><ele>172.0</ele><time>2026-04-08T12:22:22Z</time></trkpt><trkpt lat="45.602343762142006" lon="11.372163615055792"><ele>172.0</ele><time>2026-04-08T12:22:23Z</time></trkpt><trkpt lat="45.60230576257512" lon="11.37234951464274"><ele>172.0</ele><time>2026-04-08T12:22:24Z</time></trkpt><trkpt lat="45.602257738171545" lon="11.372541292473878"><ele>172.75</ele><time>2026-04-08T12:22:25Z</time></trkpt><trkpt lat="45.60218767890276" lon="11.372721202327599"><ele>173.5</ele><time>2026-04-08T12:22:26Z</time></trkpt><trkpt lat="45.60216622535878" lon="11.372913238305633"><ele>174.25</ele><time>2026-04-08T12:22:27Z</time></trkpt><trkpt lat="45.602155739456244" lon="11.3730839447786"><ele>175.0</ele><time>2026-04-08T12:22:28Z</time></trkpt><trkpt lat="45.60217014373353" lon="11.373244649517803"><ele>175.75</ele><time>2026-04-08T12:22:29Z</time></trkpt><trkpt lat="45.60218815398262" lon="11.373402150344388"><ele>176.5</ele><time>2026-04-08T12:22:30Z</time></trkpt><trkpt lat="45.602216152922345" lon="11.373554167558307"><ele>177.25</ele><time>2026-04-08T12:22:31Z</time></trkpt><trkpt lat="45.602252326578764" lon="11.373714231544193"><ele>178.0</ele><time>2026-04-08T12:22:32Z</time></trkpt><trkpt lat="45.60228344233152" lon="11.373884591436333"><ele>178.5</ele><time>2026-04-08T12:22:33Z</time></trkpt><trkpt lat="45.60228279574019" lon="11.374063544321734"><ele>179.0</ele><time>2026-04-08T12:22:34Z</time></trkpt><trkpt lat="45.60227624747947" lon="11.374242177312775"><ele>179.5</ele><time>2026-04-08T12:22:35Z</time></trkpt><trkpt lat="45.60226556650727" lon="11.374428314484547"><ele>180.0</ele><time>2026-04-08T12:22:36Z</time></trkpt><trkpt lat="45.602258013621665" lon="11.374614411621417"><ele>180.6</ele><time>2026-04-08T12:22:37Z</time></trkpt><trkpt lat="45.60228429130496" lon="11.374776334954403"><ele>181.2</ele><time>2026-04-08T12:22:38Z</time></trkpt><trkpt lat="45.60233482362157" lon="11.374897741970162"><ele>181.8</ele><time>2026-04-08T12:22:39Z</time></trkpt><trkpt lat="45.60240253698621" lon="11.37498174068587"><ele>182.4</ele><time>2026-04-08T12:22:40Z</time></trkpt><trkpt lat="45.60248158564526" lon="11.375035032003987"><ele>183.0</ele><time>2026-04-08T12:22:41Z</time></trkpt><trkpt lat="45.60255697634378" lon="11.375067440917498"><ele>183.0</ele><time>2026-04-08T12:22:42Z</time></trkpt><trkpt lat="45.602630659740704" lon="11.37512616718316"><ele>183.0</ele><time>2026-04-08T12:22:43Z</time></trkpt><trkpt lat="45.60272506417055" lon="11.375142257609697"><ele>183.0</ele><time>2026-04-08T12:22:44Z</time></trkpt><trkpt lat="45.602829561719545" lon="11.375203029261645"><ele>183.0</ele><time>2026-04-08T12:22:45Z</time></trkpt><trkpt lat="45.60292752573664" lon="11.375266978597248"><ele>183.0</ele><time>2026-04-08T12:22:46Z</time></trkpt><trkpt lat="45.603021133655425" lon="11.375337770491123"><ele>183.4</ele><time>2026-04-08T12:22:47Z</time></trkpt><trkpt lat="45.60311354168496" lon="11.375410661670958"><ele>183.8</ele><time>2026-04-08T12:22:48Z</time></trkpt><trkpt lat="45.60319067528611" lon="11.375518380920669"><ele>184.2</ele><time>2026-04-08T12:22:49Z</time></trkpt><trkpt lat="45.603258271901446" lon="11.375583575781178"><ele>184.6</ele><time>2026-04-08T12:22:50Z</time></trkpt><trkpt lat="45.60334402478701" lon="11.375666279167131"><ele>185.0</ele><time>2026-04-08T12:22:52Z</time></trkpt><trkpt lat="45.603477116761674" lon="11.375614576373593"><ele>185.0</ele><time>2026-04-08T12:22:54Z</time></trkpt><trkpt lat="45.60360246703083" lon="11.375611365940584"><ele>185.0</ele><time>2026-04-08T12:22:56Z</time></trkpt><trkpt lat="45.60366970022671" lon="11.375629970549014"><ele>185.0</ele><time>2026-04-08T12:22:57Z</time></trkpt><trkpt lat="45.60379185762303" lon="11.375684479860363"><ele>185.0</ele><time>2026-04-08T12:22:59Z</time></trkpt><trkpt lat="45.60390653332912" lon="11.37575554179182"><ele>185.0</ele><time>2026-04-08T12:23:01Z</time></trkpt><trkpt lat="45.603993216917054" lon="11.375785788722562"><ele>187.4</ele><time>2026-04-08T12:23:02Z</time></trkpt><trkpt lat="45.604064968569716" lon="11.375857050821864"><ele>189.8</ele><time>2026-04-08T12:23:03Z</time></trkpt><trkpt lat="45.60415194215658" lon="11.375892042435321"><ele>192.2</ele><time>2026-04-08T12:23:04Z</time></trkpt><trkpt lat="45.60424317546712" lon="11.375910261056678"><ele>194.6</ele><time>2026-04-08T12:23:05Z</time></trkpt><trkpt lat="45.60433968109081" lon="11.375894887552926"><ele>197.0</ele><time>2026-04-08T12:23:06Z</time></trkpt><trkpt lat="45.60443302109921" lon="11.375879522027253"><ele>199.83333333333334</ele><time>2026-04-08T12:23:07Z</time></trkpt><trkpt lat="45.60451998286028" lon="11.375858458094196"><ele>202.66666666666669</ele><time>2026-04-08T12:23:08Z</time></trkpt><trkpt lat="45.60458101175674" lon="11.375801962339901"><ele>205.5</ele><time>2026-04-08T12:23:09Z</time></trkpt><trkpt lat="45.60462222633382" lon="11.375718578799004"><ele>208.33333333333331</ele><time>2026-04-08T12:23:10Z</time></trkpt><trkpt lat="45.604655203894204" lon="11.37562187872042"><ele>211.16666666666666</ele><time>2026-04-08T12:23:11Z</time></trkpt><trkpt lat="45.60469804753782" lon="11.375516567590989"><ele>214.0</ele><time>2026-04-08T12:23:12Z</time></trkpt><trkpt lat="45.604740087305736" lon="11.375398482551724"><ele>215.2</ele><time>2026-04-08T12:23:13Z</time></trkpt><trkpt lat="45.60478392939427" lon="11.375279414522302"><ele>216.39999999999998</ele><time>2026-04-08T12:23:14Z</time></trkpt><trkpt lat="45.6048152951843" lon="11.375153419910134"><ele>217.6</ele><time>2026-04-08T12:23:15Z</time></trkpt><trkpt lat="45.60484135955774" lon="11.375015279895681"><ele>218.8</ele><time>2026-04-08T12:23:16Z</time></trkpt><trkpt lat="45.604882820148006" lon="11.37485186759073"><ele>220.0</ele><time>2026-04-08T12:23:17Z</time></trkpt><trkpt lat="45.604904740826996" lon="11.374707083652925"><ele>221.8</ele><time>2026-04-08T12:23:18Z</time></trkpt><trkpt lat="45.60490627419833" lon="11.37455372683873"><ele>223.6</ele><time>2026-04-08T12:23:19Z</time></trkpt><trkpt lat="45.60493560728014" lon="11.374425430448824"><ele>225.39999999999998</ele><time>2026-04-08T12:23:20Z</time></trkpt><trkpt lat="45.60494965248703" lon="11.374273552484125"><ele>227.2</ele><time>2026-04-08T12:23:21Z</time></trkpt><trkpt lat="45.60495597591756" lon="11.37412285165044"><ele>229.0</ele><time>2026-04-08T12:23:22Z</time></trkpt><trkpt lat="45.6049268199918" lon="11.373968037054993"><ele>229.0</ele><time>2026-04-08T12:23:23Z</time></trkpt><trkpt lat="45.604909055882274" lon="11.373818156323853"><ele>228.99999999999997</ele><time>2026-04-08T12:23:24Z</time></trkpt><trkpt lat="45.60490603516696" lon="11.373665585294102"><ele>228.99999999999997</ele><time>2026-04-08T12:23:25Z</time></trkpt><trkpt lat="45.604909984914826" lon="11.373552357459877"><ele>229.0</ele><time>2026-04-08T12:23:26Z</time></trkpt><trkpt lat="45.604923723437544" lon="11.37343962114528"><ele>229.0</ele><time>2026-04-08T12:23:27Z</time></trkpt><trkpt lat="45.60494860657991" lon="11.373313408450212"><ele>229.0</ele><time>2026-04-08T12:23:28Z</time></trkpt><trkpt lat="45.60497103106254" lon="11.373169385922486"><ele>228.99999999999997</ele><time>2026-04-08T12:23:29Z</time></trkpt><trkpt lat="45.604992916642736" lon="11.373028825282567"><ele>228.99999999999997</ele><time>2026-04-08T12:23:30Z</time></trkpt><trkpt lat="45.604992313914245" lon="11.372885442489538"><ele>229.0</ele><time>2026-04-08T12:23:31Z</time></trkpt><trkpt lat="45.60498865527891" lon="11.372744189455068"><ele>229.0</ele><time>2026-04-08T12:23:32Z</time></trkpt><trkpt lat="45.604963898632164" lon="11.372626281077906"><ele>229.66666666666666</ele><time>2026-04-08T12:23:33Z</time></trkpt><trkpt lat="45.604936334610194" lon="11.372492607203439"><ele>230.33333333333331</ele><time>2026-04-08T12:23:34Z</time></trkpt><trkpt lat="45.60492305674324" lon="11.372361975048241"><ele>231.0</ele><time>2026-04-08T12:23:35Z</time></trkpt><trkpt lat="45.60493964451344" lon="11.372259864477941"><ele>231.66666666666669</ele><time>2026-04-08T12:23:36Z</time></trkpt><trkpt lat="45.6049466077261" lon="11.37216079404456"><ele>232.33333333333334</ele><time>2026-04-08T12:23:37Z</time></trkpt><trkpt lat="45.604956956218764" lon="11.372064143786975"><ele>233.0</ele><time>2026-04-08T12:23:38Z</time></trkpt><trkpt lat="45.604983427998455" lon="11.371964870627492"><ele>233.0</ele><time>2026-04-08T12:23:39Z</time></trkpt><trkpt lat="45.60505534086148" lon="11.37181616716807"><ele>233.0</ele><time>2026-04-08T12:23:41Z</time></trkpt><trkpt lat="45.60511275025555" lon="11.371727150005134"><ele>233.0</ele><time>2026-04-08T12:23:42Z</time></trkpt><trkpt lat="45.60519924423872" lon="11.37162389289854"><ele>233.0</ele><time>2026-04-08T12:23:44Z</time></trkpt><trkpt lat="45.605244257801054" lon="11.371500948182918"><ele>233.0</ele><time>2026-04-08T12:23:46Z</time></trkpt><trkpt lat="45.60529392935121" lon="11.371351094749414"><ele>233.4</ele><time>2026-04-08T12:23:48Z</time></trkpt><trkpt lat="45.60531045590624" lon="11.371229616984845"><ele>233.8</ele><time>2026-04-08T12:23:50Z</time></trkpt><trkpt lat="45.60545378388248" lon="11.371357272487149"><ele>234.2</ele><time>2026-04-08T12:23:51Z</time></trkpt><trkpt lat="45.605530172281426" lon="11.37137051844379"><ele>234.6</ele><time>2026-04-08T12:23:52Z</time></trkpt><trkpt lat="45.6056454049364" lon="11.371392118638438"><ele>235.0</ele><time>2026-04-08T12:23:53Z</time></trkpt><trkpt lat="45.60574628956012" lon="11.371413883427493"><ele>234.99999999999997</ele><time>2026-04-08T12:23:54Z</time></trkpt><trkpt lat="45.60582867887981" lon="11.371433130081513"><ele>235.0</ele><time>2026-04-08T12:23:55Z</time></trkpt><trkpt lat="45.605913118410854" lon="11.371487403637182"><ele>235.0</ele><time>2026-04-08T12:23:56Z</time></trkpt><trkpt lat="45.60597039780495" lon="11.37155894692893"><ele>235.0</ele><time>2026-04-08T12:23:57Z</time></trkpt><trkpt lat="45.606003057536704" lon="11.37163770775136"><ele>234.99999999999997</ele><time>2026-04-08T12:23:58Z</time></trkpt><trkpt lat="45.60604303480537" lon="11.371754594324367"><ele>235.0</ele><time>2026-04-08T12:23:59Z</time></trkpt><trkpt lat="45.606056465820416" lon="11.371848419113968"><ele>235.0</ele><time>2026-04-08T12:24:00Z</time></trkpt><trkpt lat="45.60608068923183" lon="11.371993509264486"><ele>235.0</ele><time>2026-04-08T12:24:02Z</time></trkpt><trkpt lat="45.60609656855336" lon="11.372089231973288"><ele>235.0</ele><time>2026-04-08T12:24:05Z</time></trkpt><trkpt lat="45.606124222914694" lon="11.372191555415533"><ele>235.0</ele><time>2026-04-08T12:24:07Z</time></trkpt><trkpt lat="45.60619751298653" lon="11.372253178312706"><ele>235.0</ele><time>2026-04-08T12:24:09Z</time></trkpt><trkpt lat="45.60646536495849" lon="11.371998052425768"><ele>236.16666666666666</ele><time>2026-04-08T12:24:11Z</time></trkpt><trkpt lat="45.6065495715042" lon="11.371960897995587"><ele>237.33333333333331</ele><time>2026-04-08T12:24:12Z</time></trkpt><trkpt lat="45.60663816768925" lon="11.371938153155542"><ele>238.5</ele><time>2026-04-08T12:24:13Z</time></trkpt><trkpt lat="45.606713962213476" lon="11.371924898127205"><ele>239.66666666666669</ele><time>2026-04-08T12:24:14Z</time></trkpt><trkpt lat="45.60680070697622" lon="11.371928341491115"><ele>240.83333333333334</ele><time>2026-04-08T12:24:15Z</time></trkpt><trkpt lat="45.606885907379215" lon="11.371939671214088"><ele>242.0</ele><time>2026-04-08T12:24:16Z</time></trkpt><trkpt lat="45.60698972346463" lon="11.371956491560558"><ele>243.39999999999998</ele><time>2026-04-08T12:24:17Z</time></trkpt><trkpt lat="45.60710409651401" lon="11.371979622012317"><ele>244.79999999999998</ele><time>2026-04-08T12:24:18Z</time></trkpt><trkpt lat="45.607215011996004" lon="11.371997336739092"><ele>246.2</ele><time>2026-04-08T12:24:19Z</time></trkpt><trkpt lat="45.60732201881259" lon="11.371995858481128"><ele>247.6</ele><time>2026-04-08T12:24:20Z</time></trkpt><trkpt lat="45.60743047042974" lon="11.371973832650443"><ele>249.0</ele><time>2026-04-08T12:24:21Z</time></trkpt><trkpt lat="45.607506218960225" lon="11.371939209466227"><ele>249.0</ele><time>2026-04-08T12:24:22Z</time></trkpt><trkpt lat="45.60758960731204" lon="11.37187328027401"><ele>249.0</ele><time>2026-04-08T12:24:23Z</time></trkpt><trkpt lat="45.607652841686445" lon="11.371823548126413"><ele>249.0</ele><time>2026-04-08T12:24:24Z</time></trkpt><trkpt lat="45.607717204373365" lon="11.371803944793754"><ele>249.0</ele><time>2026-04-08T12:24:25Z</time></trkpt><trkpt lat="45.607784806900334" lon="11.371814856189623"><ele>249.0</ele><time>2026-04-08T12:24:26Z</time></trkpt><trkpt lat="45.60785535891473" lon="11.371852042832446"><ele>249.0</ele><time>2026-04-08T12:24:27Z</time></trkpt><trkpt lat="45.607954020619005" lon="11.37192844059503"><ele>251.66666666666666</ele><time>2026-04-08T12:24:28Z</time></trkpt><trkpt lat="45.608045757743646" lon="11.371981937631196"><ele>254.33333333333331</ele><time>2026-04-08T12:24:29Z</time></trkpt><trkpt lat="45.60813890751344" lon="11.372006599513243"><ele>257.0</ele><time>2026-04-08T12:24:30Z</time></trkpt><trkpt lat="45.608227691622716" lon="11.372016403699496"><ele>259.66666666666663</ele><time>2026-04-08T12:24:31Z</time></trkpt><trkpt lat="45.60830092199081" lon="11.372020279053904"><ele>262.3333333333333</ele><time>2026-04-08T12:24:32Z</time></trkpt><trkpt lat="45.60836829376947" lon="11.37199528905941"><ele>265.0</ele><time>2026-04-08T12:24:33Z</time></trkpt><trkpt lat="45.60843324037761" lon="11.371985378627368"><ele>265.0</ele><time>2026-04-08T12:24:34Z</time></trkpt><trkpt lat="45.60850628175601" lon="11.37197860234083"><ele>265.0</ele><time>2026-04-08T12:24:35Z</time></trkpt><trkpt lat="45.60861436393212" lon="11.371967639629723"><ele>265.0</ele><time>2026-04-08T12:24:36Z</time></trkpt><trkpt lat="45.608692571395544" lon="11.371934449680854"><ele>265.0</ele><time>2026-04-08T12:24:37Z</time></trkpt><trkpt lat="45.60874263515897" lon="11.371863541309391"><ele>265.0</ele><time>2026-04-08T12:24:39Z</time></trkpt><trkpt lat="45.60873907599573" lon="11.37177325085342"><ele>265.0</ele><time>2026-04-08T12:24:41Z</time></trkpt><trkpt lat="45.60876396449773" lon="11.371627926289865"><ele>265.16666666666663</ele><time>2026-04-08T12:24:43Z</time></trkpt><trkpt lat="45.60880013109556" lon="11.371538961520313"><ele>265.3333333333333</ele><time>2026-04-08T12:24:44Z</time></trkpt><trkpt lat="45.608856453854386" lon="11.371460493141408"><ele>265.5</ele><time>2026-04-08T12:24:45Z</time></trkpt><trkpt lat="45.60897932930511" lon="11.371443579983847"><ele>265.6666666666667</ele><time>2026-04-08T12:24:47Z</time></trkpt><trkpt lat="45.60904395696831" lon="11.371432042122372"><ele>265.83333333333337</ele><time>2026-04-08T12:24:48Z</time></trkpt><trkpt lat="45.60914202847631" lon="11.371394274267669"><ele>266.0</ele><time>2026-04-08T12:24:49Z</time></trkpt><trkpt lat="45.609254567268806" lon="11.371349254078176"><ele>268.40000000000003</ele><time>2026-04-08T12:24:50Z</time></trkpt><trkpt lat="45.60932763119056" lon="11.371291931534275"><ele>270.8</ele><time>2026-04-08T12:24:51Z</time></trkpt><trkpt lat="45.609396936567364" lon="11.371229124990725"><ele>273.20000000000005</ele><time>2026-04-08T12:24:52Z</time></trkpt><trkpt lat="45.60947838535204" lon="11.37110371434765"><ele>275.6</ele><time>2026-04-08T12:24:54Z</time></trkpt><trkpt lat="45.60952610274804" lon="11.371029738247458"><ele>278.0</ele><time>2026-04-08T12:24:55Z</time></trkpt><trkpt lat="45.609587183384605" lon="11.370917862227595"><ele>278.0</ele><time>2026-04-08T12:24:57Z</time></trkpt><trkpt lat="45.60958839202164" lon="11.370777320718714"><ele>278.0</ele><time>2026-04-08T12:24:59Z</time></trkpt><trkpt lat="45.60960559165754" lon="11.370684111092912"><ele>278.0</ele><time>2026-04-08T12:25:00Z</time></trkpt><trkpt lat="45.609643622830795" lon="11.370605113844222"><ele>278.0</ele><time>2026-04-08T12:25:01Z</time></trkpt><trkpt lat="45.60968206532533" lon="11.370522246243954"><ele>278.0</ele><time>2026-04-08T12:25:02Z</time></trkpt><trkpt lat="45.60970141626146" lon="11.37041992625308"><ele>278.0</ele><time>2026-04-08T12:25:03Z</time></trkpt><trkpt lat="45.60971269234835" lon="11.370298535949702"><ele>278.4</ele><time>2026-04-08T12:25:04Z</time></trkpt><trkpt lat="45.60970138366606" lon="11.370178872733007"><ele>278.8</ele><time>2026-04-08T12:25:06Z</time></trkpt><trkpt lat="45.6096296140778" lon="11.370034260583385"><ele>279.2</ele><time>2026-04-08T12:25:09Z</time></trkpt><trkpt lat="45.609563839904624" lon="11.369985544285893"><ele>279.6</ele><time>2026-04-08T12:25:10Z</time></trkpt><trkpt lat="45.60948163988979" lon="11.36990232308466"><ele>280.0</ele><time>2026-04-08T12:25:12Z</time></trkpt><trkpt lat="45.609464694923695" lon="11.369740101694665"><ele>281.66666666666663</ele><time>2026-04-08T12:25:14Z</time></trkpt><trkpt lat="45.60946466405604" lon="11.369630656446688"><ele>283.3333333333333</ele><time>2026-04-08T12:25:15Z</time></trkpt><trkpt lat="45.60943489515974" lon="11.369530717961235"><ele>285.0</ele><time>2026-04-08T12:25:16Z</time></trkpt><trkpt lat="45.609409569071666" lon="11.369380323515104"><ele>286.6666666666667</ele><time>2026-04-08T12:25:17Z</time></trkpt><trkpt lat="45.609390668393935" lon="11.369275495425073"><ele>288.33333333333337</ele><time>2026-04-08T12:25:18Z</time></trkpt><trkpt lat="45.60935302657459" lon="11.369166792561995"><ele>290.0</ele><time>2026-04-08T12:25:19Z</time></trkpt><trkpt lat="45.60932915986219" lon="11.3690495877771"><ele>290.0</ele><time>2026-04-08T12:25:20Z</time></trkpt><trkpt lat="45.60929870792053" lon="11.368938931841948"><ele>290.0</ele><time>2026-04-08T12:25:21Z</time></trkpt><trkpt lat="45.609251654448954" lon="11.368820291504967"><ele>290.0</ele><time>2026-04-08T12:25:22Z</time></trkpt><trkpt lat="45.609224141201416" lon="11.368688942643812"><ele>290.0</ele><time>2026-04-08T12:25:23Z</time></trkpt><trkpt lat="45.60920727685766" lon="11.368562954589885"><ele>290.0</ele><time>2026-04-08T12:25:24Z</time></trkpt><trkpt lat="45.6092208357917" lon="11.36844027713531"><ele>288.33333333333337</ele><time>2026-04-08T12:25:25Z</time></trkpt><trkpt lat="45.60921774684327" lon="11.36833906345662"><ele>286.6666666666667</ele><time>2026-04-08T12:25:26Z</time></trkpt><trkpt lat="45.60924986124282" lon="11.368247276602427"><ele>285.0</ele><time>2026-04-08T12:25:27Z</time></trkpt><trkpt lat="45.60929457512205" lon="11.368173980535474"><ele>283.3333333333333</ele><time>2026-04-08T12:25:28Z</time></trkpt><trkpt lat="45.60937909432063" lon="11.368114536804905"><ele>281.66666666666663</ele><time>2026-04-08T12:25:29Z</time></trkpt><trkpt lat="45.609448672538214" lon="11.368019283309318"><ele>280.0</ele><time>2026-04-08T12:25:30Z</time></trkpt><trkpt lat="45.60954443977087" lon="11.367943223404522"><ele>279.8</ele><time>2026-04-08T12:25:31Z</time></trkpt><trkpt lat="45.609610688283766" lon="11.367867672896638"><ele>279.6</ele><time>2026-04-08T12:25:32Z</time></trkpt><trkpt lat="45.609671370695054" lon="11.367761811865483"><ele>279.4</ele><time>2026-04-08T12:25:34Z</time></trkpt><trkpt lat="45.609739228478546" lon="11.367715729185004"><ele>279.2</ele><time>2026-04-08T12:25:36Z</time></trkpt><trkpt lat="45.609831911982184" lon="11.367834731747282"><ele>279.0</ele><time>2026-04-08T12:25:37Z</time></trkpt><trkpt lat="45.609923276547" lon="11.36786829577185"><ele>279.0</ele><time>2026-04-08T12:25:38Z</time></trkpt><trkpt lat="45.61002772424727" lon="11.367883414881026"><ele>279.0</ele><time>2026-04-08T12:25:39Z</time></trkpt><trkpt lat="45.61013939746127" lon="11.367889496441581"><ele>279.0</ele><time>2026-04-08T12:25:40Z</time></trkpt><trkpt lat="45.61026834977616" lon="11.367869388190163"><ele>279.0</ele><time>2026-04-08T12:25:41Z</time></trkpt><trkpt lat="45.61038374011175" lon="11.367829500023161"><ele>278.0</ele><time>2026-04-08T12:25:42Z</time></trkpt><trkpt lat="45.61048657961483" lon="11.367784837247308"><ele>277.0</ele><time>2026-04-08T12:25:43Z</time></trkpt><trkpt lat="45.61057783137419" lon="11.367715893553491"><ele>276.0</ele><time>2026-04-08T12:25:44Z</time></trkpt><trkpt lat="45.61066983580917" lon="11.367650661328378"><ele>275.0</ele><time>2026-04-08T12:25:45Z</time></trkpt><trkpt lat="45.610755785623574" lon="11.367510001977815"><ele>274.0</ele><time>2026-04-08T12:25:46Z</time></trkpt><trkpt lat="45.6108534804167" lon="11.367398490379465"><ele>274.0</ele><time>2026-04-08T12:25:47Z</time></trkpt><trkpt lat="45.610951811317896" lon="11.367341003655707"><ele>274.0</ele><time>2026-04-08T12:25:48Z</time></trkpt><trkpt lat="45.61104527101608" lon="11.367282302521906"><ele>274.0</ele><time>2026-04-08T12:25:49Z</time></trkpt><trkpt lat="45.61113193360768" lon="11.36724233082416"><ele>274.0</ele><time>2026-04-08T12:25:50Z</time></trkpt><trkpt lat="45.61123667714433" lon="11.367206696040341"><ele>274.0</ele><time>2026-04-08T12:25:51Z</time></trkpt><trkpt lat="45.611339690294024" lon="11.367184669212424"><ele>274.0</ele><time>2026-04-08T12:25:52Z</time></trkpt><trkpt lat="45.611417847569335" lon="11.367179684385224"><ele>274.0</ele><time>2026-04-08T12:25:53Z</time></trkpt><trkpt lat="45.61148348401092" lon="11.3671986338449"><ele>274.0</ele><time>2026-04-08T12:25:55Z</time></trkpt><trkpt lat="45.61158594174362" lon="11.367250186622677"><ele>274.0</ele><time>2026-04-08T12:25:57Z</time></trkpt><trkpt lat="45.61165012256752" lon="11.367317848569389"><ele>274.0</ele><time>2026-04-08T12:25:58Z</time></trkpt><trkpt lat="45.61172370442858" lon="11.36740959186441"><ele>274.0</ele><time>2026-04-08T12:25:59Z</time></trkpt><trkpt lat="45.611792437249484" lon="11.36747488300758"><ele>274.0</ele><time>2026-04-08T12:26:00Z</time></trkpt><trkpt lat="45.61186257007951" lon="11.367541675284281"><ele>274.0</ele><time>2026-04-08T12:26:01Z</time></trkpt><trkpt lat="45.611930106228954" lon="11.367612054569099"><ele>274.0</ele><time>2026-04-08T12:26:02Z</time></trkpt><trkpt lat="45.611985438571786" lon="11.367670138929686"><ele>274.0</ele><time>2026-04-08T12:26:03Z</time></trkpt><trkpt lat="45.61204518598785" lon="11.367716577200543"><ele>274.0</ele><time>2026-04-08T12:26:04Z</time></trkpt><trkpt lat="45.61216631866145" lon="11.367739651945183"><ele>274.0</ele><time>2026-04-08T12:26:06Z</time></trkpt><trkpt lat="45.612241717198515" lon="11.367608343060835"><ele>274.16666666666663</ele><time>2026-04-08T12:26:08Z</time></trkpt><trkpt lat="45.612264554566636" lon="11.367515419833305"><ele>274.3333333333333</ele><time>2026-04-08T12:26:09Z</time></trkpt><trkpt lat="45.6123706738409" lon="11.367441725445815"><ele>274.5</ele><time>2026-04-08T12:26:11Z</time></trkpt><trkpt lat="45.61243298935111" lon="11.36748736675914"><ele>274.6666666666667</ele><time>2026-04-08T12:26:12Z</time></trkpt><trkpt lat="45.61248489226277" lon="11.367575878893632"><ele>274.83333333333337</ele><time>2026-04-08T12:26:13Z</time></trkpt><trkpt lat="45.61250821531925" lon="11.36769984034077"><ele>275.0</ele><time>2026-04-08T12:26:14Z</time></trkpt><trkpt lat="45.6125707627044" lon="11.36781335598301"><ele>275.0</ele><time>2026-04-08T12:26:15Z</time></trkpt><trkpt lat="45.61261686980806" lon="11.36794001086616"><ele>275.0</ele><time>2026-04-08T12:26:16Z</time></trkpt><trkpt lat="45.61263184576772" lon="11.368097301537055"><ele>275.0</ele><time>2026-04-08T12:26:17Z</time></trkpt><trkpt lat="45.6126659730709" lon="11.368243112641473"><ele>275.0</ele><time>2026-04-08T12:26:18Z</time></trkpt><trkpt lat="45.6127335185243" lon="11.368347324038721"><ele>275.0</ele><time>2026-04-08T12:26:19Z</time></trkpt><trkpt lat="45.612777744156176" lon="11.368447196937455"><ele>275.2</ele><time>2026-04-08T12:26:20Z</time></trkpt><trkpt lat="45.61287407513961" lon="11.368500230949198"><ele>275.4</ele><time>2026-04-08T12:26:21Z</time></trkpt><trkpt lat="45.612967715284896" lon="11.368589136815665"><ele>275.6</ele><time>2026-04-08T12:26:22Z</time></trkpt><trkpt lat="45.61304461563117" lon="11.368685494639305"><ele>275.8</ele><time>2026-04-08T12:26:23Z</time></trkpt><trkpt lat="45.613125413854185" lon="11.368766049171297"><ele>276.0</ele><time>2026-04-08T12:26:24Z</time></trkpt><trkpt lat="45.61319666488167" lon="11.368839219518284"><ele>274.40000000000003</ele><time>2026-04-08T12:26:25Z</time></trkpt><trkpt lat="45.6132689301064" lon="11.368918724197432"><ele>272.8</ele><time>2026-04-08T12:26:26Z</time></trkpt><trkpt lat="45.613364583538264" lon="11.369058069169414"><ele>271.20000000000005</ele><time>2026-04-08T12:26:28Z</time></trkpt><trkpt lat="45.61339766727576" lon="11.369142122481012"><ele>269.6</ele><time>2026-04-08T12:26:29Z</time></trkpt><trkpt lat="45.613438710777196" lon="11.369288468429442"><ele>268.0</ele><time>2026-04-08T12:26:31Z</time></trkpt><trkpt lat="45.613601648547636" lon="11.369302949198845"><ele>269.4</ele><time>2026-04-08T12:26:32Z</time></trkpt><trkpt lat="45.61368430824718" lon="11.369364113428697"><ele>270.8</ele><time>2026-04-08T12:26:33Z</time></trkpt><trkpt lat="45.61374613485395" lon="11.369496610270021"><ele>272.2</ele><time>2026-04-08T12:26:34Z</time></trkpt><trkpt lat="45.613844710947724" lon="11.369579313030115"><ele>273.6</ele><time>2026-04-08T12:26:35Z</time></trkpt><trkpt lat="45.613947007022915" lon="11.369662859487786"><ele>275.0</ele><time>2026-04-08T12:26:36Z</time></trkpt><trkpt lat="45.614030563762725" lon="11.369735445508681"><ele>275.0</ele><time>2026-04-08T12:26:37Z</time></trkpt><trkpt lat="45.61409601244882" lon="11.369798389429084"><ele>275.0</ele><time>2026-04-08T12:26:38Z</time></trkpt><trkpt lat="45.61415578463335" lon="11.3698720591308"><ele>275.0</ele><time>2026-04-08T12:26:39Z</time></trkpt><trkpt lat="45.614240380693225" lon="11.37001130748065"><ele>275.0</ele><time>2026-04-08T12:26:41Z</time></trkpt><trkpt lat="45.61427988188508" lon="11.370089096638097"><ele>275.0</ele><time>2026-04-08T12:26:42Z</time></trkpt><trkpt lat="45.614317211055436" lon="11.370182577051116"><ele>275.0</ele><time>2026-04-08T12:26:43Z</time></trkpt><trkpt lat="45.61435370294601" lon="11.370282589704207"><ele>275.0</ele><time>2026-04-08T12:26:44Z</time></trkpt><trkpt lat="45.61439344570565" lon="11.37042680381724"><ele>275.0</ele><time>2026-04-08T12:26:45Z</time></trkpt><trkpt lat="45.61442613784004" lon="11.370553474766368"><ele>275.0</ele><time>2026-04-08T12:26:46Z</time></trkpt><trkpt lat="45.61447360915789" lon="11.370663407879979"><ele>275.0</ele><time>2026-04-08T12:26:47Z</time></trkpt><trkpt lat="45.61451533761838" lon="11.37074352064229"><ele>275.0</ele><time>2026-04-08T12:26:48Z</time></trkpt><trkpt lat="45.61456126715242" lon="11.370829079395142"><ele>275.0</ele><time>2026-04-08T12:26:49Z</time></trkpt><trkpt lat="45.61459478926717" lon="11.370926056660078"><ele>276.0</ele><time>2026-04-08T12:26:50Z</time></trkpt><trkpt lat="45.614634850427635" lon="11.371016326851993"><ele>277.0</ele><time>2026-04-08T12:26:51Z</time></trkpt><trkpt lat="45.614657634766864" lon="11.371106635372616"><ele>278.0</ele><time>2026-04-08T12:26:52Z</time></trkpt><trkpt lat="45.61467113525505" lon="11.371211705918553"><ele>279.0</ele><time>2026-04-08T12:26:53Z</time></trkpt><trkpt lat="45.61469303246088" lon="11.371333695522992"><ele>280.0</ele><time>2026-04-08T12:26:54Z</time></trkpt><trkpt lat="45.614715894429715" lon="11.371426063437454"><ele>281.0</ele><time>2026-04-08T12:26:55Z</time></trkpt><trkpt lat="45.614796371482456" lon="11.371557293764331"><ele>281.0</ele><time>2026-04-08T12:26:57Z</time></trkpt><trkpt lat="45.614833392025936" lon="11.371642508505388"><ele>281.0</ele><time>2026-04-08T12:26:58Z</time></trkpt><trkpt lat="45.61492207452835" lon="11.37166469882598"><ele>281.0</ele><time>2026-04-08T12:27:00Z</time></trkpt><trkpt lat="45.61501524514924" lon="11.371701429636925"><ele>281.0</ele><time>2026-04-08T12:27:02Z</time></trkpt><trkpt lat="45.615091936013215" lon="11.371735666825119"><ele>281.0</ele><time>2026-04-08T12:27:03Z</time></trkpt><trkpt lat="45.61518117455056" lon="11.37178462225075"><ele>281.0</ele><time>2026-04-08T12:27:04Z</time></trkpt><trkpt lat="45.61523883825703" lon="11.371842073323814"><ele>281.0</ele><time>2026-04-08T12:27:05Z</time></trkpt><trkpt lat="45.61530236641498" lon="11.371926281708912"><ele>281.0</ele><time>2026-04-08T12:27:06Z</time></trkpt><trkpt lat="45.6153450651765" lon="11.371993448405853"><ele>281.0</ele><time>2026-04-08T12:27:07Z</time></trkpt><trkpt lat="45.615405792658954" lon="11.372102616635212"><ele>281.0</ele><time>2026-04-08T12:27:09Z</time></trkpt><trkpt lat="45.61544994351441" lon="11.372195542530207"><ele>281.0</ele><time>2026-04-08T12:27:10Z</time></trkpt><trkpt lat="45.615503810193395" lon="11.372286611951907"><ele>281.0</ele><time>2026-04-08T12:27:11Z</time></trkpt><trkpt lat="45.61554807216326" lon="11.372360755785973"><ele>282.33333333333337</ele><time>2026-04-08T12:27:12Z</time></trkpt><trkpt lat="45.61559515335617" lon="11.372439622501302"><ele>283.6666666666667</ele><time>2026-04-08T12:27:13Z</time></trkpt><trkpt lat="45.61567149685498" lon="11.372479829195932"><ele>285.0</ele><time>2026-04-08T12:27:14Z</time></trkpt><trkpt lat="45.615733932497946" lon="11.372447838869295"><ele>286.3333333333333</ele><time>2026-04-08T12:27:15Z</time></trkpt><trkpt lat="45.615724582322144" lon="11.372606221427423"><ele>287.66666666666663</ele><time>2026-04-08T12:27:16Z</time></trkpt><trkpt lat="45.61581592779261" lon="11.372704131465492"><ele>289.0</ele><time>2026-04-08T12:27:18Z</time></trkpt><trkpt lat="45.61588541972894" lon="11.37275439686953"><ele>289.0</ele><time>2026-04-08T12:27:19Z</time></trkpt><trkpt lat="45.615955532820706" lon="11.37279580440848"><ele>289.0</ele><time>2026-04-08T12:27:20Z</time></trkpt><trkpt lat="45.61604945607236" lon="11.372978236332674"><ele>289.0</ele><time>2026-04-08T12:27:22Z</time></trkpt><trkpt lat="45.61611150091394" lon="11.373001563891586"><ele>289.0</ele><time>2026-04-08T12:27:23Z</time></trkpt><trkpt lat="45.61617476415959" lon="11.373025350258704"><ele>289.0</ele><time>2026-04-08T12:27:24Z</time></trkpt><trkpt lat="45.61623783547664" lon="11.373049064439703"><ele>289.0</ele><time>2026-04-08T12:27:25Z</time></trkpt><trkpt lat="45.616316201193385" lon="11.373076282813416"><ele>288.0</ele><time>2026-04-08T12:27:26Z</time></trkpt><trkpt lat="45.616394120450316" lon="11.373082070045246"><ele>287.0</ele><time>2026-04-08T12:27:27Z</time></trkpt><trkpt lat="45.61646499154986" lon="11.373123192131084"><ele>286.0</ele><time>2026-04-08T12:27:28Z</time></trkpt><trkpt lat="45.616540694629435" lon="11.373127809490654"><ele>285.0</ele><time>2026-04-08T12:27:29Z</time></trkpt><trkpt lat="45.6166399206659" lon="11.373139115013807"><ele>284.0</ele><time>2026-04-08T12:27:31Z</time></trkpt><trkpt lat="45.616724686235294" lon="11.373148772973128"><ele>283.0</ele><time>2026-04-08T12:27:34Z</time></trkpt><trkpt lat="45.61679159786777" lon="11.373156396698317"><ele>283.0</ele><time>2026-04-08T12:27:35Z</time></trkpt><trkpt lat="45.616858353503545" lon="11.373205168074758"><ele>283.0</ele><time>2026-04-08T12:27:36Z</time></trkpt><trkpt lat="45.616931103728525" lon="11.373155156663064"><ele>283.0</ele><time>2026-04-08T12:27:38Z</time></trkpt><trkpt lat="45.61697121393127" lon="11.373051578843903"><ele>283.0</ele><time>2026-04-08T12:27:40Z</time></trkpt><trkpt lat="45.61704617955713" lon="11.37295429483776"><ele>283.0</ele><time>2026-04-08T12:27:42Z</time></trkpt><trkpt lat="45.61707356814808" lon="11.372866487397586"><ele>283.0</ele><time>2026-04-08T12:27:45Z</time></trkpt><trkpt lat="45.6171578831127" lon="11.372814715828763"><ele>289.5</ele><time>2026-04-08T12:27:48Z</time></trkpt><trkpt lat="45.617259871308434" lon="11.372844785624526"><ele>296.0</ele><time>2026-04-08T12:27:51Z</time></trkpt><trkpt lat="45.617315927250964" lon="11.372888992448692"><ele>302.5</ele><time>2026-04-08T12:27:54Z</time></trkpt><trkpt lat="45.61738781023797" lon="11.372920410415302"><ele>309.0</ele><time>2026-04-08T12:27:57Z</time></trkpt><trkpt lat="45.61745678308233" lon="11.37296777329144"><ele>315.5</ele><time>2026-04-08T12:27:59Z</time></trkpt><trkpt lat="45.617521898665075" lon="11.372977209347185"><ele>322.0</ele><time>2026-04-08T12:28:02Z</time></trkpt><trkpt lat="45.61758748255459" lon="11.373000374706637"><ele>322.0</ele><time>2026-04-08T12:28:04Z</time></trkpt><trkpt lat="45.61766149553389" lon="11.373021579581582"><ele>322.0</ele><time>2026-04-08T12:28:08Z</time></trkpt><trkpt lat="45.617755637885445" lon="11.373027712534338"><ele>322.0</ele><time>2026-04-08T12:28:13Z</time></trkpt><trkpt lat="45.6178581393452" lon="11.373019895544786"><ele>322.0</ele><time>2026-04-08T12:28:15Z</time></trkpt><trkpt lat="45.61794616837549" lon="11.372943165600153"><ele>322.0</ele><time>2026-04-08T12:28:18Z</time></trkpt><trkpt lat="45.61801948266789" lon="11.37284280340949"><ele>317.6</ele><time>2026-04-08T12:28:20Z</time></trkpt><trkpt lat="45.61807488061258" lon="11.372725440758446"><ele>313.20000000000005</ele><time>2026-04-08T12:28:22Z</time></trkpt><trkpt lat="45.61810286229062" lon="11.372633130658642"><ele>308.8</ele><time>2026-04-08T12:28:24Z</time></trkpt><trkpt lat="45.61813860614833" lon="11.372491188053164"><ele>304.4</ele><time>2026-04-08T12:28:26Z</time></trkpt><trkpt lat="45.61815239395854" lon="11.372380010388985"><ele>300.0</ele><time>2026-04-08T12:28:29Z</time></trkpt><trkpt lat="45.6181484320079" lon="11.372222442588095"><ele>303.5</ele><time>2026-04-08T12:28:31Z</time></trkpt><trkpt lat="45.618157228775495" lon="11.372111358814603"><ele>307.0</ele><time>2026-04-08T12:28:33Z</time></trkpt><trkpt lat="45.618183745510436" lon="11.37198690302672"><ele>310.5</ele><time>2026-04-08T12:28:35Z</time></trkpt><trkpt lat="45.61824610214724" lon="11.371879895667492"><ele>314.0</ele><time>2026-04-08T12:28:37Z</time></trkpt><trkpt lat="45.6183137598712" lon="11.371753937219216"><ele>317.5</ele><time>2026-04-08T12:28:39Z</time></trkpt><trkpt lat="45.61835375398343" lon="11.371679730551465"><ele>321.0</ele><time>2026-04-08T12:28:40Z</time></trkpt><trkpt lat="45.61838880666393" lon="11.371538849410687"><ele>321.0</ele><time>2026-04-08T12:28:42Z</time></trkpt><trkpt lat="45.61845025945568" lon="11.37140578344464"><ele>321.0</ele><time>2026-04-08T12:28:44Z</time></trkpt><trkpt lat="45.618489667326656" lon="11.37129631102316"><ele>321.0</ele><time>2026-04-08T12:28:46Z</time></trkpt><trkpt lat="45.61856048205876" lon="11.371222108569892"><ele>321.0</ele><time>2026-04-08T12:28:48Z</time></trkpt><trkpt lat="45.61859069637028" lon="11.371134370260993"><ele>321.0</ele><time>2026-04-08T12:28:49Z</time></trkpt><trkpt lat="45.618635465413995" lon="11.371038759460298"><ele>321.0</ele><time>2026-04-08T12:28:50Z</time></trkpt><trkpt lat="45.61868658797538" lon="11.370920003448086"><ele>322.0</ele><time>2026-04-08T12:28:52Z</time></trkpt><trkpt lat="45.61878315736578" lon="11.37078663712957"><ele>323.0</ele><time>2026-04-08T12:28:54Z</time></trkpt><trkpt lat="45.618833935819566" lon="11.37068997014839"><ele>324.0</ele><time>2026-04-08T12:28:55Z</time></trkpt><trkpt lat="45.61891945571037" lon="11.370594720264913"><ele>325.0</ele><time>2026-04-08T12:28:57Z</time></trkpt><trkpt lat="45.6189787234163" lon="11.370540776526006"><ele>326.0</ele><time>2026-04-08T12:28:58Z</time></trkpt><trkpt lat="45.6190745135715" lon="11.370419439442633"><ele>330.6666666666667</ele><time>2026-04-08T12:29:00Z</time></trkpt><trkpt lat="45.619135405843146" lon="11.370331744115239"><ele>335.33333333333337</ele><time>2026-04-08T12:29:01Z</time></trkpt><trkpt lat="45.61920123150485" lon="11.370227880745729"><ele>340.0</ele><time>2026-04-08T12:29:03Z</time></trkpt><trkpt lat="45.61924145845104" lon="11.37015310887065"><ele>344.6666666666667</ele><time>2026-04-08T12:29:04Z</time></trkpt><trkpt lat="45.61929293366596" lon="11.370078986068156"><ele>349.3333333333333</ele><time>2026-04-08T12:29:05Z</time></trkpt><trkpt lat="45.61933960843027" lon="11.369996647736444"><ele>354.0</ele><time>2026-04-08T12:29:06Z</time></trkpt><trkpt lat="45.619445446502496" lon="11.36990705136237"><ele>351.0</ele><time>2026-04-08T12:29:08Z</time></trkpt><trkpt lat="45.61958075112079" lon="11.369883564384779"><ele>348.0</ele><time>2026-04-08T12:29:10Z</time></trkpt><trkpt lat="45.619648995731" lon="11.369872797293212"><ele>345.0</ele><time>2026-04-08T12:29:11Z</time></trkpt><trkpt lat="45.61975006062674" lon="11.36985007421831"><ele>342.0</ele><time>2026-04-08T12:29:12Z</time></trkpt><trkpt lat="45.61986157781923" lon="11.369821237991621"><ele>339.0</ele><time>2026-04-08T12:29:13Z</time></trkpt><trkpt lat="45.619950572403724" lon="11.3698039305318"><ele>339.0</ele><time>2026-04-08T12:29:14Z</time></trkpt><trkpt lat="45.62001951252057" lon="11.369790051059265"><ele>339.0</ele><time>2026-04-08T12:29:15Z</time></trkpt><trkpt lat="45.62009027379534" lon="11.3697803982755"><ele>339.0</ele><time>2026-04-08T12:29:16Z</time></trkpt><trkpt lat="45.6201555047121" lon="11.369787982048935"><ele>339.0</ele><time>2026-04-08T12:29:17Z</time></trkpt><trkpt lat="45.62023737403767" lon="11.369817766933263"><ele>339.0</ele><time>2026-04-08T12:29:18Z</time></trkpt><trkpt lat="45.6203084331145" lon="11.369854540319086"><ele>339.0</ele><time>2026-04-08T12:29:19Z</time></trkpt><trkpt lat="45.620376338789846" lon="11.369853183599322"><ele>339.0</ele><time>2026-04-08T12:29:20Z</time></trkpt><trkpt lat="45.620450503303715" lon="11.369839763092878"><ele>341.5</ele><time>2026-04-08T12:29:21Z</time></trkpt><trkpt lat="45.620522772891675" lon="11.369816768423954"><ele>344.0</ele><time>2026-04-08T12:29:22Z</time></trkpt><trkpt lat="45.62059873539724" lon="11.36977565658455"><ele>346.5</ele><time>2026-04-08T12:29:23Z</time></trkpt><trkpt lat="45.62069910198352" lon="11.36974919647663"><ele>349.0</ele><time>2026-04-08T12:29:24Z</time></trkpt><trkpt lat="45.62080236043071" lon="11.369737438409807"><ele>351.5</ele><time>2026-04-08T12:29:25Z</time></trkpt><trkpt lat="45.62088454880971" lon="11.369724111198853"><ele>354.0</ele><time>2026-04-08T12:29:26Z</time></trkpt><trkpt lat="45.62099299008507" lon="11.369713890543155"><ele>354.0</ele><time>2026-04-08T12:29:28Z</time></trkpt><trkpt lat="45.6210681901342" lon="11.36969981679005"><ele>354.0</ele><time>2026-04-08T12:29:29Z</time></trkpt><trkpt lat="45.621143580722816" lon="11.369675461266606"><ele>354.0</ele><time>2026-04-08T12:29:30Z</time></trkpt><trkpt lat="45.62121754041186" lon="11.369637437310647"><ele>354.0</ele><time>2026-04-08T12:29:31Z</time></trkpt><trkpt lat="45.62128559665835" lon="11.369618074709118"><ele>354.0</ele><time>2026-04-08T12:29:32Z</time></trkpt><trkpt lat="45.62137140221518" lon="11.369594738071797"><ele>354.0</ele><time>2026-04-08T12:29:34Z</time></trkpt><trkpt lat="45.621454913564186" lon="11.369518306017543"><ele>354.2</ele><time>2026-04-08T12:29:36Z</time></trkpt><trkpt lat="45.62156550149377" lon="11.369451219560103"><ele>354.4</ele><time>2026-04-08T12:29:38Z</time></trkpt><trkpt lat="45.62166253688848" lon="11.369362568618795"><ele>354.6</ele><time>2026-04-08T12:29:40Z</time></trkpt><trkpt lat="45.62172098804826" lon="11.36930582764681"><ele>354.8</ele><time>2026-04-08T12:29:41Z</time></trkpt><trkpt lat="45.62177554202103" lon="11.369245279014903"><ele>355.0</ele><time>2026-04-08T12:29:42Z</time></trkpt><trkpt lat="45.62183898045287" lon="11.369173784069579"><ele>355.0</ele><time>2026-04-08T12:29:43Z</time></trkpt><trkpt lat="45.6218951301713" lon="11.369114747500557"><ele>355.0</ele><time>2026-04-08T12:29:44Z</time></trkpt><trkpt lat="45.621949597959826" lon="11.369061974788556"><ele>355.0</ele><time>2026-04-08T12:29:45Z</time></trkpt><trkpt lat="45.62204577935441" lon="11.368979668875747"><ele>355.0</ele><time>2026-04-08T12:29:47Z</time></trkpt><trkpt lat="45.62214028806581" lon="11.368926791517339"><ele>355.0</ele><time>2026-04-08T12:29:49Z</time></trkpt><trkpt lat="45.622240389304295" lon="11.368932009127986"><ele>355.0</ele><time>2026-04-08T12:29:52Z</time></trkpt><trkpt lat="45.62231903481237" lon="11.368981522442686"><ele>353.3333333333333</ele><time>2026-04-08T12:30:05Z</time></trkpt><trkpt lat="45.62238673909234" lon="11.368983694804836"><ele>351.6666666666667</ele><time>2026-04-08T12:30:06Z</time></trkpt><trkpt lat="45.622636363417946" lon="11.368646067067546"><ele>350.0</ele><time>2026-04-08T12:30:10Z</time></trkpt><trkpt lat="45.62271347012729" lon="11.368609426997555"><ele>350.0</ele><time>2026-04-08T12:30:11Z</time></trkpt><trkpt lat="45.62277285184932" lon="11.368577965719615"><ele>350.0</ele><time>2026-04-08T12:30:12Z</time></trkpt><trkpt lat="45.62283732413423" lon="11.368548302986252"><ele>350.0</ele><time>2026-04-08T12:30:13Z</time></trkpt><trkpt lat="45.622906955254386" lon="11.36850856942383"><ele>350.0</ele><time>2026-04-08T12:30:14Z</time></trkpt><trkpt lat="45.62297259131788" lon="11.368467724988083"><ele>350.0</ele><time>2026-04-08T12:30:15Z</time></trkpt><trkpt lat="45.623038113650836" lon="11.368418389141901"><ele>350.0</ele><time>2026-04-08T12:30:16Z</time></trkpt><trkpt lat="45.62309067151572" lon="11.368365704336666"><ele>350.0</ele><time>2026-04-08T12:30:17Z</time></trkpt><trkpt lat="45.623183765852026" lon="11.368285154162162"><ele>351.2857142857143</ele><time>2026-04-08T12:30:19Z</time></trkpt><trkpt lat="45.623242598946" lon="11.368229893007022"><ele>352.57142857142856</ele><time>2026-04-08T12:30:20Z</time></trkpt><trkpt lat="45.623302263669096" lon="11.368161482816213"><ele>353.8571428571429</ele><time>2026-04-08T12:30:21Z</time></trkpt><trkpt lat="45.62335485062715" lon="11.368108560857463"><ele>355.1428571428571</ele><time>2026-04-08T12:30:22Z</time></trkpt><trkpt lat="45.62339996628742" lon="11.368039887264187"><ele>356.42857142857144</ele><time>2026-04-08T12:30:23Z</time></trkpt><trkpt lat="45.62344387011576" lon="11.367972508546234"><ele>357.7142857142857</ele><time>2026-04-08T12:30:24Z</time></trkpt><trkpt lat="45.6235144641368" lon="11.367867178148876"><ele>359.0</ele><time>2026-04-08T12:30:26Z</time></trkpt><trkpt lat="45.623637976312786" lon="11.367852495831489"><ele>359.0</ele><time>2026-04-08T12:30:28Z</time></trkpt><trkpt lat="45.623704079076134" lon="11.367853123813317"><ele>359.0</ele><time>2026-04-08T12:30:29Z</time></trkpt><trkpt lat="45.62378139593036" lon="11.367797754333228"><ele>359.0</ele><time>2026-04-08T12:30:31Z</time></trkpt><trkpt lat="45.62385119680262" lon="11.367728824413193"><ele>359.0</ele><time>2026-04-08T12:30:33Z</time></trkpt><trkpt lat="45.62390653291832" lon="11.367677772245822"><ele>359.0</ele><time>2026-04-08T12:30:34Z</time></trkpt><trkpt lat="45.623973901244526" lon="11.367602027921416"><ele>359.0</ele><time>2026-04-08T12:30:36Z</time></trkpt><trkpt lat="45.62406356903702" lon="11.36748537330929"><ele>359.0</ele><time>2026-04-08T12:30:38Z</time></trkpt><trkpt lat="45.62413932406597" lon="11.367409724720124"><ele>359.0</ele><time>2026-04-08T12:30:40Z</time></trkpt><trkpt lat="45.62425026049788" lon="11.36730438776254"><ele>359.0</ele><time>2026-04-08T12:30:42Z</time></trkpt><trkpt lat="45.62431370040953" lon="11.36725009473431"><ele>359.0</ele><time>2026-04-08T12:30:43Z</time></trkpt><trkpt lat="45.62442069423859" lon="11.367178795470098"><ele>359.0</ele><time>2026-04-08T12:30:45Z</time></trkpt><trkpt lat="45.62454780884695" lon="11.367096951837933"><ele>363.83333333333337</ele><time>2026-04-08T12:30:47Z</time></trkpt><trkpt lat="45.62461748644763" lon="11.367060006302724"><ele>368.6666666666667</ele><time>2026-04-08T12:30:48Z</time></trkpt><trkpt lat="45.62470271089997" lon="11.367030061900925"><ele>373.5</ele><time>2026-04-08T12:30:50Z</time></trkpt><trkpt lat="45.6247688374922" lon="11.366985585549699"><ele>378.33333333333337</ele><time>2026-04-08T12:30:51Z</time></trkpt><trkpt lat="45.62484535542329" lon="11.366967487451424"><ele>383.1666666666667</ele><time>2026-04-08T12:30:52Z</time></trkpt><trkpt lat="45.62494342323185" lon="11.366928943487723"><ele>388.0</ele><time>2026-04-08T12:30:54Z</time></trkpt><trkpt lat="45.6250264851564" lon="11.366909722662243"><ele>388.0</ele><time>2026-04-08T12:30:55Z</time></trkpt><trkpt lat="45.62513801759202" lon="11.36688541507914"><ele>388.0</ele><time>2026-04-08T12:30:57Z</time></trkpt><trkpt lat="45.62522091263977" lon="11.36686176292782"><ele>388.0</ele><time>2026-04-08T12:30:59Z</time></trkpt><trkpt lat="45.62534180249781" lon="11.366825446038426"><ele>388.0</ele><time>2026-04-08T12:31:01Z</time></trkpt><trkpt lat="45.62540687400175" lon="11.366823320981032"><ele>388.0</ele><time>2026-04-08T12:31:02Z</time></trkpt><trkpt lat="45.62547171508799" lon="11.366817137017055"><ele>387.83333333333337</ele><time>2026-04-08T12:31:03Z</time></trkpt><trkpt lat="45.625535918661804" lon="11.366786353670417"><ele>387.6666666666667</ele><time>2026-04-08T12:31:06Z</time></trkpt><trkpt lat="45.625602392461055" lon="11.36671929248588"><ele>387.5</ele><time>2026-04-08T12:31:08Z</time></trkpt><trkpt lat="45.625656544617" lon="11.366648807026095"><ele>387.33333333333337</ele><time>2026-04-08T12:31:10Z</time></trkpt><trkpt lat="45.62566333795429" lon="11.366511500945974"><ele>387.1666666666667</ele><time>2026-04-08T12:31:12Z</time></trkpt><trkpt lat="45.62567688816213" lon="11.366377776235725"><ele>387.0</ele><time>2026-04-08T12:31:14Z</time></trkpt><trkpt lat="45.625807887339406" lon="11.366307491205525"><ele>392.3333333333333</ele><time>2026-04-08T12:31:16Z</time></trkpt><trkpt lat="45.625869560363846" lon="11.366251046256451"><ele>397.66666666666663</ele><time>2026-04-08T12:31:17Z</time></trkpt><trkpt lat="45.62595572217183" lon="11.366172945038096"><ele>403.0</ele><time>2026-04-08T12:31:19Z</time></trkpt><trkpt lat="45.62605495302718" lon="11.366132101055278"><ele>408.3333333333333</ele><time>2026-04-08T12:31:21Z</time></trkpt><trkpt lat="45.62613769060468" lon="11.366084661819203"><ele>413.66666666666663</ele><time>2026-04-08T12:31:23Z</time></trkpt><trkpt lat="45.626200080306106" lon="11.366043414044315"><ele>419.0</ele><time>2026-04-08T12:31:24Z</time></trkpt><trkpt lat="45.62629103752682" lon="11.365989127642303"><ele>419.16666666666663</ele><time>2026-04-08T12:31:26Z</time></trkpt><trkpt lat="45.62638835133556" lon="11.365941839285044"><ele>419.3333333333333</ele><time>2026-04-08T12:31:28Z</time></trkpt><trkpt lat="45.626454563155995" lon="11.36588269571141"><ele>419.5</ele><time>2026-04-08T12:31:30Z</time></trkpt><trkpt lat="45.62656119295771" lon="11.36584854078059"><ele>419.66666666666663</ele><time>2026-04-08T12:31:32Z</time></trkpt><trkpt lat="45.626623973872555" lon="11.365833318812165"><ele>419.8333333333333</ele><time>2026-04-08T12:31:41Z</time></trkpt><trkpt lat="45.62671343326928" lon="11.365837628970933"><ele>420.0</ele><time>2026-04-08T12:31:44Z</time></trkpt><trkpt lat="45.62684128042484" lon="11.365822928889461"><ele>420.0</ele><time>2026-04-08T12:31:46Z</time></trkpt><trkpt lat="45.62693451446048" lon="11.365824481620127"><ele>420.0</ele><time>2026-04-08T12:31:48Z</time></trkpt><trkpt lat="45.62700265273767" lon="11.365819084734355"><ele>420.0</ele><time>2026-04-08T12:31:49Z</time></trkpt><trkpt lat="45.62711664404941" lon="11.36583907517296"><ele>420.0</ele><time>2026-04-08T12:31:51Z</time></trkpt><trkpt lat="45.627202459559626" lon="11.365871604664134"><ele>420.0</ele><time>2026-04-08T12:31:53Z</time></trkpt><trkpt lat="45.62730519706286" lon="11.365913455625806"><ele>418.8</ele><time>2026-04-08T12:31:55Z</time></trkpt><trkpt lat="45.62739213947793" lon="11.366022050889564"><ele>417.6</ele><time>2026-04-08T12:31:57Z</time></trkpt><trkpt lat="45.62747087152658" lon="11.366123370616219"><ele>416.4</ele><time>2026-04-08T12:31:59Z</time></trkpt><trkpt lat="45.627548517555574" lon="11.366209818045755"><ele>415.2</ele><time>2026-04-08T12:32:01Z</time></trkpt><trkpt lat="45.62760454133374" lon="11.366282156895895"><ele>414.0</ele><time>2026-04-08T12:32:04Z</time></trkpt><trkpt lat="45.62766678505068" lon="11.366374879286274"><ele>414.0</ele><time>2026-04-08T12:32:07Z</time></trkpt><trkpt lat="45.62776075922601" lon="11.36640949959735"><ele>414.0</ele><time>2026-04-08T12:32:09Z</time></trkpt><trkpt lat="45.627839533855685" lon="11.366436490417426"><ele>414.0</ele><time>2026-04-08T12:32:11Z</time></trkpt><trkpt lat="45.62791331682437" lon="11.366407439974962"><ele>414.0</ele><time>2026-04-08T12:32:14Z</time></trkpt><trkpt lat="45.62793580801562" lon="11.366301475105711"><ele>414.0</ele><time>2026-04-08T12:32:16Z</time></trkpt><trkpt lat="45.62800268599499" lon="11.366281529755193"><ele>414.0</ele><time>2026-04-08T12:32:19Z</time></trkpt><trkpt lat="45.62804612429574" lon="11.366375163711412"><ele>415.3333333333333</ele><time>2026-04-08T12:32:21Z</time></trkpt><trkpt lat="45.628137456501804" lon="11.366447420811072"><ele>416.66666666666663</ele><time>2026-04-08T12:32:24Z</time></trkpt><trkpt lat="45.628204559879464" lon="11.366402138556852"><ele>418.0</ele><time>2026-04-08T12:32:26Z</time></trkpt><trkpt lat="45.62825934293755" lon="11.366279563800374"><ele>419.3333333333333</ele><time>2026-04-08T12:32:28Z</time></trkpt><trkpt lat="45.6283175605566" lon="11.366201739114521"><ele>420.66666666666663</ele><time>2026-04-08T12:32:29Z</time></trkpt><trkpt lat="45.62835920476662" lon="11.366128417734265"><ele>422.0</ele><time>2026-04-08T12:32:30Z</time></trkpt><trkpt lat="45.62843981839735" lon="11.365981491826087"><ele>423.42857142857144</ele><time>2026-04-08T12:32:32Z</time></trkpt><trkpt lat="45.62847943647999" lon="11.36591024498294"><ele>424.8571428571429</ele><time>2026-04-08T12:32:33Z</time></trkpt><trkpt lat="45.62851723252725" lon="11.36583197055561"><ele>426.2857142857143</ele><time>2026-04-08T12:32:35Z</time></trkpt><trkpt lat="45.62858503110574" lon="11.365794462872335"><ele>427.7142857142857</ele><time>2026-04-08T12:32:42Z</time></trkpt><trkpt lat="45.62865180890297" lon="11.365780371368412"><ele>429.1428571428571</ele><time>2026-04-08T12:32:44Z</time></trkpt><trkpt lat="45.62871405971342" lon="11.365740257134835"><ele>430.57142857142856</ele><time>2026-04-08T12:32:47Z</time></trkpt><trkpt lat="45.62880315200271" lon="11.36573190090244"><ele>432.0</ele><time>2026-04-08T12:32:50Z</time></trkpt><trkpt lat="45.62890718691002" lon="11.365695940194284"><ele>432.0</ele><time>2026-04-08T12:32:54Z</time></trkpt><trkpt lat="45.62901179821214" lon="11.36565809739356"><ele>432.00000000000006</ele><time>2026-04-08T12:32:56Z</time></trkpt><trkpt lat="45.629140936004376" lon="11.365653597409002"><ele>432.00000000000006</ele><time>2026-04-08T12:32:58Z</time></trkpt><trkpt lat="45.62921301749904" lon="11.365658535401531"><ele>432.0</ele><time>2026-04-08T12:32:59Z</time></trkpt><trkpt lat="45.62927571532131" lon="11.36566936270648"><ele>432.0</ele><time>2026-04-08T12:33:00Z</time></trkpt><trkpt lat="45.629375940989085" lon="11.365648062902718"><ele>432.0</ele><time>2026-04-08T12:33:02Z</time></trkpt><trkpt lat="45.629471272884636" lon="11.365563180932833"><ele>432.00000000000006</ele><time>2026-04-08T12:33:04Z</time></trkpt><trkpt lat="45.629535571635074" lon="11.365510730481134"><ele>432.00000000000006</ele><time>2026-04-08T12:33:05Z</time></trkpt><trkpt lat="45.6296060498674" lon="11.365443215341116"><ele>432.0</ele><time>2026-04-08T12:33:06Z</time></trkpt><trkpt lat="45.6297006230749" lon="11.36535028292431"><ele>432.0</ele><time>2026-04-08T12:33:08Z</time></trkpt><trkpt lat="45.62973085326385" lon="11.365222248846512"><ele>431.0</ele><time>2026-04-08T12:33:10Z</time></trkpt><trkpt lat="45.62973462751632" lon="11.365068233889968"><ele>430.0</ele><time>2026-04-08T12:33:12Z</time></trkpt><trkpt lat="45.62969759664304" lon="11.364971542582783"><ele>429.0</ele><time>2026-04-08T12:33:13Z</time></trkpt><trkpt lat="45.629650241228866" lon="11.364892670625835"><ele>428.0</ele><time>2026-04-08T12:33:14Z</time></trkpt><trkpt lat="45.629580543060605" lon="11.364831187394525"><ele>427.0</ele><time>2026-04-08T12:33:15Z</time></trkpt><trkpt lat="45.629563221836804" lon="11.36473428209687"><ele>426.0</ele><time>2026-04-08T12:33:18Z</time></trkpt><trkpt lat="45.629531566955116" lon="11.364612046104035"><ele>428.1666666666667</ele><time>2026-04-08T12:33:20Z</time></trkpt><trkpt lat="45.62959767410815" lon="11.364463205669367"><ele>430.33333333333337</ele><time>2026-04-08T12:33:22Z</time></trkpt><trkpt lat="45.629659708438226" lon="11.364404408809081"><ele>432.5</ele><time>2026-04-08T12:33:23Z</time></trkpt><trkpt lat="45.629731886691765" lon="11.364323801047775"><ele>434.6666666666667</ele><time>2026-04-08T12:33:24Z</time></trkpt><trkpt lat="45.62978335764873" lon="11.364261413776331"><ele>436.83333333333337</ele><time>2026-04-08T12:33:25Z</time></trkpt><trkpt lat="45.62983050007785" lon="11.364167529891759"><ele>439.0</ele><time>2026-04-08T12:33:27Z</time></trkpt><trkpt lat="45.62989636325645" lon="11.36403683697784"><ele>439.0</ele><time>2026-04-08T12:33:29Z</time></trkpt><trkpt lat="45.62995193551407" lon="11.363942086803636"><ele>439.0</ele><time>2026-04-08T12:33:31Z</time></trkpt><trkpt lat="45.62993938173978" lon="11.363793917538551"><ele>439.0</ele><time>2026-04-08T12:33:33Z</time></trkpt><trkpt lat="45.62994481248022" lon="11.363680680202725"><ele>439.0</ele><time>2026-04-08T12:33:34Z</time></trkpt><trkpt lat="45.629961734379435" lon="11.363566270350105"><ele>439.0</ele><time>2026-04-08T12:33:35Z</time></trkpt><trkpt lat="45.62998022213887" lon="11.363418316801082"><ele>442.25</ele><time>2026-04-08T12:33:36Z</time></trkpt><trkpt lat="45.62999382750612" lon="11.36324971891115"><ele>445.5</ele><time>2026-04-08T12:33:37Z</time></trkpt><trkpt lat="45.630003880550035" lon="11.363045634123209"><ele>448.75</ele><time>2026-04-08T12:33:38Z</time></trkpt><trkpt lat="45.63001333902183" lon="11.362802372437764"><ele>452.0</ele><time>2026-04-08T12:33:39Z</time></trkpt><trkpt lat="45.63003616359358" lon="11.362644611588365"><ele>450.20000000000005</ele><time>2026-04-08T12:33:40Z</time></trkpt><trkpt lat="45.630061578031395" lon="11.362556510928297"><ele>448.40000000000003</ele><time>2026-04-08T12:33:41Z</time></trkpt><trkpt lat="45.630185144659144" lon="11.362437048920825"><ele>446.59999999999997</ele><time>2026-04-08T12:33:43Z</time></trkpt><trkpt lat="45.63027981613552" lon="11.362362223700156"><ele>444.79999999999995</ele><time>2026-04-08T12:33:44Z</time></trkpt><trkpt lat="45.6303822931991" lon="11.36226064648019"><ele>443.0</ele><time>2026-04-08T12:33:45Z</time></trkpt><trkpt lat="45.63049374102211" lon="11.362138779924058"><ele>449.25</ele><time>2026-04-08T12:33:46Z</time></trkpt><trkpt lat="45.63060112396538" lon="11.362021723760769"><ele>455.5</ele><time>2026-04-08T12:33:47Z</time></trkpt><trkpt lat="45.63069672169484" lon="11.361914340228253"><ele>461.75</ele><time>2026-04-08T12:33:48Z</time></trkpt><trkpt lat="45.630779941269346" lon="11.361824019705063"><ele>468.0</ele><time>2026-04-08T12:33:49Z</time></trkpt><trkpt lat="45.63084926050302" lon="11.36173805902079"><ele>468.0</ele><time>2026-04-08T12:33:50Z</time></trkpt><trkpt lat="45.63092041436878" lon="11.361630849983522"><ele>467.99999999999994</ele><time>2026-04-08T12:33:51Z</time></trkpt><trkpt lat="45.63097489409157" lon="11.361516455359038"><ele>467.99999999999994</ele><time>2026-04-08T12:33:52Z</time></trkpt><trkpt lat="45.63099651642094" lon="11.361424435639794"><ele>468.0</ele><time>2026-04-08T12:33:53Z</time></trkpt><trkpt lat="45.631013589656604" lon="11.361291088602076"><ele>468.0</ele><time>2026-04-08T12:33:54Z</time></trkpt><trkpt lat="45.63102726108882" lon="11.361168145719542"><ele>469.6666666666667</ele><time>2026-04-08T12:33:55Z</time></trkpt><trkpt lat="45.631051532664756" lon="11.36102878352216"><ele>471.33333333333337</ele><time>2026-04-08T12:33:56Z</time></trkpt><trkpt lat="45.63106672740323" lon="11.360940181801453"><ele>473.0</ele><time>2026-04-08T12:33:57Z</time></trkpt><trkpt lat="45.63111537870557" lon="11.360835380712079"><ele>474.6666666666667</ele><time>2026-04-08T12:33:59Z</time></trkpt><trkpt lat="45.63118882772632" lon="11.360765975892635"><ele>476.33333333333337</ele><time>2026-04-08T12:34:01Z</time></trkpt><trkpt lat="45.631256261883514" lon="11.36072777207188"><ele>478.0</ele><time>2026-04-08T12:34:02Z</time></trkpt><trkpt lat="45.631330824130224" lon="11.360690352084015"><ele>478.0</ele><time>2026-04-08T12:34:03Z</time></trkpt><trkpt lat="45.63142479796424" lon="11.360632724196066"><ele>477.99999999999994</ele><time>2026-04-08T12:34:04Z</time></trkpt><trkpt lat="45.63149824778884" lon="11.360605342218522"><ele>477.99999999999994</ele><time>2026-04-08T12:34:05Z</time></trkpt><trkpt lat="45.631562416242765" lon="11.360561530399535"><ele>478.0</ele><time>2026-04-08T12:34:06Z</time></trkpt><trkpt lat="45.63161888925622" lon="11.36038301901462"><ele>478.0</ele><time>2026-04-08T12:34:08Z</time></trkpt><trkpt lat="45.63155707045345" lon="11.360281271001949"><ele>479.4285714285715</ele><time>2026-04-08T12:34:09Z</time></trkpt><trkpt lat="45.63150851598918" lon="11.360187969099567"><ele>480.8571428571429</ele><time>2026-04-08T12:34:10Z</time></trkpt><trkpt lat="45.63148485067666" lon="11.360085224082882"><ele>482.2857142857143</ele><time>2026-04-08T12:34:11Z</time></trkpt><trkpt lat="45.63150943744671" lon="11.359999339483444"><ele>483.7142857142857</ele><time>2026-04-08T12:34:13Z</time></trkpt><trkpt lat="45.63154505680563" lon="11.35990494501784"><ele>485.1428571428571</ele><time>2026-04-08T12:34:21Z</time></trkpt><trkpt lat="45.63155037150224" lon="11.359805576463835"><ele>486.5714285714285</ele><time>2026-04-08T12:34:23Z</time></trkpt><trkpt lat="45.63155660328405" lon="11.359689061231997"><ele>487.99999999999994</ele><time>2026-04-08T12:34:26Z</time></trkpt><trkpt lat="45.63170687101868" lon="11.35960204515687"><ele>490.16666666666663</ele><time>2026-04-08T12:34:28Z</time></trkpt><trkpt lat="45.63175007142841" lon="11.359514670800664"><ele>492.3333333333333</ele><time>2026-04-08T12:34:30Z</time></trkpt><trkpt lat="45.63176742167289" lon="11.359424324120521"><ele>494.5</ele><time>2026-04-08T12:34:32Z</time></trkpt><trkpt lat="45.631787535559354" lon="11.359302273022326"><ele>496.66666666666663</ele><time>2026-04-08T12:34:34Z</time></trkpt><trkpt lat="45.63184716059906" lon="11.3591996873185"><ele>498.8333333333333</ele><time>2026-04-08T12:34:36Z</time></trkpt><trkpt lat="45.63190373385249" lon="11.35913788593376"><ele>501.0</ele><time>2026-04-08T12:34:37Z</time></trkpt><trkpt lat="45.63196989093439" lon="11.359058624825884"><ele>501.6</ele><time>2026-04-08T12:34:38Z</time></trkpt><trkpt lat="45.632053949133564" lon="11.358953998425138"><ele>502.20000000000005</ele><time>2026-04-08T12:34:39Z</time></trkpt><trkpt lat="45.63216673278884" lon="11.35887712818585"><ele>502.79999999999995</ele><time>2026-04-08T12:34:40Z</time></trkpt><trkpt lat="45.63225418137156" lon="11.358816012231676"><ele>503.4</ele><time>2026-04-08T12:34:41Z</time></trkpt><trkpt lat="45.6323443060861" lon="11.358763841394447"><ele>504.0</ele><time>2026-04-08T12:34:42Z</time></trkpt><trkpt lat="45.63243724694492" lon="11.358688273470328"><ele>507.0</ele><time>2026-04-08T12:34:43Z</time></trkpt><trkpt lat="45.63257983012727" lon="11.358643453624316"><ele>510.0</ele><time>2026-04-08T12:34:44Z</time></trkpt><trkpt lat="45.63273319760136" lon="11.358592856911786"><ele>513.0</ele><time>2026-04-08T12:34:45Z</time></trkpt><trkpt lat="45.63287681636249" lon="11.358535435164443"><ele>517.25</ele><time>2026-04-08T12:34:46Z</time></trkpt><trkpt lat="45.6330021361965" lon="11.358474422362319"><ele>521.5</ele><time>2026-04-08T12:34:47Z</time></trkpt><trkpt lat="45.63312398705874" lon="11.358414311669833"><ele>525.75</ele><time>2026-04-08T12:34:48Z</time></trkpt><trkpt lat="45.63323416245169" lon="11.358359259636929"><ele>530.0</ele><time>2026-04-08T12:34:49Z</time></trkpt><trkpt lat="45.633328579058" lon="11.358311798724971"><ele>530.0</ele><time>2026-04-08T12:34:50Z</time></trkpt><trkpt lat="45.63342829646651" lon="11.358261673259136"><ele>530.0</ele><time>2026-04-08T12:34:51Z</time></trkpt><trkpt lat="45.63350596694998" lon="11.358224587470707"><ele>530.0</ele><time>2026-04-08T12:34:52Z</time></trkpt><trkpt lat="45.63359094973633" lon="11.358183822366248"><ele>530.0</ele><time>2026-04-08T12:34:53Z</time></trkpt><trkpt lat="45.63368804657874" lon="11.358137246289628"><ele>530.0</ele><time>2026-04-08T12:34:54Z</time></trkpt><trkpt lat="45.63375410171697" lon="11.35807849890729"><ele>533.6</ele><time>2026-04-08T12:34:55Z</time></trkpt><trkpt lat="45.633832959875306" lon="11.358044143936011"><ele>537.2</ele><time>2026-04-08T12:34:56Z</time></trkpt><trkpt lat="45.6338881101252" lon="11.357978248670806"><ele>540.8</ele><time>2026-04-08T12:34:58Z</time></trkpt><trkpt lat="45.633867692599125" lon="11.357865083052719"><ele>544.4</ele><time>2026-04-08T12:35:00Z</time></trkpt><trkpt lat="45.63374635796947" lon="11.357810833627818"><ele>548.0</ele><time>2026-04-08T12:35:02Z</time></trkpt><trkpt lat="45.63365133721546" lon="11.357793504842366"><ele>546.8</ele><time>2026-04-08T12:35:03Z</time></trkpt><trkpt lat="45.633557605705136" lon="11.357786280836283"><ele>545.5999999999999</ele><time>2026-04-08T12:35:04Z</time></trkpt><trkpt lat="45.633449236234746" lon="11.357775439187273"><ele>544.4000000000001</ele><time>2026-04-08T12:35:05Z</time></trkpt><trkpt lat="45.63337379630872" lon="11.357753130817589"><ele>543.2</ele><time>2026-04-08T12:35:06Z</time></trkpt><trkpt lat="45.63335527070542" lon="11.357658686627497"><ele>542.0</ele><time>2026-04-08T12:35:09Z</time></trkpt><trkpt lat="45.63346265189645" lon="11.357648661035721"><ele>542.0</ele><time>2026-04-08T12:35:11Z</time></trkpt><trkpt lat="45.63354948883754" lon="11.357678818962565"><ele>542.0</ele><time>2026-04-08T12:35:12Z</time></trkpt><trkpt lat="45.63361450547481" lon="11.357688489060386"><ele>542.0</ele><time>2026-04-08T12:35:13Z</time></trkpt><trkpt lat="45.63373961266792" lon="11.357652974881677"><ele>542.0</ele><time>2026-04-08T12:35:15Z</time></trkpt><trkpt lat="45.633841189148406" lon="11.35761047638439"><ele>542.0</ele><time>2026-04-08T12:35:16Z</time></trkpt><trkpt lat="45.633923533451835" lon="11.357579602618014"><ele>543.0</ele><time>2026-04-08T12:35:17Z</time></trkpt><trkpt lat="45.633986837055446" lon="11.357575904482086"><ele>544.0</ele><time>2026-04-08T12:35:18Z</time></trkpt><trkpt lat="45.63406973466809" lon="11.357614031130014"><ele>545.0</ele><time>2026-04-08T12:35:19Z</time></trkpt><trkpt lat="45.63414856749955" lon="11.357661686917071"><ele>546.0</ele><time>2026-04-08T12:35:20Z</time></trkpt><trkpt lat="45.63421672768079" lon="11.357706707577739"><ele>547.0</ele><time>2026-04-08T12:35:21Z</time></trkpt><trkpt lat="45.634285322557005" lon="11.357751083234257"><ele>548.0</ele><time>2026-04-08T12:35:22Z</time></trkpt><trkpt lat="45.634352930978324" lon="11.357787671742736"><ele>548.0</ele><time>2026-04-08T12:35:23Z</time></trkpt><trkpt lat="45.63444787565871" lon="11.357817724285203"><ele>548.0</ele><time>2026-04-08T12:35:24Z</time></trkpt><trkpt lat="45.634553115162824" lon="11.357779856577384"><ele>548.0</ele><time>2026-04-08T12:35:25Z</time></trkpt><trkpt lat="45.63467841090897" lon="11.357768588332343"><ele>548.0</ele><time>2026-04-08T12:35:26Z</time></trkpt><trkpt lat="45.634804336462004" lon="11.357739364232193"><ele>551.0</ele><time>2026-04-08T12:35:27Z</time></trkpt><trkpt lat="45.63495524384809" lon="11.357713005679829"><ele>554.0</ele><time>2026-04-08T12:35:28Z</time></trkpt><trkpt lat="45.63510812914205" lon="11.357690048454678"><ele>557.0</ele><time>2026-04-08T12:35:29Z</time></trkpt><trkpt lat="45.635229007752706" lon="11.357672223919039"><ele>560.0</ele><time>2026-04-08T12:35:30Z</time></trkpt><trkpt lat="45.63534994642111" lon="11.357663223775042"><ele>560.8</ele><time>2026-04-08T12:35:31Z</time></trkpt><trkpt lat="45.6354447055311" lon="11.357682819641758"><ele>561.6</ele><time>2026-04-08T12:35:32Z</time></trkpt><trkpt lat="45.63551682934897" lon="11.357729009757561"><ele>562.4</ele><time>2026-04-08T12:35:33Z</time></trkpt><trkpt lat="45.63559288466615" lon="11.357773580223355"><ele>563.2</ele><time>2026-04-08T12:35:34Z</time></trkpt><trkpt lat="45.635677630894655" lon="11.357829848847338"><ele>564.0</ele><time>2026-04-08T12:35:35Z</time></trkpt><trkpt lat="45.63578579645928" lon="11.357874019810659"><ele>564.0</ele><time>2026-04-08T12:35:36Z</time></trkpt><trkpt lat="45.63588311008845" lon="11.357864609232513"><ele>564.0</ele><time>2026-04-08T12:35:37Z</time></trkpt><trkpt lat="45.63596165001563" lon="11.357846445115618"><ele>564.0</ele><time>2026-04-08T12:35:38Z</time></trkpt><trkpt lat="45.63602015203111" lon="11.357791728083477"><ele>564.0</ele><time>2026-04-08T12:35:39Z</time></trkpt><trkpt lat="45.63609422550486" lon="11.357751185242192"><ele>564.0</ele><time>2026-04-08T12:35:40Z</time></trkpt><trkpt lat="45.63617419430565" lon="11.357675624955746"><ele>564.0</ele><time>2026-04-08T12:35:41Z</time></trkpt><trkpt lat="45.63624851342578" lon="11.35759316875469"><ele>565.2</ele><time>2026-04-08T12:35:42Z</time></trkpt><trkpt lat="45.63632089518798" lon="11.357513552673387"><ele>566.4</ele><time>2026-04-08T12:35:43Z</time></trkpt><trkpt lat="45.63639713956558" lon="11.357443786173949"><ele>567.6</ele><time>2026-04-08T12:35:44Z</time></trkpt><trkpt lat="45.636481646135856" lon="11.35740375825019"><ele>568.8</ele><time>2026-04-08T12:35:45Z</time></trkpt><trkpt lat="45.63657355076764" lon="11.357348245938134"><ele>570.0</ele><time>2026-04-08T12:35:46Z</time></trkpt><trkpt lat="45.6366722988898" lon="11.357253538669132"><ele>571.6</ele><time>2026-04-08T12:35:47Z</time></trkpt><trkpt lat="45.63675141263059" lon="11.357182202618606"><ele>573.2</ele><time>2026-04-08T12:35:48Z</time></trkpt><trkpt lat="45.63683456712043" lon="11.357086610058015"><ele>574.8</ele><time>2026-04-08T12:35:49Z</time></trkpt><trkpt lat="45.636919662041315" lon="11.357015230206981"><ele>576.4</ele><time>2026-04-08T12:35:50Z</time></trkpt><trkpt lat="45.63700022173351" lon="11.356925067788456"><ele>578.0</ele><time>2026-04-08T12:35:51Z</time></trkpt><trkpt lat="45.63706043937377" lon="11.356866945874641"><ele>578.0</ele><time>2026-04-08T12:35:52Z</time></trkpt><trkpt lat="45.637141738193606" lon="11.356807139451481"><ele>578.0</ele><time>2026-04-08T12:35:53Z</time></trkpt><trkpt lat="45.6372171086101" lon="11.356748534433365"><ele>578.0</ele><time>2026-04-08T12:35:54Z</time></trkpt><trkpt lat="45.63732309008525" lon="11.35666612747453"><ele>578.0</ele><time>2026-04-08T12:35:56Z</time></trkpt><trkpt lat="45.63740221116245" lon="11.356604606087966"><ele>578.0</ele><time>2026-04-08T12:35:58Z</time></trkpt><trkpt lat="45.63738292446494" lon="11.356412153618068"><ele>578.0</ele><time>2026-04-08T12:35:59Z</time></trkpt><trkpt lat="45.63745533105764" lon="11.35645184514407"><ele>578.0</ele><time>2026-04-08T12:36:01Z</time></trkpt><trkpt lat="45.63750485812555" lon="11.356508673514977"><ele>578.0</ele><time>2026-04-08T12:36:02Z</time></trkpt><trkpt lat="45.63757937252583" lon="11.356613827554026"><ele>578.0</ele><time>2026-04-08T12:36:03Z</time></trkpt><trkpt lat="45.637654769052816" lon="11.356707752090784"><ele>578.0</ele><time>2026-04-08T12:36:04Z</time></trkpt><trkpt lat="45.63773032456103" lon="11.356792011296315"><ele>578.0</ele><time>2026-04-08T12:36:05Z</time></trkpt><trkpt lat="45.637800381255175" lon="11.356867005552395"><ele>577.6666666666666</ele><time>2026-04-08T12:36:06Z</time></trkpt><trkpt lat="45.63787001762876" lon="11.356942461601795"><ele>577.3333333333333</ele><time>2026-04-08T12:36:07Z</time></trkpt><trkpt lat="45.63791501018443" lon="11.35701360501133"><ele>577.0</ele><time>2026-04-08T12:36:08Z</time></trkpt><trkpt lat="45.63792134028327" lon="11.357158100733491"><ele>576.6666666666666</ele><time>2026-04-08T12:36:10Z</time></trkpt><trkpt lat="45.63789318349099" lon="11.357250991521813"><ele>576.3333333333334</ele><time>2026-04-08T12:36:11Z</time></trkpt><trkpt lat="45.637852226764124" lon="11.357328995896717"><ele>576.0</ele><time>2026-04-08T12:36:12Z</time></trkpt><trkpt lat="45.637797670495445" lon="11.35739465529653"><ele>576.0</ele><time>2026-04-08T12:36:13Z</time></trkpt><trkpt lat="45.63771321620993" lon="11.357447174574368"><ele>576.0</ele><time>2026-04-08T12:36:14Z</time></trkpt><trkpt lat="45.63761682428046" lon="11.35748834287129"><ele>576.0</ele><time>2026-04-08T12:36:15Z</time></trkpt><trkpt lat="45.63754032425454" lon="11.357539809459587"><ele>576.0</ele><time>2026-04-08T12:36:16Z</time></trkpt><trkpt lat="45.637465769463304" lon="11.357620014878178"><ele>576.0</ele><time>2026-04-08T12:36:17Z</time></trkpt><trkpt lat="45.63738636705543" lon="11.357719030259391"><ele>576.0</ele><time>2026-04-08T12:36:18Z</time></trkpt><trkpt lat="45.637320114175395" lon="11.357820611568913"><ele>576.0</ele><time>2026-04-08T12:36:19Z</time></trkpt><trkpt lat="45.637272009403105" lon="11.357916090544219"><ele>576.0</ele><time>2026-04-08T12:36:20Z</time></trkpt><trkpt lat="45.63723917984337" lon="11.358005787966302"><ele>576.0</ele><time>2026-04-08T12:36:21Z</time></trkpt><trkpt lat="45.63718819713442" lon="11.358126291996998"><ele>576.0</ele><time>2026-04-08T12:36:22Z</time></trkpt><trkpt lat="45.637130584293025" lon="11.358243356290366"><ele>576.0</ele><time>2026-04-08T12:36:23Z</time></trkpt><trkpt lat="45.63707183718925" lon="11.35834989234095"><ele>576.4</ele><time>2026-04-08T12:36:24Z</time></trkpt><trkpt lat="45.637004635181285" lon="11.358478435296714"><ele>576.8</ele><time>2026-04-08T12:36:25Z</time></trkpt><trkpt lat="45.636950213310335" lon="11.358595621656216"><ele>577.1999999999999</ele><time>2026-04-08T12:36:26Z</time></trkpt><trkpt lat="45.636900737731835" lon="11.358731140243373"><ele>577.6</ele><time>2026-04-08T12:36:27Z</time></trkpt><trkpt lat="45.636854444189886" lon="11.358874806432716"><ele>578.0</ele><time>2026-04-08T12:36:28Z</time></trkpt><trkpt lat="45.63681059441615" lon="11.358992244448073"><ele>580.1666666666666</ele><time>2026-04-08T12:36:29Z</time></trkpt><trkpt lat="45.63676694856439" lon="11.359081794942165"><ele>582.3333333333333</ele><time>2026-04-08T12:36:30Z</time></trkpt><trkpt lat="45.63671725328851" lon="11.359190587797993"><ele>584.5</ele><time>2026-04-08T12:36:31Z</time></trkpt><trkpt lat="45.63668870850072" lon="11.359295783526644"><ele>586.6666666666666</ele><time>2026-04-08T12:36:32Z</time></trkpt><trkpt lat="45.63667555469" lon="11.359422182088649"><ele>588.8333333333334</ele><time>2026-04-08T12:36:33Z</time></trkpt><trkpt lat="45.63668078838059" lon="11.359526141455303"><ele>591.0</ele><time>2026-04-08T12:36:34Z</time></trkpt><trkpt lat="45.63672457471787" lon="11.35969904460027"><ele>592.5</ele><time>2026-04-08T12:36:36Z</time></trkpt><trkpt lat="45.63674040210704" lon="11.359819167459808"><ele>594.0</ele><time>2026-04-08T12:36:37Z</time></trkpt><trkpt lat="45.63672817648102" lon="11.359929967482078"><ele>595.5</ele><time>2026-04-08T12:36:38Z</time></trkpt><trkpt lat="45.63669777948015" lon="11.360039088612407"><ele>597.0</ele><time>2026-04-08T12:36:39Z</time></trkpt><trkpt lat="45.636596733025684" lon="11.360129540176361"><ele>598.5</ele><time>2026-04-08T12:36:41Z</time></trkpt><trkpt lat="45.63653809610605" lon="11.360165898343723"><ele>600.0</ele><time>2026-04-08T12:36:42Z</time></trkpt><trkpt lat="45.63651904111294" lon="11.360256364195992"><ele>600.0</ele><time>2026-04-08T12:36:44Z</time></trkpt><trkpt lat="45.636621629102905" lon="11.360296135547536"><ele>600.0</ele><time>2026-04-08T12:36:46Z</time></trkpt><trkpt lat="45.636701151123226" lon="11.360282395903806"><ele>600.0</ele><time>2026-04-08T12:36:47Z</time></trkpt><trkpt lat="45.63678421327181" lon="11.36028310602541"><ele>600.0</ele><time>2026-04-08T12:36:48Z</time></trkpt><trkpt lat="45.63686391479604" lon="11.360340706400992"><ele>600.0</ele><time>2026-04-08T12:36:50Z</time></trkpt><trkpt lat="45.63692463098472" lon="11.360450958642106"><ele>602.1666666666666</ele><time>2026-04-08T12:36:52Z</time></trkpt><trkpt lat="45.63701027559751" lon="11.360466280671833"><ele>604.3333333333334</ele><time>2026-04-08T12:36:55Z</time></trkpt><trkpt lat="45.637076433927774" lon="11.36047633991166"><ele>606.5</ele><time>2026-04-08T12:36:56Z</time></trkpt><trkpt lat="45.63714113122097" lon="11.360463831844898"><ele>608.6666666666667</ele><time>2026-04-08T12:36:58Z</time></trkpt><trkpt lat="45.63720708124655" lon="11.36038624987095"><ele>610.8333333333334</ele><time>2026-04-08T12:37:00Z</time></trkpt><trkpt lat="45.63726135699961" lon="11.360256165999893"><ele>613.0</ele><time>2026-04-08T12:37:02Z</time></trkpt><trkpt lat="45.63736614130676" lon="11.360175641052017"><ele>613.0</ele><time>2026-04-08T12:37:04Z</time></trkpt><trkpt lat="45.63741871175018" lon="11.360095055253021"><ele>613.0</ele><time>2026-04-08T12:37:06Z</time></trkpt><trkpt lat="45.637484063667536" lon="11.359967803564174"><ele>613.0</ele><time>2026-04-08T12:37:08Z</time></trkpt><trkpt lat="45.637537170649765" lon="11.359894339060777"><ele>613.0</ele><time>2026-04-08T12:37:09Z</time></trkpt><trkpt lat="45.6376228642188" lon="11.359745595866075"><ele>613.0</ele><time>2026-04-08T12:37:11Z</time></trkpt><trkpt lat="45.63766861161209" lon="11.359673018226804"><ele>612.5</ele><time>2026-04-08T12:37:12Z</time></trkpt><trkpt lat="45.63773152100069" lon="11.359601997465585"><ele>612.0</ele><time>2026-04-08T12:37:13Z</time></trkpt><trkpt lat="45.63778031771038" lon="11.359540080440484"><ele>611.5</ele><time>2026-04-08T12:37:14Z</time></trkpt><trkpt lat="45.6378328580786" lon="11.35947325147501"><ele>611.0</ele><time>2026-04-08T12:37:15Z</time></trkpt><trkpt lat="45.637915640178676" lon="11.359353145981576"><ele>610.5</ele><time>2026-04-08T12:37:17Z</time></trkpt><trkpt lat="45.63797884148198" lon="11.35925316307542"><ele>610.0</ele><time>2026-04-08T12:37:18Z</time></trkpt><trkpt lat="45.63803311885372" lon="11.359193810816945"><ele>612.0</ele><time>2026-04-08T12:37:19Z</time></trkpt><trkpt lat="45.63810404861748" lon="11.359136624185105"><ele>614.0</ele><time>2026-04-08T12:37:21Z</time></trkpt><trkpt lat="45.638199563956114" lon="11.359106086228048"><ele>616.0</ele><time>2026-04-08T12:37:24Z</time></trkpt><trkpt lat="45.6383173281027" lon="11.359071511905087"><ele>618.0</ele><time>2026-04-08T12:37:26Z</time></trkpt><trkpt lat="45.638372894593374" lon="11.359028450905766"><ele>620.0</ele><time>2026-04-08T12:37:27Z</time></trkpt><trkpt lat="45.63843563093634" lon="11.35892709505638"><ele>620.2</ele><time>2026-04-08T12:37:29Z</time></trkpt><trkpt lat="45.63855574006577" lon="11.358824306102548"><ele>620.4</ele><time>2026-04-08T12:37:31Z</time></trkpt><trkpt lat="45.63863440550096" lon="11.358683640336876"><ele>620.6</ele><time>2026-04-08T12:37:33Z</time></trkpt><trkpt lat="45.638677195277005" lon="11.358586052334415"><ele>620.8</ele><time>2026-04-08T12:37:34Z</time></trkpt><trkpt lat="45.63873035551322" lon="11.358497815936039"><ele>621.0</ele><time>2026-04-08T12:37:35Z</time></trkpt><trkpt lat="45.63879003753579" lon="11.358445378904351"><ele>621.0</ele><time>2026-04-08T12:37:36Z</time></trkpt><trkpt lat="45.638895055162855" lon="11.358378070397064"><ele>621.0</ele><time>2026-04-08T12:37:38Z</time></trkpt><trkpt lat="45.63895502326437" lon="11.358342302299473"><ele>621.0</ele><time>2026-04-08T12:37:40Z</time></trkpt><trkpt lat="45.639032807690704" lon="11.358356072521843"><ele>621.0</ele><time>2026-04-08T12:37:42Z</time></trkpt><trkpt lat="45.63911100962639" lon="11.35838561231963"><ele>621.0</ele><time>2026-04-08T12:37:44Z</time></trkpt><trkpt lat="45.63920548163149" lon="11.358393756057431"><ele>621.0</ele><time>2026-04-08T12:37:46Z</time></trkpt><trkpt lat="45.63927671830138" lon="11.358315695431717"><ele>621.0</ele><time>2026-04-08T12:37:48Z</time></trkpt><trkpt lat="45.63935867575821" lon="11.35823158505057"><ele>621.0</ele><time>2026-04-08T12:37:50Z</time></trkpt><trkpt lat="45.6393994491075" lon="11.358144690755791"><ele>621.0</ele><time>2026-04-08T12:37:52Z</time></trkpt><trkpt lat="45.639455936933956" lon="11.3580736897056"><ele>621.0</ele><time>2026-04-08T12:37:55Z</time></trkpt><trkpt lat="45.63953445011672" lon="11.358039026781336"><ele>621.0</ele><time>2026-04-08T12:37:57Z</time></trkpt><trkpt lat="45.63958126882268" lon="11.357952856396981"><ele>621.0</ele><time>2026-04-08T12:37:59Z</time></trkpt><trkpt lat="45.639648755912724" lon="11.357866644608256"><ele>622.0</ele><time>2026-04-08T12:38:01Z</time></trkpt><trkpt lat="45.63970252076568" lon="11.357753868014278"><ele>623.0</ele><time>2026-04-08T12:38:03Z</time></trkpt><trkpt lat="45.63973203535977" lon="11.357669366019014"><ele>624.0</ele><time>2026-04-08T12:38:04Z</time></trkpt><trkpt lat="45.639707505520484" lon="11.357443232243433"><ele>625.0</ele><time>2026-04-08T12:38:06Z</time></trkpt><trkpt lat="45.63977776701128" lon="11.357358862409816"><ele>626.0</ele><time>2026-04-08T12:38:08Z</time></trkpt><trkpt lat="45.6398388096572" lon="11.35728556224111"><ele>626.0</ele><time>2026-04-08T12:38:09Z</time></trkpt><trkpt lat="45.63989351067092" lon="11.357219876942818"><ele>626.0</ele><time>2026-04-08T12:38:11Z</time></trkpt><trkpt lat="45.63995706718707" lon="11.35714355802849"><ele>626.0</ele><time>2026-04-08T12:38:13Z</time></trkpt><trkpt lat="45.640021894948546" lon="11.357106748367565"><ele>626.0</ele><time>2026-04-08T12:38:15Z</time></trkpt><trkpt lat="45.64027530216403" lon="11.357351779247864"><ele>626.3333333333333</ele><time>2026-04-08T12:38:17Z</time></trkpt><trkpt lat="45.640371969252364" lon="11.35731590344515"><ele>626.6666666666666</ele><time>2026-04-08T12:38:19Z</time></trkpt><trkpt lat="45.640428003280284" lon="11.35727184243949"><ele>627.0</ele><time>2026-04-08T12:38:20Z</time></trkpt><trkpt lat="45.64049233929439" lon="11.357242687884165"><ele>627.3333333333334</ele><time>2026-04-08T12:38:21Z</time></trkpt><trkpt lat="45.64054403940362" lon="11.357190636070484"><ele>627.6666666666667</ele><time>2026-04-08T12:38:23Z</time></trkpt><trkpt lat="45.640599904741954" lon="11.3571173252969"><ele>628.0</ele><time>2026-04-08T12:38:25Z</time></trkpt><trkpt lat="45.640680450570926" lon="11.357012709239584"><ele>628.3333333333334</ele><time>2026-04-08T12:38:27Z</time></trkpt><trkpt lat="45.64067972403999" lon="11.356877794431552"><ele>628.6666666666667</ele><time>2026-04-08T12:38:29Z</time></trkpt><trkpt lat="45.64068827432192" lon="11.356776452749488"><ele>629.0</ele><time>2026-04-08T12:38:30Z</time></trkpt><trkpt lat="45.64070390031017" lon="11.356682778982611"><ele>629.3333333333334</ele><time>2026-04-08T12:38:31Z</time></trkpt><trkpt lat="45.64075829259723" lon="11.356624700394313"><ele>629.6666666666666</ele><time>2026-04-08T12:38:33Z</time></trkpt><trkpt lat="45.64085785223368" lon="11.356559601574673"><ele>630.0</ele><time>2026-04-08T12:38:36Z</time></trkpt><trkpt lat="45.6410022507946" lon="11.356607001496206"><ele>630.0</ele><time>2026-04-08T12:38:38Z</time></trkpt><trkpt lat="45.641092551259476" lon="11.356647209504269"><ele>630.0</ele><time>2026-04-08T12:38:39Z</time></trkpt><trkpt lat="45.64117289701816" lon="11.35666423899908"><ele>630.0</ele><time>2026-04-08T12:38:40Z</time></trkpt><trkpt lat="45.6412612913592" lon="11.356641892013432"><ele>630.0</ele><time>2026-04-08T12:38:41Z</time></trkpt><trkpt lat="45.6413455606523" lon="11.356584777590164"><ele>630.0</ele><time>2026-04-08T12:38:42Z</time></trkpt><trkpt lat="45.64141855140075" lon="11.356524821317539"><ele>630.0</ele><time>2026-04-08T12:38:43Z</time></trkpt><trkpt lat="45.64151117660423" lon="11.356451808056029"><ele>630.2</ele><time>2026-04-08T12:38:44Z</time></trkpt><trkpt lat="45.641610885602645" lon="11.356390427975533"><ele>630.4</ele><time>2026-04-08T12:38:45Z</time></trkpt><trkpt lat="45.641715812377534" lon="11.356383899518434"><ele>630.6</ele><time>2026-04-08T12:38:46Z</time></trkpt><trkpt lat="45.64182664640147" lon="11.356382535111184"><ele>630.8</ele><time>2026-04-08T12:38:47Z</time></trkpt><trkpt lat="45.64194190919786" lon="11.356393800407997"><ele>631.0</ele><time>2026-04-08T12:38:48Z</time></trkpt><trkpt lat="45.64205885995543" lon="11.356414554036482"><ele>632.6</ele><time>2026-04-08T12:38:49Z</time></trkpt><trkpt lat="45.64216627317678" lon="11.356431971963726"><ele>634.2</ele><time>2026-04-08T12:38:50Z</time></trkpt><trkpt lat="45.64223906172882" lon="11.356522018031377"><ele>635.8</ele><time>2026-04-08T12:38:51Z</time></trkpt><trkpt lat="45.64230911907965" lon="11.356616800306778"><ele>637.4</ele><time>2026-04-08T12:38:52Z</time></trkpt><trkpt lat="45.64238666301954" lon="11.356698125152484"><ele>639.0</ele><time>2026-04-08T12:38:53Z</time></trkpt><trkpt lat="45.64245380752891" lon="11.356804613920533"><ele>639.0</ele><time>2026-04-08T12:38:54Z</time></trkpt><trkpt lat="45.6425375196631" lon="11.35690147128631"><ele>639.0</ele><time>2026-04-08T12:38:55Z</time></trkpt><trkpt lat="45.64264496597689" lon="11.35699102817606"><ele>639.0</ele><time>2026-04-08T12:38:56Z</time></trkpt><trkpt lat="45.642750605041" lon="11.357076145271854"><ele>639.0</ele><time>2026-04-08T12:38:57Z</time></trkpt><trkpt lat="45.64286143442465" lon="11.357143203835896"><ele>638.6</ele><time>2026-04-08T12:38:58Z</time></trkpt><trkpt lat="45.64297422520165" lon="11.357178889351173"><ele>638.2</ele><time>2026-04-08T12:38:59Z</time></trkpt><trkpt lat="45.64308232679058" lon="11.357192800829115"><ele>637.8000000000001</ele><time>2026-04-08T12:39:00Z</time></trkpt><trkpt lat="45.64317806850995" lon="11.357196136327648"><ele>637.4</ele><time>2026-04-08T12:39:01Z</time></trkpt><trkpt lat="45.643261324143495" lon="11.357237416589795"><ele>637.0</ele><time>2026-04-08T12:39:02Z</time></trkpt><trkpt lat="45.64335359543115" lon="11.357245496039985"><ele>637.0</ele><time>2026-04-08T12:39:03Z</time></trkpt><trkpt lat="45.64343304312296" lon="11.35729872807089"><ele>637.0</ele><time>2026-04-08T12:39:04Z</time></trkpt><trkpt lat="45.64352219555604" lon="11.357331583721464"><ele>637.0</ele><time>2026-04-08T12:39:05Z</time></trkpt><trkpt lat="45.64360949055823" lon="11.357363209525841"><ele>637.0</ele><time>2026-04-08T12:39:06Z</time></trkpt><trkpt lat="45.643702355249026" lon="11.357393103212793"><ele>637.0</ele><time>2026-04-08T12:39:07Z</time></trkpt><trkpt lat="45.643767800984186" lon="11.357484519767604"><ele>639.3333333333334</ele><time>2026-04-08T12:39:08Z</time></trkpt><trkpt lat="45.64377512002219" lon="11.357617634962184"><ele>641.6666666666667</ele><time>2026-04-08T12:39:09Z</time></trkpt><trkpt lat="45.64382821674975" lon="11.357705262340076"><ele>644.0</ele><time>2026-04-08T12:39:10Z</time></trkpt><trkpt lat="45.64388476367944" lon="11.357800518907007"><ele>646.3333333333334</ele><time>2026-04-08T12:39:11Z</time></trkpt><trkpt lat="45.643959461599785" lon="11.357841270819623"><ele>648.6666666666666</ele><time>2026-04-08T12:39:12Z</time></trkpt><trkpt lat="45.64403437021705" lon="11.357843950814232"><ele>651.0</ele><time>2026-04-08T12:39:13Z</time></trkpt><trkpt lat="45.64411547407046" lon="11.357829367542303"><ele>651.0</ele><time>2026-04-08T12:39:14Z</time></trkpt><trkpt lat="45.64420150496431" lon="11.357805944272652"><ele>651.0</ele><time>2026-04-08T12:39:15Z</time></trkpt><trkpt lat="45.644284337494156" lon="11.357796472508385"><ele>651.0</ele><time>2026-04-08T12:39:16Z</time></trkpt><trkpt lat="45.64436128128165" lon="11.35782756854189"><ele>651.0</ele><time>2026-04-08T12:39:17Z</time></trkpt><trkpt lat="45.64442470525339" lon="11.357840698205576"><ele>651.0</ele><time>2026-04-08T12:39:18Z</time></trkpt><trkpt lat="45.64449160793548" lon="11.357857497753354"><ele>651.0</ele><time>2026-04-08T12:39:19Z</time></trkpt><trkpt lat="45.64456641876917" lon="11.357874791648255"><ele>650.3333333333334</ele><time>2026-04-08T12:39:20Z</time></trkpt><trkpt lat="45.644636998365506" lon="11.357861810066044"><ele>649.6666666666666</ele><time>2026-04-08T12:39:21Z</time></trkpt><trkpt lat="45.644721354192285" lon="11.357885580298943"><ele>649.0</ele><time>2026-04-08T12:39:24Z</time></trkpt><trkpt lat="45.644808155205055" lon="11.357904094447003"><ele>648.3333333333333</ele><time>2026-04-08T12:39:26Z</time></trkpt><trkpt lat="45.64489874034298" lon="11.357858651993771"><ele>647.6666666666666</ele><time>2026-04-08T12:39:28Z</time></trkpt><trkpt lat="45.64500257928853" lon="11.357830750200748"><ele>647.0</ele><time>2026-04-08T12:39:31Z</time></trkpt><trkpt lat="45.64508904631156" lon="11.357819394654479"><ele>647.0</ele><time>2026-04-08T12:39:33Z</time></trkpt><trkpt lat="45.64516313537018" lon="11.35781233352414"><ele>647.0</ele><time>2026-04-08T12:39:35Z</time></trkpt><trkpt lat="45.64524525044312" lon="11.357805364885955"><ele>647.0</ele><time>2026-04-08T12:39:37Z</time></trkpt><trkpt lat="45.64532009701209" lon="11.3578026580771"><ele>647.0</ele><time>2026-04-08T12:39:39Z</time></trkpt><trkpt lat="45.6453984052834" lon="11.357795725947634"><ele>647.0</ele><time>2026-04-08T12:39:41Z</time></trkpt><trkpt lat="45.64548101930218" lon="11.357784631420333"><ele>647.0</ele><time>2026-04-08T12:39:43Z</time></trkpt><trkpt lat="45.64555599800077" lon="11.357774410104671"><ele>645.3333333333333</ele><time>2026-04-08T12:39:45Z</time></trkpt><trkpt lat="45.64562194284663" lon="11.357757454324553"><ele>643.6666666666666</ele><time>2026-04-08T12:39:47Z</time></trkpt><trkpt lat="45.64568832342255" lon="11.357735080031746"><ele>642.0</ele><time>2026-04-08T12:39:49Z</time></trkpt><trkpt lat="45.64576618722602" lon="11.35768744092532"><ele>640.3333333333334</ele><time>2026-04-08T12:39:51Z</time></trkpt><trkpt lat="45.64585800654802" lon="11.35762994377604"><ele>638.6666666666667</ele><time>2026-04-08T12:39:53Z</time></trkpt><trkpt lat="45.64592496204681" lon="11.35758449543341"><ele>637.0</ele><time>2026-04-08T12:39:55Z</time></trkpt><trkpt lat="45.64599181310767" lon="11.357531440407566"><ele>637.0</ele><time>2026-04-08T12:39:57Z</time></trkpt><trkpt lat="45.64606816613489" lon="11.357465031889744"><ele>637.0</ele><time>2026-04-08T12:39:59Z</time></trkpt><trkpt lat="45.64615297984686" lon="11.357365296365074"><ele>637.0</ele><time>2026-04-08T12:40:02Z</time></trkpt><trkpt lat="45.646220805330415" lon="11.35727848150959"><ele>637.0</ele><time>2026-04-08T12:40:04Z</time></trkpt><trkpt lat="45.64628424763574" lon="11.357197813978807"><ele>637.0</ele><time>2026-04-08T12:40:05Z</time></trkpt><trkpt lat="45.64637624832533" lon="11.357079453493467"><ele>635.75</ele><time>2026-04-08T12:40:07Z</time></trkpt><trkpt lat="45.64644596341996" lon="11.356982105876456"><ele>634.5</ele><time>2026-04-08T12:40:09Z</time></trkpt><trkpt lat="45.64654981910608" lon="11.356822169944852"><ele>633.25</ele><time>2026-04-08T12:40:11Z</time></trkpt><trkpt lat="45.64662057800629" lon="11.35671922842011"><ele>632.0</ele><time>2026-04-08T12:40:12Z</time></trkpt><trkpt lat="45.64669133561917" lon="11.356616482260145"><ele>632.0</ele><time>2026-04-08T12:40:13Z</time></trkpt><trkpt lat="45.64682081608206" lon="11.356453926842798"><ele>632.0</ele><time>2026-04-08T12:40:14Z</time></trkpt><trkpt lat="45.646936582748246" lon="11.356356942162039"><ele>632.0</ele><time>2026-04-08T12:40:15Z</time></trkpt><trkpt lat="45.64702784615789" lon="11.356293167050051"><ele>632.0</ele><time>2026-04-08T12:40:16Z</time></trkpt><trkpt lat="45.6471067449776" lon="11.356238814184401"><ele>630.2</ele><time>2026-04-08T12:40:17Z</time></trkpt><trkpt lat="45.6472176959508" lon="11.356163117717404"><ele>628.4000000000001</ele><time>2026-04-08T12:40:19Z</time></trkpt><trkpt lat="45.64727750120178" lon="11.356122313520673"><ele>626.5999999999999</ele><time>2026-04-08T12:40:20Z</time></trkpt><trkpt lat="45.64734870991664" lon="11.356071595154752"><ele>624.8</ele><time>2026-04-08T12:40:21Z</time></trkpt><trkpt lat="45.64745499818331" lon="11.355983203823955"><ele>623.0</ele><time>2026-04-08T12:40:23Z</time></trkpt><trkpt lat="45.64794646537706" lon="11.356179040748007"><ele>619.25</ele><time>2026-04-08T12:40:25Z</time></trkpt><trkpt lat="45.64796839755859" lon="11.356266145297623"><ele>615.5</ele><time>2026-04-08T12:40:28Z</time></trkpt><trkpt lat="45.6478983774283" lon="11.356538523952322"><ele>611.75</ele><time>2026-04-08T12:40:29Z</time></trkpt><trkpt lat="45.64783779722898" lon="11.356398561510442"><ele>608.0</ele><time>2026-04-08T12:40:31Z</time></trkpt><trkpt lat="45.64783814556989" lon="11.356264532423216"><ele>607.75</ele><time>2026-04-08T12:40:33Z</time></trkpt><trkpt lat="45.647821686775856" lon="11.356149489678227"><ele>607.5</ele><time>2026-04-08T12:40:35Z</time></trkpt><trkpt lat="45.64780245187329" lon="11.35601504262471"><ele>607.25</ele><time>2026-04-08T12:40:38Z</time></trkpt><trkpt lat="45.64778151051023" lon="11.355898399377814"><ele>607.0</ele><time>2026-04-08T12:40:40Z</time></trkpt><trkpt lat="45.64757913762608" lon="11.355897384404516"><ele>610.2</ele><time>2026-04-08T12:40:41Z</time></trkpt><trkpt lat="45.6475489485745" lon="11.355793363750063"><ele>613.4000000000001</ele><time>2026-04-08T12:40:43Z</time></trkpt><trkpt lat="45.64762036989213" lon="11.355647541981353"><ele>616.5999999999999</ele><time>2026-04-08T12:40:45Z</time></trkpt><trkpt lat="45.64767549860947" lon="11.355553221175478"><ele>619.8</ele><time>2026-04-08T12:40:46Z</time></trkpt><trkpt lat="45.647733822803616" lon="11.3554382867741"><ele>623.0</ele><time>2026-04-08T12:40:47Z</time></trkpt><trkpt lat="45.64777367321841" lon="11.355329275999667"><ele>620.3333333333333</ele><time>2026-04-08T12:40:48Z</time></trkpt><trkpt lat="45.64782229233559" lon="11.35522598141069"><ele>617.6666666666666</ele><time>2026-04-08T12:40:49Z</time></trkpt><trkpt lat="45.64787770564399" lon="11.355150842957023"><ele>615.0</ele><time>2026-04-08T12:40:50Z</time></trkpt><trkpt lat="45.6479455254472" lon="11.355025674646125"><ele>612.3333333333334</ele><time>2026-04-08T12:40:52Z</time></trkpt><trkpt lat="45.64798649472392" lon="11.354953444673292"><ele>609.6666666666667</ele><time>2026-04-08T12:40:53Z</time></trkpt><trkpt lat="45.64802985358081" lon="11.35488221785473"><ele>607.0</ele><time>2026-04-08T12:40:54Z</time></trkpt><trkpt lat="45.64807675423692" lon="11.354806227638989"><ele>607.0</ele><time>2026-04-08T12:40:55Z</time></trkpt><trkpt lat="45.64814191166064" lon="11.354710193520729"><ele>607.0</ele><time>2026-04-08T12:40:56Z</time></trkpt><trkpt lat="45.6482006264309" lon="11.35464561873334"><ele>607.0</ele><time>2026-04-08T12:40:57Z</time></trkpt><trkpt lat="45.648253544384154" lon="11.35458556411495"><ele>607.0</ele><time>2026-04-08T12:40:58Z</time></trkpt><trkpt lat="45.64831555094032" lon="11.35454062569152"><ele>607.0</ele><time>2026-04-08T12:40:59Z</time></trkpt><trkpt lat="45.64842583220075" lon="11.354512766892253"><ele>607.0</ele><time>2026-04-08T12:41:01Z</time></trkpt><trkpt lat="45.64849734353875" lon="11.354476068005285"><ele>612.5</ele><time>2026-04-08T12:41:02Z</time></trkpt><trkpt lat="45.64858291328576" lon="11.354432155790388"><ele>618.0</ele><time>2026-04-08T12:41:04Z</time></trkpt><trkpt lat="45.64840051911725" lon="11.353758905722106"><ele>621.4</ele><time>2026-04-08T12:41:06Z</time></trkpt><trkpt lat="45.64834347572306" lon="11.353641185930332"><ele>624.8</ele><time>2026-04-08T12:41:08Z</time></trkpt><trkpt lat="45.64838872697092" lon="11.353519845448172"><ele>628.2</ele><time>2026-04-08T12:41:10Z</time></trkpt><trkpt lat="45.64845801616576" lon="11.353365958323261"><ele>631.6</ele><time>2026-04-08T12:41:12Z</time></trkpt><trkpt lat="45.64849582677056" lon="11.353289395573137"><ele>635.0</ele><time>2026-04-08T12:41:13Z</time></trkpt><trkpt lat="45.64854574586332" lon="11.35318212342721"><ele>635.0</ele><time>2026-04-08T12:41:14Z</time></trkpt><trkpt lat="45.64861696886803" lon="11.353080176025635"><ele>635.0</ele><time>2026-04-08T12:41:15Z</time></trkpt><trkpt lat="45.64866826924341" lon="11.35298186418815"><ele>635.0</ele><time>2026-04-08T12:41:16Z</time></trkpt><trkpt lat="45.648702079451134" lon="11.352886706111834"><ele>635.0</ele><time>2026-04-08T12:41:17Z</time></trkpt><trkpt lat="45.64874632223919" lon="11.352797354123995"><ele>635.0</ele><time>2026-04-08T12:41:18Z</time></trkpt><trkpt lat="45.64878766788115" lon="11.352685388409466"><ele>635.0</ele><time>2026-04-08T12:41:19Z</time></trkpt><trkpt lat="45.64882726702142" lon="11.352598953537203"><ele>635.8333333333333</ele><time>2026-04-08T12:41:20Z</time></trkpt><trkpt lat="45.64886827633162" lon="11.352520546912862"><ele>636.6666666666666</ele><time>2026-04-08T12:41:21Z</time></trkpt><trkpt lat="45.64891642299004" lon="11.352443297555231"><ele>637.5</ele><time>2026-04-08T12:41:22Z</time></trkpt><trkpt lat="45.64896506047676" lon="11.352382690510465"><ele>638.3333333333334</ele><time>2026-04-08T12:41:23Z</time></trkpt><trkpt lat="45.64902085289587" lon="11.352307221525372"><ele>639.1666666666667</ele><time>2026-04-08T12:41:24Z</time></trkpt><trkpt lat="45.64908055967382" lon="11.352231716540564"><ele>640.0</ele><time>2026-04-08T12:41:25Z</time></trkpt><trkpt lat="45.649152953336454" lon="11.352083567767108"><ele>640.0</ele><time>2026-04-08T12:41:27Z</time></trkpt><trkpt lat="45.64919884861192" lon="11.351985851801835"><ele>640.0</ele><time>2026-04-08T12:41:29Z</time></trkpt><trkpt lat="45.64926840538009" lon="11.351822762105083"><ele>640.0</ele><time>2026-04-08T12:41:31Z</time></trkpt><trkpt lat="45.64931412984244" lon="11.35169311428592"><ele>640.0</ele><time>2026-04-08T12:41:33Z</time></trkpt><trkpt lat="45.649404670163655" lon="11.351570702812912"><ele>640.0</ele><time>2026-04-08T12:41:35Z</time></trkpt><trkpt lat="45.64946006624091" lon="11.351440018458934"><ele>638.8</ele><time>2026-04-08T12:41:37Z</time></trkpt><trkpt lat="45.64951202032796" lon="11.351319077571407"><ele>637.6</ele><time>2026-04-08T12:41:39Z</time></trkpt><trkpt lat="45.6495289324834" lon="11.351194840897747"><ele>636.4</ele><time>2026-04-08T12:41:41Z</time></trkpt><trkpt lat="45.6495915745976" lon="11.351078945222785"><ele>635.2</ele><time>2026-04-08T12:41:43Z</time></trkpt><trkpt lat="45.649649624666594" lon="11.351020327978405"><ele>634.0</ele><time>2026-04-08T12:41:44Z</time></trkpt><trkpt lat="45.64973082012761" lon="11.350914957694203"><ele>634.0</ele><time>2026-04-08T12:41:46Z</time></trkpt><trkpt lat="45.64977693651604" lon="11.350842996748225"><ele>634.0</ele><time>2026-04-08T12:41:47Z</time></trkpt><trkpt lat="45.6498275007184" lon="11.350778519375972"><ele>634.0</ele><time>2026-04-08T12:41:48Z</time></trkpt><trkpt lat="45.64992625732323" lon="11.350686786779034"><ele>634.0</ele><time>2026-04-08T12:41:50Z</time></trkpt><trkpt lat="45.649999883305306" lon="11.350563859597532"><ele>634.0</ele><time>2026-04-08T12:41:52Z</time></trkpt><trkpt lat="45.65004761119178" lon="11.350470790708409"><ele>634.0</ele><time>2026-04-08T12:41:54Z</time></trkpt><trkpt lat="45.650075741731946" lon="11.35035814591049"><ele>637.2</ele><time>2026-04-08T12:41:56Z</time></trkpt><trkpt lat="45.6501007688843" lon="11.350207002910205"><ele>640.4</ele><time>2026-04-08T12:41:58Z</time></trkpt><trkpt lat="45.65011186109555" lon="11.350051229735614"><ele>643.6</ele><time>2026-04-08T12:42:00Z</time></trkpt><trkpt lat="45.6501115620871" lon="11.349889019927161"><ele>646.8</ele><time>2026-04-08T12:42:02Z</time></trkpt><trkpt lat="45.65009316468873" lon="11.349799902064841"><ele>650.0</ele><time>2026-04-08T12:42:04Z</time></trkpt><trkpt lat="45.65006093632108" lon="11.349718466488085"><ele>650.6</ele><time>2026-04-08T12:42:08Z</time></trkpt><trkpt lat="45.65001559467433" lon="11.349602801686185"><ele>651.2</ele><time>2026-04-08T12:43:29Z</time></trkpt><trkpt lat="45.649994855404294" lon="11.349462796387972"><ele>651.8</ele><time>2026-04-08T12:43:31Z</time></trkpt><trkpt lat="45.64999397482424" lon="11.3493536455891"><ele>652.4</ele><time>2026-04-08T12:43:33Z</time></trkpt><trkpt lat="45.64998484104263" lon="11.349209225411935"><ele>653.0</ele><time>2026-04-08T12:43:35Z</time></trkpt><trkpt lat="45.64997037401684" lon="11.349092579991503"><ele>653.0</ele><time>2026-04-08T12:43:37Z</time></trkpt><trkpt lat="45.64997838613996" lon="11.348967207791285"><ele>653.0</ele><time>2026-04-08T12:43:39Z</time></trkpt><trkpt lat="45.649998942195076" lon="11.34885256683948"><ele>653.0</ele><time>2026-04-08T12:43:41Z</time></trkpt><trkpt lat="45.650016788162574" lon="11.348729856087807"><ele>653.0</ele><time>2026-04-08T12:43:44Z</time></trkpt><trkpt lat="45.65005671552042" lon="11.34861126522756"><ele>653.0</ele><time>2026-04-08T12:43:46Z</time></trkpt><trkpt lat="45.65009104060893" lon="11.348489442529768"><ele>653.0</ele><time>2026-04-08T12:43:48Z</time></trkpt><trkpt lat="45.65013482449169" lon="11.348353510739171"><ele>653.2</ele><time>2026-04-08T12:43:51Z</time></trkpt><trkpt lat="45.65016515291018" lon="11.348270964339966"><ele>653.4</ele><time>2026-04-08T12:43:52Z</time></trkpt><trkpt lat="45.650230819197766" lon="11.34817054452499"><ele>653.6</ele><time>2026-04-08T12:43:54Z</time></trkpt><trkpt lat="45.650319796257" lon="11.348077645358709"><ele>653.8000000000001</ele><time>2026-04-08T12:43:56Z</time></trkpt><trkpt lat="45.65042495501315" lon="11.348017596931196"><ele>654.0</ele><time>2026-04-08T12:43:58Z</time></trkpt><trkpt lat="45.65051285086134" lon="11.34793186155363"><ele>655.8333333333334</ele><time>2026-04-08T12:44:00Z</time></trkpt><trkpt lat="45.650574219102126" lon="11.347881796852008"><ele>657.6666666666666</ele><time>2026-04-08T12:44:01Z</time></trkpt><trkpt lat="45.65063639782628" lon="11.34781059946032"><ele>659.5</ele><time>2026-04-08T12:44:03Z</time></trkpt><trkpt lat="45.65065706088867" lon="11.347693412153383"><ele>661.3333333333333</ele><time>2026-04-08T12:44:05Z</time></trkpt><trkpt lat="45.650694275698434" lon="11.347540099325892"><ele>663.1666666666666</ele><time>2026-04-08T12:44:07Z</time></trkpt><trkpt lat="45.650649610704164" lon="11.347449242559696"><ele>665.0</ele><time>2026-04-08T12:44:09Z</time></trkpt><trkpt lat="45.650585829270035" lon="11.347382015358786"><ele>665.0</ele><time>2026-04-08T12:44:11Z</time></trkpt><trkpt lat="45.650541094073" lon="11.347304207921761"><ele>665.0</ele><time>2026-04-08T12:44:12Z</time></trkpt><trkpt lat="45.65049976339107" lon="11.347162537367575"><ele>665.0</ele><time>2026-04-08T12:44:14Z</time></trkpt><trkpt lat="45.65047008882886" lon="11.347071115262182"><ele>665.0</ele><time>2026-04-08T12:44:15Z</time></trkpt><trkpt lat="45.65044864323815" lon="11.346913842645641"><ele>665.0</ele><time>2026-04-08T12:44:17Z</time></trkpt><trkpt lat="45.6504064625061" lon="11.346706815486868"><ele>665.5</ele><time>2026-04-08T12:44:19Z</time></trkpt><trkpt lat="45.65034979370775" lon="11.346563072240766"><ele>666.0</ele><time>2026-04-08T12:44:21Z</time></trkpt><trkpt lat="45.650295135639865" lon="11.346512546294228"><ele>666.5</ele><time>2026-04-08T12:44:22Z</time></trkpt><trkpt lat="45.65022913836115" lon="11.346451777319102"><ele>667.0</ele><time>2026-04-08T12:44:23Z</time></trkpt><trkpt lat="45.65016656686251" lon="11.346408393347907"><ele>667.5</ele><time>2026-04-08T12:44:24Z</time></trkpt><trkpt lat="45.65008647680906" lon="11.346368627465603"><ele>668.0</ele><time>2026-04-08T12:44:25Z</time></trkpt><trkpt lat="45.64996660026301" lon="11.346325663118353"><ele>670.2</ele><time>2026-04-08T12:44:27Z</time></trkpt><trkpt lat="45.64990298333013" lon="11.346280599016234"><ele>672.4</ele><time>2026-04-08T12:44:28Z</time></trkpt><trkpt lat="45.64982083082178" lon="11.346243440788204"><ele>674.6</ele><time>2026-04-08T12:44:29Z</time></trkpt><trkpt lat="45.649713214972344" lon="11.346146439019881"><ele>676.8000000000001</ele><time>2026-04-08T12:44:31Z</time></trkpt><trkpt lat="45.64958309044364" lon="11.346077106059644"><ele>679.0</ele><time>2026-04-08T12:44:33Z</time></trkpt><trkpt lat="45.64951660094251" lon="11.346040046555913"><ele>678.4000000000001</ele><time>2026-04-08T12:44:34Z</time></trkpt><trkpt lat="45.64939868448254" lon="11.34594879339829"><ele>677.8</ele><time>2026-04-08T12:44:36Z</time></trkpt><trkpt lat="45.64929382169427" lon="11.345879971566204"><ele>677.2</ele><time>2026-04-08T12:44:38Z</time></trkpt><trkpt lat="45.64922056322186" lon="11.345861856592046"><ele>676.5999999999999</ele><time>2026-04-08T12:44:39Z</time></trkpt><trkpt lat="45.649128969159584" lon="11.345828479539426"><ele>676.0</ele><time>2026-04-08T12:44:40Z</time></trkpt><trkpt lat="45.649051077680866" lon="11.345791113650774"><ele>676.0</ele><time>2026-04-08T12:44:41Z</time></trkpt><trkpt lat="45.64900541706434" lon="11.34571356125003"><ele>676.0</ele><time>2026-04-08T12:44:42Z</time></trkpt><trkpt lat="45.648933701686296" lon="11.345727416179102"><ele>676.0</ele><time>2026-04-08T12:44:43Z</time></trkpt><trkpt lat="45.648843175266194" lon="11.34567167023177"><ele>676.0</ele><time>2026-04-08T12:44:45Z</time></trkpt><trkpt lat="45.64873736187733" lon="11.345631842269755"><ele>676.0</ele><time>2026-04-08T12:44:47Z</time></trkpt><trkpt lat="45.648686121605266" lon="11.345536182770326"><ele>676.0</ele><time>2026-04-08T12:44:49Z</time></trkpt><trkpt lat="45.64863141649089" lon="11.345397006176848"><ele>675.3333333333334</ele><time>2026-04-08T12:44:51Z</time></trkpt><trkpt lat="45.64859057178334" lon="11.345316118496594"><ele>674.6666666666667</ele><time>2026-04-08T12:44:52Z</time></trkpt><trkpt lat="45.64852961887794" lon="11.345232412713113"><ele>674.0</ele><time>2026-04-08T12:44:54Z</time></trkpt><trkpt lat="45.64847122810073" lon="11.345185867132093"><ele>673.3333333333334</ele><time>2026-04-08T12:44:55Z</time></trkpt><trkpt lat="45.64840710540119" lon="11.345235001664864"><ele>672.6666666666666</ele><time>2026-04-08T12:44:56Z</time></trkpt><trkpt lat="45.648309412895834" lon="11.345296219089297"><ele>672.0</ele><time>2026-04-08T12:44:58Z</time></trkpt><trkpt lat="45.648234916950116" lon="11.345330782252335"><ele>672.0</ele><time>2026-04-08T12:44:59Z</time></trkpt><trkpt lat="45.64812282694072" lon="11.345358793384278"><ele>672.0</ele><time>2026-04-08T12:45:01Z</time></trkpt><trkpt lat="45.648033869909504" lon="11.345282076187267"><ele>672.0</ele><time>2026-04-08T12:45:04Z</time></trkpt><trkpt lat="45.64790638013117" lon="11.345232683464909"><ele>672.0</ele><time>2026-04-08T12:45:06Z</time></trkpt><trkpt lat="45.647808112720114" lon="11.345178167013643"><ele>672.0</ele><time>2026-04-08T12:45:07Z</time></trkpt><trkpt lat="45.647739547438334" lon="11.345140128578986"><ele>672.0</ele><time>2026-04-08T12:45:08Z</time></trkpt><trkpt lat="45.6477978880981" lon="11.345055058846402"><ele>672.0</ele><time>2026-04-08T12:45:11Z</time></trkpt><trkpt lat="45.64782008169004" lon="11.3449534084421"><ele>672.0</ele><time>2026-04-08T12:45:12Z</time></trkpt><trkpt lat="45.64784118171844" lon="11.344858461524165"><ele>672.0</ele><time>2026-04-08T12:45:13Z</time></trkpt><trkpt lat="45.647867821165754" lon="11.344739311797936"><ele>672.0</ele><time>2026-04-08T12:45:14Z</time></trkpt><trkpt lat="45.647891702754485" lon="11.344623667902678"><ele>673.8</ele><time>2026-04-08T12:45:15Z</time></trkpt><trkpt lat="45.64791777391961" lon="11.344497421645643"><ele>675.6</ele><time>2026-04-08T12:45:16Z</time></trkpt><trkpt lat="45.64794258723691" lon="11.344377949000727"><ele>677.4</ele><time>2026-04-08T12:45:17Z</time></trkpt><trkpt lat="45.64796626124691" lon="11.344264197874287"><ele>679.1999999999999</ele><time>2026-04-08T12:45:18Z</time></trkpt><trkpt lat="45.648023002122535" lon="11.344103783324758"><ele>681.0</ele><time>2026-04-08T12:45:20Z</time></trkpt><trkpt lat="45.64803788620848" lon="11.344002998724068"><ele>681.0</ele><time>2026-04-08T12:45:21Z</time></trkpt><trkpt lat="45.64806632764554" lon="11.343913794825855"><ele>681.0</ele><time>2026-04-08T12:45:22Z</time></trkpt><trkpt lat="45.64806029218422" lon="11.34377720836673"><ele>681.0</ele><time>2026-04-08T12:45:23Z</time></trkpt><trkpt lat="45.64808983598297" lon="11.34365983326691"><ele>681.0</ele><time>2026-04-08T12:45:24Z</time></trkpt><trkpt lat="45.64808798368469" lon="11.34354862139678"><ele>681.0</ele><time>2026-04-08T12:45:25Z</time></trkpt><trkpt lat="45.6481183180636" lon="11.34346681096408"><ele>681.0</ele><time>2026-04-08T12:45:26Z</time></trkpt><trkpt lat="45.64814426552685" lon="11.343352194557083"><ele>681.0</ele><time>2026-04-08T12:45:27Z</time></trkpt><trkpt lat="45.648150159054545" lon="11.343218797552469"><ele>681.0</ele><time>2026-04-08T12:45:28Z</time></trkpt><trkpt lat="45.64814082352486" lon="11.343099787214559"><ele>681.0</ele><time>2026-04-08T12:45:29Z</time></trkpt><trkpt lat="45.64810812356953" lon="11.343003596631332"><ele>681.0</ele><time>2026-04-08T12:45:30Z</time></trkpt><trkpt lat="45.64806581279712" lon="11.342885252965955"><ele>681.0</ele><time>2026-04-08T12:45:31Z</time></trkpt><trkpt lat="45.64801888125405" lon="11.342762576436302"><ele>681.0</ele><time>2026-04-08T12:45:32Z</time></trkpt><trkpt lat="45.647972206749465" lon="11.342634505682826"><ele>680.1666666666666</ele><time>2026-04-08T12:45:33Z</time></trkpt><trkpt lat="45.647916024193975" lon="11.342523038824819"><ele>679.3333333333334</ele><time>2026-04-08T12:45:34Z</time></trkpt><trkpt lat="45.64786328083673" lon="11.342455366601559"><ele>678.5</ele><time>2026-04-08T12:45:35Z</time></trkpt><trkpt lat="45.64778816904294" lon="11.342439776971132"><ele>677.6666666666667</ele><time>2026-04-08T12:45:36Z</time></trkpt><trkpt lat="45.647686103366" lon="11.342444288732347"><ele>676.8333333333334</ele><time>2026-04-08T12:45:37Z</time></trkpt><trkpt lat="45.64760546968405" lon="11.34244626060223"><ele>676.0</ele><time>2026-04-08T12:45:38Z</time></trkpt><trkpt lat="45.64752654613846" lon="11.342411764025034"><ele>676.0</ele><time>2026-04-08T12:45:39Z</time></trkpt><trkpt lat="45.64745746115209" lon="11.342392866367055"><ele>676.0</ele><time>2026-04-08T12:45:40Z</time></trkpt><trkpt lat="45.6473768689998" lon="11.342259557627214"><ele>676.0</ele><time>2026-04-08T12:45:42Z</time></trkpt><trkpt lat="45.6473896448823" lon="11.342108703813656"><ele>676.0</ele><time>2026-04-08T12:45:44Z</time></trkpt><trkpt lat="45.647417478575385" lon="11.341940017725998"><ele>676.0</ele><time>2026-04-08T12:45:46Z</time></trkpt><trkpt lat="45.64745189654928" lon="11.341851554336339"><ele>675.0</ele><time>2026-04-08T12:45:47Z</time></trkpt><trkpt lat="45.64748427265193" lon="11.341760723840114"><ele>674.0</ele><time>2026-04-08T12:45:48Z</time></trkpt><trkpt lat="45.64752248201211" lon="11.341647271890348"><ele>673.0</ele><time>2026-04-08T12:45:49Z</time></trkpt><trkpt lat="45.64758771996973" lon="11.341543409008349"><ele>672.0</ele><time>2026-04-08T12:45:50Z</time></trkpt><trkpt lat="45.64765752380569" lon="11.341495173792428"><ele>671.0</ele><time>2026-04-08T12:45:51Z</time></trkpt><trkpt lat="45.647709133889244" lon="11.34142561775775"><ele>670.0</ele><time>2026-04-08T12:45:52Z</time></trkpt><trkpt lat="45.64777490184919" lon="11.34138943685011"><ele>668.5</ele><time>2026-04-08T12:45:53Z</time></trkpt><trkpt lat="45.647854990191504" lon="11.341334698263639"><ele>667.0</ele><time>2026-04-08T12:45:54Z</time></trkpt><trkpt lat="45.64793489551132" lon="11.341286896024295"><ele>665.5</ele><time>2026-04-08T12:45:55Z</time></trkpt><trkpt lat="45.64801698651937" lon="11.341217939966272"><ele>664.0</ele><time>2026-04-08T12:45:56Z</time></trkpt><trkpt lat="45.648080124213514" lon="11.341211024549555"><ele>662.5</ele><time>2026-04-08T12:45:57Z</time></trkpt><trkpt lat="45.64816445023897" lon="11.341175330110143"><ele>661.0</ele><time>2026-04-08T12:45:58Z</time></trkpt><trkpt lat="45.648241421263144" lon="11.34114878698767"><ele>661.0</ele><time>2026-04-08T12:45:59Z</time></trkpt><trkpt lat="45.6483422878883" lon="11.341118585980952"><ele>661.0</ele><time>2026-04-08T12:46:00Z</time></trkpt><trkpt lat="45.64845178388373" lon="11.341101813578877"><ele>661.0</ele><time>2026-04-08T12:46:01Z</time></trkpt><trkpt lat="45.64854854958146" lon="11.341088375385352"><ele>661.0</ele><time>2026-04-08T12:46:02Z</time></trkpt><trkpt lat="45.64863527800053" lon="11.341076007866532"><ele>661.0</ele><time>2026-04-08T12:46:03Z</time></trkpt><trkpt lat="45.648698955053874" lon="11.34110206297703"><ele>659.1999999999999</ele><time>2026-04-08T12:46:04Z</time></trkpt><trkpt lat="45.64878889951861" lon="11.34110772071406"><ele>657.4</ele><time>2026-04-08T12:46:05Z</time></trkpt><trkpt lat="45.648861506943334" lon="11.341122350316464"><ele>655.6</ele><time>2026-04-08T12:46:06Z</time></trkpt><trkpt lat="45.64896164922468" lon="11.341132169401915"><ele>653.8</ele><time>2026-04-08T12:46:07Z</time></trkpt><trkpt lat="45.64906289196712" lon="11.341191901373383"><ele>652.0</ele><time>2026-04-08T12:46:08Z</time></trkpt><trkpt lat="45.649162386622336" lon="11.34124305745237"><ele>652.0</ele><time>2026-04-08T12:46:09Z</time></trkpt><trkpt lat="45.64924942306889" lon="11.34128726553268"><ele>652.0</ele><time>2026-04-08T12:46:10Z</time></trkpt><trkpt lat="45.64933999353948" lon="11.341314121285633"><ele>652.0</ele><time>2026-04-08T12:46:11Z</time></trkpt><trkpt lat="45.649429084799614" lon="11.341383102616309"><ele>652.0</ele><time>2026-04-08T12:46:12Z</time></trkpt><trkpt lat="45.64950770542391" lon="11.341439656498117"><ele>652.0</ele><time>2026-04-08T12:46:13Z</time></trkpt><trkpt lat="45.649602569038606" lon="11.34147202044553"><ele>653.6666666666667</ele><time>2026-04-08T12:46:14Z</time></trkpt><trkpt lat="45.64968510019836" lon="11.341487773948542"><ele>655.3333333333334</ele><time>2026-04-08T12:46:15Z</time></trkpt><trkpt lat="45.64976243169649" lon="11.341491680667882"><ele>657.0</ele><time>2026-04-08T12:46:16Z</time></trkpt><trkpt lat="45.64985229042473" lon="11.341475288799007"><ele>658.6666666666666</ele><time>2026-04-08T12:46:17Z</time></trkpt><trkpt lat="45.649932885867166" lon="11.341459860549717"><ele>660.3333333333333</ele><time>2026-04-08T12:46:18Z</time></trkpt><trkpt lat="45.65001496225239" lon="11.341436056355537"><ele>662.0</ele><time>2026-04-08T12:46:19Z</time></trkpt><trkpt lat="45.65011732345082" lon="11.341480158549173"><ele>662.0</ele><time>2026-04-08T12:46:21Z</time></trkpt><trkpt lat="45.65021585036642" lon="11.34159857321025"><ele>662.0</ele><time>2026-04-08T12:46:23Z</time></trkpt><trkpt lat="45.650288082210565" lon="11.341646439475978"><ele>662.0</ele><time>2026-04-08T12:46:24Z</time></trkpt><trkpt lat="45.65034993934048" lon="11.341669428765368"><ele>662.0</ele><time>2026-04-08T12:46:25Z</time></trkpt><trkpt lat="45.65041437591973" lon="11.34170006036868"><ele>662.0</ele><time>2026-04-08T12:46:26Z</time></trkpt><trkpt lat="45.650505326721834" lon="11.341673239977336"><ele>662.0</ele><time>2026-04-08T12:46:27Z</time></trkpt><trkpt lat="45.65057001528396" lon="11.341600843492538"><ele>659.8</ele><time>2026-04-08T12:46:28Z</time></trkpt><trkpt lat="45.65068218162627" lon="11.341593452398712"><ele>657.6</ele><time>2026-04-08T12:46:30Z</time></trkpt><trkpt lat="45.650794647312075" lon="11.34162832490633"><ele>655.4</ele><time>2026-04-08T12:46:32Z</time></trkpt><trkpt lat="45.65087487161477" lon="11.341673586442802"><ele>653.1999999999999</ele><time>2026-04-08T12:46:33Z</time></trkpt><trkpt lat="45.65094886499528" lon="11.341724133660318"><ele>651.0</ele><time>2026-04-08T12:46:34Z</time></trkpt><trkpt lat="45.651023821144705" lon="11.341766165206865"><ele>651.0</ele><time>2026-04-08T12:46:35Z</time></trkpt><trkpt lat="45.65111072561246" lon="11.341784717887888"><ele>651.0</ele><time>2026-04-08T12:46:36Z</time></trkpt><trkpt lat="45.65119939667682" lon="11.341782529742837"><ele>651.0</ele><time>2026-04-08T12:46:37Z</time></trkpt><trkpt lat="45.65129913662546" lon="11.341775639674816"><ele>651.0</ele><time>2026-04-08T12:46:38Z</time></trkpt><trkpt lat="45.651382133291484" lon="11.341776638383584"><ele>651.0</ele><time>2026-04-08T12:46:39Z</time></trkpt><trkpt lat="45.651461173234416" lon="11.341788626592038"><ele>651.0</ele><time>2026-04-08T12:46:40Z</time></trkpt><trkpt lat="45.65154264605448" lon="11.341809876647694"><ele>649.5</ele><time>2026-04-08T12:46:41Z</time></trkpt><trkpt lat="45.651626439756896" lon="11.341836096755811"><ele>648.0</ele><time>2026-04-08T12:46:42Z</time></trkpt><trkpt lat="45.65169421772797" lon="11.341862683253327"><ele>646.5</ele><time>2026-04-08T12:46:43Z</time></trkpt><trkpt lat="45.651758743633714" lon="11.34190544665594"><ele>645.0</ele><time>2026-04-08T12:46:44Z</time></trkpt><trkpt lat="45.65181310979984" lon="11.341959834436173"><ele>643.5</ele><time>2026-04-08T12:46:45Z</time></trkpt><trkpt lat="45.6518963556545" lon="11.34208272233102"><ele>642.0</ele><time>2026-04-08T12:46:47Z</time></trkpt><trkpt lat="45.651935972860514" lon="11.342238594303277"><ele>636.4</ele><time>2026-04-08T12:46:49Z</time></trkpt><trkpt lat="45.65196496966142" lon="11.342343903977467"><ele>630.8000000000001</ele><time>2026-04-08T12:46:50Z</time></trkpt><trkpt lat="45.6520143102536" lon="11.342443129976107"><ele>625.2</ele><time>2026-04-08T12:46:51Z</time></trkpt><trkpt lat="45.65206112244338" lon="11.342541579032803"><ele>619.6</ele><time>2026-04-08T12:46:52Z</time></trkpt><trkpt lat="45.65213763767181" lon="11.342636940211065"><ele>614.0</ele><time>2026-04-08T12:46:53Z</time></trkpt><trkpt lat="45.65223644111955" lon="11.34272402262257"><ele>614.0</ele><time>2026-04-08T12:46:54Z</time></trkpt><trkpt lat="45.65232527455349" lon="11.342791641714873"><ele>614.0</ele><time>2026-04-08T12:46:55Z</time></trkpt><trkpt lat="45.65240203197121" lon="11.342823167093044"><ele>614.0</ele><time>2026-04-08T12:46:56Z</time></trkpt><trkpt lat="45.65247983962701" lon="11.342885311846228"><ele>614.0</ele><time>2026-04-08T12:46:57Z</time></trkpt><trkpt lat="45.65255295950624" lon="11.342962063281872"><ele>614.0</ele><time>2026-04-08T12:46:58Z</time></trkpt><trkpt lat="45.65262151525895" lon="11.343035615293271"><ele>614.0</ele><time>2026-04-08T12:46:59Z</time></trkpt><trkpt lat="45.65271118474945" lon="11.343071863744"><ele>610.8</ele><time>2026-04-08T12:47:00Z</time></trkpt><trkpt lat="45.652810553515025" lon="11.343142599133557"><ele>607.5999999999999</ele><time>2026-04-08T12:47:01Z</time></trkpt><trkpt lat="45.65289328689304" lon="11.343215310506018"><ele>604.4</ele><time>2026-04-08T12:47:02Z</time></trkpt><trkpt lat="45.6529741927992" lon="11.34325581166268"><ele>601.1999999999999</ele><time>2026-04-08T12:47:03Z</time></trkpt><trkpt lat="45.65304899308537" lon="11.343382839777057"><ele>598.0</ele><time>2026-04-08T12:47:05Z</time></trkpt><trkpt lat="45.65312619804038" lon="11.343513001433683"><ele>598.0</ele><time>2026-04-08T12:47:07Z</time></trkpt><trkpt lat="45.65316021829277" lon="11.343592362879022"><ele>598.0</ele><time>2026-04-08T12:47:08Z</time></trkpt><trkpt lat="45.65318488884688" lon="11.34368953054495"><ele>598.0</ele><time>2026-04-08T12:47:09Z</time></trkpt><trkpt lat="45.65324475923688" lon="11.343764181446154"><ele>598.0</ele><time>2026-04-08T12:47:10Z</time></trkpt><trkpt lat="45.65329379106436" lon="11.343925045123548"><ele>598.0</ele><time>2026-04-08T12:47:12Z</time></trkpt><trkpt lat="45.65335028096487" lon="11.344065254877542"><ele>599.4</ele><time>2026-04-08T12:47:14Z</time></trkpt><trkpt lat="45.65340563950199" lon="11.344192596429176"><ele>600.8</ele><time>2026-04-08T12:47:16Z</time></trkpt><trkpt lat="45.653541223538916" lon="11.344197677377407"><ele>602.2</ele><time>2026-04-08T12:47:18Z</time></trkpt><trkpt lat="45.65362491268828" lon="11.34419283197525"><ele>603.6</ele><time>2026-04-08T12:47:19Z</time></trkpt><trkpt lat="45.653693256147875" lon="11.344223605158085"><ele>605.0</ele><time>2026-04-08T12:47:20Z</time></trkpt><trkpt lat="45.65377494071862" lon="11.344262967523543"><ele>602.5</ele><time>2026-04-08T12:47:21Z</time></trkpt><trkpt lat="45.65384282822198" lon="11.344299174083037"><ele>600.0</ele><time>2026-04-08T12:47:22Z</time></trkpt><trkpt lat="45.65391299708322" lon="11.344341369546077"><ele>597.5</ele><time>2026-04-08T12:47:23Z</time></trkpt><trkpt lat="45.65397805934078" lon="11.344381993825392"><ele>595.0</ele><time>2026-04-08T12:47:24Z</time></trkpt><trkpt lat="45.654103243055225" lon="11.344443560768909"><ele>592.5</ele><time>2026-04-08T12:47:26Z</time></trkpt><trkpt lat="45.65416625782945" lon="11.34448771809606"><ele>590.0</ele><time>2026-04-08T12:47:27Z</time></trkpt><trkpt lat="45.65422461634469" lon="11.344524624069859"><ele>590.0</ele><time>2026-04-08T12:47:28Z</time></trkpt><trkpt lat="45.6542798434307" lon="11.344576466955106"><ele>590.0</ele><time>2026-04-08T12:47:30Z</time></trkpt><trkpt lat="45.654349489783044" lon="11.344688833229116"><ele>590.0</ele><time>2026-04-08T12:47:34Z</time></trkpt><trkpt lat="45.65451122449753" lon="11.344335130799154"><ele>590.3333333333333</ele><time>2026-04-08T12:47:37Z</time></trkpt><trkpt lat="45.654582322015415" lon="11.34426036263448"><ele>590.6666666666666</ele><time>2026-04-08T12:47:38Z</time></trkpt><trkpt lat="45.65467142689536" lon="11.344232151178067"><ele>591.0</ele><time>2026-04-08T12:47:40Z</time></trkpt><trkpt lat="45.65475373055648" lon="11.344244606488806"><ele>591.3333333333334</ele><time>2026-04-08T12:47:42Z</time></trkpt><trkpt lat="45.65483870772245" lon="11.344221747470723"><ele>591.6666666666667</ele><time>2026-04-08T12:47:44Z</time></trkpt><trkpt lat="45.6549036618679" lon="11.344206893594341"><ele>592.0</ele><time>2026-04-08T12:47:46Z</time></trkpt><trkpt lat="45.65498707798018" lon="11.344172451776146"><ele>592.0</ele><time>2026-04-08T12:47:49Z</time></trkpt><trkpt lat="45.655051282502846" lon="11.34415230388822"><ele>592.0</ele><time>2026-04-08T12:47:51Z</time></trkpt><trkpt lat="45.65511041449736" lon="11.344103093756843"><ele>592.0</ele><time>2026-04-08T12:48:00Z</time></trkpt><trkpt lat="45.6551722711945" lon="11.344075276109558"><ele>592.0</ele><time>2026-04-08T12:48:06Z</time></trkpt><trkpt lat="45.65522609143896" lon="11.344013032195328"><ele>592.0</ele><time>2026-04-08T12:48:09Z</time></trkpt><trkpt lat="45.65529417775954" lon="11.343910480864347"><ele>592.0</ele><time>2026-04-08T12:48:12Z</time></trkpt><trkpt lat="45.655322211198495" lon="11.343825258564882"><ele>592.0</ele><time>2026-04-08T12:48:14Z</time></trkpt><trkpt lat="45.6553929612645" lon="11.34372151612668"><ele>592.8333333333334</ele><time>2026-04-08T12:48:21Z</time></trkpt><trkpt lat="45.65544428218475" lon="11.343601166635068"><ele>593.6666666666667</ele><time>2026-04-08T12:48:23Z</time></trkpt><trkpt lat="45.6554946876792" lon="11.343521772584712"><ele>594.5</ele><time>2026-04-08T12:48:27Z</time></trkpt><trkpt lat="45.65556060787414" lon="11.343407773941554"><ele>595.3333333333334</ele><time>2026-04-08T12:48:29Z</time></trkpt><trkpt lat="45.655617249261816" lon="11.343351098551496"><ele>596.1666666666666</ele><time>2026-04-08T12:48:31Z</time></trkpt><trkpt lat="45.65566935727607" lon="11.343238733206713"><ele>597.0</ele><time>2026-04-08T12:48:33Z</time></trkpt><trkpt lat="45.65571968976072" lon="11.343104764251354"><ele>600.0</ele><time>2026-04-08T12:48:36Z</time></trkpt><trkpt lat="45.65578589662992" lon="11.342958567015087"><ele>603.0</ele><time>2026-04-08T12:48:38Z</time></trkpt><trkpt lat="45.65583497236821" lon="11.34290164729061"><ele>606.0</ele><time>2026-04-08T12:48:40Z</time></trkpt><trkpt lat="45.65588020305615" lon="11.342802067061648"><ele>609.0</ele><time>2026-04-08T12:48:42Z</time></trkpt><trkpt lat="45.65593374077035" lon="11.342712659105691"><ele>612.0</ele><time>2026-04-08T12:48:43Z</time></trkpt><trkpt lat="45.656006831854" lon="11.342597482193371"><ele>612.0</ele><time>2026-04-08T12:48:45Z</time></trkpt><trkpt lat="45.656063615096485" lon="11.342494705982585"><ele>612.0</ele><time>2026-04-08T12:48:47Z</time></trkpt><trkpt lat="45.656108101193226" lon="11.342408989295915"><ele>612.0</ele><time>2026-04-08T12:48:49Z</time></trkpt><trkpt lat="45.65612822228907" lon="11.3423011311846"><ele>612.0</ele><time>2026-04-08T12:48:51Z</time></trkpt><trkpt lat="45.656158920199665" lon="11.34213408805862"><ele>612.0</ele><time>2026-04-08T12:48:53Z</time></trkpt><trkpt lat="45.656192687919436" lon="11.342046192499065"><ele>612.0</ele><time>2026-04-08T12:48:54Z</time></trkpt><trkpt lat="45.65623703591021" lon="11.341975989713724"><ele>609.6</ele><time>2026-04-08T12:48:55Z</time></trkpt><trkpt lat="45.656278653673915" lon="11.341823695577693"><ele>607.2</ele><time>2026-04-08T12:48:57Z</time></trkpt><trkpt lat="45.65630619275518" lon="11.341733552365637"><ele>604.8</ele><time>2026-04-08T12:48:58Z</time></trkpt><trkpt lat="45.65633349205447" lon="11.34160103829362"><ele>602.4</ele><time>2026-04-08T12:48:59Z</time></trkpt><trkpt lat="45.65640116563672" lon="11.341463740722684"><ele>600.0</ele><time>2026-04-08T12:49:01Z</time></trkpt><trkpt lat="45.65644345531037" lon="11.34136518045133"><ele>600.0</ele><time>2026-04-08T12:49:02Z</time></trkpt><trkpt lat="45.65649105496683" lon="11.341285481442084"><ele>600.0</ele><time>2026-04-08T12:49:03Z</time></trkpt><trkpt lat="45.656559853857296" lon="11.34121695711601"><ele>600.0</ele><time>2026-04-08T12:49:06Z</time></trkpt><trkpt lat="45.65664543869409" lon="11.34121963658127"><ele>600.0</ele><time>2026-04-08T12:49:08Z</time></trkpt><trkpt lat="45.65674462861895" lon="11.341269769286066"><ele>600.0</ele><time>2026-04-08T12:49:10Z</time></trkpt><trkpt lat="45.65683142021659" lon="11.341226369563637"><ele>600.0</ele><time>2026-04-08T12:49:12Z</time></trkpt><trkpt lat="45.65693039917011" lon="11.341103280524964"><ele>596.8</ele><time>2026-04-08T12:49:14Z</time></trkpt><trkpt lat="45.65702685151292" lon="11.340998889754017"><ele>593.6</ele><time>2026-04-08T12:49:16Z</time></trkpt><trkpt lat="45.65707792068388" lon="11.340928883152495"><ele>590.4</ele><time>2026-04-08T12:49:17Z</time></trkpt><trkpt lat="45.65715637800453" lon="11.340863010886732"><ele>587.2</ele><time>2026-04-08T12:49:18Z</time></trkpt><trkpt lat="45.65724768856486" lon="11.340803395667688"><ele>584.0</ele><time>2026-04-08T12:49:19Z</time></trkpt><trkpt lat="45.65733188534441" lon="11.340713743410706"><ele>584.0</ele><time>2026-04-08T12:49:21Z</time></trkpt><trkpt lat="45.65737979163471" lon="11.34065510966735"><ele>584.0</ele><time>2026-04-08T12:49:22Z</time></trkpt><trkpt lat="45.657435274883206" lon="11.340607689914803"><ele>584.0</ele><time>2026-04-08T12:49:23Z</time></trkpt><trkpt lat="45.65749026891806" lon="11.3405538307535"><ele>584.0</ele><time>2026-04-08T12:49:24Z</time></trkpt><trkpt lat="45.65756279284115" lon="11.34051795805263"><ele>584.0</ele><time>2026-04-08T12:49:25Z</time></trkpt><trkpt lat="45.65763161293556" lon="11.340484949194284"><ele>584.0</ele><time>2026-04-08T12:49:26Z</time></trkpt><trkpt lat="45.65773654632544" lon="11.340521985673577"><ele>586.0</ele><time>2026-04-08T12:49:28Z</time></trkpt><trkpt lat="45.65783710360331" lon="11.340536992134325"><ele>588.0</ele><time>2026-04-08T12:49:30Z</time></trkpt><trkpt lat="45.65795254723061" lon="11.340511354889587"><ele>590.0</ele><time>2026-04-08T12:49:32Z</time></trkpt><trkpt lat="45.658066239053326" lon="11.340387911853238"><ele>592.0</ele><time>2026-04-08T12:49:34Z</time></trkpt><trkpt lat="45.65817269071593" lon="11.340334375270187"><ele>592.0</ele><time>2026-04-08T12:49:36Z</time></trkpt><trkpt lat="45.65826742551162" lon="11.3403087566553"><ele>592.0</ele><time>2026-04-08T12:49:38Z</time></trkpt><trkpt lat="45.658337894100384" lon="11.340232282253583"><ele>592.0</ele><time>2026-04-08T12:49:40Z</time></trkpt><trkpt lat="45.658339735389525" lon="11.34006252010754"><ele>592.0</ele><time>2026-04-08T12:49:42Z</time></trkpt><trkpt lat="45.65834078110025" lon="11.339957917021732"><ele>592.0</ele><time>2026-04-08T12:49:43Z</time></trkpt><trkpt lat="45.65836098088497" lon="11.33984798443417"><ele>592.4</ele><time>2026-04-08T12:49:44Z</time></trkpt><trkpt lat="45.65842038326318" lon="11.339703457281379"><ele>592.8000000000001</ele><time>2026-04-08T12:49:46Z</time></trkpt><trkpt lat="45.65847787095266" lon="11.339602417896078"><ele>593.2</ele><time>2026-04-08T12:49:48Z</time></trkpt><trkpt lat="45.65857477659693" lon="11.339569107349464"><ele>593.6</ele><time>2026-04-08T12:49:50Z</time></trkpt><trkpt lat="45.658645762642" lon="11.339552120517387"><ele>594.0</ele><time>2026-04-08T12:49:51Z</time></trkpt><trkpt lat="45.65872985982737" lon="11.33955167779622"><ele>594.0</ele><time>2026-04-08T12:49:52Z</time></trkpt><trkpt lat="45.6588179474191" lon="11.339557836137127"><ele>594.0</ele><time>2026-04-08T12:49:53Z</time></trkpt><trkpt lat="45.65891132226504" lon="11.339585823855945"><ele>594.0</ele><time>2026-04-08T12:49:54Z</time></trkpt><trkpt lat="45.658984441681525" lon="11.339608121725881"><ele>594.0</ele><time>2026-04-08T12:49:55Z</time></trkpt><trkpt lat="45.65904772115162" lon="11.339616532937734"><ele>594.0</ele><time>2026-04-08T12:49:56Z</time></trkpt><trkpt lat="45.6591125783062" lon="11.3396091064398"><ele>594.0</ele><time>2026-04-08T12:49:57Z</time></trkpt><trkpt lat="45.65918668488031" lon="11.339521098103903"><ele>594.0</ele><time>2026-04-08T12:49:59Z</time></trkpt><trkpt lat="45.65928843754353" lon="11.339495771683492"><ele>594.0</ele><time>2026-04-08T12:50:00Z</time></trkpt><trkpt lat="45.65936157928209" lon="11.339498828105922"><ele>594.0</ele><time>2026-04-08T12:50:01Z</time></trkpt><trkpt lat="45.659437696776095" lon="11.339503790328893"><ele>594.0</ele><time>2026-04-08T12:50:02Z</time></trkpt><trkpt lat="45.659532743849255" lon="11.33950024459303"><ele>594.0</ele><time>2026-04-08T12:50:03Z</time></trkpt><trkpt lat="45.659620481875585" lon="11.33949346433397"><ele>594.0</ele><time>2026-04-08T12:50:04Z</time></trkpt><trkpt lat="45.65968340819961" lon="11.33948132574236"><ele>593.0</ele><time>2026-04-08T12:50:05Z</time></trkpt><trkpt lat="45.65978893285136" lon="11.33948099931401"><ele>592.0</ele><time>2026-04-08T12:50:07Z</time></trkpt><trkpt lat="45.65987998912115" lon="11.339568732299236"><ele>591.0</ele><time>2026-04-08T12:50:09Z</time></trkpt><trkpt lat="45.65993704081688" lon="11.339655601269659"><ele>590.0</ele><time>2026-04-08T12:50:10Z</time></trkpt><trkpt lat="45.6600100123522" lon="11.339721814624571"><ele>589.0</ele><time>2026-04-08T12:50:11Z</time></trkpt><trkpt lat="45.66007519592554" lon="11.339741765144236"><ele>587.0</ele><time>2026-04-08T12:50:12Z</time></trkpt><trkpt lat="45.660144313317154" lon="11.339751607213039"><ele>585.0</ele><time>2026-04-08T12:50:13Z</time></trkpt><trkpt lat="45.660190670588314" lon="11.33981737478345"><ele>583.0</ele><time>2026-04-08T12:50:14Z</time></trkpt><trkpt lat="45.660288774466004" lon="11.33987427176038"><ele>581.0</ele><time>2026-04-08T12:50:16Z</time></trkpt><trkpt lat="45.660406401642625" lon="11.339777873003584"><ele>579.0</ele><time>2026-04-08T12:50:17Z</time></trkpt><trkpt lat="45.6604682418" lon="11.33975684239352"><ele>577.0</ele><time>2026-04-08T12:50:18Z</time></trkpt><trkpt lat="45.660532324562" lon="11.339735048955614"><ele>578.1666666666667</ele><time>2026-04-08T12:50:19Z</time></trkpt><trkpt lat="45.66061188554413" lon="11.339708837068816"><ele>579.3333333333334</ele><time>2026-04-08T12:50:20Z</time></trkpt><trkpt lat="45.66070793125875" lon="11.339657423002162"><ele>580.5</ele><time>2026-04-08T12:50:21Z</time></trkpt><trkpt lat="45.66080162327438" lon="11.339651320059367"><ele>581.6666666666666</ele><time>2026-04-08T12:50:22Z</time></trkpt><trkpt lat="45.66086707881354" lon="11.339646375215146"><ele>582.8333333333333</ele><time>2026-04-08T12:50:23Z</time></trkpt><trkpt lat="45.66093332672509" lon="11.339692834331652"><ele>584.0</ele><time>2026-04-08T12:50:24Z</time></trkpt><trkpt lat="45.66099801543567" lon="11.339671930798358"><ele>584.5</ele><time>2026-04-08T12:50:25Z</time></trkpt><trkpt lat="45.66111640805356" lon="11.339715859609576"><ele>585.0</ele><time>2026-04-08T12:50:27Z</time></trkpt><trkpt lat="45.66117174080962" lon="11.339827315054485"><ele>585.5</ele><time>2026-04-08T12:50:29Z</time></trkpt><trkpt lat="45.66122664484932" lon="11.339897474429275"><ele>586.0</ele><time>2026-04-08T12:50:30Z</time></trkpt><trkpt lat="45.661284197241045" lon="11.339951775717784"><ele>586.5</ele><time>2026-04-08T12:50:31Z</time></trkpt><trkpt lat="45.6613637222459" lon="11.340002866262564"><ele>587.0</ele><time>2026-04-08T12:50:32Z</time></trkpt><trkpt lat="45.66143889865025" lon="11.340049811129875"><ele>587.0</ele><time>2026-04-08T12:50:33Z</time></trkpt><trkpt lat="45.661499224642974" lon="11.340082443881986"><ele>587.0</ele><time>2026-04-08T12:50:34Z</time></trkpt><trkpt lat="45.66156916220564" lon="11.340113026238875"><ele>587.0</ele><time>2026-04-08T12:50:37Z</time></trkpt><trkpt lat="45.66163466743944" lon="11.340136121199086"><ele>587.0</ele><time>2026-04-08T12:50:41Z</time></trkpt><trkpt lat="45.661708122404896" lon="11.340152237141664"><ele>587.0</ele><time>2026-04-08T12:50:42Z</time></trkpt><trkpt lat="45.66177859762717" lon="11.34019797594285"><ele>587.0</ele><time>2026-04-08T12:50:43Z</time></trkpt><trkpt lat="45.66173813391775" lon="11.34034810288947"><ele>583.0</ele><time>2026-04-08T12:50:44Z</time></trkpt><trkpt lat="45.661973580625094" lon="11.340255605455459"><ele>579.0</ele><time>2026-04-08T12:50:46Z</time></trkpt><trkpt lat="45.662073335623646" lon="11.340280653179567"><ele>575.0</ele><time>2026-04-08T12:50:48Z</time></trkpt><trkpt lat="45.66225370755003" lon="11.339940250356362"><ele>575.0</ele><time>2026-04-08T12:50:50Z</time></trkpt><trkpt lat="45.66231403246599" lon="11.339837762185208"><ele>575.0</ele><time>2026-04-08T12:50:51Z</time></trkpt><trkpt lat="45.662372833126305" lon="11.339769579491362"><ele>575.0</ele><time>2026-04-08T12:50:52Z</time></trkpt><trkpt lat="45.6624377026513" lon="11.339713823480176"><ele>575.0</ele><time>2026-04-08T12:50:53Z</time></trkpt><trkpt lat="45.66249769040101" lon="11.339663532601397"><ele>575.0</ele><time>2026-04-08T12:50:54Z</time></trkpt><trkpt lat="45.66256457726563" lon="11.339613592908028"><ele>575.0</ele><time>2026-04-08T12:50:55Z</time></trkpt><trkpt lat="45.66261536065586" lon="11.339549169642597"><ele>575.0</ele><time>2026-04-08T12:50:56Z</time></trkpt><trkpt lat="45.662671286627976" lon="11.339457826915002"><ele>575.0</ele><time>2026-04-08T12:50:57Z</time></trkpt><trkpt lat="45.662745515592036" lon="11.339384623107712"><ele>575.0</ele><time>2026-04-08T12:50:58Z</time></trkpt><trkpt lat="45.662800795533805" lon="11.339340616746806"><ele>575.0</ele><time>2026-04-08T12:50:59Z</time></trkpt><trkpt lat="45.662897394183794" lon="11.339258056636966"><ele>575.0</ele><time>2026-04-08T12:51:01Z</time></trkpt><trkpt lat="45.66296296469328" lon="11.339253311775803"><ele>575.0</ele><time>2026-04-08T12:51:02Z</time></trkpt><trkpt lat="45.66303093569525" lon="11.339261907393793"><ele>575.0</ele><time>2026-04-08T12:51:03Z</time></trkpt><trkpt lat="45.66308966221504" lon="11.339225505982702"><ele>575.0</ele><time>2026-04-08T12:51:05Z</time></trkpt><trkpt lat="45.66309184811545" lon="11.339079923513717"><ele>575.0</ele><time>2026-04-08T12:51:07Z</time></trkpt><trkpt lat="45.66308440366852" lon="11.338952974931717"><ele>575.0</ele><time>2026-04-08T12:51:08Z</time></trkpt><trkpt lat="45.66307186609288" lon="11.338840409149368"><ele>575.0</ele><time>2026-04-08T12:51:09Z</time></trkpt><trkpt lat="45.66304864698999" lon="11.338716030029275"><ele>575.0</ele><time>2026-04-08T12:51:10Z</time></trkpt><trkpt lat="45.66302497568798" lon="11.338588883737534"><ele>574.8</ele><time>2026-04-08T12:51:11Z</time></trkpt><trkpt lat="45.662995482497486" lon="11.338444772439114"><ele>574.6</ele><time>2026-04-08T12:51:12Z</time></trkpt><trkpt lat="45.662960801319045" lon="11.33832522559267"><ele>574.4</ele><time>2026-04-08T12:51:13Z</time></trkpt><trkpt lat="45.662923528934854" lon="11.338229738417299"><ele>574.2</ele><time>2026-04-08T12:51:14Z</time></trkpt><trkpt lat="45.66286417273444" lon="11.338059337269698"><ele>574.0</ele><time>2026-04-08T12:51:16Z</time></trkpt><trkpt lat="45.66282619071475" lon="11.337899358380207"><ele>574.5</ele><time>2026-04-08T12:51:18Z</time></trkpt><trkpt lat="45.66282711686436" lon="11.337715469029353"><ele>575.0</ele><time>2026-04-08T12:51:20Z</time></trkpt><trkpt lat="45.662835104952975" lon="11.337614000482448"><ele>575.5</ele><time>2026-04-08T12:51:21Z</time></trkpt><trkpt lat="45.66283591879282" lon="11.337497880696008"><ele>576.0</ele><time>2026-04-08T12:51:22Z</time></trkpt><trkpt lat="45.66284529556576" lon="11.337391646630472"><ele>576.5</ele><time>2026-04-08T12:51:23Z</time></trkpt><trkpt lat="45.66285459075021" lon="11.337296957197719"><ele>577.0</ele><time>2026-04-08T12:51:24Z</time></trkpt><trkpt lat="45.66289971441246" lon="11.337201212633454"><ele>578.8333333333334</ele><time>2026-04-08T12:51:26Z</time></trkpt><trkpt lat="45.66293002398732" lon="11.337122102725795"><ele>580.6666666666667</ele><time>2026-04-08T12:51:27Z</time></trkpt><trkpt lat="45.662956381092854" lon="11.337019258405657"><ele>582.5</ele><time>2026-04-08T12:51:28Z</time></trkpt><trkpt lat="45.66293567943613" lon="11.336837283341708"><ele>584.3333333333334</ele><time>2026-04-08T12:51:30Z</time></trkpt><trkpt lat="45.66290886350457" lon="11.33671485754885"><ele>586.1666666666666</ele><time>2026-04-08T12:51:31Z</time></trkpt><trkpt lat="45.66288294885981" lon="11.336602627779484"><ele>588.0</ele><time>2026-04-08T12:51:32Z</time></trkpt><trkpt lat="45.66285979519025" lon="11.336441067490183"><ele>590.8333333333334</ele><time>2026-04-08T12:51:34Z</time></trkpt><trkpt lat="45.66284410076439" lon="11.336314676174261"><ele>593.6666666666666</ele><time>2026-04-08T12:51:36Z</time></trkpt><trkpt lat="45.662834432441656" lon="11.336205074208708"><ele>596.5</ele><time>2026-04-08T12:51:38Z</time></trkpt><trkpt lat="45.662833565498104" lon="11.336093979042806"><ele>599.3333333333333</ele><time>2026-04-08T12:51:40Z</time></trkpt><trkpt lat="45.662896585663894" lon="11.336058000961408"><ele>602.1666666666666</ele><time>2026-04-08T12:51:45Z</time></trkpt><trkpt lat="45.66299917473619" lon="11.336065093088209"><ele>605.0</ele><time>2026-04-08T12:51:47Z</time></trkpt><trkpt lat="45.663065048228034" lon="11.336052992159043"><ele>605.0</ele><time>2026-04-08T12:51:48Z</time></trkpt><trkpt lat="45.663131285623805" lon="11.336047884438974"><ele>605.0</ele><time>2026-04-08T12:51:49Z</time></trkpt><trkpt lat="45.66319574848748" lon="11.336042913466073"><ele>605.0</ele><time>2026-04-08T12:51:50Z</time></trkpt><trkpt lat="45.66327701005598" lon="11.336016692491157"><ele>605.0</ele><time>2026-04-08T12:51:51Z</time></trkpt><trkpt lat="45.66334634385252" lon="11.335986555947398"><ele>605.0</ele><time>2026-04-08T12:51:52Z</time></trkpt><trkpt lat="45.66344071477191" lon="11.3359346400459"><ele>605.0</ele><time>2026-04-08T12:51:53Z</time></trkpt><trkpt lat="45.66353667706983" lon="11.335877387707242"><ele>605.5</ele><time>2026-04-08T12:51:54Z</time></trkpt><trkpt lat="45.66361878671019" lon="11.335821528880059"><ele>606.0</ele><time>2026-04-08T12:51:55Z</time></trkpt><trkpt lat="45.663686382795845" lon="11.335769167502084"><ele>606.5</ele><time>2026-04-08T12:51:56Z</time></trkpt><trkpt lat="45.663796108660605" lon="11.335680237955836"><ele>607.0</ele><time>2026-04-08T12:51:58Z</time></trkpt><trkpt lat="45.663869185628144" lon="11.33561469288934"><ele>607.5</ele><time>2026-04-08T12:51:59Z</time></trkpt><trkpt lat="45.663917545817114" lon="11.335553641919198"><ele>608.0</ele><time>2026-04-08T12:52:00Z</time></trkpt><trkpt lat="45.663948825736036" lon="11.335460708290524"><ele>608.0</ele><time>2026-04-08T12:52:02Z</time></trkpt><trkpt lat="45.66396666234253" lon="11.335354716464034"><ele>608.0</ele><time>2026-04-08T12:52:04Z</time></trkpt><trkpt lat="45.663970764384715" lon="11.335257187760588"><ele>608.0</ele><time>2026-04-08T12:52:05Z</time></trkpt><trkpt lat="45.66396859291794" lon="11.335155503964062"><ele>608.0</ele><time>2026-04-08T12:52:06Z</time></trkpt><trkpt lat="45.663960858651635" lon="11.33496472470979"><ele>608.0</ele><time>2026-04-08T12:52:08Z</time></trkpt><trkpt lat="45.66395681253197" lon="11.334864919518132"><ele>608.0</ele><time>2026-04-08T12:52:09Z</time></trkpt><trkpt lat="45.66396351429334" lon="11.334721947395835"><ele>609.6666666666666</ele><time>2026-04-08T12:52:11Z</time></trkpt><trkpt lat="45.664002255337145" lon="11.33455282269175"><ele>611.3333333333333</ele><time>2026-04-08T12:52:13Z</time></trkpt><trkpt lat="45.66403681436308" lon="11.33445940316207"><ele>613.0</ele><time>2026-04-08T12:52:14Z</time></trkpt><trkpt lat="45.6640798439729" lon="11.334315146838941"><ele>614.6666666666666</ele><time>2026-04-08T12:52:16Z</time></trkpt><trkpt lat="45.66411485192004" lon="11.334238526870843"><ele>616.3333333333334</ele><time>2026-04-08T12:52:17Z</time></trkpt><trkpt lat="45.66412931375252" lon="11.334139698569011"><ele>618.0</ele><time>2026-04-08T12:52:18Z</time></trkpt><trkpt lat="45.66416400201051" lon="11.333982339578496"><ele>619.8333333333334</ele><time>2026-04-08T12:52:20Z</time></trkpt><trkpt lat="45.664188396243155" lon="11.333858801478598"><ele>621.6666666666666</ele><time>2026-04-08T12:52:21Z</time></trkpt><trkpt lat="45.664204684808126" lon="11.333764092472888"><ele>623.5</ele><time>2026-04-08T12:52:22Z</time></trkpt><trkpt lat="45.664227895631015" lon="11.333572206472219"><ele>625.3333333333333</ele><time>2026-04-08T12:52:24Z</time></trkpt><trkpt lat="45.664224311654124" lon="11.33346515165352"><ele>627.1666666666666</ele><time>2026-04-08T12:52:25Z</time></trkpt><trkpt lat="45.664214991907926" lon="11.333368207158557"><ele>629.0</ele><time>2026-04-08T12:52:26Z</time></trkpt><trkpt lat="45.66423049635303" lon="11.333225411659726"><ele>629.0</ele><time>2026-04-08T12:52:28Z</time></trkpt><trkpt lat="45.664262327519985" lon="11.333145942964439"><ele>629.0</ele><time>2026-04-08T12:52:29Z</time></trkpt><trkpt lat="45.664298512092806" lon="11.333057855723045"><ele>629.0</ele><time>2026-04-08T12:52:30Z</time></trkpt><trkpt lat="45.66436787771502" lon="11.332962824710952"><ele>629.0</ele><time>2026-04-08T12:52:32Z</time></trkpt><trkpt lat="45.66447583695952" lon="11.332941661474068"><ele>629.0</ele><time>2026-04-08T12:52:34Z</time></trkpt><trkpt lat="45.6645520038547" lon="11.332823224925964"><ele>629.6666666666666</ele><time>2026-04-08T12:52:36Z</time></trkpt><trkpt lat="45.66464832329934" lon="11.332740476480858"><ele>630.3333333333333</ele><time>2026-04-08T12:52:38Z</time></trkpt><trkpt lat="45.664697955345666" lon="11.332661709211747"><ele>631.0</ele><time>2026-04-08T12:52:40Z</time></trkpt><trkpt lat="45.66474285113643" lon="11.332585639227938"><ele>631.6666666666666</ele><time>2026-04-08T12:52:42Z</time></trkpt><trkpt lat="45.664746065378296" lon="11.332467165902449"><ele>632.3333333333334</ele><time>2026-04-08T12:52:44Z</time></trkpt><trkpt lat="45.66477120895998" lon="11.332362079964707"><ele>633.0</ele><time>2026-04-08T12:52:46Z</time></trkpt><trkpt lat="45.66480319239504" lon="11.33221875947383"><ele>635.3333333333334</ele><time>2026-04-08T12:52:48Z</time></trkpt><trkpt lat="45.664771493762146" lon="11.33211286829117"><ele>637.6666666666666</ele><time>2026-04-08T12:52:50Z</time></trkpt><trkpt lat="45.66478164225387" lon="11.332017820416565"><ele>640.0</ele><time>2026-04-08T12:52:51Z</time></trkpt><trkpt lat="45.6648451107769" lon="11.331886532654526"><ele>642.3333333333333</ele><time>2026-04-08T12:52:53Z</time></trkpt><trkpt lat="45.664885755679734" lon="11.331803989975365"><ele>644.6666666666666</ele><time>2026-04-08T12:52:54Z</time></trkpt><trkpt lat="45.66493118175073" lon="11.33165990614043"><ele>647.0</ele><time>2026-04-08T12:52:56Z</time></trkpt><trkpt lat="45.664954051948115" lon="11.331565000766252"><ele>647.0</ele><time>2026-04-08T12:52:58Z</time></trkpt><trkpt lat="45.664968839216336" lon="11.331472438992561"><ele>647.0</ele><time>2026-04-08T12:53:07Z</time></trkpt><trkpt lat="45.664961234922345" lon="11.331333114748722"><ele>647.0</ele><time>2026-04-08T12:53:27Z</time></trkpt><trkpt lat="45.664967824378394" lon="11.33118398682494"><ele>647.0</ele><time>2026-04-08T12:53:29Z</time></trkpt><trkpt lat="45.66496535492076" lon="11.331091505388313"><ele>647.0</ele><time>2026-04-08T12:53:30Z</time></trkpt><trkpt lat="45.664963928573684" lon="11.330978700748831"><ele>647.0</ele><time>2026-04-08T12:53:31Z</time></trkpt><trkpt lat="45.66494776663081" lon="11.330841440680764"><ele>648.2</ele><time>2026-04-08T12:53:33Z</time></trkpt><trkpt lat="45.66493433574456" lon="11.330749652709958"><ele>649.4000000000001</ele><time>2026-04-08T12:53:34Z</time></trkpt><trkpt lat="45.66491359846754" lon="11.330613760742134"><ele>650.5999999999999</ele><time>2026-04-08T12:53:36Z</time></trkpt><trkpt lat="45.664907265496524" lon="11.330508681343822"><ele>651.8</ele><time>2026-04-08T12:53:37Z</time></trkpt><trkpt lat="45.66491583223553" lon="11.33035539536645"><ele>653.0</ele><time>2026-04-08T12:53:39Z</time></trkpt><trkpt lat="45.664864914727936" lon="11.330200395488621"><ele>653.3333333333333</ele><time>2026-04-08T12:53:41Z</time></trkpt><trkpt lat="45.66483305575008" lon="11.330066148324939"><ele>653.6666666666666</ele><time>2026-04-08T12:53:43Z</time></trkpt><trkpt lat="45.66484907290061" lon="11.329933500775189"><ele>654.0</ele><time>2026-04-08T12:53:45Z</time></trkpt><trkpt lat="45.664894046112536" lon="11.329851852735867"><ele>654.3333333333334</ele><time>2026-04-08T12:53:47Z</time></trkpt><trkpt lat="45.66487534265093" lon="11.329751659074706"><ele>654.6666666666667</ele><time>2026-04-08T12:53:49Z</time></trkpt><trkpt lat="45.66487762806094" lon="11.329639973360653"><ele>655.0</ele><time>2026-04-08T12:53:52Z</time></trkpt><trkpt lat="45.66485808574129" lon="11.32954539287323"><ele>655.8</ele><time>2026-04-08T12:53:54Z</time></trkpt><trkpt lat="45.66482942040185" lon="11.329451749627845"><ele>656.6</ele><time>2026-04-08T12:53:56Z</time></trkpt><trkpt lat="45.664833989670825" lon="11.32931215854771"><ele>657.4000000000001</ele><time>2026-04-08T12:53:58Z</time></trkpt><trkpt lat="45.664906766929" lon="11.329212368966905"><ele>658.2</ele><time>2026-04-08T12:54:00Z</time></trkpt><trkpt lat="45.66496348356313" lon="11.329094825903443"><ele>659.0</ele><time>2026-04-08T12:54:03Z</time></trkpt><trkpt lat="45.66496870676692" lon="11.328975446967458"><ele>660.1666666666666</ele><time>2026-04-08T12:54:05Z</time></trkpt><trkpt lat="45.664961201719564" lon="11.328882512697442"><ele>661.3333333333333</ele><time>2026-04-08T12:54:06Z</time></trkpt><trkpt lat="45.664985097734636" lon="11.328791405980224"><ele>662.5</ele><time>2026-04-08T12:54:08Z</time></trkpt><trkpt lat="45.66505805773595" lon="11.328658358559109"><ele>663.6666666666666</ele><time>2026-04-08T12:54:10Z</time></trkpt><trkpt lat="45.66508984394171" lon="11.32853972794399"><ele>664.8333333333334</ele><time>2026-04-08T12:54:12Z</time></trkpt><trkpt lat="45.665098870478076" lon="11.328396402570222"><ele>666.0</ele><time>2026-04-08T12:54:15Z</time></trkpt><trkpt lat="45.66518266371849" lon="11.328280919277752"><ele>666.0</ele><time>2026-04-08T12:54:17Z</time></trkpt><trkpt lat="45.66523935603572" lon="11.328214177136696"><ele>666.0</ele><time>2026-04-08T12:54:18Z</time></trkpt><trkpt lat="45.66529815167369" lon="11.328181009072521"><ele>666.0</ele><time>2026-04-08T12:54:19Z</time></trkpt><trkpt lat="45.66539044338756" lon="11.328083836474878"><ele>666.0</ele><time>2026-04-08T12:54:21Z</time></trkpt><trkpt lat="45.66545057419411" lon="11.327995729895434"><ele>666.0</ele><time>2026-04-08T12:54:23Z</time></trkpt><trkpt lat="45.66553898693759" lon="11.32792884896767"><ele>666.0</ele><time>2026-04-08T12:54:25Z</time></trkpt><trkpt lat="45.665601516939645" lon="11.327907140598704"><ele>665.5999999999999</ele><time>2026-04-08T12:54:26Z</time></trkpt><trkpt lat="45.66570834150149" lon="11.327872322672757"><ele>665.2</ele><time>2026-04-08T12:54:28Z</time></trkpt><trkpt lat="45.66576988602221" lon="11.327837549151738"><ele>664.8</ele><time>2026-04-08T12:54:29Z</time></trkpt><trkpt lat="45.66586677765876" lon="11.327796386739251"><ele>664.4000000000001</ele><time>2026-04-08T12:54:31Z</time></trkpt><trkpt lat="45.66594211421682" lon="11.327776909673076"><ele>664.0</ele><time>2026-04-08T12:54:33Z</time></trkpt><trkpt lat="45.66605113961474" lon="11.327744192272151"><ele>663.8333333333334</ele><time>2026-04-08T12:54:35Z</time></trkpt><trkpt lat="45.66612736113433" lon="11.32766141961102"><ele>663.6666666666667</ele><time>2026-04-08T12:54:37Z</time></trkpt><trkpt lat="45.66617986786507" lon="11.32753408842554"><ele>663.5</ele><time>2026-04-08T12:54:39Z</time></trkpt><trkpt lat="45.66619693274113" lon="11.327419733694322"><ele>663.3333333333334</ele><time>2026-04-08T12:54:41Z</time></trkpt><trkpt lat="45.666223597694874" lon="11.327320782688028"><ele>663.1666666666666</ele><time>2026-04-08T12:54:42Z</time></trkpt><trkpt lat="45.66625896297878" lon="11.327215420122357"><ele>663.0</ele><time>2026-04-08T12:54:43Z</time></trkpt><trkpt lat="45.66629145024707" lon="11.3271305168735"><ele>663.0</ele><time>2026-04-08T12:54:44Z</time></trkpt><trkpt lat="45.66635876504207" lon="11.327027068006066"><ele>663.0</ele><time>2026-04-08T12:54:46Z</time></trkpt><trkpt lat="45.666399820198194" lon="11.326956026309917"><ele>663.0</ele><time>2026-04-08T12:54:47Z</time></trkpt><trkpt lat="45.666450955693385" lon="11.326897571291937"><ele>663.0</ele><time>2026-04-08T12:54:48Z</time></trkpt><trkpt lat="45.66654627320174" lon="11.32681535194906"><ele>663.0</ele><time>2026-04-08T12:54:50Z</time></trkpt><trkpt lat="45.66663896505303" lon="11.326764221672217"><ele>663.0</ele><time>2026-04-08T12:54:52Z</time></trkpt><trkpt lat="45.66669781851456" lon="11.326715514793296"><ele>663.0</ele><time>2026-04-08T12:54:53Z</time></trkpt><trkpt lat="45.66678056065885" lon="11.326643329686885"><ele>663.0</ele><time>2026-04-08T12:54:55Z</time></trkpt><trkpt lat="45.66688855707892" lon="11.326613047295304"><ele>663.0</ele><time>2026-04-08T12:54:57Z</time></trkpt><trkpt lat="45.66696396359435" lon="11.326590250077304"><ele>663.0</ele><time>2026-04-08T12:54:59Z</time></trkpt><trkpt lat="45.66707406388552" lon="11.32663894033785"><ele>663.0</ele><time>2026-04-08T12:55:01Z</time></trkpt><trkpt lat="45.66714475519491" lon="11.326676203146112"><ele>662.2</ele><time>2026-04-08T12:55:02Z</time></trkpt><trkpt lat="45.66724982055285" lon="11.32674849737408"><ele>661.4</ele><time>2026-04-08T12:55:04Z</time></trkpt><trkpt lat="45.66735392870969" lon="11.326747184498364"><ele>660.6</ele><time>2026-04-08T12:55:06Z</time></trkpt><trkpt lat="45.667435408927965" lon="11.326773784756462"><ele>659.8000000000001</ele><time>2026-04-08T12:55:08Z</time></trkpt><trkpt lat="45.667520093039435" lon="11.326833143902224"><ele>659.0</ele><time>2026-04-08T12:55:10Z</time></trkpt><trkpt lat="45.667617876809395" lon="11.32681777355874"><ele>659.0</ele><time>2026-04-08T12:55:12Z</time></trkpt><trkpt lat="45.66771504360136" lon="11.326847810277606"><ele>659.0</ele><time>2026-04-08T12:55:14Z</time></trkpt><trkpt lat="45.667790532641135" lon="11.326869334514194"><ele>659.0</ele><time>2026-04-08T12:55:16Z</time></trkpt><trkpt lat="45.667893094742965" lon="11.326879580937574"><ele>659.0</ele><time>2026-04-08T12:55:18Z</time></trkpt><trkpt lat="45.66796096402958" lon="11.32682445827241"><ele>659.0</ele><time>2026-04-08T12:55:20Z</time></trkpt><trkpt lat="45.66804512699961" lon="11.32675580027612"><ele>655.75</ele><time>2026-04-08T12:55:22Z</time></trkpt><trkpt lat="45.668062623066554" lon="11.326625355841074"><ele>652.5</ele><time>2026-04-08T12:55:24Z</time></trkpt><trkpt lat="45.66811992295346" lon="11.326498838933727"><ele>649.25</ele><time>2026-04-08T12:55:26Z</time></trkpt><trkpt lat="45.668189408030564" lon="11.32639296258599"><ele>646.0</ele><time>2026-04-08T12:55:28Z</time></trkpt><trkpt lat="45.66836926598103" lon="11.326392309963463"><ele>645.0</ele><time>2026-04-08T12:55:30Z</time></trkpt><trkpt lat="45.6683907410095" lon="11.326302810801515"><ele>644.0</ele><time>2026-04-08T12:55:32Z</time></trkpt><trkpt lat="45.6684591022031" lon="11.3262291817333"><ele>643.0</ele><time>2026-04-08T12:55:34Z</time></trkpt><trkpt lat="45.66855179605271" lon="11.326182780180286"><ele>642.0</ele><time>2026-04-08T12:55:36Z</time></trkpt><trkpt lat="45.66861478479177" lon="11.326155088635872"><ele>641.0</ele><time>2026-04-08T12:55:37Z</time></trkpt><trkpt lat="45.66869691147577" lon="11.326104354640524"><ele>640.0</ele><time>2026-04-08T12:55:39Z</time></trkpt><trkpt lat="45.668777344500356" lon="11.326070825679876"><ele>640.0</ele><time>2026-04-08T12:55:41Z</time></trkpt><trkpt lat="45.6688922572441" lon="11.326079204824595"><ele>640.0</ele><time>2026-04-08T12:55:43Z</time></trkpt><trkpt lat="45.66897063679623" lon="11.326093257428711"><ele>640.0</ele><time>2026-04-08T12:55:44Z</time></trkpt><trkpt lat="45.66903889058085" lon="11.326081667447381"><ele>640.0</ele><time>2026-04-08T12:55:45Z</time></trkpt><trkpt lat="45.66910932802823" lon="11.326096109824249"><ele>640.0</ele><time>2026-04-08T12:55:46Z</time></trkpt><trkpt lat="45.66918191909634" lon="11.32613238621742"><ele>640.0</ele><time>2026-04-08T12:55:47Z</time></trkpt><trkpt lat="45.669278622587356" lon="11.326142165239128"><ele>640.0</ele><time>2026-04-08T12:55:48Z</time></trkpt><trkpt lat="45.66936566493712" lon="11.32615644115391"><ele>640.0</ele><time>2026-04-08T12:55:49Z</time></trkpt><trkpt lat="45.66945112276701" lon="11.326184686841268"><ele>640.0</ele><time>2026-04-08T12:55:50Z</time></trkpt><trkpt lat="45.66951981607662" lon="11.326218868937817"><ele>640.0</ele><time>2026-04-08T12:55:51Z</time></trkpt><trkpt lat="45.66962968602724" lon="11.326278004453616"><ele>640.0</ele><time>2026-04-08T12:55:53Z</time></trkpt><trkpt lat="45.669693708511296" lon="11.326312743845884"><ele>640.0</ele><time>2026-04-08T12:55:54Z</time></trkpt><trkpt lat="45.66979987573009" lon="11.326376602443341"><ele>641.0</ele><time>2026-04-08T12:55:55Z</time></trkpt><trkpt lat="45.66988592232534" lon="11.326422504895024"><ele>642.0</ele><time>2026-04-08T12:55:56Z</time></trkpt><trkpt lat="45.66997559089575" lon="11.32645311990453"><ele>643.0</ele><time>2026-04-08T12:55:58Z</time></trkpt><trkpt lat="45.67004671447661" lon="11.32646229271103"><ele>644.0</ele><time>2026-04-08T12:55:59Z</time></trkpt><trkpt lat="45.67012501982638" lon="11.326438681076581"><ele>645.0</ele><time>2026-04-08T12:56:00Z</time></trkpt><trkpt lat="45.67024179561509" lon="11.326395587545115"><ele>645.1666666666666</ele><time>2026-04-08T12:56:02Z</time></trkpt><trkpt lat="45.67032012620623" lon="11.326315246397463"><ele>645.3333333333334</ele><time>2026-04-08T12:56:04Z</time></trkpt><trkpt lat="45.67040838326135" lon="11.32626883960471"><ele>645.5</ele><time>2026-04-08T12:56:06Z</time></trkpt><trkpt lat="45.670484140327815" lon="11.326262627505475"><ele>645.6666666666667</ele><time>2026-04-08T12:56:09Z</time></trkpt><trkpt lat="45.67056927461242" lon="11.326354645175833"><ele>645.8333333333334</ele><time>2026-04-08T12:56:11Z</time></trkpt><trkpt lat="45.670637634692284" lon="11.326395288206497"><ele>646.0</ele><time>2026-04-08T12:56:13Z</time></trkpt><trkpt lat="45.670723219992674" lon="11.32645655297612"><ele>646.0</ele><time>2026-04-08T12:56:15Z</time></trkpt><trkpt lat="45.67082385386729" lon="11.326576786573447"><ele>646.0</ele><time>2026-04-08T12:56:17Z</time></trkpt><trkpt lat="45.67089884931997" lon="11.32670131163995"><ele>646.0</ele><time>2026-04-08T12:56:19Z</time></trkpt><trkpt lat="45.6709498438426" lon="11.326794467103184"><ele>646.0</ele><time>2026-04-08T12:56:21Z</time></trkpt><trkpt lat="45.67114844764529" lon="11.326646180960656"><ele>649.1999999999999</ele><time>2026-04-08T12:56:27Z</time></trkpt><trkpt lat="45.671213315453194" lon="11.326573984995148"><ele>652.4</ele><time>2026-04-08T12:56:29Z</time></trkpt><trkpt lat="45.67129179931326" lon="11.326465106092119"><ele>655.6</ele><time>2026-04-08T12:56:32Z</time></trkpt><trkpt lat="45.67132349873061" lon="11.326362260126539"><ele>658.8</ele><time>2026-04-08T12:56:34Z</time></trkpt><trkpt lat="45.67130965048882" lon="11.326229671314168"><ele>662.0</ele><time>2026-04-08T12:56:36Z</time></trkpt><trkpt lat="45.671272290635066" lon="11.326113215555363"><ele>661.1666666666666</ele><time>2026-04-08T12:56:38Z</time></trkpt><trkpt lat="45.67122113438666" lon="11.326052951275711"><ele>660.3333333333333</ele><time>2026-04-08T12:56:40Z</time></trkpt><trkpt lat="45.671168877967276" lon="11.325945066872022"><ele>659.5</ele><time>2026-04-08T12:56:42Z</time></trkpt><trkpt lat="45.67109272535839" lon="11.325830247170584"><ele>658.6666666666666</ele><time>2026-04-08T12:56:44Z</time></trkpt><trkpt lat="45.67113677202152" lon="11.325755486909753"><ele>657.8333333333334</ele><time>2026-04-08T12:57:13Z</time></trkpt><trkpt lat="45.67124306484011" lon="11.325734831442205"><ele>657.0</ele><time>2026-04-08T12:57:15Z</time></trkpt><trkpt lat="45.67131834853502" lon="11.325708349556834"><ele>660.3333333333334</ele><time>2026-04-08T12:57:17Z</time></trkpt><trkpt lat="45.67139162204002" lon="11.325616908612224"><ele>663.6666666666666</ele><time>2026-04-08T12:57:21Z</time></trkpt><trkpt lat="45.671463779557726" lon="11.325545458961834"><ele>667.0</ele><time>2026-04-08T12:57:23Z</time></trkpt><trkpt lat="45.67152854399818" lon="11.325460420297947"><ele>670.3333333333333</ele><time>2026-04-08T12:57:25Z</time></trkpt><trkpt lat="45.671583925712234" lon="11.325379233761472"><ele>673.6666666666666</ele><time>2026-04-08T12:57:27Z</time></trkpt><trkpt lat="45.67166533477843" lon="11.325383954904868"><ele>677.0</ele><time>2026-04-08T12:57:35Z</time></trkpt><trkpt lat="45.67176555557241" lon="11.325393212162574"><ele>677.4000000000001</ele><time>2026-04-08T12:57:37Z</time></trkpt><trkpt lat="45.67184976822646" lon="11.32533464035755"><ele>677.8000000000001</ele><time>2026-04-08T12:57:39Z</time></trkpt><trkpt lat="45.67193920686826" lon="11.325210776265257"><ele>678.2</ele><time>2026-04-08T12:57:41Z</time></trkpt><trkpt lat="45.672030594887914" lon="11.32517766046266"><ele>678.6</ele><time>2026-04-08T12:57:43Z</time></trkpt><trkpt lat="45.672101345632065" lon="11.325161146448936"><ele>679.0</ele><time>2026-04-08T12:57:44Z</time></trkpt><trkpt lat="45.67216916165374" lon="11.325076431739431"><ele>680.3333333333334</ele><time>2026-04-08T12:57:46Z</time></trkpt><trkpt lat="45.67218074681057" lon="11.324933689578366"><ele>681.6666666666667</ele><time>2026-04-08T12:57:48Z</time></trkpt><trkpt lat="45.672200906490886" lon="11.32481118584309"><ele>683.0</ele><time>2026-04-08T12:57:49Z</time></trkpt><trkpt lat="45.672221715508" lon="11.324719696187785"><ele>684.3333333333334</ele><time>2026-04-08T12:57:50Z</time></trkpt><trkpt lat="45.67226808903217" lon="11.32462875730572"><ele>685.6666666666666</ele><time>2026-04-08T12:57:52Z</time></trkpt><trkpt lat="45.67230979911961" lon="11.324559306106545"><ele>687.0</ele><time>2026-04-08T12:57:54Z</time></trkpt><trkpt lat="45.67236267647406" lon="11.324432620401245"><ele>689.0</ele><time>2026-04-08T12:57:57Z</time></trkpt><trkpt lat="45.67238798459347" lon="11.324346486300245"><ele>691.0</ele><time>2026-04-08T12:57:58Z</time></trkpt><trkpt lat="45.67244810685785" lon="11.324246435642943"><ele>693.0</ele><time>2026-04-08T12:58:00Z</time></trkpt><trkpt lat="45.67249680789711" lon="11.324181014553544"><ele>695.0</ele><time>2026-04-08T12:58:02Z</time></trkpt><trkpt lat="45.6725417157934" lon="11.324110360348069"><ele>697.0</ele><time>2026-04-08T12:58:04Z</time></trkpt><trkpt lat="45.67260637658325" lon="11.32405257953834"><ele>699.0</ele><time>2026-04-08T12:58:07Z</time></trkpt><trkpt lat="45.67265179046896" lon="11.323924096773611"><ele>700.8000000000001</ele><time>2026-04-08T12:58:10Z</time></trkpt><trkpt lat="45.67273547562963" lon="11.323764509622599"><ele>702.6</ele><time>2026-04-08T12:58:13Z</time></trkpt><trkpt lat="45.672808757882514" lon="11.323684323372403"><ele>704.4</ele><time>2026-04-08T12:58:14Z</time></trkpt><trkpt lat="45.67289582154417" lon="11.323633278950007"><ele>706.2</ele><time>2026-04-08T12:58:16Z</time></trkpt><trkpt lat="45.67295872676865" lon="11.32361005699536"><ele>708.0</ele><time>2026-04-08T12:58:17Z</time></trkpt><trkpt lat="45.67302275980285" lon="11.323592173283956"><ele>708.0</ele><time>2026-04-08T12:58:18Z</time></trkpt><trkpt lat="45.67312962443228" lon="11.323631684111342"><ele>708.0</ele><time>2026-04-08T12:58:20Z</time></trkpt><trkpt lat="45.67323071556047" lon="11.323609224407173"><ele>708.0</ele><time>2026-04-08T12:58:22Z</time></trkpt><trkpt lat="45.67331242268696" lon="11.323529416419499"><ele>708.0</ele><time>2026-04-08T12:58:24Z</time></trkpt><trkpt lat="45.67339120109527" lon="11.323481940743045"><ele>708.0</ele><time>2026-04-08T12:58:26Z</time></trkpt><trkpt lat="45.67345983092127" lon="11.323439166440284"><ele>708.0</ele><time>2026-04-08T12:58:28Z</time></trkpt><trkpt lat="45.67356142856786" lon="11.323368751767186"><ele>708.0</ele><time>2026-04-08T12:58:30Z</time></trkpt><trkpt lat="45.67364986950103" lon="11.323272731663716"><ele>708.0</ele><time>2026-04-08T12:58:32Z</time></trkpt><trkpt lat="45.6737266418103" lon="11.323188612358503"><ele>708.0</ele><time>2026-04-08T12:58:34Z</time></trkpt><trkpt lat="45.673772831170204" lon="11.323100458201921"><ele>708.0</ele><time>2026-04-08T12:58:35Z</time></trkpt><trkpt lat="45.673817883957724" lon="11.32302187927436"><ele>705.8</ele><time>2026-04-08T12:58:36Z</time></trkpt><trkpt lat="45.67386925205167" lon="11.322952632237554"><ele>703.5999999999999</ele><time>2026-04-08T12:58:37Z</time></trkpt><trkpt lat="45.67396259088777" lon="11.32282610351404"><ele>701.4000000000001</ele><time>2026-04-08T12:58:39Z</time></trkpt><trkpt lat="45.67402571717615" lon="11.32280198907635"><ele>699.2</ele><time>2026-04-08T12:58:40Z</time></trkpt><trkpt lat="45.67411443399937" lon="11.322745649189097"><ele>697.0</ele><time>2026-04-08T12:58:42Z</time></trkpt><trkpt lat="45.6741667400198" lon="11.322598294845875"><ele>697.0</ele><time>2026-04-08T12:58:44Z</time></trkpt><trkpt lat="45.67419065056039" lon="11.32249562183304"><ele>697.0</ele><time>2026-04-08T12:58:45Z</time></trkpt><trkpt lat="45.67418765627855" lon="11.322333320978766"><ele>697.0</ele><time>2026-04-08T12:58:47Z</time></trkpt><trkpt lat="45.674194160205595" lon="11.32219668546062"><ele>697.0</ele><time>2026-04-08T12:58:49Z</time></trkpt><trkpt lat="45.6741982181449" lon="11.322098112654706"><ele>697.0</ele><time>2026-04-08T12:58:50Z</time></trkpt><trkpt lat="45.67420327439516" lon="11.322005789636663"><ele>697.0</ele><time>2026-04-08T12:58:51Z</time></trkpt><trkpt lat="45.67425166243803" lon="11.321880493145734"><ele>696.8333333333334</ele><time>2026-04-08T12:58:53Z</time></trkpt><trkpt lat="45.674302920436666" lon="11.321821800596053"><ele>696.6666666666667</ele><time>2026-04-08T12:58:54Z</time></trkpt><trkpt lat="45.674356825109435" lon="11.321770176887291"><ele>696.5</ele><time>2026-04-08T12:58:55Z</time></trkpt><trkpt lat="45.67442203775044" lon="11.321725789159322"><ele>696.3333333333334</ele><time>2026-04-08T12:58:56Z</time></trkpt><trkpt lat="45.67449687445696" lon="11.321669613035603"><ele>696.1666666666666</ele><time>2026-04-08T12:58:58Z</time></trkpt><trkpt lat="45.67455190349872" lon="11.32161968855432"><ele>696.0</ele><time>2026-04-08T12:58:59Z</time></trkpt><trkpt lat="45.674647002867076" lon="11.32152606490826"><ele>695.0</ele><time>2026-04-08T12:59:01Z</time></trkpt><trkpt lat="45.6747546575565" lon="11.321544581947856"><ele>694.0</ele><time>2026-04-08T12:59:03Z</time></trkpt><trkpt lat="45.674815046269195" lon="11.32159919718759"><ele>693.0</ele><time>2026-04-08T12:59:04Z</time></trkpt><trkpt lat="45.67488857557111" lon="11.321647147975506"><ele>692.0</ele><time>2026-04-08T12:59:05Z</time></trkpt><trkpt lat="45.67495804859023" lon="11.321651971707293"><ele>691.0</ele><time>2026-04-08T12:59:06Z</time></trkpt><trkpt lat="45.67502908887812" lon="11.321651673331234"><ele>690.0</ele><time>2026-04-08T12:59:07Z</time></trkpt><trkpt lat="45.67513988171093" lon="11.321588563284601"><ele>690.0</ele><time>2026-04-08T12:59:09Z</time></trkpt><trkpt lat="45.67520648674316" lon="11.321548979217583"><ele>690.0</ele><time>2026-04-08T12:59:10Z</time></trkpt><trkpt lat="45.67531186984444" lon="11.321499673185851"><ele>690.0</ele><time>2026-04-08T12:59:12Z</time></trkpt><trkpt lat="45.67537501389362" lon="11.321478049686966"><ele>690.0</ele><time>2026-04-08T12:59:13Z</time></trkpt><trkpt lat="45.67544201782132" lon="11.321444752388066"><ele>690.0</ele><time>2026-04-08T12:59:14Z</time></trkpt><trkpt lat="45.67552573767533" lon="11.321416344975493"><ele>690.0</ele><time>2026-04-08T12:59:15Z</time></trkpt><trkpt lat="45.67560758903313" lon="11.321408878010145"><ele>690.6666666666666</ele><time>2026-04-08T12:59:16Z</time></trkpt><trkpt lat="45.67567093205203" lon="11.32142277546115"><ele>691.3333333333334</ele><time>2026-04-08T12:59:17Z</time></trkpt><trkpt lat="45.675750929473935" lon="11.321505518135204"><ele>692.0</ele><time>2026-04-08T12:59:19Z</time></trkpt><trkpt lat="45.67578903269505" lon="11.321590965551836"><ele>692.6666666666667</ele><time>2026-04-08T12:59:20Z</time></trkpt><trkpt lat="45.67583516932418" lon="11.321678292225947"><ele>693.3333333333334</ele><time>2026-04-08T12:59:21Z</time></trkpt><trkpt lat="45.67589166359143" lon="11.321785235302762"><ele>694.0</ele><time>2026-04-08T12:59:23Z</time></trkpt><trkpt lat="45.67591299005043" lon="11.321897204613434"><ele>694.0</ele><time>2026-04-08T12:59:26Z</time></trkpt><trkpt lat="45.67599989464253" lon="11.321977289084437"><ele>694.0</ele><time>2026-04-08T12:59:29Z</time></trkpt><trkpt lat="45.67607866758404" lon="11.322009862872566"><ele>694.0</ele><time>2026-04-08T12:59:31Z</time></trkpt><trkpt lat="45.67613971048992" lon="11.322035105225206"><ele>694.0</ele><time>2026-04-08T12:59:33Z</time></trkpt><trkpt lat="45.67621186960961" lon="11.321980286010705"><ele>694.0</ele><time>2026-04-08T12:59:35Z</time></trkpt><trkpt lat="45.676294164318676" lon="11.32161881972017"><ele>695.8000000000001</ele><time>2026-04-08T12:59:36Z</time></trkpt><trkpt lat="45.67631673504983" lon="11.321466720327152"><ele>697.6</ele><time>2026-04-08T12:59:38Z</time></trkpt><trkpt lat="45.67629004474652" lon="11.321355635746308"><ele>699.4</ele><time>2026-04-08T12:59:40Z</time></trkpt><trkpt lat="45.67622637023312" lon="11.3212422056646"><ele>701.2</ele><time>2026-04-08T12:59:42Z</time></trkpt><trkpt lat="45.67616972543469" lon="11.32118256317629"><ele>703.0</ele><time>2026-04-08T12:59:44Z</time></trkpt><trkpt lat="45.676219656715304" lon="11.321060827517035"><ele>703.8333333333334</ele><time>2026-04-08T12:59:47Z</time></trkpt><trkpt lat="45.67628021561749" lon="11.320990000617803"><ele>704.6666666666667</ele><time>2026-04-08T12:59:48Z</time></trkpt><trkpt lat="45.67633372834657" lon="11.320917327295167"><ele>705.5</ele><time>2026-04-08T12:59:49Z</time></trkpt><trkpt lat="45.67637932744945" lon="11.320819509689278"><ele>706.3333333333334</ele><time>2026-04-08T12:59:50Z</time></trkpt><trkpt lat="45.67642739708401" lon="11.32070823208259"><ele>707.1666666666666</ele><time>2026-04-08T12:59:51Z</time></trkpt><trkpt lat="45.67645232115855" lon="11.320560903064356"><ele>708.0</ele><time>2026-04-08T12:59:53Z</time></trkpt><trkpt lat="45.67646739690186" lon="11.320463934591224"><ele>709.1666666666666</ele><time>2026-04-08T12:59:54Z</time></trkpt><trkpt lat="45.6765080963307" lon="11.320368484997992"><ele>710.3333333333334</ele><time>2026-04-08T12:59:55Z</time></trkpt><trkpt lat="45.67656573317986" lon="11.320291664352624"><ele>711.5</ele><time>2026-04-08T12:59:56Z</time></trkpt><trkpt lat="45.676636186569574" lon="11.32023413646435"><ele>712.6666666666667</ele><time>2026-04-08T12:59:57Z</time></trkpt><trkpt lat="45.67672401350995" lon="11.320132557721305"><ele>713.8333333333334</ele><time>2026-04-08T12:59:59Z</time></trkpt><trkpt lat="45.6767733536711" lon="11.320067959622017"><ele>715.0</ele><time>2026-04-08T13:00:00Z</time></trkpt><trkpt lat="45.67683702419912" lon="11.3200174073148"><ele>715.0</ele><time>2026-04-08T13:00:01Z</time></trkpt><trkpt lat="45.67692267729193" lon="11.319925703968531"><ele>715.0</ele><time>2026-04-08T13:00:03Z</time></trkpt><trkpt lat="45.676992073936084" lon="11.319899605908166"><ele>715.0</ele><time>2026-04-08T13:00:05Z</time></trkpt><trkpt lat="45.676996373381485" lon="11.319784744494482"><ele>715.0</ele><time>2026-04-08T13:00:09Z</time></trkpt><trkpt lat="45.67703821253497" lon="11.319689820218391"><ele>715.0</ele><time>2026-04-08T13:00:12Z</time></trkpt><trkpt lat="45.67713231281609" lon="11.319585135514139"><ele>714.6</ele><time>2026-04-08T13:00:14Z</time></trkpt><trkpt lat="45.67721822040061" lon="11.319509096158844"><ele>714.2</ele><time>2026-04-08T13:00:16Z</time></trkpt><trkpt lat="45.67733270352105" lon="11.319455837885359"><ele>713.8</ele><time>2026-04-08T13:00:18Z</time></trkpt><trkpt lat="45.677419111606525" lon="11.319356456409883"><ele>713.4</ele><time>2026-04-08T13:00:20Z</time></trkpt><trkpt lat="45.677498846777745" lon="11.319274716970526"><ele>713.0</ele><time>2026-04-08T13:00:22Z</time></trkpt><trkpt lat="45.67758227938809" lon="11.31919083097939"><ele>713.0</ele><time>2026-04-08T13:00:24Z</time></trkpt><trkpt lat="45.67767536201082" lon="11.319066243175406"><ele>713.0</ele><time>2026-04-08T13:00:26Z</time></trkpt><trkpt lat="45.67772163204488" lon="11.318955283763428"><ele>713.0</ele><time>2026-04-08T13:00:27Z</time></trkpt><trkpt lat="45.67776974812927" lon="11.318784510956725"><ele>713.0</ele><time>2026-04-08T13:00:29Z</time></trkpt><trkpt lat="45.67777952097705" lon="11.318626089131541"><ele>710.8333333333333</ele><time>2026-04-08T13:00:31Z</time></trkpt><trkpt lat="45.67777445109006" lon="11.318506373002652"><ele>708.6666666666666</ele><time>2026-04-08T13:00:33Z</time></trkpt><trkpt lat="45.67778405981663" lon="11.318400481003565"><ele>706.5</ele><time>2026-04-08T13:00:34Z</time></trkpt><trkpt lat="45.67780927604832" lon="11.318285629580497"><ele>704.3333333333334</ele><time>2026-04-08T13:00:35Z</time></trkpt><trkpt lat="45.6778406725472" lon="11.318207145944186"><ele>702.1666666666667</ele><time>2026-04-08T13:00:36Z</time></trkpt><trkpt lat="45.67792928952789" lon="11.318057118144244"><ele>700.0</ele><time>2026-04-08T13:00:38Z</time></trkpt><trkpt lat="45.677991244583424" lon="11.317956579182718"><ele>700.0</ele><time>2026-04-08T13:00:39Z</time></trkpt><trkpt lat="45.67804425744101" lon="11.317864465544396"><ele>700.0</ele><time>2026-04-08T13:00:40Z</time></trkpt><trkpt lat="45.67808283140457" lon="11.317785572337854"><ele>700.0</ele><time>2026-04-08T13:00:41Z</time></trkpt><trkpt lat="45.678117632949615" lon="11.31770618897344"><ele>700.0</ele><time>2026-04-08T13:00:42Z</time></trkpt><trkpt lat="45.678148202959264" lon="11.317614079156275"><ele>700.0</ele><time>2026-04-08T13:00:43Z</time></trkpt><trkpt lat="45.678181562630115" lon="11.31746413886554"><ele>700.0</ele><time>2026-04-08T13:00:45Z</time></trkpt><trkpt lat="45.67823763213385" lon="11.317339380045501"><ele>700.0</ele><time>2026-04-08T13:00:47Z</time></trkpt><trkpt lat="45.678289410350665" lon="11.31727046218051"><ele>700.0</ele><time>2026-04-08T13:00:48Z</time></trkpt><trkpt lat="45.678325179516" lon="11.317179530074883"><ele>700.0</ele><time>2026-04-08T13:00:49Z</time></trkpt><trkpt lat="45.678350834861966" lon="11.317084345545757"><ele>700.0</ele><time>2026-04-08T13:00:50Z</time></trkpt><trkpt lat="45.67839284044075" lon="11.317007267738717"><ele>700.0</ele><time>2026-04-08T13:00:51Z</time></trkpt><trkpt lat="45.678491331266855" lon="11.316975239353994"><ele>700.0</ele><time>2026-04-08T13:00:53Z</time></trkpt><trkpt lat="45.67856087801652" lon="11.316967920198195"><ele>696.6</ele><time>2026-04-08T13:00:54Z</time></trkpt><trkpt lat="45.67866634293165" lon="11.316951108065863"><ele>693.2</ele><time>2026-04-08T13:00:56Z</time></trkpt><trkpt lat="45.678738764841945" lon="11.31688566712121"><ele>689.8</ele><time>2026-04-08T13:00:58Z</time></trkpt><trkpt lat="45.67880997911608" lon="11.316748528079378"><ele>686.4</ele><time>2026-04-08T13:01:00Z</time></trkpt><trkpt lat="45.67882045977495" lon="11.316637180499368"><ele>683.0</ele><time>2026-04-08T13:01:02Z</time></trkpt><trkpt lat="45.67881442322596" lon="11.316540901968912"><ele>683.0</ele><time>2026-04-08T13:01:04Z</time></trkpt><trkpt lat="45.678830208292595" lon="11.31642062847897"><ele>683.0</ele><time>2026-04-08T13:01:06Z</time></trkpt><trkpt lat="45.6788918119859" lon="11.316351740569576"><ele>683.0</ele><time>2026-04-08T13:01:08Z</time></trkpt><trkpt lat="45.67901400787731" lon="11.31629837862565"><ele>683.0</ele><time>2026-04-08T13:01:10Z</time></trkpt><trkpt lat="45.67908342770341" lon="11.316266933915765"><ele>683.0</ele><time>2026-04-08T13:01:11Z</time></trkpt><trkpt lat="45.67914552506105" lon="11.316244920947856"><ele>683.0</ele><time>2026-04-08T13:01:12Z</time></trkpt><trkpt lat="45.67923042331664" lon="11.3162303803008"><ele>682.1666666666666</ele><time>2026-04-08T13:01:13Z</time></trkpt><trkpt lat="45.679298073410806" lon="11.316235190049937"><ele>681.3333333333333</ele><time>2026-04-08T13:01:14Z</time></trkpt><trkpt lat="45.679417700010184" lon="11.316236970922775"><ele>680.5</ele><time>2026-04-08T13:01:16Z</time></trkpt><trkpt lat="45.67948486153373" lon="11.316220706055983"><ele>679.6666666666666</ele><time>2026-04-08T13:01:17Z</time></trkpt><trkpt lat="45.67955544044541" lon="11.316209659417208"><ele>678.8333333333334</ele><time>2026-04-08T13:01:18Z</time></trkpt><trkpt lat="45.67962944822434" lon="11.3161908711816"><ele>678.0</ele><time>2026-04-08T13:01:19Z</time></trkpt><trkpt lat="45.679712192848356" lon="11.316173850148484"><ele>679.6666666666666</ele><time>2026-04-08T13:01:20Z</time></trkpt><trkpt lat="45.6798426996328" lon="11.316160757370627"><ele>681.3333333333334</ele><time>2026-04-08T13:01:22Z</time></trkpt><trkpt lat="45.679907176162935" lon="11.31616196239277"><ele>683.0</ele><time>2026-04-08T13:01:23Z</time></trkpt><trkpt lat="45.6799706341386" lon="11.316180519032885"><ele>684.6666666666667</ele><time>2026-04-08T13:01:24Z</time></trkpt><trkpt lat="45.68003245557" lon="11.316249420788315"><ele>686.3333333333334</ele><time>2026-04-08T13:01:27Z</time></trkpt><trkpt lat="45.68009652102799" lon="11.316340295894689"><ele>688.0</ele><time>2026-04-08T13:01:30Z</time></trkpt><trkpt lat="45.68017459628352" lon="11.316304930153766"><ele>688.0</ele><time>2026-04-08T13:01:34Z</time></trkpt><trkpt lat="45.68024480423577" lon="11.316199143916544"><ele>688.0</ele><time>2026-04-08T13:01:36Z</time></trkpt><trkpt lat="45.6803522613313" lon="11.316093320328793"><ele>688.0</ele><time>2026-04-08T13:01:38Z</time></trkpt><trkpt lat="45.680466821577696" lon="11.315979288337624"><ele>688.0</ele><time>2026-04-08T13:01:40Z</time></trkpt><trkpt lat="45.6805227986349" lon="11.315912428829579"><ele>688.0</ele><time>2026-04-08T13:01:41Z</time></trkpt><trkpt lat="45.680605099927575" lon="11.315806505665131"><ele>688.5999999999999</ele><time>2026-04-08T13:01:43Z</time></trkpt><trkpt lat="45.680665261514704" lon="11.315733468072562"><ele>689.1999999999999</ele><time>2026-04-08T13:01:44Z</time></trkpt><trkpt lat="45.68074243259407" lon="11.31568402342359"><ele>689.8</ele><time>2026-04-08T13:01:45Z</time></trkpt><trkpt lat="45.68082491038398" lon="11.31561754528806"><ele>690.4</ele><time>2026-04-08T13:01:46Z</time></trkpt><trkpt lat="45.68092537428265" lon="11.31555067370938"><ele>691.0</ele><time>2026-04-08T13:01:48Z</time></trkpt><trkpt lat="45.68100330342798" lon="11.315465857631569"><ele>691.1666666666667</ele><time>2026-04-08T13:01:50Z</time></trkpt><trkpt lat="45.681050554906946" lon="11.315399167839177"><ele>691.3333333333334</ele><time>2026-04-08T13:01:51Z</time></trkpt><trkpt lat="45.68110534878166" lon="11.31529826832802"><ele>691.5</ele><time>2026-04-08T13:01:53Z</time></trkpt><trkpt lat="45.681180740431614" lon="11.315226802398946"><ele>691.6666666666666</ele><time>2026-04-08T13:01:54Z</time></trkpt><trkpt lat="45.6812381599386" lon="11.315179156509263"><ele>691.8333333333333</ele><time>2026-04-08T13:01:55Z</time></trkpt><trkpt lat="45.68130073812067" lon="11.31511922580626"><ele>692.0</ele><time>2026-04-08T13:01:56Z</time></trkpt><trkpt lat="45.6813938096798" lon="11.315063246305693"><ele>692.0</ele><time>2026-04-08T13:01:58Z</time></trkpt><trkpt lat="45.68143783259445" lon="11.314975465237552"><ele>692.0</ele><time>2026-04-08T13:02:00Z</time></trkpt><trkpt lat="45.68148361871328" lon="11.314813952995069"><ele>692.0</ele><time>2026-04-08T13:02:02Z</time></trkpt><trkpt lat="45.68151693371077" lon="11.314731570141523"><ele>692.0</ele><time>2026-04-08T13:02:03Z</time></trkpt><trkpt lat="45.68158440507228" lon="11.314610251427988"><ele>692.0</ele><time>2026-04-08T13:02:05Z</time></trkpt><trkpt lat="45.68162985979731" lon="11.314540194322186"><ele>692.0</ele><time>2026-04-08T13:02:06Z</time></trkpt><trkpt lat="45.681671459475105" lon="11.314467990370026"><ele>691.8333333333333</ele><time>2026-04-08T13:02:07Z</time></trkpt><trkpt lat="45.68171154948065" lon="11.314393393652177"><ele>691.6666666666666</ele><time>2026-04-08T13:02:08Z</time></trkpt><trkpt lat="45.681745957574954" lon="11.314281850959564"><ele>691.5</ele><time>2026-04-08T13:02:09Z</time></trkpt><trkpt lat="45.68177844866199" lon="11.314195374685621"><ele>691.3333333333334</ele><time>2026-04-08T13:02:10Z</time></trkpt><trkpt lat="45.681797830707026" lon="11.31406658772418"><ele>691.1666666666667</ele><time>2026-04-08T13:02:12Z</time></trkpt><trkpt lat="45.681804798879654" lon="11.313883086599136"><ele>691.0</ele><time>2026-04-08T13:02:14Z</time></trkpt><trkpt lat="45.68180697931335" lon="11.31376679001231"><ele>690.4</ele><time>2026-04-08T13:02:15Z</time></trkpt><trkpt lat="45.681762915928566" lon="11.313637982447485"><ele>689.8</ele><time>2026-04-08T13:02:17Z</time></trkpt><trkpt lat="45.68168534988819" lon="11.313498114554877"><ele>689.1999999999999</ele><time>2026-04-08T13:02:19Z</time></trkpt><trkpt lat="45.68164292632373" lon="11.313398700737567"><ele>688.5999999999999</ele><time>2026-04-08T13:02:20Z</time></trkpt><trkpt lat="45.68164754850663" lon="11.313303667876148"><ele>688.0</ele><time>2026-04-08T13:02:21Z</time></trkpt><trkpt lat="45.68163351218718" lon="11.313158127544142"><ele>687.2</ele><time>2026-04-08T13:02:22Z</time></trkpt><trkpt lat="45.681591583858605" lon="11.312962577702452"><ele>686.4</ele><time>2026-04-08T13:02:24Z</time></trkpt><trkpt lat="45.68155323551862" lon="11.312802049702036"><ele>685.6</ele><time>2026-04-08T13:02:26Z</time></trkpt><trkpt lat="45.681541768346264" lon="11.31270767901544"><ele>684.8000000000001</ele><time>2026-04-08T13:02:27Z</time></trkpt><trkpt lat="45.68153781662614" lon="11.312616007945682"><ele>684.0</ele><time>2026-04-08T13:02:28Z</time></trkpt><trkpt lat="45.68152930238356" lon="11.31249954001645"><ele>684.0</ele><time>2026-04-08T13:02:29Z</time></trkpt><trkpt lat="45.68150814894383" lon="11.312320769352757"><ele>684.0</ele><time>2026-04-08T13:02:31Z</time></trkpt><trkpt lat="45.681527079410536" lon="11.312159870500933"><ele>684.0</ele><time>2026-04-08T13:02:33Z</time></trkpt><trkpt lat="45.681583720414764" lon="11.311996624753254"><ele>684.0</ele><time>2026-04-08T13:02:35Z</time></trkpt><trkpt lat="45.681606534553815" lon="11.311907484954785"><ele>684.0</ele><time>2026-04-08T13:02:36Z</time></trkpt><trkpt lat="45.6816631430622" lon="11.31179862318969"><ele>682.5</ele><time>2026-04-08T13:02:37Z</time></trkpt><trkpt lat="45.68170283560641" lon="11.31170240698981"><ele>681.0</ele><time>2026-04-08T13:02:38Z</time></trkpt><trkpt lat="45.681739364993454" lon="11.311599144782305"><ele>679.5</ele><time>2026-04-08T13:02:39Z</time></trkpt><trkpt lat="45.68178091532814" lon="11.31149024259903"><ele>678.0</ele><time>2026-04-08T13:02:40Z</time></trkpt><trkpt lat="45.68181286922332" lon="11.311385168651464"><ele>676.5</ele><time>2026-04-08T13:02:41Z</time></trkpt><trkpt lat="45.68186118608584" lon="11.311295924311684"><ele>675.0</ele><time>2026-04-08T13:02:42Z</time></trkpt><trkpt lat="45.68189969066565" lon="11.311214433404597"><ele>674.8333333333334</ele><time>2026-04-08T13:02:43Z</time></trkpt><trkpt lat="45.681945465883764" lon="11.311141415509221"><ele>674.6666666666666</ele><time>2026-04-08T13:02:44Z</time></trkpt><trkpt lat="45.68199377434397" lon="11.311050036577349"><ele>674.5</ele><time>2026-04-08T13:02:45Z</time></trkpt><trkpt lat="45.68205964801707" lon="11.310953514165394"><ele>674.3333333333333</ele><time>2026-04-08T13:02:46Z</time></trkpt><trkpt lat="45.682116455396276" lon="11.31085885188214"><ele>674.1666666666666</ele><time>2026-04-08T13:02:47Z</time></trkpt><trkpt lat="45.68215193403606" lon="11.310778840543913"><ele>674.0</ele><time>2026-04-08T13:02:48Z</time></trkpt><trkpt lat="45.68222230689126" lon="11.310674992552155"><ele>674.0</ele><time>2026-04-08T13:02:50Z</time></trkpt><trkpt lat="45.682282568342444" lon="11.310640229654407"><ele>674.0</ele><time>2026-04-08T13:02:51Z</time></trkpt><trkpt lat="45.68240213759865" lon="11.310647299401914"><ele>674.0</ele><time>2026-04-08T13:02:53Z</time></trkpt><trkpt lat="45.68247278600989" lon="11.310633471447403"><ele>674.0</ele><time>2026-04-08T13:02:54Z</time></trkpt><trkpt lat="45.68254269836441" lon="11.310605422697082"><ele>674.0</ele><time>2026-04-08T13:02:55Z</time></trkpt><trkpt lat="45.68260914588666" lon="11.310568356416342"><ele>674.0</ele><time>2026-04-08T13:02:56Z</time></trkpt><trkpt lat="45.68267827601358" lon="11.310514364198289"><ele>669.2</ele><time>2026-04-08T13:02:57Z</time></trkpt><trkpt lat="45.682746908601096" lon="11.310454651617821"><ele>664.4000000000001</ele><time>2026-04-08T13:02:58Z</time></trkpt><trkpt lat="45.682820968914285" lon="11.310396451916047"><ele>659.6</ele><time>2026-04-08T13:02:59Z</time></trkpt><trkpt lat="45.682939191533386" lon="11.310301709233867"><ele>654.8</ele><time>2026-04-08T13:03:01Z</time></trkpt><trkpt lat="45.68302387527236" lon="11.31018805541476"><ele>650.0</ele><time>2026-04-08T13:03:03Z</time></trkpt><trkpt lat="45.68307861063858" lon="11.31011670095837"><ele>649.2</ele><time>2026-04-08T13:03:04Z</time></trkpt><trkpt lat="45.683128851161484" lon="11.31005566256068"><ele>648.4</ele><time>2026-04-08T13:03:05Z</time></trkpt><trkpt lat="45.6832311208003" lon="11.309950122305045"><ele>647.5999999999999</ele><time>2026-04-08T13:03:07Z</time></trkpt><trkpt lat="45.6833136660207" lon="11.309886078250267"><ele>646.8</ele><time>2026-04-08T13:03:09Z</time></trkpt><trkpt lat="45.68341605601223" lon="11.30988014166176"><ele>646.0</ele><time>2026-04-08T13:03:11Z</time></trkpt><trkpt lat="45.68348448444788" lon="11.309880150435227"><ele>646.0</ele><time>2026-04-08T13:03:12Z</time></trkpt><trkpt lat="45.68356363898742" lon="11.30986791119271"><ele>646.0</ele><time>2026-04-08T13:03:13Z</time></trkpt><trkpt lat="45.68362658876316" lon="11.309851495159908"><ele>646.0</ele><time>2026-04-08T13:03:14Z</time></trkpt><trkpt lat="45.68372991870641" lon="11.309828435679266"><ele>646.0</ele><time>2026-04-08T13:03:16Z</time></trkpt><trkpt lat="45.683825981374426" lon="11.30977952542826"><ele>646.0</ele><time>2026-04-08T13:03:18Z</time></trkpt><trkpt lat="45.68388890243882" lon="11.30978258046643"><ele>646.0</ele><time>2026-04-08T13:03:20Z</time></trkpt><trkpt lat="45.68400472195757" lon="11.30968232519949"><ele>644.0</ele><time>2026-04-08T13:03:22Z</time></trkpt><trkpt lat="45.68402416729065" lon="11.309595148904874"><ele>642.0</ele><time>2026-04-08T13:03:24Z</time></trkpt><trkpt lat="45.68393871071421" lon="11.309553735629104"><ele>640.0</ele><time>2026-04-08T13:21:02Z</time></trkpt><trkpt lat="45.684023092094364" lon="11.30942550836671"><ele>638.0</ele><time>2026-04-08T13:21:15Z</time></trkpt><trkpt lat="45.684062892674675" lon="11.309315805558787"><ele>636.0</ele><time>2026-04-08T13:21:16Z</time></trkpt><trkpt lat="45.68406951220866" lon="11.30916740608047"><ele>636.0</ele><time>2026-04-08T13:21:18Z</time></trkpt><trkpt lat="45.68408397071452" lon="11.309006982799826"><ele>636.0</ele><time>2026-04-08T13:21:20Z</time></trkpt><trkpt lat="45.68414941691399" lon="11.308927739003641"><ele>636.0</ele><time>2026-04-08T13:21:21Z</time></trkpt><trkpt lat="45.68417785742774" lon="11.308839355626699"><ele>636.0</ele><time>2026-04-08T13:21:22Z</time></trkpt><trkpt lat="45.68421178740581" lon="11.308737859455302"><ele>636.0</ele><time>2026-04-08T13:21:23Z</time></trkpt><trkpt lat="45.68424731536192" lon="11.308637169939104"><ele>636.0</ele><time>2026-04-08T13:21:24Z</time></trkpt><trkpt lat="45.68428734673022" lon="11.30853519711574"><ele>636.0</ele><time>2026-04-08T13:21:25Z</time></trkpt><trkpt lat="45.6843490711284" lon="11.308400320223658"><ele>636.0</ele><time>2026-04-08T13:21:27Z</time></trkpt><trkpt lat="45.68438479843599" lon="11.308324951228705"><ele>636.0</ele><time>2026-04-08T13:21:29Z</time></trkpt><trkpt lat="45.684398260968614" lon="11.308181008949912"><ele>636.0</ele><time>2026-04-08T13:21:32Z</time></trkpt><trkpt lat="45.68443293485697" lon="11.308087582039539"><ele>636.0</ele><time>2026-04-08T13:21:33Z</time></trkpt><trkpt lat="45.68446948875556" lon="11.307989089147046"><ele>636.0</ele><time>2026-04-08T13:21:34Z</time></trkpt><trkpt lat="45.684493532572915" lon="11.30789652961772"><ele>636.1666666666666</ele><time>2026-04-08T13:21:35Z</time></trkpt><trkpt lat="45.68455029751245" lon="11.307763341571718"><ele>636.3333333333334</ele><time>2026-04-08T13:21:36Z</time></trkpt><trkpt lat="45.684608030184094" lon="11.307662509219337"><ele>636.5</ele><time>2026-04-08T13:21:37Z</time></trkpt><trkpt lat="45.68466139234796" lon="11.307566393356256"><ele>636.6666666666667</ele><time>2026-04-08T13:21:38Z</time></trkpt><trkpt lat="45.684706158241255" lon="11.30748161084809"><ele>636.8333333333334</ele><time>2026-04-08T13:21:39Z</time></trkpt><trkpt lat="45.684753488140814" lon="11.307374929705043"><ele>637.0</ele><time>2026-04-08T13:21:41Z</time></trkpt><trkpt lat="45.68477154149545" lon="11.307274656250542"><ele>639.0</ele><time>2026-04-08T13:21:43Z</time></trkpt><trkpt lat="45.68481922371915" lon="11.307104950784439"><ele>641.0</ele><time>2026-04-08T13:21:45Z</time></trkpt><trkpt lat="45.68484126212022" lon="11.307020179077202"><ele>643.0</ele><time>2026-04-08T13:21:46Z</time></trkpt><trkpt lat="45.684851441129176" lon="11.306919995574075"><ele>645.0</ele><time>2026-04-08T13:21:47Z</time></trkpt><trkpt lat="45.68486829155887" lon="11.306816968042293"><ele>647.0</ele><time>2026-04-08T13:21:48Z</time></trkpt><trkpt lat="45.68491081455726" lon="11.30666662030371"><ele>649.0</ele><time>2026-04-08T13:21:50Z</time></trkpt><trkpt lat="45.68526632946668" lon="11.306729061688356"><ele>650.8000000000001</ele><time>2026-04-08T13:21:52Z</time></trkpt><trkpt lat="45.68536357546114" lon="11.306727801477264"><ele>652.6</ele><time>2026-04-08T13:21:54Z</time></trkpt><trkpt lat="45.68547651277972" lon="11.306695922802799"><ele>654.4</ele><time>2026-04-08T13:21:56Z</time></trkpt><trkpt lat="45.68558668276754" lon="11.306656540732748"><ele>656.2</ele><time>2026-04-08T13:21:58Z</time></trkpt><trkpt lat="45.68569975028732" lon="11.306639503318095"><ele>658.0</ele><time>2026-04-08T13:22:00Z</time></trkpt><trkpt lat="45.68576248369981" lon="11.306604845553917"><ele>658.0</ele><time>2026-04-08T13:22:01Z</time></trkpt><trkpt lat="45.68587726391054" lon="11.306602482667364"><ele>658.0</ele><time>2026-04-08T13:22:03Z</time></trkpt><trkpt lat="45.68596912961178" lon="11.306588432590834"><ele>658.0</ele><time>2026-04-08T13:22:05Z</time></trkpt><trkpt lat="45.686068478051155" lon="11.30654627363791"><ele>658.0</ele><time>2026-04-08T13:22:07Z</time></trkpt><trkpt lat="45.68616255777684" lon="11.306478064166374"><ele>658.0</ele><time>2026-04-08T13:22:09Z</time></trkpt><trkpt lat="45.68620943396755" lon="11.306412445799403"><ele>662.3333333333334</ele><time>2026-04-08T13:22:10Z</time></trkpt><trkpt lat="45.686253379788056" lon="11.306345470039037"><ele>666.6666666666667</ele><time>2026-04-08T13:22:11Z</time></trkpt><trkpt lat="45.68631601693433" lon="11.306284743856267"><ele>671.0</ele><time>2026-04-08T13:22:12Z</time></trkpt><trkpt lat="45.68638703472987" lon="11.30622055176182"><ele>675.3333333333334</ele><time>2026-04-08T13:22:13Z</time></trkpt><trkpt lat="45.686475078152654" lon="11.30615902728228"><ele>679.6666666666666</ele><time>2026-04-08T13:22:14Z</time></trkpt><trkpt lat="45.686552899845076" lon="11.306075539498869"><ele>684.0</ele><time>2026-04-08T13:22:15Z</time></trkpt><trkpt lat="45.686659653252924" lon="11.305968895584153"><ele>684.0</ele><time>2026-04-08T13:22:17Z</time></trkpt><trkpt lat="45.686769701630524" lon="11.30588075531267"><ele>684.0</ele><time>2026-04-08T13:22:19Z</time></trkpt><trkpt lat="45.68685281174697" lon="11.305802811179905"><ele>684.0</ele><time>2026-04-08T13:22:21Z</time></trkpt><trkpt lat="45.68694018361961" lon="11.305811323272241"><ele>684.0</ele><time>2026-04-08T13:22:24Z</time></trkpt><trkpt lat="45.68697186202333" lon="11.305905821801884"><ele>684.0</ele><time>2026-04-08T13:22:26Z</time></trkpt><trkpt lat="45.686956521031064" lon="11.30603146757593"><ele>684.0</ele><time>2026-04-08T13:22:28Z</time></trkpt><trkpt lat="45.68693728272185" lon="11.306131797198512"><ele>684.0</ele><time>2026-04-08T13:22:29Z</time></trkpt><trkpt lat="45.68692059580802" lon="11.306305265148678"><ele>684.0</ele><time>2026-04-08T13:22:31Z</time></trkpt><trkpt lat="45.68691272624179" lon="11.306466731729003"><ele>684.0</ele><time>2026-04-08T13:22:33Z</time></trkpt><trkpt lat="45.686913033727535" lon="11.306557444275942"><ele>684.0</ele><time>2026-04-08T13:22:34Z</time></trkpt><trkpt lat="45.68693369287724" lon="11.306645898528227"><ele>684.0</ele><time>2026-04-08T13:22:35Z</time></trkpt><trkpt lat="45.6869602604788" lon="11.306732881009719"><ele>682.8333333333334</ele><time>2026-04-08T13:22:36Z</time></trkpt><trkpt lat="45.68697668733537" lon="11.30682702008582"><ele>681.6666666666666</ele><time>2026-04-08T13:22:37Z</time></trkpt><trkpt lat="45.687005119421556" lon="11.306917324122535"><ele>680.5</ele><time>2026-04-08T13:22:38Z</time></trkpt><trkpt lat="45.68702195572156" lon="11.307011136124723"><ele>679.3333333333333</ele><time>2026-04-08T13:22:39Z</time></trkpt><trkpt lat="45.68703099716427" lon="11.307125797200069"><ele>678.1666666666666</ele><time>2026-04-08T13:22:40Z</time></trkpt><trkpt lat="45.68702817037225" lon="11.307219959854633"><ele>677.0</ele><time>2026-04-08T13:22:41Z</time></trkpt><trkpt lat="45.68703245432569" lon="11.307388083277953"><ele>677.0</ele><time>2026-04-08T13:22:43Z</time></trkpt><trkpt lat="45.687056894542835" lon="11.307538435831693"><ele>677.0</ele><time>2026-04-08T13:22:45Z</time></trkpt><trkpt lat="45.687075806467945" lon="11.307627382773095"><ele>677.0</ele><time>2026-04-08T13:22:46Z</time></trkpt><trkpt lat="45.68714024819599" lon="11.307722725085005"><ele>677.0</ele><time>2026-04-08T13:22:48Z</time></trkpt><trkpt lat="45.687194714784575" lon="11.307775476276046"><ele>677.0</ele><time>2026-04-08T13:22:49Z</time></trkpt><trkpt lat="45.68725342445025" lon="11.307836845572595"><ele>677.0</ele><time>2026-04-08T13:22:50Z</time></trkpt><trkpt lat="45.68730288418024" lon="11.307900429295538"><ele>677.0</ele><time>2026-04-08T13:22:51Z</time></trkpt><trkpt lat="45.68736648565814" lon="11.308028901890175"><ele>677.0</ele><time>2026-04-08T13:22:53Z</time></trkpt><trkpt lat="45.687371319446115" lon="11.308173953099791"><ele>677.0</ele><time>2026-04-08T13:22:55Z</time></trkpt><trkpt lat="45.68739696048732" lon="11.308272689607115"><ele>677.0</ele><time>2026-04-08T13:22:56Z</time></trkpt><trkpt lat="45.687435339359816" lon="11.308361894929604"><ele>677.0</ele><time>2026-04-08T13:22:57Z</time></trkpt><trkpt lat="45.68753745183831" lon="11.308468348675602"><ele>675.2</ele><time>2026-04-08T13:22:59Z</time></trkpt><trkpt lat="45.68763755398085" lon="11.308536995308016"><ele>673.4000000000001</ele><time>2026-04-08T13:23:01Z</time></trkpt><trkpt lat="45.687765114640385" lon="11.308531734261356"><ele>671.5999999999999</ele><time>2026-04-08T13:23:03Z</time></trkpt><trkpt lat="45.68782643648056" lon="11.308509806865539"><ele>669.8</ele><time>2026-04-08T13:23:04Z</time></trkpt><trkpt lat="45.687944083747574" lon="11.308427580584663"><ele>668.0</ele><time>2026-04-08T13:23:06Z</time></trkpt><trkpt lat="45.68801230970052" lon="11.308380983979085"><ele>668.0</ele><time>2026-04-08T13:23:07Z</time></trkpt><trkpt lat="45.688123950805654" lon="11.308304453331358"><ele>668.0</ele><time>2026-04-08T13:23:09Z</time></trkpt><trkpt lat="45.688204164928344" lon="11.3082513926819"><ele>668.0</ele><time>2026-04-08T13:23:10Z</time></trkpt><trkpt lat="45.68828892848407" lon="11.308238578069597"><ele>668.0</ele><time>2026-04-08T13:23:11Z</time></trkpt><trkpt lat="45.68835811660425" lon="11.308266448897903"><ele>668.0</ele><time>2026-04-08T13:23:12Z</time></trkpt><trkpt lat="45.68844416098002" lon="11.308289813560357"><ele>668.0</ele><time>2026-04-08T13:23:13Z</time></trkpt><trkpt lat="45.68854776114232" lon="11.308299553777818"><ele>668.0</ele><time>2026-04-08T13:23:14Z</time></trkpt><trkpt lat="45.68863472935905" lon="11.308303024372549"><ele>668.0</ele><time>2026-04-08T13:23:15Z</time></trkpt><trkpt lat="45.68871956679044" lon="11.308312978646882"><ele>668.0</ele><time>2026-04-08T13:23:16Z</time></trkpt><trkpt lat="45.68881966689922" lon="11.308318813502858"><ele>668.0</ele><time>2026-04-08T13:23:17Z</time></trkpt><trkpt lat="45.68889736572039" lon="11.308334548756497"><ele>670.5999999999999</ele><time>2026-04-08T13:23:18Z</time></trkpt><trkpt lat="45.68897487536007" lon="11.308359432193924"><ele>673.1999999999999</ele><time>2026-04-08T13:23:19Z</time></trkpt><trkpt lat="45.68905140330093" lon="11.30838620903525"><ele>675.8</ele><time>2026-04-08T13:23:20Z</time></trkpt><trkpt lat="45.68912324665938" lon="11.30841100795319"><ele>678.4</ele><time>2026-04-08T13:23:21Z</time></trkpt><trkpt lat="45.689219732587695" lon="11.30841801342443"><ele>681.0</ele><time>2026-04-08T13:23:23Z</time></trkpt><trkpt lat="45.689373426925734" lon="11.308456509906325"><ele>683.1999999999999</ele><time>2026-04-08T13:23:26Z</time></trkpt><trkpt lat="45.68947329693886" lon="11.308409333753422"><ele>685.4</ele><time>2026-04-08T13:23:27Z</time></trkpt><trkpt lat="45.68955847537956" lon="11.308392445845666"><ele>687.6</ele><time>2026-04-08T13:23:28Z</time></trkpt><trkpt lat="45.68966059548813" lon="11.308388959253328"><ele>689.8</ele><time>2026-04-08T13:23:29Z</time></trkpt><trkpt lat="45.68976566339863" lon="11.308398970450295"><ele>692.0</ele><time>2026-04-08T13:23:30Z</time></trkpt><trkpt lat="45.689839966119926" lon="11.308422204465561"><ele>692.0</ele><time>2026-04-08T13:23:31Z</time></trkpt><trkpt lat="45.68990565114341" lon="11.308480397786647"><ele>692.0</ele><time>2026-04-08T13:23:32Z</time></trkpt><trkpt lat="45.6899728610235" lon="11.308544638315976"><ele>692.0</ele><time>2026-04-08T13:23:33Z</time></trkpt><trkpt lat="45.69003251348915" lon="11.308618180140042"><ele>692.0</ele><time>2026-04-08T13:23:34Z</time></trkpt><trkpt lat="45.6901105896903" lon="11.308689490065003"><ele>692.0</ele><time>2026-04-08T13:23:35Z</time></trkpt><trkpt lat="45.690165431382674" lon="11.308739742942679"><ele>692.0</ele><time>2026-04-08T13:23:36Z</time></trkpt><trkpt lat="45.69022946496009" lon="11.308789264677726"><ele>693.8</ele><time>2026-04-08T13:23:37Z</time></trkpt><trkpt lat="45.690314940699665" lon="11.308821020041094"><ele>695.6</ele><time>2026-04-08T13:23:38Z</time></trkpt><trkpt lat="45.69038602844763" lon="11.308837976270985"><ele>697.4</ele><time>2026-04-08T13:23:39Z</time></trkpt><trkpt lat="45.69052376531288" lon="11.308868092613183"><ele>699.1999999999999</ele><time>2026-04-08T13:23:41Z</time></trkpt><trkpt lat="45.69059054292779" lon="11.308913912967684"><ele>701.0</ele><time>2026-04-08T13:23:42Z</time></trkpt><trkpt lat="45.69065914268762" lon="11.308962933308276"><ele>696.0</ele><time>2026-04-08T13:23:43Z</time></trkpt><trkpt lat="45.69072118360336" lon="11.309033662787135"><ele>691.0</ele><time>2026-04-08T13:23:44Z</time></trkpt><trkpt lat="45.69076625121783" lon="11.309110941549152"><ele>686.0</ele><time>2026-04-08T13:23:45Z</time></trkpt><trkpt lat="45.69080712790488" lon="11.309188754421944"><ele>681.0</ele><time>2026-04-08T13:23:46Z</time></trkpt><trkpt lat="45.6908945812509" lon="11.309294911257664"><ele>676.0</ele><time>2026-04-08T13:23:48Z</time></trkpt><trkpt lat="45.69101099081624" lon="11.309292581124497"><ele>671.0</ele><time>2026-04-08T13:23:51Z</time></trkpt><trkpt lat="45.69108961802815" lon="11.309276226993747"><ele>672.6666666666666</ele><time>2026-04-08T13:23:52Z</time></trkpt><trkpt lat="45.691158770677404" lon="11.309265856431137"><ele>674.3333333333333</ele><time>2026-04-08T13:23:53Z</time></trkpt><trkpt lat="45.69124356781105" lon="11.309261383982168"><ele>676.0</ele><time>2026-04-08T13:23:54Z</time></trkpt><trkpt lat="45.69131875784213" lon="11.309256010900581"><ele>677.6666666666666</ele><time>2026-04-08T13:23:55Z</time></trkpt><trkpt lat="45.69140283048993" lon="11.30925848582505"><ele>679.3333333333334</ele><time>2026-04-08T13:23:56Z</time></trkpt><trkpt lat="45.69147404701814" lon="11.309280407619887"><ele>681.0</ele><time>2026-04-08T13:23:57Z</time></trkpt><trkpt lat="45.69153758198742" lon="11.30930859284544"><ele>681.0</ele><time>2026-04-08T13:23:58Z</time></trkpt><trkpt lat="45.69161401201039" lon="11.309335034901636"><ele>681.0</ele><time>2026-04-08T13:23:59Z</time></trkpt><trkpt lat="45.691698077824086" lon="11.309357827633486"><ele>681.0</ele><time>2026-04-08T13:24:00Z</time></trkpt><trkpt lat="45.69177465829018" lon="11.309368578801777"><ele>681.0</ele><time>2026-04-08T13:24:01Z</time></trkpt><trkpt lat="45.69188514330966" lon="11.309360626136414"><ele>681.0</ele><time>2026-04-08T13:24:03Z</time></trkpt><trkpt lat="45.69194968934884" lon="11.30936179751888"><ele>681.0</ele><time>2026-04-08T13:24:04Z</time></trkpt><trkpt lat="45.6920302794684" lon="11.309364813868573"><ele>682.5999999999999</ele><time>2026-04-08T13:24:05Z</time></trkpt><trkpt lat="45.69211757541329" lon="11.309373836724308"><ele>684.2</ele><time>2026-04-08T13:24:06Z</time></trkpt><trkpt lat="45.69219400863617" lon="11.30939768456845"><ele>685.8</ele><time>2026-04-08T13:24:07Z</time></trkpt><trkpt lat="45.692259031198674" lon="11.309404619863548"><ele>687.4000000000001</ele><time>2026-04-08T13:24:08Z</time></trkpt><trkpt lat="45.692403356293035" lon="11.309410321230438"><ele>689.0</ele><time>2026-04-08T13:24:10Z</time></trkpt><trkpt lat="45.69249597904668" lon="11.30941727952834"><ele>689.0</ele><time>2026-04-08T13:24:11Z</time></trkpt><trkpt lat="45.692570279023236" lon="11.309416630730285"><ele>689.0</ele><time>2026-04-08T13:24:12Z</time></trkpt><trkpt lat="45.692642951098904" lon="11.309419304784523"><ele>689.0</ele><time>2026-04-08T13:24:13Z</time></trkpt><trkpt lat="45.6927310476974" lon="11.309434288962356"><ele>689.0</ele><time>2026-04-08T13:24:14Z</time></trkpt><trkpt lat="45.69280421676491" lon="11.309443617562891"><ele>689.0</ele><time>2026-04-08T13:24:15Z</time></trkpt><trkpt lat="45.69288724213742" lon="11.309456216121688"><ele>689.0</ele><time>2026-04-08T13:24:16Z</time></trkpt><trkpt lat="45.69298739590808" lon="11.309482993360394"><ele>689.1666666666666</ele><time>2026-04-08T13:24:17Z</time></trkpt><trkpt lat="45.69307620236001" lon="11.309506369058978"><ele>689.3333333333333</ele><time>2026-04-08T13:24:18Z</time></trkpt><trkpt lat="45.69316912977551" lon="11.30954006851561"><ele>689.5</ele><time>2026-04-08T13:24:19Z</time></trkpt><trkpt lat="45.69326130510191" lon="11.309570557183948"><ele>689.6666666666666</ele><time>2026-04-08T13:24:20Z</time></trkpt><trkpt lat="45.69333005903805" lon="11.309605667822016"><ele>689.8333333333334</ele><time>2026-04-08T13:24:21Z</time></trkpt><trkpt lat="45.693390370281655" lon="11.309636841938726"><ele>690.0</ele><time>2026-04-08T13:24:22Z</time></trkpt><trkpt lat="45.69349663714259" lon="11.309643247830268"><ele>686.5</ele><time>2026-04-08T13:24:24Z</time></trkpt><trkpt lat="45.69361979781216" lon="11.309606019653108"><ele>683.0</ele><time>2026-04-08T13:24:26Z</time></trkpt><trkpt lat="45.693690113322695" lon="11.309591259657314"><ele>679.5</ele><time>2026-04-08T13:24:27Z</time></trkpt><trkpt lat="45.69375952800199" lon="11.30953534433168"><ele>676.0</ele><time>2026-04-08T13:24:28Z</time></trkpt><trkpt lat="45.69382052401776" lon="11.309491677742843"><ele>672.5</ele><time>2026-04-08T13:24:29Z</time></trkpt><trkpt lat="45.6938761169146" lon="11.309448056421255"><ele>669.0</ele><time>2026-04-08T13:24:30Z</time></trkpt><trkpt lat="45.69397240708827" lon="11.309340610882611"><ele>669.0</ele><time>2026-04-08T13:24:32Z</time></trkpt><trkpt lat="45.694024073432345" lon="11.309279448854685"><ele>669.0</ele><time>2026-04-08T13:24:33Z</time></trkpt><trkpt lat="45.69408300344198" lon="11.309220007828365"><ele>669.0</ele><time>2026-04-08T13:24:34Z</time></trkpt><trkpt lat="45.69414693339968" lon="11.309157459326558"><ele>669.0</ele><time>2026-04-08T13:24:35Z</time></trkpt><trkpt lat="45.694221237179455" lon="11.309031068870025"><ele>669.0</ele><time>2026-04-08T13:24:37Z</time></trkpt><trkpt lat="45.694259521586005" lon="11.308921837208844"><ele>669.0</ele><time>2026-04-08T13:24:38Z</time></trkpt><trkpt lat="45.69430563087734" lon="11.308845340082712"><ele>669.1428571428571</ele><time>2026-04-08T13:24:39Z</time></trkpt><trkpt lat="45.694325593904715" lon="11.308744056014065"><ele>669.2857142857142</ele><time>2026-04-08T13:24:40Z</time></trkpt><trkpt lat="45.694314001582825" lon="11.308610615433524"><ele>669.4285714285713</ele><time>2026-04-08T13:24:42Z</time></trkpt><trkpt lat="45.69428229266906" lon="11.308527153562586"><ele>669.5714285714286</ele><time>2026-04-08T13:24:44Z</time></trkpt><trkpt lat="45.69423929076257" lon="11.308446321372019"><ele>669.7142857142857</ele><time>2026-04-08T13:24:45Z</time></trkpt><trkpt lat="45.694207779212256" lon="11.308364018806829"><ele>669.8571428571428</ele><time>2026-04-08T13:24:46Z</time></trkpt><trkpt lat="45.69416039278955" lon="11.308290554105318"><ele>670.0</ele><time>2026-04-08T13:24:47Z</time></trkpt><trkpt lat="45.69410129622919" lon="11.308196540342145"><ele>670.0</ele><time>2026-04-08T13:24:48Z</time></trkpt><trkpt lat="45.694049520935195" lon="11.308116649884047"><ele>670.0</ele><time>2026-04-08T13:24:49Z</time></trkpt><trkpt lat="45.694014604199225" lon="11.308020862160035"><ele>670.0</ele><time>2026-04-08T13:24:50Z</time></trkpt><trkpt lat="45.693976636246155" lon="11.307919214501688"><ele>670.0</ele><time>2026-04-08T13:24:51Z</time></trkpt><trkpt lat="45.693921960159095" lon="11.307800192801976"><ele>670.0</ele><time>2026-04-08T13:24:53Z</time></trkpt><trkpt lat="45.69388824339417" lon="11.307710605673032"><ele>670.0</ele><time>2026-04-08T13:24:54Z</time></trkpt><trkpt lat="45.69386207380776" lon="11.307625806373519"><ele>666.5</ele><time>2026-04-08T13:24:55Z</time></trkpt><trkpt lat="45.6938324295368" lon="11.307543336404592"><ele>663.0</ele><time>2026-04-08T13:24:56Z</time></trkpt><trkpt lat="45.69376771345073" lon="11.307411989339892"><ele>659.5</ele><time>2026-04-08T13:24:58Z</time></trkpt><trkpt lat="45.69373778217949" lon="11.307331982327565"><ele>656.0</ele><time>2026-04-08T13:24:59Z</time></trkpt><trkpt lat="45.69365327866376" lon="11.307195440866797"><ele>652.5</ele><time>2026-04-08T13:25:01Z</time></trkpt><trkpt lat="45.69360301871716" lon="11.307137352890505"><ele>649.0</ele><time>2026-04-08T13:25:02Z</time></trkpt><trkpt lat="45.693561340152165" lon="11.30704472503488"><ele>656.5</ele><time>2026-04-08T13:25:03Z</time></trkpt><trkpt lat="45.69349889981516" lon="11.306932180942754"><ele>664.0</ele><time>2026-04-08T13:25:05Z</time></trkpt><trkpt lat="45.693456717250065" lon="11.30684658676185"><ele>671.5</ele><time>2026-04-08T13:25:06Z</time></trkpt><trkpt lat="45.693449238384275" lon="11.306725226439253"><ele>679.0</ele><time>2026-04-08T13:25:07Z</time></trkpt><trkpt lat="45.69342629649776" lon="11.306599270100653"><ele>686.5</ele><time>2026-04-08T13:25:08Z</time></trkpt><trkpt lat="45.6934203592239" lon="11.306503011913628"><ele>694.0</ele><time>2026-04-08T13:25:09Z</time></trkpt><trkpt lat="45.69342218801304" lon="11.306412220501057"><ele>691.8333333333334</ele><time>2026-04-08T13:25:10Z</time></trkpt><trkpt lat="45.69340999983526" lon="11.306307661960519"><ele>689.6666666666667</ele><time>2026-04-08T13:25:11Z</time></trkpt><trkpt lat="45.693397132753496" lon="11.30620065032931"><ele>687.5</ele><time>2026-04-08T13:25:12Z</time></trkpt><trkpt lat="45.69340389527617" lon="11.306095105929643"><ele>685.3333333333334</ele><time>2026-04-08T13:25:13Z</time></trkpt><trkpt lat="45.69337943882772" lon="11.305929050638863"><ele>683.1666666666666</ele><time>2026-04-08T13:25:15Z</time></trkpt><trkpt lat="45.6933618177348" lon="11.305839945336109"><ele>681.0</ele><time>2026-04-08T13:25:16Z</time></trkpt><trkpt lat="45.69334347244392" lon="11.30574257472912"><ele>681.0</ele><time>2026-04-08T13:25:17Z</time></trkpt><trkpt lat="45.69333844187369" lon="11.305619005915089"><ele>681.0</ele><time>2026-04-08T13:25:18Z</time></trkpt><trkpt lat="45.693310962169996" lon="11.305504760426345"><ele>681.0</ele><time>2026-04-08T13:25:19Z</time></trkpt><trkpt lat="45.69327461834169" lon="11.30541917359047"><ele>681.0</ele><time>2026-04-08T13:25:20Z</time></trkpt><trkpt lat="45.6932252398812" lon="11.305327936290805"><ele>681.0</ele><time>2026-04-08T13:25:21Z</time></trkpt><trkpt lat="45.69320097781853" lon="11.305193870706349"><ele>681.0</ele><time>2026-04-08T13:25:23Z</time></trkpt><trkpt lat="45.69321644868052" lon="11.30506537269264"><ele>677.8333333333334</ele><time>2026-04-08T13:25:25Z</time></trkpt><trkpt lat="45.69319958462413" lon="11.304962894466039"><ele>674.6666666666666</ele><time>2026-04-08T13:25:27Z</time></trkpt><trkpt lat="45.693116220051635" lon="11.304881226296928"><ele>671.5</ele><time>2026-04-08T13:25:29Z</time></trkpt><trkpt lat="45.693019344616594" lon="11.304849059724573"><ele>668.3333333333333</ele><time>2026-04-08T13:25:31Z</time></trkpt><trkpt lat="45.69294418409076" lon="11.304819787727856"><ele>665.1666666666666</ele><time>2026-04-08T13:25:32Z</time></trkpt><trkpt lat="45.69288103984776" lon="11.304788994312641"><ele>662.0</ele><time>2026-04-08T13:25:33Z</time></trkpt><trkpt lat="45.692821384232424" lon="11.304745266688922"><ele>670.6</ele><time>2026-04-08T13:25:34Z</time></trkpt><trkpt lat="45.69273080139311" lon="11.304655964340995"><ele>679.2</ele><time>2026-04-08T13:25:36Z</time></trkpt><trkpt lat="45.692685914938465" lon="11.304530068560506"><ele>687.8</ele><time>2026-04-08T13:25:38Z</time></trkpt><trkpt lat="45.69266538548606" lon="11.30437111826387"><ele>696.4</ele><time>2026-04-08T13:25:40Z</time></trkpt><trkpt lat="45.692678483477586" lon="11.304219960657285"><ele>705.0</ele><time>2026-04-08T13:25:42Z</time></trkpt><trkpt lat="45.692650461401016" lon="11.304111390721593"><ele>705.0</ele><time>2026-04-08T13:25:43Z</time></trkpt><trkpt lat="45.69262356387437" lon="11.304025711875331"><ele>705.0</ele><time>2026-04-08T13:25:44Z</time></trkpt><trkpt lat="45.69257296093996" lon="11.303902058780373"><ele>705.0</ele><time>2026-04-08T13:25:46Z</time></trkpt><trkpt lat="45.69254064901741" lon="11.303713553667547"><ele>705.0</ele><time>2026-04-08T13:25:48Z</time></trkpt><trkpt lat="45.69252318942795" lon="11.303517634397902"><ele>705.0</ele><time>2026-04-08T13:25:50Z</time></trkpt><trkpt lat="45.69252551129601" lon="11.303388456215256"><ele>705.5</ele><time>2026-04-08T13:25:51Z</time></trkpt><trkpt lat="45.69253176909818" lon="11.303289873726007"><ele>706.0</ele><time>2026-04-08T13:25:52Z</time></trkpt><trkpt lat="45.69258596102115" lon="11.303132527800766"><ele>706.5</ele><time>2026-04-08T13:25:54Z</time></trkpt><trkpt lat="45.69263498814404" lon="11.30304620350692"><ele>707.0</ele><time>2026-04-08T13:25:55Z</time></trkpt><trkpt lat="45.69267280984172" lon="11.30293823069887"><ele>707.5</ele><time>2026-04-08T13:25:56Z</time></trkpt><trkpt lat="45.69272358578284" lon="11.30284984001901"><ele>708.0</ele><time>2026-04-08T13:25:57Z</time></trkpt><trkpt lat="45.6927754118718" lon="11.302789970220388"><ele>706.0</ele><time>2026-04-08T13:25:59Z</time></trkpt><trkpt lat="45.692840167298286" lon="11.302682376131298"><ele>704.0</ele><time>2026-04-08T13:26:01Z</time></trkpt><trkpt lat="45.69290271517135" lon="11.302616338244958"><ele>702.0</ele><time>2026-04-08T13:26:02Z</time></trkpt><trkpt lat="45.69296392265829" lon="11.3025457762741"><ele>700.0</ele><time>2026-04-08T13:26:03Z</time></trkpt><trkpt lat="45.693007083518054" lon="11.302464895464619"><ele>698.0</ele><time>2026-04-08T13:26:04Z</time></trkpt><trkpt lat="45.693048903619655" lon="11.302311210800358"><ele>696.0</ele><time>2026-04-08T13:26:06Z</time></trkpt><trkpt lat="45.69309519107712" lon="11.302164677119741"><ele>696.0</ele><time>2026-04-08T13:26:08Z</time></trkpt><trkpt lat="45.693100108701245" lon="11.302068066706351"><ele>696.0</ele><time>2026-04-08T13:26:09Z</time></trkpt><trkpt lat="45.69313154630144" lon="11.301873269175053"><ele>696.0</ele><time>2026-04-08T13:26:11Z</time></trkpt><trkpt lat="45.69318884521821" lon="11.301802472280407"><ele>696.0</ele><time>2026-04-08T13:26:12Z</time></trkpt><trkpt lat="45.69325477506297" lon="11.301731812115724"><ele>696.0</ele><time>2026-04-08T13:26:13Z</time></trkpt><trkpt lat="45.693340992584396" lon="11.301589131080817"><ele>696.0</ele><time>2026-04-08T13:26:15Z</time></trkpt><trkpt lat="45.69339116814956" lon="11.301498182323341"><ele>696.0</ele><time>2026-04-08T13:26:16Z</time></trkpt><trkpt lat="45.69342182004871" lon="11.301416488936841"><ele>696.0</ele><time>2026-04-08T13:26:17Z</time></trkpt><trkpt lat="45.69345850711909" lon="11.301320652430652"><ele>696.0</ele><time>2026-04-08T13:26:18Z</time></trkpt><trkpt lat="45.69349202024714" lon="11.301219480972112"><ele>696.0</ele><time>2026-04-08T13:26:19Z</time></trkpt><trkpt lat="45.69353894355859" lon="11.301095920422316"><ele>696.0</ele><time>2026-04-08T13:26:20Z</time></trkpt><trkpt lat="45.69361366118415" lon="11.300975457897827"><ele>688.1999999999999</ele><time>2026-04-08T13:26:21Z</time></trkpt><trkpt lat="45.69366803003626" lon="11.300878509399555"><ele>680.4</ele><time>2026-04-08T13:26:22Z</time></trkpt><trkpt lat="45.69371443953122" lon="11.300799926986887"><ele>672.6</ele><time>2026-04-08T13:26:23Z</time></trkpt><trkpt lat="45.69375639102196" lon="11.300700952099133"><ele>664.8</ele><time>2026-04-08T13:26:24Z</time></trkpt><trkpt lat="45.693807055384916" lon="11.300531674741485"><ele>657.0</ele><time>2026-04-08T13:26:26Z</time></trkpt><trkpt lat="45.69379861468111" lon="11.300406613945842"><ele>656.0</ele><time>2026-04-08T13:26:28Z</time></trkpt><trkpt lat="45.6937385721081" lon="11.30035237058317"><ele>655.0</ele><time>2026-04-08T13:26:29Z</time></trkpt><trkpt lat="45.69367217804007" lon="11.300309074625355"><ele>654.0</ele><time>2026-04-08T13:26:31Z</time></trkpt><trkpt lat="45.69358128741807" lon="11.300231802760415"><ele>653.0</ele><time>2026-04-08T13:26:33Z</time></trkpt><trkpt lat="45.69350794732132" lon="11.300154309436001"><ele>652.0</ele><time>2026-04-08T13:26:35Z</time></trkpt><trkpt lat="45.693451842858494" lon="11.300090305194004"><ele>651.0</ele><time>2026-04-08T13:26:37Z</time></trkpt><trkpt lat="45.69339804054243" lon="11.300001705725"><ele>658.4</ele><time>2026-04-08T13:26:40Z</time></trkpt><trkpt lat="45.69336402231357" lon="11.299866025744013"><ele>665.8</ele><time>2026-04-08T13:26:43Z</time></trkpt><trkpt lat="45.69338199840555" lon="11.299694523635585"><ele>673.1999999999999</ele><time>2026-04-08T13:26:45Z</time></trkpt><trkpt lat="45.693398668991215" lon="11.29956003572122"><ele>680.5999999999999</ele><time>2026-04-08T13:26:47Z</time></trkpt><trkpt lat="45.6933519605472" lon="11.299415796297247"><ele>688.0</ele><time>2026-04-08T13:26:49Z</time></trkpt><trkpt lat="45.69326328909169" lon="11.299337286712966"><ele>688.0</ele><time>2026-04-08T13:26:51Z</time></trkpt><trkpt lat="45.69320937746058" lon="11.299282159829975"><ele>688.0</ele><time>2026-04-08T13:26:52Z</time></trkpt><trkpt lat="45.69312877076985" lon="11.299191639330271"><ele>688.0</ele><time>2026-04-08T13:26:54Z</time></trkpt><trkpt lat="45.69309161516224" lon="11.299048540775084"><ele>688.0</ele><time>2026-04-08T13:26:56Z</time></trkpt><trkpt lat="45.69308097797974" lon="11.298868164790871"><ele>688.0</ele><time>2026-04-08T13:26:58Z</time></trkpt><trkpt lat="45.69306046131887" lon="11.298754997962527"><ele>688.8</ele><time>2026-04-08T13:26:59Z</time></trkpt><trkpt lat="45.69302999772387" lon="11.298660248230483"><ele>689.5999999999999</ele><time>2026-04-08T13:27:00Z</time></trkpt><trkpt lat="45.69305305768025" lon="11.298521458222655"><ele>690.4000000000001</ele><time>2026-04-08T13:27:02Z</time></trkpt><trkpt lat="45.69315656813181" lon="11.29842684605076"><ele>691.2</ele><time>2026-04-08T13:27:04Z</time></trkpt><trkpt lat="45.69322965504137" lon="11.29835776263081"><ele>692.0</ele><time>2026-04-08T13:27:05Z</time></trkpt><trkpt lat="45.69329841395117" lon="11.298306922030031"><ele>692.0</ele><time>2026-04-08T13:27:06Z</time></trkpt><trkpt lat="45.69337583369164" lon="11.298173742290174"><ele>692.0</ele><time>2026-04-08T13:27:08Z</time></trkpt><trkpt lat="45.69341059814835" lon="11.29809531009588"><ele>692.0</ele><time>2026-04-08T13:27:09Z</time></trkpt><trkpt lat="45.693420391090754" lon="11.297966542307776"><ele>692.0</ele><time>2026-04-08T13:27:11Z</time></trkpt><trkpt lat="45.69336058835992" lon="11.297805314401469"><ele>692.0</ele><time>2026-04-08T13:27:13Z</time></trkpt><trkpt lat="45.693334408025386" lon="11.297706675738295"><ele>694.5</ele><time>2026-04-08T13:27:14Z</time></trkpt><trkpt lat="45.69330117021364" lon="11.297599425596065"><ele>697.0</ele><time>2026-04-08T13:27:15Z</time></trkpt><trkpt lat="45.69329221088803" lon="11.29749268114467"><ele>699.5</ele><time>2026-04-08T13:27:16Z</time></trkpt><trkpt lat="45.693311043336344" lon="11.297383341872889"><ele>702.0</ele><time>2026-04-08T13:27:17Z</time></trkpt><trkpt lat="45.693335789857414" lon="11.297264239640418"><ele>704.5</ele><time>2026-04-08T13:27:18Z</time></trkpt><trkpt lat="45.69337190990811" lon="11.297098384401323"><ele>707.0</ele><time>2026-04-08T13:27:20Z</time></trkpt><trkpt lat="45.69340523791674" lon="11.297018635839297"><ele>708.5</ele><time>2026-04-08T13:27:21Z</time></trkpt><trkpt lat="45.69345484604356" lon="11.296933439469463"><ele>710.0</ele><time>2026-04-08T13:27:22Z</time></trkpt><trkpt lat="45.693525178881245" lon="11.296842753602899"><ele>711.5</ele><time>2026-04-08T13:27:23Z</time></trkpt><trkpt lat="45.69359088674512" lon="11.296790957356349"><ele>713.0</ele><time>2026-04-08T13:27:24Z</time></trkpt><trkpt lat="45.69367854791446" lon="11.296703131025678"><ele>714.5</ele><time>2026-04-08T13:27:26Z</time></trkpt><trkpt lat="45.693686144746806" lon="11.29656983635585"><ele>716.0</ele><time>2026-04-08T13:27:28Z</time></trkpt><trkpt lat="45.69365147576714" lon="11.296492959876957"><ele>705.5999999999999</ele><time>2026-04-08T13:27:29Z</time></trkpt><trkpt lat="45.69359924537741" lon="11.296304496096756"><ele>695.2</ele><time>2026-04-08T13:27:31Z</time></trkpt><trkpt lat="45.693608959368376" lon="11.296168495030779"><ele>684.8</ele><time>2026-04-08T13:27:32Z</time></trkpt><trkpt lat="45.69362897761518" lon="11.296051609563584"><ele>674.4000000000001</ele><time>2026-04-08T13:27:33Z</time></trkpt><trkpt lat="45.69366338281007" lon="11.295941127795457"><ele>664.0</ele><time>2026-04-08T13:27:34Z</time></trkpt><trkpt lat="45.693703669969" lon="11.295844253994057"><ele>664.0</ele><time>2026-04-08T13:27:35Z</time></trkpt><trkpt lat="45.693745865859185" lon="11.295768046551592"><ele>664.0</ele><time>2026-04-08T13:27:36Z</time></trkpt><trkpt lat="45.69379310180443" lon="11.295693579994845"><ele>664.0</ele><time>2026-04-08T13:27:37Z</time></trkpt><trkpt lat="45.69381363396502" lon="11.295602928878049"><ele>664.0</ele><time>2026-04-08T13:27:38Z</time></trkpt><trkpt lat="45.69382831980087" lon="11.295497047640492"><ele>664.0</ele><time>2026-04-08T13:27:39Z</time></trkpt><trkpt lat="45.69380814536066" lon="11.295319574168452"><ele>664.0</ele><time>2026-04-08T13:27:41Z</time></trkpt><trkpt lat="45.69377357513503" lon="11.29522596865359"><ele>663.1666666666667</ele><time>2026-04-08T13:27:42Z</time></trkpt><trkpt lat="45.69372909309135" lon="11.295129443150547"><ele>662.3333333333334</ele><time>2026-04-08T13:27:43Z</time></trkpt><trkpt lat="45.693698274450156" lon="11.295034969744684"><ele>661.5</ele><time>2026-04-08T13:27:44Z</time></trkpt><trkpt lat="45.69370976657021" lon="11.294937583038099"><ele>660.6666666666666</ele><time>2026-04-08T13:27:45Z</time></trkpt><trkpt lat="45.693677646759255" lon="11.294790400022272"><ele>659.8333333333333</ele><time>2026-04-08T13:27:47Z</time></trkpt><trkpt lat="45.693665158707404" lon="11.294692419629701"><ele>659.0</ele><time>2026-04-08T13:27:48Z</time></trkpt><trkpt lat="45.6936049954419" lon="11.294630291286536"><ele>665.1666666666666</ele><time>2026-04-08T13:27:49Z</time></trkpt><trkpt lat="45.693539274967065" lon="11.294619358515936"><ele>671.3333333333333</ele><time>2026-04-08T13:27:50Z</time></trkpt><trkpt lat="45.69346317758794" lon="11.2946230142836"><ele>677.5</ele><time>2026-04-08T13:27:51Z</time></trkpt><trkpt lat="45.69338252946752" lon="11.29461321498763"><ele>683.6666666666666</ele><time>2026-04-08T13:27:52Z</time></trkpt><trkpt lat="45.69326187068652" lon="11.294563260252787"><ele>689.8333333333334</ele><time>2026-04-08T13:27:54Z</time></trkpt><trkpt lat="45.69319875089808" lon="11.294508312630226"><ele>696.0</ele><time>2026-04-08T13:27:55Z</time></trkpt><trkpt lat="45.693118807459065" lon="11.294402418439883"><ele>696.0</ele><time>2026-04-08T13:27:57Z</time></trkpt><trkpt lat="45.69305595207998" lon="11.294313827304691"><ele>696.0</ele><time>2026-04-08T13:27:58Z</time></trkpt><trkpt lat="45.69300801659972" lon="11.294228177101271"><ele>696.0</ele><time>2026-04-08T13:27:59Z</time></trkpt><trkpt lat="45.69295689660536" lon="11.294063537218248"><ele>696.0</ele><time>2026-04-08T13:28:01Z</time></trkpt><trkpt lat="45.69294862881386" lon="11.293918628178641"><ele>696.0</ele><time>2026-04-08T13:28:03Z</time></trkpt><trkpt lat="45.692959019640355" lon="11.293772318267083"><ele>693.8</ele><time>2026-04-08T13:28:05Z</time></trkpt><trkpt lat="45.69297556935323" lon="11.293677872731916"><ele>691.5999999999999</ele><time>2026-04-08T13:28:06Z</time></trkpt><trkpt lat="45.69298490570045" lon="11.293584264402705"><ele>689.4</ele><time>2026-04-08T13:28:07Z</time></trkpt><trkpt lat="45.69302577568588" lon="11.29342445369641"><ele>687.2</ele><time>2026-04-08T13:28:09Z</time></trkpt><trkpt lat="45.692960903822744" lon="11.293278348043602"><ele>685.0</ele><time>2026-04-08T13:28:11Z</time></trkpt><trkpt lat="45.69291567649589" lon="11.293188570711758"><ele>686.2</ele><time>2026-04-08T13:28:12Z</time></trkpt><trkpt lat="45.69285943845647" lon="11.293070254908043"><ele>687.4</ele><time>2026-04-08T13:28:14Z</time></trkpt><trkpt lat="45.692799825241224" lon="11.292940818908127"><ele>688.5999999999999</ele><time>2026-04-08T13:28:16Z</time></trkpt><trkpt lat="45.69278325264318" lon="11.29284336418469"><ele>689.8</ele><time>2026-04-08T13:28:17Z</time></trkpt><trkpt lat="45.69277437529627" lon="11.292734036691858"><ele>691.0</ele><time>2026-04-08T13:28:18Z</time></trkpt><trkpt lat="45.69278326210429" lon="11.292576483983114"><ele>691.0</ele><time>2026-04-08T13:28:20Z</time></trkpt><trkpt lat="45.692845779290096" lon="11.29243623691332"><ele>691.0</ele><time>2026-04-08T13:28:22Z</time></trkpt><trkpt lat="45.69289255944267" lon="11.292367954611132"><ele>691.0</ele><time>2026-04-08T13:28:23Z</time></trkpt><trkpt lat="45.69293853212173" lon="11.292280918339888"><ele>691.0</ele><time>2026-04-08T13:28:24Z</time></trkpt><trkpt lat="45.69297388644494" lon="11.292205896965335"><ele>691.0</ele><time>2026-04-08T13:28:25Z</time></trkpt><trkpt lat="45.69304761609128" lon="11.292021029634778"><ele>691.5</ele><time>2026-04-08T13:28:27Z</time></trkpt><trkpt lat="45.69309523133037" lon="11.291919890496331"><ele>692.0</ele><time>2026-04-08T13:28:28Z</time></trkpt><trkpt lat="45.69312211082262" lon="11.291785647539124"><ele>692.5</ele><time>2026-04-08T13:28:30Z</time></trkpt><trkpt lat="45.69309153165284" lon="11.291689988218074"><ele>693.0</ele><time>2026-04-08T13:28:32Z</time></trkpt><trkpt lat="45.6930232549838" lon="11.291620520648788"><ele>693.5</ele><time>2026-04-08T13:28:34Z</time></trkpt><trkpt lat="45.692916931497024" lon="11.291587321650017"><ele>694.0</ele><time>2026-04-08T13:28:36Z</time></trkpt><trkpt lat="45.692813024198145" lon="11.291550783718236"><ele>694.0</ele><time>2026-04-08T13:28:38Z</time></trkpt><trkpt lat="45.69276261436715" lon="11.291473355217446"><ele>694.0</ele><time>2026-04-08T13:28:39Z</time></trkpt><trkpt lat="45.69272729463709" lon="11.291329140475584"><ele>694.0</ele><time>2026-04-08T13:28:41Z</time></trkpt><trkpt lat="45.692693758369785" lon="11.29115691340662"><ele>694.0</ele><time>2026-04-08T13:28:43Z</time></trkpt><trkpt lat="45.692676865970355" lon="11.291042769433053"><ele>694.0</ele><time>2026-04-08T13:28:44Z</time></trkpt><trkpt lat="45.692693556296895" lon="11.290942101881107"><ele>701.6666666666667</ele><time>2026-04-08T13:28:45Z</time></trkpt><trkpt lat="45.69268771722767" lon="11.290769200383203"><ele>709.3333333333334</ele><time>2026-04-08T13:28:47Z</time></trkpt><trkpt lat="45.69268992330902" lon="11.290672674665661"><ele>717.0</ele><time>2026-04-08T13:28:48Z</time></trkpt><trkpt lat="45.692678337770765" lon="11.29056669384756"><ele>724.6666666666666</ele><time>2026-04-08T13:28:49Z</time></trkpt><trkpt lat="45.69266323166586" lon="11.290454419467943"><ele>732.3333333333333</ele><time>2026-04-08T13:28:50Z</time></trkpt><trkpt lat="45.69265999694784" lon="11.290354661648458"><ele>740.0</ele><time>2026-04-08T13:28:51Z</time></trkpt><trkpt lat="45.692677801654746" lon="11.290179705442856"><ele>740.8333333333333</ele><time>2026-04-08T13:28:53Z</time></trkpt><trkpt lat="45.69269322716861" lon="11.290066702710838"><ele>741.6666666666666</ele><time>2026-04-08T13:28:54Z</time></trkpt><trkpt lat="45.69271648521679" lon="11.289898168097382"><ele>742.5</ele><time>2026-04-08T13:28:56Z</time></trkpt><trkpt lat="45.69274154647241" lon="11.289812311851712"><ele>743.3333333333334</ele><time>2026-04-08T13:28:57Z</time></trkpt><trkpt lat="45.69275588601507" lon="11.28965679185598"><ele>744.1666666666667</ele><time>2026-04-08T13:28:58Z</time></trkpt><trkpt lat="45.69276419959177" lon="11.289557354949755"><ele>745.0</ele><time>2026-04-08T13:28:59Z</time></trkpt><trkpt lat="45.692823383109655" lon="11.289406678185909"><ele>739.4</ele><time>2026-04-08T13:29:01Z</time></trkpt><trkpt lat="45.69289643356624" lon="11.289257424686062"><ele>733.8</ele><time>2026-04-08T13:29:03Z</time></trkpt><trkpt lat="45.69298839407667" lon="11.289201506735152"><ele>728.2</ele><time>2026-04-08T13:29:05Z</time></trkpt><trkpt lat="45.69305725097693" lon="11.289210961896496"><ele>722.6</ele><time>2026-04-08T13:29:07Z</time></trkpt><trkpt lat="45.693137762590474" lon="11.289155694231921"><ele>717.0</ele><time>2026-04-08T13:29:14Z</time></trkpt><trkpt lat="45.6932158704665" lon="11.289097958005884"><ele>717.0</ele><time>2026-04-08T13:29:21Z</time></trkpt><trkpt lat="45.69326650208966" lon="11.28896471927282"><ele>717.0</ele><time>2026-04-08T13:29:23Z</time></trkpt><trkpt lat="45.69329139204666" lon="11.288880533867463"><ele>717.0</ele><time>2026-04-08T13:29:24Z</time></trkpt><trkpt lat="45.69332542640201" lon="11.288785665343134"><ele>717.0</ele><time>2026-04-08T13:29:25Z</time></trkpt><trkpt lat="45.69335317748866" lon="11.288657825199707"><ele>717.0</ele><time>2026-04-08T13:29:26Z</time></trkpt><trkpt lat="45.69340258531044" lon="11.288556451385594"><ele>717.0</ele><time>2026-04-08T13:29:27Z</time></trkpt><trkpt lat="45.693462563717496" lon="11.288493555016768"><ele>717.0</ele><time>2026-04-08T13:29:28Z</time></trkpt><trkpt lat="45.69357386125262" lon="11.288475759423656"><ele>717.0</ele><time>2026-04-08T13:29:30Z</time></trkpt><trkpt lat="45.69367938752802" lon="11.288422357468948"><ele>717.0</ele><time>2026-04-08T13:29:32Z</time></trkpt><trkpt lat="45.693739228243835" lon="11.288296503847919"><ele>717.0</ele><time>2026-04-08T13:29:33Z</time></trkpt><trkpt lat="45.69381108993251" lon="11.288198459942857"><ele>717.0</ele><time>2026-04-08T13:29:34Z</time></trkpt><trkpt lat="45.693864801451554" lon="11.288101928587924"><ele>719.2</ele><time>2026-04-08T13:29:35Z</time></trkpt><trkpt lat="45.69390998681555" lon="11.288007983072312"><ele>721.4000000000001</ele><time>2026-04-08T13:29:36Z</time></trkpt><trkpt lat="45.693961888181384" lon="11.287911814513938"><ele>723.5999999999999</ele><time>2026-04-08T13:29:37Z</time></trkpt><trkpt lat="45.69400847198729" lon="11.287753985379368"><ele>725.8</ele><time>2026-04-08T13:29:39Z</time></trkpt><trkpt lat="45.69404192521015" lon="11.287580607644344"><ele>728.0</ele><time>2026-04-08T13:29:41Z</time></trkpt><trkpt lat="45.69408199095713" lon="11.287424346003524"><ele>728.0</ele><time>2026-04-08T13:29:43Z</time></trkpt><trkpt lat="45.6941264802154" lon="11.28733098031016"><ele>728.0</ele><time>2026-04-08T13:29:45Z</time></trkpt><trkpt lat="45.694173278072796" lon="11.287256767329652"><ele>728.0</ele><time>2026-04-08T13:31:21Z</time></trkpt><trkpt lat="45.69422601080569" lon="11.287148223205516"><ele>728.0</ele><time>2026-04-08T13:31:23Z</time></trkpt><trkpt lat="45.69426669067905" lon="11.287069198514837"><ele>728.0</ele><time>2026-04-08T13:31:24Z</time></trkpt><trkpt lat="45.69430892034674" lon="11.28699244209149"><ele>728.0</ele><time>2026-04-08T13:31:25Z</time></trkpt><trkpt lat="45.69435065131182" lon="11.286901574739922"><ele>732.8</ele><time>2026-04-08T13:31:26Z</time></trkpt><trkpt lat="45.69442656086934" lon="11.286807449621287"><ele>737.5999999999999</ele><time>2026-04-08T13:31:27Z</time></trkpt><trkpt lat="45.69448865319865" lon="11.286698592901281"><ele>742.4000000000001</ele><time>2026-04-08T13:31:28Z</time></trkpt><trkpt lat="45.694539989638216" lon="11.28655406773198"><ele>747.2</ele><time>2026-04-08T13:31:29Z</time></trkpt><trkpt lat="45.694585604556075" lon="11.286418473871443"><ele>752.0</ele><time>2026-04-08T13:31:30Z</time></trkpt><trkpt lat="45.694623035520095" lon="11.286308184229403"><ele>752.0</ele><time>2026-04-08T13:31:31Z</time></trkpt><trkpt lat="45.69464104295376" lon="11.286142455530944"><ele>752.0</ele><time>2026-04-08T13:31:33Z</time></trkpt><trkpt lat="45.694586754959786" lon="11.286041328566965"><ele>752.0</ele><time>2026-04-08T13:31:34Z</time></trkpt><trkpt lat="45.69457281481432" lon="11.285927512331146"><ele>752.0</ele><time>2026-04-08T13:31:35Z</time></trkpt><trkpt lat="45.694560991568856" lon="11.285807790732145"><ele>752.0</ele><time>2026-04-08T13:31:36Z</time></trkpt><trkpt lat="45.694555046174976" lon="11.285684572019251"><ele>746.8333333333333</ele><time>2026-04-08T13:31:37Z</time></trkpt><trkpt lat="45.6945517448393" lon="11.285549345525448"><ele>741.6666666666666</ele><time>2026-04-08T13:31:38Z</time></trkpt><trkpt lat="45.694545965393004" lon="11.285413139342982"><ele>736.5</ele><time>2026-04-08T13:31:39Z</time></trkpt><trkpt lat="45.694542598666594" lon="11.285320466242652"><ele>731.3333333333334</ele><time>2026-04-08T13:31:40Z</time></trkpt><trkpt lat="45.69456788378213" lon="11.285232234562825"><ele>726.1666666666667</ele><time>2026-04-08T13:31:42Z</time></trkpt><trkpt lat="45.69464162671834" lon="11.285186173275275"><ele>721.0</ele><time>2026-04-08T13:31:44Z</time></trkpt><trkpt lat="45.6947063374173" lon="11.285190903417307"><ele>721.0</ele><time>2026-04-08T13:31:45Z</time></trkpt><trkpt lat="45.69483637446186" lon="11.285176520417643"><ele>721.0</ele><time>2026-04-08T13:31:47Z</time></trkpt><trkpt lat="45.69493316354095" lon="11.285135819232654"><ele>721.0</ele><time>2026-04-08T13:31:48Z</time></trkpt><trkpt lat="45.69504278092244" lon="11.285125374187631"><ele>721.0</ele><time>2026-04-08T13:31:49Z</time></trkpt><trkpt lat="45.69514014482414" lon="11.285145454128154"><ele>721.0</ele><time>2026-04-08T13:31:50Z</time></trkpt><trkpt lat="45.695215674207546" lon="11.285149691453551"><ele>719.3333333333334</ele><time>2026-04-08T13:31:51Z</time></trkpt><trkpt lat="45.695277189150836" lon="11.285178518236"><ele>717.6666666666667</ele><time>2026-04-08T13:31:52Z</time></trkpt><trkpt lat="45.695348008387946" lon="11.285214527137027"><ele>716.0</ele><time>2026-04-08T13:31:53Z</time></trkpt><trkpt lat="45.69543256265" lon="11.285256260332261"><ele>714.3333333333334</ele><time>2026-04-08T13:31:54Z</time></trkpt><trkpt lat="45.69554025020487" lon="11.285321448416264"><ele>712.6666666666666</ele><time>2026-04-08T13:31:56Z</time></trkpt><trkpt lat="45.69562751113131" lon="11.285389627890195"><ele>711.0</ele><time>2026-04-08T13:31:57Z</time></trkpt><trkpt lat="45.69572212771184" lon="11.285464113185219"><ele>711.0</ele><time>2026-04-08T13:31:58Z</time></trkpt><trkpt lat="45.69582821702467" lon="11.285520540240345"><ele>711.0</ele><time>2026-04-08T13:31:59Z</time></trkpt><trkpt lat="45.69592388163002" lon="11.285622725746622"><ele>711.0</ele><time>2026-04-08T13:32:00Z</time></trkpt><trkpt lat="45.696008435562526" lon="11.285706376679462"><ele>711.0</ele><time>2026-04-08T13:32:01Z</time></trkpt><trkpt lat="45.696075754901074" lon="11.285773739304707"><ele>711.0</ele><time>2026-04-08T13:32:02Z</time></trkpt><trkpt lat="45.696162050306604" lon="11.285832196972416"><ele>716.1999999999999</ele><time>2026-04-08T13:32:03Z</time></trkpt><trkpt lat="45.696233966520836" lon="11.285905922835262"><ele>721.4</ele><time>2026-04-08T13:32:04Z</time></trkpt><trkpt lat="45.696300878604745" lon="11.285984190712217"><ele>726.6</ele><time>2026-04-08T13:32:05Z</time></trkpt><trkpt lat="45.69637376410147" lon="11.286051114471052"><ele>731.8</ele><time>2026-04-08T13:32:06Z</time></trkpt><trkpt lat="45.69646917812293" lon="11.286121147968755"><ele>737.0</ele><time>2026-04-08T13:32:07Z</time></trkpt><trkpt lat="45.696568439984475" lon="11.286212308056733"><ele>737.0</ele><time>2026-04-08T13:32:08Z</time></trkpt><trkpt lat="45.69666007615718" lon="11.286240260964496"><ele>737.0</ele><time>2026-04-08T13:32:09Z</time></trkpt><trkpt lat="45.6967277979189" lon="11.286271731372182"><ele>737.0</ele><time>2026-04-08T13:32:10Z</time></trkpt><trkpt lat="45.696801562775306" lon="11.286236208718913"><ele>737.0</ele><time>2026-04-08T13:32:12Z</time></trkpt><trkpt lat="45.69681687311991" lon="11.286042947572525"><ele>737.0</ele><time>2026-04-08T13:32:14Z</time></trkpt><trkpt lat="45.696813177244294" lon="11.285929807703843"><ele>737.0</ele><time>2026-04-08T13:32:15Z</time></trkpt><trkpt lat="45.696817977673795" lon="11.285831466913503"><ele>737.0</ele><time>2026-04-08T13:32:16Z</time></trkpt><trkpt lat="45.69687434922693" lon="11.285786216624286"><ele>737.0</ele><time>2026-04-08T13:32:17Z</time></trkpt><trkpt lat="45.69699314291694" lon="11.285707182565844"><ele>737.0</ele><time>2026-04-08T13:32:19Z</time></trkpt><trkpt lat="45.69706164383317" lon="11.285669163319993"><ele>737.0</ele><time>2026-04-08T13:32:20Z</time></trkpt><trkpt lat="45.697174403209985" lon="11.285653612529597"><ele>739.0</ele><time>2026-04-08T13:32:22Z</time></trkpt><trkpt lat="45.697299358433064" lon="11.28568832909926"><ele>741.0</ele><time>2026-04-08T13:32:24Z</time></trkpt><trkpt lat="45.69737527643326" lon="11.285706091098438"><ele>743.0</ele><time>2026-04-08T13:32:26Z</time></trkpt><trkpt lat="45.697444327684444" lon="11.285720842900824"><ele>745.0</ele><time>2026-04-08T13:32:29Z</time></trkpt><trkpt lat="45.697530283399516" lon="11.285693347118839"><ele>747.0</ele><time>2026-04-08T13:32:32Z</time></trkpt><trkpt lat="45.69760188863409" lon="11.285704265755292"><ele>749.0</ele><time>2026-04-08T13:33:03Z</time></trkpt><trkpt lat="45.69762778542761" lon="11.285823290867555"><ele>749.0</ele><time>2026-04-08T13:33:05Z</time></trkpt><trkpt lat="45.69771343556465" lon="11.285952574037086"><ele>749.0</ele><time>2026-04-08T13:33:07Z</time></trkpt><trkpt lat="45.6977787985085" lon="11.286020316081695"><ele>749.0</ele><time>2026-04-08T13:33:08Z</time></trkpt><trkpt lat="45.697848187816625" lon="11.286085506337317"><ele>749.0</ele><time>2026-04-08T13:33:09Z</time></trkpt><trkpt lat="45.697964413553045" lon="11.286183983802971"><ele>749.0</ele><time>2026-04-08T13:33:11Z</time></trkpt><trkpt lat="45.698046928771824" lon="11.286252916348632"><ele>750.6</ele><time>2026-04-08T13:33:13Z</time></trkpt><trkpt lat="45.69811805714699" lon="11.286327007747664"><ele>752.2</ele><time>2026-04-08T13:33:15Z</time></trkpt><trkpt lat="45.698205515581066" lon="11.286383448124745"><ele>753.8000000000001</ele><time>2026-04-08T13:33:18Z</time></trkpt><trkpt lat="45.69827011874868" lon="11.286443062432525"><ele>755.4000000000001</ele><time>2026-04-08T13:33:19Z</time></trkpt><trkpt lat="45.69835473769564" lon="11.286509250334126"><ele>757.0</ele><time>2026-04-08T13:33:21Z</time></trkpt><trkpt lat="45.69845091819591" lon="11.286575862594235"><ele>757.0</ele><time>2026-04-08T13:33:24Z</time></trkpt><trkpt lat="45.698508393344675" lon="11.28661462662665"><ele>757.0</ele><time>2026-04-08T13:33:25Z</time></trkpt><trkpt lat="45.698576144878444" lon="11.286669588950655"><ele>757.0</ele><time>2026-04-08T13:33:27Z</time></trkpt><trkpt lat="45.698625185746835" lon="11.28680661256699"><ele>757.0</ele><time>2026-04-08T13:36:29Z</time></trkpt><trkpt lat="45.69866490348116" lon="11.286893738017417"><ele>757.0</ele><time>2026-04-08T13:36:30Z</time></trkpt><trkpt lat="45.6987039386171" lon="11.286965660049246"><ele>757.0</ele><time>2026-04-08T13:36:31Z</time></trkpt><trkpt lat="45.698698115921935" lon="11.287092011834126"><ele>754.8333333333334</ele><time>2026-04-08T13:36:33Z</time></trkpt><trkpt lat="45.69870241703884" lon="11.28722601869794"><ele>752.6666666666667</ele><time>2026-04-08T13:36:35Z</time></trkpt><trkpt lat="45.69871708994295" lon="11.287347853049342"><ele>750.5</ele><time>2026-04-08T13:36:37Z</time></trkpt><trkpt lat="45.69884300969223" lon="11.287340785171963"><ele>748.3333333333334</ele><time>2026-04-08T13:36:41Z</time></trkpt><trkpt lat="45.69889207118783" lon="11.28728238070863"><ele>746.1666666666666</ele><time>2026-04-08T13:36:42Z</time></trkpt><trkpt lat="45.69895804838283" lon="11.28725788556832"><ele>744.0</ele><time>2026-04-08T13:36:43Z</time></trkpt><trkpt lat="45.699014127660966" lon="11.28721049690176"><ele>744.0</ele><time>2026-04-08T13:36:44Z</time></trkpt><trkpt lat="45.699082411087396" lon="11.287141436056476"><ele>744.0</ele><time>2026-04-08T13:36:46Z</time></trkpt><trkpt lat="45.69915199783985" lon="11.28702509836146"><ele>744.0</ele><time>2026-04-08T13:36:48Z</time></trkpt><trkpt lat="45.69923939752139" lon="11.28685408023357"><ele>744.0</ele><time>2026-04-08T13:36:50Z</time></trkpt><trkpt lat="45.69927622347309" lon="11.28675315699697"><ele>744.0</ele><time>2026-04-08T13:36:51Z</time></trkpt><trkpt lat="45.69932882463761" lon="11.28669156107845"><ele>744.0</ele><time>2026-04-08T13:36:52Z</time></trkpt><trkpt lat="45.69940310884762" lon="11.286612294367163"><ele>744.0</ele><time>2026-04-08T13:36:54Z</time></trkpt><trkpt lat="45.699445324070595" lon="11.286491044358186"><ele>744.0</ele><time>2026-04-08T13:36:56Z</time></trkpt><trkpt lat="45.69944515517202" lon="11.286345101124928"><ele>744.0</ele><time>2026-04-08T13:36:58Z</time></trkpt><trkpt lat="45.6994937003461" lon="11.286203848446915"><ele>744.0</ele><time>2026-04-08T13:37:00Z</time></trkpt><trkpt lat="45.6995624484587" lon="11.28613310538576"><ele>742.3333333333334</ele><time>2026-04-08T13:37:01Z</time></trkpt><trkpt lat="45.6996072589614" lon="11.28604050690779"><ele>740.6666666666666</ele><time>2026-04-08T13:37:02Z</time></trkpt><trkpt lat="45.69964340577555" lon="11.285959706349894"><ele>739.0</ele><time>2026-04-08T13:37:03Z</time></trkpt><trkpt lat="45.699675920447056" lon="11.28581904752518"><ele>737.3333333333333</ele><time>2026-04-08T13:37:05Z</time></trkpt><trkpt lat="45.699714091691646" lon="11.285716018092833"><ele>735.6666666666666</ele><time>2026-04-08T13:37:06Z</time></trkpt><trkpt lat="45.69976134477506" lon="11.285600437403527"><ele>734.0</ele><time>2026-04-08T13:37:07Z</time></trkpt><trkpt lat="45.69980500155307" lon="11.285507264742368"><ele>734.0</ele><time>2026-04-08T13:37:08Z</time></trkpt><trkpt lat="45.69988618566575" lon="11.285352793334635"><ele>734.0</ele><time>2026-04-08T13:37:10Z</time></trkpt><trkpt lat="45.69996075118981" lon="11.285215180575625"><ele>734.0</ele><time>2026-04-08T13:37:12Z</time></trkpt><trkpt lat="45.69999817710101" lon="11.285130385118661"><ele>734.0</ele><time>2026-04-08T13:37:13Z</time></trkpt><trkpt lat="45.700018964615104" lon="11.285022849039796"><ele>734.0</ele><time>2026-04-08T13:37:14Z</time></trkpt><trkpt lat="45.70004749905644" lon="11.28486557125902"><ele>734.2</ele><time>2026-04-08T13:37:16Z</time></trkpt><trkpt lat="45.70007005310386" lon="11.284711708473147"><ele>734.4000000000001</ele><time>2026-04-08T13:37:18Z</time></trkpt><trkpt lat="45.70007604867367" lon="11.284549613628768"><ele>734.6</ele><time>2026-04-08T13:37:20Z</time></trkpt><trkpt lat="45.70007108584951" lon="11.284454239973007"><ele>734.8</ele><time>2026-04-08T13:37:22Z</time></trkpt><trkpt lat="45.70008331269147" lon="11.284350850043639"><ele>735.0</ele><time>2026-04-08T13:37:24Z</time></trkpt><trkpt lat="45.70007659627893" lon="11.284192849330747"><ele>735.0</ele><time>2026-04-08T13:37:26Z</time></trkpt><trkpt lat="45.70007241900723" lon="11.284094580782103"><ele>735.0</ele><time>2026-04-08T13:37:27Z</time></trkpt><trkpt lat="45.70006908291784" lon="11.283942247694146"><ele>735.0</ele><time>2026-04-08T13:37:29Z</time></trkpt><trkpt lat="45.700070592568" lon="11.283782476890842"><ele>735.0</ele><time>2026-04-08T13:37:31Z</time></trkpt><trkpt lat="45.70007520495777" lon="11.283664747082172"><ele>735.0</ele><time>2026-04-08T13:37:33Z</time></trkpt><trkpt lat="45.70008002071275" lon="11.283536510243074"><ele>735.75</ele><time>2026-04-08T13:37:36Z</time></trkpt><trkpt lat="45.700164538673086" lon="11.283401347221497"><ele>736.5</ele><time>2026-04-08T13:37:38Z</time></trkpt><trkpt lat="45.70023700780414" lon="11.283278789517277"><ele>737.25</ele><time>2026-04-08T13:37:40Z</time></trkpt><trkpt lat="45.70035863429444" lon="11.283228749889098"><ele>738.0</ele><time>2026-04-08T13:37:42Z</time></trkpt><trkpt lat="45.700443523300294" lon="11.28322053056075"><ele>733.4</ele><time>2026-04-08T13:37:43Z</time></trkpt><trkpt lat="45.70055305336417" lon="11.283192292265435"><ele>728.8</ele><time>2026-04-08T13:37:45Z</time></trkpt><trkpt lat="45.70064910501484" lon="11.283199582899591"><ele>724.2</ele><time>2026-04-08T13:37:47Z</time></trkpt><trkpt lat="45.70076129340102" lon="11.283174248989138"><ele>719.6</ele><time>2026-04-08T13:37:49Z</time></trkpt><trkpt lat="45.70082655452111" lon="11.283172571550564"><ele>715.0</ele><time>2026-04-08T13:37:50Z</time></trkpt><trkpt lat="45.70089803336858" lon="11.28319289338299"><ele>715.0</ele><time>2026-04-08T13:37:51Z</time></trkpt><trkpt lat="45.70098406992712" lon="11.283236977969985"><ele>715.0</ele><time>2026-04-08T13:37:52Z</time></trkpt><trkpt lat="45.70107375841164" lon="11.283229673556813"><ele>715.0</ele><time>2026-04-08T13:37:53Z</time></trkpt><trkpt lat="45.7011419190992" lon="11.283242985364119"><ele>715.0</ele><time>2026-04-08T13:37:54Z</time></trkpt><trkpt lat="45.70123207019628" lon="11.283214672401453"><ele>715.0</ele><time>2026-04-08T13:37:56Z</time></trkpt><trkpt lat="45.70129471508332" lon="11.2832017848893"><ele>715.0</ele><time>2026-04-08T13:37:58Z</time></trkpt><trkpt lat="45.70137434975777" lon="11.283190068012216"><ele>718.0</ele><time>2026-04-08T13:38:00Z</time></trkpt><trkpt lat="45.701484833598" lon="11.283129828543647"><ele>721.0</ele><time>2026-04-08T13:38:02Z</time></trkpt><trkpt lat="45.701549142631606" lon="11.283116414521812"><ele>724.0</ele><time>2026-04-08T13:38:03Z</time></trkpt><trkpt lat="45.7016153118727" lon="11.28308517146498"><ele>727.0</ele><time>2026-04-08T13:38:04Z</time></trkpt><trkpt lat="45.701724050122706" lon="11.28302822562413"><ele>730.0</ele><time>2026-04-08T13:38:06Z</time></trkpt><trkpt lat="45.70181379337304" lon="11.282957322110024"><ele>730.0</ele><time>2026-04-08T13:38:08Z</time></trkpt><trkpt lat="45.70188969037491" lon="11.282861544126307"><ele>730.0</ele><time>2026-04-08T13:38:10Z</time></trkpt><trkpt lat="45.70193422017521" lon="11.282711636703674"><ele>730.0</ele><time>2026-04-08T13:38:12Z</time></trkpt><trkpt lat="45.70197635356281" lon="11.282608497880858"><ele>730.0</ele><time>2026-04-08T13:38:14Z</time></trkpt><trkpt lat="45.70204878902755" lon="11.282579366500055"><ele>730.0</ele><time>2026-04-08T13:38:16Z</time></trkpt><trkpt lat="45.70214874107752" lon="11.282580378294378"><ele>724.8333333333334</ele><time>2026-04-08T13:38:18Z</time></trkpt><trkpt lat="45.702225575612566" lon="11.282587006401565"><ele>719.6666666666667</ele><time>2026-04-08T13:38:19Z</time></trkpt><trkpt lat="45.70230468503701" lon="11.28259275098284"><ele>714.5</ele><time>2026-04-08T13:38:20Z</time></trkpt><trkpt lat="45.70241042834289" lon="11.282591143831784"><ele>709.3333333333334</ele><time>2026-04-08T13:38:22Z</time></trkpt><trkpt lat="45.702475701029435" lon="11.282572691751955"><ele>704.1666666666666</ele><time>2026-04-08T13:38:23Z</time></trkpt><trkpt lat="45.702563287776755" lon="11.282529166374749"><ele>699.0</ele><time>2026-04-08T13:38:24Z</time></trkpt><trkpt lat="45.70267281215859" lon="11.28245054702932"><ele>699.0</ele><time>2026-04-08T13:38:26Z</time></trkpt><trkpt lat="45.70272837755678" lon="11.282405126570614"><ele>699.0</ele><time>2026-04-08T13:38:27Z</time></trkpt><trkpt lat="45.70281857706891" lon="11.282317786581817"><ele>699.0</ele><time>2026-04-08T13:38:29Z</time></trkpt><trkpt lat="45.70293258558273" lon="11.282242725696387"><ele>699.0</ele><time>2026-04-08T13:38:31Z</time></trkpt><trkpt lat="45.70299621696532" lon="11.28218788424909"><ele>699.0</ele><time>2026-04-08T13:38:32Z</time></trkpt><trkpt lat="45.70308100791033" lon="11.282097804460518"><ele>696.1666666666666</ele><time>2026-04-08T13:38:33Z</time></trkpt><trkpt lat="45.703142473447336" lon="11.281974659045028"><ele>693.3333333333334</ele><time>2026-04-08T13:38:35Z</time></trkpt><trkpt lat="45.70313555024853" lon="11.281819084567905"><ele>690.5</ele><time>2026-04-08T13:38:37Z</time></trkpt><trkpt lat="45.703140339224184" lon="11.28172146120438"><ele>687.6666666666667</ele><time>2026-04-08T13:38:38Z</time></trkpt><trkpt lat="45.70314066953112" lon="11.28161532107244"><ele>684.8333333333334</ele><time>2026-04-08T13:38:39Z</time></trkpt><trkpt lat="45.703132905989335" lon="11.281508430108971"><ele>682.0</ele><time>2026-04-08T13:38:40Z</time></trkpt><trkpt lat="45.70311619194138" lon="11.281391723927367"><ele>682.0</ele><time>2026-04-08T13:38:41Z</time></trkpt><trkpt lat="45.70310683015992" lon="11.28126709064844"><ele>682.0</ele><time>2026-04-08T13:38:42Z</time></trkpt><trkpt lat="45.70309547110618" lon="11.281152754378109"><ele>682.0</ele><time>2026-04-08T13:38:43Z</time></trkpt><trkpt lat="45.703084179926755" lon="11.281014184962341"><ele>682.0</ele><time>2026-04-08T13:38:44Z</time></trkpt><trkpt lat="45.70307032289699" lon="11.280910522143119"><ele>682.0</ele><time>2026-04-08T13:38:45Z</time></trkpt><trkpt lat="45.70305300490125" lon="11.280731695509013"><ele>682.0</ele><time>2026-04-08T13:38:47Z</time></trkpt><trkpt lat="45.703063386571515" lon="11.280628498944154"><ele>682.0</ele><time>2026-04-08T13:38:48Z</time></trkpt><trkpt lat="45.703064968562934" lon="11.280537574710927"><ele>682.0</ele><time>2026-04-08T13:38:49Z</time></trkpt><trkpt lat="45.70307689682864" lon="11.280448405143378"><ele>682.0</ele><time>2026-04-08T13:38:50Z</time></trkpt><trkpt lat="45.70308797344234" lon="11.280349887471768"><ele>682.0</ele><time>2026-04-08T13:38:51Z</time></trkpt><trkpt lat="45.70309658624987" lon="11.280239170983975"><ele>682.0</ele><time>2026-04-08T13:38:52Z</time></trkpt><trkpt lat="45.70310125418989" lon="11.28013442932116"><ele>682.0</ele><time>2026-04-08T13:38:53Z</time></trkpt><trkpt lat="45.70310484304097" lon="11.280038433555063"><ele>682.3333333333334</ele><time>2026-04-08T13:38:54Z</time></trkpt><trkpt lat="45.70309675930058" lon="11.279927188207033"><ele>682.6666666666667</ele><time>2026-04-08T13:38:55Z</time></trkpt><trkpt lat="45.703079837381885" lon="11.27979250989601"><ele>683.0</ele><time>2026-04-08T13:38:56Z</time></trkpt><trkpt lat="45.703064276372096" lon="11.279671211925509"><ele>683.3333333333334</ele><time>2026-04-08T13:38:57Z</time></trkpt><trkpt lat="45.70304940699738" lon="11.279569600458817"><ele>683.6666666666666</ele><time>2026-04-08T13:38:58Z</time></trkpt><trkpt lat="45.70305304542621" lon="11.279447890204631"><ele>684.0</ele><time>2026-04-08T13:38:59Z</time></trkpt><trkpt lat="45.70303436232516" lon="11.279345367289524"><ele>684.0</ele><time>2026-04-08T13:39:00Z</time></trkpt><trkpt lat="45.7030102415984" lon="11.27916764209723"><ele>684.0</ele><time>2026-04-08T13:39:02Z</time></trkpt><trkpt lat="45.703009395787184" lon="11.278979412311756"><ele>684.0</ele><time>2026-04-08T13:39:04Z</time></trkpt><trkpt lat="45.70301959601931" lon="11.278857942300435"><ele>684.0</ele><time>2026-04-08T13:39:05Z</time></trkpt><trkpt lat="45.70305728791488" lon="11.278769843269075"><ele>684.0</ele><time>2026-04-08T13:39:06Z</time></trkpt><trkpt lat="45.70309893489719" lon="11.27867089572317"><ele>684.6666666666666</ele><time>2026-04-08T13:39:07Z</time></trkpt><trkpt lat="45.703122046325554" lon="11.278562384518304"><ele>685.3333333333334</ele><time>2026-04-08T13:39:08Z</time></trkpt><trkpt lat="45.70315013938114" lon="11.278461310701749"><ele>686.0</ele><time>2026-04-08T13:39:09Z</time></trkpt><trkpt lat="45.70316390534913" lon="11.278353115734047"><ele>686.6666666666667</ele><time>2026-04-08T13:39:10Z</time></trkpt><trkpt lat="45.703198205441524" lon="11.278250869046895"><ele>687.3333333333334</ele><time>2026-04-08T13:39:11Z</time></trkpt><trkpt lat="45.70322310579351" lon="11.278162597947848"><ele>688.0</ele><time>2026-04-08T13:39:12Z</time></trkpt><trkpt lat="45.703294846293616" lon="11.278150560491813"><ele>689.0</ele><time>2026-04-08T13:39:13Z</time></trkpt><trkpt lat="45.70337585915695" lon="11.278006202692486"><ele>690.0</ele><time>2026-04-08T13:39:15Z</time></trkpt><trkpt lat="45.70339791818534" lon="11.277897491391288"><ele>691.0</ele><time>2026-04-08T13:39:16Z</time></trkpt><trkpt lat="45.70340701402851" lon="11.277794309508142"><ele>692.0</ele><time>2026-04-08T13:39:17Z</time></trkpt><trkpt lat="45.703364107284514" lon="11.277658843337722"><ele>693.0</ele><time>2026-04-08T13:39:19Z</time></trkpt><trkpt lat="45.70332331287753" lon="11.277589611351356"><ele>694.0</ele><time>2026-04-08T13:39:20Z</time></trkpt><trkpt lat="45.70326158233797" lon="11.277507942243709"><ele>694.0</ele><time>2026-04-08T13:39:21Z</time></trkpt><trkpt lat="45.703220965894396" lon="11.277422421585612"><ele>694.0</ele><time>2026-04-08T13:39:22Z</time></trkpt><trkpt lat="45.703164309104324" lon="11.277328831607724"><ele>694.0</ele><time>2026-04-08T13:39:23Z</time></trkpt><trkpt lat="45.70312569487864" lon="11.277221062625708"><ele>694.0</ele><time>2026-04-08T13:39:24Z</time></trkpt><trkpt lat="45.70312320858592" lon="11.277086563986192"><ele>694.0</ele><time>2026-04-08T13:39:26Z</time></trkpt><trkpt lat="45.70310427783721" lon="11.276977258551298"><ele>694.0</ele><time>2026-04-08T13:39:27Z</time></trkpt><trkpt lat="45.703081129084616" lon="11.276852692493778"><ele>695.0</ele><time>2026-04-08T13:39:28Z</time></trkpt><trkpt lat="45.70304759157014" lon="11.276709689821255"><ele>696.0</ele><time>2026-04-08T13:39:29Z</time></trkpt><trkpt lat="45.703034449628475" lon="11.276583341538892"><ele>697.0</ele><time>2026-04-08T13:39:30Z</time></trkpt><trkpt lat="45.70300007872414" lon="11.276488758525334"><ele>698.0</ele><time>2026-04-08T13:39:31Z</time></trkpt><trkpt lat="45.70295186043659" lon="11.276346878048141"><ele>699.0</ele><time>2026-04-08T13:39:32Z</time></trkpt><trkpt lat="45.702920229783885" lon="11.27625071923491"><ele>700.1666666666666</ele><time>2026-04-08T13:39:33Z</time></trkpt><trkpt lat="45.702875404430806" lon="11.276131831374471"><ele>701.3333333333334</ele><time>2026-04-08T13:39:35Z</time></trkpt><trkpt lat="45.702836308150474" lon="11.2760222268736"><ele>702.5</ele><time>2026-04-08T13:39:37Z</time></trkpt><trkpt lat="45.70277098865466" lon="11.275967580563222"><ele>703.6666666666667</ele><time>2026-04-08T13:39:39Z</time></trkpt><trkpt lat="45.702698279164586" lon="11.27591078033326"><ele>704.8333333333334</ele><time>2026-04-08T13:39:40Z</time></trkpt><trkpt lat="45.7026620773533" lon="11.275836039664604"><ele>706.0</ele><time>2026-04-08T13:39:41Z</time></trkpt><trkpt lat="45.702606662941605" lon="11.275784531733134"><ele>706.0</ele><time>2026-04-08T13:39:42Z</time></trkpt><trkpt lat="45.70256121097974" lon="11.275644518045036"><ele>706.0</ele><time>2026-04-08T13:39:44Z</time></trkpt><trkpt lat="45.70256283619997" lon="11.275523799000261"><ele>706.0</ele><time>2026-04-08T13:39:46Z</time></trkpt><trkpt lat="45.702573362312435" lon="11.275378932919155"><ele>706.0</ele><time>2026-04-08T13:39:48Z</time></trkpt><trkpt lat="45.70255313403975" lon="11.275290565489373"><ele>706.0</ele><time>2026-04-08T13:39:49Z</time></trkpt><trkpt lat="45.702554673152505" lon="11.275180813727424"><ele>706.0</ele><time>2026-04-08T13:39:50Z</time></trkpt><trkpt lat="45.70256907870687" lon="11.275040162510983"><ele>704.6666666666667</ele><time>2026-04-08T13:39:51Z</time></trkpt><trkpt lat="45.70257442639326" lon="11.274945317557615"><ele>703.3333333333334</ele><time>2026-04-08T13:39:52Z</time></trkpt><trkpt lat="45.702580001581715" lon="11.274845339921608"><ele>702.0</ele><time>2026-04-08T13:39:53Z</time></trkpt><trkpt lat="45.702529411003674" lon="11.274682037441652"><ele>700.6666666666666</ele><time>2026-04-08T13:39:55Z</time></trkpt><trkpt lat="45.70249577234745" lon="11.274558442829523"><ele>699.3333333333333</ele><time>2026-04-08T13:39:56Z</time></trkpt><trkpt lat="45.702457027567064" lon="11.274433452289765"><ele>698.0</ele><time>2026-04-08T13:39:57Z</time></trkpt><trkpt lat="45.70246319112679" lon="11.274319936173924"><ele>696.8</ele><time>2026-04-08T13:39:58Z</time></trkpt><trkpt lat="45.70245112320944" lon="11.274100715345952"><ele>695.5999999999999</ele><time>2026-04-08T13:40:00Z</time></trkpt><trkpt lat="45.70246133475378" lon="11.273983936735853"><ele>694.4000000000001</ele><time>2026-04-08T13:40:01Z</time></trkpt><trkpt lat="45.70244325277741" lon="11.273845435116005"><ele>693.2</ele><time>2026-04-08T13:40:03Z</time></trkpt><trkpt lat="45.70240708943565" lon="11.273766626614568"><ele>692.0</ele><time>2026-04-08T13:40:04Z</time></trkpt><trkpt lat="45.702355637733575" lon="11.273699487055902"><ele>689.8</ele><time>2026-04-08T13:40:05Z</time></trkpt><trkpt lat="45.70224067945631" lon="11.273590224234493"><ele>687.6</ele><time>2026-04-08T13:40:07Z</time></trkpt><trkpt lat="45.70218685765861" lon="11.273511124631574"><ele>685.4</ele><time>2026-04-08T13:40:08Z</time></trkpt><trkpt lat="45.70214984956262" lon="11.273423636753341"><ele>683.1999999999999</ele><time>2026-04-08T13:40:09Z</time></trkpt><trkpt lat="45.70212407718462" lon="11.273329306127838"><ele>681.0</ele><time>2026-04-08T13:40:11Z</time></trkpt><trkpt lat="45.70210832407377" lon="11.273194037001812"><ele>678.1999999999999</ele><time>2026-04-08T13:40:13Z</time></trkpt><trkpt lat="45.702117363933404" lon="11.27302472373923"><ele>675.4</ele><time>2026-04-08T13:40:15Z</time></trkpt><trkpt lat="45.70214831482811" lon="11.272885482248203"><ele>672.6</ele><time>2026-04-08T13:40:17Z</time></trkpt><trkpt lat="45.702161620414984" lon="11.272774470725155"><ele>669.8</ele><time>2026-04-08T13:40:19Z</time></trkpt><trkpt lat="45.70210506483879" lon="11.272667488275642"><ele>667.0</ele><time>2026-04-08T13:40:21Z</time></trkpt><trkpt lat="45.70203211608583" lon="11.272577828664641"><ele>667.0</ele><time>2026-04-08T13:40:22Z</time></trkpt><trkpt lat="45.70196120231491" lon="11.272486555077595"><ele>667.0</ele><time>2026-04-08T13:40:23Z</time></trkpt><trkpt lat="45.70190735096974" lon="11.272364191971883"><ele>667.0</ele><time>2026-04-08T13:40:24Z</time></trkpt><trkpt lat="45.70188311073931" lon="11.272257689037527"><ele>667.0</ele><time>2026-04-08T13:40:25Z</time></trkpt><trkpt lat="45.70186219719714" lon="11.272153909963357"><ele>667.0</ele><time>2026-04-08T13:40:26Z</time></trkpt><trkpt lat="45.70183327801262" lon="11.27201566573149"><ele>668.3333333333334</ele><time>2026-04-08T13:40:27Z</time></trkpt><trkpt lat="45.70179459133583" lon="11.271887928413614"><ele>669.6666666666667</ele><time>2026-04-08T13:40:28Z</time></trkpt><trkpt lat="45.70176714025691" lon="11.271776512528676"><ele>671.0</ele><time>2026-04-08T13:40:29Z</time></trkpt><trkpt lat="45.701744554261" lon="11.271659477620739"><ele>672.3333333333334</ele><time>2026-04-08T13:40:30Z</time></trkpt><trkpt lat="45.70174050899509" lon="11.27156354462583"><ele>673.6666666666666</ele><time>2026-04-08T13:40:31Z</time></trkpt><trkpt lat="45.70170137152984" lon="11.271465909418469"><ele>675.0</ele><time>2026-04-08T13:40:33Z</time></trkpt><trkpt lat="45.70165676545618" lon="11.271378329639356"><ele>675.0</ele><time>2026-04-08T13:40:34Z</time></trkpt><trkpt lat="45.70160665091417" lon="11.2712904910541"><ele>675.0</ele><time>2026-04-08T13:40:35Z</time></trkpt><trkpt lat="45.70152440805778" lon="11.271146339002481"><ele>675.0</ele><time>2026-04-08T13:40:37Z</time></trkpt><trkpt lat="45.70147461156603" lon="11.271057695871278"><ele>675.0</ele><time>2026-04-08T13:40:38Z</time></trkpt><trkpt lat="45.70143413952123" lon="11.270981688134711"><ele>675.0</ele><time>2026-04-08T13:40:39Z</time></trkpt><trkpt lat="45.70137981556959" lon="11.270888386868812"><ele>675.0</ele><time>2026-04-08T13:40:40Z</time></trkpt><trkpt lat="45.70133801509325" lon="11.270801163686295"><ele>675.0</ele><time>2026-04-08T13:40:41Z</time></trkpt><trkpt lat="45.701267047365675" lon="11.270670861470126"><ele>675.0</ele><time>2026-04-08T13:40:43Z</time></trkpt><trkpt lat="45.70120194626787" lon="11.270618686769751"><ele>675.0</ele><time>2026-04-08T13:40:44Z</time></trkpt><trkpt lat="45.70111654541572" lon="11.270542313733296"><ele>675.0</ele><time>2026-04-08T13:40:45Z</time></trkpt><trkpt lat="45.70104553698142" lon="11.270493780595656"><ele>675.0</ele><time>2026-04-08T13:40:46Z</time></trkpt><trkpt lat="45.70097408887499" lon="11.27042969017986"><ele>679.6</ele><time>2026-04-08T13:40:47Z</time></trkpt><trkpt lat="45.7009155200966" lon="11.270377681105767"><ele>684.2</ele><time>2026-04-08T13:40:48Z</time></trkpt><trkpt lat="45.70084086120961" lon="11.270283890650438"><ele>688.8</ele><time>2026-04-08T13:40:50Z</time></trkpt><trkpt lat="45.70079438753654" lon="11.270128901140195"><ele>693.4</ele><time>2026-04-08T13:40:52Z</time></trkpt><trkpt lat="45.700751153044955" lon="11.269921054120873"><ele>698.0</ele><time>2026-04-08T13:40:54Z</time></trkpt><trkpt lat="45.700703519038356" lon="11.26979072847755"><ele>696.5</ele><time>2026-04-08T13:40:55Z</time></trkpt><trkpt lat="45.700640202109064" lon="11.269620495989688"><ele>695.0</ele><time>2026-04-08T13:40:57Z</time></trkpt><trkpt lat="45.70059776579405" lon="11.269551521572934"><ele>693.5</ele><time>2026-04-08T13:40:58Z</time></trkpt><trkpt lat="45.70056393530616" lon="11.269474165088678"><ele>692.0</ele><time>2026-04-08T13:40:59Z</time></trkpt><trkpt lat="45.70053054392284" lon="11.269394819425877"><ele>690.5</ele><time>2026-04-08T13:41:00Z</time></trkpt><trkpt lat="45.700474723074684" lon="11.26930014247955"><ele>689.0</ele><time>2026-04-08T13:41:02Z</time></trkpt><trkpt lat="45.70046179326953" lon="11.269168019327747"><ele>689.0</ele><time>2026-04-08T13:41:05Z</time></trkpt><trkpt lat="45.700442219003605" lon="11.26907738303764"><ele>689.0</ele><time>2026-04-08T13:41:07Z</time></trkpt><trkpt lat="45.70042719139219" lon="11.268964195826614"><ele>689.0</ele><time>2026-04-08T13:41:11Z</time></trkpt><trkpt lat="45.700385699704086" lon="11.268861332473989"><ele>689.0</ele><time>2026-04-08T13:41:13Z</time></trkpt><trkpt lat="45.70034614111827" lon="11.26874585118695"><ele>689.0</ele><time>2026-04-08T13:41:15Z</time></trkpt><trkpt lat="45.700339873553226" lon="11.268627435519548"><ele>689.0</ele><time>2026-04-08T13:41:17Z</time></trkpt><trkpt lat="45.70032150645206" lon="11.26851489645264"><ele>690.6666666666666</ele><time>2026-04-08T13:41:19Z</time></trkpt><trkpt lat="45.70030654114877" lon="11.268364106412443"><ele>692.3333333333333</ele><time>2026-04-08T13:41:21Z</time></trkpt><trkpt lat="45.700304711761" lon="11.26820082415911"><ele>694.0</ele><time>2026-04-08T13:41:23Z</time></trkpt><trkpt lat="45.7003106313677" lon="11.268084713688713"><ele>695.6666666666666</ele><time>2026-04-08T13:41:24Z</time></trkpt><trkpt lat="45.700324707956575" lon="11.267989574966839"><ele>697.3333333333334</ele><time>2026-04-08T13:41:25Z</time></trkpt><trkpt lat="45.700350818683745" lon="11.2678976936843"><ele>699.0</ele><time>2026-04-08T13:41:26Z</time></trkpt><trkpt lat="45.70038124135488" lon="11.26781074043096"><ele>700.1666666666666</ele><time>2026-04-08T13:41:27Z</time></trkpt><trkpt lat="45.700422973061755" lon="11.267711372230957"><ele>701.3333333333334</ele><time>2026-04-08T13:41:28Z</time></trkpt><trkpt lat="45.70045322166463" lon="11.267582718542565"><ele>702.5</ele><time>2026-04-08T13:41:29Z</time></trkpt><trkpt lat="45.70049570920093" lon="11.267442114583611"><ele>703.6666666666667</ele><time>2026-04-08T13:41:30Z</time></trkpt><trkpt lat="45.700535189145846" lon="11.267327055038722"><ele>704.8333333333334</ele><time>2026-04-08T13:41:31Z</time></trkpt><trkpt lat="45.70057958763663" lon="11.26725110153655"><ele>706.0</ele><time>2026-04-08T13:41:32Z</time></trkpt><trkpt lat="45.70060524928123" lon="11.267132963388226"><ele>706.0</ele><time>2026-04-08T13:41:33Z</time></trkpt><trkpt lat="45.7006407059606" lon="11.26701760298943"><ele>706.0</ele><time>2026-04-08T13:41:34Z</time></trkpt><trkpt lat="45.700679159078966" lon="11.266899754497423"><ele>706.0</ele><time>2026-04-08T13:41:35Z</time></trkpt><trkpt lat="45.700712307690644" lon="11.266820992218237"><ele>706.0</ele><time>2026-04-08T13:41:36Z</time></trkpt><trkpt lat="45.700779404351515" lon="11.266722601977001"><ele>706.0</ele><time>2026-04-08T13:41:38Z</time></trkpt><trkpt lat="45.7008659072542" lon="11.266641909964296"><ele>706.0</ele><time>2026-04-08T13:41:40Z</time></trkpt><trkpt lat="45.700929215593895" lon="11.266606338837237"><ele>706.0</ele><time>2026-04-08T13:41:41Z</time></trkpt><trkpt lat="45.70099702581986" lon="11.266540319272899"><ele>706.0</ele><time>2026-04-08T13:41:42Z</time></trkpt><trkpt lat="45.70109374394567" lon="11.266405767742775"><ele>706.0</ele><time>2026-04-08T13:41:44Z</time></trkpt><trkpt lat="45.70114349890537" lon="11.266309796385498"><ele>706.0</ele><time>2026-04-08T13:41:45Z</time></trkpt><trkpt lat="45.701194787386356" lon="11.266206980056628"><ele>706.0</ele><time>2026-04-08T13:41:46Z</time></trkpt><trkpt lat="45.70124660637597" lon="11.266145413403043"><ele>707.1999999999999</ele><time>2026-04-08T13:41:47Z</time></trkpt><trkpt lat="45.70134441389869" lon="11.266127719122982"><ele>708.4</ele><time>2026-04-08T13:41:49Z</time></trkpt><trkpt lat="45.70144743983818" lon="11.26616426471775"><ele>709.6</ele><time>2026-04-08T13:41:51Z</time></trkpt><trkpt lat="45.701553797217365" lon="11.266232197418871"><ele>710.8</ele><time>2026-04-08T13:41:53Z</time></trkpt><trkpt lat="45.70158082591781" lon="11.26633048107032"><ele>712.0</ele><time>2026-04-08T13:41:54Z</time></trkpt><trkpt lat="45.701679543022614" lon="11.266427455816405"><ele>712.0</ele><time>2026-04-08T13:41:56Z</time></trkpt><trkpt lat="45.70174364628543" lon="11.266461322950434"><ele>712.0</ele><time>2026-04-08T13:41:57Z</time></trkpt><trkpt lat="45.70183081982411" lon="11.2664275149449"><ele>712.0</ele><time>2026-04-08T13:41:58Z</time></trkpt><trkpt lat="45.70192484913306" lon="11.266354141920916"><ele>712.0</ele><time>2026-04-08T13:41:59Z</time></trkpt><trkpt lat="45.70200214395902" lon="11.266294413192368"><ele>712.0</ele><time>2026-04-08T13:42:00Z</time></trkpt><trkpt lat="45.70206624195645" lon="11.26626907765683"><ele>712.0</ele><time>2026-04-08T13:42:01Z</time></trkpt><trkpt lat="45.70212628007969" lon="11.266231156884992"><ele>713.5</ele><time>2026-04-08T13:42:02Z</time></trkpt><trkpt lat="45.70219417815225" lon="11.266157563874492"><ele>715.0</ele><time>2026-04-08T13:42:03Z</time></trkpt><trkpt lat="45.70225736795851" lon="11.26609691540854"><ele>716.5</ele><time>2026-04-08T13:42:04Z</time></trkpt><trkpt lat="45.702309104536134" lon="11.266041477396447"><ele>718.0</ele><time>2026-04-08T13:42:05Z</time></trkpt><trkpt lat="45.70239398285519" lon="11.265960381429965"><ele>719.5</ele><time>2026-04-08T13:42:06Z</time></trkpt><trkpt lat="45.70245076134919" lon="11.265903988393791"><ele>721.0</ele><time>2026-04-08T13:42:07Z</time></trkpt><trkpt lat="45.70250695342797" lon="11.265819256593913"><ele>721.0</ele><time>2026-04-08T13:42:08Z</time></trkpt><trkpt lat="45.70256794289356" lon="11.265720686947589"><ele>721.0</ele><time>2026-04-08T13:42:09Z</time></trkpt><trkpt lat="45.70264073657042" lon="11.265634146192522"><ele>721.0</ele><time>2026-04-08T13:42:10Z</time></trkpt><trkpt lat="45.70270674233087" lon="11.265517063789291"><ele>721.0</ele><time>2026-04-08T13:42:11Z</time></trkpt><trkpt lat="45.70279440858449" lon="11.265443821961938"><ele>721.0</ele><time>2026-04-08T13:42:12Z</time></trkpt><trkpt lat="45.70285604628884" lon="11.265379884013562"><ele>723.5</ele><time>2026-04-08T13:42:13Z</time></trkpt><trkpt lat="45.702951040362585" lon="11.265328384966631"><ele>726.0</ele><time>2026-04-08T13:42:15Z</time></trkpt><trkpt lat="45.70303999917801" lon="11.265239431876859"><ele>728.5</ele><time>2026-04-08T13:42:17Z</time></trkpt><trkpt lat="45.703137257593355" lon="11.26514718052689"><ele>731.0</ele><time>2026-04-08T13:42:19Z</time></trkpt><trkpt lat="45.70328123171238" lon="11.265126657573553"><ele>731.0</ele><time>2026-04-08T13:42:21Z</time></trkpt><trkpt lat="45.70336544193267" lon="11.265127187375088"><ele>731.0</ele><time>2026-04-08T13:42:22Z</time></trkpt><trkpt lat="45.703445794034884" lon="11.265121197781786"><ele>731.0</ele><time>2026-04-08T13:42:23Z</time></trkpt><trkpt lat="45.70354797405024" lon="11.265106066395212"><ele>731.0</ele><time>2026-04-08T13:42:24Z</time></trkpt><trkpt lat="45.70365953055101" lon="11.265088541745415"><ele>731.0</ele><time>2026-04-08T13:42:25Z</time></trkpt><trkpt lat="45.70375559998363" lon="11.265055091114828"><ele>733.0</ele><time>2026-04-08T13:42:26Z</time></trkpt><trkpt lat="45.70381987901614" lon="11.265064903058347"><ele>735.0</ele><time>2026-04-08T13:42:27Z</time></trkpt><trkpt lat="45.70396756575115" lon="11.26504518808549"><ele>737.0</ele><time>2026-04-08T13:42:29Z</time></trkpt><trkpt lat="45.704055313042616" lon="11.265034274299564"><ele>739.0</ele><time>2026-04-08T13:42:30Z</time></trkpt><trkpt lat="45.70412527502037" lon="11.265050463412088"><ele>741.0</ele><time>2026-04-08T13:42:31Z</time></trkpt><trkpt lat="45.704210273193894" lon="11.265052052721552"><ele>741.0</ele><time>2026-04-08T13:42:32Z</time></trkpt><trkpt lat="45.70428799723723" lon="11.26505686091149"><ele>741.0</ele><time>2026-04-08T13:42:33Z</time></trkpt><trkpt lat="45.70436617151218" lon="11.265025038878825"><ele>741.0</ele><time>2026-04-08T13:42:34Z</time></trkpt><trkpt lat="45.70443876774201" lon="11.264975530695319"><ele>741.0</ele><time>2026-04-08T13:42:35Z</time></trkpt><trkpt lat="45.704526085244105" lon="11.264923799849242"><ele>741.0</ele><time>2026-04-08T13:42:36Z</time></trkpt><trkpt lat="45.704613770098184" lon="11.264859808296718"><ele>741.0</ele><time>2026-04-08T13:42:37Z</time></trkpt><trkpt lat="45.70466856908808" lon="11.264800054558558"><ele>740.6666666666666</ele><time>2026-04-08T13:42:38Z</time></trkpt><trkpt lat="45.70471873605753" lon="11.264742252150093"><ele>740.3333333333334</ele><time>2026-04-08T13:42:39Z</time></trkpt><trkpt lat="45.70472604469186" lon="11.26460230071691"><ele>740.0</ele><time>2026-04-08T13:42:41Z</time></trkpt><trkpt lat="45.70475550199691" lon="11.26446624930941"><ele>739.6666666666667</ele><time>2026-04-08T13:42:43Z</time></trkpt><trkpt lat="45.70477926647793" lon="11.264353375439509"><ele>739.3333333333334</ele><time>2026-04-08T13:42:44Z</time></trkpt><trkpt lat="45.7048014311851" lon="11.264253675825275"><ele>739.0</ele><time>2026-04-08T13:42:45Z</time></trkpt><trkpt lat="45.70483528895338" lon="11.264147014089682"><ele>739.0</ele><time>2026-04-08T13:42:46Z</time></trkpt><trkpt lat="45.70486865590304" lon="11.264045965395765"><ele>739.0</ele><time>2026-04-08T13:42:47Z</time></trkpt><trkpt lat="45.7049157365243" lon="11.263976958196087"><ele>739.0</ele><time>2026-04-08T13:42:48Z</time></trkpt><trkpt lat="45.70495859329997" lon="11.263908338764816"><ele>739.0</ele><time>2026-04-08T13:42:49Z</time></trkpt><trkpt lat="45.705034886439506" lon="11.263775980406939"><ele>739.0</ele><time>2026-04-08T13:42:51Z</time></trkpt><trkpt lat="45.70511935460519" lon="11.263716845413775"><ele>739.0</ele><time>2026-04-08T13:42:53Z</time></trkpt><trkpt lat="45.70523705899207" lon="11.263602028335223"><ele>739.8000000000001</ele><time>2026-04-08T13:42:55Z</time></trkpt><trkpt lat="45.70531178057285" lon="11.26352737676508"><ele>740.6</ele><time>2026-04-08T13:42:56Z</time></trkpt><trkpt lat="45.705387175357856" lon="11.263426927334399"><ele>741.4</ele><time>2026-04-08T13:42:57Z</time></trkpt><trkpt lat="45.7054162386981" lon="11.263344379397704"><ele>742.2</ele><time>2026-04-08T13:42:58Z</time></trkpt><trkpt lat="45.70540266268291" lon="11.26324738254723"><ele>743.0</ele><time>2026-04-08T13:42:59Z</time></trkpt><trkpt lat="45.70535930167048" lon="11.263074881423611"><ele>743.5</ele><time>2026-04-08T13:43:01Z</time></trkpt><trkpt lat="45.70537101988942" lon="11.262967956176896"><ele>744.0</ele><time>2026-04-08T13:43:02Z</time></trkpt><trkpt lat="45.70535664290473" lon="11.262833590466098"><ele>744.5</ele><time>2026-04-08T13:43:04Z</time></trkpt><trkpt lat="45.70539165190762" lon="11.262729962400408"><ele>745.0</ele><time>2026-04-08T13:43:06Z</time></trkpt><trkpt lat="45.705452266328244" lon="11.262682165021587"><ele>745.5</ele><time>2026-04-08T13:43:07Z</time></trkpt><trkpt lat="45.705515806315965" lon="11.262639079898502"><ele>746.0</ele><time>2026-04-08T13:43:08Z</time></trkpt><trkpt lat="45.705570681629204" lon="11.262574231957702"><ele>746.0</ele><time>2026-04-08T13:43:09Z</time></trkpt><trkpt lat="45.705628205907836" lon="11.262509836152978"><ele>746.0</ele><time>2026-04-08T13:43:10Z</time></trkpt><trkpt lat="45.70571292426487" lon="11.262435271925462"><ele>746.0</ele><time>2026-04-08T13:43:11Z</time></trkpt><trkpt lat="45.705779867761166" lon="11.26237955872046"><ele>746.0</ele><time>2026-04-08T13:43:12Z</time></trkpt><trkpt lat="45.70588484067943" lon="11.26234652059223"><ele>746.0</ele><time>2026-04-08T13:43:14Z</time></trkpt><trkpt lat="45.705955176611134" lon="11.26231735468832"><ele>746.0</ele><time>2026-04-08T13:43:15Z</time></trkpt><trkpt lat="45.706037146788894" lon="11.26228557441768"><ele>745.5999999999999</ele><time>2026-04-08T13:43:16Z</time></trkpt><trkpt lat="45.706131092243446" lon="11.262249726214861"><ele>745.2</ele><time>2026-04-08T13:43:17Z</time></trkpt><trkpt lat="45.70620489573874" lon="11.262247282943274"><ele>744.8</ele><time>2026-04-08T13:43:18Z</time></trkpt><trkpt lat="45.70631985720011" lon="11.262170967056951"><ele>744.4000000000001</ele><time>2026-04-08T13:43:20Z</time></trkpt><trkpt lat="45.7063936580759" lon="11.262138936936385"><ele>744.0</ele><time>2026-04-08T13:43:21Z</time></trkpt><trkpt lat="45.706514832528505" lon="11.262090727330662"><ele>744.0</ele><time>2026-04-08T13:43:23Z</time></trkpt><trkpt lat="45.706594678944015" lon="11.262018477830056"><ele>744.0</ele><time>2026-04-08T13:43:24Z</time></trkpt><trkpt lat="45.70666306931748" lon="11.261950314091232"><ele>744.0</ele><time>2026-04-08T13:43:25Z</time></trkpt><trkpt lat="45.70673188866478" lon="11.261896729858035"><ele>744.0</ele><time>2026-04-08T13:43:26Z</time></trkpt><trkpt lat="45.70679499855848" lon="11.261871554699908"><ele>744.0</ele><time>2026-04-08T13:43:27Z</time></trkpt><trkpt lat="45.70688151534535" lon="11.261811017086803"><ele>744.0</ele><time>2026-04-08T13:43:28Z</time></trkpt><trkpt lat="45.70695734286726" lon="11.261760990944985"><ele>740.8000000000001</ele><time>2026-04-08T13:43:29Z</time></trkpt><trkpt lat="45.70707428943838" lon="11.261686267002457"><ele>737.6</ele><time>2026-04-08T13:43:31Z</time></trkpt><trkpt lat="45.70718728686723" lon="11.261626902705295"><ele>734.4</ele><time>2026-04-08T13:43:33Z</time></trkpt><trkpt lat="45.70727341772107" lon="11.261607186796645"><ele>731.2</ele><time>2026-04-08T13:43:34Z</time></trkpt><trkpt lat="45.70733381464752" lon="11.261552073222703"><ele>728.0</ele><time>2026-04-08T13:43:35Z</time></trkpt><trkpt lat="45.707464911537556" lon="11.261506082308673"><ele>728.0</ele><time>2026-04-08T13:43:37Z</time></trkpt><trkpt lat="45.70750697167669" lon="11.261390764937305"><ele>728.0</ele><time>2026-04-08T13:43:38Z</time></trkpt><trkpt lat="45.7075940968746" lon="11.261344756725585"><ele>728.0</ele><time>2026-04-08T13:43:39Z</time></trkpt><trkpt lat="45.70768893431512" lon="11.261317769105082"><ele>728.0</ele><time>2026-04-08T13:43:40Z</time></trkpt><trkpt lat="45.70776292242168" lon="11.261223663559292"><ele>728.0</ele><time>2026-04-08T13:43:41Z</time></trkpt><trkpt lat="45.70782634682865" lon="11.261153165735063"><ele>728.0</ele><time>2026-04-08T13:43:42Z</time></trkpt><trkpt lat="45.70788724560923" lon="11.26108102747831"><ele>728.0</ele><time>2026-04-08T13:43:43Z</time></trkpt><trkpt lat="45.708009134939786" lon="11.261068800810579"><ele>728.0</ele><time>2026-04-08T13:43:45Z</time></trkpt><trkpt lat="45.70811990935656" lon="11.26101565546765"><ele>728.0</ele><time>2026-04-08T13:43:47Z</time></trkpt><trkpt lat="45.708222148592306" lon="11.260957465899827"><ele>728.0</ele><time>2026-04-08T13:43:49Z</time></trkpt><trkpt lat="45.70833559644814" lon="11.260854317788086"><ele>728.0</ele><time>2026-04-08T13:43:51Z</time></trkpt><trkpt lat="45.708406861591854" lon="11.260771837771813"><ele>728.0</ele><time>2026-04-08T13:43:52Z</time></trkpt><trkpt lat="45.708475292758855" lon="11.260733299605766"><ele>728.0</ele><time>2026-04-08T13:43:53Z</time></trkpt><trkpt lat="45.708531361898636" lon="11.260676205835319"><ele>728.0</ele><time>2026-04-08T13:43:54Z</time></trkpt><trkpt lat="45.70859004861066" lon="11.260602480023579"><ele>728.0</ele><time>2026-04-08T13:43:56Z</time></trkpt><trkpt lat="45.70865904919478" lon="11.260557651905517"><ele>728.0</ele><time>2026-04-08T13:44:01Z</time></trkpt><trkpt lat="45.708718584045705" lon="11.260443007005781"><ele>727.2</ele><time>2026-04-08T13:44:04Z</time></trkpt><trkpt lat="45.70873815340464" lon="11.260350844997534"><ele>726.4</ele><time>2026-04-08T13:44:08Z</time></trkpt><trkpt lat="45.708793658355205" lon="11.26028538236363"><ele>725.6</ele><time>2026-04-08T13:44:43Z</time></trkpt><trkpt lat="45.708910876922594" lon="11.260343246008606"><ele>724.8000000000001</ele><time>2026-04-08T13:44:44Z</time></trkpt><trkpt lat="45.708986747550135" lon="11.260291019610259"><ele>724.0</ele><time>2026-04-08T13:44:46Z</time></trkpt><trkpt lat="45.70908256070602" lon="11.260211963596575"><ele>724.0</ele><time>2026-04-08T13:44:48Z</time></trkpt><trkpt lat="45.709203782410626" lon="11.260097107713444"><ele>724.0</ele><time>2026-04-08T13:44:50Z</time></trkpt><trkpt lat="45.70927356191979" lon="11.2600234671164"><ele>724.0</ele><time>2026-04-08T13:44:51Z</time></trkpt><trkpt lat="45.709347265097875" lon="11.259938871420008"><ele>724.0</ele><time>2026-04-08T13:44:53Z</time></trkpt><trkpt lat="45.70941276520671" lon="11.259922570885369"><ele>724.0</ele><time>2026-04-08T13:44:54Z</time></trkpt><trkpt lat="45.70947108242893" lon="11.25988232080681"><ele>723.2</ele><time>2026-04-08T13:44:55Z</time></trkpt><trkpt lat="45.70955866508272" lon="11.259771222686185"><ele>722.4000000000001</ele><time>2026-04-08T13:44:57Z</time></trkpt><trkpt lat="45.70961561911409" lon="11.259716415595168"><ele>721.6</ele><time>2026-04-08T13:44:58Z</time></trkpt><trkpt lat="45.709675573092696" lon="11.259658721676912"><ele>720.8</ele><time>2026-04-08T13:44:59Z</time></trkpt><trkpt lat="45.709759728080904" lon="11.259583060319256"><ele>720.0</ele><time>2026-04-08T13:45:01Z</time></trkpt><trkpt lat="45.70984764380166" lon="11.259469945821722"><ele>720.0</ele><time>2026-04-08T13:45:03Z</time></trkpt><trkpt lat="45.709926066683074" lon="11.259380104721833"><ele>720.0</ele><time>2026-04-08T13:45:05Z</time></trkpt><trkpt lat="45.710023286744914" lon="11.259321276141668"><ele>720.0</ele><time>2026-04-08T13:45:07Z</time></trkpt><trkpt lat="45.7100714106868" lon="11.25925331169052"><ele>720.0</ele><time>2026-04-08T13:45:08Z</time></trkpt><trkpt lat="45.71012962130187" lon="11.259178971599981"><ele>720.0</ele><time>2026-04-08T13:45:10Z</time></trkpt><trkpt lat="45.71020526190698" lon="11.259087319475075"><ele>720.0</ele><time>2026-04-08T13:45:12Z</time></trkpt><trkpt lat="45.71027045694434" lon="11.259014514425083"><ele>720.0</ele><time>2026-04-08T13:45:14Z</time></trkpt><trkpt lat="45.71037422782268" lon="11.258921760997183"><ele>720.0</ele><time>2026-04-08T13:45:16Z</time></trkpt><trkpt lat="45.710464367802246" lon="11.258836385413371"><ele>720.0</ele><time>2026-04-08T13:45:18Z</time></trkpt><trkpt lat="45.71051117485008" lon="11.258770385170367"><ele>720.0</ele><time>2026-04-08T13:45:21Z</time></trkpt><trkpt lat="45.710517602284625" lon="11.258662967069997"><ele>720.0</ele><time>2026-04-08T13:45:24Z</time></trkpt><trkpt lat="45.71060647141524" lon="11.258563518438004"><ele>720.0</ele><time>2026-04-08T13:45:26Z</time></trkpt><trkpt lat="45.71066336929322" lon="11.258519742371686"><ele>720.0</ele><time>2026-04-08T13:45:27Z</time></trkpt><trkpt lat="45.710728513847535" lon="11.258469621067402"><ele>720.0</ele><time>2026-04-08T13:45:28Z</time></trkpt><trkpt lat="45.71079282042811" lon="11.258416150103935"><ele>720.0</ele><time>2026-04-08T13:45:29Z</time></trkpt><trkpt lat="45.7108815021883" lon="11.258335989765754"><ele>720.0</ele><time>2026-04-08T13:45:30Z</time></trkpt><trkpt lat="45.71097572898165" lon="11.258268233669076"><ele>720.0</ele><time>2026-04-08T13:45:31Z</time></trkpt><trkpt lat="45.71105261190853" lon="11.258216314836075"><ele>720.0</ele><time>2026-04-08T13:45:32Z</time></trkpt><trkpt lat="45.71110961352303" lon="11.258163255350908"><ele>720.0</ele><time>2026-04-08T13:45:33Z</time></trkpt><trkpt lat="45.711162850203785" lon="11.25808619541551"><ele>720.0</ele><time>2026-04-08T13:45:34Z</time></trkpt><trkpt lat="45.711396813884605" lon="11.258252200792935"><ele>723.6</ele><time>2026-04-08T13:45:35Z</time></trkpt><trkpt lat="45.71147190367601" lon="11.25816276702447"><ele>727.2</ele><time>2026-04-08T13:45:36Z</time></trkpt><trkpt lat="45.71155641978331" lon="11.258082050821987"><ele>730.8</ele><time>2026-04-08T13:45:37Z</time></trkpt><trkpt lat="45.71163328225092" lon="11.258005089623264"><ele>734.4</ele><time>2026-04-08T13:45:38Z</time></trkpt><trkpt lat="45.71169391453067" lon="11.257935815738204"><ele>738.0</ele><time>2026-04-08T13:45:39Z</time></trkpt><trkpt lat="45.71181811861432" lon="11.25780835552873"><ele>738.0</ele><time>2026-04-08T13:45:41Z</time></trkpt><trkpt lat="45.71189265617984" lon="11.257746859749963"><ele>738.0</ele><time>2026-04-08T13:45:42Z</time></trkpt><trkpt lat="45.71198258510872" lon="11.257685452070072"><ele>738.0</ele><time>2026-04-08T13:45:43Z</time></trkpt><trkpt lat="45.71207379576619" lon="11.257654009480078"><ele>738.0</ele><time>2026-04-08T13:45:44Z</time></trkpt><trkpt lat="45.71215200836656" lon="11.257602645074018"><ele>738.0</ele><time>2026-04-08T13:45:45Z</time></trkpt><trkpt lat="45.71224534501676" lon="11.257561733606632"><ele>741.6666666666666</ele><time>2026-04-08T13:45:46Z</time></trkpt><trkpt lat="45.7123138363971" lon="11.257525316560226"><ele>745.3333333333334</ele><time>2026-04-08T13:45:47Z</time></trkpt><trkpt lat="45.712351861282535" lon="11.257440361389325"><ele>749.0</ele><time>2026-04-08T13:45:48Z</time></trkpt><trkpt lat="45.71236033789428" lon="11.257315656426362"><ele>752.6666666666667</ele><time>2026-04-08T13:45:49Z</time></trkpt><trkpt lat="45.71236520993696" lon="11.257171267489674"><ele>756.3333333333334</ele><time>2026-04-08T13:45:51Z</time></trkpt><trkpt lat="45.71239162875359" lon="11.257075923690932"><ele>760.0</ele><time>2026-04-08T13:45:52Z</time></trkpt><trkpt lat="45.71244169668015" lon="11.256989859593139"><ele>760.0</ele><time>2026-04-08T13:45:53Z</time></trkpt><trkpt lat="45.712505993022134" lon="11.256905666629455"><ele>760.0</ele><time>2026-04-08T13:45:54Z</time></trkpt><trkpt lat="45.71254232268963" lon="11.256822504614235"><ele>760.0</ele><time>2026-04-08T13:45:55Z</time></trkpt><trkpt lat="45.71258678068349" lon="11.256752956196655"><ele>760.0</ele><time>2026-04-08T13:45:57Z</time></trkpt><trkpt lat="45.71265795639854" lon="11.256644384352086"><ele>760.0</ele><time>2026-04-08T13:45:59Z</time></trkpt><trkpt lat="45.712705827704404" lon="11.256583677475279"><ele>760.0</ele><time>2026-04-08T13:46:00Z</time></trkpt><trkpt lat="45.71276976530352" lon="11.25650032853731"><ele>763.1666666666667</ele><time>2026-04-08T13:46:02Z</time></trkpt><trkpt lat="45.7128090672134" lon="11.256406730830447"><ele>766.3333333333334</ele><time>2026-04-08T13:46:06Z</time></trkpt><trkpt lat="45.71282704232875" lon="11.256298793623014"><ele>769.5</ele><time>2026-04-08T13:46:49Z</time></trkpt><trkpt lat="45.712849105284356" lon="11.256157882116026"><ele>772.6666666666667</ele><time>2026-04-08T13:46:51Z</time></trkpt><trkpt lat="45.71286294552539" lon="11.256062110254334"><ele>775.8333333333334</ele><time>2026-04-08T13:46:52Z</time></trkpt><trkpt lat="45.712864013763486" lon="11.255899017214983"><ele>779.0</ele><time>2026-04-08T13:46:54Z</time></trkpt><trkpt lat="45.71290829419175" lon="11.255756124324689"><ele>778.6</ele><time>2026-04-08T13:46:56Z</time></trkpt><trkpt lat="45.7129253800695" lon="11.255617921487419"><ele>778.2</ele><time>2026-04-08T13:46:58Z</time></trkpt><trkpt lat="45.71288984684779" lon="11.255480070692812"><ele>777.8000000000001</ele><time>2026-04-08T13:47:00Z</time></trkpt><trkpt lat="45.71290229873262" lon="11.255332008637605"><ele>777.4000000000001</ele><time>2026-04-08T13:47:02Z</time></trkpt><trkpt lat="45.71295051686666" lon="11.255218569619494"><ele>777.0</ele><time>2026-04-08T13:47:04Z</time></trkpt><trkpt lat="45.71299494456258" lon="11.255144860508958"><ele>777.0</ele><time>2026-04-08T13:47:05Z</time></trkpt><trkpt lat="45.713043076360385" lon="11.255071145030339"><ele>777.0</ele><time>2026-04-08T13:47:06Z</time></trkpt><trkpt lat="45.7130747474255" lon="11.254948860229755"><ele>777.0</ele><time>2026-04-08T13:47:08Z</time></trkpt><trkpt lat="45.71306260835212" lon="11.25480359881344"><ele>777.0</ele><time>2026-04-08T13:47:10Z</time></trkpt><trkpt lat="45.713054325648905" lon="11.254705732840097"><ele>777.0</ele><time>2026-04-08T13:47:11Z</time></trkpt><trkpt lat="45.71305513022762" lon="11.254537992708206"><ele>775.1666666666666</ele><time>2026-04-08T13:47:13Z</time></trkpt><trkpt lat="45.71309340526685" lon="11.25445968661141"><ele>773.3333333333334</ele><time>2026-04-08T13:47:15Z</time></trkpt><trkpt lat="45.713169025557995" lon="11.25432359247215"><ele>771.5</ele><time>2026-04-08T13:47:17Z</time></trkpt><trkpt lat="45.71322246046278" lon="11.254228819611809"><ele>769.6666666666667</ele><time>2026-04-08T13:47:18Z</time></trkpt><trkpt lat="45.71326819744245" lon="11.254137847629107"><ele>767.8333333333334</ele><time>2026-04-08T13:47:19Z</time></trkpt><trkpt lat="45.71331732332673" lon="11.25403279734282"><ele>766.0</ele><time>2026-04-08T13:47:20Z</time></trkpt><trkpt lat="45.71335671669834" lon="11.253933169132189"><ele>766.0</ele><time>2026-04-08T13:47:21Z</time></trkpt><trkpt lat="45.71338321489004" lon="11.253829447814384"><ele>766.0</ele><time>2026-04-08T13:47:23Z</time></trkpt><trkpt lat="45.71337378647616" lon="11.25372992509095"><ele>766.0</ele><time>2026-04-08T13:47:36Z</time></trkpt><trkpt lat="45.713395925586916" lon="11.253817048877364"><ele>766.0</ele><time>2026-04-08T13:49:46Z</time></trkpt><trkpt lat="45.71336971592739" lon="11.253946022858102"><ele>766.0</ele><time>2026-04-08T13:49:48Z</time></trkpt><trkpt lat="45.713308126713045" lon="11.254085041350004"><ele>766.0</ele><time>2026-04-08T13:49:50Z</time></trkpt><trkpt lat="45.713267128305766" lon="11.254160097213324"><ele>766.0</ele><time>2026-04-08T13:49:51Z</time></trkpt><trkpt lat="45.71322522794954" lon="11.254241912455484"><ele>766.0</ele><time>2026-04-08T13:49:52Z</time></trkpt><trkpt lat="45.71318356399802" lon="11.254323702549533"><ele>766.0</ele><time>2026-04-08T13:49:53Z</time></trkpt><trkpt lat="45.713121149174896" lon="11.254410053862571"><ele>766.0</ele><time>2026-04-08T13:49:54Z</time></trkpt><trkpt lat="45.71305669530624" lon="11.254526299564045"><ele>766.0</ele><time>2026-04-08T13:49:56Z</time></trkpt><trkpt lat="45.71304998838452" lon="11.25465728258773"><ele>766.0</ele><time>2026-04-08T13:49:58Z</time></trkpt><trkpt lat="45.71305620752903" lon="11.25475471930917"><ele>767.8333333333334</ele><time>2026-04-08T13:49:59Z</time></trkpt><trkpt lat="45.71306310779676" lon="11.254868535588463"><ele>769.6666666666667</ele><time>2026-04-08T13:50:00Z</time></trkpt><trkpt lat="45.713070912322934" lon="11.254969358140315"><ele>771.5</ele><time>2026-04-08T13:50:01Z</time></trkpt><trkpt lat="45.713063014727695" lon="11.255076036351076"><ele>773.3333333333334</ele><time>2026-04-08T13:50:02Z</time></trkpt><trkpt lat="45.71299242191356" lon="11.255191702670583"><ele>775.1666666666666</ele><time>2026-04-08T13:50:04Z</time></trkpt><trkpt lat="45.71294961383193" lon="11.255278785649498"><ele>777.0</ele><time>2026-04-08T13:50:05Z</time></trkpt><trkpt lat="45.71290497924703" lon="11.255377578737635"><ele>777.0</ele><time>2026-04-08T13:50:07Z</time></trkpt><trkpt lat="45.712910933842686" lon="11.25551178097193"><ele>777.0</ele><time>2026-04-08T13:50:09Z</time></trkpt><trkpt lat="45.71294003046354" lon="11.255657213889513"><ele>777.0</ele><time>2026-04-08T13:50:11Z</time></trkpt><trkpt lat="45.71291209128239" lon="11.255810394808035"><ele>777.0</ele><time>2026-04-08T13:50:13Z</time></trkpt><trkpt lat="45.712880921947615" lon="11.25589358584548"><ele>777.0</ele><time>2026-04-08T13:50:14Z</time></trkpt><trkpt lat="45.71286427278582" lon="11.25598692984304"><ele>777.0</ele><time>2026-04-08T13:50:15Z</time></trkpt><trkpt lat="45.71287127244567" lon="11.256141271494549"><ele>777.4000000000001</ele><time>2026-04-08T13:50:17Z</time></trkpt><trkpt lat="45.712849630941975" lon="11.256295961435216"><ele>777.8000000000001</ele><time>2026-04-08T13:50:19Z</time></trkpt><trkpt lat="45.71282887479438" lon="11.256388058648069"><ele>778.2</ele><time>2026-04-08T13:50:21Z</time></trkpt><trkpt lat="45.71283571325307" lon="11.256581698199001"><ele>778.6</ele><time>2026-04-08T13:50:33Z</time></trkpt><trkpt lat="45.71283966865265" lon="11.256687104098122"><ele>779.0</ele><time>2026-04-08T13:50:34Z</time></trkpt><trkpt lat="45.71282638848018" lon="11.256778395049857"><ele>779.8571428571429</ele><time>2026-04-08T13:50:35Z</time></trkpt><trkpt lat="45.71283289418378" lon="11.256870199776218"><ele>780.7142857142858</ele><time>2026-04-08T13:50:36Z</time></trkpt><trkpt lat="45.71282336959931" lon="11.256966816460896"><ele>781.5714285714287</ele><time>2026-04-08T13:50:37Z</time></trkpt><trkpt lat="45.71282956939128" lon="11.257072365224127"><ele>782.4285714285714</ele><time>2026-04-08T13:50:38Z</time></trkpt><trkpt lat="45.71281168490067" lon="11.257176615689382"><ele>783.2857142857142</ele><time>2026-04-08T13:50:39Z</time></trkpt><trkpt lat="45.7127687189257" lon="11.25728828197841"><ele>784.1428571428572</ele><time>2026-04-08T13:50:40Z</time></trkpt><trkpt lat="45.71272760425383" lon="11.257363718167127"><ele>785.0</ele><time>2026-04-08T13:50:41Z</time></trkpt><trkpt lat="45.7126783467614" lon="11.25743789430413"><ele>780.8</ele><time>2026-04-08T13:50:42Z</time></trkpt><trkpt lat="45.71264470302323" lon="11.257515719660326"><ele>776.6</ele><time>2026-04-08T13:50:43Z</time></trkpt><trkpt lat="45.7125885156482" lon="11.257622497621393"><ele>772.4000000000001</ele><time>2026-04-08T13:50:45Z</time></trkpt><trkpt lat="45.71256302705112" lon="11.257757862217304"><ele>768.2</ele><time>2026-04-08T13:50:47Z</time></trkpt><trkpt lat="45.71260651480676" lon="11.257878114497101"><ele>764.0</ele><time>2026-04-08T13:50:49Z</time></trkpt><trkpt lat="45.71269499569884" lon="11.257987853355134"><ele>764.0</ele><time>2026-04-08T13:50:51Z</time></trkpt><trkpt lat="45.71275786732669" lon="11.258087665233564"><ele>764.0</ele><time>2026-04-08T13:50:52Z</time></trkpt><trkpt lat="45.712804166822195" lon="11.258185188507596"><ele>764.0</ele><time>2026-04-08T13:50:53Z</time></trkpt><trkpt lat="45.71286407931017" lon="11.258274315719415"><ele>764.0</ele><time>2026-04-08T13:50:54Z</time></trkpt><trkpt lat="45.7129018511381" lon="11.258351157599618"><ele>764.0</ele><time>2026-04-08T13:50:55Z</time></trkpt><trkpt lat="45.712983695272605" lon="11.25841835098598"><ele>764.0</ele><time>2026-04-08T13:50:57Z</time></trkpt><trkpt lat="45.713049713459085" lon="11.258486349194024"><ele>764.0</ele><time>2026-04-08T13:50:59Z</time></trkpt><trkpt lat="45.713130440467445" lon="11.258570632083272"><ele>764.0</ele><time>2026-04-08T13:51:01Z</time></trkpt><trkpt lat="45.71319441470991" lon="11.25861487968939"><ele>764.0</ele><time>2026-04-08T13:51:02Z</time></trkpt><trkpt lat="45.7132767670895" lon="11.258679363223171"><ele>764.0</ele><time>2026-04-08T13:51:03Z</time></trkpt><trkpt lat="45.71337103801911" lon="11.258795641834327"><ele>764.0</ele><time>2026-04-08T13:51:05Z</time></trkpt><trkpt lat="45.71345392253636" lon="11.2588811786674"><ele>764.0</ele><time>2026-04-08T13:51:07Z</time></trkpt><trkpt lat="45.71355843763837" lon="11.258907467840073"><ele>764.0</ele><time>2026-04-08T13:51:10Z</time></trkpt><trkpt lat="45.7136201578494" lon="11.258887374593384"><ele>764.0</ele><time>2026-04-08T13:51:11Z</time></trkpt><trkpt lat="45.713730057051315" lon="11.258823534379959"><ele>764.0</ele><time>2026-04-08T13:51:13Z</time></trkpt><trkpt lat="45.71379906767985" lon="11.258792362356527"><ele>764.0</ele><time>2026-04-08T13:51:15Z</time></trkpt><trkpt lat="45.71385428526308" lon="11.258741851438572"><ele>764.0</ele><time>2026-04-08T13:51:17Z</time></trkpt><trkpt lat="45.713870940207144" lon="11.258607377111288"><ele>760.8000000000001</ele><time>2026-04-08T13:51:19Z</time></trkpt><trkpt lat="45.71388078335049" lon="11.258507639509812"><ele>757.6</ele><time>2026-04-08T13:51:20Z</time></trkpt><trkpt lat="45.71388910774582" lon="11.258393115668296"><ele>754.4</ele><time>2026-04-08T13:51:21Z</time></trkpt><trkpt lat="45.71394316617778" lon="11.258227889870714"><ele>751.2</ele><time>2026-04-08T13:51:23Z</time></trkpt><trkpt lat="45.713978810780134" lon="11.258047947849223"><ele>748.0</ele><time>2026-04-08T13:51:25Z</time></trkpt><trkpt lat="45.714009347951574" lon="11.257968265173682"><ele>748.0</ele><time>2026-04-08T13:51:26Z</time></trkpt><trkpt lat="45.71409582722764" lon="11.25786038705125"><ele>748.0</ele><time>2026-04-08T13:51:28Z</time></trkpt><trkpt lat="45.71418962336311" lon="11.257862642187389"><ele>748.0</ele><time>2026-04-08T13:51:30Z</time></trkpt><trkpt lat="45.714252576574516" lon="11.257859391499968"><ele>748.0</ele><time>2026-04-08T13:51:31Z</time></trkpt><trkpt lat="45.71432974230639" lon="11.257848886074665"><ele>748.0</ele><time>2026-04-08T13:51:32Z</time></trkpt><trkpt lat="45.7143940214009" lon="11.25785263233171"><ele>748.0</ele><time>2026-04-08T13:51:33Z</time></trkpt><trkpt lat="45.71448405364269" lon="11.257811332939974"><ele>743.4</ele><time>2026-04-08T13:51:35Z</time></trkpt><trkpt lat="45.71456774988365" lon="11.257725551600634"><ele>738.8</ele><time>2026-04-08T13:51:37Z</time></trkpt><trkpt lat="45.714626293163846" lon="11.25767494289372"><ele>734.2</ele><time>2026-04-08T13:51:38Z</time></trkpt><trkpt lat="45.71468429588428" lon="11.257610216649281"><ele>729.6</ele><time>2026-04-08T13:51:39Z</time></trkpt><trkpt lat="45.71478062910814" lon="11.257524020598243"><ele>725.0</ele><time>2026-04-08T13:51:41Z</time></trkpt><trkpt lat="45.71486785841589" lon="11.25744305366683"><ele>725.0</ele><time>2026-04-08T13:51:43Z</time></trkpt><trkpt lat="45.714928028988936" lon="11.257375822659561"><ele>725.0</ele><time>2026-04-08T13:51:45Z</time></trkpt><trkpt lat="45.71502071621343" lon="11.257310149718315"><ele>725.0</ele><time>2026-04-08T13:51:47Z</time></trkpt><trkpt lat="45.71507771556952" lon="11.257262327170158"><ele>725.0</ele><time>2026-04-08T13:51:48Z</time></trkpt><trkpt lat="45.71514293081062" lon="11.257207996670425"><ele>725.0</ele><time>2026-04-08T13:51:52Z</time></trkpt><trkpt lat="45.715225520632245" lon="11.257221473088652"><ele>725.0</ele><time>2026-04-08T13:51:54Z</time></trkpt><trkpt lat="45.71530203979513" lon="11.257245515867965"><ele>722.2857142857143</ele><time>2026-04-08T13:51:57Z</time></trkpt><trkpt lat="45.715366476356586" lon="11.257251854070992"><ele>719.5714285714287</ele><time>2026-04-08T13:51:59Z</time></trkpt><trkpt lat="45.715427627047305" lon="11.257280601314033"><ele>716.8571428571429</ele><time>2026-04-08T13:52:19Z</time></trkpt><trkpt lat="45.715503566910286" lon="11.257353024212788"><ele>714.1428571428571</ele><time>2026-04-08T13:52:21Z</time></trkpt><trkpt lat="45.71558302991705" lon="11.257388910738676"><ele>711.4285714285714</ele><time>2026-04-08T13:52:24Z</time></trkpt><trkpt lat="45.71564396273585" lon="11.25741708580222"><ele>708.7142857142857</ele><time>2026-04-08T13:52:27Z</time></trkpt><trkpt lat="45.715707048382654" lon="11.257435066585996"><ele>706.0</ele><time>2026-04-08T13:52:30Z</time></trkpt><trkpt lat="45.715769849452194" lon="11.257452860704277"><ele>706.0</ele><time>2026-04-08T13:52:43Z</time></trkpt><trkpt lat="45.71581783835084" lon="11.257390697578774"><ele>706.0</ele><time>2026-04-08T13:52:58Z</time></trkpt><trkpt lat="45.71584422785215" lon="11.257289003734755"><ele>706.0</ele><time>2026-04-08T13:53:04Z</time></trkpt><trkpt lat="45.715821229179724" lon="11.257161761982653"><ele>706.0</ele><time>2026-04-08T13:53:06Z</time></trkpt><trkpt lat="45.71583224375325" lon="11.257302545161632"><ele>706.0</ele><time>2026-04-08T13:54:18Z</time></trkpt><trkpt lat="45.71581793279641" lon="11.257430400418116"><ele>706.0</ele><time>2026-04-08T13:54:27Z</time></trkpt><trkpt lat="45.71572912178353" lon="11.257462342140839"><ele>706.0</ele><time>2026-04-08T13:54:30Z</time></trkpt><trkpt lat="45.71563223751212" lon="11.25741696790977"><ele>706.0</ele><time>2026-04-08T13:54:32Z</time></trkpt><trkpt lat="45.715565806350654" lon="11.257389604990003"><ele>706.0</ele><time>2026-04-08T13:54:33Z</time></trkpt><trkpt lat="45.715494257956664" lon="11.257348811041"><ele>706.0</ele><time>2026-04-08T13:54:34Z</time></trkpt><trkpt lat="45.71543434840782" lon="11.257312922141399"><ele>706.0</ele><time>2026-04-08T13:54:35Z</time></trkpt><trkpt lat="45.71537475103731" lon="11.257262970143273"><ele>706.0</ele><time>2026-04-08T13:54:37Z</time></trkpt><trkpt lat="45.71529463078056" lon="11.25724056551773"><ele>708.1999999999999</ele><time>2026-04-08T13:54:39Z</time></trkpt><trkpt lat="45.71521368279883" lon="11.257232836348576"><ele>710.4</ele><time>2026-04-08T13:54:40Z</time></trkpt><trkpt lat="45.71509553630637" lon="11.257217294685528"><ele>712.6</ele><time>2026-04-08T13:54:42Z</time></trkpt><trkpt lat="45.71500726274403" lon="11.257202567292511"><ele>714.8</ele><time>2026-04-08T13:54:44Z</time></trkpt><trkpt lat="45.7149427393707" lon="11.257276019441003"><ele>717.0</ele><time>2026-04-08T13:55:05Z</time></trkpt><trkpt lat="45.7149012686603" lon="11.257401038225542"><ele>718.3333333333334</ele><time>2026-04-08T13:55:07Z</time></trkpt><trkpt lat="45.71486094749846" lon="11.257505441884964"><ele>719.6666666666666</ele><time>2026-04-08T13:55:09Z</time></trkpt><trkpt lat="45.71477255786762" lon="11.257574770008487"><ele>721.0</ele><time>2026-04-08T13:55:11Z</time></trkpt><trkpt lat="45.71470052605216" lon="11.257625757396827"><ele>722.3333333333333</ele><time>2026-04-08T13:55:12Z</time></trkpt><trkpt lat="45.714627158750226" lon="11.257684837885199"><ele>723.6666666666666</ele><time>2026-04-08T13:55:13Z</time></trkpt><trkpt lat="45.714552945070395" lon="11.257754921927019"><ele>725.0</ele><time>2026-04-08T13:55:14Z</time></trkpt><trkpt lat="45.71445757989302" lon="11.257830602406584"><ele>729.6</ele><time>2026-04-08T13:55:16Z</time></trkpt><trkpt lat="45.71434551052984" lon="11.257874595469248"><ele>734.2</ele><time>2026-04-08T13:55:18Z</time></trkpt><trkpt lat="45.714229416841896" lon="11.257867517472382"><ele>738.8</ele><time>2026-04-08T13:55:20Z</time></trkpt><trkpt lat="45.71415808735491" lon="11.257900295498093"><ele>743.4</ele><time>2026-04-08T13:55:21Z</time></trkpt><trkpt lat="45.714076044767516" lon="11.257922890636499"><ele>748.0</ele><time>2026-04-08T13:55:23Z</time></trkpt><trkpt lat="45.71400109418746" lon="11.258039104720227"><ele>745.0</ele><time>2026-04-08T13:55:25Z</time></trkpt><trkpt lat="45.71397455720971" lon="11.258226133504147"><ele>742.0</ele><time>2026-04-08T13:55:27Z</time></trkpt><trkpt lat="45.713942087702236" lon="11.258342967126003"><ele>739.0</ele><time>2026-04-08T13:55:28Z</time></trkpt><trkpt lat="45.713890775553566" lon="11.258504431944008"><ele>736.0</ele><time>2026-04-08T13:55:30Z</time></trkpt><trkpt lat="45.71388043759374" lon="11.258605080702191"><ele>733.0</ele><time>2026-04-08T13:55:31Z</time></trkpt><trkpt lat="45.71386635078547" lon="11.258694984999272"><ele>733.0</ele><time>2026-04-08T13:55:32Z</time></trkpt><trkpt lat="45.713838595424" lon="11.258812220810087"><ele>733.0</ele><time>2026-04-08T13:55:34Z</time></trkpt><trkpt lat="45.713746343241304" lon="11.258881584196004"><ele>733.0</ele><time>2026-04-08T13:55:36Z</time></trkpt><trkpt lat="45.713627651854765" lon="11.258901219851303"><ele>733.0</ele><time>2026-04-08T13:55:38Z</time></trkpt><trkpt lat="45.71355277908483" lon="11.258908842746068"><ele>733.0</ele><time>2026-04-08T13:55:39Z</time></trkpt><trkpt lat="45.71347633533591" lon="11.258939412083533"><ele>739.2</ele><time>2026-04-08T13:55:41Z</time></trkpt><trkpt lat="45.71340024956723" lon="11.258886717273832"><ele>745.4</ele><time>2026-04-08T13:55:43Z</time></trkpt><trkpt lat="45.71330287601321" lon="11.258771358742793"><ele>751.6</ele><time>2026-04-08T13:55:45Z</time></trkpt><trkpt lat="45.7132029475765" lon="11.258669151397097"><ele>757.8000000000001</ele><time>2026-04-08T13:55:47Z</time></trkpt><trkpt lat="45.71315318040939" lon="11.258611731207472"><ele>764.0</ele><time>2026-04-08T13:55:48Z</time></trkpt><trkpt lat="45.71306764165212" lon="11.258526864250925"><ele>764.0</ele><time>2026-04-08T13:55:50Z</time></trkpt><trkpt lat="45.712991889721565" lon="11.258474602363524"><ele>764.0</ele><time>2026-04-08T13:55:51Z</time></trkpt><trkpt lat="45.71294413840102" lon="11.25841063740803"><ele>764.0</ele><time>2026-04-08T13:55:52Z</time></trkpt><trkpt lat="45.71283616187407" lon="11.258243884203651"><ele>764.0</ele><time>2026-04-08T13:55:54Z</time></trkpt><trkpt lat="45.71276720318141" lon="11.258129355131874"><ele>764.0</ele><time>2026-04-08T13:55:55Z</time></trkpt><trkpt lat="45.71271241761318" lon="11.258023101175494"><ele>764.0</ele><time>2026-04-08T13:55:56Z</time></trkpt><trkpt lat="45.71265010633374" lon="11.257940029401407"><ele>764.0</ele><time>2026-04-08T13:55:57Z</time></trkpt><trkpt lat="45.71260276162545" lon="11.25786950189368"><ele>764.0</ele><time>2026-04-08T13:55:58Z</time></trkpt><trkpt lat="45.712569422811974" lon="11.257771785860447"><ele>764.0</ele><time>2026-04-08T13:56:00Z</time></trkpt><trkpt lat="45.712574751559615" lon="11.2576502359321"><ele>764.0</ele><time>2026-04-08T13:56:02Z</time></trkpt><trkpt lat="45.71263786713548" lon="11.257535844923819"><ele>764.0</ele><time>2026-04-08T13:56:04Z</time></trkpt><trkpt lat="45.71269009011797" lon="11.257465599788745"><ele>764.0</ele><time>2026-04-08T13:56:05Z</time></trkpt><trkpt lat="45.71273631776702" lon="11.257391362869608"><ele>764.0</ele><time>2026-04-08T13:56:06Z</time></trkpt><trkpt lat="45.712782309312075" lon="11.257248590739167"><ele>764.0</ele><time>2026-04-08T13:56:08Z</time></trkpt><trkpt lat="45.712833966381275" lon="11.257087845226394"><ele>764.0</ele><time>2026-04-08T13:56:10Z</time></trkpt><trkpt lat="45.71284524867108" lon="11.256931998096176"><ele>764.0</ele><time>2026-04-08T13:56:12Z</time></trkpt><trkpt lat="45.71284110218606" lon="11.256834623211272"><ele>767.0</ele><time>2026-04-08T13:56:13Z</time></trkpt><trkpt lat="45.71282696564374" lon="11.25668925163402"><ele>770.0</ele><time>2026-04-08T13:56:15Z</time></trkpt><trkpt lat="45.71284157831518" lon="11.256594371589943"><ele>773.0</ele><time>2026-04-08T13:56:17Z</time></trkpt><trkpt lat="45.71284145116576" lon="11.256481025186702"><ele>776.0</ele><time>2026-04-08T13:56:21Z</time></trkpt><trkpt lat="45.712847699345204" lon="11.256358143910678"><ele>779.0</ele><time>2026-04-08T13:56:25Z</time></trkpt><trkpt lat="45.712939925809046" lon="11.256218265219763"><ele>779.0</ele><time>2026-04-08T13:56:27Z</time></trkpt><trkpt lat="45.71301118550734" lon="11.256090906755203"><ele>779.0</ele><time>2026-04-08T13:56:29Z</time></trkpt><trkpt lat="45.71303595403438" lon="11.255919971045463"><ele>779.0</ele><time>2026-04-08T13:56:31Z</time></trkpt><trkpt lat="45.71306404593519" lon="11.255831332261906"><ele>779.0</ele><time>2026-04-08T13:56:32Z</time></trkpt><trkpt lat="45.713103564800974" lon="11.255730599430379"><ele>779.0</ele><time>2026-04-08T13:56:33Z</time></trkpt><trkpt lat="45.713137661514885" lon="11.25558446073355"><ele>778.5</ele><time>2026-04-08T13:56:35Z</time></trkpt><trkpt lat="45.713138649254105" lon="11.255432945639296"><ele>778.0</ele><time>2026-04-08T13:56:37Z</time></trkpt><trkpt lat="45.71316918401589" lon="11.25527517914754"><ele>777.5</ele><time>2026-04-08T13:56:39Z</time></trkpt><trkpt lat="45.71321616782984" lon="11.255118968477872"><ele>777.0</ele><time>2026-04-08T13:56:41Z</time></trkpt><trkpt lat="45.7132567591064" lon="11.254919417169862"><ele>777.0</ele><time>2026-04-08T13:56:43Z</time></trkpt><trkpt lat="45.713256354560265" lon="11.254827958848203"><ele>777.0</ele><time>2026-04-08T13:56:44Z</time></trkpt><trkpt lat="45.71327673651559" lon="11.254706802384208"><ele>777.0</ele><time>2026-04-08T13:56:46Z</time></trkpt><trkpt lat="45.71333429165923" lon="11.254626931502845"><ele>777.0</ele><time>2026-04-08T13:56:48Z</time></trkpt><trkpt lat="45.71342253819961" lon="11.254505597213258"><ele>777.0</ele><time>2026-04-08T13:56:50Z</time></trkpt><trkpt lat="45.713457759201965" lon="11.25439611820454"><ele>777.0</ele><time>2026-04-08T13:56:52Z</time></trkpt><trkpt lat="45.71348453376102" lon="11.254284959605732"><ele>775.25</ele><time>2026-04-08T13:56:54Z</time></trkpt><trkpt lat="45.713558099511516" lon="11.254132322581047"><ele>773.5</ele><time>2026-04-08T13:56:56Z</time></trkpt><trkpt lat="45.71359757912668" lon="11.253970451248161"><ele>771.75</ele><time>2026-04-08T13:56:58Z</time></trkpt><trkpt lat="45.71363482048629" lon="11.253793121542802"><ele>770.0</ele><time>2026-04-08T13:57:00Z</time></trkpt><trkpt lat="45.713659724890334" lon="11.253640299343664"><ele>770.0000000000001</ele><time>2026-04-08T13:57:02Z</time></trkpt><trkpt lat="45.71368891954535" lon="11.25355097700955"><ele>770.0</ele><time>2026-04-08T13:57:04Z</time></trkpt><trkpt lat="45.71375472886434" lon="11.25346505036148"><ele>770.0</ele><time>2026-04-08T13:57:07Z</time></trkpt><trkpt lat="45.713847554162015" lon="11.253453225170622"><ele>770.0</ele><time>2026-04-08T13:57:52Z</time></trkpt><trkpt lat="45.71391551838441" lon="11.253424181461288"><ele>770.0000000000001</ele><time>2026-04-08T13:57:57Z</time></trkpt><trkpt lat="45.713973826524956" lon="11.253370328334947"><ele>770.0</ele><time>2026-04-08T14:00:36Z</time></trkpt><trkpt lat="45.714008510216466" lon="11.253289190348019"><ele>770.0000000000001</ele><time>2026-04-08T14:00:53Z</time></trkpt><trkpt lat="45.71407639357533" lon="11.253209653934851"><ele>770.0</ele><time>2026-04-08T14:00:55Z</time></trkpt><trkpt lat="45.71414021516469" lon="11.253184233997173"><ele>770.0</ele><time>2026-04-08T14:00:57Z</time></trkpt><trkpt lat="45.7142102882746" lon="11.253157064865919"><ele>770.0</ele><time>2026-04-08T14:01:03Z</time></trkpt><trkpt lat="45.714205877876516" lon="11.253005947877705"><ele>770.0000000000001</ele><time>2026-04-08T14:01:05Z</time></trkpt><trkpt lat="45.714211092472965" lon="11.252888196423616"><ele>770.0</ele><time>2026-04-08T14:01:07Z</time></trkpt><trkpt lat="45.71424925899999" lon="11.252812262814594"><ele>770.0000000000001</ele><time>2026-04-08T14:01:10Z</time></trkpt><trkpt lat="45.714245668355275" lon="11.252687857379605"><ele>770.0</ele><time>2026-04-08T14:01:19Z</time></trkpt><trkpt lat="45.71425862138425" lon="11.252598939414618"><ele>770.0</ele><time>2026-04-08T14:01:21Z</time></trkpt><trkpt lat="45.714299267089864" lon="11.25250907544465"><ele>770.0</ele><time>2026-04-08T14:01:30Z</time></trkpt><trkpt lat="45.71431128515314" lon="11.252411433899281"><ele>770.0000000000001</ele><time>2026-04-08T14:01:32Z</time></trkpt><trkpt lat="45.71432874519661" lon="11.252300563342702"><ele>770.0</ele><time>2026-04-08T14:01:35Z</time></trkpt><trkpt lat="45.714236063604865" lon="11.25226147448416"><ele>770.0000000000001</ele><time>2026-04-08T14:02:05Z</time></trkpt><trkpt lat="45.71421916208545" lon="11.252161896435359"><ele>770.0</ele><time>2026-04-08T14:02:08Z</time></trkpt><trkpt lat="45.71421840534844" lon="11.252039656988607"><ele>770.0</ele><time>2026-04-08T14:02:10Z</time></trkpt><trkpt lat="45.71419658699954" lon="11.251899909052511"><ele>770.0</ele><time>2026-04-08T14:02:13Z</time></trkpt><trkpt lat="45.714219195937225" lon="11.25180572990508"><ele>770.0000000000001</ele><time>2026-04-08T14:02:16Z</time></trkpt><trkpt lat="45.71425456018035" lon="11.25168999403124"><ele>770.0</ele><time>2026-04-08T14:02:18Z</time></trkpt><trkpt lat="45.71428019555677" lon="11.251517526511051"><ele>768.5000000000001</ele><time>2026-04-08T14:02:20Z</time></trkpt><trkpt lat="45.71430921908005" lon="11.251409456484978"><ele>767.0</ele><time>2026-04-08T14:02:22Z</time></trkpt><trkpt lat="45.714336673042524" lon="11.251324082652397"><ele>765.5</ele><time>2026-04-08T14:02:24Z</time></trkpt><trkpt lat="45.714313545068734" lon="11.251223387470743"><ele>764.0</ele><time>2026-04-08T14:02:27Z</time></trkpt><trkpt lat="45.714296205483436" lon="11.251047885472367"><ele>762.5</ele><time>2026-04-08T14:02:29Z</time></trkpt><trkpt lat="45.714253905591384" lon="11.250962750919614"><ele>761.0</ele><time>2026-04-08T14:02:31Z</time></trkpt><trkpt lat="45.7142474685659" lon="11.250842478027927"><ele>760.9999999999999</ele><time>2026-04-08T14:02:34Z</time></trkpt><trkpt lat="45.71422834800167" lon="11.250744574295046"><ele>761.0</ele><time>2026-04-08T14:02:37Z</time></trkpt><trkpt lat="45.71423957376185" lon="11.250652395438301"><ele>761.0</ele><time>2026-04-08T14:02:39Z</time></trkpt><trkpt lat="45.714271440138965" lon="11.250532358287774"><ele>761.0</ele><time>2026-04-08T14:02:41Z</time></trkpt><trkpt lat="45.714294965617356" lon="11.250445158762815"><ele>761.0</ele><time>2026-04-08T14:03:06Z</time></trkpt><trkpt lat="45.71435585026404" lon="11.250367475240148"><ele>760.9999999999999</ele><time>2026-04-08T14:03:14Z</time></trkpt><trkpt lat="45.714390743906094" lon="11.250284960602237"><ele>761.0</ele><time>2026-04-08T14:03:16Z</time></trkpt><trkpt lat="45.71444072968179" lon="11.250170545276518"><ele>756.6666666666666</ele><time>2026-04-08T14:03:18Z</time></trkpt><trkpt lat="45.714478081777074" lon="11.250050347762855"><ele>752.3333333333333</ele><time>2026-04-08T14:03:20Z</time></trkpt><trkpt lat="45.714461311878324" lon="11.249938552390951"><ele>748.0</ele><time>2026-04-08T14:03:22Z</time></trkpt><trkpt lat="45.71446641927896" lon="11.249782250114894"><ele>743.6666666666666</ele><time>2026-04-08T14:03:24Z</time></trkpt><trkpt lat="45.714492949356355" lon="11.24966764098353"><ele>739.3333333333334</ele><time>2026-04-08T14:03:26Z</time></trkpt><trkpt lat="45.714512666192654" lon="11.24957007907589"><ele>735.0</ele><time>2026-04-08T14:03:28Z</time></trkpt><trkpt lat="45.71448986637065" lon="11.2494369778513"><ele>734.8333333333334</ele><time>2026-04-08T14:03:30Z</time></trkpt><trkpt lat="45.71448856482281" lon="11.249345633550167"><ele>734.6666666666666</ele><time>2026-04-08T14:03:32Z</time></trkpt><trkpt lat="45.714530447647675" lon="11.249207886195766"><ele>734.5</ele><time>2026-04-08T14:03:35Z</time></trkpt><trkpt lat="45.714552958659105" lon="11.249111681405598"><ele>734.3333333333333</ele><time>2026-04-08T14:03:37Z</time></trkpt><trkpt lat="45.714570451373" lon="11.248992205236432"><ele>734.1666666666666</ele><time>2026-04-08T14:03:39Z</time></trkpt><trkpt lat="45.714596195924166" lon="11.248847085440781"><ele>734.0</ele><time>2026-04-08T14:03:41Z</time></trkpt><trkpt lat="45.71461267316008" lon="11.248735346447772"><ele>734.0</ele><time>2026-04-08T14:03:43Z</time></trkpt><trkpt lat="45.714621094574696" lon="11.248608681071024"><ele>734.0</ele><time>2026-04-08T14:03:45Z</time></trkpt><trkpt lat="45.714631291719975" lon="11.248461336220483"><ele>734.0</ele><time>2026-04-08T14:03:47Z</time></trkpt><trkpt lat="45.71465002554212" lon="11.248357067025541"><ele>734.0</ele><time>2026-04-08T14:03:49Z</time></trkpt><trkpt lat="45.714657423785994" lon="11.248224827075608"><ele>734.0</ele><time>2026-04-08T14:03:51Z</time></trkpt><trkpt lat="45.714641296388194" lon="11.248089932600735"><ele>735.5</ele><time>2026-04-08T14:03:53Z</time></trkpt><trkpt lat="45.71459686743238" lon="11.247976265970973"><ele>737.0</ele><time>2026-04-08T14:03:55Z</time></trkpt><trkpt lat="45.714554367001945" lon="11.247870366886074"><ele>738.5</ele><time>2026-04-08T14:03:58Z</time></trkpt><trkpt lat="45.71451067935467" lon="11.247795397138944"><ele>740.0</ele><time>2026-04-08T14:04:01Z</time></trkpt><trkpt lat="45.71446251632788" lon="11.247668275825484"><ele>741.5</ele><time>2026-04-08T14:04:05Z</time></trkpt><trkpt lat="45.71442740875475" lon="11.247543850015559"><ele>743.0</ele><time>2026-04-08T14:04:07Z</time></trkpt><trkpt lat="45.714358940266834" lon="11.247442227288255"><ele>743.0</ele><time>2026-04-08T14:04:09Z</time></trkpt><trkpt lat="45.7142898478967" lon="11.24731221926994"><ele>743.0</ele><time>2026-04-08T14:04:11Z</time></trkpt><trkpt lat="45.714248330773174" lon="11.24722401233902"><ele>743.0</ele><time>2026-04-08T14:04:12Z</time></trkpt><trkpt lat="45.714224643062636" lon="11.247132024543765"><ele>743.0</ele><time>2026-04-08T14:04:13Z</time></trkpt><trkpt lat="45.7141715356439" lon="11.247033935427035"><ele>743.0</ele><time>2026-04-08T14:04:15Z</time></trkpt><trkpt lat="45.71409112318875" lon="11.246993508985932"><ele>743.0</ele><time>2026-04-08T14:04:17Z</time></trkpt><trkpt lat="45.71402931104025" lon="11.246950691142798"><ele>745.0</ele><time>2026-04-08T14:04:19Z</time></trkpt><trkpt lat="45.71398715848228" lon="11.246832757868257"><ele>747.0</ele><time>2026-04-08T14:04:22Z</time></trkpt><trkpt lat="45.71395231385345" lon="11.246704635831371"><ele>749.0</ele><time>2026-04-08T14:04:24Z</time></trkpt><trkpt lat="45.7139104399662" lon="11.246627833928363"><ele>751.0</ele><time>2026-04-08T14:04:26Z</time></trkpt><trkpt lat="45.71386689259881" lon="11.246526586072987"><ele>753.0</ele><time>2026-04-08T14:04:28Z</time></trkpt><trkpt lat="45.71383178231175" lon="11.246392136322772"><ele>755.0</ele><time>2026-04-08T14:04:30Z</time></trkpt><trkpt lat="45.71381148719185" lon="11.246300825192781"><ele>756.6</ele><time>2026-04-08T14:04:32Z</time></trkpt><trkpt lat="45.71376815476514" lon="11.246217413579812"><ele>758.2</ele><time>2026-04-08T14:04:35Z</time></trkpt><trkpt lat="45.71372835534313" lon="11.246121664825399"><ele>759.8</ele><time>2026-04-08T14:04:38Z</time></trkpt><trkpt lat="45.71368148920824" lon="11.246018313958533"><ele>761.4</ele><time>2026-04-08T14:04:40Z</time></trkpt><trkpt lat="45.71362614586103" lon="11.245882740702271"><ele>763.0</ele><time>2026-04-08T14:04:42Z</time></trkpt><trkpt lat="45.71361744669668" lon="11.245724008673816"><ele>761.8333333333334</ele><time>2026-04-08T14:04:44Z</time></trkpt><trkpt lat="45.713608507530786" lon="11.245619762500844"><ele>760.6666666666667</ele><time>2026-04-08T14:04:46Z</time></trkpt><trkpt lat="45.713576047885816" lon="11.245529424735658"><ele>759.5</ele><time>2026-04-08T14:04:48Z</time></trkpt><trkpt lat="45.71359697406848" lon="11.245429412592674"><ele>758.3333333333334</ele><time>2026-04-08T14:04:50Z</time></trkpt><trkpt lat="45.71365765534908" lon="11.245366844142596"><ele>757.1666666666666</ele><time>2026-04-08T14:04:52Z</time></trkpt><trkpt lat="45.71373980013979" lon="11.245296386169676"><ele>756.0</ele><time>2026-04-08T14:04:54Z</time></trkpt><trkpt lat="45.713838994987384" lon="11.24522698855034"><ele>756.0</ele><time>2026-04-08T14:04:56Z</time></trkpt><trkpt lat="45.71390166021183" lon="11.245165457772034"><ele>756.0</ele><time>2026-04-08T14:04:57Z</time></trkpt><trkpt lat="45.71396144017725" lon="11.245116655980679"><ele>756.0</ele><time>2026-04-08T14:04:58Z</time></trkpt><trkpt lat="45.71403521828371" lon="11.245079394276356"><ele>756.0</ele><time>2026-04-08T14:05:00Z</time></trkpt><trkpt lat="45.71409873494119" lon="11.245028098531728"><ele>756.0</ele><time>2026-04-08T14:05:01Z</time></trkpt><trkpt lat="45.714207542414954" lon="11.244970567248526"><ele>756.0</ele><time>2026-04-08T14:05:03Z</time></trkpt><trkpt lat="45.714274064274065" lon="11.244908452998366"><ele>756.0</ele><time>2026-04-08T14:05:05Z</time></trkpt><trkpt lat="45.71436531778237" lon="11.244823204049595"><ele>756.0</ele><time>2026-04-08T14:05:07Z</time></trkpt><trkpt lat="45.71446825438477" lon="11.244771261330278"><ele>756.0</ele><time>2026-04-08T14:05:09Z</time></trkpt><trkpt lat="45.714539262574895" lon="11.244712342675506"><ele>756.0</ele><time>2026-04-08T14:05:11Z</time></trkpt><trkpt lat="45.71460740668032" lon="11.244630877096265"><ele>756.0</ele><time>2026-04-08T14:05:13Z</time></trkpt><trkpt lat="45.714624103034495" lon="11.24453099499092"><ele>759.8</ele><time>2026-04-08T14:05:15Z</time></trkpt><trkpt lat="45.71468653614657" lon="11.24457185245955"><ele>763.5999999999999</ele><time>2026-04-08T14:05:25Z</time></trkpt><trkpt lat="45.71470237069157" lon="11.244708504348353"><ele>767.4</ele><time>2026-04-08T14:05:27Z</time></trkpt><trkpt lat="45.7147933675369" lon="11.244656102067966"><ele>771.2</ele><time>2026-04-08T14:05:30Z</time></trkpt><trkpt lat="45.71483271960639" lon="11.244492728254677"><ele>775.0</ele><time>2026-04-08T14:05:32Z</time></trkpt><trkpt lat="45.71487229508524" lon="11.24433333197155"><ele>774.9999999999999</ele><time>2026-04-08T14:05:34Z</time></trkpt><trkpt lat="45.714895230463135" lon="11.244222060116963"><ele>775.0</ele><time>2026-04-08T14:05:35Z</time></trkpt><trkpt lat="45.714914500204706" lon="11.244097136497006"><ele>775.0</ele><time>2026-04-08T14:05:36Z</time></trkpt><trkpt lat="45.71489007624753" lon="11.243983728540309"><ele>775.0</ele><time>2026-04-08T14:05:37Z</time></trkpt><trkpt lat="45.714902740532736" lon="11.243880104161972"><ele>774.9999999999999</ele><time>2026-04-08T14:05:38Z</time></trkpt><trkpt lat="45.71490505488322" lon="11.24378903224147"><ele>775.0</ele><time>2026-04-08T14:05:39Z</time></trkpt><trkpt lat="45.71489561663052" lon="11.243691637104485"><ele>774.6666666666666</ele><time>2026-04-08T14:05:40Z</time></trkpt><trkpt lat="45.71488086489577" lon="11.243598394609199"><ele>774.3333333333333</ele><time>2026-04-08T14:05:41Z</time></trkpt><trkpt lat="45.71486131970314" lon="11.24348624665725"><ele>774.0</ele><time>2026-04-08T14:05:42Z</time></trkpt><trkpt lat="45.714872798696575" lon="11.243384368375795"><ele>773.6666666666667</ele><time>2026-04-08T14:05:43Z</time></trkpt><trkpt lat="45.714871581377615" lon="11.243286418583047"><ele>773.3333333333334</ele><time>2026-04-08T14:05:44Z</time></trkpt><trkpt lat="45.71488708822573" lon="11.24311193635731"><ele>773.0</ele><time>2026-04-08T14:05:46Z</time></trkpt><trkpt lat="45.71495259997644" lon="11.242969069058441"><ele>773.0</ele><time>2026-04-08T14:05:48Z</time></trkpt><trkpt lat="45.714997763380744" lon="11.242825090818203"><ele>773.0</ele><time>2026-04-08T14:05:50Z</time></trkpt><trkpt lat="45.71503074601493" lon="11.242710684663498"><ele>773.0</ele><time>2026-04-08T14:05:51Z</time></trkpt><trkpt lat="45.71507220772669" lon="11.242602177180576"><ele>773.0</ele><time>2026-04-08T14:05:52Z</time></trkpt><trkpt lat="45.71512731039458" lon="11.242484217599424"><ele>773.0</ele><time>2026-04-08T14:05:53Z</time></trkpt><trkpt lat="45.715162077061784" lon="11.242354203428077"><ele>771.8</ele><time>2026-04-08T14:05:54Z</time></trkpt><trkpt lat="45.715195417274025" lon="11.242260312094524"><ele>770.5999999999999</ele><time>2026-04-08T14:05:55Z</time></trkpt><trkpt lat="45.715232800583024" lon="11.242179358074614"><ele>769.4000000000001</ele><time>2026-04-08T14:05:56Z</time></trkpt><trkpt lat="45.7153521648731" lon="11.24205822919672"><ele>768.2</ele><time>2026-04-08T14:05:58Z</time></trkpt><trkpt lat="45.7154176303501" lon="11.2420330600331"><ele>767.0</ele><time>2026-04-08T14:05:59Z</time></trkpt><trkpt lat="45.71549344173853" lon="11.241911744121818"><ele>768.3333333333333</ele><time>2026-04-08T14:06:01Z</time></trkpt><trkpt lat="45.715494752211185" lon="11.241779033015092"><ele>769.6666666666666</ele><time>2026-04-08T14:06:02Z</time></trkpt><trkpt lat="45.715508645337486" lon="11.241629770810897"><ele>771.0</ele><time>2026-04-08T14:06:03Z</time></trkpt><trkpt lat="45.715532115431095" lon="11.241532081086172"><ele>772.3333333333333</ele><time>2026-04-08T14:06:04Z</time></trkpt><trkpt lat="45.71556666485664" lon="11.241443253946196"><ele>773.6666666666666</ele><time>2026-04-08T14:06:05Z</time></trkpt><trkpt lat="45.715637536014704" lon="11.241326684154835"><ele>775.0</ele><time>2026-04-08T14:06:07Z</time></trkpt><trkpt lat="45.71568638510236" lon="11.241128023539083"><ele>775.0</ele><time>2026-04-08T14:06:09Z</time></trkpt><trkpt lat="45.71569770695924" lon="11.24097631354533"><ele>775.0</ele><time>2026-04-08T14:06:10Z</time></trkpt><trkpt lat="45.71569758781639" lon="11.240823740151104"><ele>775.0</ele><time>2026-04-08T14:06:11Z</time></trkpt><trkpt lat="45.71569345173098" lon="11.240677760123742"><ele>775.0</ele><time>2026-04-08T14:06:12Z</time></trkpt><trkpt lat="45.71569113267618" lon="11.240557390803207"><ele>775.0</ele><time>2026-04-08T14:06:13Z</time></trkpt><trkpt lat="45.71570662767582" lon="11.240434961414545"><ele>774.0</ele><time>2026-04-08T14:06:15Z</time></trkpt><trkpt lat="45.71576557097242" lon="11.240297553067942"><ele>773.0</ele><time>2026-04-08T14:06:17Z</time></trkpt><trkpt lat="45.71582161674114" lon="11.24018632006455"><ele>772.0</ele><time>2026-04-08T14:06:19Z</time></trkpt><trkpt lat="45.71588541994873" lon="11.240108629969809"><ele>771.0</ele><time>2026-04-08T14:06:21Z</time></trkpt><trkpt lat="45.715995914967664" lon="11.240028711045145"><ele>770.0</ele><time>2026-04-08T14:06:23Z</time></trkpt><trkpt lat="45.716081495991354" lon="11.23997885731095"><ele>770.0</ele><time>2026-04-08T14:06:24Z</time></trkpt><trkpt lat="45.7161442073546" lon="11.239937864292303"><ele>770.0</ele><time>2026-04-08T14:06:25Z</time></trkpt><trkpt lat="45.716237496255566" lon="11.239897073118971"><ele>770.0</ele><time>2026-04-08T14:06:27Z</time></trkpt><trkpt lat="45.71634603271298" lon="11.239835809051105"><ele>770.0</ele><time>2026-04-08T14:06:29Z</time></trkpt><trkpt lat="45.71639715406413" lon="11.239778656181965"><ele>770.0</ele><time>2026-04-08T14:06:30Z</time></trkpt><trkpt lat="45.71647073399231" lon="11.239665523822628"><ele>766.1666666666667</ele><time>2026-04-08T14:06:32Z</time></trkpt><trkpt lat="45.71652116036658" lon="11.239579013473476"><ele>762.3333333333334</ele><time>2026-04-08T14:06:35Z</time></trkpt><trkpt lat="45.716595273576466" lon="11.239506542810782"><ele>758.5</ele><time>2026-04-08T14:06:38Z</time></trkpt><trkpt lat="45.71668539216685" lon="11.239460121675014"><ele>754.6666666666667</ele><time>2026-04-08T14:06:40Z</time></trkpt><trkpt lat="45.71678620586157" lon="11.239388530546062"><ele>750.8333333333334</ele><time>2026-04-08T14:06:42Z</time></trkpt><trkpt lat="45.71684356937778" lon="11.239332741705343"><ele>747.0</ele><time>2026-04-08T14:06:43Z</time></trkpt><trkpt lat="45.716893391408796" lon="11.239216027854894"><ele>747.3333333333334</ele><time>2026-04-08T14:06:45Z</time></trkpt><trkpt lat="45.716910566844525" lon="11.239087167568625"><ele>747.6666666666666</ele><time>2026-04-08T14:06:47Z</time></trkpt><trkpt lat="45.716922127461125" lon="11.238995076749656"><ele>748.0</ele><time>2026-04-08T14:06:51Z</time></trkpt><trkpt lat="45.71697551037819" lon="11.238874504040247"><ele>748.3333333333333</ele><time>2026-04-08T14:06:53Z</time></trkpt><trkpt lat="45.71701576056768" lon="11.238773029975686"><ele>748.6666666666666</ele><time>2026-04-08T14:06:55Z</time></trkpt><trkpt lat="45.71703688842173" lon="11.238640967734778"><ele>749.0</ele><time>2026-04-08T14:06:57Z</time></trkpt><trkpt lat="45.717055167385006" lon="11.238537536792556"><ele>749.0</ele><time>2026-04-08T14:06:59Z</time></trkpt><trkpt lat="45.7170798936301" lon="11.23842311330226"><ele>749.0</ele><time>2026-04-08T14:07:01Z</time></trkpt><trkpt lat="45.717122813494456" lon="11.23828428082151"><ele>749.0</ele><time>2026-04-08T14:07:03Z</time></trkpt><trkpt lat="45.71719628864223" lon="11.238129447128282"><ele>749.0</ele><time>2026-04-08T14:07:05Z</time></trkpt><trkpt lat="45.71724269297031" lon="11.238067650651047"><ele>749.0</ele><time>2026-04-08T14:07:06Z</time></trkpt><trkpt lat="45.71732360772915" lon="11.237968968531273"><ele>744.1666666666666</ele><time>2026-04-08T14:07:08Z</time></trkpt><trkpt lat="45.71738610712734" lon="11.237896086377079"><ele>739.3333333333333</ele><time>2026-04-08T14:07:10Z</time></trkpt><trkpt lat="45.71745787169276" lon="11.237868651324874"><ele>734.5</ele><time>2026-04-08T14:07:12Z</time></trkpt><trkpt lat="45.71754298545221" lon="11.23781879842133"><ele>729.6666666666666</ele><time>2026-04-08T14:07:14Z</time></trkpt><trkpt lat="45.71760402857488" lon="11.237703509609638"><ele>724.8333333333334</ele><time>2026-04-08T14:07:16Z</time></trkpt><trkpt lat="45.71764858637638" lon="11.23763135487298"><ele>720.0</ele><time>2026-04-08T14:07:17Z</time></trkpt><trkpt lat="45.71772105484128" lon="11.237526937924175"><ele>720.0</ele><time>2026-04-08T14:07:19Z</time></trkpt><trkpt lat="45.717726506188875" lon="11.237370207231576"><ele>720.0</ele><time>2026-04-08T14:07:22Z</time></trkpt><trkpt lat="45.71771876063484" lon="11.237229825753163"><ele>720.0</ele><time>2026-04-08T14:07:24Z</time></trkpt><trkpt lat="45.71773859380828" lon="11.237096076405606"><ele>720.0</ele><time>2026-04-08T14:07:26Z</time></trkpt><trkpt lat="45.71779120710858" lon="11.23697388712296"><ele>720.0</ele><time>2026-04-08T14:07:28Z</time></trkpt><trkpt lat="45.717874959463096" lon="11.23685486538503"><ele>717.1666666666666</ele><time>2026-04-08T14:07:30Z</time></trkpt><trkpt lat="45.71794911366749" lon="11.236812165151663"><ele>714.3333333333334</ele><time>2026-04-08T14:07:31Z</time></trkpt><trkpt lat="45.718028406865734" lon="11.236765082585755"><ele>711.5</ele><time>2026-04-08T14:07:32Z</time></trkpt><trkpt lat="45.71809977459899" lon="11.236696674263657"><ele>708.6666666666667</ele><time>2026-04-08T14:07:33Z</time></trkpt><trkpt lat="45.718188174788395" lon="11.236621327069766"><ele>705.8333333333334</ele><time>2026-04-08T14:07:34Z</time></trkpt><trkpt lat="45.71825075149447" lon="11.236555459318968"><ele>703.0</ele><time>2026-04-08T14:07:35Z</time></trkpt><trkpt lat="45.71830279355357" lon="11.236491692357685"><ele>701.6666666666667</ele><time>2026-04-08T14:07:36Z</time></trkpt><trkpt lat="45.718358512097396" lon="11.236434272158677"><ele>700.3333333333334</ele><time>2026-04-08T14:07:38Z</time></trkpt><trkpt lat="45.718397631087555" lon="11.236291455948315"><ele>699.0</ele><time>2026-04-08T14:07:42Z</time></trkpt><trkpt lat="45.71842506508822" lon="11.23620600194141"><ele>697.6666666666666</ele><time>2026-04-08T14:07:43Z</time></trkpt><trkpt lat="45.71846014171359" lon="11.236117097009911"><ele>696.3333333333333</ele><time>2026-04-08T14:07:44Z</time></trkpt><trkpt lat="45.718527832592116" lon="11.235993536937666"><ele>695.0</ele><time>2026-04-08T14:07:46Z</time></trkpt><trkpt lat="45.7185710248661" lon="11.2359260628496"><ele>693.8333333333333</ele><time>2026-04-08T14:07:47Z</time></trkpt><trkpt lat="45.71860241253392" lon="11.235837571313889"><ele>692.6666666666666</ele><time>2026-04-08T14:07:48Z</time></trkpt><trkpt lat="45.718667617009615" lon="11.23570131143601"><ele>691.5</ele><time>2026-04-08T14:07:50Z</time></trkpt><trkpt lat="45.71871619889257" lon="11.235614027541235"><ele>690.3333333333334</ele><time>2026-04-08T14:07:51Z</time></trkpt><trkpt lat="45.71878063932495" lon="11.235503390565823"><ele>689.1666666666667</ele><time>2026-04-08T14:07:53Z</time></trkpt><trkpt lat="45.71881515294572" lon="11.235423358612769"><ele>688.0</ele><time>2026-04-08T14:07:54Z</time></trkpt><trkpt lat="45.71884401358967" lon="11.235326572215133"><ele>688.0</ele><time>2026-04-08T14:07:55Z</time></trkpt><trkpt lat="45.71887159433357" lon="11.235212421535742"><ele>688.0</ele><time>2026-04-08T14:07:56Z</time></trkpt><trkpt lat="45.718899133753844" lon="11.23511605267902"><ele>688.0</ele><time>2026-04-08T14:07:57Z</time></trkpt><trkpt lat="45.718908702245656" lon="11.235017551873783"><ele>688.0</ele><time>2026-04-08T14:07:58Z</time></trkpt><trkpt lat="45.71889092624697" lon="11.234873308380298"><ele>688.0</ele><time>2026-04-08T14:08:00Z</time></trkpt><trkpt lat="45.718833313139896" lon="11.234753586119211"><ele>688.0</ele><time>2026-04-08T14:08:02Z</time></trkpt><trkpt lat="45.718779407755385" lon="11.234680765486829"><ele>689.2</ele><time>2026-04-08T14:08:04Z</time></trkpt><trkpt lat="45.71871826905564" lon="11.23465278759321"><ele>690.4</ele><time>2026-04-08T14:08:06Z</time></trkpt><trkpt lat="45.718644003252024" lon="11.234582148709334"><ele>691.6</ele><time>2026-04-08T14:08:08Z</time></trkpt><trkpt lat="45.71858694930597" lon="11.234543026255068"><ele>692.8000000000001</ele><time>2026-04-08T14:08:09Z</time></trkpt><trkpt lat="45.71849858493567" lon="11.234482433936423"><ele>694.0</ele><time>2026-04-08T14:08:11Z</time></trkpt><trkpt lat="45.71838291016319" lon="11.234992098726027"><ele>694.0</ele><time>2026-04-08T14:08:12Z</time></trkpt><trkpt lat="45.71827842370314" lon="11.235041530180363"><ele>694.0</ele><time>2026-04-08T14:08:16Z</time></trkpt><trkpt lat="45.718143787362486" lon="11.234801700335417"><ele>694.0</ele><time>2026-04-08T14:08:17Z</time></trkpt><trkpt lat="45.71805881706056" lon="11.234763813347652"><ele>694.0</ele><time>2026-04-08T14:08:21Z</time></trkpt><trkpt lat="45.71800006805856" lon="11.234722557463458"><ele>694.0</ele><time>2026-04-08T14:08:23Z</time></trkpt><trkpt lat="45.71799214040847" lon="11.234608629774586"><ele>694.0</ele><time>2026-04-08T14:08:26Z</time></trkpt><trkpt lat="45.71803404299551" lon="11.234460376565105"><ele>694.0</ele><time>2026-04-08T14:08:28Z</time></trkpt><trkpt lat="45.718030288457435" lon="11.234327132183598"><ele>694.0</ele><time>2026-04-08T14:08:30Z</time></trkpt><trkpt lat="45.71803404300033" lon="11.234190664896074"><ele>694.0</ele><time>2026-04-08T14:08:32Z</time></trkpt><trkpt lat="45.717993588355625" lon="11.234052368772465"><ele>692.0</ele><time>2026-04-08T14:08:34Z</time></trkpt><trkpt lat="45.718027995262794" lon="11.233939873261967"><ele>690.0</ele><time>2026-04-08T14:08:36Z</time></trkpt><trkpt lat="45.71810475652367" lon="11.233773893152803"><ele>688.0</ele><time>2026-04-08T14:08:38Z</time></trkpt><trkpt lat="45.71813469497848" lon="11.23366941399537"><ele>686.0</ele><time>2026-04-08T14:08:39Z</time></trkpt><trkpt lat="45.71814849514126" lon="11.23355273926067"><ele>684.0</ele><time>2026-04-08T14:08:40Z</time></trkpt><trkpt lat="45.71814985147064" lon="11.23346195187352"><ele>684.0</ele><time>2026-04-08T14:08:41Z</time></trkpt><trkpt lat="45.718116558141986" lon="11.2333063002764"><ele>684.0</ele><time>2026-04-08T14:08:43Z</time></trkpt><trkpt lat="45.71805596026212" lon="11.233172192230791"><ele>684.0</ele><time>2026-04-08T14:08:45Z</time></trkpt><trkpt lat="45.717972376526845" lon="11.233072030934622"><ele>684.0</ele><time>2026-04-08T14:08:47Z</time></trkpt><trkpt lat="45.717895407524104" lon="11.233047110969327"><ele>684.0</ele><time>2026-04-08T14:08:49Z</time></trkpt><trkpt lat="45.71778182558438" lon="11.233048290390679"><ele>685.3333333333334</ele><time>2026-04-08T14:08:51Z</time></trkpt><trkpt lat="45.71770404972007" lon="11.23313274669863"><ele>686.6666666666666</ele><time>2026-04-08T14:08:53Z</time></trkpt><trkpt lat="45.71762866911626" lon="11.233255913228765"><ele>688.0</ele><time>2026-04-08T14:08:55Z</time></trkpt><trkpt lat="45.71757731959759" lon="11.233328031961468"><ele>689.3333333333333</ele><time>2026-04-08T14:08:56Z</time></trkpt><trkpt lat="45.71752901901244" lon="11.233386517778875"><ele>690.6666666666666</ele><time>2026-04-08T14:08:57Z</time></trkpt><trkpt lat="45.71747054689625" lon="11.233451029313054"><ele>692.0</ele><time>2026-04-08T14:08:58Z</time></trkpt><trkpt lat="45.7173711705751" lon="11.233486567356087"><ele>692.0</ele><time>2026-04-08T14:09:00Z</time></trkpt><trkpt lat="45.717295603880416" lon="11.233415175124932"><ele>692.0</ele><time>2026-04-08T14:09:02Z</time></trkpt><trkpt lat="45.7172179777325" lon="11.2332624507184"><ele>692.0</ele><time>2026-04-08T14:09:04Z</time></trkpt><trkpt lat="45.71717494611003" lon="11.233177718948369"><ele>692.0</ele><time>2026-04-08T14:09:05Z</time></trkpt><trkpt lat="45.71713750034851" lon="11.233069063909587"><ele>692.0</ele><time>2026-04-08T14:09:06Z</time></trkpt><trkpt lat="45.71709484191803" lon="11.232973750555345"><ele>695.8</ele><time>2026-04-08T14:09:07Z</time></trkpt><trkpt lat="45.71702021935676" lon="11.23286658944162"><ele>699.6</ele><time>2026-04-08T14:09:09Z</time></trkpt><trkpt lat="45.71693103710422" lon="11.232877560173769"><ele>703.4</ele><time>2026-04-08T14:09:11Z</time></trkpt><trkpt lat="45.716888100787045" lon="11.233026363435233"><ele>707.1999999999999</ele><time>2026-04-08T14:09:13Z</time></trkpt><trkpt lat="45.71688869100957" lon="11.23313291553088"><ele>711.0</ele><time>2026-04-08T14:09:14Z</time></trkpt><trkpt lat="45.71689944814901" lon="11.233245268017825"><ele>711.0</ele><time>2026-04-08T14:09:15Z</time></trkpt><trkpt lat="45.71689537910464" lon="11.233373208751367"><ele>711.0</ele><time>2026-04-08T14:09:16Z</time></trkpt><trkpt lat="45.71688092066992" lon="11.233502219653097"><ele>711.0</ele><time>2026-04-08T14:09:17Z</time></trkpt><trkpt lat="45.71688040066473" lon="11.233613043411678"><ele>711.0</ele><time>2026-04-08T14:09:18Z</time></trkpt><trkpt lat="45.716888895506685" lon="11.233746848879173"><ele>711.0</ele><time>2026-04-08T14:09:19Z</time></trkpt><trkpt lat="45.71689255860904" lon="11.233847512337611"><ele>711.0</ele><time>2026-04-08T14:09:20Z</time></trkpt><trkpt lat="45.716900676063155" lon="11.23394932691244"><ele>707.0</ele><time>2026-04-08T14:09:21Z</time></trkpt><trkpt lat="45.71688340687694" lon="11.234089643059175"><ele>703.0</ele><time>2026-04-08T14:09:23Z</time></trkpt><trkpt lat="45.71683490448331" lon="11.234196660176968"><ele>699.0</ele><time>2026-04-08T14:09:25Z</time></trkpt><trkpt lat="45.716747471736056" lon="11.234301011275877"><ele>695.0</ele><time>2026-04-08T14:09:27Z</time></trkpt><trkpt lat="45.7166500553568" lon="11.234395838684158"><ele>691.0</ele><time>2026-04-08T14:09:29Z</time></trkpt><trkpt lat="45.716529063899365" lon="11.234436504730997"><ele>691.0</ele><time>2026-04-08T14:09:31Z</time></trkpt><trkpt lat="45.71645398311618" lon="11.234457737917097"><ele>691.0</ele><time>2026-04-08T14:09:32Z</time></trkpt><trkpt lat="45.71635387933028" lon="11.234485087360358"><ele>691.0</ele><time>2026-04-08T14:09:33Z</time></trkpt><trkpt lat="45.71627094927768" lon="11.234512302662576"><ele>691.0</ele><time>2026-04-08T14:09:34Z</time></trkpt><trkpt lat="45.71620437322343" lon="11.234564880697258"><ele>691.0</ele><time>2026-04-08T14:09:35Z</time></trkpt><trkpt lat="45.71610499100605" lon="11.234600002968683"><ele>691.0</ele><time>2026-04-08T14:09:37Z</time></trkpt><trkpt lat="45.71602083550763" lon="11.23458486470532"><ele>690.5</ele><time>2026-04-08T14:09:39Z</time></trkpt><trkpt lat="45.71594493315481" lon="11.234543659408516"><ele>690.0</ele><time>2026-04-08T14:09:41Z</time></trkpt><trkpt lat="45.71590041975465" lon="11.23443061655604"><ele>689.5</ele><time>2026-04-08T14:09:43Z</time></trkpt><trkpt lat="45.71587046083243" lon="11.234342860940803"><ele>689.0</ele><time>2026-04-08T14:09:44Z</time></trkpt><trkpt lat="45.71582485601369" lon="11.234244453971906"><ele>688.5</ele><time>2026-04-08T14:09:45Z</time></trkpt><trkpt lat="45.71578651126539" lon="11.234134336422262"><ele>688.0</ele><time>2026-04-08T14:09:46Z</time></trkpt><trkpt lat="45.71574897201521" lon="11.234050678770345"><ele>688.0</ele><time>2026-04-08T14:09:47Z</time></trkpt><trkpt lat="45.715653205732806" lon="11.233925960682642"><ele>688.0</ele><time>2026-04-08T14:09:49Z</time></trkpt><trkpt lat="45.71554481105073" lon="11.233914167761398"><ele>688.0</ele><time>2026-04-08T14:09:51Z</time></trkpt><trkpt lat="45.71547777712007" lon="11.233959029680909"><ele>688.0</ele><time>2026-04-08T14:09:52Z</time></trkpt><trkpt lat="45.71540061069559" lon="11.234013516496864"><ele>688.0</ele><time>2026-04-08T14:09:53Z</time></trkpt><trkpt lat="45.71533763396968" lon="11.234055764994887"><ele>688.0</ele><time>2026-04-08T14:09:54Z</time></trkpt><trkpt lat="45.715273668605036" lon="11.234090386378988"><ele>688.0</ele><time>2026-04-08T14:09:55Z</time></trkpt><trkpt lat="45.715184492521814" lon="11.234114476831518"><ele>688.0</ele><time>2026-04-08T14:09:56Z</time></trkpt><trkpt lat="45.71511163282822" lon="11.234140782361775"><ele>688.0</ele><time>2026-04-08T14:09:57Z</time></trkpt><trkpt lat="45.71501737102543" lon="11.234238476066423"><ele>688.0</ele><time>2026-04-08T14:09:59Z</time></trkpt><trkpt lat="45.71496447654802" lon="11.234347768885515"><ele>688.0</ele><time>2026-04-08T14:10:01Z</time></trkpt><trkpt lat="45.71494813154228" lon="11.234491966789355"><ele>683.2</ele><time>2026-04-08T14:10:03Z</time></trkpt><trkpt lat="45.71497443241245" lon="11.234577522097643"><ele>678.4</ele><time>2026-04-08T14:10:04Z</time></trkpt><trkpt lat="45.715002348147216" lon="11.2347237672615"><ele>673.6</ele><time>2026-04-08T14:10:06Z</time></trkpt><trkpt lat="45.71493417287537" lon="11.234846820014653"><ele>668.8000000000001</ele><time>2026-04-08T14:10:08Z</time></trkpt><trkpt lat="45.714831565845685" lon="11.234869722688035"><ele>664.0</ele><time>2026-04-08T14:10:10Z</time></trkpt><trkpt lat="45.71470250349075" lon="11.23484578933055"><ele>664.0</ele><time>2026-04-08T14:10:12Z</time></trkpt><trkpt lat="45.71462203691156" lon="11.234820967315386"><ele>664.0</ele><time>2026-04-08T14:10:13Z</time></trkpt><trkpt lat="45.71448702278544" lon="11.234768780625174"><ele>664.0</ele><time>2026-04-08T14:10:15Z</time></trkpt><trkpt lat="45.714414528149305" lon="11.234741361483227"><ele>664.0</ele><time>2026-04-08T14:10:16Z</time></trkpt><trkpt lat="45.714338782149326" lon="11.234714776592991"><ele>664.0</ele><time>2026-04-08T14:10:17Z</time></trkpt><trkpt lat="45.71422387767841" lon="11.23467824917155"><ele>659.0</ele><time>2026-04-08T14:10:19Z</time></trkpt><trkpt lat="45.714150217824596" lon="11.234616200923648"><ele>654.0</ele><time>2026-04-08T14:10:21Z</time></trkpt><trkpt lat="45.71408584705294" lon="11.234633196940761"><ele>649.0</ele><time>2026-04-08T14:10:23Z</time></trkpt><trkpt lat="45.714060495281316" lon="11.234760004135683"><ele>644.0</ele><time>2026-04-08T14:10:25Z</time></trkpt><trkpt lat="45.71408245164387" lon="11.234880314430265"><ele>639.0</ele><time>2026-04-08T14:10:27Z</time></trkpt><trkpt lat="45.714148167868174" lon="11.234930172762446"><ele>634.0</ele><time>2026-04-08T14:10:29Z</time></trkpt><trkpt lat="45.71409409794146" lon="11.235001663270033"><ele>634.0</ele><time>2026-04-08T14:10:32Z</time></trkpt><trkpt lat="45.71396295309291" lon="11.234990066374152"><ele>634.0</ele><time>2026-04-08T14:10:34Z</time></trkpt><trkpt lat="45.713893908184055" lon="11.234962022735854"><ele>634.0</ele><time>2026-04-08T14:10:36Z</time></trkpt><trkpt lat="45.71384847912686" lon="11.23488565298448"><ele>634.0</ele><time>2026-04-08T14:10:39Z</time></trkpt><trkpt lat="45.713837490482184" lon="11.234781225103948"><ele>634.0</ele><time>2026-04-08T14:10:41Z</time></trkpt><trkpt lat="45.71386196621559" lon="11.23466958810676"><ele>634.0</ele><time>2026-04-08T14:10:42Z</time></trkpt><trkpt lat="45.7138720711357" lon="11.23455774754604"><ele>634.0</ele><time>2026-04-08T14:10:43Z</time></trkpt><trkpt lat="45.71390571412936" lon="11.234429331285453"><ele>634.0</ele><time>2026-04-08T14:10:44Z</time></trkpt><trkpt lat="45.71394029879942" lon="11.234312276018931"><ele>634.0</ele><time>2026-04-08T14:10:45Z</time></trkpt><trkpt lat="45.71398539501927" lon="11.234176915218672"><ele>634.0</ele><time>2026-04-08T14:10:46Z</time></trkpt><trkpt lat="45.71401228679426" lon="11.234055694799938"><ele>634.0</ele><time>2026-04-08T14:10:47Z</time></trkpt><trkpt lat="45.71402487673204" lon="11.233932216946975"><ele>635.5</ele><time>2026-04-08T14:10:48Z</time></trkpt><trkpt lat="45.71402912180818" lon="11.23380785249831"><ele>637.0</ele><time>2026-04-08T14:10:49Z</time></trkpt><trkpt lat="45.71402561001365" lon="11.233694033008183"><ele>638.5</ele><time>2026-04-08T14:10:50Z</time></trkpt><trkpt lat="45.71399814840394" lon="11.233572352397182"><ele>640.0</ele><time>2026-04-08T14:10:51Z</time></trkpt><trkpt lat="45.71396373802329" lon="11.233477755484456"><ele>641.5</ele><time>2026-04-08T14:10:52Z</time></trkpt><trkpt lat="45.71390966027466" lon="11.233421575404156"><ele>643.0</ele><time>2026-04-08T14:10:53Z</time></trkpt><trkpt lat="45.71379778563181" lon="11.233476068820012"><ele>643.0</ele><time>2026-04-08T14:10:55Z</time></trkpt><trkpt lat="45.71372241202427" lon="11.233534631645286"><ele>643.0</ele><time>2026-04-08T14:10:56Z</time></trkpt><trkpt lat="45.713643402866595" lon="11.233610547914772"><ele>643.0</ele><time>2026-04-08T14:10:57Z</time></trkpt><trkpt lat="45.713578543702475" lon="11.233680766230956"><ele>643.0</ele><time>2026-04-08T14:10:58Z</time></trkpt><trkpt lat="45.71347953060489" lon="11.233702188978125"><ele>643.0</ele><time>2026-04-08T14:10:59Z</time></trkpt><trkpt lat="45.71340016235455" lon="11.23369991859971"><ele>643.0</ele><time>2026-04-08T14:11:00Z</time></trkpt><trkpt lat="45.7133226325685" lon="11.233694012474682"><ele>642.8</ele><time>2026-04-08T14:11:01Z</time></trkpt><trkpt lat="45.71325128965955" lon="11.233696353343788"><ele>642.5999999999999</ele><time>2026-04-08T14:11:02Z</time></trkpt><trkpt lat="45.71315281094824" lon="11.233768793968647"><ele>642.4000000000001</ele><time>2026-04-08T14:11:03Z</time></trkpt><trkpt lat="45.713099040037406" lon="11.233908806875684"><ele>642.2</ele><time>2026-04-08T14:11:04Z</time></trkpt><trkpt lat="45.71301843873188" lon="11.234000588591945"><ele>642.0</ele><time>2026-04-08T14:11:05Z</time></trkpt><trkpt lat="45.71294627135245" lon="11.234102633847685"><ele>638.6666666666666</ele><time>2026-04-08T14:11:06Z</time></trkpt><trkpt lat="45.71288573928216" lon="11.234185757039306"><ele>635.3333333333334</ele><time>2026-04-08T14:11:07Z</time></trkpt><trkpt lat="45.71280181680415" lon="11.234260523246917"><ele>632.0</ele><time>2026-04-08T14:11:09Z</time></trkpt><trkpt lat="45.71273311804934" lon="11.234222544521971"><ele>628.6666666666667</ele><time>2026-04-08T14:11:11Z</time></trkpt><trkpt lat="45.712690194695845" lon="11.234094055069662"><ele>625.3333333333334</ele><time>2026-04-08T14:11:13Z</time></trkpt><trkpt lat="45.712707801179555" lon="11.233993665647773"><ele>622.0</ele><time>2026-04-08T14:11:14Z</time></trkpt><trkpt lat="45.71273798162779" lon="11.23388283471222"><ele>622.0</ele><time>2026-04-08T14:11:15Z</time></trkpt><trkpt lat="45.71275340321806" lon="11.233759044730405"><ele>622.0</ele><time>2026-04-08T14:11:16Z</time></trkpt><trkpt lat="45.712749632944124" lon="11.233649485165696"><ele>622.0</ele><time>2026-04-08T14:11:17Z</time></trkpt><trkpt lat="45.712738099381845" lon="11.233557450304048"><ele>622.0</ele><time>2026-04-08T14:11:18Z</time></trkpt><trkpt lat="45.71269892809111" lon="11.23341764081079"><ele>622.0</ele><time>2026-04-08T14:11:20Z</time></trkpt><trkpt lat="45.71267849697845" lon="11.233330963296906"><ele>622.0</ele><time>2026-04-08T14:11:21Z</time></trkpt><trkpt lat="45.71267036764216" lon="11.233223852969154"><ele>624.5</ele><time>2026-04-08T14:11:22Z</time></trkpt><trkpt lat="45.71266804328248" lon="11.233125416769862"><ele>627.0</ele><time>2026-04-08T14:11:23Z</time></trkpt><trkpt lat="45.71265635523864" lon="11.23299676469713"><ele>629.5</ele><time>2026-04-08T14:11:24Z</time></trkpt><trkpt lat="45.71265109311815" lon="11.232891237848925"><ele>632.0</ele><time>2026-04-08T14:11:25Z</time></trkpt><trkpt lat="45.712645551340565" lon="11.232759689644386"><ele>634.5</ele><time>2026-04-08T14:11:26Z</time></trkpt><trkpt lat="45.71264709016852" lon="11.232644043396382"><ele>637.0</ele><time>2026-04-08T14:11:27Z</time></trkpt><trkpt lat="45.71264219721567" lon="11.232520195957614"><ele>637.0</ele><time>2026-04-08T14:11:28Z</time></trkpt><trkpt lat="45.71264898079569" lon="11.232425668216601"><ele>637.0</ele><time>2026-04-08T14:11:29Z</time></trkpt><trkpt lat="45.712644330233005" lon="11.232309252424395"><ele>637.0</ele><time>2026-04-08T14:11:30Z</time></trkpt><trkpt lat="45.71262713052265" lon="11.232176811221015"><ele>637.0</ele><time>2026-04-08T14:11:31Z</time></trkpt><trkpt lat="45.71261234149624" lon="11.232060714002763"><ele>637.0</ele><time>2026-04-08T14:11:32Z</time></trkpt><trkpt lat="45.7125953125608" lon="11.231942446385942"><ele>637.0</ele><time>2026-04-08T14:11:33Z</time></trkpt><trkpt lat="45.71255837552376" lon="11.231817536148512"><ele>640.5</ele><time>2026-04-08T14:11:34Z</time></trkpt><trkpt lat="45.712517729463706" lon="11.231736816266853"><ele>644.0</ele><time>2026-04-08T14:11:35Z</time></trkpt><trkpt lat="45.71245630728947" lon="11.231705487046439"><ele>647.5</ele><time>2026-04-08T14:11:36Z</time></trkpt><trkpt lat="45.712349961259456" lon="11.23179826254607"><ele>651.0</ele><time>2026-04-08T14:11:38Z</time></trkpt><trkpt lat="45.71228319910122" lon="11.231884623263483"><ele>654.5</ele><time>2026-04-08T14:11:39Z</time></trkpt><trkpt lat="45.7122088179646" lon="11.231961809473788"><ele>658.0</ele><time>2026-04-08T14:11:40Z</time></trkpt><trkpt lat="45.71213605174893" lon="11.232059630989605"><ele>658.0</ele><time>2026-04-08T14:11:41Z</time></trkpt><trkpt lat="45.712072739017785" lon="11.232144688269019"><ele>658.0</ele><time>2026-04-08T14:11:42Z</time></trkpt><trkpt lat="45.71200856875051" lon="11.23223289402626"><ele>658.0</ele><time>2026-04-08T14:11:43Z</time></trkpt><trkpt lat="45.71195273559252" lon="11.232334353457324"><ele>658.0</ele><time>2026-04-08T14:11:44Z</time></trkpt><trkpt lat="45.71188331922477" lon="11.232424609472911"><ele>658.0</ele><time>2026-04-08T14:11:45Z</time></trkpt><trkpt lat="45.71181468646104" lon="11.232486400674603"><ele>658.0</ele><time>2026-04-08T14:11:46Z</time></trkpt><trkpt lat="45.711715713624905" lon="11.232540261162782"><ele>653.6666666666667</ele><time>2026-04-08T14:11:48Z</time></trkpt><trkpt lat="45.711647126405765" lon="11.23253875960327"><ele>649.3333333333334</ele><time>2026-04-08T14:11:49Z</time></trkpt><trkpt lat="45.71158169917017" lon="11.232474150642183"><ele>645.0</ele><time>2026-04-08T14:11:50Z</time></trkpt><trkpt lat="45.71150921564621" lon="11.232447940249271"><ele>640.6666666666666</ele><time>2026-04-08T14:11:51Z</time></trkpt><trkpt lat="45.711407475593646" lon="11.23243871848072"><ele>636.3333333333333</ele><time>2026-04-08T14:11:52Z</time></trkpt><trkpt lat="45.71131502979524" lon="11.232433217151122"><ele>632.0</ele><time>2026-04-08T14:11:53Z</time></trkpt><trkpt lat="45.71124053239431" lon="11.232415188176104"><ele>632.0</ele><time>2026-04-08T14:11:54Z</time></trkpt><trkpt lat="45.711135832683816" lon="11.23233708466371"><ele>632.0</ele><time>2026-04-08T14:11:56Z</time></trkpt><trkpt lat="45.71101903119722" lon="11.232266253609836"><ele>632.0</ele><time>2026-04-08T14:11:58Z</time></trkpt><trkpt lat="45.71094549740061" lon="11.232239432118531"><ele>632.0</ele><time>2026-04-08T14:11:59Z</time></trkpt><trkpt lat="45.71084087610601" lon="11.232211902833553"><ele>632.0</ele><time>2026-04-08T14:12:00Z</time></trkpt><trkpt lat="45.71075477481033" lon="11.232198085755693"><ele>632.6</ele><time>2026-04-08T14:12:01Z</time></trkpt><trkpt lat="45.710645901485286" lon="11.232239132640052"><ele>633.2</ele><time>2026-04-08T14:12:02Z</time></trkpt><trkpt lat="45.710556671332085" lon="11.232347426638263"><ele>633.8</ele><time>2026-04-08T14:12:03Z</time></trkpt><trkpt lat="45.71047527430226" lon="11.232411958438384"><ele>634.4</ele><time>2026-04-08T14:12:04Z</time></trkpt><trkpt lat="45.71040977611645" lon="11.23245615872134"><ele>635.0</ele><time>2026-04-08T14:12:05Z</time></trkpt><trkpt lat="45.71034175210323" lon="11.232485140603082"><ele>635.0</ele><time>2026-04-08T14:12:06Z</time></trkpt><trkpt lat="45.710262065039366" lon="11.232499592561226"><ele>635.0</ele><time>2026-04-08T14:12:07Z</time></trkpt><trkpt lat="45.71017004531393" lon="11.232500842161262"><ele>635.0</ele><time>2026-04-08T14:12:08Z</time></trkpt><trkpt lat="45.71010078368284" lon="11.232465146447517"><ele>635.0</ele><time>2026-04-08T14:12:10Z</time></trkpt><trkpt lat="45.7101225435099" lon="11.232301883238351"><ele>635.0</ele><time>2026-04-08T14:12:12Z</time></trkpt><trkpt lat="45.710147784670866" lon="11.232187162465932"><ele>635.0</ele><time>2026-04-08T14:12:13Z</time></trkpt><trkpt lat="45.7101632400199" lon="11.232055009463005"><ele>634.0</ele><time>2026-04-08T14:12:14Z</time></trkpt><trkpt lat="45.710209259959186" lon="11.231920372312834"><ele>633.0</ele><time>2026-04-08T14:12:15Z</time></trkpt><trkpt lat="45.71025280698773" lon="11.231777570105887"><ele>632.0</ele><time>2026-04-08T14:12:16Z</time></trkpt><trkpt lat="45.71028812998739" lon="11.231659378169375"><ele>631.0</ele><time>2026-04-08T14:12:17Z</time></trkpt><trkpt lat="45.710304068391736" lon="11.231547916132257"><ele>630.0</ele><time>2026-04-08T14:12:18Z</time></trkpt><trkpt lat="45.71030605626118" lon="11.231434106804825"><ele>634.8</ele><time>2026-04-08T14:12:19Z</time></trkpt><trkpt lat="45.710297091413516" lon="11.231331656041883"><ele>639.6</ele><time>2026-04-08T14:12:20Z</time></trkpt><trkpt lat="45.71030324203101" lon="11.231188416268"><ele>644.4000000000001</ele><time>2026-04-08T14:12:22Z</time></trkpt><trkpt lat="45.710394495820225" lon="11.231094576622137"><ele>649.2</ele><time>2026-04-08T14:12:24Z</time></trkpt><trkpt lat="45.71046636910485" lon="11.231054847134816"><ele>654.0</ele><time>2026-04-08T14:12:25Z</time></trkpt><trkpt lat="45.71055190290142" lon="11.23100663502023"><ele>654.0</ele><time>2026-04-08T14:12:26Z</time></trkpt><trkpt lat="45.71060696299823" lon="11.230938568415155"><ele>654.0</ele><time>2026-04-08T14:12:27Z</time></trkpt><trkpt lat="45.71064544897837" lon="11.230840478819449"><ele>654.0</ele><time>2026-04-08T14:12:29Z</time></trkpt><trkpt lat="45.71067724691344" lon="11.230732287449104"><ele>654.0</ele><time>2026-04-08T14:12:33Z</time></trkpt><trkpt lat="45.71073712343455" lon="11.230638409888543"><ele>654.0</ele><time>2026-04-08T14:12:36Z</time></trkpt><trkpt lat="45.71078209698092" lon="11.230534902334606"><ele>654.0</ele><time>2026-04-08T14:12:38Z</time></trkpt><trkpt lat="45.71080502952022" lon="11.230362990498678"><ele>654.6</ele><time>2026-04-08T14:12:40Z</time></trkpt><trkpt lat="45.710830073734684" lon="11.23025357673302"><ele>655.2</ele><time>2026-04-08T14:12:41Z</time></trkpt><trkpt lat="45.71084146372536" lon="11.230116453132448"><ele>655.8000000000001</ele><time>2026-04-08T14:12:42Z</time></trkpt><trkpt lat="45.71085154056754" lon="11.229979010095313"><ele>656.4000000000001</ele><time>2026-04-08T14:12:43Z</time></trkpt><trkpt lat="45.710865025230575" lon="11.229833679772549"><ele>657.0</ele><time>2026-04-08T14:12:44Z</time></trkpt><trkpt lat="45.71089544352555" lon="11.229731249638782"><ele>657.0</ele><time>2026-04-08T14:12:45Z</time></trkpt><trkpt lat="45.71091918653248" lon="11.229641882292757"><ele>657.0</ele><time>2026-04-08T14:12:46Z</time></trkpt><trkpt lat="45.71093850820255" lon="11.229552018517662"><ele>657.0</ele><time>2026-04-08T14:12:47Z</time></trkpt><trkpt lat="45.71097029209938" lon="11.229455894373523"><ele>657.0</ele><time>2026-04-08T14:12:48Z</time></trkpt><trkpt lat="45.710993818941965" lon="11.22935056715261"><ele>657.0</ele><time>2026-04-08T14:12:49Z</time></trkpt><trkpt lat="45.71095420584819" lon="11.229224209052832"><ele>657.0</ele><time>2026-04-08T14:12:50Z</time></trkpt><trkpt lat="45.71092612738312" lon="11.22909094178615"><ele>659.5</ele><time>2026-04-08T14:12:51Z</time></trkpt><trkpt lat="45.71089346208575" lon="11.228968004899148"><ele>662.0</ele><time>2026-04-08T14:12:52Z</time></trkpt><trkpt lat="45.710846858136314" lon="11.228867113284059"><ele>664.5</ele><time>2026-04-08T14:12:53Z</time></trkpt><trkpt lat="45.71079856638856" lon="11.228794996165513"><ele>667.0</ele><time>2026-04-08T14:12:54Z</time></trkpt><trkpt lat="45.71075984584833" lon="11.228723772263702"><ele>669.5</ele><time>2026-04-08T14:12:55Z</time></trkpt><trkpt lat="45.71071388341178" lon="11.228569209144732"><ele>672.0</ele><time>2026-04-08T14:12:57Z</time></trkpt><trkpt lat="45.710641745688406" lon="11.228444025094717"><ele>672.0</ele><time>2026-04-08T14:12:59Z</time></trkpt><trkpt lat="45.710582789935664" lon="11.228378119123676"><ele>672.0</ele><time>2026-04-08T14:13:00Z</time></trkpt><trkpt lat="45.710482547662316" lon="11.228316444584044"><ele>672.0</ele><time>2026-04-08T14:13:01Z</time></trkpt><trkpt lat="45.710396556914496" lon="11.22826062296673"><ele>672.0</ele><time>2026-04-08T14:13:02Z</time></trkpt><trkpt lat="45.71029940265572" lon="11.228182203555482"><ele>672.0</ele><time>2026-04-08T14:13:03Z</time></trkpt><trkpt lat="45.71021415214856" lon="11.228106087369794"><ele>666.8333333333334</ele><time>2026-04-08T14:13:04Z</time></trkpt><trkpt lat="45.71013017476547" lon="11.228038381213509"><ele>661.6666666666666</ele><time>2026-04-08T14:13:05Z</time></trkpt><trkpt lat="45.7100730438784" lon="11.227984551343095"><ele>656.5</ele><time>2026-04-08T14:13:06Z</time></trkpt><trkpt lat="45.710013518058" lon="11.22789656641752"><ele>651.3333333333333</ele><time>2026-04-08T14:13:08Z</time></trkpt><trkpt lat="45.71002687788279" lon="11.227740004920262"><ele>646.1666666666666</ele><time>2026-04-08T14:13:10Z</time></trkpt><trkpt lat="45.71005555385182" lon="11.227642667194932"><ele>641.0</ele><time>2026-04-08T14:13:11Z</time></trkpt><trkpt lat="45.710094480339535" lon="11.227546035363575"><ele>641.0</ele><time>2026-04-08T14:13:12Z</time></trkpt><trkpt lat="45.71013230933502" lon="11.227469831117485"><ele>641.0</ele><time>2026-04-08T14:13:13Z</time></trkpt><trkpt lat="45.71022478375559" lon="11.227341222251848"><ele>641.0</ele><time>2026-04-08T14:13:15Z</time></trkpt><trkpt lat="45.71026450368234" lon="11.22725431078331"><ele>641.0</ele><time>2026-04-08T14:13:16Z</time></trkpt><trkpt lat="45.71036413443119" lon="11.227246159082624"><ele>641.0</ele><time>2026-04-08T14:13:17Z</time></trkpt><trkpt lat="45.710453027835236" lon="11.227223846227057"><ele>641.0</ele><time>2026-04-08T14:13:18Z</time></trkpt><trkpt lat="45.71054179023556" lon="11.227224618986638"><ele>641.0</ele><time>2026-04-08T14:13:19Z</time></trkpt><trkpt lat="45.7106350661199" lon="11.227228147993916"><ele>641.0</ele><time>2026-04-08T14:13:20Z</time></trkpt><trkpt lat="45.71070047260849" lon="11.227211156208133"><ele>641.0</ele><time>2026-04-08T14:13:21Z</time></trkpt><trkpt lat="45.7108142216347" lon="11.227128202005344"><ele>641.0</ele><time>2026-04-08T14:13:23Z</time></trkpt><trkpt lat="45.71092225575143" lon="11.227031414753567"><ele>641.0</ele><time>2026-04-08T14:13:25Z</time></trkpt><trkpt lat="45.71103662363412" lon="11.226958181422615"><ele>641.0</ele><time>2026-04-08T14:13:27Z</time></trkpt><trkpt lat="45.7112037331025" lon="11.226921368717393"><ele>641.0</ele><time>2026-04-08T14:13:29Z</time></trkpt><trkpt lat="45.711281139688914" lon="11.226892232672592"><ele>641.0</ele><time>2026-04-08T14:13:30Z</time></trkpt><trkpt lat="45.711370555523835" lon="11.22685278390583"><ele>642.5</ele><time>2026-04-08T14:13:31Z</time></trkpt><trkpt lat="45.71148627933284" lon="11.226822201201353"><ele>644.0</ele><time>2026-04-08T14:13:32Z</time></trkpt><trkpt lat="45.71159683641195" lon="11.226813163167456"><ele>645.5</ele><time>2026-04-08T14:13:33Z</time></trkpt><trkpt lat="45.711713244502626" lon="11.22680263991657"><ele>647.0</ele><time>2026-04-08T14:13:34Z</time></trkpt><trkpt lat="45.71183567795831" lon="11.226773564541894"><ele>648.6</ele><time>2026-04-08T14:13:35Z</time></trkpt><trkpt lat="45.71193288096975" lon="11.22673287501028"><ele>650.2</ele><time>2026-04-08T14:13:36Z</time></trkpt><trkpt lat="45.712028502068044" lon="11.22669280575444"><ele>651.8</ele><time>2026-04-08T14:13:37Z</time></trkpt><trkpt lat="45.71212752592615" lon="11.226650158923903"><ele>653.4</ele><time>2026-04-08T14:13:38Z</time></trkpt><trkpt lat="45.712207998061004" lon="11.22661645449812"><ele>655.0</ele><time>2026-04-08T14:13:39Z</time></trkpt><trkpt lat="45.7123041481864" lon="11.226593983948794"><ele>655.0</ele><time>2026-04-08T14:13:40Z</time></trkpt><trkpt lat="45.71239939439484" lon="11.226593203599164"><ele>655.0</ele><time>2026-04-08T14:13:41Z</time></trkpt><trkpt lat="45.7124887159503" lon="11.226621947700544"><ele>655.0</ele><time>2026-04-08T14:13:42Z</time></trkpt><trkpt lat="45.71255090938177" lon="11.226704001866134"><ele>655.0</ele><time>2026-04-08T14:13:43Z</time></trkpt><trkpt lat="45.71260820706774" lon="11.22675093659472"><ele>655.0</ele><time>2026-04-08T14:13:44Z</time></trkpt><trkpt lat="45.7126845862037" lon="11.226774384449765"><ele>655.0</ele><time>2026-04-08T14:13:45Z</time></trkpt><trkpt lat="45.712811427811914" lon="11.226726395563306"><ele>655.5</ele><time>2026-04-08T14:13:47Z</time></trkpt><trkpt lat="45.71287370927328" lon="11.226676282926"><ele>656.0</ele><time>2026-04-08T14:13:48Z</time></trkpt><trkpt lat="45.71294965001941" lon="11.226616527710947"><ele>656.5</ele><time>2026-04-08T14:13:49Z</time></trkpt><trkpt lat="45.71302522266819" lon="11.226566919625148"><ele>657.0</ele><time>2026-04-08T14:13:50Z</time></trkpt><trkpt lat="45.71309804711796" lon="11.22651714383342"><ele>657.5</ele><time>2026-04-08T14:13:51Z</time></trkpt><trkpt lat="45.713165978450874" lon="11.226457759474863"><ele>658.0</ele><time>2026-04-08T14:13:52Z</time></trkpt><trkpt lat="45.71322972118839" lon="11.226417719371247"><ele>658.0</ele><time>2026-04-08T14:13:53Z</time></trkpt><trkpt lat="45.71327450638169" lon="11.226324967561082"><ele>658.0</ele><time>2026-04-08T14:13:54Z</time></trkpt><trkpt lat="45.71333594936787" lon="11.22625170191202"><ele>658.0</ele><time>2026-04-08T14:13:55Z</time></trkpt><trkpt lat="45.713399394298854" lon="11.226172918333912"><ele>658.0</ele><time>2026-04-08T14:13:56Z</time></trkpt><trkpt lat="45.71347914791629" lon="11.226102017746314"><ele>658.0</ele><time>2026-04-08T14:13:57Z</time></trkpt><trkpt lat="45.713555203640226" lon="11.226044719395485"><ele>658.0</ele><time>2026-04-08T14:13:58Z</time></trkpt><trkpt lat="45.71361937414928" lon="11.226009017525111"><ele>658.2</ele><time>2026-04-08T14:13:59Z</time></trkpt><trkpt lat="45.713728619238914" lon="11.22598466735865"><ele>658.4</ele><time>2026-04-08T14:14:01Z</time></trkpt><trkpt lat="45.71385198621634" lon="11.22606479578464"><ele>658.6</ele><time>2026-04-08T14:14:03Z</time></trkpt><trkpt lat="45.713946587301876" lon="11.226088006133606"><ele>658.8000000000001</ele><time>2026-04-08T14:14:04Z</time></trkpt><trkpt lat="45.71403322098279" lon="11.2261319687222"><ele>659.0</ele><time>2026-04-08T14:14:05Z</time></trkpt><trkpt lat="45.71411501632367" lon="11.226155447907544"><ele>659.0</ele><time>2026-04-08T14:14:06Z</time></trkpt><trkpt lat="45.71418915598581" lon="11.226155388359702"><ele>659.0</ele><time>2026-04-08T14:14:07Z</time></trkpt><trkpt lat="45.71426751128982" lon="11.226150896373671"><ele>659.0</ele><time>2026-04-08T14:14:08Z</time></trkpt><trkpt lat="45.714359427903055" lon="11.226149325320518"><ele>659.0</ele><time>2026-04-08T14:14:09Z</time></trkpt><trkpt lat="45.71443977922371" lon="11.22614930123838"><ele>659.0</ele><time>2026-04-08T14:14:10Z</time></trkpt><trkpt lat="45.71451788828208" lon="11.226166075419545"><ele>659.0</ele><time>2026-04-08T14:14:11Z</time></trkpt><trkpt lat="45.71459180587413" lon="11.226186574892644"><ele>661.3333333333333</ele><time>2026-04-08T14:14:12Z</time></trkpt><trkpt lat="45.71466628799451" lon="11.22623672323713"><ele>663.6666666666666</ele><time>2026-04-08T14:14:13Z</time></trkpt><trkpt lat="45.714753210173946" lon="11.226258413931532"><ele>666.0</ele><time>2026-04-08T14:14:14Z</time></trkpt><trkpt lat="45.71482329030864" lon="11.2262694669819"><ele>668.3333333333334</ele><time>2026-04-08T14:14:15Z</time></trkpt><trkpt lat="45.71489722826727" lon="11.226254822218214"><ele>670.6666666666667</ele><time>2026-04-08T14:14:16Z</time></trkpt><trkpt lat="45.71499136117236" lon="11.226215787105797"><ele>673.0</ele><time>2026-04-08T14:14:17Z</time></trkpt><trkpt lat="45.715058764464345" lon="11.226153848037857"><ele>673.0</ele><time>2026-04-08T14:14:18Z</time></trkpt><trkpt lat="45.71513048591951" lon="11.226098083603054"><ele>673.0</ele><time>2026-04-08T14:14:19Z</time></trkpt><trkpt lat="45.71520347371819" lon="11.226084474360903"><ele>673.0</ele><time>2026-04-08T14:14:20Z</time></trkpt><trkpt lat="45.71529419942908" lon="11.225998389627613"><ele>673.0</ele><time>2026-04-08T14:14:22Z</time></trkpt><trkpt lat="45.7153351673596" lon="11.225865842191942"><ele>673.0</ele><time>2026-04-08T14:14:24Z</time></trkpt><trkpt lat="45.71536977244946" lon="11.225740331997867"><ele>673.0</ele><time>2026-04-08T14:14:26Z</time></trkpt><trkpt lat="45.7154126857651" lon="11.225807636270524"><ele>673.0</ele><time>2026-04-08T14:14:29Z</time></trkpt><trkpt lat="45.7153798277505" lon="11.225964982290991"><ele>673.0</ele><time>2026-04-08T14:14:31Z</time></trkpt><trkpt lat="45.71533983827308" lon="11.22609929165912"><ele>673.0</ele><time>2026-04-08T14:14:33Z</time></trkpt><trkpt lat="45.715265720393226" lon="11.226218940413192"><ele>673.0</ele><time>2026-04-08T14:14:35Z</time></trkpt><trkpt lat="45.715212313141464" lon="11.22628671871674"><ele>673.0</ele><time>2026-04-08T14:14:36Z</time></trkpt><trkpt lat="45.71517411411225" lon="11.226363117022878"><ele>673.0</ele><time>2026-04-08T14:14:38Z</time></trkpt><trkpt lat="45.71522377175794" lon="11.226451039933496"><ele>673.0</ele><time>2026-04-08T14:14:39Z</time></trkpt><trkpt lat="45.71529467417906" lon="11.226451145451"><ele>673.0</ele><time>2026-04-08T14:14:41Z</time></trkpt><trkpt lat="45.71534871219317" lon="11.22634448688689"><ele>673.0</ele><time>2026-04-08T14:14:43Z</time></trkpt><trkpt lat="45.715399503333" lon="11.226288349796468"><ele>673.0</ele><time>2026-04-08T14:14:44Z</time></trkpt><trkpt lat="45.71549604979895" lon="11.226198998390162"><ele>678.0</ele><time>2026-04-08T14:14:46Z</time></trkpt><trkpt lat="45.71554882456352" lon="11.226126661290847"><ele>683.0</ele><time>2026-04-08T14:14:47Z</time></trkpt><trkpt lat="45.71560983505026" lon="11.226086407749003"><ele>688.0</ele><time>2026-04-08T14:14:48Z</time></trkpt><trkpt lat="45.71567049492968" lon="11.226026736682071"><ele>693.0</ele><time>2026-04-08T14:14:49Z</time></trkpt><trkpt lat="45.715715324088954" lon="11.225940711113228"><ele>698.0</ele><time>2026-04-08T14:14:50Z</time></trkpt><trkpt lat="45.71576770692647" lon="11.225842485005167"><ele>703.0</ele><time>2026-04-08T14:14:51Z</time></trkpt><trkpt lat="45.71580245363945" lon="11.225763363836375"><ele>708.0</ele><time>2026-04-08T14:14:52Z</time></trkpt><trkpt lat="45.71585065681089" lon="11.225677033100288"><ele>711.0</ele><time>2026-04-08T14:14:53Z</time></trkpt><trkpt lat="45.715892377435885" lon="11.225594280000204"><ele>714.0</ele><time>2026-04-08T14:14:54Z</time></trkpt><trkpt lat="45.71597795558264" lon="11.22548445316822"><ele>717.0</ele><time>2026-04-08T14:14:56Z</time></trkpt><trkpt lat="45.71603984960408" lon="11.225441893979616"><ele>720.0</ele><time>2026-04-08T14:14:57Z</time></trkpt><trkpt lat="45.71610767610417" lon="11.225407703359211"><ele>723.0</ele><time>2026-04-08T14:14:58Z</time></trkpt><trkpt lat="45.71621421128622" lon="11.225373072768415"><ele>726.0</ele><time>2026-04-08T14:15:00Z</time></trkpt><trkpt lat="45.71630262084567" lon="11.225333853711986"><ele>726.0</ele><time>2026-04-08T14:15:02Z</time></trkpt><trkpt lat="45.71631601738559" lon="11.224972817134027"><ele>726.0</ele><time>2026-04-08T14:15:04Z</time></trkpt><trkpt lat="45.71635541996423" lon="11.22482576668997"><ele>726.0</ele><time>2026-04-08T14:15:06Z</time></trkpt><trkpt lat="45.71640693809218" lon="11.22475234570327"><ele>726.0</ele><time>2026-04-08T14:15:09Z</time></trkpt><trkpt lat="45.71647232302542" lon="11.224683527994923"><ele>719.0</ele><time>2026-04-08T14:15:12Z</time></trkpt><trkpt lat="45.71657216778182" lon="11.22468586432347"><ele>712.0</ele><time>2026-04-08T14:15:14Z</time></trkpt><trkpt lat="45.71667644924308" lon="11.224676684277272"><ele>705.0</ele><time>2026-04-08T14:15:16Z</time></trkpt><trkpt lat="45.71674051439809" lon="11.22465979841984"><ele>698.0</ele><time>2026-04-08T14:15:17Z</time></trkpt><trkpt lat="45.716857625249816" lon="11.22460220032809"><ele>691.0</ele><time>2026-04-08T14:15:19Z</time></trkpt><trkpt lat="45.71694544907873" lon="11.224532458017096"><ele>690.4</ele><time>2026-04-08T14:15:21Z</time></trkpt><trkpt lat="45.71703263348794" lon="11.224425720026305"><ele>689.8</ele><time>2026-04-08T14:15:23Z</time></trkpt><trkpt lat="45.71709287771582" lon="11.22438095960576"><ele>689.1999999999999</ele><time>2026-04-08T14:15:24Z</time></trkpt><trkpt lat="45.71720240911465" lon="11.22430468887861"><ele>688.5999999999999</ele><time>2026-04-08T14:15:26Z</time></trkpt><trkpt lat="45.717260310229996" lon="11.22426280416224"><ele>688.0</ele><time>2026-04-08T14:15:27Z</time></trkpt><trkpt lat="45.717332731531386" lon="11.224206614180861"><ele>688.0</ele><time>2026-04-08T14:15:29Z</time></trkpt><trkpt lat="45.71741910533044" lon="11.224176660608617"><ele>688.0</ele><time>2026-04-08T14:15:31Z</time></trkpt><trkpt lat="45.717498808037504" lon="11.22413849980537"><ele>688.0</ele><time>2026-04-08T14:15:32Z</time></trkpt><trkpt lat="45.7175920612038" lon="11.224059304564324"><ele>688.0</ele><time>2026-04-08T14:15:34Z</time></trkpt><trkpt lat="45.71768638229637" lon="11.224013111879584"><ele>688.0</ele><time>2026-04-08T14:15:36Z</time></trkpt><trkpt lat="45.71774021341345" lon="11.223963476409118"><ele>688.0</ele><time>2026-04-08T14:15:38Z</time></trkpt><trkpt lat="45.71779076316742" lon="11.22390876558586"><ele>686.0</ele><time>2026-04-08T14:15:39Z</time></trkpt><trkpt lat="45.71786006856049" lon="11.223817343954355"><ele>684.0</ele><time>2026-04-08T14:15:42Z</time></trkpt><trkpt lat="45.71790286408633" lon="11.223706942293735"><ele>682.0</ele><time>2026-04-08T14:15:45Z</time></trkpt><trkpt lat="45.717988525729176" lon="11.223622249027951"><ele>680.0</ele><time>2026-04-08T14:15:47Z</time></trkpt><trkpt lat="45.71808387763465" lon="11.223529319458942"><ele>678.0</ele><time>2026-04-08T14:15:49Z</time></trkpt><trkpt lat="45.71817400338933" lon="11.223427318725882"><ele>678.0</ele><time>2026-04-08T14:15:51Z</time></trkpt><trkpt lat="45.718248110328176" lon="11.22339396916026"><ele>678.0</ele><time>2026-04-08T14:15:53Z</time></trkpt><trkpt lat="45.71830518565379" lon="11.223342951840499"><ele>678.0</ele><time>2026-04-08T14:15:55Z</time></trkpt><trkpt lat="45.71834690305537" lon="11.223255841281288"><ele>678.0</ele><time>2026-04-08T14:15:57Z</time></trkpt><trkpt lat="45.71839877511243" lon="11.223148954880228"><ele>678.0</ele><time>2026-04-08T14:15:59Z</time></trkpt><trkpt lat="45.71848996415409" lon="11.223090641926749"><ele>678.0</ele><time>2026-04-08T14:16:01Z</time></trkpt><trkpt lat="45.718557210174254" lon="11.223064735436417"><ele>679.0</ele><time>2026-04-08T14:16:02Z</time></trkpt><trkpt lat="45.71864608548908" lon="11.223025882050262"><ele>680.0</ele><time>2026-04-08T14:16:04Z</time></trkpt><trkpt lat="45.718694387398855" lon="11.222960166634174"><ele>681.0</ele><time>2026-04-08T14:16:06Z</time></trkpt><trkpt lat="45.71875073958408" lon="11.222894708607056"><ele>682.0</ele><time>2026-04-08T14:16:08Z</time></trkpt><trkpt lat="45.71881741355852" lon="11.222808859307971"><ele>683.0</ele><time>2026-04-08T14:16:10Z</time></trkpt><trkpt lat="45.71889371938888" lon="11.222754007417398"><ele>684.0</ele><time>2026-04-08T14:16:12Z</time></trkpt><trkpt lat="45.71895011410788" lon="11.222692632152636"><ele>684.0</ele><time>2026-04-08T14:16:13Z</time></trkpt><trkpt lat="45.71900812119225" lon="11.222622941483918"><ele>684.0</ele><time>2026-04-08T14:16:14Z</time></trkpt><trkpt lat="45.719068471878785" lon="11.222500097745774"><ele>684.0</ele><time>2026-04-08T14:16:16Z</time></trkpt><trkpt lat="45.71911287182506" lon="11.22240254632324"><ele>684.0</ele><time>2026-04-08T14:16:18Z</time></trkpt><trkpt lat="45.71916082663525" lon="11.222313612021129"><ele>684.0</ele><time>2026-04-08T14:16:20Z</time></trkpt><trkpt lat="45.719247668274065" lon="11.222201888404756"><ele>681.25</ele><time>2026-04-08T14:16:22Z</time></trkpt><trkpt lat="45.719329033883604" lon="11.22207368751292"><ele>678.5</ele><time>2026-04-08T14:16:24Z</time></trkpt><trkpt lat="45.71941983616614" lon="11.221913612324023"><ele>675.75</ele><time>2026-04-08T14:16:26Z</time></trkpt><trkpt lat="45.71945373981645" lon="11.221830060040842"><ele>673.0</ele><time>2026-04-08T14:16:27Z</time></trkpt><trkpt lat="45.7195194750583" lon="11.221680961990895"><ele>673.0</ele><time>2026-04-08T14:16:29Z</time></trkpt><trkpt lat="45.71956660796542" lon="11.221621102786886"><ele>673.0</ele><time>2026-04-08T14:16:30Z</time></trkpt><trkpt lat="45.71962504473574" lon="11.221556594471057"><ele>673.0</ele><time>2026-04-08T14:16:31Z</time></trkpt><trkpt lat="45.719672733010945" lon="11.22146114867363"><ele>673.0</ele><time>2026-04-08T14:16:32Z</time></trkpt><trkpt lat="45.719734646622555" lon="11.221365806177047"><ele>673.0</ele><time>2026-04-08T14:16:34Z</time></trkpt><trkpt lat="45.71981276481315" lon="11.221326193286677"><ele>673.0</ele><time>2026-04-08T14:16:36Z</time></trkpt><trkpt lat="45.71991991957801" lon="11.221289693847892"><ele>672.0</ele><time>2026-04-08T14:16:38Z</time></trkpt><trkpt lat="45.719985406926966" lon="11.221317939103145"><ele>671.0</ele><time>2026-04-08T14:16:48Z</time></trkpt><trkpt lat="45.72006133419973" lon="11.221360092037424"><ele>670.0</ele><time>2026-04-08T14:16:53Z</time></trkpt><trkpt lat="45.72013671693127" lon="11.221399274600575"><ele>669.0</ele><time>2026-04-08T14:16:55Z</time></trkpt><trkpt lat="45.720275632319904" lon="11.22131026348108"><ele>668.0</ele><time>2026-04-08T14:16:57Z</time></trkpt><trkpt lat="45.72033203202554" lon="11.22135692875857"><ele>667.0</ele><time>2026-04-08T14:16:59Z</time></trkpt><trkpt lat="45.72033291975904" lon="11.221244054658523"><ele>667.0</ele><time>2026-04-08T14:17:03Z</time></trkpt><trkpt lat="45.72024097759337" lon="11.221119890863992"><ele>667.0</ele><time>2026-04-08T14:17:05Z</time></trkpt><trkpt lat="45.720210720537835" lon="11.221039262234562"><ele>667.0</ele><time>2026-04-08T14:17:06Z</time></trkpt><trkpt lat="45.72020110491525" lon="11.221187312519252"><ele>667.0</ele><time>2026-04-08T14:17:07Z</time></trkpt><trkpt lat="45.72028807154958" lon="11.22082164581305"><ele>669.5</ele><time>2026-04-08T14:17:08Z</time></trkpt><trkpt lat="45.72033698183255" lon="11.220725101860076"><ele>672.0</ele><time>2026-04-08T14:17:09Z</time></trkpt><trkpt lat="45.7203973647914" lon="11.220647362204007"><ele>674.5</ele><time>2026-04-08T14:17:10Z</time></trkpt><trkpt lat="45.72044414306055" lon="11.220583641058134"><ele>677.0</ele><time>2026-04-08T14:17:11Z</time></trkpt><trkpt lat="45.72049239634016" lon="11.220514498234014"><ele>679.5</ele><time>2026-04-08T14:17:12Z</time></trkpt><trkpt lat="45.72054346213846" lon="11.220374837973823"><ele>682.0</ele><time>2026-04-08T14:17:14Z</time></trkpt><trkpt lat="45.7205649205101" lon="11.220282137607093"><ele>682.0</ele><time>2026-04-08T14:17:15Z</time></trkpt><trkpt lat="45.72059425193633" lon="11.220200833515017"><ele>682.0</ele><time>2026-04-08T14:17:16Z</time></trkpt><trkpt lat="45.72062588401992" lon="11.220090533834524"><ele>682.0</ele><time>2026-04-08T14:17:17Z</time></trkpt><trkpt lat="45.7206547345141" lon="11.219973608827871"><ele>682.0</ele><time>2026-04-08T14:17:18Z</time></trkpt><trkpt lat="45.72068313276152" lon="11.219850650153075"><ele>682.0</ele><time>2026-04-08T14:17:19Z</time></trkpt><trkpt lat="45.72073054322231" lon="11.219741132397502"><ele>682.0</ele><time>2026-04-08T14:17:20Z</time></trkpt><trkpt lat="45.72078684885345" lon="11.219643977940313"><ele>682.0</ele><time>2026-04-08T14:17:21Z</time></trkpt><trkpt lat="45.72083766606273" lon="11.2195597538606"><ele>682.0</ele><time>2026-04-08T14:17:22Z</time></trkpt><trkpt lat="45.7208811465982" lon="11.219458005222688"><ele>682.0</ele><time>2026-04-08T14:17:23Z</time></trkpt><trkpt lat="45.72091449201779" lon="11.219355315271612"><ele>682.0</ele><time>2026-04-08T14:17:24Z</time></trkpt><trkpt lat="45.72094814971324" lon="11.219242342087613"><ele>682.0</ele><time>2026-04-08T14:17:25Z</time></trkpt><trkpt lat="45.72099138001536" lon="11.219110317095266"><ele>682.0</ele><time>2026-04-08T14:17:26Z</time></trkpt><trkpt lat="45.721036966887915" lon="11.218985522240933"><ele>686.2</ele><time>2026-04-08T14:17:27Z</time></trkpt><trkpt lat="45.72106844940771" lon="11.218906029220111"><ele>690.4000000000001</ele><time>2026-04-08T14:17:28Z</time></trkpt><trkpt lat="45.721163627953565" lon="11.218799381173728"><ele>694.5999999999999</ele><time>2026-04-08T14:17:30Z</time></trkpt><trkpt lat="45.72123029054903" lon="11.218735144062173"><ele>698.8</ele><time>2026-04-08T14:17:31Z</time></trkpt><trkpt lat="45.72130387008896" lon="11.218650934027808"><ele>703.0</ele><time>2026-04-08T14:17:32Z</time></trkpt><trkpt lat="45.721380232869734" lon="11.21855855992981"><ele>703.0</ele><time>2026-04-08T14:17:33Z</time></trkpt><trkpt lat="45.72144875729792" lon="11.21844011327504"><ele>703.0</ele><time>2026-04-08T14:17:34Z</time></trkpt><trkpt lat="45.72151856137174" lon="11.218329015792628"><ele>703.0</ele><time>2026-04-08T14:17:35Z</time></trkpt><trkpt lat="45.7215745180503" lon="11.218241710414027"><ele>703.0</ele><time>2026-04-08T14:17:36Z</time></trkpt><trkpt lat="45.72163642378794" lon="11.218147759090623"><ele>703.0</ele><time>2026-04-08T14:17:37Z</time></trkpt><trkpt lat="45.72169855994212" lon="11.218070200110285"><ele>701.0</ele><time>2026-04-08T14:17:38Z</time></trkpt><trkpt lat="45.72176616859595" lon="11.21798968473418"><ele>699.0</ele><time>2026-04-08T14:17:39Z</time></trkpt><trkpt lat="45.721830541428055" lon="11.217887242147203"><ele>697.0</ele><time>2026-04-08T14:17:40Z</time></trkpt><trkpt lat="45.72187995561969" lon="11.217771939743724"><ele>695.0</ele><time>2026-04-08T14:17:41Z</time></trkpt><trkpt lat="45.72191852674774" lon="11.217668448763913"><ele>693.0</ele><time>2026-04-08T14:17:42Z</time></trkpt><trkpt lat="45.72194111549622" lon="11.217531994671262"><ele>697.2</ele><time>2026-04-08T14:17:43Z</time></trkpt><trkpt lat="45.72195573492525" lon="11.217407044200824"><ele>701.4</ele><time>2026-04-08T14:17:44Z</time></trkpt><trkpt lat="45.72199087196681" lon="11.21727106942269"><ele>705.6</ele><time>2026-04-08T14:17:46Z</time></trkpt><trkpt lat="45.722098862224364" lon="11.217172552929055"><ele>709.8000000000001</ele><time>2026-04-08T14:17:48Z</time></trkpt><trkpt lat="45.72217040810978" lon="11.217099351050816"><ele>714.0</ele><time>2026-04-08T14:17:49Z</time></trkpt><trkpt lat="45.72223224712566" lon="11.217052969312034"><ele>714.0</ele><time>2026-04-08T14:17:50Z</time></trkpt><trkpt lat="45.72231144883193" lon="11.21697981099938"><ele>714.0</ele><time>2026-04-08T14:17:52Z</time></trkpt><trkpt lat="45.722381504212905" lon="11.216927202961749"><ele>714.0</ele><time>2026-04-08T14:17:53Z</time></trkpt><trkpt lat="45.722442744519384" lon="11.216857496548648"><ele>714.0</ele><time>2026-04-08T14:17:54Z</time></trkpt><trkpt lat="45.722499497738376" lon="11.216758011883222"><ele>714.0</ele><time>2026-04-08T14:17:55Z</time></trkpt><trkpt lat="45.722546514676786" lon="11.21663170406003"><ele>714.0</ele><time>2026-04-08T14:17:56Z</time></trkpt><trkpt lat="45.72259599005046" lon="11.216508492219502"><ele>712.1666666666666</ele><time>2026-04-08T14:17:57Z</time></trkpt><trkpt lat="45.722637224129684" lon="11.216392950184579"><ele>710.3333333333334</ele><time>2026-04-08T14:17:58Z</time></trkpt><trkpt lat="45.72266862479046" lon="11.216302898409145"><ele>708.5</ele><time>2026-04-08T14:17:59Z</time></trkpt><trkpt lat="45.72270066608799" lon="11.21618460625384"><ele>706.6666666666667</ele><time>2026-04-08T14:18:00Z</time></trkpt><trkpt lat="45.722737801552455" lon="11.216063491376731"><ele>704.8333333333334</ele><time>2026-04-08T14:18:01Z</time></trkpt><trkpt lat="45.72278503375691" lon="11.215966695264449"><ele>703.0</ele><time>2026-04-08T14:18:02Z</time></trkpt><trkpt lat="45.72283538693456" lon="11.215896441686427"><ele>711.6666666666667</ele><time>2026-04-08T14:18:03Z</time></trkpt><trkpt lat="45.72287999605547" lon="11.215825216610027"><ele>720.3333333333334</ele><time>2026-04-08T14:18:04Z</time></trkpt><trkpt lat="45.7229254468033" lon="11.215739982277272"><ele>729.0</ele><time>2026-04-08T14:18:05Z</time></trkpt><trkpt lat="45.72295975926336" lon="11.215639997616611"><ele>737.6666666666666</ele><time>2026-04-08T14:18:06Z</time></trkpt><trkpt lat="45.72300468501234" lon="11.215522121754123"><ele>746.3333333333333</ele><time>2026-04-08T14:18:07Z</time></trkpt><trkpt lat="45.72303750989136" lon="11.215441030049309"><ele>755.0</ele><time>2026-04-08T14:18:08Z</time></trkpt><trkpt lat="45.72305240935812" lon="11.215302819216905"><ele>755.0</ele><time>2026-04-08T14:18:10Z</time></trkpt><trkpt lat="45.722991818763646" lon="11.215133523753384"><ele>755.0</ele><time>2026-04-08T14:18:12Z</time></trkpt><trkpt lat="45.722952921223786" lon="11.215043021013505"><ele>755.0</ele><time>2026-04-08T14:18:13Z</time></trkpt><trkpt lat="45.72289515810228" lon="11.214900443301934"><ele>755.0</ele><time>2026-04-08T14:18:15Z</time></trkpt><trkpt lat="45.72284687753935" lon="11.214826968184497"><ele>755.0</ele><time>2026-04-08T14:18:16Z</time></trkpt><trkpt lat="45.72276164990481" lon="11.21471941935005"><ele>753.8</ele><time>2026-04-08T14:18:18Z</time></trkpt><trkpt lat="45.72274037810261" lon="11.214605452406001"><ele>752.6</ele><time>2026-04-08T14:18:20Z</time></trkpt><trkpt lat="45.722776384059756" lon="11.214495587249344"><ele>751.4000000000001</ele><time>2026-04-08T14:18:22Z</time></trkpt><trkpt lat="45.72285702869738" lon="11.214369675291227"><ele>750.2</ele><time>2026-04-08T14:18:24Z</time></trkpt><trkpt lat="45.72289656319369" lon="11.214297293499136"><ele>749.0</ele><time>2026-04-08T14:18:25Z</time></trkpt><trkpt lat="45.72294145890438" lon="11.214156744862294"><ele>749.0</ele><time>2026-04-08T14:18:27Z</time></trkpt><trkpt lat="45.72295274083673" lon="11.21405386832465"><ele>749.0</ele><time>2026-04-08T14:18:28Z</time></trkpt><trkpt lat="45.72296173323495" lon="11.21395550221527"><ele>749.0</ele><time>2026-04-08T14:18:29Z</time></trkpt><trkpt lat="45.72297701968978" lon="11.213802101753071"><ele>749.0</ele><time>2026-04-08T14:18:31Z</time></trkpt><trkpt lat="45.72298316415851" lon="11.213705622624317"><ele>749.0</ele><time>2026-04-08T14:18:32Z</time></trkpt><trkpt lat="45.722989723705254" lon="11.21360721820525"><ele>749.0</ele><time>2026-04-08T14:18:33Z</time></trkpt><trkpt lat="45.7229920076344" lon="11.213484409040445"><ele>748.0</ele><time>2026-04-08T14:18:34Z</time></trkpt><trkpt lat="45.722971261235706" lon="11.213366076804617"><ele>747.0</ele><time>2026-04-08T14:18:35Z</time></trkpt><trkpt lat="45.72293289365509" lon="11.21318531336845"><ele>746.0</ele><time>2026-04-08T14:18:37Z</time></trkpt><trkpt lat="45.72291827174026" lon="11.213092029415728"><ele>745.0</ele><time>2026-04-08T14:18:38Z</time></trkpt><trkpt lat="45.72286383540759" lon="11.212926942873391"><ele>744.0</ele><time>2026-04-08T14:18:40Z</time></trkpt><trkpt lat="45.72281615997567" lon="11.212861472262185"><ele>747.2</ele><time>2026-04-08T14:18:41Z</time></trkpt><trkpt lat="45.722763200644614" lon="11.21281223531831"><ele>750.4000000000001</ele><time>2026-04-08T14:18:42Z</time></trkpt><trkpt lat="45.7226646040195" lon="11.212725537481774"><ele>753.6</ele><time>2026-04-08T14:18:44Z</time></trkpt><trkpt lat="45.72254471589951" lon="11.21264673461081"><ele>756.8</ele><time>2026-04-08T14:18:46Z</time></trkpt><trkpt lat="45.722470022435516" lon="11.21261025343038"><ele>760.0</ele><time>2026-04-08T14:18:47Z</time></trkpt><trkpt lat="45.72237584657081" lon="11.212507205947952"><ele>756.0</ele><time>2026-04-08T14:18:49Z</time></trkpt><trkpt lat="45.72232431508868" lon="11.212444022662407"><ele>752.0</ele><time>2026-04-08T14:18:50Z</time></trkpt><trkpt lat="45.72224573964348" lon="11.212410398077099"><ele>748.0</ele><time>2026-04-08T14:18:51Z</time></trkpt><trkpt lat="45.722186832799125" lon="11.212347852234654"><ele>744.0</ele><time>2026-04-08T14:18:52Z</time></trkpt><trkpt lat="45.722155492483886" lon="11.212248441355426"><ele>740.0</ele><time>2026-04-08T14:18:54Z</time></trkpt><trkpt lat="45.72222888899286" lon="11.212096089604723"><ele>736.0</ele><time>2026-04-08T14:18:56Z</time></trkpt><trkpt lat="45.72227417919668" lon="11.211993034051321"><ele>736.0</ele><time>2026-04-08T14:18:57Z</time></trkpt><trkpt lat="45.72231592106012" lon="11.211866433684268"><ele>736.0</ele><time>2026-04-08T14:18:58Z</time></trkpt><trkpt lat="45.722352831712506" lon="11.211773338532794"><ele>736.0</ele><time>2026-04-08T14:18:59Z</time></trkpt><trkpt lat="45.722401962224204" lon="11.211660602012014"><ele>736.0</ele><time>2026-04-08T14:19:00Z</time></trkpt><trkpt lat="45.72240956703305" lon="11.211513269816137"><ele>736.0</ele><time>2026-04-08T14:19:01Z</time></trkpt><trkpt lat="45.72243208298448" lon="11.211349833296222"><ele>734.1666666666667</ele><time>2026-04-08T14:19:02Z</time></trkpt><trkpt lat="45.72244313143632" lon="11.211240594227284"><ele>732.3333333333334</ele><time>2026-04-08T14:19:03Z</time></trkpt><trkpt lat="45.72243880993542" lon="11.211141192465222"><ele>730.5</ele><time>2026-04-08T14:19:04Z</time></trkpt><trkpt lat="45.722385694701316" lon="11.211077187102068"><ele>728.6666666666666</ele><time>2026-04-08T14:19:05Z</time></trkpt><trkpt lat="45.722322468826604" lon="11.210971116080636"><ele>726.8333333333333</ele><time>2026-04-08T14:19:07Z</time></trkpt><trkpt lat="45.72228481676355" lon="11.210881441098884"><ele>725.0</ele><time>2026-04-08T14:19:08Z</time></trkpt><trkpt lat="45.72225641602103" lon="11.210797973789937"><ele>725.0</ele><time>2026-04-08T14:19:09Z</time></trkpt><trkpt lat="45.72224308581365" lon="11.210664799959059"><ele>725.0</ele><time>2026-04-08T14:19:11Z</time></trkpt><trkpt lat="45.72229634133671" lon="11.21060659536858"><ele>725.0</ele><time>2026-04-08T14:19:12Z</time></trkpt><trkpt lat="45.72235069258453" lon="11.210557730585379"><ele>725.0</ele><time>2026-04-08T14:19:13Z</time></trkpt><trkpt lat="45.72241245751972" lon="11.21051984174671"><ele>725.0</ele><time>2026-04-08T14:19:14Z</time></trkpt><trkpt lat="45.72248473934172" lon="11.210489419763459"><ele>725.0</ele><time>2026-04-08T14:19:15Z</time></trkpt><trkpt lat="45.72257623623408" lon="11.210480611785776"><ele>727.5</ele><time>2026-04-08T14:19:16Z</time></trkpt><trkpt lat="45.722644184155385" lon="11.210464796314913"><ele>730.0</ele><time>2026-04-08T14:19:17Z</time></trkpt><trkpt lat="45.72271257215807" lon="11.210451916726214"><ele>732.5</ele><time>2026-04-08T14:19:18Z</time></trkpt><trkpt lat="45.72277970208442" lon="11.210432521620781"><ele>735.0</ele><time>2026-04-08T14:19:19Z</time></trkpt><trkpt lat="45.72284830964033" lon="11.210394891419297"><ele>737.5</ele><time>2026-04-08T14:19:20Z</time></trkpt><trkpt lat="45.72289028113568" lon="11.21027362449178"><ele>740.0</ele><time>2026-04-08T14:19:22Z</time></trkpt><trkpt lat="45.72285885927006" lon="11.210109081007133"><ele>740.0</ele><time>2026-04-08T14:19:24Z</time></trkpt><trkpt lat="45.72288330395222" lon="11.20994953726928"><ele>740.0</ele><time>2026-04-08T14:19:26Z</time></trkpt><trkpt lat="45.72292590525399" lon="11.209877672693342"><ele>740.0</ele><time>2026-04-08T14:19:27Z</time></trkpt><trkpt lat="45.72298360283231" lon="11.209819520197323"><ele>740.0</ele><time>2026-04-08T14:19:28Z</time></trkpt><trkpt lat="45.72304237078049" lon="11.209748636497006"><ele>740.0</ele><time>2026-04-08T14:19:29Z</time></trkpt><trkpt lat="45.72311118111351" lon="11.209668640171934"><ele>740.0</ele><time>2026-04-08T14:19:30Z</time></trkpt><trkpt lat="45.72316720583661" lon="11.209602032220474"><ele>737.0</ele><time>2026-04-08T14:19:31Z</time></trkpt><trkpt lat="45.72325096524087" lon="11.209492741501364"><ele>734.0</ele><time>2026-04-08T14:19:33Z</time></trkpt><trkpt lat="45.72330793510503" lon="11.209390040801244"><ele>731.0</ele><time>2026-04-08T14:19:35Z</time></trkpt><trkpt lat="45.723372676924605" lon="11.209332957619983"><ele>728.0</ele><time>2026-04-08T14:19:36Z</time></trkpt><trkpt lat="45.723441981770236" lon="11.209304379891542"><ele>725.0</ele><time>2026-04-08T14:19:37Z</time></trkpt><trkpt lat="45.72351096102222" lon="11.209296985053136"><ele>722.0</ele><time>2026-04-08T14:19:38Z</time></trkpt><trkpt lat="45.723620784363355" lon="11.209313517396204"><ele>725.8333333333333</ele><time>2026-04-08T14:19:40Z</time></trkpt><trkpt lat="45.72368087930144" lon="11.209282140089647"><ele>729.6666666666666</ele><time>2026-04-08T14:19:42Z</time></trkpt><trkpt lat="45.72367972798965" lon="11.209139562325111"><ele>733.5</ele><time>2026-04-08T14:19:44Z</time></trkpt><trkpt lat="45.723642503431634" lon="11.209053044674082"><ele>737.3333333333334</ele><time>2026-04-08T14:19:45Z</time></trkpt><trkpt lat="45.72359309236469" lon="11.208953502962867"><ele>741.1666666666667</ele><time>2026-04-08T14:19:46Z</time></trkpt><trkpt lat="45.723598099466464" lon="11.208815451948423"><ele>745.0</ele><time>2026-04-08T14:19:48Z</time></trkpt><trkpt lat="45.72362073978848" lon="11.20871681870999"><ele>745.0</ele><time>2026-04-08T14:19:49Z</time></trkpt><trkpt lat="45.723628960350425" lon="11.208621176603957"><ele>745.0</ele><time>2026-04-08T14:19:50Z</time></trkpt><trkpt lat="45.72362376294528" lon="11.208522681001527"><ele>745.0</ele><time>2026-04-08T14:19:51Z</time></trkpt><trkpt lat="45.72364189511798" lon="11.208422709308232"><ele>745.0</ele><time>2026-04-08T14:19:53Z</time></trkpt><trkpt lat="45.72374491398607" lon="11.208358622766806"><ele>745.0</ele><time>2026-04-08T14:19:55Z</time></trkpt><trkpt lat="45.72380681266793" lon="11.208322074398213"><ele>745.0</ele><time>2026-04-08T14:19:56Z</time></trkpt><trkpt lat="45.72387409596298" lon="11.208277951047714"><ele>745.0</ele><time>2026-04-08T14:19:57Z</time></trkpt><trkpt lat="45.72394960215948" lon="11.208209299671932"><ele>745.0</ele><time>2026-04-08T14:19:58Z</time></trkpt><trkpt lat="45.72402606568235" lon="11.208158185907141"><ele>745.0</ele><time>2026-04-08T14:19:59Z</time></trkpt><trkpt lat="45.72409734089834" lon="11.208064467549942"><ele>745.0</ele><time>2026-04-08T14:20:01Z</time></trkpt><trkpt lat="45.72411233135418" lon="11.207971100133173"><ele>745.0</ele><time>2026-04-08T14:20:03Z</time></trkpt><trkpt lat="45.7240644682788" lon="11.207827092450168"><ele>745.0</ele><time>2026-04-08T14:20:05Z</time></trkpt><trkpt lat="45.72399386433929" lon="11.207790709506602"><ele>743.2</ele><time>2026-04-08T14:20:06Z</time></trkpt><trkpt lat="45.72390360813005" lon="11.207727192132358"><ele>741.4</ele><time>2026-04-08T14:20:07Z</time></trkpt><trkpt lat="45.72382570873058" lon="11.207663447221593"><ele>739.5999999999999</ele><time>2026-04-08T14:20:08Z</time></trkpt><trkpt lat="45.72376831179484" lon="11.207612737418396"><ele>737.8</ele><time>2026-04-08T14:20:09Z</time></trkpt><trkpt lat="45.72373339835691" lon="11.207458497461165"><ele>736.0</ele><time>2026-04-08T14:20:11Z</time></trkpt><trkpt lat="45.72377157256687" lon="11.207347377042122"><ele>733.6666666666667</ele><time>2026-04-08T14:20:13Z</time></trkpt><trkpt lat="45.72380730041291" lon="11.207264308179559"><ele>731.3333333333334</ele><time>2026-04-08T14:20:14Z</time></trkpt><trkpt lat="45.723882128282625" lon="11.207201881968423"><ele>729.0</ele><time>2026-04-08T14:20:15Z</time></trkpt><trkpt lat="45.72396102483084" lon="11.207140479356896"><ele>726.6666666666666</ele><time>2026-04-08T14:20:16Z</time></trkpt><trkpt lat="45.724036018222755" lon="11.207087140712876"><ele>724.3333333333333</ele><time>2026-04-08T14:20:17Z</time></trkpt><trkpt lat="45.72411232023286" lon="11.207014492806143"><ele>722.0</ele><time>2026-04-08T14:20:18Z</time></trkpt><trkpt lat="45.72419533152659" lon="11.206942887492765"><ele>722.0</ele><time>2026-04-08T14:20:19Z</time></trkpt><trkpt lat="45.72428648102696" lon="11.206868704875001"><ele>722.0</ele><time>2026-04-08T14:20:20Z</time></trkpt><trkpt lat="45.72435389150748" lon="11.20682689893165"><ele>722.0</ele><time>2026-04-08T14:20:21Z</time></trkpt><trkpt lat="45.72443324842777" lon="11.20672787094357"><ele>722.0</ele><time>2026-04-08T14:20:23Z</time></trkpt><trkpt lat="45.7244445434478" lon="11.206531502656574"><ele>722.0</ele><time>2026-04-08T14:20:25Z</time></trkpt><trkpt lat="45.72446192773712" lon="11.206418409737921"><ele>728.0</ele><time>2026-04-08T14:20:26Z</time></trkpt><trkpt lat="45.724469946509835" lon="11.206268538223345"><ele>734.0</ele><time>2026-04-08T14:20:27Z</time></trkpt><trkpt lat="45.7244915923001" lon="11.206140309849857"><ele>740.0</ele><time>2026-04-08T14:20:28Z</time></trkpt><trkpt lat="45.72450186328323" lon="11.205998469760713"><ele>746.0</ele><time>2026-04-08T14:20:29Z</time></trkpt><trkpt lat="45.724453242381436" lon="11.205806342500445"><ele>752.0</ele><time>2026-04-08T14:20:31Z</time></trkpt><trkpt lat="45.724407715752484" lon="11.205690719294763"><ele>749.6</ele><time>2026-04-08T14:20:32Z</time></trkpt><trkpt lat="45.72435561043049" lon="11.205559299622928"><ele>747.2</ele><time>2026-04-08T14:20:33Z</time></trkpt><trkpt lat="45.72431171348411" lon="11.20544371943354"><ele>744.8</ele><time>2026-04-08T14:20:34Z</time></trkpt><trkpt lat="45.72426289805995" lon="11.20531508179286"><ele>742.4</ele><time>2026-04-08T14:20:35Z</time></trkpt><trkpt lat="45.7242288910171" lon="11.205225695739628"><ele>740.0</ele><time>2026-04-08T14:20:36Z</time></trkpt><trkpt lat="45.724219014917885" lon="11.205079021520922"><ele>740.0</ele><time>2026-04-08T14:20:38Z</time></trkpt><trkpt lat="45.72424230130052" lon="11.204993828449041"><ele>740.0</ele><time>2026-04-08T14:20:39Z</time></trkpt><trkpt lat="45.72429468151713" lon="11.204913923199914"><ele>740.0</ele><time>2026-04-08T14:20:40Z</time></trkpt><trkpt lat="45.724320853087434" lon="11.204797717456527"><ele>740.0</ele><time>2026-04-08T14:20:41Z</time></trkpt><trkpt lat="45.72434324560449" lon="11.204696460615523"><ele>740.0</ele><time>2026-04-08T14:20:42Z</time></trkpt><trkpt lat="45.724363703676545" lon="11.204558039654048"><ele>740.0</ele><time>2026-04-08T14:20:43Z</time></trkpt><trkpt lat="45.72439147677127" lon="11.20447253291866"><ele>744.4</ele><time>2026-04-08T14:20:44Z</time></trkpt><trkpt lat="45.72442543039765" lon="11.204291110195454"><ele>748.8</ele><time>2026-04-08T14:20:46Z</time></trkpt><trkpt lat="45.72442704369272" lon="11.204183625578352"><ele>753.2</ele><time>2026-04-08T14:20:47Z</time></trkpt><trkpt lat="45.724412191472446" lon="11.20401681448331"><ele>757.6</ele><time>2026-04-08T14:20:49Z</time></trkpt><trkpt lat="45.724392767411516" lon="11.20386408336233"><ele>762.0</ele><time>2026-04-08T14:20:50Z</time></trkpt><trkpt lat="45.724350534561545" lon="11.203734312397255"><ele>762.0</ele><time>2026-04-08T14:20:51Z</time></trkpt><trkpt lat="45.72434774302058" lon="11.20361235774986"><ele>762.0</ele><time>2026-04-08T14:20:52Z</time></trkpt><trkpt lat="45.72437141980318" lon="11.203508139546837"><ele>762.0</ele><time>2026-04-08T14:20:53Z</time></trkpt><trkpt lat="45.724388486116624" lon="11.203411518804538"><ele>762.0</ele><time>2026-04-08T14:20:54Z</time></trkpt><trkpt lat="45.72443119944422" lon="11.203309339673504"><ele>762.0</ele><time>2026-04-08T14:20:55Z</time></trkpt><trkpt lat="45.724484458813485" lon="11.203169991235274"><ele>762.0</ele><time>2026-04-08T14:20:56Z</time></trkpt><trkpt lat="45.72449537061257" lon="11.20307026054919"><ele>766.0</ele><time>2026-04-08T14:20:57Z</time></trkpt><trkpt lat="45.72451066786831" lon="11.202949300476728"><ele>770.0</ele><time>2026-04-08T14:20:58Z</time></trkpt><trkpt lat="45.724524691969314" lon="11.202816167797026"><ele>774.0</ele><time>2026-04-08T14:20:59Z</time></trkpt><trkpt lat="45.72455755638229" lon="11.20270342745697"><ele>778.0</ele><time>2026-04-08T14:21:00Z</time></trkpt><trkpt lat="45.72455417003006" lon="11.202596178012904"><ele>782.0</ele><time>2026-04-08T14:21:01Z</time></trkpt><trkpt lat="45.72455203183854" lon="11.202469791837956"><ele>786.0</ele><time>2026-04-08T14:21:02Z</time></trkpt><trkpt lat="45.7245504341464" lon="11.202335232743405"><ele>788.8333333333334</ele><time>2026-04-08T14:21:03Z</time></trkpt><trkpt lat="45.724551798497096" lon="11.20219715883542"><ele>791.6666666666667</ele><time>2026-04-08T14:21:04Z</time></trkpt><trkpt lat="45.72454584048069" lon="11.202086469707615"><ele>794.5</ele><time>2026-04-08T14:21:05Z</time></trkpt><trkpt lat="45.7245750706316" lon="11.201996956488772"><ele>797.3333333333334</ele><time>2026-04-08T14:21:06Z</time></trkpt><trkpt lat="45.72458580898575" lon="11.201907470995693"><ele>800.1666666666667</ele><time>2026-04-08T14:21:08Z</time></trkpt><trkpt lat="45.72466522534085" lon="11.201982493157773"><ele>803.0</ele><time>2026-04-08T14:21:13Z</time></trkpt><trkpt lat="45.7247418529218" lon="11.202004478704872"><ele>803.0</ele><time>2026-04-08T14:21:14Z</time></trkpt><trkpt lat="45.72481724233967" lon="11.201998987382568"><ele>803.0</ele><time>2026-04-08T14:21:15Z</time></trkpt><trkpt lat="45.724897786381185" lon="11.202020994310049"><ele>803.0</ele><time>2026-04-08T14:21:16Z</time></trkpt><trkpt lat="45.724661996186185" lon="11.201766349168194"><ele>803.0</ele><time>2026-04-08T14:21:20Z</time></trkpt><trkpt lat="45.72477189721525" lon="11.201703159987755"><ele>803.0</ele><time>2026-04-08T14:21:21Z</time></trkpt><trkpt lat="45.72471984497005" lon="11.201613481942593"><ele>803.0</ele><time>2026-04-08T14:21:22Z</time></trkpt><trkpt lat="45.72466339596746" lon="11.201527913612033"><ele>803.0</ele><time>2026-04-08T14:21:23Z</time></trkpt><trkpt lat="45.72463575454476" lon="11.201446811816"><ele>803.0</ele><time>2026-04-08T14:21:24Z</time></trkpt><trkpt lat="45.72464363074391" lon="11.201275522373376"><ele>803.5000000000001</ele><time>2026-04-08T14:21:26Z</time></trkpt><trkpt lat="45.724661283336" lon="11.20116749325312"><ele>804.0</ele><time>2026-04-08T14:21:27Z</time></trkpt><trkpt lat="45.72468515432826" lon="11.201060038559495"><ele>804.5</ele><time>2026-04-08T14:21:28Z</time></trkpt><trkpt lat="45.72470263465115" lon="11.200939617709738"><ele>805.0</ele><time>2026-04-08T14:21:29Z</time></trkpt><trkpt lat="45.724726855317265" lon="11.200794485789851"><ele>805.5000000000001</ele><time>2026-04-08T14:21:30Z</time></trkpt><trkpt lat="45.72472959046675" lon="11.200689946599582"><ele>806.0</ele><time>2026-04-08T14:21:31Z</time></trkpt><trkpt lat="45.72477167836868" lon="11.200500037233748"><ele>808.5000000000001</ele><time>2026-04-08T14:21:33Z</time></trkpt><trkpt lat="45.72478838528058" lon="11.200362590503099"><ele>811.0</ele><time>2026-04-08T14:21:34Z</time></trkpt><trkpt lat="45.7247760870317" lon="11.200245350843865"><ele>813.5</ele><time>2026-04-08T14:21:35Z</time></trkpt><trkpt lat="45.72477046661101" lon="11.200111358281225"><ele>816.0</ele><time>2026-04-08T14:21:36Z</time></trkpt><trkpt lat="45.72476093970195" lon="11.199990927837451"><ele>818.5000000000001</ele><time>2026-04-08T14:21:37Z</time></trkpt><trkpt lat="45.7247672415648" lon="11.19989739153197"><ele>821.0</ele><time>2026-04-08T14:21:38Z</time></trkpt><trkpt lat="45.72480004247012" lon="11.19979649219183"><ele>823.0000000000001</ele><time>2026-04-08T14:21:39Z</time></trkpt><trkpt lat="45.72484704070893" lon="11.19969999885275"><ele>825.0</ele><time>2026-04-08T14:21:40Z</time></trkpt><trkpt lat="45.72488379095052" lon="11.199602880424987"><ele>827.0</ele><time>2026-04-08T14:21:41Z</time></trkpt><trkpt lat="45.724945310837825" lon="11.199520452770038"><ele>829.0</ele><time>2026-04-08T14:21:42Z</time></trkpt><trkpt lat="45.72499903662188" lon="11.19941579218149"><ele>831.0000000000001</ele><time>2026-04-08T14:21:43Z</time></trkpt><trkpt lat="45.72504212904874" lon="11.199292795706794"><ele>833.0</ele><time>2026-04-08T14:21:44Z</time></trkpt><trkpt lat="45.72509550478107" lon="11.19919846621502"><ele>833.0</ele><time>2026-04-08T14:21:45Z</time></trkpt><trkpt lat="45.725156264890444" lon="11.199122439191347"><ele>833.0</ele><time>2026-04-08T14:21:47Z</time></trkpt><trkpt lat="45.72514206813518" lon="11.198973636995635"><ele>833.0</ele><time>2026-04-08T14:21:49Z</time></trkpt><trkpt lat="45.725029292359594" lon="11.198943673694469"><ele>833.0</ele><time>2026-04-08T14:21:50Z</time></trkpt><trkpt lat="45.72493075535444" lon="11.199004955140742"><ele>833.0</ele><time>2026-04-08T14:21:51Z</time></trkpt><trkpt lat="45.72484350532247" lon="11.199017491652956"><ele>833.0</ele><time>2026-04-08T14:21:52Z</time></trkpt><trkpt lat="45.72477588629266" lon="11.19900903823884"><ele>833.0</ele><time>2026-04-08T14:21:53Z</time></trkpt><trkpt lat="45.724679211663435" lon="11.199022762579055"><ele>833.0</ele><time>2026-04-08T14:21:54Z</time></trkpt><trkpt lat="45.724556117288955" lon="11.19906551787919"><ele>833.0</ele><time>2026-04-08T14:21:56Z</time></trkpt><trkpt lat="45.72447769927082" lon="11.199082139780721"><ele>833.0</ele><time>2026-04-08T14:21:57Z</time></trkpt><trkpt lat="45.7244013711503" lon="11.199121681600854"><ele>834.6666666666667</ele><time>2026-04-08T14:21:59Z</time></trkpt><trkpt lat="45.7243372544755" lon="11.199174113592203"><ele>836.3333333333334</ele><time>2026-04-08T14:22:01Z</time></trkpt><trkpt lat="45.72427250774801" lon="11.199220594462377"><ele>838.0</ele><time>2026-04-08T14:22:02Z</time></trkpt><trkpt lat="45.724209375605035" lon="11.199286674883526"><ele>839.6666666666667</ele><time>2026-04-08T14:22:03Z</time></trkpt><trkpt lat="45.72413130945166" lon="11.199370875111883"><ele>841.3333333333334</ele><time>2026-04-08T14:22:04Z</time></trkpt><trkpt lat="45.724058176651866" lon="11.199499529837357"><ele>843.0</ele><time>2026-04-08T14:22:05Z</time></trkpt><trkpt lat="45.72401220835054" lon="11.199640349373285"><ele>843.0</ele><time>2026-04-08T14:22:06Z</time></trkpt><trkpt lat="45.72396910817049" lon="11.199747010929421"><ele>843.0</ele><time>2026-04-08T14:22:07Z</time></trkpt><trkpt lat="45.72388487622192" lon="11.199824841239643"><ele>843.0</ele><time>2026-04-08T14:22:09Z</time></trkpt><trkpt lat="45.72381969978208" lon="11.199844594772646"><ele>843.0</ele><time>2026-04-08T14:22:10Z</time></trkpt><trkpt lat="45.72374466271285" lon="11.199740683119723"><ele>843.0</ele><time>2026-04-08T14:22:11Z</time></trkpt><trkpt lat="45.72368146369961" lon="11.199749977028183"><ele>843.0</ele><time>2026-04-08T14:22:12Z</time></trkpt><trkpt lat="45.72356917514096" lon="11.199851613933005"><ele>845.4</ele><time>2026-04-08T14:22:14Z</time></trkpt><trkpt lat="45.7234933805922" lon="11.199926654482736"><ele>847.8</ele><time>2026-04-08T14:22:15Z</time></trkpt><trkpt lat="45.723412756769974" lon="11.200030360569555"><ele>850.2</ele><time>2026-04-08T14:22:16Z</time></trkpt><trkpt lat="45.7233179028898" lon="11.200094555197085"><ele>852.6</ele><time>2026-04-08T14:22:17Z</time></trkpt><trkpt lat="45.72325171926158" lon="11.200185821277001"><ele>855.0</ele><time>2026-04-08T14:22:18Z</time></trkpt><trkpt lat="45.723184115206145" lon="11.200221203768315"><ele>855.0</ele><time>2026-04-08T14:22:19Z</time></trkpt><trkpt lat="45.72312363700249" lon="11.20028198850146"><ele>855.0</ele><time>2026-04-08T14:22:20Z</time></trkpt><trkpt lat="45.72306966937919" lon="11.200350865721202"><ele>855.0</ele><time>2026-04-08T14:22:21Z</time></trkpt><trkpt lat="45.72300680041578" lon="11.200436595784199"><ele>855.0</ele><time>2026-04-08T14:22:22Z</time></trkpt><trkpt lat="45.72297101085396" lon="11.200521447992498"><ele>855.0</ele><time>2026-04-08T14:22:23Z</time></trkpt><trkpt lat="45.72291433942724" lon="11.200696835349033"><ele>855.0</ele><time>2026-04-08T14:22:25Z</time></trkpt><trkpt lat="45.7229339816658" lon="11.200804526206387"><ele>855.0</ele><time>2026-04-08T14:22:26Z</time></trkpt><trkpt lat="45.72294152162563" lon="11.200930350344171"><ele>855.0</ele><time>2026-04-08T14:22:28Z</time></trkpt><trkpt lat="45.722759422017226" lon="11.200800674809361"><ele>855.0</ele><time>2026-04-08T14:22:33Z</time></trkpt><trkpt lat="45.72276098814865" lon="11.200690598331835"><ele>855.0</ele><time>2026-04-08T14:22:34Z</time></trkpt><trkpt lat="45.72276167146576" lon="11.200568690353661"><ele>855.0</ele><time>2026-04-08T14:22:35Z</time></trkpt><trkpt lat="45.722764627901874" lon="11.200427932476778"><ele>855.0</ele><time>2026-04-08T14:22:37Z</time></trkpt><trkpt lat="45.72280653381422" lon="11.20032246630388"><ele>855.0</ele><time>2026-04-08T14:22:39Z</time></trkpt><trkpt lat="45.72286458271747" lon="11.200264818944463"><ele>855.0</ele><time>2026-04-08T14:22:40Z</time></trkpt><trkpt lat="45.72293401330546" lon="11.200166563800858"><ele>855.0</ele><time>2026-04-08T14:22:42Z</time></trkpt><trkpt lat="45.723008042360775" lon="11.200053921590078"><ele>855.0</ele><time>2026-04-08T14:22:44Z</time></trkpt><trkpt lat="45.72305871435298" lon="11.199984544800865"><ele>855.0</ele><time>2026-04-08T14:22:45Z</time></trkpt><trkpt lat="45.72313367120698" lon="11.199874922086865"><ele>855.0</ele><time>2026-04-08T14:22:47Z</time></trkpt><trkpt lat="45.723179598193006" lon="11.199737256515295"><ele>855.0</ele><time>2026-04-08T14:22:49Z</time></trkpt><trkpt lat="45.72317613697378" lon="11.199598210172288"><ele>855.0</ele><time>2026-04-08T14:22:51Z</time></trkpt><trkpt lat="45.72316123292169" lon="11.199504196932036"><ele>855.0</ele><time>2026-04-08T14:22:52Z</time></trkpt><trkpt lat="45.72315646050902" lon="11.199411151072557"><ele>860.0</ele><time>2026-04-08T14:22:53Z</time></trkpt><trkpt lat="45.72315506216361" lon="11.199310525022705"><ele>865.0</ele><time>2026-04-08T14:22:54Z</time></trkpt><trkpt lat="45.723184207811364" lon="11.199130888485426"><ele>870.0</ele><time>2026-04-08T14:22:56Z</time></trkpt><trkpt lat="45.72321971236009" lon="11.199008852176032"><ele>875.0</ele><time>2026-04-08T14:22:57Z</time></trkpt><trkpt lat="45.72329421382135" lon="11.198917741235269"><ele>880.0</ele><time>2026-04-08T14:22:59Z</time></trkpt><trkpt lat="45.7233643179366" lon="11.198856337589298"><ele>884.8333333333333</ele><time>2026-04-08T14:23:00Z</time></trkpt><trkpt lat="45.72341796379636" lon="11.198800912571572"><ele>889.6666666666666</ele><time>2026-04-08T14:23:01Z</time></trkpt><trkpt lat="45.72347738588222" lon="11.198720541024246"><ele>894.5</ele><time>2026-04-08T14:23:03Z</time></trkpt><trkpt lat="45.72340340489182" lon="11.198679893230251"><ele>899.3333333333333</ele><time>2026-04-08T14:23:09Z</time></trkpt><trkpt lat="45.723325406085685" lon="11.198741933317386"><ele>904.1666666666666</ele><time>2026-04-08T14:23:11Z</time></trkpt><trkpt lat="45.72324828632526" lon="11.198710828878038"><ele>909.0</ele><time>2026-04-08T14:23:13Z</time></trkpt><trkpt lat="45.72316504790815" lon="11.198701919632803"><ele>909.0</ele><time>2026-04-08T14:23:16Z</time></trkpt><trkpt lat="45.72323685029928" lon="11.198688599242283"><ele>909.0</ele><time>2026-04-08T14:35:09Z</time></trkpt><trkpt lat="45.723323696263556" lon="11.198708412892168"><ele>909.0</ele><time>2026-04-08T14:35:11Z</time></trkpt><trkpt lat="45.72340784822881" lon="11.198719090523461"><ele>909.0</ele><time>2026-04-08T14:35:13Z</time></trkpt><trkpt lat="45.72347253228797" lon="11.198644795741476"><ele>909.0</ele><time>2026-04-08T14:35:16Z</time></trkpt><trkpt lat="45.72346491379978" lon="11.198765383699754"><ele>909.0</ele><time>2026-04-08T14:35:21Z</time></trkpt><trkpt lat="45.72339610926514" lon="11.19888051717607"><ele>909.0</ele><time>2026-04-08T14:35:23Z</time></trkpt><trkpt lat="45.723321491225704" lon="11.198927797098055"><ele>909.0</ele><time>2026-04-08T14:35:25Z</time></trkpt><trkpt lat="45.72324697164453" lon="11.199008592786805"><ele>909.0</ele><time>2026-04-08T14:35:27Z</time></trkpt><trkpt lat="45.72320736758293" lon="11.19910799311764"><ele>909.0</ele><time>2026-04-08T14:35:29Z</time></trkpt><trkpt lat="45.72318349733216" lon="11.199195263307885"><ele>909.0</ele><time>2026-04-08T14:35:31Z</time></trkpt><trkpt lat="45.72317586299543" lon="11.199300051040783"><ele>909.0</ele><time>2026-04-08T14:35:33Z</time></trkpt><trkpt lat="45.7231722156326" lon="11.199446373444372"><ele>903.2</ele><time>2026-04-08T14:35:35Z</time></trkpt><trkpt lat="45.723171833272204" lon="11.199581019794875"><ele>897.4000000000001</ele><time>2026-04-08T14:35:37Z</time></trkpt><trkpt lat="45.723190626387634" lon="11.199731010128465"><ele>891.6</ele><time>2026-04-08T14:35:39Z</time></trkpt><trkpt lat="45.72317590692642" lon="11.199858524505167"><ele>885.8</ele><time>2026-04-08T14:35:41Z</time></trkpt><trkpt lat="45.72312406981076" lon="11.199961364308782"><ele>880.0</ele><time>2026-04-08T14:35:43Z</time></trkpt><trkpt lat="45.72305383357999" lon="11.200037383214593"><ele>875.8333333333333</ele><time>2026-04-08T14:35:45Z</time></trkpt><trkpt lat="45.722969444704376" lon="11.200125333659573"><ele>871.6666666666666</ele><time>2026-04-08T14:35:47Z</time></trkpt><trkpt lat="45.72291216815325" lon="11.200229746837762"><ele>867.5</ele><time>2026-04-08T14:35:49Z</time></trkpt><trkpt lat="45.7228687714581" lon="11.200319234589843"><ele>863.3333333333333</ele><time>2026-04-08T14:35:51Z</time></trkpt><trkpt lat="45.722797011143705" lon="11.2003849895139"><ele>859.1666666666666</ele><time>2026-04-08T14:35:53Z</time></trkpt><trkpt lat="45.72278393314665" lon="11.200484408308172"><ele>855.0</ele><time>2026-04-08T14:35:55Z</time></trkpt><trkpt lat="45.722792584290126" lon="11.200612613178269"><ele>851.0</ele><time>2026-04-08T14:35:57Z</time></trkpt><trkpt lat="45.72280875643205" lon="11.200736173843381"><ele>847.0</ele><time>2026-04-08T14:35:59Z</time></trkpt><trkpt lat="45.72281057892412" lon="11.200860335292486"><ele>843.0</ele><time>2026-04-08T14:36:01Z</time></trkpt><trkpt lat="45.72280378951064" lon="11.200951901317996"><ele>839.0</ele><time>2026-04-08T14:36:03Z</time></trkpt><trkpt lat="45.722865953175145" lon="11.200863712375492"><ele>835.0</ele><time>2026-04-08T14:36:06Z</time></trkpt><trkpt lat="45.722877619129754" lon="11.200766034888602"><ele>831.0</ele><time>2026-04-08T14:36:08Z</time></trkpt><trkpt lat="45.72293027206524" lon="11.200701154487865"><ele>835.0</ele><time>2026-04-08T14:36:11Z</time></trkpt><trkpt lat="45.7229629724367" lon="11.200613966358697"><ele>839.0</ele><time>2026-04-08T14:36:14Z</time></trkpt><trkpt lat="45.72303318847576" lon="11.200502543773451"><ele>843.0</ele><time>2026-04-08T14:36:23Z</time></trkpt><trkpt lat="45.72308615423471" lon="11.200425812116384"><ele>847.0</ele><time>2026-04-08T14:36:25Z</time></trkpt><trkpt lat="45.72315025817931" lon="11.200313321265718"><ele>851.0</ele><time>2026-04-08T14:36:36Z</time></trkpt><trkpt lat="45.72320996160213" lon="11.200254456637078"><ele>855.0</ele><time>2026-04-08T14:36:37Z</time></trkpt><trkpt lat="45.7232699262243" lon="11.200217149134792"><ele>855.0</ele><time>2026-04-08T14:36:38Z</time></trkpt><trkpt lat="45.723319667454184" lon="11.200149654344985"><ele>855.0</ele><time>2026-04-08T14:36:39Z</time></trkpt><trkpt lat="45.723377865889496" lon="11.200095412886526"><ele>855.0</ele><time>2026-04-08T14:36:40Z</time></trkpt><trkpt lat="45.723437297836824" lon="11.200040009925289"><ele>855.0</ele><time>2026-04-08T14:36:41Z</time></trkpt><trkpt lat="45.72350114800382" lon="11.199976794925098"><ele>855.0</ele><time>2026-04-08T14:36:42Z</time></trkpt><trkpt lat="45.72354523909471" lon="11.199908086135581"><ele>855.0</ele><time>2026-04-08T14:36:43Z</time></trkpt><trkpt lat="45.72360078018155" lon="11.199858000744022"><ele>855.0</ele><time>2026-04-08T14:36:44Z</time></trkpt><trkpt lat="45.72369579308353" lon="11.199796788430254"><ele>852.6</ele><time>2026-04-08T14:36:46Z</time></trkpt><trkpt lat="45.723776139835486" lon="11.199783828274985"><ele>850.2</ele><time>2026-04-08T14:36:48Z</time></trkpt><trkpt lat="45.72384226764374" lon="11.199861848405396"><ele>847.8</ele><time>2026-04-08T14:36:50Z</time></trkpt><trkpt lat="45.72395426221674" lon="11.199827309570296"><ele>845.4</ele><time>2026-04-08T14:36:52Z</time></trkpt><trkpt lat="45.72401038873625" lon="11.199760950541766"><ele>843.0</ele><time>2026-04-08T14:36:53Z</time></trkpt><trkpt lat="45.72405867659853" lon="11.199592613702952"><ele>843.0</ele><time>2026-04-08T14:36:55Z</time></trkpt><trkpt lat="45.72411664165628" lon="11.199439432793348"><ele>843.0</ele><time>2026-04-08T14:36:57Z</time></trkpt><trkpt lat="45.724217973438556" lon="11.199331826037929"><ele>843.0</ele><time>2026-04-08T14:36:59Z</time></trkpt><trkpt lat="45.7242736332593" lon="11.199280846060475"><ele>843.0</ele><time>2026-04-08T14:37:00Z</time></trkpt><trkpt lat="45.72436745992872" lon="11.199204316095075"><ele>843.0</ele><time>2026-04-08T14:37:02Z</time></trkpt><trkpt lat="45.72445106999338" lon="11.199147407350253"><ele>841.3333333333334</ele><time>2026-04-08T14:37:04Z</time></trkpt><trkpt lat="45.724543491987134" lon="11.199103378711817"><ele>839.6666666666667</ele><time>2026-04-08T14:37:07Z</time></trkpt><trkpt lat="45.72460639167609" lon="11.199086031218227"><ele>838.0</ele><time>2026-04-08T14:37:08Z</time></trkpt><trkpt lat="45.724668399608845" lon="11.199057271729517"><ele>836.3333333333334</ele><time>2026-04-08T14:37:09Z</time></trkpt><trkpt lat="45.72478252517991" lon="11.199037845222882"><ele>834.6666666666667</ele><time>2026-04-08T14:37:11Z</time></trkpt><trkpt lat="45.724850333582694" lon="11.19904886984074"><ele>833.0</ele><time>2026-04-08T14:37:12Z</time></trkpt><trkpt lat="45.72496625588246" lon="11.199040698566437"><ele>833.0</ele><time>2026-04-08T14:37:14Z</time></trkpt><trkpt lat="45.72506239729616" lon="11.19902532584931"><ele>833.0</ele><time>2026-04-08T14:37:16Z</time></trkpt><trkpt lat="45.72515201257917" lon="11.199080906279383"><ele>833.0</ele><time>2026-04-08T14:37:18Z</time></trkpt><trkpt lat="45.725104143697365" lon="11.199225167572258"><ele>833.0</ele><time>2026-04-08T14:37:20Z</time></trkpt><trkpt lat="45.725038330862574" lon="11.19925885314929"><ele>833.0</ele><time>2026-04-08T14:37:21Z</time></trkpt><trkpt lat="45.72497139549386" lon="11.199408614090144"><ele>833.0000000000001</ele><time>2026-04-08T14:37:23Z</time></trkpt><trkpt lat="45.72490311647807" lon="11.199552361682247"><ele>833.0</ele><time>2026-04-08T14:37:25Z</time></trkpt><trkpt lat="45.7248507230187" lon="11.199628731445681"><ele>833.0</ele><time>2026-04-08T14:37:26Z</time></trkpt><trkpt lat="45.724810410485404" lon="11.199719511294177"><ele>833.0</ele><time>2026-04-08T14:37:27Z</time></trkpt><trkpt lat="45.724776420935704" lon="11.199805125810933"><ele>833.0000000000001</ele><time>2026-04-08T14:37:28Z</time></trkpt><trkpt lat="45.7247509654967" lon="11.199889289711601"><ele>833.0</ele><time>2026-04-08T14:37:29Z</time></trkpt><trkpt lat="45.724747283453794" lon="11.19998853941676"><ele>831.0000000000001</ele><time>2026-04-08T14:37:30Z</time></trkpt><trkpt lat="45.72474757334072" lon="11.200080634681175"><ele>829.0</ele><time>2026-04-08T14:37:31Z</time></trkpt><trkpt lat="45.72476354966062" lon="11.20018347903737"><ele>827.0</ele><time>2026-04-08T14:37:32Z</time></trkpt><trkpt lat="45.72477454160889" lon="11.200288147985582"><ele>825.0</ele><time>2026-04-08T14:37:33Z</time></trkpt><trkpt lat="45.72478260966519" lon="11.200384901023822"><ele>823.0000000000001</ele><time>2026-04-08T14:37:34Z</time></trkpt><trkpt lat="45.7247426240077" lon="11.200554362492591"><ele>821.0</ele><time>2026-04-08T14:37:36Z</time></trkpt><trkpt lat="45.72471324412635" lon="11.200651112546288"><ele>818.5000000000001</ele><time>2026-04-08T14:37:37Z</time></trkpt><trkpt lat="45.72470658375107" lon="11.200763628601385"><ele>816.0</ele><time>2026-04-08T14:37:38Z</time></trkpt><trkpt lat="45.72469147846409" lon="11.200883355940906"><ele>813.5</ele><time>2026-04-08T14:37:39Z</time></trkpt><trkpt lat="45.72468833598031" lon="11.200993063168621"><ele>811.0</ele><time>2026-04-08T14:37:40Z</time></trkpt><trkpt lat="45.724654471330986" lon="11.2010849803056"><ele>808.5000000000001</ele><time>2026-04-08T14:37:41Z</time></trkpt><trkpt lat="45.7246474823366" lon="11.201186705393813"><ele>806.0</ele><time>2026-04-08T14:37:42Z</time></trkpt><trkpt lat="45.72462795483588" lon="11.201287023832117"><ele>806.0</ele><time>2026-04-08T14:37:43Z</time></trkpt><trkpt lat="45.72461471232583" lon="11.201429324031267"><ele>806.0</ele><time>2026-04-08T14:37:45Z</time></trkpt><trkpt lat="45.72460133093081" lon="11.201580036228933"><ele>806.0</ele><time>2026-04-08T14:37:47Z</time></trkpt><trkpt lat="45.7247616057077" lon="11.201969375184007"><ele>805.5000000000001</ele><time>2026-04-08T14:37:49Z</time></trkpt><trkpt lat="45.72484603099896" lon="11.202007725019413"><ele>805.0</ele><time>2026-04-08T14:37:51Z</time></trkpt><trkpt lat="45.72491263926702" lon="11.202005639786815"><ele>804.5</ele><time>2026-04-08T14:37:54Z</time></trkpt><trkpt lat="45.72483342007087" lon="11.20201056027773"><ele>804.0</ele><time>2026-04-08T14:37:56Z</time></trkpt><trkpt lat="45.724741331803834" lon="11.201970022658728"><ele>803.5000000000001</ele><time>2026-04-08T14:37:58Z</time></trkpt><trkpt lat="45.7246593856206" lon="11.201961879534126"><ele>803.0</ele><time>2026-04-08T14:38:00Z</time></trkpt><trkpt lat="45.72457802463278" lon="11.201920771801728"><ele>803.0000000000001</ele><time>2026-04-08T14:38:02Z</time></trkpt><trkpt lat="45.72454314646584" lon="11.201841075077885"><ele>803.0</ele><time>2026-04-08T14:38:04Z</time></trkpt><trkpt lat="45.72451764603384" lon="11.20194176508708"><ele>803.0</ele><time>2026-04-08T14:38:16Z</time></trkpt><trkpt lat="45.72456789600196" lon="11.202092327627478"><ele>803.0</ele><time>2026-04-08T14:38:18Z</time></trkpt><trkpt lat="45.724518157222924" lon="11.202177443069992"><ele>803.0000000000001</ele><time>2026-04-08T14:38:19Z</time></trkpt><trkpt lat="45.72451735650964" lon="11.202273926913419"><ele>803.0</ele><time>2026-04-08T14:38:20Z</time></trkpt><trkpt lat="45.724522261523525" lon="11.20236799773067"><ele>800.1666666666667</ele><time>2026-04-08T14:38:21Z</time></trkpt><trkpt lat="45.724532154548086" lon="11.202473977353282"><ele>797.3333333333334</ele><time>2026-04-08T14:38:22Z</time></trkpt><trkpt lat="45.72452784196187" lon="11.202660692204796"><ele>794.5</ele><time>2026-04-08T14:38:24Z</time></trkpt><trkpt lat="45.72451489167616" lon="11.202753512819527"><ele>791.6666666666667</ele><time>2026-04-08T14:38:25Z</time></trkpt><trkpt lat="45.724496077466426" lon="11.202871697447723"><ele>788.8333333333334</ele><time>2026-04-08T14:38:26Z</time></trkpt><trkpt lat="45.724485479562816" lon="11.20296993639938"><ele>786.0</ele><time>2026-04-08T14:38:27Z</time></trkpt><trkpt lat="45.72447412674067" lon="11.203069366388805"><ele>784.1999999999999</ele><time>2026-04-08T14:38:28Z</time></trkpt><trkpt lat="45.724424584838225" lon="11.203228532301038"><ele>782.4</ele><time>2026-04-08T14:38:30Z</time></trkpt><trkpt lat="45.72439038491962" lon="11.203317816907376"><ele>780.6</ele><time>2026-04-08T14:38:31Z</time></trkpt><trkpt lat="45.72435436688584" lon="11.203423222048151"><ele>778.8</ele><time>2026-04-08T14:38:32Z</time></trkpt><trkpt lat="45.724327097469754" lon="11.203596706325444"><ele>777.0</ele><time>2026-04-08T14:38:34Z</time></trkpt><trkpt lat="45.72432435717185" lon="11.203718220230481"><ele>774.5</ele><time>2026-04-08T14:38:35Z</time></trkpt><trkpt lat="45.72435298859879" lon="11.203840129516898"><ele>772.0</ele><time>2026-04-08T14:38:36Z</time></trkpt><trkpt lat="45.72437368491677" lon="11.203939407077572"><ele>769.5</ele><time>2026-04-08T14:38:37Z</time></trkpt><trkpt lat="45.72439060895822" lon="11.204064801356708"><ele>767.0</ele><time>2026-04-08T14:38:38Z</time></trkpt><trkpt lat="45.72439367422962" lon="11.204160070417371"><ele>764.5</ele><time>2026-04-08T14:38:39Z</time></trkpt><trkpt lat="45.72438561043455" lon="11.204293739809517"><ele>762.0</ele><time>2026-04-08T14:38:41Z</time></trkpt><trkpt lat="45.72436531100086" lon="11.204429788870003"><ele>759.6</ele><time>2026-04-08T14:38:43Z</time></trkpt><trkpt lat="45.72433300840916" lon="11.204594014202373"><ele>757.2</ele><time>2026-04-08T14:38:45Z</time></trkpt><trkpt lat="45.724305782878105" lon="11.204725223603782"><ele>754.8</ele><time>2026-04-08T14:38:46Z</time></trkpt><trkpt lat="45.72428180411526" lon="11.204830635003123"><ele>752.4</ele><time>2026-04-08T14:38:47Z</time></trkpt><trkpt lat="45.72423700471674" lon="11.204949477369489"><ele>750.0</ele><time>2026-04-08T14:38:48Z</time></trkpt><trkpt lat="45.724198917237196" lon="11.205082052420115"><ele>750.4</ele><time>2026-04-08T14:38:50Z</time></trkpt><trkpt lat="45.724215935213884" lon="11.205234644068126"><ele>750.8</ele><time>2026-04-08T14:38:52Z</time></trkpt><trkpt lat="45.724264377485056" lon="11.20537698113852"><ele>751.2</ele><time>2026-04-08T14:38:54Z</time></trkpt><trkpt lat="45.724311988067626" lon="11.205499417912389"><ele>751.6</ele><time>2026-04-08T14:38:56Z</time></trkpt><trkpt lat="45.72435755856616" lon="11.205616608326794"><ele>752.0</ele><time>2026-04-08T14:38:58Z</time></trkpt><trkpt lat="45.72440754897965" lon="11.205745164701117"><ele>752.0</ele><time>2026-04-08T14:39:00Z</time></trkpt><trkpt lat="45.72443329787784" lon="11.205836612804546"><ele>752.0</ele><time>2026-04-08T14:39:19Z</time></trkpt><trkpt lat="45.72432603915295" lon="11.205723164981611"><ele>752.0</ele><time>2026-04-08T14:39:23Z</time></trkpt><trkpt lat="45.72428672264524" lon="11.205649407045088"><ele>752.0</ele><time>2026-04-08T14:39:24Z</time></trkpt><trkpt lat="45.72424226731316" lon="11.205525319225067"><ele>752.0</ele><time>2026-04-08T14:39:26Z</time></trkpt><trkpt lat="45.724185594461915" lon="11.20542454752067"><ele>749.6</ele><time>2026-04-08T14:39:28Z</time></trkpt><trkpt lat="45.72410615847859" lon="11.205388252627463"><ele>747.2</ele><time>2026-04-08T14:39:30Z</time></trkpt><trkpt lat="45.724030684000226" lon="11.205402230739763"><ele>744.8</ele><time>2026-04-08T14:39:31Z</time></trkpt><trkpt lat="45.7239580806116" lon="11.205476106623308"><ele>742.4</ele><time>2026-04-08T14:39:32Z</time></trkpt><trkpt lat="45.72403716955146" lon="11.205671547379586"><ele>740.0</ele><time>2026-04-08T14:39:33Z</time></trkpt><trkpt lat="45.723993470385125" lon="11.205784516234228"><ele>737.3333333333333</ele><time>2026-04-08T14:39:35Z</time></trkpt><trkpt lat="45.723941945393726" lon="11.205875688481655"><ele>734.6666666666666</ele><time>2026-04-08T14:39:38Z</time></trkpt><trkpt lat="45.72389742222967" lon="11.20594626243689"><ele>732.0</ele><time>2026-04-08T14:39:40Z</time></trkpt><trkpt lat="45.723812570190624" lon="11.205946252519338"><ele>729.3333333333334</ele><time>2026-04-08T14:39:42Z</time></trkpt><trkpt lat="45.72374197523628" lon="11.20585803159007"><ele>726.6666666666667</ele><time>2026-04-08T14:39:44Z</time></trkpt><trkpt lat="45.7236628084129" lon="11.2057684215063"><ele>724.0</ele><time>2026-04-08T14:39:46Z</time></trkpt><trkpt lat="45.72358331894806" lon="11.205693198675894"><ele>734.75</ele><time>2026-04-08T14:39:49Z</time></trkpt><trkpt lat="45.723465052434186" lon="11.205632905055312"><ele>745.5</ele><time>2026-04-08T14:39:51Z</time></trkpt><trkpt lat="45.72333696269145" lon="11.205594039620147"><ele>756.25</ele><time>2026-04-08T14:39:53Z</time></trkpt><trkpt lat="45.723239823798984" lon="11.205566788410065"><ele>767.0</ele><time>2026-04-08T14:39:55Z</time></trkpt><trkpt lat="45.72311375700944" lon="11.20557861577026"><ele>767.0</ele><time>2026-04-08T14:39:57Z</time></trkpt><trkpt lat="45.723059553825635" lon="11.205627560505402"><ele>767.0</ele><time>2026-04-08T14:39:58Z</time></trkpt><trkpt lat="45.722991284921385" lon="11.205627597795887"><ele>767.0</ele><time>2026-04-08T14:39:59Z</time></trkpt><trkpt lat="45.72292704194569" lon="11.205684375054686"><ele>767.0</ele><time>2026-04-08T14:40:00Z</time></trkpt><trkpt lat="45.72286338832351" lon="11.205729792685224"><ele>767.0</ele><time>2026-04-08T14:40:01Z</time></trkpt><trkpt lat="45.72279991319627" lon="11.205780448415162"><ele>767.0</ele><time>2026-04-08T14:40:02Z</time></trkpt><trkpt lat="45.72273747995384" lon="11.205824960575072"><ele>767.0</ele><time>2026-04-08T14:40:03Z</time></trkpt><trkpt lat="45.722651035911724" lon="11.205882639609353"><ele>764.6</ele><time>2026-04-08T14:40:05Z</time></trkpt><trkpt lat="45.72255974977822" lon="11.205959004968788"><ele>762.2</ele><time>2026-04-08T14:40:07Z</time></trkpt><trkpt lat="45.7224684284732" lon="11.205996695026514"><ele>759.8</ele><time>2026-04-08T14:40:09Z</time></trkpt><trkpt lat="45.72238335000471" lon="11.206002094316199"><ele>757.4</ele><time>2026-04-08T14:40:11Z</time></trkpt><trkpt lat="45.72226646663266" lon="11.206001855858677"><ele>755.0</ele><time>2026-04-08T14:40:13Z</time></trkpt><trkpt lat="45.722198250382675" lon="11.206001755811984"><ele>755.0</ele><time>2026-04-08T14:40:14Z</time></trkpt><trkpt lat="45.72212665978123" lon="11.206005389906267"><ele>755.0</ele><time>2026-04-08T14:40:15Z</time></trkpt><trkpt lat="45.72205695882728" lon="11.205997661587418"><ele>755.0</ele><time>2026-04-08T14:40:17Z</time></trkpt><trkpt lat="45.72198220810606" lon="11.20598049346264"><ele>755.0</ele><time>2026-04-08T14:40:19Z</time></trkpt><trkpt lat="45.7219218617811" lon="11.20591973688481"><ele>755.0</ele><time>2026-04-08T14:40:22Z</time></trkpt><trkpt lat="45.72186788377243" lon="11.20586193970144"><ele>755.0</ele><time>2026-04-08T14:40:24Z</time></trkpt><trkpt lat="45.72192012617502" lon="11.205917679373016"><ele>755.0</ele><time>2026-04-08T14:40:43Z</time></trkpt><trkpt lat="45.72198638150414" lon="11.205975757220854"><ele>755.0</ele><time>2026-04-08T14:40:45Z</time></trkpt><trkpt lat="45.722052806528914" lon="11.206004200383413"><ele>755.0</ele><time>2026-04-08T14:40:46Z</time></trkpt><trkpt lat="45.72212434539987" lon="11.206024304715699"><ele>755.0</ele><time>2026-04-08T14:40:47Z</time></trkpt><trkpt lat="45.7221920994784" lon="11.206021792382858"><ele>755.0</ele><time>2026-04-08T14:40:48Z</time></trkpt><trkpt lat="45.722259374340005" lon="11.20600113160466"><ele>755.0</ele><time>2026-04-08T14:40:49Z</time></trkpt><trkpt lat="45.72232408363588" lon="11.206000470784645"><ele>755.0</ele><time>2026-04-08T14:40:50Z</time></trkpt><trkpt lat="45.72239432615714" lon="11.206003298704184"><ele>755.0</ele><time>2026-04-08T14:40:51Z</time></trkpt><trkpt lat="45.72249075531679" lon="11.20602202915913"><ele>755.0</ele><time>2026-04-08T14:40:53Z</time></trkpt><trkpt lat="45.7225972454659" lon="11.20596483456957"><ele>755.0</ele><time>2026-04-08T14:40:55Z</time></trkpt><trkpt lat="45.72266821952654" lon="11.205907490245783"><ele>755.0</ele><time>2026-04-08T14:40:57Z</time></trkpt><trkpt lat="45.722752477115534" lon="11.20582740718197"><ele>755.0</ele><time>2026-04-08T14:40:59Z</time></trkpt><trkpt lat="45.72279608088824" lon="11.205756415072099"><ele>755.0</ele><time>2026-04-08T14:41:00Z</time></trkpt><trkpt lat="45.72289735852557" lon="11.205688157646597"><ele>757.4</ele><time>2026-04-08T14:41:02Z</time></trkpt><trkpt lat="45.72298734809256" lon="11.205658137813968"><ele>759.8</ele><time>2026-04-08T14:41:04Z</time></trkpt><trkpt lat="45.723108894517296" lon="11.205609113226238"><ele>762.2</ele><time>2026-04-08T14:41:06Z</time></trkpt><trkpt lat="45.723174235363494" lon="11.205537031946669"><ele>764.6</ele><time>2026-04-08T14:41:08Z</time></trkpt><trkpt lat="45.72330203499107" lon="11.205558548362934"><ele>767.0</ele><time>2026-04-08T14:41:10Z</time></trkpt><trkpt lat="45.72338908815666" lon="11.205600539969803"><ele>767.0</ele><time>2026-04-08T14:41:12Z</time></trkpt><trkpt lat="45.72347018277635" lon="11.205621409184399"><ele>767.0</ele><time>2026-04-08T14:41:14Z</time></trkpt><trkpt lat="45.72357973103108" lon="11.205666981186775"><ele>767.0</ele><time>2026-04-08T14:41:16Z</time></trkpt><trkpt lat="45.72367956018372" lon="11.205719245686039"><ele>767.0</ele><time>2026-04-08T14:41:18Z</time></trkpt><trkpt lat="45.723749265312875" lon="11.205758808467301"><ele>767.0</ele><time>2026-04-08T14:41:19Z</time></trkpt><trkpt lat="45.72381929545951" lon="11.205848347647011"><ele>761.6</ele><time>2026-04-08T14:41:21Z</time></trkpt><trkpt lat="45.72389705133488" lon="11.205858426624154"><ele>756.2</ele><time>2026-04-08T14:41:23Z</time></trkpt><trkpt lat="45.72397141171487" lon="11.205797894931235"><ele>750.8</ele><time>2026-04-08T14:41:25Z</time></trkpt><trkpt lat="45.72398319620572" lon="11.205701014977166"><ele>745.4</ele><time>2026-04-08T14:41:27Z</time></trkpt><trkpt lat="45.72402384293814" lon="11.205578381312668"><ele>740.0</ele><time>2026-04-08T14:41:29Z</time></trkpt><trkpt lat="45.72412225576207" lon="11.205466866804796"><ele>740.0</ele><time>2026-04-08T14:41:31Z</time></trkpt><trkpt lat="45.72421634527673" lon="11.205504765817619"><ele>740.0</ele><time>2026-04-08T14:41:34Z</time></trkpt><trkpt lat="45.7242850145099" lon="11.205589389532824"><ele>740.0</ele><time>2026-04-08T14:41:36Z</time></trkpt><trkpt lat="45.72431562597119" lon="11.205722518330909"><ele>740.0</ele><time>2026-04-08T14:41:38Z</time></trkpt><trkpt lat="45.72438608450387" lon="11.205818404128204"><ele>740.0</ele><time>2026-04-08T14:41:40Z</time></trkpt><trkpt lat="45.72448881882702" lon="11.205890945152225"><ele>742.0</ele><time>2026-04-08T14:41:42Z</time></trkpt><trkpt lat="45.72447344868437" lon="11.206058568412196"><ele>744.0</ele><time>2026-04-08T14:41:44Z</time></trkpt><trkpt lat="45.724458802403134" lon="11.206148897205745"><ele>746.0</ele><time>2026-04-08T14:41:45Z</time></trkpt><trkpt lat="45.72444657801154" lon="11.206258549899756"><ele>748.0</ele><time>2026-04-08T14:41:46Z</time></trkpt><trkpt lat="45.72443383972404" lon="11.20637228359914"><ele>750.0</ele><time>2026-04-08T14:41:47Z</time></trkpt><trkpt lat="45.724422147591135" lon="11.206465784498722"><ele>752.0</ele><time>2026-04-08T14:41:48Z</time></trkpt><trkpt lat="45.72442231671849" lon="11.206559974747208"><ele>753.2</ele><time>2026-04-08T14:41:49Z</time></trkpt><trkpt lat="45.72441207612859" lon="11.206650614389781"><ele>754.4000000000001</ele><time>2026-04-08T14:41:50Z</time></trkpt><trkpt lat="45.72434691682095" lon="11.206778176101013"><ele>755.5999999999999</ele><time>2026-04-08T14:41:52Z</time></trkpt><trkpt lat="45.724226221268474" lon="11.206860359217357"><ele>756.8</ele><time>2026-04-08T14:41:54Z</time></trkpt><trkpt lat="45.72413621096297" lon="11.206929374283947"><ele>758.0</ele><time>2026-04-08T14:41:55Z</time></trkpt><trkpt lat="45.72404695618718" lon="11.20699813708548"><ele>753.5999999999999</ele><time>2026-04-08T14:41:56Z</time></trkpt><trkpt lat="45.72395997009145" lon="11.207073361848751"><ele>749.1999999999999</ele><time>2026-04-08T14:41:57Z</time></trkpt><trkpt lat="45.723879022290674" lon="11.207145879856276"><ele>744.8</ele><time>2026-04-08T14:41:58Z</time></trkpt><trkpt lat="45.72381269632704" lon="11.207210693186058"><ele>740.4</ele><time>2026-04-08T14:41:59Z</time></trkpt><trkpt lat="45.72373693448189" lon="11.207336214748679"><ele>736.0</ele><time>2026-04-08T14:42:01Z</time></trkpt><trkpt lat="45.723725298749535" lon="11.207481829915091"><ele>736.0</ele><time>2026-04-08T14:42:03Z</time></trkpt><trkpt lat="45.72375072919222" lon="11.207618695544435"><ele>736.0</ele><time>2026-04-08T14:42:05Z</time></trkpt><trkpt lat="45.72385248806127" lon="11.207755874666297"><ele>736.0</ele><time>2026-04-08T14:42:07Z</time></trkpt><trkpt lat="45.723938667011694" lon="11.207787739667168"><ele>736.0</ele><time>2026-04-08T14:42:08Z</time></trkpt><trkpt lat="45.72400294535086" lon="11.207844988826473"><ele>736.0</ele><time>2026-04-08T14:42:09Z</time></trkpt><trkpt lat="45.724099158839394" lon="11.207904767168957"><ele>736.0</ele><time>2026-04-08T14:42:11Z</time></trkpt><trkpt lat="45.72410315363701" lon="11.208005816356756"><ele>736.0</ele><time>2026-04-08T14:42:13Z</time></trkpt><trkpt lat="45.72401194590279" lon="11.208075470561784"><ele>736.0</ele><time>2026-04-08T14:42:16Z</time></trkpt><trkpt lat="45.72388774619625" lon="11.20816353495215"><ele>736.0</ele><time>2026-04-08T14:42:18Z</time></trkpt><trkpt lat="45.72380930195654" lon="11.208217386955361"><ele>736.0</ele><time>2026-04-08T14:42:19Z</time></trkpt><trkpt lat="45.72372161485009" lon="11.208280613212446"><ele>737.5</ele><time>2026-04-08T14:42:20Z</time></trkpt><trkpt lat="45.723653877969625" lon="11.208331135393289"><ele>739.0</ele><time>2026-04-08T14:42:21Z</time></trkpt><trkpt lat="45.72359222690297" lon="11.208444595699818"><ele>740.5</ele><time>2026-04-08T14:42:23Z</time></trkpt><trkpt lat="45.723589195729076" lon="11.208591328649751"><ele>742.0</ele><time>2026-04-08T14:42:25Z</time></trkpt><trkpt lat="45.72359015711745" lon="11.208718323868883"><ele>743.5</ele><time>2026-04-08T14:42:26Z</time></trkpt><trkpt lat="45.72358146439075" lon="11.208811024313201"><ele>745.0</ele><time>2026-04-08T14:42:27Z</time></trkpt><trkpt lat="45.72354516684119" lon="11.208905107404405"><ele>748.0</ele><time>2026-04-08T14:42:28Z</time></trkpt><trkpt lat="45.72358560784342" lon="11.209074276622447"><ele>751.0</ele><time>2026-04-08T14:42:30Z</time></trkpt><trkpt lat="45.7236228031998" lon="11.209192379088176"><ele>754.0</ele><time>2026-04-08T14:42:32Z</time></trkpt><trkpt lat="45.723600462149676" lon="11.20928041114753"><ele>757.0</ele><time>2026-04-08T14:42:35Z</time></trkpt><trkpt lat="45.72349260691598" lon="11.20926903486508"><ele>760.0</ele><time>2026-04-08T14:42:37Z</time></trkpt><trkpt lat="45.723424312463635" lon="11.209265071954352"><ele>752.4</ele><time>2026-04-08T14:42:38Z</time></trkpt><trkpt lat="45.72331335408872" lon="11.209329998692645"><ele>744.8</ele><time>2026-04-08T14:42:40Z</time></trkpt><trkpt lat="45.72325098549141" lon="11.20939787946905"><ele>737.2</ele><time>2026-04-08T14:42:42Z</time></trkpt><trkpt lat="45.72318189743783" lon="11.209516817911751"><ele>729.6</ele><time>2026-04-08T14:42:44Z</time></trkpt><trkpt lat="45.7231171140043" lon="11.209631629065015"><ele>722.0</ele><time>2026-04-08T14:42:46Z</time></trkpt><trkpt lat="45.72303047256784" lon="11.209723379270514"><ele>722.0</ele><time>2026-04-08T14:42:48Z</time></trkpt><trkpt lat="45.722974295901004" lon="11.209781375646298"><ele>722.0</ele><time>2026-04-08T14:42:49Z</time></trkpt><trkpt lat="45.7229059836255" lon="11.209891414284437"><ele>722.0</ele><time>2026-04-08T14:42:51Z</time></trkpt><trkpt lat="45.722828925348225" lon="11.209994415025648"><ele>722.0</ele><time>2026-04-08T14:42:53Z</time></trkpt><trkpt lat="45.722815063024434" lon="11.210139931899782"><ele>722.0</ele><time>2026-04-08T14:42:55Z</time></trkpt><trkpt lat="45.72284043907355" lon="11.210285930057921"><ele>719.2</ele><time>2026-04-08T14:42:57Z</time></trkpt><trkpt lat="45.72280303722595" lon="11.21039726662029"><ele>716.4000000000001</ele><time>2026-04-08T14:42:59Z</time></trkpt><trkpt lat="45.722697628214775" lon="11.210432236094805"><ele>713.5999999999999</ele><time>2026-04-08T14:43:01Z</time></trkpt><trkpt lat="45.7225659580063" lon="11.210441997142174"><ele>710.8</ele><time>2026-04-08T14:43:03Z</time></trkpt><trkpt lat="45.72249169981562" lon="11.210461092745579"><ele>708.0</ele><time>2026-04-08T14:43:04Z</time></trkpt><trkpt lat="45.722429052325204" lon="11.21047894744327"><ele>708.0</ele><time>2026-04-08T14:43:05Z</time></trkpt><trkpt lat="45.72233688391293" lon="11.210529387493875"><ele>708.0</ele><time>2026-04-08T14:43:07Z</time></trkpt><trkpt lat="45.7222523231759" lon="11.210600103279555"><ele>708.0</ele><time>2026-04-08T14:43:09Z</time></trkpt><trkpt lat="45.722193080747886" lon="11.210716060010796"><ele>708.0</ele><time>2026-04-08T14:43:11Z</time></trkpt><trkpt lat="45.72221405748013" lon="11.210881543526865"><ele>708.0</ele><time>2026-04-08T14:43:13Z</time></trkpt><trkpt lat="45.722289923243174" lon="11.211030710447352"><ele>711.4</ele><time>2026-04-08T14:43:15Z</time></trkpt><trkpt lat="45.722330501597476" lon="11.211110980437613"><ele>714.8</ele><time>2026-04-08T14:43:16Z</time></trkpt><trkpt lat="45.72237325221468" lon="11.21122281902517"><ele>718.2</ele><time>2026-04-08T14:43:18Z</time></trkpt><trkpt lat="45.72239094625841" lon="11.211355495948128"><ele>721.6</ele><time>2026-04-08T14:43:20Z</time></trkpt><trkpt lat="45.722405878972715" lon="11.211527130830504"><ele>725.0</ele><time>2026-04-08T14:43:22Z</time></trkpt><trkpt lat="45.72236977351475" lon="11.211690498706027"><ele>727.2</ele><time>2026-04-08T14:43:24Z</time></trkpt><trkpt lat="45.72233434317687" lon="11.21179883015802"><ele>729.4</ele><time>2026-04-08T14:43:25Z</time></trkpt><trkpt lat="45.722277488248956" lon="11.211896090483839"><ele>731.5999999999999</ele><time>2026-04-08T14:43:26Z</time></trkpt><trkpt lat="45.722222789733294" lon="11.212020554141354"><ele>733.8</ele><time>2026-04-08T14:43:27Z</time></trkpt><trkpt lat="45.72218200204624" lon="11.212139034629285"><ele>736.0</ele><time>2026-04-08T14:43:28Z</time></trkpt><trkpt lat="45.7221208727388" lon="11.212268904925008"><ele>733.0</ele><time>2026-04-08T14:43:30Z</time></trkpt><trkpt lat="45.722170474947966" lon="11.212426397989178"><ele>730.0</ele><time>2026-04-08T14:43:32Z</time></trkpt><trkpt lat="45.72226606149186" lon="11.212425271603527"><ele>727.0</ele><time>2026-04-08T14:43:33Z</time></trkpt><trkpt lat="45.72235022620483" lon="11.21252774603429"><ele>724.0</ele><time>2026-04-08T14:43:35Z</time></trkpt><trkpt lat="45.722451047803986" lon="11.212638661208185"><ele>724.0</ele><time>2026-04-08T14:43:37Z</time></trkpt><trkpt lat="45.722540273515975" lon="11.21268808719405"><ele>724.0</ele><time>2026-04-08T14:43:38Z</time></trkpt><trkpt lat="45.722606900814775" lon="11.212723039424239"><ele>724.0</ele><time>2026-04-08T14:43:39Z</time></trkpt><trkpt lat="45.72270194536343" lon="11.212785524559095"><ele>724.0</ele><time>2026-04-08T14:43:41Z</time></trkpt><trkpt lat="45.72275538416295" lon="11.212836935428871"><ele>724.0</ele><time>2026-04-08T14:43:42Z</time></trkpt><trkpt lat="45.722809270555835" lon="11.21291858215484"><ele>724.0</ele><time>2026-04-08T14:43:43Z</time></trkpt><trkpt lat="45.72284821477514" lon="11.212991126904662"><ele>727.3333333333334</ele><time>2026-04-08T14:43:44Z</time></trkpt><trkpt lat="45.72287743130785" lon="11.213074552370832"><ele>730.6666666666667</ele><time>2026-04-08T14:43:45Z</time></trkpt><trkpt lat="45.72290266461277" lon="11.213175175458188"><ele>734.0</ele><time>2026-04-08T14:43:46Z</time></trkpt><trkpt lat="45.722906883961045" lon="11.213288207688063"><ele>737.3333333333334</ele><time>2026-04-08T14:43:47Z</time></trkpt><trkpt lat="45.722937991741226" lon="11.213443580507182"><ele>740.6666666666666</ele><time>2026-04-08T14:43:49Z</time></trkpt><trkpt lat="45.72295799109015" lon="11.213535400747164"><ele>744.0</ele><time>2026-04-08T14:43:50Z</time></trkpt><trkpt lat="45.722958525112034" lon="11.213724549901524"><ele>744.0</ele><time>2026-04-08T14:43:52Z</time></trkpt><trkpt lat="45.72292685856188" lon="11.213899431434749"><ele>744.0</ele><time>2026-04-08T14:43:54Z</time></trkpt><trkpt lat="45.722917023334475" lon="11.214008081562843"><ele>744.0</ele><time>2026-04-08T14:43:55Z</time></trkpt><trkpt lat="45.72290530364164" lon="11.21416597473499"><ele>744.0</ele><time>2026-04-08T14:43:57Z</time></trkpt><trkpt lat="45.72286708762563" lon="11.214259700109352"><ele>744.0</ele><time>2026-04-08T14:44:01Z</time></trkpt><trkpt lat="45.72280753042274" lon="11.214365904744984"><ele>744.8333333333334</ele><time>2026-04-08T14:44:03Z</time></trkpt><trkpt lat="45.722742473753385" lon="11.214464425578093"><ele>745.6666666666666</ele><time>2026-04-08T14:44:05Z</time></trkpt><trkpt lat="45.72270850446175" lon="11.214554312127063"><ele>746.5</ele><time>2026-04-08T14:44:07Z</time></trkpt><trkpt lat="45.7226993499756" lon="11.214644433718833"><ele>747.3333333333333</ele><time>2026-04-08T14:44:09Z</time></trkpt><trkpt lat="45.722721262185445" lon="11.214766074145794"><ele>748.1666666666666</ele><time>2026-04-08T14:44:12Z</time></trkpt><trkpt lat="45.72278853669545" lon="11.214851879589348"><ele>749.0</ele><time>2026-04-08T14:44:14Z</time></trkpt><trkpt lat="45.72284202319256" lon="11.21492010108491"><ele>750.0</ele><time>2026-04-08T14:44:16Z</time></trkpt><trkpt lat="45.72289294767076" lon="11.215015842335522"><ele>751.0</ele><time>2026-04-08T14:44:19Z</time></trkpt><trkpt lat="45.722931980010515" lon="11.215127124599597"><ele>752.0</ele><time>2026-04-08T14:44:21Z</time></trkpt><trkpt lat="45.7229740691496" lon="11.215227789998023"><ele>753.0</ele><time>2026-04-08T14:44:55Z</time></trkpt><trkpt lat="45.723013071406235" lon="11.215328294981552"><ele>754.0</ele><time>2026-04-08T14:44:57Z</time></trkpt><trkpt lat="45.7229915556901" lon="11.21549182121193"><ele>755.0</ele><time>2026-04-08T14:44:59Z</time></trkpt><trkpt lat="45.72294286918029" lon="11.21558160741804"><ele>755.0</ele><time>2026-04-08T14:45:00Z</time></trkpt><trkpt lat="45.72290387906436" lon="11.215707344910944"><ele>755.0</ele><time>2026-04-08T14:45:02Z</time></trkpt><trkpt lat="45.722880544122376" lon="11.215795506451862"><ele>755.0</ele><time>2026-04-08T14:45:04Z</time></trkpt><trkpt lat="45.7228101956688" lon="11.215888315652379"><ele>755.0</ele><time>2026-04-08T14:45:06Z</time></trkpt><trkpt lat="45.72276142086473" lon="11.215964216269716"><ele>755.0</ele><time>2026-04-08T14:45:07Z</time></trkpt><trkpt lat="45.72270833826139" lon="11.21605460051359"><ele>755.0</ele><time>2026-04-08T14:45:08Z</time></trkpt><trkpt lat="45.72265093255024" lon="11.216201629042372"><ele>746.8</ele><time>2026-04-08T14:45:10Z</time></trkpt><trkpt lat="45.72262253862082" lon="11.216343396883671"><ele>738.6</ele><time>2026-04-08T14:45:12Z</time></trkpt><trkpt lat="45.72255972793894" lon="11.216497665810833"><ele>730.4000000000001</ele><time>2026-04-08T14:45:14Z</time></trkpt><trkpt lat="45.72251763921184" lon="11.216602887583225"><ele>722.2</ele><time>2026-04-08T14:45:16Z</time></trkpt><trkpt lat="45.722482785211966" lon="11.21668656585458"><ele>714.0</ele><time>2026-04-08T14:45:18Z</time></trkpt><trkpt lat="45.72241307684214" lon="11.216818881520542"><ele>714.0</ele><time>2026-04-08T14:45:20Z</time></trkpt><trkpt lat="45.72233832950314" lon="11.216918986497742"><ele>714.0</ele><time>2026-04-08T14:45:22Z</time></trkpt><trkpt lat="45.722258560028266" lon="11.21697486484257"><ele>714.0</ele><time>2026-04-08T14:45:24Z</time></trkpt><trkpt lat="45.72218893162261" lon="11.217038907044843"><ele>714.0</ele><time>2026-04-08T14:45:26Z</time></trkpt><trkpt lat="45.7221300238255" lon="11.217099386649279"><ele>714.0</ele><time>2026-04-08T14:45:28Z</time></trkpt><trkpt lat="45.72203499732393" lon="11.217183820567747"><ele>714.0</ele><time>2026-04-08T14:45:30Z</time></trkpt><trkpt lat="45.72195772711523" lon="11.217281446995331"><ele>714.0</ele><time>2026-04-08T14:45:32Z</time></trkpt><trkpt lat="45.72192002382523" lon="11.217439957903373"><ele>714.0</ele><time>2026-04-08T14:45:34Z</time></trkpt><trkpt lat="45.72191428116189" lon="11.217530631089227"><ele>714.0</ele><time>2026-04-08T14:45:35Z</time></trkpt><trkpt lat="45.72189645712627" lon="11.217618748395212"><ele>714.0</ele><time>2026-04-08T14:45:36Z</time></trkpt><trkpt lat="45.72187560088088" lon="11.217705556362965"><ele>714.0</ele><time>2026-04-08T14:45:37Z</time></trkpt><trkpt lat="45.72184334613305" lon="11.21778424554084"><ele>712.1666666666666</ele><time>2026-04-08T14:45:38Z</time></trkpt><trkpt lat="45.72177958665346" lon="11.217897080512767"><ele>710.3333333333334</ele><time>2026-04-08T14:45:40Z</time></trkpt><trkpt lat="45.72171431562013" lon="11.217991979829916"><ele>708.5</ele><time>2026-04-08T14:45:42Z</time></trkpt><trkpt lat="45.721639114130305" lon="11.21809382421259"><ele>706.6666666666667</ele><time>2026-04-08T14:45:44Z</time></trkpt><trkpt lat="45.72159198665918" lon="11.218166427505446"><ele>704.8333333333334</ele><time>2026-04-08T14:45:47Z</time></trkpt><trkpt lat="45.721640506658744" lon="11.21809187263012"><ele>703.0</ele><time>2026-04-08T14:45:59Z</time></trkpt><trkpt lat="45.72174097323628" lon="11.217975322070298"><ele>701.0</ele><time>2026-04-08T14:46:01Z</time></trkpt><trkpt lat="45.721813349235454" lon="11.21785328459911"><ele>699.0</ele><time>2026-04-08T14:46:02Z</time></trkpt><trkpt lat="45.7218859677086" lon="11.217759072576555"><ele>697.0</ele><time>2026-04-08T14:46:03Z</time></trkpt><trkpt lat="45.72193016807968" lon="11.217617038750697"><ele>695.0</ele><time>2026-04-08T14:46:04Z</time></trkpt><trkpt lat="45.72195042503816" lon="11.217487058297902"><ele>693.0</ele><time>2026-04-08T14:46:05Z</time></trkpt><trkpt lat="45.72193420158701" lon="11.217375628969489"><ele>698.25</ele><time>2026-04-08T14:46:06Z</time></trkpt><trkpt lat="45.72197413592432" lon="11.217220788967248"><ele>703.5</ele><time>2026-04-08T14:46:08Z</time></trkpt><trkpt lat="45.72198319057844" lon="11.217083312067437"><ele>708.75</ele><time>2026-04-08T14:46:10Z</time></trkpt><trkpt lat="45.72219946028556" lon="11.217041818174497"><ele>714.0</ele><time>2026-04-08T14:46:11Z</time></trkpt><trkpt lat="45.72226730937073" lon="11.216977878910736"><ele>714.0</ele><time>2026-04-08T14:46:12Z</time></trkpt><trkpt lat="45.72237789060656" lon="11.216905739431576"><ele>714.0</ele><time>2026-04-08T14:46:14Z</time></trkpt><trkpt lat="45.722436911117036" lon="11.216856553934125"><ele>714.0</ele><time>2026-04-08T14:46:15Z</time></trkpt><trkpt lat="45.72249831481043" lon="11.216761794787717"><ele>714.0</ele><time>2026-04-08T14:46:16Z</time></trkpt><trkpt lat="45.722550237933916" lon="11.216656054933583"><ele>714.0</ele><time>2026-04-08T14:46:17Z</time></trkpt><trkpt lat="45.72259575746349" lon="11.216516295681965"><ele>712.1666666666666</ele><time>2026-04-08T14:46:19Z</time></trkpt><trkpt lat="45.722633680977815" lon="11.216437878693895"><ele>710.3333333333334</ele><time>2026-04-08T14:46:20Z</time></trkpt><trkpt lat="45.72267201877107" lon="11.216326080271713"><ele>708.5</ele><time>2026-04-08T14:46:21Z</time></trkpt><trkpt lat="45.72270073754962" lon="11.216201927080009"><ele>706.6666666666667</ele><time>2026-04-08T14:46:22Z</time></trkpt><trkpt lat="45.72273319097589" lon="11.216097715768644"><ele>704.8333333333334</ele><time>2026-04-08T14:46:23Z</time></trkpt><trkpt lat="45.72276492515594" lon="11.216014622391588"><ele>703.0</ele><time>2026-04-08T14:46:24Z</time></trkpt><trkpt lat="45.7228490708451" lon="11.215890820379492"><ele>713.4</ele><time>2026-04-08T14:46:26Z</time></trkpt><trkpt lat="45.722890127162565" lon="11.215821020352907"><ele>723.8</ele><time>2026-04-08T14:46:27Z</time></trkpt><trkpt lat="45.72293918376891" lon="11.215686826211234"><ele>734.2</ele><time>2026-04-08T14:46:29Z</time></trkpt><trkpt lat="45.72300271971952" lon="11.21553234271774"><ele>744.6</ele><time>2026-04-08T14:46:31Z</time></trkpt><trkpt lat="45.72304383397111" lon="11.215457812040079"><ele>755.0</ele><time>2026-04-08T14:46:32Z</time></trkpt><trkpt lat="45.72305087089522" lon="11.21531594952745"><ele>755.0</ele><time>2026-04-08T14:46:34Z</time></trkpt><trkpt lat="45.72302597696824" lon="11.215222430291792"><ele>755.0</ele><time>2026-04-08T14:46:35Z</time></trkpt><trkpt lat="45.722988071779085" lon="11.215134356052246"><ele>755.0</ele><time>2026-04-08T14:46:36Z</time></trkpt><trkpt lat="45.72295121742388" lon="11.215055241284084"><ele>755.0</ele><time>2026-04-08T14:46:37Z</time></trkpt><trkpt lat="45.72291367690415" lon="11.214923967088698"><ele>755.0</ele><time>2026-04-08T14:46:39Z</time></trkpt><trkpt lat="45.722851139734686" lon="11.21484534867805"><ele>755.0</ele><time>2026-04-08T14:46:41Z</time></trkpt><trkpt lat="45.72278116596185" lon="11.214750636071482"><ele>753.8</ele><time>2026-04-08T14:46:43Z</time></trkpt><trkpt lat="45.72273811194937" lon="11.214617643218132"><ele>752.6</ele><time>2026-04-08T14:46:45Z</time></trkpt><trkpt lat="45.72276843875199" lon="11.214490286059583"><ele>751.4000000000001</ele><time>2026-04-08T14:46:47Z</time></trkpt><trkpt lat="45.72285411043827" lon="11.2143642541996"><ele>750.2</ele><time>2026-04-08T14:46:49Z</time></trkpt><trkpt lat="45.722896205938696" lon="11.21428641613314"><ele>749.0</ele><time>2026-04-08T14:46:50Z</time></trkpt><trkpt lat="45.72293144896756" lon="11.214207115432682"><ele>749.0</ele><time>2026-04-08T14:46:51Z</time></trkpt><trkpt lat="45.72296701742051" lon="11.214125010299634"><ele>749.0</ele><time>2026-04-08T14:46:59Z</time></trkpt><trkpt lat="45.7229658332646" lon="11.21402502737881"><ele>749.0</ele><time>2026-04-08T14:47:02Z</time></trkpt><trkpt lat="45.72297896918392" lon="11.213880532541953"><ele>749.0</ele><time>2026-04-08T14:47:04Z</time></trkpt><trkpt lat="45.722996291839316" lon="11.213783185178574"><ele>749.0</ele><time>2026-04-08T14:47:10Z</time></trkpt><trkpt lat="45.723020950397505" lon="11.213644613311242"><ele>749.0</ele><time>2026-04-08T14:47:12Z</time></trkpt><trkpt lat="45.72302948667687" lon="11.213539950232153"><ele>748.1666666666666</ele><time>2026-04-08T14:47:14Z</time></trkpt><trkpt lat="45.72300105188868" lon="11.213444925765025"><ele>747.3333333333333</ele><time>2026-04-08T14:47:16Z</time></trkpt><trkpt lat="45.72300333452449" lon="11.213349292960594"><ele>746.5</ele><time>2026-04-08T14:47:17Z</time></trkpt><trkpt lat="45.72296405994571" lon="11.213233176787027"><ele>745.6666666666666</ele><time>2026-04-08T14:47:19Z</time></trkpt><trkpt lat="45.722941474609215" lon="11.213129995838175"><ele>744.8333333333334</ele><time>2026-04-08T14:47:20Z</time></trkpt><trkpt lat="45.722931057948834" lon="11.213002546829447"><ele>744.0</ele><time>2026-04-08T14:47:23Z</time></trkpt><trkpt lat="45.72351480394723" lon="11.212765699126905"><ele>756.8000000000001</ele><time>2026-04-08T14:47:25Z</time></trkpt><trkpt lat="45.72357609357435" lon="11.212742947357864"><ele>769.6</ele><time>2026-04-08T14:47:26Z</time></trkpt><trkpt lat="45.72369877947676" lon="11.212649993817191"><ele>782.4</ele><time>2026-04-08T14:47:28Z</time></trkpt><trkpt lat="45.72375293288129" lon="11.212601001504485"><ele>795.2</ele><time>2026-04-08T14:47:29Z</time></trkpt><trkpt lat="45.723776312881135" lon="11.212505725143487"><ele>808.0</ele><time>2026-04-08T14:47:31Z</time></trkpt><trkpt lat="45.72369415320977" lon="11.212394665777635"><ele>807.9999999999999</ele><time>2026-04-08T14:47:33Z</time></trkpt><trkpt lat="45.723644611783136" lon="11.21233818313772"><ele>808.0</ele><time>2026-04-08T14:47:34Z</time></trkpt><trkpt lat="45.723617235244085" lon="11.212228944344888"><ele>808.0</ele><time>2026-04-08T14:47:36Z</time></trkpt><trkpt lat="45.723643624668036" lon="11.212131076182805"><ele>808.0</ele><time>2026-04-08T14:47:38Z</time></trkpt><trkpt lat="45.72361241481607" lon="11.21196403165252"><ele>807.9999999999999</ele><time>2026-04-08T14:47:40Z</time></trkpt><trkpt lat="45.72359607448572" lon="11.21183779804691"><ele>808.0</ele><time>2026-04-08T14:47:42Z</time></trkpt><trkpt lat="45.72355487537401" lon="11.211724803445112"><ele>805.5999999999999</ele><time>2026-04-08T14:47:44Z</time></trkpt><trkpt lat="45.72348827900725" lon="11.21163291052124"><ele>803.1999999999999</ele><time>2026-04-08T14:47:46Z</time></trkpt><trkpt lat="45.72343649306366" lon="11.211532327070234"><ele>800.8</ele><time>2026-04-08T14:47:48Z</time></trkpt><trkpt lat="45.72349384148711" lon="11.211434940737528"><ele>798.4</ele><time>2026-04-08T14:47:50Z</time></trkpt><trkpt lat="45.723604421465" lon="11.211367780741124"><ele>796.0</ele><time>2026-04-08T14:47:52Z</time></trkpt><trkpt lat="45.72368504385807" lon="11.211337829224497"><ele>796.0</ele><time>2026-04-08T14:47:54Z</time></trkpt><trkpt lat="45.72375286885946" lon="11.211260726671057"><ele>796.0</ele><time>2026-04-08T14:47:56Z</time></trkpt><trkpt lat="45.72378913222794" lon="11.211167266312609"><ele>796.0</ele><time>2026-04-08T14:47:57Z</time></trkpt><trkpt lat="45.72385175292561" lon="11.211024228582248"><ele>796.0</ele><time>2026-04-08T14:47:59Z</time></trkpt><trkpt lat="45.72393747532468" lon="11.210948275253376"><ele>796.0</ele><time>2026-04-08T14:48:01Z</time></trkpt><trkpt lat="45.72402387310242" lon="11.210901390920785"><ele>796.0</ele><time>2026-04-08T14:48:03Z</time></trkpt><trkpt lat="45.72411924579275" lon="11.2108968016517"><ele>796.0</ele><time>2026-04-08T14:48:05Z</time></trkpt><trkpt lat="45.72424118467241" lon="11.21091282206128"><ele>796.0</ele><time>2026-04-08T14:48:07Z</time></trkpt><trkpt lat="45.724314234858156" lon="11.210895356983128"><ele>796.0</ele><time>2026-04-08T14:48:08Z</time></trkpt><trkpt lat="45.72437519136889" lon="11.210862015853166"><ele>796.0</ele><time>2026-04-08T14:48:09Z</time></trkpt><trkpt lat="45.72448542799858" lon="11.210771293309378"><ele>798.8</ele><time>2026-04-08T14:48:11Z</time></trkpt><trkpt lat="45.72455254474892" lon="11.210646770659817"><ele>801.5999999999999</ele><time>2026-04-08T14:48:13Z</time></trkpt><trkpt lat="45.724583785323155" lon="11.210555871084857"><ele>804.4</ele><time>2026-04-08T14:48:14Z</time></trkpt><trkpt lat="45.7246680736778" lon="11.210449694036994"><ele>807.2</ele><time>2026-04-08T14:48:16Z</time></trkpt><trkpt lat="45.72472221778129" lon="11.210309635483384"><ele>810.0</ele><time>2026-04-08T14:48:18Z</time></trkpt><trkpt lat="45.72471640310052" lon="11.21016661633952"><ele>810.0</ele><time>2026-04-08T14:48:20Z</time></trkpt><trkpt lat="45.72470238666124" lon="11.21006516779709"><ele>810.0</ele><time>2026-04-08T14:48:21Z</time></trkpt><trkpt lat="45.72468123760789" lon="11.209909121061502"><ele>810.0</ele><time>2026-04-08T14:48:23Z</time></trkpt><trkpt lat="45.72470508689655" lon="11.2098072453501"><ele>810.0</ele><time>2026-04-08T14:48:25Z</time></trkpt><trkpt lat="45.724791580382295" lon="11.20971109063146"><ele>810.0</ele><time>2026-04-08T14:48:27Z</time></trkpt><trkpt lat="45.724847489080865" lon="11.209647634368164"><ele>810.0</ele><time>2026-04-08T14:48:28Z</time></trkpt><trkpt lat="45.724956915912806" lon="11.209545889087122"><ele>810.8</ele><time>2026-04-08T14:48:30Z</time></trkpt><trkpt lat="45.725031576274205" lon="11.209465616240303"><ele>811.6</ele><time>2026-04-08T14:48:32Z</time></trkpt><trkpt lat="45.72503792634553" lon="11.209294193971912"><ele>812.4000000000001</ele><time>2026-04-08T14:48:34Z</time></trkpt><trkpt lat="45.72510054074605" lon="11.209165396050574"><ele>813.2</ele><time>2026-04-08T14:48:36Z</time></trkpt><trkpt lat="45.72519122562463" lon="11.2090439814067"><ele>814.0</ele><time>2026-04-08T14:48:38Z</time></trkpt><trkpt lat="45.725284650205346" lon="11.209002170677836"><ele>814.1666666666666</ele><time>2026-04-08T14:48:40Z</time></trkpt><trkpt lat="45.7253511840853" lon="11.208971009232048"><ele>814.3333333333333</ele><time>2026-04-08T14:48:41Z</time></trkpt><trkpt lat="45.72542343655792" lon="11.208931425903797"><ele>814.5</ele><time>2026-04-08T14:48:42Z</time></trkpt><trkpt lat="45.72548024640859" lon="11.208883289111872"><ele>814.6666666666667</ele><time>2026-04-08T14:48:43Z</time></trkpt><trkpt lat="45.72553772914632" lon="11.20883572362109"><ele>814.8333333333334</ele><time>2026-04-08T14:48:44Z</time></trkpt><trkpt lat="45.725591082749226" lon="11.208780547103682"><ele>815.0</ele><time>2026-04-08T14:48:45Z</time></trkpt><trkpt lat="45.72567089186753" lon="11.208669214667612"><ele>815.0000000000001</ele><time>2026-04-08T14:48:47Z</time></trkpt><trkpt lat="45.725794805314116" lon="11.208595199951247"><ele>815.0</ele><time>2026-04-08T14:48:49Z</time></trkpt><trkpt lat="45.72585345566864" lon="11.208559980619178"><ele>815.0</ele><time>2026-04-08T14:48:50Z</time></trkpt><trkpt lat="45.72592061273793" lon="11.208506284109621"><ele>815.0</ele><time>2026-04-08T14:51:34Z</time></trkpt><trkpt lat="45.72596352742631" lon="11.208434142194278"><ele>815.0000000000001</ele><time>2026-04-08T14:51:36Z</time></trkpt><trkpt lat="45.72601150303595" lon="11.20835149809965"><ele>815.0</ele><time>2026-04-08T14:51:38Z</time></trkpt><trkpt lat="45.72607204407265" lon="11.208314226859507"><ele>815.0</ele><time>2026-04-08T14:51:40Z</time></trkpt><trkpt lat="45.72615429137553" lon="11.20832347136576"><ele>815.0</ele><time>2026-04-08T14:51:42Z</time></trkpt><trkpt lat="45.72625280639267" lon="11.208348295060496"><ele>815.0</ele><time>2026-04-08T14:51:44Z</time></trkpt><trkpt lat="45.72635019506347" lon="11.208387528139598"><ele>815.0</ele><time>2026-04-08T14:51:46Z</time></trkpt><trkpt lat="45.72645773879933" lon="11.20844103997339"><ele>815.0</ele><time>2026-04-08T14:51:48Z</time></trkpt><trkpt lat="45.72654432133633" lon="11.208478803208932"><ele>815.0000000000001</ele><time>2026-04-08T14:51:50Z</time></trkpt><trkpt lat="45.72663372902579" lon="11.208470933217248"><ele>815.0</ele><time>2026-04-08T14:51:53Z</time></trkpt><trkpt lat="45.72670526336284" lon="11.208391664796288"><ele>815.0</ele><time>2026-04-08T14:51:55Z</time></trkpt><trkpt lat="45.726763946476815" lon="11.20830478145343"><ele>815.0</ele><time>2026-04-08T14:51:57Z</time></trkpt><trkpt lat="45.72683604111982" lon="11.208285624255687"><ele>815.0000000000001</ele><time>2026-04-08T14:51:59Z</time></trkpt><trkpt lat="45.72689272429073" lon="11.208338033195487"><ele>815.0</ele><time>2026-04-08T14:52:01Z</time></trkpt><trkpt lat="45.726975967057506" lon="11.208339850925059"><ele>811.8333333333334</ele><time>2026-04-08T14:52:03Z</time></trkpt><trkpt lat="45.72705078529947" lon="11.208341209918158"><ele>808.6666666666667</ele><time>2026-04-08T14:52:05Z</time></trkpt><trkpt lat="45.727164211257076" lon="11.208350474865345"><ele>805.5</ele><time>2026-04-08T14:52:07Z</time></trkpt><trkpt lat="45.727246644670025" lon="11.208340091201075"><ele>802.3333333333333</ele><time>2026-04-08T14:52:09Z</time></trkpt><trkpt lat="45.72730224132015" lon="11.208395442959523"><ele>799.1666666666666</ele><time>2026-04-08T14:52:11Z</time></trkpt><trkpt lat="45.72724716481838" lon="11.208481648463387"><ele>796.0</ele><time>2026-04-08T14:52:13Z</time></trkpt><trkpt lat="45.727182237979584" lon="11.20850725859704"><ele>795.9999999999999</ele><time>2026-04-08T14:52:14Z</time></trkpt><trkpt lat="45.72713603400787" lon="11.208589237774875"><ele>796.0</ele><time>2026-04-08T14:52:16Z</time></trkpt><trkpt lat="45.72720939603851" lon="11.208646802477814"><ele>796.0</ele><time>2026-04-08T14:52:18Z</time></trkpt><trkpt lat="45.72729588046668" lon="11.208639689867038"><ele>796.0</ele><time>2026-04-08T14:52:20Z</time></trkpt><trkpt lat="45.72738278062005" lon="11.208617075151952"><ele>795.9999999999999</ele><time>2026-04-08T14:52:22Z</time></trkpt><trkpt lat="45.727458132586634" lon="11.2085670062309"><ele>796.0</ele><time>2026-04-08T14:52:24Z</time></trkpt><trkpt lat="45.727523826673696" lon="11.208463402454719"><ele>795.9999999999999</ele><time>2026-04-08T14:52:26Z</time></trkpt><trkpt lat="45.72757746242513" lon="11.20835397302477"><ele>796.0</ele><time>2026-04-08T14:52:28Z</time></trkpt><trkpt lat="45.727637542256915" lon="11.208241112853658"><ele>796.0</ele><time>2026-04-08T14:52:31Z</time></trkpt><trkpt lat="45.72770517501362" lon="11.208257032376366"><ele>796.0</ele><time>2026-04-08T14:52:34Z</time></trkpt><trkpt lat="45.72769121443402" lon="11.208370453614585"><ele>795.9999999999999</ele><time>2026-04-08T14:52:37Z</time></trkpt><trkpt lat="45.727654579535226" lon="11.208489271017507"><ele>796.0</ele><time>2026-04-08T14:52:39Z</time></trkpt><trkpt lat="45.72766302089169" lon="11.208625579974262"><ele>795.9999999999999</ele><time>2026-04-08T14:52:41Z</time></trkpt><trkpt lat="45.72769538197648" lon="11.208728930826256"><ele>796.0</ele><time>2026-04-08T14:52:43Z</time></trkpt><trkpt lat="45.7277501201613" lon="11.208806111491496"><ele>796.0</ele><time>2026-04-08T14:52:45Z</time></trkpt><trkpt lat="45.727772770141065" lon="11.208892980927983"><ele>796.0</ele><time>2026-04-08T14:52:47Z</time></trkpt><trkpt lat="45.7277663298845" lon="11.208986315518093"><ele>796.0</ele><time>2026-04-08T14:52:49Z</time></trkpt><trkpt lat="45.727741624759375" lon="11.20907165254479"><ele>795.9999999999999</ele><time>2026-04-08T14:52:51Z</time></trkpt><trkpt lat="45.72769069792192" lon="11.209125412027173"><ele>796.0</ele><time>2026-04-08T14:52:53Z</time></trkpt><trkpt lat="45.727623478337954" lon="11.209168421571823"><ele>792.8</ele><time>2026-04-08T14:52:57Z</time></trkpt><trkpt lat="45.72756132408214" lon="11.20921431443413"><ele>789.5999999999999</ele><time>2026-04-08T14:53:01Z</time></trkpt><trkpt lat="45.72761991782692" lon="11.209171690524618"><ele>786.4</ele><time>2026-04-08T14:53:25Z</time></trkpt><trkpt lat="45.727743787197554" lon="11.209096290856523"><ele>783.2</ele><time>2026-04-08T14:53:27Z</time></trkpt><trkpt lat="45.72779284517584" lon="11.208925207384159"><ele>780.0</ele><time>2026-04-08T14:53:29Z</time></trkpt><trkpt lat="45.7277562373815" lon="11.208774924161517"><ele>783.2</ele><time>2026-04-08T14:53:31Z</time></trkpt><trkpt lat="45.72767617423349" lon="11.208623243698101"><ele>786.4</ele><time>2026-04-08T14:53:33Z</time></trkpt><trkpt lat="45.7276751288846" lon="11.20845615559307"><ele>789.5999999999999</ele><time>2026-04-08T14:53:35Z</time></trkpt><trkpt lat="45.727695065736064" lon="11.208340660258093"><ele>792.8</ele><time>2026-04-08T14:53:36Z</time></trkpt><trkpt lat="45.72769377630023" lon="11.208239912132848"><ele>796.0</ele><time>2026-04-08T14:53:39Z</time></trkpt><trkpt lat="45.72762423288774" lon="11.208261053789421"><ele>795.9999999999999</ele><time>2026-04-08T14:53:41Z</time></trkpt><trkpt lat="45.72757354082831" lon="11.208336238368453"><ele>796.0</ele><time>2026-04-08T14:53:42Z</time></trkpt><trkpt lat="45.72754224741368" lon="11.208441644298047"><ele>796.0</ele><time>2026-04-08T14:53:43Z</time></trkpt><trkpt lat="45.72751062850715" lon="11.208527970535494"><ele>796.0</ele><time>2026-04-08T14:53:44Z</time></trkpt><trkpt lat="45.72744999878159" lon="11.208623109706654"><ele>795.9999999999999</ele><time>2026-04-08T14:53:45Z</time></trkpt><trkpt lat="45.72733859245935" lon="11.208682151242906"><ele>796.0</ele><time>2026-04-08T14:53:47Z</time></trkpt><trkpt lat="45.72725665107399" lon="11.208686490915776"><ele>796.0</ele><time>2026-04-08T14:53:48Z</time></trkpt><trkpt lat="45.72715990635664" lon="11.208651662983062"><ele>796.0</ele><time>2026-04-08T14:53:50Z</time></trkpt><trkpt lat="45.72714078478095" lon="11.208556965278204"><ele>796.0</ele><time>2026-04-08T14:53:52Z</time></trkpt><trkpt lat="45.727251822979376" lon="11.208458689224354"><ele>796.0</ele><time>2026-04-08T14:53:54Z</time></trkpt><trkpt lat="45.727312207856635" lon="11.208424696436385"><ele>796.0</ele><time>2026-04-08T14:53:55Z</time></trkpt><trkpt lat="45.72723921702309" lon="11.208344204498651"><ele>796.0</ele><time>2026-04-08T14:53:58Z</time></trkpt><trkpt lat="45.727168279142795" lon="11.208375913212143"><ele>796.0</ele><time>2026-04-08T14:53:59Z</time></trkpt><trkpt lat="45.72705617901935" lon="11.208377991349854"><ele>796.0</ele><time>2026-04-08T14:54:01Z</time></trkpt><trkpt lat="45.72698989022969" lon="11.208365433768645"><ele>796.0</ele><time>2026-04-08T14:54:02Z</time></trkpt><trkpt lat="45.72689367089047" lon="11.208369001394379"><ele>796.0</ele><time>2026-04-08T14:54:04Z</time></trkpt><trkpt lat="45.726779367893634" lon="11.208333529698356"><ele>799.1666666666666</ele><time>2026-04-08T14:54:06Z</time></trkpt><trkpt lat="45.72672235199919" lon="11.208405248108757"><ele>802.3333333333333</ele><time>2026-04-08T14:54:08Z</time></trkpt><trkpt lat="45.726666319095855" lon="11.208480267323864"><ele>805.5</ele><time>2026-04-08T14:54:09Z</time></trkpt><trkpt lat="45.72658487364127" lon="11.20853897997288"><ele>808.6666666666667</ele><time>2026-04-08T14:54:11Z</time></trkpt><trkpt lat="45.72647780303199" lon="11.20851087512125"><ele>811.8333333333334</ele><time>2026-04-08T14:54:13Z</time></trkpt><trkpt lat="45.72640959433346" lon="11.208460230382743"><ele>815.0</ele><time>2026-04-08T14:54:14Z</time></trkpt><trkpt lat="45.72633479528736" lon="11.208418149460979"><ele>815.0000000000001</ele><time>2026-04-08T14:54:15Z</time></trkpt><trkpt lat="45.726260439485756" lon="11.208390515786007"><ele>815.0</ele><time>2026-04-08T14:54:16Z</time></trkpt><trkpt lat="45.726174930661756" lon="11.208374395640739"><ele>815.0</ele><time>2026-04-08T14:54:17Z</time></trkpt><trkpt lat="45.72609369391267" lon="11.208362163979437"><ele>815.0</ele><time>2026-04-08T14:54:18Z</time></trkpt><trkpt lat="45.72599786050175" lon="11.208377945101583"><ele>815.0000000000001</ele><time>2026-04-08T14:54:20Z</time></trkpt><trkpt lat="45.725938555706456" lon="11.208478614445008"><ele>815.0</ele><time>2026-04-08T14:54:23Z</time></trkpt><trkpt lat="45.725908752654256" lon="11.20856050015367"><ele>815.0000000000001</ele><time>2026-04-08T14:54:25Z</time></trkpt><trkpt lat="45.72586983089734" lon="11.208468200134364"><ele>815.0</ele><time>2026-04-08T14:54:28Z</time></trkpt><trkpt lat="45.725875226794955" lon="11.208295277021984"><ele>815.0</ele><time>2026-04-08T14:54:30Z</time></trkpt><trkpt lat="45.72591736462543" lon="11.208217146342312"><ele>815.0</ele><time>2026-04-08T14:54:32Z</time></trkpt><trkpt lat="45.72596993726907" lon="11.20814846013281"><ele>815.0000000000001</ele><time>2026-04-08T14:54:33Z</time></trkpt><trkpt lat="45.72603366700026" lon="11.208075808753348"><ele>815.0</ele><time>2026-04-08T14:54:34Z</time></trkpt><trkpt lat="45.726093302242234" lon="11.208008157330573"><ele>818.4</ele><time>2026-04-08T14:54:35Z</time></trkpt><trkpt lat="45.726149022279834" lon="11.207956366013509"><ele>821.8</ele><time>2026-04-08T14:54:36Z</time></trkpt><trkpt lat="45.72619529186613" lon="11.207888707705926"><ele>825.2</ele><time>2026-04-08T14:54:37Z</time></trkpt><trkpt lat="45.726273720950736" lon="11.207771745439683"><ele>828.6</ele><time>2026-04-08T14:54:39Z</time></trkpt><trkpt lat="45.72637096873404" lon="11.207623089565246"><ele>832.0</ele><time>2026-04-08T14:54:41Z</time></trkpt><trkpt lat="45.72647362601309" lon="11.207515651191644"><ele>832.0</ele><time>2026-04-08T14:54:43Z</time></trkpt><trkpt lat="45.72656320646092" lon="11.207433900259764"><ele>832.0</ele><time>2026-04-08T14:54:45Z</time></trkpt><trkpt lat="45.72662141587967" lon="11.207323306581385"><ele>832.0</ele><time>2026-04-08T14:54:47Z</time></trkpt><trkpt lat="45.72665209333206" lon="11.207206560842232"><ele>832.0</ele><time>2026-04-08T14:54:49Z</time></trkpt><trkpt lat="45.72673161242066" lon="11.20714448792813"><ele>832.0</ele><time>2026-04-08T14:54:51Z</time></trkpt><trkpt lat="45.726795471358145" lon="11.207076429713199"><ele>832.4999999999999</ele><time>2026-04-08T14:54:53Z</time></trkpt><trkpt lat="45.72686178555928" lon="11.20704395317672"><ele>833.0</ele><time>2026-04-08T14:54:54Z</time></trkpt><trkpt lat="45.7269386230067" lon="11.20703570356791"><ele>833.5</ele><time>2026-04-08T14:54:56Z</time></trkpt><trkpt lat="45.7270262557493" lon="11.20698287729519"><ele>834.0</ele><time>2026-04-08T14:54:58Z</time></trkpt><trkpt lat="45.72709138350233" lon="11.206874316544454"><ele>834.4999999999999</ele><time>2026-04-08T14:55:00Z</time></trkpt><trkpt lat="45.727146366757175" lon="11.206827770546392"><ele>835.0</ele><time>2026-04-08T14:55:01Z</time></trkpt><trkpt lat="45.7272166018366" lon="11.206718583145161"><ele>836.8</ele><time>2026-04-08T14:55:04Z</time></trkpt><trkpt lat="45.727257338246105" lon="11.206555129304522"><ele>838.6</ele><time>2026-04-08T14:55:06Z</time></trkpt><trkpt lat="45.727272945994564" lon="11.20646494385652"><ele>840.4000000000001</ele><time>2026-04-08T14:55:07Z</time></trkpt><trkpt lat="45.727307769825096" lon="11.206365097562287"><ele>842.2</ele><time>2026-04-08T14:55:08Z</time></trkpt><trkpt lat="45.727341811824985" lon="11.206212171614467"><ele>844.0</ele><time>2026-04-08T14:55:10Z</time></trkpt><trkpt lat="45.727367367398486" lon="11.206023624400032"><ele>847.0</ele><time>2026-04-08T14:55:12Z</time></trkpt><trkpt lat="45.72738337637193" lon="11.205928764813057"><ele>850.0</ele><time>2026-04-08T14:55:13Z</time></trkpt><trkpt lat="45.7274062386066" lon="11.205841652879677"><ele>853.0000000000001</ele><time>2026-04-08T14:55:14Z</time></trkpt><trkpt lat="45.72744626852318" lon="11.205682672492522"><ele>856.0</ele><time>2026-04-08T14:55:16Z</time></trkpt><trkpt lat="45.72745514084258" lon="11.205544758970902"><ele>859.0</ele><time>2026-04-08T14:55:18Z</time></trkpt><trkpt lat="45.727465354395406" lon="11.20535784729066"><ele>859.8333333333333</ele><time>2026-04-08T14:55:20Z</time></trkpt><trkpt lat="45.72749023699691" lon="11.20522612739501"><ele>860.6666666666666</ele><time>2026-04-08T14:55:22Z</time></trkpt><trkpt lat="45.727506549579644" lon="11.205127746640612"><ele>861.5</ele><time>2026-04-08T14:55:24Z</time></trkpt><trkpt lat="45.72755034510669" lon="11.205025618461459"><ele>862.3333333333333</ele><time>2026-04-08T14:55:26Z</time></trkpt><trkpt lat="45.72758665055422" lon="11.204942177471917"><ele>863.1666666666666</ele><time>2026-04-08T14:55:28Z</time></trkpt><trkpt lat="45.727638745005315" lon="11.204873534520976"><ele>864.0</ele><time>2026-04-08T14:55:30Z</time></trkpt><trkpt lat="45.72756260370181" lon="11.204983648713675"><ele>864.0</ele><time>2026-04-08T15:16:02Z</time></trkpt><trkpt lat="45.72752452511227" lon="11.20505953629443"><ele>864.0000000000001</ele><time>2026-04-08T15:16:03Z</time></trkpt><trkpt lat="45.72746743521078" lon="11.205214235880947"><ele>864.0000000000001</ele><time>2026-04-08T15:16:05Z</time></trkpt><trkpt lat="45.72746429715964" lon="11.205380788479939"><ele>864.0</ele><time>2026-04-08T15:16:07Z</time></trkpt><trkpt lat="45.727446259926424" lon="11.205469418527136"><ele>864.0</ele><time>2026-04-08T15:16:08Z</time></trkpt><trkpt lat="45.72744448204738" lon="11.205614399942036"><ele>863.1666666666666</ele><time>2026-04-08T15:16:10Z</time></trkpt><trkpt lat="45.727430648955" lon="11.20575606917589"><ele>862.3333333333333</ele><time>2026-04-08T15:16:13Z</time></trkpt><trkpt lat="45.72741308077997" lon="11.20585029130065"><ele>861.5</ele><time>2026-04-08T15:16:14Z</time></trkpt><trkpt lat="45.72738036022451" lon="11.205954087318052"><ele>860.6666666666666</ele><time>2026-04-08T15:16:16Z</time></trkpt><trkpt lat="45.727361423678985" lon="11.20607917022368"><ele>859.8333333333333</ele><time>2026-04-08T15:16:28Z</time></trkpt><trkpt lat="45.72735338455372" lon="11.20619074778677"><ele>859.0</ele><time>2026-04-08T15:16:29Z</time></trkpt><trkpt lat="45.72731870200451" lon="11.206382385548213"><ele>856.0</ele><time>2026-04-08T15:16:31Z</time></trkpt><trkpt lat="45.72727640896825" lon="11.206513901907126"><ele>853.0000000000001</ele><time>2026-04-08T15:16:32Z</time></trkpt><trkpt lat="45.72724381046238" lon="11.206611711737967"><ele>850.0</ele><time>2026-04-08T15:16:33Z</time></trkpt><trkpt lat="45.727204791758574" lon="11.206761259899855"><ele>847.0</ele><time>2026-04-08T15:16:35Z</time></trkpt><trkpt lat="45.72714596651981" lon="11.206854121656004"><ele>844.0</ele><time>2026-04-08T15:16:37Z</time></trkpt><trkpt lat="45.72707860042135" lon="11.206906327819315"><ele>843.9999999999999</ele><time>2026-04-08T15:16:39Z</time></trkpt><trkpt lat="45.72699884897977" lon="11.206979189426338"><ele>844.0</ele><time>2026-04-08T15:16:41Z</time></trkpt><trkpt lat="45.72693862720603" lon="11.207037685387377"><ele>844.0</ele><time>2026-04-08T15:16:43Z</time></trkpt><trkpt lat="45.726858381505295" lon="11.207049241432877"><ele>844.0</ele><time>2026-04-08T15:16:45Z</time></trkpt><trkpt lat="45.726777760445664" lon="11.207078875420514"><ele>843.9999999999999</ele><time>2026-04-08T15:16:47Z</time></trkpt><trkpt lat="45.72669230425428" lon="11.207168249846111"><ele>844.0</ele><time>2026-04-08T15:16:49Z</time></trkpt><trkpt lat="45.726620441333054" lon="11.207246231446474"><ele>841.6</ele><time>2026-04-08T15:16:51Z</time></trkpt><trkpt lat="45.72657444368539" lon="11.207355363974864"><ele>839.2</ele><time>2026-04-08T15:16:53Z</time></trkpt><trkpt lat="45.726511527571105" lon="11.207475640469577"><ele>836.8000000000001</ele><time>2026-04-08T15:16:55Z</time></trkpt><trkpt lat="45.72642917592507" lon="11.207534809328974"><ele>834.4000000000001</ele><time>2026-04-08T15:16:57Z</time></trkpt><trkpt lat="45.72635201172611" lon="11.207607651620297"><ele>832.0</ele><time>2026-04-08T15:16:59Z</time></trkpt><trkpt lat="45.72629116908259" lon="11.20769357003241"><ele>831.9999999999999</ele><time>2026-04-08T15:17:01Z</time></trkpt><trkpt lat="45.72623644713092" lon="11.207780983429682"><ele>832.0</ele><time>2026-04-08T15:17:03Z</time></trkpt><trkpt lat="45.726192798124195" lon="11.207847566101169"><ele>832.0</ele><time>2026-04-08T15:17:05Z</time></trkpt><trkpt lat="45.72612417584109" lon="11.207942103342514"><ele>832.0</ele><time>2026-04-08T15:17:07Z</time></trkpt><trkpt lat="45.72604113855994" lon="11.20804650823155"><ele>831.9999999999999</ele><time>2026-04-08T15:17:09Z</time></trkpt><trkpt lat="45.72596077260489" lon="11.208124798044453"><ele>832.0</ele><time>2026-04-08T15:17:11Z</time></trkpt><trkpt lat="45.725898856857384" lon="11.208201640332083"><ele>829.1666666666666</ele><time>2026-04-08T15:17:13Z</time></trkpt><trkpt lat="45.7258469056949" lon="11.208299245030553"><ele>826.3333333333333</ele><time>2026-04-08T15:17:16Z</time></trkpt><trkpt lat="45.72586049883076" lon="11.208412229458428"><ele>823.5</ele><time>2026-04-08T15:17:18Z</time></trkpt><trkpt lat="45.72587097634007" lon="11.20850785934045"><ele>820.6666666666667</ele><time>2026-04-08T15:17:22Z</time></trkpt><trkpt lat="45.72581216607055" lon="11.20859179743839"><ele>817.8333333333334</ele><time>2026-04-08T15:17:25Z</time></trkpt><trkpt lat="45.725704344062045" lon="11.208617698297319"><ele>815.0</ele><time>2026-04-08T15:17:27Z</time></trkpt><trkpt lat="45.72564276529506" lon="11.208674092432622"><ele>815.0000000000001</ele><time>2026-04-08T15:17:29Z</time></trkpt><trkpt lat="45.72557824584729" lon="11.208784012260223"><ele>815.0</ele><time>2026-04-08T15:17:31Z</time></trkpt><trkpt lat="45.725519473417535" lon="11.208852586670648"><ele>815.0</ele><time>2026-04-08T15:17:33Z</time></trkpt><trkpt lat="45.725414569939325" lon="11.208906569872447"><ele>815.0</ele><time>2026-04-08T15:17:35Z</time></trkpt><trkpt lat="45.72534523568728" lon="11.208951337340942"><ele>815.0000000000001</ele><time>2026-04-08T15:17:36Z</time></trkpt><trkpt lat="45.725285742320075" lon="11.208986622506762"><ele>815.0</ele><time>2026-04-08T15:17:37Z</time></trkpt><trkpt lat="45.72520891697532" lon="11.209023167063311"><ele>811.6</ele><time>2026-04-08T15:17:39Z</time></trkpt><trkpt lat="45.72512452138823" lon="11.209102115186631"><ele>808.2</ele><time>2026-04-08T15:17:41Z</time></trkpt><trkpt lat="45.725055139566145" lon="11.209236242091366"><ele>804.8</ele><time>2026-04-08T15:17:43Z</time></trkpt><trkpt lat="45.72502174085525" lon="11.20934266199539"><ele>801.4</ele><time>2026-04-08T15:17:45Z</time></trkpt><trkpt lat="45.725022698661746" lon="11.209450101169548"><ele>798.0</ele><time>2026-04-08T15:17:47Z</time></trkpt><trkpt lat="45.72495974121946" lon="11.209542111631482"><ele>798.0</ele><time>2026-04-08T15:17:49Z</time></trkpt><trkpt lat="45.724855554919124" lon="11.209628285192627"><ele>798.0</ele><time>2026-04-08T15:17:51Z</time></trkpt><trkpt lat="45.72478634970213" lon="11.20969328893066"><ele>798.0</ele><time>2026-04-08T15:17:52Z</time></trkpt><trkpt lat="45.72471341678536" lon="11.209791651218982"><ele>798.0</ele><time>2026-04-08T15:17:54Z</time></trkpt><trkpt lat="45.72469055178731" lon="11.209878154344976"><ele>798.0</ele><time>2026-04-08T15:17:56Z</time></trkpt><trkpt lat="45.72470229827266" lon="11.210005186017256"><ele>800.4</ele><time>2026-04-08T15:17:58Z</time></trkpt><trkpt lat="45.72470965218331" lon="11.210105805835038"><ele>802.8</ele><time>2026-04-08T15:17:59Z</time></trkpt><trkpt lat="45.72472176489608" lon="11.210208077850286"><ele>805.2</ele><time>2026-04-08T15:18:00Z</time></trkpt><trkpt lat="45.72471240160887" lon="11.210335616850744"><ele>807.6</ele><time>2026-04-08T15:18:02Z</time></trkpt><trkpt lat="45.72466746552565" lon="11.21047406770366"><ele>810.0</ele><time>2026-04-08T15:18:04Z</time></trkpt><trkpt lat="45.72456244429889" lon="11.210573691996327"><ele>811.0</ele><time>2026-04-08T15:18:06Z</time></trkpt><trkpt lat="45.724505895032536" lon="11.2106881685914"><ele>812.0</ele><time>2026-04-08T15:18:08Z</time></trkpt><trkpt lat="45.72448430215326" lon="11.21077915945128"><ele>813.0</ele><time>2026-04-08T15:18:09Z</time></trkpt><trkpt lat="45.72439968366617" lon="11.210845654407471"><ele>814.0</ele><time>2026-04-08T15:18:11Z</time></trkpt><trkpt lat="45.724298247220446" lon="11.21089126092611"><ele>815.0</ele><time>2026-04-08T15:18:13Z</time></trkpt><trkpt lat="45.724231929567125" lon="11.210899932573406"><ele>816.0</ele><time>2026-04-08T15:18:14Z</time></trkpt><trkpt lat="45.72414846578116" lon="11.210883063345937"><ele>812.6666666666666</ele><time>2026-04-08T15:18:16Z</time></trkpt><trkpt lat="45.724084125363675" lon="11.210863603688688"><ele>809.3333333333333</ele><time>2026-04-08T15:18:17Z</time></trkpt><trkpt lat="45.724002190697334" lon="11.210866541167032"><ele>806.0</ele><time>2026-04-08T15:18:19Z</time></trkpt><trkpt lat="45.72392233998678" lon="11.210920500323054"><ele>802.6666666666666</ele><time>2026-04-08T15:18:21Z</time></trkpt><trkpt lat="45.72387067030672" lon="11.210991983033765"><ele>799.3333333333333</ele><time>2026-04-08T15:18:23Z</time></trkpt><trkpt lat="45.723819819202355" lon="11.211072179560748"><ele>796.0</ele><time>2026-04-08T15:18:25Z</time></trkpt><trkpt lat="45.723768714582604" lon="11.211176129535728"><ele>795.9999999999999</ele><time>2026-04-08T15:18:27Z</time></trkpt><trkpt lat="45.72370940035705" lon="11.211289513875919"><ele>796.0</ele><time>2026-04-08T15:18:29Z</time></trkpt><trkpt lat="45.72365047997818" lon="11.211322779853317"><ele>796.0</ele><time>2026-04-08T15:18:31Z</time></trkpt><trkpt lat="45.72355428678783" lon="11.211353874634495"><ele>796.0</ele><time>2026-04-08T15:18:33Z</time></trkpt><trkpt lat="45.72347960238086" lon="11.211406003382157"><ele>795.9999999999999</ele><time>2026-04-08T15:18:35Z</time></trkpt><trkpt lat="45.723460757676314" lon="11.21150796353808"><ele>796.0</ele><time>2026-04-08T15:18:38Z</time></trkpt><trkpt lat="45.723502295810064" lon="11.211585704090306"><ele>800.5999999999999</ele><time>2026-04-08T15:18:40Z</time></trkpt><trkpt lat="45.723585284844845" lon="11.211700639784942"><ele>805.2</ele><time>2026-04-08T15:18:42Z</time></trkpt><trkpt lat="45.72362383148428" lon="11.211831301474328"><ele>809.8</ele><time>2026-04-08T15:18:44Z</time></trkpt><trkpt lat="45.72363091666727" lon="11.211966124936385"><ele>814.4000000000001</ele><time>2026-04-08T15:18:46Z</time></trkpt><trkpt lat="45.72365776245446" lon="11.212085460809783"><ele>819.0</ele><time>2026-04-08T15:18:48Z</time></trkpt><trkpt lat="45.72364948605945" lon="11.21218612048021"><ele>819.0</ele><time>2026-04-08T15:18:50Z</time></trkpt><trkpt lat="45.72363880491728" lon="11.212287528728801"><ele>819.0</ele><time>2026-04-08T15:18:52Z</time></trkpt><trkpt lat="45.72368778552411" lon="11.212383927394423"><ele>819.0</ele><time>2026-04-08T15:18:55Z</time></trkpt><trkpt lat="45.72374048103216" lon="11.2124362200656"><ele>819.0</ele><time>2026-04-08T15:18:57Z</time></trkpt><trkpt lat="45.72377982036508" lon="11.212511477288873"><ele>819.0</ele><time>2026-04-08T15:18:59Z</time></trkpt><trkpt lat="45.72373551246125" lon="11.212604036259329"><ele>819.0</ele><time>2026-04-08T15:19:01Z</time></trkpt><trkpt lat="45.72365908233798" lon="11.21267379904576"><ele>817.1666666666666</ele><time>2026-04-08T15:19:03Z</time></trkpt><trkpt lat="45.72359288262358" lon="11.21271471530687"><ele>815.3333333333333</ele><time>2026-04-08T15:19:05Z</time></trkpt><trkpt lat="45.723507812602016" lon="11.212774641323339"><ele>813.5</ele><time>2026-04-08T15:19:07Z</time></trkpt><trkpt lat="45.72343184812319" lon="11.212810397425915"><ele>811.6666666666666</ele><time>2026-04-08T15:19:09Z</time></trkpt><trkpt lat="45.72338271078134" lon="11.212871049330536"><ele>809.8333333333333</ele><time>2026-04-08T15:19:11Z</time></trkpt><trkpt lat="45.723356715678186" lon="11.212975693266559"><ele>808.0</ele><time>2026-04-08T15:19:13Z</time></trkpt><trkpt lat="45.72334481792463" lon="11.2131027017496"><ele>797.3333333333333</ele><time>2026-04-08T15:19:15Z</time></trkpt><trkpt lat="45.723357357110174" lon="11.213234364412362"><ele>786.6666666666666</ele><time>2026-04-08T15:19:17Z</time></trkpt><trkpt lat="45.72334603087494" lon="11.21336722214018"><ele>776.0</ele><time>2026-04-08T15:19:19Z</time></trkpt><trkpt lat="45.72331414608559" lon="11.213468701724283"><ele>765.3333333333333</ele><time>2026-04-08T15:19:21Z</time></trkpt><trkpt lat="45.7232800666094" lon="11.213593640074732"><ele>754.6666666666666</ele><time>2026-04-08T15:19:23Z</time></trkpt><trkpt lat="45.72325877077333" lon="11.21371977791731"><ele>744.0</ele><time>2026-04-08T15:19:25Z</time></trkpt><trkpt lat="45.7231832672899" lon="11.213815845755827"><ele>744.0</ele><time>2026-04-08T15:19:27Z</time></trkpt><trkpt lat="45.72311777311646" lon="11.213890629799327"><ele>744.0</ele><time>2026-04-08T15:19:29Z</time></trkpt><trkpt lat="45.72306223517409" lon="11.214001247955244"><ele>744.0</ele><time>2026-04-08T15:19:32Z</time></trkpt><trkpt lat="45.72304183537716" lon="11.214139736203835"><ele>744.0</ele><time>2026-04-08T15:19:35Z</time></trkpt><trkpt lat="45.722962957232966" lon="11.214128429369525"><ele>744.0</ele><time>2026-04-08T15:19:39Z</time></trkpt><trkpt lat="45.722893844608755" lon="11.21425910453732"><ele>744.8333333333334</ele><time>2026-04-08T15:19:42Z</time></trkpt><trkpt lat="45.722857352494195" lon="11.214342632986916"><ele>745.6666666666666</ele><time>2026-04-08T15:19:43Z</time></trkpt><trkpt lat="45.72280946645003" lon="11.214425818578436"><ele>746.5</ele><time>2026-04-08T15:19:44Z</time></trkpt><trkpt lat="45.72274125344504" lon="11.214466284387052"><ele>747.3333333333333</ele><time>2026-04-08T15:19:45Z</time></trkpt><trkpt lat="45.72269834713831" lon="11.21461145118669"><ele>748.1666666666666</ele><time>2026-04-08T15:19:47Z</time></trkpt><trkpt lat="45.72272389332556" lon="11.21477429635747"><ele>749.0</ele><time>2026-04-08T15:19:49Z</time></trkpt><trkpt lat="45.72278829488729" lon="11.214851571108209"><ele>750.0</ele><time>2026-04-08T15:19:50Z</time></trkpt><trkpt lat="45.72287533665139" lon="11.214967975216393"><ele>751.0</ele><time>2026-04-08T15:19:52Z</time></trkpt><trkpt lat="45.722903223728466" lon="11.215058348028625"><ele>752.0</ele><time>2026-04-08T15:19:53Z</time></trkpt><trkpt lat="45.722944053654444" lon="11.215156001381782"><ele>753.0</ele><time>2026-04-08T15:19:54Z</time></trkpt><trkpt lat="45.72298552449469" lon="11.215256310399857"><ele>754.0</ele><time>2026-04-08T15:19:55Z</time></trkpt><trkpt lat="45.72301500830929" lon="11.215347145056644"><ele>755.0</ele><time>2026-04-08T15:19:56Z</time></trkpt><trkpt lat="45.72299083715148" lon="11.215496061083487"><ele>755.0</ele><time>2026-04-08T15:19:58Z</time></trkpt><trkpt lat="45.722914819211205" lon="11.215646457752287"><ele>755.0</ele><time>2026-04-08T15:20:00Z</time></trkpt><trkpt lat="45.72288103020861" lon="11.21575969059797"><ele>755.0</ele><time>2026-04-08T15:20:01Z</time></trkpt><trkpt lat="45.722832712985586" lon="11.215856770674288"><ele>755.0</ele><time>2026-04-08T15:20:02Z</time></trkpt><trkpt lat="45.72277322094782" lon="11.215945480248987"><ele>755.0</ele><time>2026-04-08T15:20:03Z</time></trkpt><trkpt lat="45.722728143161525" lon="11.216019121413288"><ele>749.1428571428571</ele><time>2026-04-08T15:20:04Z</time></trkpt><trkpt lat="45.72268812418802" lon="11.216098811365013"><ele>743.2857142857143</ele><time>2026-04-08T15:20:05Z</time></trkpt><trkpt lat="45.722657660985824" lon="11.216182260929079"><ele>737.4285714285714</ele><time>2026-04-08T15:20:06Z</time></trkpt><trkpt lat="45.72263973600463" lon="11.216271946282214"><ele>731.5714285714286</ele><time>2026-04-08T15:20:07Z</time></trkpt><trkpt lat="45.722613604071455" lon="11.21636525680564"><ele>725.7142857142858</ele><time>2026-04-08T15:20:08Z</time></trkpt><trkpt lat="45.72257379246745" lon="11.216462504448502"><ele>719.8571428571429</ele><time>2026-04-08T15:20:09Z</time></trkpt><trkpt lat="45.7225247003029" lon="11.216585234878334"><ele>714.0</ele><time>2026-04-08T15:20:10Z</time></trkpt><trkpt lat="45.72248011207515" lon="11.216692732720878"><ele>714.0</ele><time>2026-04-08T15:20:11Z</time></trkpt><trkpt lat="45.722436304148324" lon="11.216781294494474"><ele>714.0</ele><time>2026-04-08T15:20:12Z</time></trkpt><trkpt lat="45.72234310369353" lon="11.216913551648956"><ele>714.0</ele><time>2026-04-08T15:20:14Z</time></trkpt><trkpt lat="45.72228714027133" lon="11.216954927010965"><ele>714.0</ele><time>2026-04-08T15:20:15Z</time></trkpt><trkpt lat="45.722195037837935" lon="11.217031309432572"><ele>714.0</ele><time>2026-04-08T15:20:17Z</time></trkpt><trkpt lat="45.72209914486537" lon="11.217149785406503"><ele>714.0</ele><time>2026-04-08T15:20:19Z</time></trkpt><trkpt lat="45.722023513397545" lon="11.217194759792873"><ele>714.0</ele><time>2026-04-08T15:20:20Z</time></trkpt><trkpt lat="45.721971802236816" lon="11.217259824022877"><ele>714.0</ele><time>2026-04-08T15:20:21Z</time></trkpt><trkpt lat="45.7219226028058" lon="11.217365437892598"><ele>714.0</ele><time>2026-04-08T15:20:23Z</time></trkpt><trkpt lat="45.72192022394489" lon="11.217481458464059"><ele>714.0</ele><time>2026-04-08T15:20:24Z</time></trkpt><trkpt lat="45.721900705276795" lon="11.217597746668694"><ele>714.0</ele><time>2026-04-08T15:20:25Z</time></trkpt><trkpt lat="45.7218747946851" lon="11.217708928460905"><ele>712.1666666666666</ele><time>2026-04-08T15:20:26Z</time></trkpt><trkpt lat="45.72183644796592" lon="11.217792719391417"><ele>710.3333333333334</ele><time>2026-04-08T15:20:27Z</time></trkpt><trkpt lat="45.721788294994234" lon="11.21788984292085"><ele>708.5</ele><time>2026-04-08T15:20:28Z</time></trkpt><trkpt lat="45.7217385579992" lon="11.217961298278018"><ele>706.6666666666667</ele><time>2026-04-08T15:20:29Z</time></trkpt><trkpt lat="45.721674847615056" lon="11.218044840676034"><ele>704.8333333333334</ele><time>2026-04-08T15:20:30Z</time></trkpt><trkpt lat="45.72162082962622" lon="11.218119447944588"><ele>703.0</ele><time>2026-04-08T15:20:31Z</time></trkpt><trkpt lat="45.721549416976934" lon="11.218229668426066"><ele>703.0</ele><time>2026-04-08T15:20:32Z</time></trkpt><trkpt lat="45.721481712593246" lon="11.218336475567737"><ele>703.0</ele><time>2026-04-08T15:20:33Z</time></trkpt><trkpt lat="45.721426169861694" lon="11.218425353820143"><ele>703.0</ele><time>2026-04-08T15:20:34Z</time></trkpt><trkpt lat="45.7213787782615" lon="11.218500389958288"><ele>703.0</ele><time>2026-04-08T15:20:35Z</time></trkpt><trkpt lat="45.72132897829042" lon="11.218577878466183"><ele>703.0</ele><time>2026-04-08T15:20:36Z</time></trkpt><trkpt lat="45.72127049688884" lon="11.218657744320096"><ele>703.0</ele><time>2026-04-08T15:20:37Z</time></trkpt><trkpt lat="45.7212166506042" lon="11.218740762037381"><ele>703.0</ele><time>2026-04-08T15:20:38Z</time></trkpt><trkpt lat="45.72115153879964" lon="11.218798320962389"><ele>703.0</ele><time>2026-04-08T15:20:39Z</time></trkpt><trkpt lat="45.721097624270854" lon="11.218852506470121"><ele>703.0</ele><time>2026-04-08T15:20:40Z</time></trkpt><trkpt lat="45.721026246141534" lon="11.219007291640203"><ele>703.0</ele><time>2026-04-08T15:20:42Z</time></trkpt><trkpt lat="45.72098958903884" lon="11.219112079984763"><ele>703.0</ele><time>2026-04-08T15:20:43Z</time></trkpt><trkpt lat="45.72093379086291" lon="11.219219104049"><ele>703.0</ele><time>2026-04-08T15:20:44Z</time></trkpt><trkpt lat="45.720887872693886" lon="11.219356333747212"><ele>700.8333333333334</ele><time>2026-04-08T15:20:45Z</time></trkpt><trkpt lat="45.72084352407532" lon="11.219481194522151"><ele>698.6666666666667</ele><time>2026-04-08T15:20:46Z</time></trkpt><trkpt lat="45.720800404441846" lon="11.219588389346749"><ele>696.5</ele><time>2026-04-08T15:20:47Z</time></trkpt><trkpt lat="45.720760253008855" lon="11.219672997108443"><ele>694.3333333333334</ele><time>2026-04-08T15:20:48Z</time></trkpt><trkpt lat="45.720711431102885" lon="11.219743404189138"><ele>692.1666666666666</ele><time>2026-04-08T15:20:49Z</time></trkpt><trkpt lat="45.7206733332853" lon="11.219825826142458"><ele>690.0</ele><time>2026-04-08T15:20:50Z</time></trkpt><trkpt lat="45.720642617450785" lon="11.219908707307214"><ele>690.0</ele><time>2026-04-08T15:20:51Z</time></trkpt><trkpt lat="45.72061935211454" lon="11.22000670548459"><ele>690.0</ele><time>2026-04-08T15:20:52Z</time></trkpt><trkpt lat="45.720602391463835" lon="11.220103928725074"><ele>690.0</ele><time>2026-04-08T15:20:53Z</time></trkpt><trkpt lat="45.72060145948621" lon="11.220197261412357"><ele>690.0</ele><time>2026-04-08T15:20:54Z</time></trkpt><trkpt lat="45.72056616107122" lon="11.220284060095981"><ele>690.0</ele><time>2026-04-08T15:20:56Z</time></trkpt><trkpt lat="45.72050991244907" lon="11.220346337806612"><ele>690.0</ele><time>2026-04-08T15:20:58Z</time></trkpt><trkpt lat="45.720438835585476" lon="11.220428039655866"><ele>690.0</ele><time>2026-04-08T15:21:00Z</time></trkpt><trkpt lat="45.72043666356998" lon="11.220580345342869"><ele>690.0</ele><time>2026-04-08T15:21:01Z</time></trkpt><trkpt lat="45.72038583487755" lon="11.220649140464692"><ele>690.0</ele><time>2026-04-08T15:21:02Z</time></trkpt><trkpt lat="45.720332623306824" lon="11.220716862423684"><ele>690.0</ele><time>2026-04-08T15:21:03Z</time></trkpt><trkpt lat="45.720266641686166" lon="11.220828335817444"><ele>690.0</ele><time>2026-04-08T15:21:05Z</time></trkpt><trkpt lat="45.72023263023929" lon="11.22096762876858"><ele>690.0</ele><time>2026-04-08T15:21:07Z</time></trkpt><trkpt lat="45.72023983716812" lon="11.221061551178032"><ele>690.0</ele><time>2026-04-08T15:21:08Z</time></trkpt><trkpt lat="45.720272736061716" lon="11.221185939887523"><ele>688.4</ele><time>2026-04-08T15:21:10Z</time></trkpt><trkpt lat="45.720305620696045" lon="11.221276788487305"><ele>686.8</ele><time>2026-04-08T15:21:12Z</time></trkpt><trkpt lat="45.72021198477415" lon="11.221388755835314"><ele>685.2</ele><time>2026-04-08T15:21:46Z</time></trkpt><trkpt lat="45.720077112527015" lon="11.221389178655985"><ele>683.6</ele><time>2026-04-08T15:21:47Z</time></trkpt><trkpt lat="45.71998652324654" lon="11.221358744359408"><ele>682.0</ele><time>2026-04-08T15:21:49Z</time></trkpt><trkpt lat="45.71992234545462" lon="11.221324874772366"><ele>680.2</ele><time>2026-04-08T15:21:53Z</time></trkpt><trkpt lat="45.71980530690799" lon="11.22136015064996"><ele>678.4000000000001</ele><time>2026-04-08T15:22:01Z</time></trkpt><trkpt lat="45.71970866439768" lon="11.221424716365654"><ele>676.5999999999999</ele><time>2026-04-08T15:22:03Z</time></trkpt><trkpt lat="45.719665794121056" lon="11.221518815062716"><ele>674.8</ele><time>2026-04-08T15:22:05Z</time></trkpt><trkpt lat="45.71961347710146" lon="11.221605082942416"><ele>673.0</ele><time>2026-04-08T15:22:06Z</time></trkpt><trkpt lat="45.719554870487734" lon="11.221696003235651"><ele>673.0</ele><time>2026-04-08T15:22:07Z</time></trkpt><trkpt lat="45.71950422447406" lon="11.221776014893859"><ele>673.0</ele><time>2026-04-08T15:22:08Z</time></trkpt><trkpt lat="45.71945902808284" lon="11.221854558797618"><ele>673.0</ele><time>2026-04-08T15:22:09Z</time></trkpt><trkpt lat="45.71939857964214" lon="11.22199740750316"><ele>673.0</ele><time>2026-04-08T15:22:11Z</time></trkpt><trkpt lat="45.7193291707909" lon="11.222121734163501"><ele>673.0</ele><time>2026-04-08T15:22:13Z</time></trkpt><trkpt lat="45.71924529223046" lon="11.222234117053407"><ele>672.5</ele><time>2026-04-08T15:22:15Z</time></trkpt><trkpt lat="45.719199042752734" lon="11.222299063215766"><ele>672.0</ele><time>2026-04-08T15:22:16Z</time></trkpt><trkpt lat="45.719151052966026" lon="11.222369417303417"><ele>671.5</ele><time>2026-04-08T15:22:17Z</time></trkpt><trkpt lat="45.719108549061346" lon="11.222442058181377"><ele>671.0</ele><time>2026-04-08T15:22:18Z</time></trkpt><trkpt lat="45.71904661932465" lon="11.222580693079495"><ele>670.5</ele><time>2026-04-08T15:22:20Z</time></trkpt><trkpt lat="45.71901071899985" lon="11.222659577547862"><ele>670.0</ele><time>2026-04-08T15:22:21Z</time></trkpt><trkpt lat="45.718933666322364" lon="11.222740713891106"><ele>669.5</ele><time>2026-04-08T15:22:23Z</time></trkpt><trkpt lat="45.718852498721326" lon="11.222804914930565"><ele>669.0</ele><time>2026-04-08T15:22:25Z</time></trkpt><trkpt lat="45.71879328700168" lon="11.22285334006837"><ele>668.5</ele><time>2026-04-08T15:22:27Z</time></trkpt><trkpt lat="45.71872189309634" lon="11.222955798126781"><ele>668.0</ele><time>2026-04-08T15:22:29Z</time></trkpt><trkpt lat="45.71864570680976" lon="11.22303155451631"><ele>667.5</ele><time>2026-04-08T15:22:32Z</time></trkpt><trkpt lat="45.71858429699104" lon="11.223063928632254"><ele>667.0</ele><time>2026-04-08T15:22:33Z</time></trkpt><trkpt lat="45.71850974465368" lon="11.223086878948534"><ele>667.0</ele><time>2026-04-08T15:22:34Z</time></trkpt><trkpt lat="45.71842257484574" lon="11.223139304313435"><ele>667.0</ele><time>2026-04-08T15:22:36Z</time></trkpt><trkpt lat="45.71836969618581" lon="11.223234735688905"><ele>667.0</ele><time>2026-04-08T15:22:38Z</time></trkpt><trkpt lat="45.7183354024129" lon="11.223329853432421"><ele>667.0</ele><time>2026-04-08T15:22:40Z</time></trkpt><trkpt lat="45.71827250034358" lon="11.223392083300729"><ele>667.0</ele><time>2026-04-08T15:22:42Z</time></trkpt><trkpt lat="45.7181796356495" lon="11.223433769144284"><ele>667.0</ele><time>2026-04-08T15:22:44Z</time></trkpt><trkpt lat="45.71811971185653" lon="11.223492078485116"><ele>666.3333333333334</ele><time>2026-04-08T15:22:46Z</time></trkpt><trkpt lat="45.71804886567422" lon="11.223575392088424"><ele>665.6666666666667</ele><time>2026-04-08T15:22:47Z</time></trkpt><trkpt lat="45.71797887689684" lon="11.223642948665985"><ele>665.0</ele><time>2026-04-08T15:22:48Z</time></trkpt><trkpt lat="45.71790552218054" lon="11.223724314186361"><ele>664.3333333333334</ele><time>2026-04-08T15:22:50Z</time></trkpt><trkpt lat="45.71788888457305" lon="11.223813185516464"><ele>663.6666666666666</ele><time>2026-04-08T15:22:52Z</time></trkpt><trkpt lat="45.71782355073728" lon="11.223890333322055"><ele>663.0</ele><time>2026-04-08T15:22:54Z</time></trkpt><trkpt lat="45.71773102515965" lon="11.22396769321039"><ele>668.0</ele><time>2026-04-08T15:22:56Z</time></trkpt><trkpt lat="45.717635845011316" lon="11.224052631728963"><ele>673.0</ele><time>2026-04-08T15:22:58Z</time></trkpt><trkpt lat="45.71751984581733" lon="11.224108621052457"><ele>678.0</ele><time>2026-04-08T15:23:00Z</time></trkpt><trkpt lat="45.71741662300231" lon="11.224174818903572"><ele>683.0</ele><time>2026-04-08T15:23:02Z</time></trkpt><trkpt lat="45.717328640262224" lon="11.224202025510412"><ele>688.0</ele><time>2026-04-08T15:23:04Z</time></trkpt><trkpt lat="45.71723141010906" lon="11.224261229998246"><ele>688.0</ele><time>2026-04-08T15:23:06Z</time></trkpt><trkpt lat="45.717170630537574" lon="11.22430818938125"><ele>688.0</ele><time>2026-04-08T15:23:07Z</time></trkpt><trkpt lat="45.717101171988176" lon="11.224347783301665"><ele>688.0</ele><time>2026-04-08T15:23:08Z</time></trkpt><trkpt lat="45.717024630605515" lon="11.224412983846156"><ele>688.0</ele><time>2026-04-08T15:23:10Z</time></trkpt><trkpt lat="45.71696546729357" lon="11.224490074873335"><ele>688.0</ele><time>2026-04-08T15:23:11Z</time></trkpt><trkpt lat="45.716899854082506" lon="11.224556544621437"><ele>688.0</ele><time>2026-04-08T15:23:12Z</time></trkpt><trkpt lat="45.716834311156234" lon="11.22460798705182"><ele>688.5</ele><time>2026-04-08T15:23:13Z</time></trkpt><trkpt lat="45.71675542448819" lon="11.224631200492118"><ele>689.0</ele><time>2026-04-08T15:23:14Z</time></trkpt><trkpt lat="45.716688635749165" lon="11.224651408189017"><ele>689.5</ele><time>2026-04-08T15:23:15Z</time></trkpt><trkpt lat="45.71658546590806" lon="11.224669509644809"><ele>690.0</ele><time>2026-04-08T15:23:17Z</time></trkpt><trkpt lat="45.71652229812603" lon="11.22468201614841"><ele>690.5</ele><time>2026-04-08T15:23:18Z</time></trkpt><trkpt lat="45.716427468724916" lon="11.224708083416312"><ele>691.0</ele><time>2026-04-08T15:23:20Z</time></trkpt><trkpt lat="45.716383525490485" lon="11.224808238939241"><ele>698.0</ele><time>2026-04-08T15:23:23Z</time></trkpt><trkpt lat="45.71634516082465" lon="11.224908158425034"><ele>705.0</ele><time>2026-04-08T15:23:25Z</time></trkpt><trkpt lat="45.71629422630696" lon="11.22506236490887"><ele>712.0</ele><time>2026-04-08T15:23:27Z</time></trkpt><trkpt lat="45.71624873270618" lon="11.225208294322476"><ele>719.0</ele><time>2026-04-08T15:23:29Z</time></trkpt><trkpt lat="45.7162092029739" lon="11.225314300373563"><ele>726.0</ele><time>2026-04-08T15:23:31Z</time></trkpt><trkpt lat="45.71615309920484" lon="11.225400911797069"><ele>722.4</ele><time>2026-04-08T15:23:33Z</time></trkpt><trkpt lat="45.71604903244317" lon="11.225454522012154"><ele>718.8</ele><time>2026-04-08T15:23:35Z</time></trkpt><trkpt lat="45.715986429675404" lon="11.2254874761074"><ele>715.1999999999999</ele><time>2026-04-08T15:23:36Z</time></trkpt><trkpt lat="45.715899062187866" lon="11.225577065510572"><ele>711.5999999999999</ele><time>2026-04-08T15:23:38Z</time></trkpt><trkpt lat="45.715836370563814" lon="11.225707020302229"><ele>708.0</ele><time>2026-04-08T15:23:40Z</time></trkpt><trkpt lat="45.71579765203839" lon="11.225794923256444"><ele>708.0</ele><time>2026-04-08T15:23:41Z</time></trkpt><trkpt lat="45.715754253086615" lon="11.225868955520324"><ele>708.0</ele><time>2026-04-08T15:23:42Z</time></trkpt><trkpt lat="45.71571183534309" lon="11.225957363655734"><ele>708.0</ele><time>2026-04-08T15:23:43Z</time></trkpt><trkpt lat="45.71566815055824" lon="11.22603099191663"><ele>708.0</ele><time>2026-04-08T15:23:44Z</time></trkpt><trkpt lat="45.71556991059398" lon="11.226148175410758"><ele>708.0</ele><time>2026-04-08T15:23:46Z</time></trkpt><trkpt lat="45.71551439257069" lon="11.226194580191422"><ele>708.0</ele><time>2026-04-08T15:23:47Z</time></trkpt><trkpt lat="45.71544713198449" lon="11.22623148005982"><ele>708.0</ele><time>2026-04-08T15:23:48Z</time></trkpt><trkpt lat="45.71538996116241" lon="11.226273607776156"><ele>708.0</ele><time>2026-04-08T15:23:49Z</time></trkpt><trkpt lat="45.71531004415527" lon="11.226374418370424"><ele>708.0</ele><time>2026-04-08T15:23:51Z</time></trkpt><trkpt lat="45.71524950449743" lon="11.226426889731895"><ele>708.0</ele><time>2026-04-08T15:23:53Z</time></trkpt><trkpt lat="45.71522607414186" lon="11.226306097687273"><ele>708.0</ele><time>2026-04-08T15:23:55Z</time></trkpt><trkpt lat="45.71527710596914" lon="11.226240878480573"><ele>708.0</ele><time>2026-04-08T15:23:56Z</time></trkpt><trkpt lat="45.7153534869654" lon="11.22616471088827"><ele>708.0</ele><time>2026-04-08T15:23:57Z</time></trkpt><trkpt lat="45.71539512520938" lon="11.226085227306807"><ele>708.0</ele><time>2026-04-08T15:23:58Z</time></trkpt><trkpt lat="45.71542202081927" lon="11.225923890762346"><ele>708.0</ele><time>2026-04-08T15:24:00Z</time></trkpt><trkpt lat="45.71541500606386" lon="11.225831886254149"><ele>708.0</ele><time>2026-04-08T15:24:01Z</time></trkpt><trkpt lat="45.71537824075008" lon="11.225751936178595"><ele>708.0</ele><time>2026-04-08T15:24:04Z</time></trkpt><trkpt lat="45.715327492592635" lon="11.225824738563256"><ele>708.0</ele><time>2026-04-08T15:24:06Z</time></trkpt><trkpt lat="45.71528026856268" lon="11.226009551726534"><ele>702.1666666666666</ele><time>2026-04-08T15:24:08Z</time></trkpt><trkpt lat="45.71518158456483" lon="11.226072997398509"><ele>696.3333333333334</ele><time>2026-04-08T15:24:10Z</time></trkpt><trkpt lat="45.715112376483106" lon="11.226107777978116"><ele>690.5</ele><time>2026-04-08T15:24:11Z</time></trkpt><trkpt lat="45.71504309628959" lon="11.226152641954988"><ele>684.6666666666667</ele><time>2026-04-08T15:24:12Z</time></trkpt><trkpt lat="45.71498172217541" lon="11.226193912088219"><ele>678.8333333333334</ele><time>2026-04-08T15:24:13Z</time></trkpt><trkpt lat="45.71491030116486" lon="11.226233199026503"><ele>673.0</ele><time>2026-04-08T15:24:14Z</time></trkpt><trkpt lat="45.71477770442262" lon="11.226270531425106"><ele>673.0</ele><time>2026-04-08T15:24:16Z</time></trkpt><trkpt lat="45.71465530682019" lon="11.2262253014433"><ele>673.0</ele><time>2026-04-08T15:24:18Z</time></trkpt><trkpt lat="45.7145950062286" lon="11.226192675900165"><ele>673.0</ele><time>2026-04-08T15:24:19Z</time></trkpt><trkpt lat="45.714533322245316" lon="11.226168359302024"><ele>673.0</ele><time>2026-04-08T15:24:20Z</time></trkpt><trkpt lat="45.7144618476517" lon="11.226155494123423"><ele>673.0</ele><time>2026-04-08T15:24:21Z</time></trkpt><trkpt lat="45.714377951591516" lon="11.226148996175134"><ele>673.0</ele><time>2026-04-08T15:24:22Z</time></trkpt><trkpt lat="45.714297443298946" lon="11.226150498834489"><ele>670.6666666666667</ele><time>2026-04-08T15:24:23Z</time></trkpt><trkpt lat="45.71420652620647" lon="11.226151330097785"><ele>668.3333333333334</ele><time>2026-04-08T15:24:24Z</time></trkpt><trkpt lat="45.71413248306613" lon="11.226136058335944"><ele>666.0</ele><time>2026-04-08T15:24:25Z</time></trkpt><trkpt lat="45.714049564466315" lon="11.22612181357634"><ele>663.6666666666666</ele><time>2026-04-08T15:24:26Z</time></trkpt><trkpt lat="45.71395881351331" lon="11.226094954026516"><ele>661.3333333333333</ele><time>2026-04-08T15:24:27Z</time></trkpt><trkpt lat="45.71386839905028" lon="11.226044230451864"><ele>659.0</ele><time>2026-04-08T15:24:28Z</time></trkpt><trkpt lat="45.7137960632752" lon="11.226009098670247"><ele>659.0</ele><time>2026-04-08T15:24:29Z</time></trkpt><trkpt lat="45.713677887758045" lon="11.225980381745899"><ele>659.0</ele><time>2026-04-08T15:24:31Z</time></trkpt><trkpt lat="45.71356180548354" lon="11.226040787974453"><ele>659.0</ele><time>2026-04-08T15:24:33Z</time></trkpt><trkpt lat="45.71349014939327" lon="11.22609111795844"><ele>659.0</ele><time>2026-04-08T15:24:34Z</time></trkpt><trkpt lat="45.71341286316235" lon="11.226149966502842"><ele>659.0</ele><time>2026-04-08T15:24:35Z</time></trkpt><trkpt lat="45.713329902495055" lon="11.226239906124936"><ele>658.8000000000001</ele><time>2026-04-08T15:24:36Z</time></trkpt><trkpt lat="45.71326458683893" lon="11.226333652518028"><ele>658.6</ele><time>2026-04-08T15:24:37Z</time></trkpt><trkpt lat="45.71321246499295" lon="11.226395818097076"><ele>658.4</ele><time>2026-04-08T15:24:38Z</time></trkpt><trkpt lat="45.713091015596596" lon="11.226526202502962"><ele>658.2</ele><time>2026-04-08T15:24:40Z</time></trkpt><trkpt lat="45.71302518364701" lon="11.226579368216992"><ele>658.0</ele><time>2026-04-08T15:24:41Z</time></trkpt><trkpt lat="45.712931633849976" lon="11.226644768501805"><ele>657.5</ele><time>2026-04-08T15:24:42Z</time></trkpt><trkpt lat="45.71285911287504" lon="11.226687530383387"><ele>657.0</ele><time>2026-04-08T15:24:43Z</time></trkpt><trkpt lat="45.712796776024085" lon="11.226725394405616"><ele>656.5</ele><time>2026-04-08T15:24:44Z</time></trkpt><trkpt lat="45.712699601848215" lon="11.226762533971097"><ele>656.0</ele><time>2026-04-08T15:24:46Z</time></trkpt><trkpt lat="45.71258150333212" lon="11.226708872195534"><ele>655.5</ele><time>2026-04-08T15:24:48Z</time></trkpt><trkpt lat="45.71252645275618" lon="11.226648426272774"><ele>655.0</ele><time>2026-04-08T15:24:49Z</time></trkpt><trkpt lat="45.712469300945315" lon="11.226608048963197"><ele>655.0</ele><time>2026-04-08T15:24:50Z</time></trkpt><trkpt lat="45.71240330851844" lon="11.226587291302994"><ele>655.0</ele><time>2026-04-08T15:24:51Z</time></trkpt><trkpt lat="45.712338299140804" lon="11.226582375145245"><ele>655.0</ele><time>2026-04-08T15:24:52Z</time></trkpt><trkpt lat="45.71226140265012" lon="11.226591138055213"><ele>655.0</ele><time>2026-04-08T15:24:53Z</time></trkpt><trkpt lat="45.712182408541764" lon="11.226605983168799"><ele>655.0</ele><time>2026-04-08T15:24:54Z</time></trkpt><trkpt lat="45.712079932748715" lon="11.226648771125102"><ele>655.0</ele><time>2026-04-08T15:24:55Z</time></trkpt><trkpt lat="45.711968692258594" lon="11.226702401939091"><ele>653.4</ele><time>2026-04-08T15:24:56Z</time></trkpt><trkpt lat="45.71185321034665" lon="11.22675012326906"><ele>651.8</ele><time>2026-04-08T15:24:57Z</time></trkpt><trkpt lat="45.711757633093434" lon="11.226777118390842"><ele>650.2</ele><time>2026-04-08T15:24:58Z</time></trkpt><trkpt lat="45.71166710823435" lon="11.226796981069821"><ele>648.6</ele><time>2026-04-08T15:24:59Z</time></trkpt><trkpt lat="45.71157019216614" lon="11.226807268267288"><ele>647.0</ele><time>2026-04-08T15:25:00Z</time></trkpt><trkpt lat="45.711459863614664" lon="11.22681782538454"><ele>647.0</ele><time>2026-04-08T15:25:01Z</time></trkpt><trkpt lat="45.71135154714218" lon="11.226843907894288"><ele>647.0</ele><time>2026-04-08T15:25:02Z</time></trkpt><trkpt lat="45.71126674094806" lon="11.226874380196506"><ele>647.0</ele><time>2026-04-08T15:25:03Z</time></trkpt><trkpt lat="45.71119431577746" lon="11.22689851557727"><ele>647.0</ele><time>2026-04-08T15:25:04Z</time></trkpt><trkpt lat="45.71109433972114" lon="11.226818709694244"><ele>647.0</ele><time>2026-04-08T15:25:05Z</time></trkpt><trkpt lat="45.71102963013207" lon="11.22696513831906"><ele>645.5</ele><time>2026-04-08T15:25:07Z</time></trkpt><trkpt lat="45.710923035105864" lon="11.227026780302914"><ele>644.0</ele><time>2026-04-08T15:25:09Z</time></trkpt><trkpt lat="45.71079400155722" lon="11.227080845490944"><ele>642.5</ele><time>2026-04-08T15:25:11Z</time></trkpt><trkpt lat="45.71069294694964" lon="11.227169157505001"><ele>641.0</ele><time>2026-04-08T15:25:13Z</time></trkpt><trkpt lat="45.710587751882606" lon="11.227182512680999"><ele>641.0</ele><time>2026-04-08T15:25:15Z</time></trkpt><trkpt lat="45.710511115906705" lon="11.227188489127503"><ele>641.0</ele><time>2026-04-08T15:25:16Z</time></trkpt><trkpt lat="45.710430571230035" lon="11.227191531168593"><ele>641.0</ele><time>2026-04-08T15:25:17Z</time></trkpt><trkpt lat="45.7103453158466" lon="11.227209707748973"><ele>641.0</ele><time>2026-04-08T15:25:18Z</time></trkpt><trkpt lat="45.71028797664666" lon="11.227278179428936"><ele>641.0</ele><time>2026-04-08T15:25:19Z</time></trkpt><trkpt lat="45.71019756855289" lon="11.227360472796061"><ele>641.0</ele><time>2026-04-08T15:25:21Z</time></trkpt><trkpt lat="45.7101247843989" lon="11.227462413934793"><ele>641.0</ele><time>2026-04-08T15:25:23Z</time></trkpt><trkpt lat="45.710063992089495" lon="11.227522312379126"><ele>641.0</ele><time>2026-04-08T15:25:24Z</time></trkpt><trkpt lat="45.71002750831958" lon="11.22762906053329"><ele>641.0</ele><time>2026-04-08T15:25:25Z</time></trkpt><trkpt lat="45.70999298723898" lon="11.227754580002777"><ele>641.0</ele><time>2026-04-08T15:25:26Z</time></trkpt><trkpt lat="45.70997762962031" lon="11.227897770577023"><ele>641.0</ele><time>2026-04-08T15:25:28Z</time></trkpt><trkpt lat="45.710012546116886" lon="11.228001621410003"><ele>641.0</ele><time>2026-04-08T15:25:30Z</time></trkpt><trkpt lat="45.71008444134085" lon="11.228046105038356"><ele>641.0</ele><time>2026-04-08T15:25:31Z</time></trkpt><trkpt lat="45.710150989522106" lon="11.228090234802234"><ele>641.0</ele><time>2026-04-08T15:25:32Z</time></trkpt><trkpt lat="45.71021866223332" lon="11.228145683670347"><ele>641.0</ele><time>2026-04-08T15:25:33Z</time></trkpt><trkpt lat="45.710291008818544" lon="11.228209920021088"><ele>641.0</ele><time>2026-04-08T15:25:34Z</time></trkpt><trkpt lat="45.71037588825502" lon="11.228284249511113"><ele>641.0</ele><time>2026-04-08T15:25:35Z</time></trkpt><trkpt lat="45.71045154738863" lon="11.22834479309774"><ele>641.0</ele><time>2026-04-08T15:25:36Z</time></trkpt><trkpt lat="45.71053669676203" lon="11.228410139153805"><ele>647.1999999999999</ele><time>2026-04-08T15:25:37Z</time></trkpt><trkpt lat="45.71060935425516" lon="11.228476088298164"><ele>653.4</ele><time>2026-04-08T15:25:38Z</time></trkpt><trkpt lat="45.71065788300597" lon="11.228541832860385"><ele>659.6</ele><time>2026-04-08T15:25:39Z</time></trkpt><trkpt lat="45.71070974669413" lon="11.228715836478635"><ele>665.8</ele><time>2026-04-08T15:25:41Z</time></trkpt><trkpt lat="45.71076572695483" lon="11.228853027983513"><ele>672.0</ele><time>2026-04-08T15:25:42Z</time></trkpt><trkpt lat="45.71083431107391" lon="11.228965323086662"><ele>669.5</ele><time>2026-04-08T15:25:43Z</time></trkpt><trkpt lat="45.71087601352538" lon="11.229068032089486"><ele>667.0</ele><time>2026-04-08T15:25:44Z</time></trkpt><trkpt lat="45.71090435708101" lon="11.229183743628251"><ele>664.5</ele><time>2026-04-08T15:25:45Z</time></trkpt><trkpt lat="45.71092501071264" lon="11.229290126690945"><ele>662.0</ele><time>2026-04-08T15:25:46Z</time></trkpt><trkpt lat="45.71094576837649" lon="11.2294161344429"><ele>659.5</ele><time>2026-04-08T15:25:47Z</time></trkpt><trkpt lat="45.71094685687265" lon="11.229514969291271"><ele>657.0</ele><time>2026-04-08T15:25:48Z</time></trkpt><trkpt lat="45.710900670880534" lon="11.229578108780673"><ele>657.0</ele><time>2026-04-08T15:25:49Z</time></trkpt><trkpt lat="45.7108694761595" lon="11.229694218542704"><ele>657.0</ele><time>2026-04-08T15:25:50Z</time></trkpt><trkpt lat="45.71084473777284" lon="11.229801320693472"><ele>657.0</ele><time>2026-04-08T15:25:51Z</time></trkpt><trkpt lat="45.710822171882626" lon="11.229975046709738"><ele>657.0</ele><time>2026-04-08T15:25:52Z</time></trkpt><trkpt lat="45.71080614548922" lon="11.230147008639438"><ele>657.0</ele><time>2026-04-08T15:25:53Z</time></trkpt><trkpt lat="45.7107882603827" lon="11.230295569803845"><ele>656.4000000000001</ele><time>2026-04-08T15:25:54Z</time></trkpt><trkpt lat="45.71076975883498" lon="11.2304230880706"><ele>655.8000000000001</ele><time>2026-04-08T15:25:55Z</time></trkpt><trkpt lat="45.71074045957124" lon="11.230546320293797"><ele>655.2</ele><time>2026-04-08T15:25:56Z</time></trkpt><trkpt lat="45.71069224916698" lon="11.230651538824239"><ele>654.6</ele><time>2026-04-08T15:25:57Z</time></trkpt><trkpt lat="45.710642266892975" lon="11.230746140377926"><ele>654.0</ele><time>2026-04-08T15:25:58Z</time></trkpt><trkpt lat="45.71058264539461" lon="11.230869599615653"><ele>654.0</ele><time>2026-04-08T15:25:59Z</time></trkpt><trkpt lat="45.710511679477975" lon="11.230968588931919"><ele>654.0</ele><time>2026-04-08T15:26:00Z</time></trkpt><trkpt lat="45.71044927419385" lon="11.231025170876386"><ele>654.0</ele><time>2026-04-08T15:26:01Z</time></trkpt><trkpt lat="45.71034008452777" lon="11.231085512593962"><ele>654.0</ele><time>2026-04-08T15:26:03Z</time></trkpt><trkpt lat="45.71026024247219" lon="11.231209883564492"><ele>654.0</ele><time>2026-04-08T15:26:05Z</time></trkpt><trkpt lat="45.71024356186698" lon="11.231314667991477"><ele>654.0</ele><time>2026-04-08T15:26:06Z</time></trkpt><trkpt lat="45.7102884118718" lon="11.231435392304855"><ele>654.0</ele><time>2026-04-08T15:26:07Z</time></trkpt><trkpt lat="45.71028005685887" lon="11.231557519520328"><ele>654.0</ele><time>2026-04-08T15:26:08Z</time></trkpt><trkpt lat="45.710258277085565" lon="11.231661887612647"><ele>654.0</ele><time>2026-04-08T15:26:09Z</time></trkpt><trkpt lat="45.71021727436775" lon="11.231778965828266"><ele>654.0</ele><time>2026-04-08T15:26:10Z</time></trkpt><trkpt lat="45.71018352440941" lon="11.231894027007478"><ele>654.0</ele><time>2026-04-08T15:26:11Z</time></trkpt><trkpt lat="45.71014947804574" lon="11.232014106449348"><ele>650.8333333333334</ele><time>2026-04-08T15:26:12Z</time></trkpt><trkpt lat="45.71012138738467" lon="11.232138554025925"><ele>647.6666666666666</ele><time>2026-04-08T15:26:13Z</time></trkpt><trkpt lat="45.71010191256804" lon="11.232250508064181"><ele>644.5</ele><time>2026-04-08T15:26:14Z</time></trkpt><trkpt lat="45.71008743436013" lon="11.232353719128305"><ele>641.3333333333333</ele><time>2026-04-08T15:26:15Z</time></trkpt><trkpt lat="45.71009201872268" lon="11.232484407568771"><ele>638.1666666666666</ele><time>2026-04-08T15:26:17Z</time></trkpt><trkpt lat="45.710179171125255" lon="11.232562716266413"><ele>635.0</ele><time>2026-04-08T15:26:19Z</time></trkpt><trkpt lat="45.71025747407267" lon="11.232534975779252"><ele>635.0</ele><time>2026-04-08T15:26:20Z</time></trkpt><trkpt lat="45.710332335900326" lon="11.23252159720315"><ele>635.0</ele><time>2026-04-08T15:26:21Z</time></trkpt><trkpt lat="45.71042176572836" lon="11.232489815667545"><ele>635.0</ele><time>2026-04-08T15:26:22Z</time></trkpt><trkpt lat="45.71049198037757" lon="11.232453987368439"><ele>635.0</ele><time>2026-04-08T15:26:23Z</time></trkpt><trkpt lat="45.71055807469377" lon="11.232398963073923"><ele>635.0</ele><time>2026-04-08T15:26:24Z</time></trkpt><trkpt lat="45.710609712629896" lon="11.23234598274537"><ele>635.0</ele><time>2026-04-08T15:26:25Z</time></trkpt><trkpt lat="45.710678863571" lon="11.232268760922828"><ele>635.0</ele><time>2026-04-08T15:26:26Z</time></trkpt><trkpt lat="45.710745411601685" lon="11.23222630884933"><ele>635.0</ele><time>2026-04-08T15:26:27Z</time></trkpt><trkpt lat="45.71083567695426" lon="11.232237299337088"><ele>635.0</ele><time>2026-04-08T15:26:28Z</time></trkpt><trkpt lat="45.710909281111455" lon="11.232249139202194"><ele>635.0</ele><time>2026-04-08T15:26:29Z</time></trkpt><trkpt lat="45.71098992082396" lon="11.232280408297449"><ele>635.0</ele><time>2026-04-08T15:26:30Z</time></trkpt><trkpt lat="45.711062455798704" lon="11.232316951023083"><ele>635.0</ele><time>2026-04-08T15:26:31Z</time></trkpt><trkpt lat="45.71114572556638" lon="11.232346717401786"><ele>634.5714285714286</ele><time>2026-04-08T15:26:33Z</time></trkpt><trkpt lat="45.7112243219626" lon="11.232432548801068"><ele>634.1428571428571</ele><time>2026-04-08T15:26:35Z</time></trkpt><trkpt lat="45.71128337237593" lon="11.232464465806734"><ele>633.7142857142858</ele><time>2026-04-08T15:26:36Z</time></trkpt><trkpt lat="45.71135787586072" lon="11.23247078969662"><ele>633.2857142857142</ele><time>2026-04-08T15:26:37Z</time></trkpt><trkpt lat="45.71142101291458" lon="11.232481086021503"><ele>632.8571428571429</ele><time>2026-04-08T15:26:38Z</time></trkpt><trkpt lat="45.71149036353356" lon="11.232491260109708"><ele>632.4285714285714</ele><time>2026-04-08T15:26:39Z</time></trkpt><trkpt lat="45.71155393363798" lon="11.232513124972776"><ele>632.0</ele><time>2026-04-08T15:26:40Z</time></trkpt><trkpt lat="45.71162120292213" lon="11.232575120570154"><ele>632.0</ele><time>2026-04-08T15:26:41Z</time></trkpt><trkpt lat="45.71168787984944" lon="11.232604084991976"><ele>632.0</ele><time>2026-04-08T15:26:42Z</time></trkpt><trkpt lat="45.71179906579875" lon="11.232555118839707"><ele>632.0</ele><time>2026-04-08T15:26:44Z</time></trkpt><trkpt lat="45.7118948862007" lon="11.232475187564974"><ele>632.0</ele><time>2026-04-08T15:26:46Z</time></trkpt><trkpt lat="45.711961232730935" lon="11.232393296871432"><ele>632.0</ele><time>2026-04-08T15:26:47Z</time></trkpt><trkpt lat="45.71200490032225" lon="11.23230376779617"><ele>637.2</ele><time>2026-04-08T15:26:48Z</time></trkpt><trkpt lat="45.71209851442038" lon="11.232175308636723"><ele>642.4000000000001</ele><time>2026-04-08T15:26:50Z</time></trkpt><trkpt lat="45.71214138295205" lon="11.232093068560106"><ele>647.5999999999999</ele><time>2026-04-08T15:26:51Z</time></trkpt><trkpt lat="45.7122077982409" lon="11.232009573240871"><ele>652.8</ele><time>2026-04-08T15:26:52Z</time></trkpt><trkpt lat="45.7122806568918" lon="11.231929376729138"><ele>658.0</ele><time>2026-04-08T15:26:53Z</time></trkpt><trkpt lat="45.71236862663353" lon="11.231814538626248"><ele>658.0</ele><time>2026-04-08T15:26:55Z</time></trkpt><trkpt lat="45.71243509383775" lon="11.23176693659608"><ele>658.0</ele><time>2026-04-08T15:26:57Z</time></trkpt><trkpt lat="45.71249408006568" lon="11.23179945741258"><ele>658.0</ele><time>2026-04-08T15:26:59Z</time></trkpt><trkpt lat="45.71253843752331" lon="11.23194216868622"><ele>658.0</ele><time>2026-04-08T15:27:01Z</time></trkpt><trkpt lat="45.712564027600685" lon="11.232033393666333"><ele>658.0</ele><time>2026-04-08T15:27:02Z</time></trkpt><trkpt lat="45.71258251496913" lon="11.232162635941494"><ele>658.0</ele><time>2026-04-08T15:27:03Z</time></trkpt><trkpt lat="45.712587488583246" lon="11.232292139555518"><ele>654.5</ele><time>2026-04-08T15:27:04Z</time></trkpt><trkpt lat="45.71259244158156" lon="11.232428108178244"><ele>651.0</ele><time>2026-04-08T15:27:05Z</time></trkpt><trkpt lat="45.71260114052253" lon="11.23255718802759"><ele>647.5</ele><time>2026-04-08T15:27:06Z</time></trkpt><trkpt lat="45.71260836319842" lon="11.232671083086627"><ele>644.0</ele><time>2026-04-08T15:27:07Z</time></trkpt><trkpt lat="45.712613964312155" lon="11.232781399045647"><ele>640.5</ele><time>2026-04-08T15:27:08Z</time></trkpt><trkpt lat="45.7126240634205" lon="11.232916450719095"><ele>637.0</ele><time>2026-04-08T15:27:09Z</time></trkpt><trkpt lat="45.71263445903775" lon="11.233075353466585"><ele>634.5</ele><time>2026-04-08T15:27:10Z</time></trkpt><trkpt lat="45.712637662129275" lon="11.233199858081601"><ele>632.0</ele><time>2026-04-08T15:27:11Z</time></trkpt><trkpt lat="45.71264552285269" lon="11.233299965485308"><ele>629.5</ele><time>2026-04-08T15:27:12Z</time></trkpt><trkpt lat="45.712664547533095" lon="11.233408829401046"><ele>627.0</ele><time>2026-04-08T15:27:13Z</time></trkpt><trkpt lat="45.7126871291244" lon="11.233514677148351"><ele>624.5</ele><time>2026-04-08T15:27:14Z</time></trkpt><trkpt lat="45.71271407695868" lon="11.233627997758257"><ele>622.0</ele><time>2026-04-08T15:27:15Z</time></trkpt><trkpt lat="45.7127265425589" lon="11.233740308389907"><ele>622.0</ele><time>2026-04-08T15:27:16Z</time></trkpt><trkpt lat="45.71272314859674" lon="11.23388127494167"><ele>622.0</ele><time>2026-04-08T15:27:17Z</time></trkpt><trkpt lat="45.712667023865976" lon="11.23399397452653"><ele>622.0</ele><time>2026-04-08T15:27:18Z</time></trkpt><trkpt lat="45.71267531558735" lon="11.234106091814962"><ele>622.0</ele><time>2026-04-08T15:27:19Z</time></trkpt><trkpt lat="45.71270124106559" lon="11.234238488783147"><ele>622.0</ele><time>2026-04-08T15:27:21Z</time></trkpt><trkpt lat="45.71278748193371" lon="11.234299704912852"><ele>620.5</ele><time>2026-04-08T15:27:23Z</time></trkpt><trkpt lat="45.712889771155155" lon="11.23423688169647"><ele>619.0</ele><time>2026-04-08T15:27:25Z</time></trkpt><trkpt lat="45.71293625202999" lon="11.234171233821838"><ele>617.5</ele><time>2026-04-08T15:27:26Z</time></trkpt><trkpt lat="45.71299288324171" lon="11.234092155944122"><ele>616.0</ele><time>2026-04-08T15:27:27Z</time></trkpt><trkpt lat="45.71305481138669" lon="11.233996659314991"><ele>614.5</ele><time>2026-04-08T15:27:28Z</time></trkpt><trkpt lat="45.71311454064765" lon="11.233893461637154"><ele>613.0</ele><time>2026-04-08T15:27:29Z</time></trkpt><trkpt lat="45.71317628429323" lon="11.233812456379182"><ele>618.8</ele><time>2026-04-08T15:27:30Z</time></trkpt><trkpt lat="45.713224611103136" lon="11.233754122913103"><ele>624.5999999999999</ele><time>2026-04-08T15:27:31Z</time></trkpt><trkpt lat="45.71328079204605" lon="11.233713072803301"><ele>630.4000000000001</ele><time>2026-04-08T15:27:32Z</time></trkpt><trkpt lat="45.713424222759556" lon="11.233728145653483"><ele>636.2</ele><time>2026-04-08T15:27:34Z</time></trkpt><trkpt lat="45.713513994329155" lon="11.233730056341155"><ele>642.0</ele><time>2026-04-08T15:27:35Z</time></trkpt><trkpt lat="45.713607940490434" lon="11.233699677114524"><ele>642.1666666666666</ele><time>2026-04-08T15:27:36Z</time></trkpt><trkpt lat="45.71368005770898" lon="11.233638856890034"><ele>642.3333333333334</ele><time>2026-04-08T15:27:37Z</time></trkpt><trkpt lat="45.713735989778236" lon="11.233563824769798"><ele>642.5</ele><time>2026-04-08T15:27:38Z</time></trkpt><trkpt lat="45.71379876615529" lon="11.233499141174715"><ele>642.6666666666667</ele><time>2026-04-08T15:27:39Z</time></trkpt><trkpt lat="45.713852752030355" lon="11.23345241349088"><ele>642.8333333333334</ele><time>2026-04-08T15:27:40Z</time></trkpt><trkpt lat="45.713943289982986" lon="11.23350564267202"><ele>643.0</ele><time>2026-04-08T15:27:42Z</time></trkpt><trkpt lat="45.713974806834024" lon="11.233584026023863"><ele>643.0</ele><time>2026-04-08T15:27:43Z</time></trkpt><trkpt lat="45.71396369986215" lon="11.233694233665519"><ele>643.0</ele><time>2026-04-08T15:27:44Z</time></trkpt><trkpt lat="45.71397539214591" lon="11.233797926663806"><ele>643.0</ele><time>2026-04-08T15:27:45Z</time></trkpt><trkpt lat="45.71397803182488" lon="11.233902018417053"><ele>643.0</ele><time>2026-04-08T15:27:46Z</time></trkpt><trkpt lat="45.7139689874387" lon="11.234031038165325"><ele>643.0</ele><time>2026-04-08T15:27:47Z</time></trkpt><trkpt lat="45.71395309686414" lon="11.234160571535257"><ele>643.0</ele><time>2026-04-08T15:27:48Z</time></trkpt><trkpt lat="45.71392675373303" lon="11.234270715548488"><ele>641.5</ele><time>2026-04-08T15:27:49Z</time></trkpt><trkpt lat="45.713880755799806" lon="11.234360624398468"><ele>640.0</ele><time>2026-04-08T15:27:50Z</time></trkpt><trkpt lat="45.71383887046881" lon="11.234497361360832"><ele>638.5</ele><time>2026-04-08T15:27:51Z</time></trkpt><trkpt lat="45.71381533531488" lon="11.234609832038627"><ele>637.0</ele><time>2026-04-08T15:27:52Z</time></trkpt><trkpt lat="45.71380375422943" lon="11.234710888074103"><ele>635.5</ele><time>2026-04-08T15:27:53Z</time></trkpt><trkpt lat="45.71379024662771" lon="11.234832579025447"><ele>634.0</ele><time>2026-04-08T15:27:55Z</time></trkpt><trkpt lat="45.713834750806036" lon="11.235033981485355"><ele>631.3333333333334</ele><time>2026-04-08T15:28:01Z</time></trkpt><trkpt lat="45.71395885865525" lon="11.23511991859753"><ele>628.6666666666666</ele><time>2026-04-08T15:28:03Z</time></trkpt><trkpt lat="45.714076331196615" lon="11.235179719435385"><ele>626.0</ele><time>2026-04-08T15:28:05Z</time></trkpt><trkpt lat="45.7140734312152" lon="11.234847250579218"><ele>627.3333333333333</ele><time>2026-04-08T15:28:09Z</time></trkpt><trkpt lat="45.71404964944756" lon="11.23471628649889"><ele>628.6666666666666</ele><time>2026-04-08T15:28:11Z</time></trkpt><trkpt lat="45.714070283233006" lon="11.2346238423266"><ele>630.0</ele><time>2026-04-08T15:28:12Z</time></trkpt><trkpt lat="45.71415011887654" lon="11.234575699668262"><ele>631.3333333333334</ele><time>2026-04-08T15:28:14Z</time></trkpt><trkpt lat="45.714239790841155" lon="11.2346726865759"><ele>632.6666666666667</ele><time>2026-04-08T15:28:16Z</time></trkpt><trkpt lat="45.714311134885016" lon="11.234696085127707"><ele>634.0</ele><time>2026-04-08T15:28:17Z</time></trkpt><trkpt lat="45.71439185594406" lon="11.234727829094012"><ele>635.6666666666667</ele><time>2026-04-08T15:28:18Z</time></trkpt><trkpt lat="45.71447709573699" lon="11.234752981401668"><ele>637.3333333333334</ele><time>2026-04-08T15:28:19Z</time></trkpt><trkpt lat="45.714549313404994" lon="11.234775456744677"><ele>639.0</ele><time>2026-04-08T15:28:20Z</time></trkpt><trkpt lat="45.71461263515274" lon="11.234798668115204"><ele>640.6666666666666</ele><time>2026-04-08T15:28:21Z</time></trkpt><trkpt lat="45.714674259217496" lon="11.23482005809207"><ele>642.3333333333333</ele><time>2026-04-08T15:28:22Z</time></trkpt><trkpt lat="45.71475934835765" lon="11.234845999692185"><ele>644.0</ele><time>2026-04-08T15:28:23Z</time></trkpt><trkpt lat="45.71483542467165" lon="11.234847398138877"><ele>648.0</ele><time>2026-04-08T15:28:24Z</time></trkpt><trkpt lat="45.71494943485103" lon="11.234796199808079"><ele>652.0</ele><time>2026-04-08T15:28:26Z</time></trkpt><trkpt lat="45.714993440598874" lon="11.234730625759337"><ele>656.0</ele><time>2026-04-08T15:28:27Z</time></trkpt><trkpt lat="45.71499017233185" lon="11.234554169118185"><ele>660.0</ele><time>2026-04-08T15:28:29Z</time></trkpt><trkpt lat="45.71494046886369" lon="11.234418394553074"><ele>664.0</ele><time>2026-04-08T15:28:31Z</time></trkpt><trkpt lat="45.71495861521802" lon="11.234284697267586"><ele>664.0</ele><time>2026-04-08T15:28:33Z</time></trkpt><trkpt lat="45.71503378522975" lon="11.23416980726292"><ele>664.0</ele><time>2026-04-08T15:28:35Z</time></trkpt><trkpt lat="45.7150913400104" lon="11.234120112891803"><ele>664.0</ele><time>2026-04-08T15:28:36Z</time></trkpt><trkpt lat="45.71516795642975" lon="11.234080970963571"><ele>664.0</ele><time>2026-04-08T15:28:37Z</time></trkpt><trkpt lat="45.71523892333567" lon="11.23405990848475"><ele>664.0</ele><time>2026-04-08T15:28:38Z</time></trkpt><trkpt lat="45.71532058593608" lon="11.234030597932243"><ele>664.0</ele><time>2026-04-08T15:28:39Z</time></trkpt><trkpt lat="45.71541673140883" lon="11.233984656647735"><ele>668.8000000000001</ele><time>2026-04-08T15:28:40Z</time></trkpt><trkpt lat="45.715502577271" lon="11.233933950199324"><ele>673.6</ele><time>2026-04-08T15:28:41Z</time></trkpt><trkpt lat="45.7155991613872" lon="11.233916127659812"><ele>678.4</ele><time>2026-04-08T15:28:43Z</time></trkpt><trkpt lat="45.715700009036304" lon="11.233981648263189"><ele>683.2</ele><time>2026-04-08T15:28:45Z</time></trkpt><trkpt lat="45.715745309851684" lon="11.234079904505547"><ele>688.0</ele><time>2026-04-08T15:28:46Z</time></trkpt><trkpt lat="45.71577582765338" lon="11.23418120643072"><ele>688.0</ele><time>2026-04-08T15:28:47Z</time></trkpt><trkpt lat="45.71583006436367" lon="11.234296485831461"><ele>688.0</ele><time>2026-04-08T15:28:48Z</time></trkpt><trkpt lat="45.715861668547596" lon="11.234384600025793"><ele>688.0</ele><time>2026-04-08T15:28:49Z</time></trkpt><trkpt lat="45.715913310820774" lon="11.234512905380576"><ele>688.0</ele><time>2026-04-08T15:28:51Z</time></trkpt><trkpt lat="45.71597625403573" lon="11.234577795564523"><ele>688.0</ele><time>2026-04-08T15:28:53Z</time></trkpt><trkpt lat="45.71608158904998" lon="11.23461287839109"><ele>688.5999999999999</ele><time>2026-04-08T15:28:55Z</time></trkpt><trkpt lat="45.716191560380274" lon="11.234575343183797"><ele>689.1999999999999</ele><time>2026-04-08T15:28:57Z</time></trkpt><trkpt lat="45.71626171813105" lon="11.234540136646373"><ele>689.8</ele><time>2026-04-08T15:28:58Z</time></trkpt><trkpt lat="45.716383518893416" lon="11.234473460007342"><ele>690.4</ele><time>2026-04-08T15:29:00Z</time></trkpt><trkpt lat="45.71646457914046" lon="11.234459093743338"><ele>691.0</ele><time>2026-04-08T15:29:01Z</time></trkpt><trkpt lat="45.71653780075633" lon="11.234438070122826"><ele>691.0</ele><time>2026-04-08T15:29:02Z</time></trkpt><trkpt lat="45.71660007917217" lon="11.234423131974985"><ele>691.0</ele><time>2026-04-08T15:29:03Z</time></trkpt><trkpt lat="45.71669688721247" lon="11.234342357235233"><ele>691.0</ele><time>2026-04-08T15:29:05Z</time></trkpt><trkpt lat="45.71675537449752" lon="11.234268158246975"><ele>691.0</ele><time>2026-04-08T15:29:06Z</time></trkpt><trkpt lat="45.71680169636497" lon="11.234196126849653"><ele>691.0</ele><time>2026-04-08T15:29:07Z</time></trkpt><trkpt lat="45.71686360461492" lon="11.234054882978578"><ele>691.0</ele><time>2026-04-08T15:29:09Z</time></trkpt><trkpt lat="45.71688421085611" lon="11.233896968354735"><ele>693.8571428571428</ele><time>2026-04-08T15:29:11Z</time></trkpt><trkpt lat="45.716878391997064" lon="11.233802627403586"><ele>696.7142857142857</ele><time>2026-04-08T15:29:12Z</time></trkpt><trkpt lat="45.71687224378734" lon="11.233700367213656"><ele>699.5714285714286</ele><time>2026-04-08T15:29:13Z</time></trkpt><trkpt lat="45.7168655834096" lon="11.23358267518187"><ele>702.4285714285713</ele><time>2026-04-08T15:29:14Z</time></trkpt><trkpt lat="45.71685822212884" lon="11.23345380358733"><ele>705.2857142857142</ele><time>2026-04-08T15:29:15Z</time></trkpt><trkpt lat="45.71686379397199" lon="11.233361489638655"><ele>708.1428571428571</ele><time>2026-04-08T15:29:16Z</time></trkpt><trkpt lat="45.71688135783953" lon="11.233262669608877"><ele>711.0</ele><time>2026-04-08T15:29:17Z</time></trkpt><trkpt lat="45.71689889825425" lon="11.233163824408594"><ele>711.0</ele><time>2026-04-08T15:29:18Z</time></trkpt><trkpt lat="45.71690763565408" lon="11.232995192398196"><ele>711.0</ele><time>2026-04-08T15:29:20Z</time></trkpt><trkpt lat="45.71693304845533" lon="11.232890525924216"><ele>711.0</ele><time>2026-04-08T15:29:22Z</time></trkpt><trkpt lat="45.71699935811174" lon="11.23287108887883"><ele>711.0</ele><time>2026-04-08T15:29:24Z</time></trkpt><trkpt lat="45.717096775665155" lon="11.232994139926092"><ele>711.0</ele><time>2026-04-08T15:29:26Z</time></trkpt><trkpt lat="45.71714081343745" lon="11.233105271411173"><ele>707.8333333333334</ele><time>2026-04-08T15:29:27Z</time></trkpt><trkpt lat="45.71717911047282" lon="11.23319845052807"><ele>704.6666666666666</ele><time>2026-04-08T15:29:28Z</time></trkpt><trkpt lat="45.71723331664834" lon="11.233318947102353"><ele>701.5</ele><time>2026-04-08T15:29:29Z</time></trkpt><trkpt lat="45.717278786920204" lon="11.233395215971614"><ele>698.3333333333333</ele><time>2026-04-08T15:29:30Z</time></trkpt><trkpt lat="45.71735242071391" lon="11.233475353714585"><ele>695.1666666666666</ele><time>2026-04-08T15:29:32Z</time></trkpt><trkpt lat="45.7174307726712" lon="11.233480888547069"><ele>692.0</ele><time>2026-04-08T15:29:34Z</time></trkpt><trkpt lat="45.71754929383984" lon="11.233406374332027"><ele>692.0</ele><time>2026-04-08T15:29:36Z</time></trkpt><trkpt lat="45.71759873860673" lon="11.233340515470827"><ele>692.0</ele><time>2026-04-08T15:29:37Z</time></trkpt><trkpt lat="45.71767228201596" lon="11.233257320172326"><ele>692.0</ele><time>2026-04-08T15:29:38Z</time></trkpt><trkpt lat="45.71773183749816" lon="11.233150999579054"><ele>692.0</ele><time>2026-04-08T15:29:39Z</time></trkpt><trkpt lat="45.717788009265625" lon="11.233069921553827"><ele>692.0</ele><time>2026-04-08T15:29:40Z</time></trkpt><trkpt lat="45.717847226017405" lon="11.233034429160991"><ele>692.0</ele><time>2026-04-08T15:29:41Z</time></trkpt><trkpt lat="45.71795870002555" lon="11.23308505834086"><ele>690.6666666666666</ele><time>2026-04-08T15:29:43Z</time></trkpt><trkpt lat="45.718027838096894" lon="11.233145167545441"><ele>689.3333333333333</ele><time>2026-04-08T15:29:44Z</time></trkpt><trkpt lat="45.71809248498998" lon="11.233227515689096"><ele>688.0</ele><time>2026-04-08T15:29:45Z</time></trkpt><trkpt lat="45.718128993007554" lon="11.233314778183896"><ele>686.6666666666666</ele><time>2026-04-08T15:29:46Z</time></trkpt><trkpt lat="45.71815138717095" lon="11.23346071012146"><ele>685.3333333333334</ele><time>2026-04-08T15:29:48Z</time></trkpt><trkpt lat="45.71814295643262" lon="11.23356143465898"><ele>684.0</ele><time>2026-04-08T15:29:49Z</time></trkpt><trkpt lat="45.718128420115406" lon="11.233660718719324"><ele>684.0</ele><time>2026-04-08T15:29:50Z</time></trkpt><trkpt lat="45.71810298927994" lon="11.233775048157062"><ele>684.0</ele><time>2026-04-08T15:29:51Z</time></trkpt><trkpt lat="45.71804668143183" lon="11.2339119634471"><ele>684.0</ele><time>2026-04-08T15:29:53Z</time></trkpt><trkpt lat="45.71800094377983" lon="11.23402790780309"><ele>684.0</ele><time>2026-04-08T15:29:55Z</time></trkpt><trkpt lat="45.71800196128666" lon="11.234121271790157"><ele>684.0</ele><time>2026-04-08T15:29:57Z</time></trkpt><trkpt lat="45.718027866514376" lon="11.234263352998594"><ele>686.0</ele><time>2026-04-08T15:29:59Z</time></trkpt><trkpt lat="45.718044755682044" lon="11.234395603354338"><ele>688.0</ele><time>2026-04-08T15:30:01Z</time></trkpt><trkpt lat="45.71802983535199" lon="11.234554723210996"><ele>690.0</ele><time>2026-04-08T15:30:03Z</time></trkpt><trkpt lat="45.71805318923939" lon="11.234652234482729"><ele>692.0</ele><time>2026-04-08T15:30:11Z</time></trkpt><trkpt lat="45.71816686876945" lon="11.234665311020303"><ele>694.0</ele><time>2026-04-08T15:30:13Z</time></trkpt><trkpt lat="45.718279125884614" lon="11.2346706427956"><ele>694.0</ele><time>2026-04-08T15:30:15Z</time></trkpt><trkpt lat="45.718390273851824" lon="11.234665994339606"><ele>694.0</ele><time>2026-04-08T15:30:17Z</time></trkpt><trkpt lat="45.71845721097838" lon="11.234664379686206"><ele>694.0</ele><time>2026-04-08T15:30:18Z</time></trkpt><trkpt lat="45.71853278370323" lon="11.234663124666268"><ele>694.0</ele><time>2026-04-08T15:30:19Z</time></trkpt><trkpt lat="45.71860792079217" lon="11.234661273397494"><ele>694.0</ele><time>2026-04-08T15:30:20Z</time></trkpt><trkpt lat="45.71869123882989" lon="11.23467365758643"><ele>694.0</ele><time>2026-04-08T15:30:21Z</time></trkpt><trkpt lat="45.718760270543704" lon="11.234661084021774"><ele>694.25</ele><time>2026-04-08T15:30:22Z</time></trkpt><trkpt lat="45.71880691460118" lon="11.23476061562695"><ele>694.5</ele><time>2026-04-08T15:30:23Z</time></trkpt><trkpt lat="45.718882905226174" lon="11.234899423954555"><ele>694.75</ele><time>2026-04-08T15:30:25Z</time></trkpt><trkpt lat="45.71889151896238" lon="11.235065574807946"><ele>695.0</ele><time>2026-04-08T15:30:27Z</time></trkpt><trkpt lat="45.718838272304644" lon="11.235240933524375"><ele>695.0</ele><time>2026-04-08T15:30:29Z</time></trkpt><trkpt lat="45.718808802274076" lon="11.235342186048891"><ele>695.0</ele><time>2026-04-08T15:30:30Z</time></trkpt><trkpt lat="45.71875289560367" lon="11.23550954081625"><ele>695.0</ele><time>2026-04-08T15:30:32Z</time></trkpt><trkpt lat="45.718640650335125" lon="11.235598444362964"><ele>695.0</ele><time>2026-04-08T15:30:34Z</time></trkpt><trkpt lat="45.71856739913288" lon="11.235675607612771"><ele>695.0</ele><time>2026-04-08T15:30:35Z</time></trkpt><trkpt lat="45.718490378441" lon="11.235756742870235"><ele>695.0</ele><time>2026-04-08T15:30:36Z</time></trkpt><trkpt lat="45.71843058511722" lon="11.235819730445318"><ele>695.0</ele><time>2026-04-08T15:30:37Z</time></trkpt><trkpt lat="45.71837638402459" lon="11.235876827042679"><ele>695.0</ele><time>2026-04-08T15:30:38Z</time></trkpt><trkpt lat="45.71844833013733" lon="11.236170050547896"><ele>695.0</ele><time>2026-04-08T15:30:39Z</time></trkpt><trkpt lat="45.71841743123661" lon="11.236249669539324"><ele>695.0</ele><time>2026-04-08T15:30:40Z</time></trkpt><trkpt lat="45.71838449361845" lon="11.236332159337882"><ele>695.0</ele><time>2026-04-08T15:30:41Z</time></trkpt><trkpt lat="45.71838033367981" lon="11.236424211483133"><ele>695.0</ele><time>2026-04-08T15:30:43Z</time></trkpt><trkpt lat="45.718381270865066" lon="11.236530390452755"><ele>695.0</ele><time>2026-04-08T15:31:45Z</time></trkpt><trkpt lat="45.7184211721101" lon="11.23667239829431"><ele>695.0</ele><time>2026-04-08T15:31:47Z</time></trkpt><trkpt lat="45.7184404813949" lon="11.236764374603018"><ele>695.0</ele><time>2026-04-08T15:31:48Z</time></trkpt><trkpt lat="45.71844918150118" lon="11.23687233140551"><ele>695.0</ele><time>2026-04-08T15:31:49Z</time></trkpt><trkpt lat="45.71846679259082" lon="11.237012205088968"><ele>694.0000000000001</ele><time>2026-04-08T15:31:51Z</time></trkpt><trkpt lat="45.71849934834804" lon="11.23709121204486"><ele>693.0</ele><time>2026-04-08T15:31:53Z</time></trkpt><trkpt lat="45.71855967008806" lon="11.237196495738115"><ele>692.0</ele><time>2026-04-08T15:32:00Z</time></trkpt><trkpt lat="45.718613914896714" lon="11.237273863283168"><ele>691.0</ele><time>2026-04-08T15:32:01Z</time></trkpt><trkpt lat="45.718674386303704" lon="11.237317257261138"><ele>690.0</ele><time>2026-04-08T15:32:02Z</time></trkpt><trkpt lat="45.71874246700928" lon="11.23732329689309"><ele>689.0000000000001</ele><time>2026-04-08T15:32:03Z</time></trkpt><trkpt lat="45.71881533470212" lon="11.23730051510757"><ele>688.0</ele><time>2026-04-08T15:32:04Z</time></trkpt><trkpt lat="45.718876031508195" lon="11.237262972155392"><ele>688.0</ele><time>2026-04-08T15:32:05Z</time></trkpt><trkpt lat="45.71895904958022" lon="11.237230960582497"><ele>688.0</ele><time>2026-04-08T15:32:06Z</time></trkpt><trkpt lat="45.7190375020522" lon="11.237202009907246"><ele>688.0</ele><time>2026-04-08T15:32:07Z</time></trkpt><trkpt lat="45.719125152589726" lon="11.237181452913044"><ele>688.0</ele><time>2026-04-08T15:32:09Z</time></trkpt><trkpt lat="45.71922733349076" lon="11.237225264292247"><ele>688.0</ele><time>2026-04-08T15:32:11Z</time></trkpt><trkpt lat="45.71928442427258" lon="11.237324821509004"><ele>688.2</ele><time>2026-04-08T15:32:13Z</time></trkpt><trkpt lat="45.71932145939583" lon="11.237443427086419"><ele>688.4</ele><time>2026-04-08T15:32:15Z</time></trkpt><trkpt lat="45.7194049715129" lon="11.237468406041208"><ele>688.6</ele><time>2026-04-08T15:32:16Z</time></trkpt><trkpt lat="45.71953021043917" lon="11.23746001102108"><ele>688.8000000000001</ele><time>2026-04-08T15:32:18Z</time></trkpt><trkpt lat="45.71961383226292" lon="11.237503348965019"><ele>689.0</ele><time>2026-04-08T15:32:20Z</time></trkpt><trkpt lat="45.719689997036745" lon="11.23766181287137"><ele>689.0</ele><time>2026-04-08T15:32:22Z</time></trkpt><trkpt lat="45.71974523415932" lon="11.237739378454187"><ele>689.0</ele><time>2026-04-08T15:32:23Z</time></trkpt><trkpt lat="45.71983684656764" lon="11.237765907730731"><ele>689.0</ele><time>2026-04-08T15:32:25Z</time></trkpt><trkpt lat="45.71996003117796" lon="11.237713323969404"><ele>689.0</ele><time>2026-04-08T15:32:27Z</time></trkpt><trkpt lat="45.72002758286709" lon="11.237668637921105"><ele>689.0</ele><time>2026-04-08T15:32:28Z</time></trkpt><trkpt lat="45.72011042150992" lon="11.23760743943823"><ele>689.0</ele><time>2026-04-08T15:32:29Z</time></trkpt><trkpt lat="45.72018537070564" lon="11.23751962048875"><ele>689.0</ele><time>2026-04-08T15:32:31Z</time></trkpt><trkpt lat="45.720293524443726" lon="11.2375160948178"><ele>689.0</ele><time>2026-04-08T15:32:34Z</time></trkpt><trkpt lat="45.720356596479085" lon="11.237526720711054"><ele>689.0</ele><time>2026-04-08T15:32:35Z</time></trkpt><trkpt lat="45.72048468439378" lon="11.237584145507677"><ele>689.0</ele><time>2026-04-08T15:32:37Z</time></trkpt><trkpt lat="45.7205673323968" lon="11.237609484331623"><ele>687.4000000000001</ele><time>2026-04-08T15:32:38Z</time></trkpt><trkpt lat="45.720641837972416" lon="11.237620136160267"><ele>685.8</ele><time>2026-04-08T15:32:39Z</time></trkpt><trkpt lat="45.72077499046853" lon="11.237672830892988"><ele>684.2</ele><time>2026-04-08T15:32:41Z</time></trkpt><trkpt lat="45.72087626868427" lon="11.237749588478257"><ele>682.5999999999999</ele><time>2026-04-08T15:32:43Z</time></trkpt><trkpt lat="45.720932285052776" lon="11.237854969960805"><ele>681.0</ele><time>2026-04-08T15:32:45Z</time></trkpt><trkpt lat="45.720959982387534" lon="11.237977831566639"><ele>681.0</ele><time>2026-04-08T15:32:47Z</time></trkpt><trkpt lat="45.72096527970603" lon="11.23812937405849"><ele>681.0</ele><time>2026-04-08T15:32:50Z</time></trkpt><trkpt lat="45.720923252865646" lon="11.238232119660623"><ele>681.0</ele><time>2026-04-08T15:32:52Z</time></trkpt><trkpt lat="45.72083928518363" lon="11.238366674700442"><ele>681.0</ele><time>2026-04-08T15:32:54Z</time></trkpt><trkpt lat="45.72081089419334" lon="11.238453552259594"><ele>681.0</ele><time>2026-04-08T15:32:55Z</time></trkpt><trkpt lat="45.72079598328007" lon="11.238634746942095"><ele>682.8333333333334</ele><time>2026-04-08T15:32:57Z</time></trkpt><trkpt lat="45.720760236467434" lon="11.238792616704005"><ele>684.6666666666666</ele><time>2026-04-08T15:32:59Z</time></trkpt><trkpt lat="45.72074306496332" lon="11.238881303480083"><ele>686.5</ele><time>2026-04-08T15:33:00Z</time></trkpt><trkpt lat="45.72072408844277" lon="11.238983968963923"><ele>688.3333333333333</ele><time>2026-04-08T15:33:01Z</time></trkpt><trkpt lat="45.720761112135335" lon="11.239150402130328"><ele>690.1666666666666</ele><time>2026-04-08T15:33:03Z</time></trkpt><trkpt lat="45.72080180577697" lon="11.239226971222305"><ele>692.0</ele><time>2026-04-08T15:33:04Z</time></trkpt><trkpt lat="45.72087037420018" lon="11.239355351401437"><ele>692.0</ele><time>2026-04-08T15:33:06Z</time></trkpt><trkpt lat="45.72093155407675" lon="11.239491398180812"><ele>692.0</ele><time>2026-04-08T15:33:08Z</time></trkpt><trkpt lat="45.720977724913475" lon="11.239553450454988"><ele>692.0</ele><time>2026-04-08T15:33:09Z</time></trkpt><trkpt lat="45.72102988071628" lon="11.239640271333577"><ele>692.0</ele><time>2026-04-08T15:33:11Z</time></trkpt><trkpt lat="45.7210521318353" lon="11.239770715561145"><ele>692.0</ele><time>2026-04-08T15:33:13Z</time></trkpt><trkpt lat="45.72108703866766" lon="11.239873080242287"><ele>692.0</ele><time>2026-04-08T15:33:15Z</time></trkpt><trkpt lat="45.72116694957902" lon="11.239902950811377"><ele>683.8</ele><time>2026-04-08T15:33:17Z</time></trkpt><trkpt lat="45.72123159600156" lon="11.239926126146512"><ele>675.6</ele><time>2026-04-08T15:33:19Z</time></trkpt><trkpt lat="45.72133151841241" lon="11.24003825505372"><ele>667.4</ele><time>2026-04-08T15:33:22Z</time></trkpt><trkpt lat="45.72138103271843" lon="11.240116249047594"><ele>659.1999999999999</ele><time>2026-04-08T15:33:23Z</time></trkpt><trkpt lat="45.721451646687996" lon="11.240273560600876"><ele>651.0</ele><time>2026-04-08T15:33:25Z</time></trkpt><trkpt lat="45.72148383434354" lon="11.240431662709344"><ele>651.0</ele><time>2026-04-08T15:33:27Z</time></trkpt><trkpt lat="45.721529036414196" lon="11.240562743598653"><ele>651.0</ele><time>2026-04-08T15:33:29Z</time></trkpt><trkpt lat="45.721541320179256" lon="11.240717483727924"><ele>651.0</ele><time>2026-04-08T15:33:31Z</time></trkpt><trkpt lat="45.72153890192441" lon="11.240903167821237"><ele>651.0</ele><time>2026-04-08T15:33:33Z</time></trkpt><trkpt lat="45.721587311102375" lon="11.241075093432778"><ele>650.6666666666666</ele><time>2026-04-08T15:33:35Z</time></trkpt><trkpt lat="45.72162427415589" lon="11.241155176809299"><ele>650.3333333333334</ele><time>2026-04-08T15:33:36Z</time></trkpt><trkpt lat="45.72165048553613" lon="11.241244593948338"><ele>650.0</ele><time>2026-04-08T15:33:37Z</time></trkpt><trkpt lat="45.72164372297836" lon="11.241437223007216"><ele>649.6666666666667</ele><time>2026-04-08T15:33:39Z</time></trkpt><trkpt lat="45.721613412869516" lon="11.241525151037015"><ele>649.3333333333334</ele><time>2026-04-08T15:33:40Z</time></trkpt><trkpt lat="45.72155917499443" lon="11.241645643846073"><ele>649.0</ele><time>2026-04-08T15:33:42Z</time></trkpt><trkpt lat="45.721506787677995" lon="11.241714060494797"><ele>649.0</ele><time>2026-04-08T15:33:43Z</time></trkpt><trkpt lat="45.72144331343901" lon="11.241725455248503"><ele>649.0</ele><time>2026-04-08T15:33:44Z</time></trkpt><trkpt lat="45.72135150264243" lon="11.241791647398378"><ele>649.0</ele><time>2026-04-08T15:33:46Z</time></trkpt><trkpt lat="45.72128947634572" lon="11.241889695695754"><ele>649.0</ele><time>2026-04-08T15:33:48Z</time></trkpt><trkpt lat="45.72130797947648" lon="11.242039594961819"><ele>649.0</ele><time>2026-04-08T15:33:50Z</time></trkpt><trkpt lat="45.72133243009013" lon="11.242152664255336"><ele>649.0</ele><time>2026-04-08T15:33:51Z</time></trkpt><trkpt lat="45.721334833055415" lon="11.242244154214932"><ele>647.6</ele><time>2026-04-08T15:33:52Z</time></trkpt><trkpt lat="45.72132877735699" lon="11.242387870647729"><ele>646.2</ele><time>2026-04-08T15:33:54Z</time></trkpt><trkpt lat="45.72127656457262" lon="11.242460280164867"><ele>644.8000000000001</ele><time>2026-04-08T15:33:56Z</time></trkpt><trkpt lat="45.72119631867443" lon="11.242515545514793"><ele>643.4000000000001</ele><time>2026-04-08T15:33:58Z</time></trkpt><trkpt lat="45.721176736354735" lon="11.242673809450418"><ele>642.0</ele><time>2026-04-08T15:34:00Z</time></trkpt><trkpt lat="45.72115640314906" lon="11.242853849370654"><ele>642.0</ele><time>2026-04-08T15:34:02Z</time></trkpt><trkpt lat="45.721178689967005" lon="11.242989252559628"><ele>642.0</ele><time>2026-04-08T15:34:04Z</time></trkpt><trkpt lat="45.721209213272616" lon="11.24315550022622"><ele>642.0</ele><time>2026-04-08T15:34:06Z</time></trkpt><trkpt lat="45.721210945923616" lon="11.243264762134539"><ele>642.0</ele><time>2026-04-08T15:34:07Z</time></trkpt><trkpt lat="45.72123596557333" lon="11.243350059034096"><ele>642.0</ele><time>2026-04-08T15:34:08Z</time></trkpt><trkpt lat="45.721314936668655" lon="11.243454937330435"><ele>643.0</ele><time>2026-04-08T15:34:10Z</time></trkpt><trkpt lat="45.721367829637636" lon="11.243517659691463"><ele>644.0</ele><time>2026-04-08T15:34:11Z</time></trkpt><trkpt lat="45.72142638767053" lon="11.243626388969155"><ele>645.0</ele><time>2026-04-08T15:34:13Z</time></trkpt><trkpt lat="45.72143554998305" lon="11.243727244922436"><ele>646.0</ele><time>2026-04-08T15:34:15Z</time></trkpt><trkpt lat="45.72144633381285" lon="11.243831289272395"><ele>647.0</ele><time>2026-04-08T15:34:16Z</time></trkpt><trkpt lat="45.72142572126612" lon="11.243943238151761"><ele>648.0</ele><time>2026-04-08T15:34:18Z</time></trkpt><trkpt lat="45.721441936465034" lon="11.244081136860316"><ele>649.8</ele><time>2026-04-08T15:34:20Z</time></trkpt><trkpt lat="45.721511737451415" lon="11.24414240075063"><ele>651.5999999999999</ele><time>2026-04-08T15:34:22Z</time></trkpt><trkpt lat="45.72156063709475" lon="11.244209215044787"><ele>653.4000000000001</ele><time>2026-04-08T15:34:24Z</time></trkpt><trkpt lat="45.72162994773283" lon="11.244358093772071"><ele>655.2</ele><time>2026-04-08T15:34:26Z</time></trkpt><trkpt lat="45.7216640263497" lon="11.244510016387197"><ele>657.0</ele><time>2026-04-08T15:34:28Z</time></trkpt><trkpt lat="45.7216517720861" lon="11.244603691999911"><ele>657.0</ele><time>2026-04-08T15:34:29Z</time></trkpt><trkpt lat="45.721636382921574" lon="11.244719188170588"><ele>657.0</ele><time>2026-04-08T15:34:31Z</time></trkpt><trkpt lat="45.72166494386157" lon="11.244867933518023"><ele>657.0</ele><time>2026-04-08T15:34:33Z</time></trkpt><trkpt lat="45.721669092116805" lon="11.244965710587278"><ele>657.0</ele><time>2026-04-08T15:34:34Z</time></trkpt><trkpt lat="45.72168551009846" lon="11.245055824937028"><ele>657.0</ele><time>2026-04-08T15:34:35Z</time></trkpt><trkpt lat="45.72171701541769" lon="11.245133978593808"><ele>657.0</ele><time>2026-04-08T15:34:36Z</time></trkpt><trkpt lat="45.72176039430521" lon="11.245228453216898"><ele>656.4000000000001</ele><time>2026-04-08T15:34:37Z</time></trkpt><trkpt lat="45.72180195569876" lon="11.245330725979752"><ele>655.8000000000001</ele><time>2026-04-08T15:34:38Z</time></trkpt><trkpt lat="45.72188664854222" lon="11.245467282554594"><ele>655.2</ele><time>2026-04-08T15:34:40Z</time></trkpt><trkpt lat="45.72194693656962" lon="11.245550997194677"><ele>654.6</ele><time>2026-04-08T15:34:42Z</time></trkpt><trkpt lat="45.72204198996669" lon="11.2456273195075"><ele>654.0</ele><time>2026-04-08T15:34:44Z</time></trkpt><trkpt lat="45.722105951459184" lon="11.245638677830321"><ele>653.4000000000001</ele><time>2026-04-08T15:34:45Z</time></trkpt><trkpt lat="45.72221631198788" lon="11.245679360771291"><ele>652.8</ele><time>2026-04-08T15:34:47Z</time></trkpt><trkpt lat="45.72228535306287" lon="11.24576461805813"><ele>652.2</ele><time>2026-04-08T15:34:49Z</time></trkpt><trkpt lat="45.722342153028855" lon="11.245844166476344"><ele>651.5999999999999</ele><time>2026-04-08T15:34:51Z</time></trkpt><trkpt lat="45.72240266946656" lon="11.245956542799815"><ele>651.0</ele><time>2026-04-08T15:34:53Z</time></trkpt><trkpt lat="45.72248203415127" lon="11.246026043256025"><ele>651.0</ele><time>2026-04-08T15:34:55Z</time></trkpt><trkpt lat="45.72258767605055" lon="11.246011472549228"><ele>651.0</ele><time>2026-04-08T15:34:57Z</time></trkpt><trkpt lat="45.722679285000844" lon="11.246009113675754"><ele>651.0</ele><time>2026-04-08T15:34:59Z</time></trkpt><trkpt lat="45.72276499638792" lon="11.245977928339615"><ele>651.0</ele><time>2026-04-08T15:35:03Z</time></trkpt><trkpt lat="45.72272005344996" lon="11.246080161218226"><ele>651.0</ele><time>2026-04-08T15:35:14Z</time></trkpt><trkpt lat="45.72274392420298" lon="11.24619492923138"><ele>653.0</ele><time>2026-04-08T15:35:16Z</time></trkpt><trkpt lat="45.72280946448021" lon="11.246380357253118"><ele>655.0</ele><time>2026-04-08T15:35:18Z</time></trkpt><trkpt lat="45.722842262990156" lon="11.24646898141045"><ele>657.0</ele><time>2026-04-08T15:35:19Z</time></trkpt><trkpt lat="45.72281639567063" lon="11.246593619722823"><ele>659.0</ele><time>2026-04-08T15:35:20Z</time></trkpt><trkpt lat="45.72284757204534" lon="11.246708866962964"><ele>661.0</ele><time>2026-04-08T15:35:21Z</time></trkpt><trkpt lat="45.72288677246604" lon="11.24681096249905"><ele>661.6666666666667</ele><time>2026-04-08T15:35:22Z</time></trkpt><trkpt lat="45.72292223217314" lon="11.246890327727737"><ele>662.3333333333334</ele><time>2026-04-08T15:35:23Z</time></trkpt><trkpt lat="45.72297418811722" lon="11.247010806920388"><ele>663.0</ele><time>2026-04-08T15:35:25Z</time></trkpt><trkpt lat="45.72300683863552" lon="11.247088217059419"><ele>663.6666666666666</ele><time>2026-04-08T15:35:28Z</time></trkpt><trkpt lat="45.723088911969576" lon="11.247193704779246"><ele>664.3333333333333</ele><time>2026-04-08T15:36:10Z</time></trkpt><trkpt lat="45.723122999775235" lon="11.247292130914962"><ele>665.0</ele><time>2026-04-08T15:36:11Z</time></trkpt><trkpt lat="45.72315758384251" lon="11.24740535801485"><ele>663.3333333333333</ele><time>2026-04-08T15:36:13Z</time></trkpt><trkpt lat="45.7231898796995" lon="11.24752187883474"><ele>661.6666666666666</ele><time>2026-04-08T15:36:14Z</time></trkpt><trkpt lat="45.723222725361595" lon="11.247652081970754"><ele>660.0</ele><time>2026-04-08T15:36:15Z</time></trkpt><trkpt lat="45.72325244478166" lon="11.247756417506402"><ele>658.3333333333334</ele><time>2026-04-08T15:36:16Z</time></trkpt><trkpt lat="45.723283419968276" lon="11.247856980585722"><ele>656.6666666666667</ele><time>2026-04-08T15:36:17Z</time></trkpt><trkpt lat="45.72331966161694" lon="11.24795211163497"><ele>655.0</ele><time>2026-04-08T15:36:18Z</time></trkpt><trkpt lat="45.72337160591187" lon="11.248054139650726"><ele>656.0</ele><time>2026-04-08T15:36:19Z</time></trkpt><trkpt lat="45.7234509212777" lon="11.248215909499118"><ele>657.0</ele><time>2026-04-08T15:36:21Z</time></trkpt><trkpt lat="45.72349172160619" lon="11.248304742375124"><ele>658.0</ele><time>2026-04-08T15:36:22Z</time></trkpt><trkpt lat="45.72356418781565" lon="11.248387350430216"><ele>659.0</ele><time>2026-04-08T15:36:23Z</time></trkpt><trkpt lat="45.72365986578707" lon="11.248406483183276"><ele>660.0</ele><time>2026-04-08T15:36:24Z</time></trkpt><trkpt lat="45.72373648233715" lon="11.24842573761681"><ele>660.0</ele><time>2026-04-08T15:36:25Z</time></trkpt><trkpt lat="45.723812589416546" lon="11.248430553849467"><ele>660.0</ele><time>2026-04-08T15:36:26Z</time></trkpt><trkpt lat="45.723907569137424" lon="11.24854469722332"><ele>660.0</ele><time>2026-04-08T15:36:28Z</time></trkpt><trkpt lat="45.723890881749014" lon="11.248676046119071"><ele>660.0</ele><time>2026-04-08T15:36:29Z</time></trkpt><trkpt lat="45.72390380438478" lon="11.24878304428623"><ele>660.0</ele><time>2026-04-08T15:36:30Z</time></trkpt><trkpt lat="45.72398966624649" lon="11.248895537863977"><ele>660.0</ele><time>2026-04-08T15:36:32Z</time></trkpt><trkpt lat="45.72409321727717" lon="11.24889745769885"><ele>660.0</ele><time>2026-04-08T15:36:33Z</time></trkpt><trkpt lat="45.72417878889614" lon="11.248932595384096"><ele>660.0</ele><time>2026-04-08T15:36:34Z</time></trkpt><trkpt lat="45.72426659488502" lon="11.248980783362631"><ele>660.0</ele><time>2026-04-08T15:36:35Z</time></trkpt><trkpt lat="45.72435468748737" lon="11.249048257268676"><ele>660.0</ele><time>2026-04-08T15:36:36Z</time></trkpt><trkpt lat="45.72443466796546" lon="11.249045206174552"><ele>656.1666666666666</ele><time>2026-04-08T15:36:37Z</time></trkpt><trkpt lat="45.7245087152302" lon="11.249051414301102"><ele>652.3333333333334</ele><time>2026-04-08T15:36:38Z</time></trkpt><trkpt lat="45.72458553561888" lon="11.24907490064154"><ele>648.5</ele><time>2026-04-08T15:36:39Z</time></trkpt><trkpt lat="45.72467613429049" lon="11.249085208698398"><ele>644.6666666666667</ele><time>2026-04-08T15:36:40Z</time></trkpt><trkpt lat="45.724773921313606" lon="11.249100500640242"><ele>640.8333333333334</ele><time>2026-04-08T15:36:41Z</time></trkpt><trkpt lat="45.72484932577492" lon="11.249115676929383"><ele>637.0</ele><time>2026-04-08T15:36:42Z</time></trkpt><trkpt lat="45.7249157892123" lon="11.249139342150704"><ele>637.0</ele><time>2026-04-08T15:36:43Z</time></trkpt><trkpt lat="45.725020250005365" lon="11.249203148260714"><ele>637.0</ele><time>2026-04-08T15:36:45Z</time></trkpt><trkpt lat="45.72508208602526" lon="11.249335572405085"><ele>637.0</ele><time>2026-04-08T15:36:47Z</time></trkpt><trkpt lat="45.72510896524251" lon="11.249421155032419"><ele>637.0</ele><time>2026-04-08T15:36:48Z</time></trkpt><trkpt lat="45.72520115483531" lon="11.249534726312223"><ele>637.0</ele><time>2026-04-08T15:36:50Z</time></trkpt><trkpt lat="45.72528930318956" lon="11.249447140436667"><ele>636.8333333333334</ele><time>2026-04-08T15:36:51Z</time></trkpt><trkpt lat="45.72536893714579" lon="11.249454124161703"><ele>636.6666666666667</ele><time>2026-04-08T15:36:52Z</time></trkpt><trkpt lat="45.72543335984591" lon="11.249471081079848"><ele>636.5</ele><time>2026-04-08T15:36:53Z</time></trkpt><trkpt lat="45.72548151304169" lon="11.249581224844851"><ele>636.3333333333334</ele><time>2026-04-08T15:36:55Z</time></trkpt><trkpt lat="45.725537232014446" lon="11.249675061156726"><ele>636.1666666666666</ele><time>2026-04-08T15:36:56Z</time></trkpt><trkpt lat="45.72559429017375" lon="11.249769779077461"><ele>636.0</ele><time>2026-04-08T15:36:57Z</time></trkpt><trkpt lat="45.72567597266574" lon="11.249883545995221"><ele>636.0</ele><time>2026-04-08T15:36:59Z</time></trkpt><trkpt lat="45.72574450468549" lon="11.249940947394244"><ele>636.0</ele><time>2026-04-08T15:37:01Z</time></trkpt><trkpt lat="45.72582840747739" lon="11.249964151464765"><ele>636.0</ele><time>2026-04-08T15:37:03Z</time></trkpt><trkpt lat="45.72590308607083" lon="11.249917642279087"><ele>636.0</ele><time>2026-04-08T15:37:05Z</time></trkpt><trkpt lat="45.72589374398891" lon="11.249817875134989"><ele>636.0</ele><time>2026-04-08T15:37:06Z</time></trkpt><trkpt lat="45.72588703749095" lon="11.249632908695865"><ele>636.0</ele><time>2026-04-08T15:37:08Z</time></trkpt><trkpt lat="45.725873339148556" lon="11.249519263993845"><ele>636.0</ele><time>2026-04-08T15:37:09Z</time></trkpt><trkpt lat="45.72587891724074" lon="11.249396754968258"><ele>636.0</ele><time>2026-04-08T15:37:10Z</time></trkpt><trkpt lat="45.725925166014456" lon="11.249268088718763"><ele>636.0</ele><time>2026-04-08T15:37:11Z</time></trkpt><trkpt lat="45.725977829949564" lon="11.249137696163983"><ele>636.0</ele><time>2026-04-08T15:37:12Z</time></trkpt><trkpt lat="45.726014061280644" lon="11.249016145961898"><ele>636.0</ele><time>2026-04-08T15:37:13Z</time></trkpt><trkpt lat="45.72601957483364" lon="11.248912925810634"><ele>637.5</ele><time>2026-04-08T15:37:14Z</time></trkpt><trkpt lat="45.726015579344576" lon="11.248812477084034"><ele>639.0</ele><time>2026-04-08T15:37:15Z</time></trkpt><trkpt lat="45.726022943372655" lon="11.248721432313099"><ele>640.5</ele><time>2026-04-08T15:37:16Z</time></trkpt><trkpt lat="45.72603180724717" lon="11.248629030720096"><ele>642.0</ele><time>2026-04-08T15:37:17Z</time></trkpt><trkpt lat="45.72610070732792" lon="11.248539724756396"><ele>643.5</ele><time>2026-04-08T15:37:19Z</time></trkpt><trkpt lat="45.72619432896581" lon="11.248571022910062"><ele>645.0</ele><time>2026-04-08T15:37:21Z</time></trkpt><trkpt lat="45.72626056398256" lon="11.248573056828251"><ele>645.0</ele><time>2026-04-08T15:37:22Z</time></trkpt><trkpt lat="45.726348350682706" lon="11.248613748370524"><ele>645.0</ele><time>2026-04-08T15:37:23Z</time></trkpt><trkpt lat="45.726431078880445" lon="11.248635695632741"><ele>645.0</ele><time>2026-04-08T15:37:24Z</time></trkpt><trkpt lat="45.726534982507104" lon="11.248651213432664"><ele>645.0</ele><time>2026-04-08T15:37:25Z</time></trkpt><trkpt lat="45.72662429695437" lon="11.248685421703534"><ele>645.0</ele><time>2026-04-08T15:37:26Z</time></trkpt><trkpt lat="45.72670195533806" lon="11.248727460165306"><ele>645.0</ele><time>2026-04-08T15:37:27Z</time></trkpt><trkpt lat="45.7267667151117" lon="11.248787432537315"><ele>645.0</ele><time>2026-04-08T15:37:28Z</time></trkpt><trkpt lat="45.726815543078786" lon="11.248869994432996"><ele>645.0</ele><time>2026-04-08T15:37:29Z</time></trkpt><trkpt lat="45.72688302944955" lon="11.248967589670448"><ele>645.0</ele><time>2026-04-08T15:37:30Z</time></trkpt><trkpt lat="45.72696097484925" lon="11.249047919841674"><ele>645.0</ele><time>2026-04-08T15:37:31Z</time></trkpt><trkpt lat="45.72705074748606" lon="11.249072121827652"><ele>645.0</ele><time>2026-04-08T15:37:32Z</time></trkpt><trkpt lat="45.72713256021049" lon="11.249124954923875"><ele>643.3333333333334</ele><time>2026-04-08T15:37:33Z</time></trkpt><trkpt lat="45.72720181916933" lon="11.249208174652939"><ele>641.6666666666666</ele><time>2026-04-08T15:37:35Z</time></trkpt><trkpt lat="45.72727016545212" lon="11.249270139549576"><ele>640.0</ele><time>2026-04-08T15:37:37Z</time></trkpt><trkpt lat="45.72732474161134" lon="11.24932747509125"><ele>638.3333333333333</ele><time>2026-04-08T15:37:39Z</time></trkpt><trkpt lat="45.727400251094316" lon="11.249431323916035"><ele>636.6666666666666</ele><time>2026-04-08T15:37:41Z</time></trkpt><trkpt lat="45.72744718869426" lon="11.249525207406402"><ele>635.0</ele><time>2026-04-08T15:37:42Z</time></trkpt><trkpt lat="45.72749441576706" lon="11.249634168365501"><ele>635.0</ele><time>2026-04-08T15:37:43Z</time></trkpt><trkpt lat="45.72754889434076" lon="11.249741721101499"><ele>635.0</ele><time>2026-04-08T15:37:44Z</time></trkpt><trkpt lat="45.72759873159611" lon="11.249827532468549"><ele>635.0</ele><time>2026-04-08T15:37:45Z</time></trkpt><trkpt lat="45.72766856618255" lon="11.249954854921992"><ele>635.0</ele><time>2026-04-08T15:37:47Z</time></trkpt><trkpt lat="45.72771957151894" lon="11.250067019146716"><ele>635.0</ele><time>2026-04-08T15:37:49Z</time></trkpt><trkpt lat="45.72780676938584" lon="11.250194828358229"><ele>636.0</ele><time>2026-04-08T15:37:51Z</time></trkpt><trkpt lat="45.72787269581528" lon="11.250228399059331"><ele>637.0</ele><time>2026-04-08T15:37:52Z</time></trkpt><trkpt lat="45.727749835739736" lon="11.25013244235739"><ele>638.0</ele><time>2026-04-08T15:44:47Z</time></trkpt><trkpt lat="45.727697792987406" lon="11.249930737123503"><ele>639.0</ele><time>2026-04-08T15:44:48Z</time></trkpt><trkpt lat="45.72763607048873" lon="11.249816404472538"><ele>638.3333333333334</ele><time>2026-04-08T15:44:49Z</time></trkpt><trkpt lat="45.727569030173136" lon="11.249690831138377"><ele>637.6666666666666</ele><time>2026-04-08T15:44:50Z</time></trkpt><trkpt lat="45.727516764742774" lon="11.249586036244676"><ele>637.0</ele><time>2026-04-08T15:44:51Z</time></trkpt><trkpt lat="45.72747178760667" lon="11.24949203091002"><ele>636.3333333333333</ele><time>2026-04-08T15:44:52Z</time></trkpt><trkpt lat="45.72742423398284" lon="11.249407094697691"><ele>635.6666666666666</ele><time>2026-04-08T15:44:53Z</time></trkpt><trkpt lat="45.72736175257688" lon="11.249338299061849"><ele>635.0</ele><time>2026-04-08T15:44:54Z</time></trkpt><trkpt lat="45.72727918302246" lon="11.249275343747676"><ele>635.0</ele><time>2026-04-08T15:44:55Z</time></trkpt><trkpt lat="45.72723249093733" lon="11.249179426481069"><ele>635.0</ele><time>2026-04-08T15:44:56Z</time></trkpt><trkpt lat="45.72715615177735" lon="11.249114249231214"><ele>635.0</ele><time>2026-04-08T15:44:57Z</time></trkpt><trkpt lat="45.727075421853186" lon="11.249055664122524"><ele>635.0</ele><time>2026-04-08T15:44:58Z</time></trkpt><trkpt lat="45.72699265684386" lon="11.249012242447503"><ele>635.0</ele><time>2026-04-08T15:44:59Z</time></trkpt><trkpt lat="45.72692013634534" lon="11.24897094185291"><ele>635.0</ele><time>2026-04-08T15:45:00Z</time></trkpt><trkpt lat="45.7268688145729" lon="11.248883218573837"><ele>637.0</ele><time>2026-04-08T15:45:01Z</time></trkpt><trkpt lat="45.72679340093177" lon="11.248784913022885"><ele>639.0</ele><time>2026-04-08T15:45:02Z</time></trkpt><trkpt lat="45.72669533879251" lon="11.248693845674381"><ele>641.0</ele><time>2026-04-08T15:45:03Z</time></trkpt><trkpt lat="45.72659627781252" lon="11.248645908921446"><ele>643.0</ele><time>2026-04-08T15:45:04Z</time></trkpt><trkpt lat="45.72649442600508" lon="11.248609630689266"><ele>645.0</ele><time>2026-04-08T15:45:05Z</time></trkpt><trkpt lat="45.72636984909412" lon="11.248567781629855"><ele>645.0</ele><time>2026-04-08T15:45:06Z</time></trkpt><trkpt lat="45.72625893959154" lon="11.248537945527653"><ele>645.0</ele><time>2026-04-08T15:45:07Z</time></trkpt><trkpt lat="45.72616651676802" lon="11.248522753492761"><ele>645.0</ele><time>2026-04-08T15:45:08Z</time></trkpt><trkpt lat="45.72605190810956" lon="11.24855232309303"><ele>645.0</ele><time>2026-04-08T15:45:10Z</time></trkpt><trkpt lat="45.72599099003691" lon="11.248612993636772"><ele>645.0</ele><time>2026-04-08T15:45:11Z</time></trkpt><trkpt lat="45.72598657894833" lon="11.248773009231101"><ele>643.2</ele><time>2026-04-08T15:45:12Z</time></trkpt><trkpt lat="45.72598871097792" lon="11.24888273487349"><ele>641.4</ele><time>2026-04-08T15:45:13Z</time></trkpt><trkpt lat="45.72597948188036" lon="11.249019130361074"><ele>639.6</ele><time>2026-04-08T15:45:14Z</time></trkpt><trkpt lat="45.725958545747275" lon="11.249144110330105"><ele>637.8</ele><time>2026-04-08T15:45:15Z</time></trkpt><trkpt lat="45.725878971729934" lon="11.249347762941422"><ele>636.0</ele><time>2026-04-08T15:45:17Z</time></trkpt><trkpt lat="45.72584938645614" lon="11.24946692386554"><ele>636.0</ele><time>2026-04-08T15:45:18Z</time></trkpt><trkpt lat="45.72584419144251" lon="11.249580403177072"><ele>636.0</ele><time>2026-04-08T15:45:19Z</time></trkpt><trkpt lat="45.725864556882286" lon="11.24972217421891"><ele>636.0</ele><time>2026-04-08T15:45:20Z</time></trkpt><trkpt lat="45.72586253533825" lon="11.249877227378269"><ele>636.0</ele><time>2026-04-08T15:45:22Z</time></trkpt><trkpt lat="45.72575751630422" lon="11.249890099859064"><ele>636.0</ele><time>2026-04-08T15:45:25Z</time></trkpt><trkpt lat="45.72569221402755" lon="11.249833080330331"><ele>636.0</ele><time>2026-04-08T15:45:26Z</time></trkpt><trkpt lat="45.725623930133814" lon="11.249746304558506"><ele>636.0</ele><time>2026-04-08T15:45:27Z</time></trkpt><trkpt lat="45.72557245159224" lon="11.24965815283922"><ele>636.0</ele><time>2026-04-08T15:45:28Z</time></trkpt><trkpt lat="45.72550004346468" lon="11.249537894639449"><ele>636.0</ele><time>2026-04-08T15:45:29Z</time></trkpt><trkpt lat="45.72544875254702" lon="11.249451263625968"><ele>636.0</ele><time>2026-04-08T15:45:30Z</time></trkpt><trkpt lat="45.725332494309384" lon="11.249400961121795"><ele>636.0</ele><time>2026-04-08T15:45:32Z</time></trkpt><trkpt lat="45.725253282925934" lon="11.249420790294664"><ele>636.0</ele><time>2026-04-08T15:45:33Z</time></trkpt><trkpt lat="45.72518935977546" lon="11.249433037465307"><ele>636.0</ele><time>2026-04-08T15:45:34Z</time></trkpt><trkpt lat="45.72511524875555" lon="11.249351654858652"><ele>636.0</ele><time>2026-04-08T15:45:36Z</time></trkpt><trkpt lat="45.72509441070459" lon="11.249265542297364"><ele>636.0</ele><time>2026-04-08T15:45:37Z</time></trkpt><trkpt lat="45.725058744110115" lon="11.249188094500317"><ele>636.0</ele><time>2026-04-08T15:45:38Z</time></trkpt><trkpt lat="45.7249961363697" lon="11.249130551782782"><ele>636.0</ele><time>2026-04-08T15:45:39Z</time></trkpt><trkpt lat="45.72492689142064" lon="11.249091708465272"><ele>636.2</ele><time>2026-04-08T15:45:40Z</time></trkpt><trkpt lat="45.72486214936664" lon="11.249077493088073"><ele>636.4000000000001</ele><time>2026-04-08T15:45:41Z</time></trkpt><trkpt lat="45.724765434127676" lon="11.249066207646377"><ele>636.6</ele><time>2026-04-08T15:45:42Z</time></trkpt><trkpt lat="45.724673162231255" lon="11.249054616985122"><ele>636.8000000000001</ele><time>2026-04-08T15:45:43Z</time></trkpt><trkpt lat="45.72456088144124" lon="11.249041565371426"><ele>637.0</ele><time>2026-04-08T15:45:44Z</time></trkpt><trkpt lat="45.72446190658522" lon="11.249034526368579"><ele>634.6</ele><time>2026-04-08T15:45:45Z</time></trkpt><trkpt lat="45.72438400137459" lon="11.249028870320512"><ele>632.2</ele><time>2026-04-08T15:45:46Z</time></trkpt><trkpt lat="45.72429745727075" lon="11.248989775848584"><ele>629.8</ele><time>2026-04-08T15:45:47Z</time></trkpt><trkpt lat="45.724220395700804" lon="11.248927932081795"><ele>627.4</ele><time>2026-04-08T15:45:48Z</time></trkpt><trkpt lat="45.724138436963976" lon="11.248874940502326"><ele>625.0</ele><time>2026-04-08T15:45:49Z</time></trkpt><trkpt lat="45.72404046997628" lon="11.248825225832427"><ele>630.8333333333334</ele><time>2026-04-08T15:45:50Z</time></trkpt><trkpt lat="45.723963574035444" lon="11.248789834246873"><ele>636.6666666666667</ele><time>2026-04-08T15:45:51Z</time></trkpt><trkpt lat="45.723908236226244" lon="11.248745997458531"><ele>642.5</ele><time>2026-04-08T15:45:52Z</time></trkpt><trkpt lat="45.72391256888453" lon="11.248596564678156"><ele>648.3333333333334</ele><time>2026-04-08T15:45:54Z</time></trkpt><trkpt lat="45.72389904521777" lon="11.24849959985345"><ele>654.1666666666666</ele><time>2026-04-08T15:45:55Z</time></trkpt><trkpt lat="45.72386646125825" lon="11.248400110315858"><ele>660.0</ele><time>2026-04-08T15:45:56Z</time></trkpt><trkpt lat="45.723780431995685" lon="11.248324773809939"><ele>660.0</ele><time>2026-04-08T15:45:57Z</time></trkpt><trkpt lat="45.7236347046755" lon="11.248344687295996"><ele>660.0</ele><time>2026-04-08T15:45:58Z</time></trkpt><trkpt lat="45.72355624778915" lon="11.248314886928616"><ele>660.0</ele><time>2026-04-08T15:45:59Z</time></trkpt><trkpt lat="45.723466246038576" lon="11.248154504120132"><ele>660.0</ele><time>2026-04-08T15:46:01Z</time></trkpt><trkpt lat="45.723409616519135" lon="11.248055502966029"><ele>659.1666666666666</ele><time>2026-04-08T15:46:02Z</time></trkpt><trkpt lat="45.72337232171115" lon="11.247931535277884"><ele>658.3333333333334</ele><time>2026-04-08T15:46:03Z</time></trkpt><trkpt lat="45.72333330329869" lon="11.247849613162428"><ele>657.5</ele><time>2026-04-08T15:46:04Z</time></trkpt><trkpt lat="45.7232815099172" lon="11.247780815539787"><ele>656.6666666666667</ele><time>2026-04-08T15:46:05Z</time></trkpt><trkpt lat="45.723267896444334" lon="11.24768467608154"><ele>655.8333333333334</ele><time>2026-04-08T15:46:06Z</time></trkpt><trkpt lat="45.72323073653385" lon="11.247586909528875"><ele>655.0</ele><time>2026-04-08T15:46:07Z</time></trkpt><trkpt lat="45.72320623707775" lon="11.247441630765627"><ele>655.0</ele><time>2026-04-08T15:46:08Z</time></trkpt><trkpt lat="45.72317039067733" lon="11.24730820567447"><ele>655.0</ele><time>2026-04-08T15:46:09Z</time></trkpt><trkpt lat="45.723127008631316" lon="11.247186839008167"><ele>655.0</ele><time>2026-04-08T15:46:10Z</time></trkpt><trkpt lat="45.7230637990506" lon="11.247050138907248"><ele>655.0</ele><time>2026-04-08T15:46:12Z</time></trkpt><trkpt lat="45.722988902050844" lon="11.247032162977877"><ele>655.0</ele><time>2026-04-08T15:46:15Z</time></trkpt><trkpt lat="45.72294681941146" lon="11.246935643550884"><ele>656.2</ele><time>2026-04-08T15:46:54Z</time></trkpt><trkpt lat="45.7229098688029" lon="11.246750008710467"><ele>657.4</ele><time>2026-04-08T15:46:56Z</time></trkpt><trkpt lat="45.72285097883303" lon="11.246641351485723"><ele>658.5999999999999</ele><time>2026-04-08T15:46:57Z</time></trkpt><trkpt lat="45.7228365882537" lon="11.246528217124728"><ele>659.8</ele><time>2026-04-08T15:46:58Z</time></trkpt><trkpt lat="45.722808685932186" lon="11.246396139159481"><ele>661.0</ele><time>2026-04-08T15:46:59Z</time></trkpt><trkpt lat="45.72277654709694" lon="11.246265531032469"><ele>661.0</ele><time>2026-04-08T15:47:00Z</time></trkpt><trkpt lat="45.722739339682285" lon="11.2461629125642"><ele>661.0</ele><time>2026-04-08T15:47:01Z</time></trkpt><trkpt lat="45.722708626110084" lon="11.246054636815863"><ele>661.0</ele><time>2026-04-08T15:47:03Z</time></trkpt><trkpt lat="45.72265468330313" lon="11.24596168573103"><ele>661.0</ele><time>2026-04-08T15:47:06Z</time></trkpt><trkpt lat="45.722607316609036" lon="11.245888119343329"><ele>661.0</ele><time>2026-04-08T15:47:08Z</time></trkpt><trkpt lat="45.72240224354766" lon="11.245997562168553"><ele>659.6666666666667</ele><time>2026-04-08T15:47:09Z</time></trkpt><trkpt lat="45.72235065779815" lon="11.24589147921102"><ele>658.3333333333334</ele><time>2026-04-08T15:47:11Z</time></trkpt><trkpt lat="45.72230010029012" lon="11.245778529364017"><ele>657.0</ele><time>2026-04-08T15:47:12Z</time></trkpt><trkpt lat="45.7222330310636" lon="11.245691777248785"><ele>655.6666666666666</ele><time>2026-04-08T15:47:13Z</time></trkpt><trkpt lat="45.72215660466076" lon="11.245635771457723"><ele>654.3333333333333</ele><time>2026-04-08T15:47:14Z</time></trkpt><trkpt lat="45.72207878180446" lon="11.245622938707214"><ele>653.0</ele><time>2026-04-08T15:47:15Z</time></trkpt><trkpt lat="45.722000642981044" lon="11.245612599049865"><ele>653.0</ele><time>2026-04-08T15:47:16Z</time></trkpt><trkpt lat="45.72192127464615" lon="11.245574971771944"><ele>653.0</ele><time>2026-04-08T15:47:17Z</time></trkpt><trkpt lat="45.721891000759214" lon="11.245492811748301"><ele>653.0</ele><time>2026-04-08T15:47:19Z</time></trkpt><trkpt lat="45.72181155330597" lon="11.245348491276788"><ele>653.0</ele><time>2026-04-08T15:47:21Z</time></trkpt><trkpt lat="45.72176144250404" lon="11.245244580381206"><ele>653.0</ele><time>2026-04-08T15:47:22Z</time></trkpt><trkpt lat="45.72172463044317" lon="11.245161512504742"><ele>653.0</ele><time>2026-04-08T15:47:23Z</time></trkpt><trkpt lat="45.721687473002675" lon="11.245072681595724"><ele>653.1666666666666</ele><time>2026-04-08T15:47:24Z</time></trkpt><trkpt lat="45.72165786152464" lon="11.244965063813932"><ele>653.3333333333333</ele><time>2026-04-08T15:47:25Z</time></trkpt><trkpt lat="45.72164678686399" lon="11.24487223621729"><ele>653.5</ele><time>2026-04-08T15:47:26Z</time></trkpt><trkpt lat="45.72163858648903" lon="11.244757169158786"><ele>653.6666666666666</ele><time>2026-04-08T15:47:27Z</time></trkpt><trkpt lat="45.72163097288896" lon="11.244647248332052"><ele>653.8333333333334</ele><time>2026-04-08T15:47:28Z</time></trkpt><trkpt lat="45.72164664226435" lon="11.244464009204876"><ele>654.0</ele><time>2026-04-08T15:47:30Z</time></trkpt><trkpt lat="45.72159344436519" lon="11.244315079620097"><ele>654.6</ele><time>2026-04-08T15:47:32Z</time></trkpt><trkpt lat="45.72154349831735" lon="11.244230808514294"><ele>655.2</ele><time>2026-04-08T15:47:33Z</time></trkpt><trkpt lat="45.72149627089386" lon="11.244157277443966"><ele>655.8000000000001</ele><time>2026-04-08T15:47:34Z</time></trkpt><trkpt lat="45.721437021857355" lon="11.244029530938944"><ele>656.4000000000001</ele><time>2026-04-08T15:47:36Z</time></trkpt><trkpt lat="45.72143158222656" lon="11.243881878754497"><ele>657.0</ele><time>2026-04-08T15:47:38Z</time></trkpt><trkpt lat="45.721422437524836" lon="11.243672403417223"><ele>655.2</ele><time>2026-04-08T15:47:40Z</time></trkpt><trkpt lat="45.72137395453906" lon="11.243527793848079"><ele>653.4000000000001</ele><time>2026-04-08T15:47:42Z</time></trkpt><trkpt lat="45.72126223901956" lon="11.243448930005853"><ele>651.5999999999999</ele><time>2026-04-08T15:47:44Z</time></trkpt><trkpt lat="45.72119801482616" lon="11.243332990349964"><ele>649.8</ele><time>2026-04-08T15:47:46Z</time></trkpt><trkpt lat="45.721174984601475" lon="11.243248210979358"><ele>648.0</ele><time>2026-04-08T15:47:47Z</time></trkpt><trkpt lat="45.72117480195615" lon="11.243120957493332"><ele>647.0</ele><time>2026-04-08T15:47:48Z</time></trkpt><trkpt lat="45.72116666308863" lon="11.243000233133044"><ele>646.0</ele><time>2026-04-08T15:47:49Z</time></trkpt><trkpt lat="45.72112585969355" lon="11.24290849513832"><ele>645.0</ele><time>2026-04-08T15:47:50Z</time></trkpt><trkpt lat="45.72112288163809" lon="11.242811445131549"><ele>644.0</ele><time>2026-04-08T15:47:51Z</time></trkpt><trkpt lat="45.7211552035049" lon="11.242721550162775"><ele>643.0</ele><time>2026-04-08T15:47:52Z</time></trkpt><trkpt lat="45.721191894780766" lon="11.242612378956105"><ele>642.0</ele><time>2026-04-08T15:47:53Z</time></trkpt><trkpt lat="45.72122852930403" lon="11.242489697860515"><ele>642.0</ele><time>2026-04-08T15:47:55Z</time></trkpt><trkpt lat="45.72133239213433" lon="11.242424765682646"><ele>642.0</ele><time>2026-04-08T15:47:57Z</time></trkpt><trkpt lat="45.72135033811907" lon="11.242295192043155"><ele>642.0</ele><time>2026-04-08T15:47:59Z</time></trkpt><trkpt lat="45.7213412636265" lon="11.242186298006699"><ele>642.0</ele><time>2026-04-08T15:48:00Z</time></trkpt><trkpt lat="45.72133693178513" lon="11.242065055415493"><ele>642.0</ele><time>2026-04-08T15:48:01Z</time></trkpt><trkpt lat="45.72132228456356" lon="11.241973708141083"><ele>642.0</ele><time>2026-04-08T15:48:02Z</time></trkpt><trkpt lat="45.72132976993629" lon="11.241847418100093"><ele>643.4000000000001</ele><time>2026-04-08T15:48:04Z</time></trkpt><trkpt lat="45.72144132201532" lon="11.241768438661516"><ele>644.8000000000001</ele><time>2026-04-08T15:48:06Z</time></trkpt><trkpt lat="45.72151685624428" lon="11.241751776134748"><ele>646.2</ele><time>2026-04-08T15:48:07Z</time></trkpt><trkpt lat="45.72157753372641" lon="11.241637177566636"><ele>647.6</ele><time>2026-04-08T15:48:09Z</time></trkpt><trkpt lat="45.721614557160194" lon="11.241542658934444"><ele>649.0</ele><time>2026-04-08T15:48:10Z</time></trkpt><trkpt lat="45.72164103070003" lon="11.241415600930141"><ele>650.3333333333334</ele><time>2026-04-08T15:48:11Z</time></trkpt><trkpt lat="45.721654328037495" lon="11.241294042178845"><ele>651.6666666666667</ele><time>2026-04-08T15:48:12Z</time></trkpt><trkpt lat="45.72164512057467" lon="11.2411957740036"><ele>653.0</ele><time>2026-04-08T15:48:13Z</time></trkpt><trkpt lat="45.721582071470834" lon="11.2410434111492"><ele>654.3333333333334</ele><time>2026-04-08T15:48:15Z</time></trkpt><trkpt lat="45.72154891983899" lon="11.240963687702115"><ele>655.6666666666666</ele><time>2026-04-08T15:48:16Z</time></trkpt><trkpt lat="45.72151101507174" lon="11.240840387883285"><ele>657.0</ele><time>2026-04-08T15:48:17Z</time></trkpt><trkpt lat="45.72153051032734" lon="11.240639260164453"><ele>656.0</ele><time>2026-04-08T15:48:19Z</time></trkpt><trkpt lat="45.721534451951605" lon="11.240494221777459"><ele>655.0</ele><time>2026-04-08T15:48:21Z</time></trkpt><trkpt lat="45.72149002191963" lon="11.240370425837607"><ele>654.0</ele><time>2026-04-08T15:48:23Z</time></trkpt><trkpt lat="45.72143456143791" lon="11.240259047411373"><ele>653.0</ele><time>2026-04-08T15:48:24Z</time></trkpt><trkpt lat="45.72139751145384" lon="11.240179729719411"><ele>652.0</ele><time>2026-04-08T15:48:25Z</time></trkpt><trkpt lat="45.72135474869662" lon="11.240090220539631"><ele>651.0</ele><time>2026-04-08T15:48:26Z</time></trkpt><trkpt lat="45.721313672874714" lon="11.24001792536164"><ele>651.0</ele><time>2026-04-08T15:48:27Z</time></trkpt><trkpt lat="45.72122186339388" lon="11.239936709088248"><ele>651.0</ele><time>2026-04-08T15:48:29Z</time></trkpt><trkpt lat="45.721161831402505" lon="11.239903050024528"><ele>651.0</ele><time>2026-04-08T15:48:30Z</time></trkpt><trkpt lat="45.7210648220357" lon="11.239866797073468"><ele>651.0</ele><time>2026-04-08T15:48:32Z</time></trkpt><trkpt lat="45.72101843595435" lon="11.239726242926434"><ele>651.0</ele><time>2026-04-08T15:48:34Z</time></trkpt><trkpt lat="45.72100994693584" lon="11.23957095171155"><ele>659.1999999999999</ele><time>2026-04-08T15:48:36Z</time></trkpt><trkpt lat="45.72089257341371" lon="11.239432235803884"><ele>667.4</ele><time>2026-04-08T15:48:38Z</time></trkpt><trkpt lat="45.72084377380969" lon="11.23934745861631"><ele>675.6</ele><time>2026-04-08T15:48:39Z</time></trkpt><trkpt lat="45.7208129301596" lon="11.23926555156524"><ele>683.8</ele><time>2026-04-08T15:48:40Z</time></trkpt><trkpt lat="45.72073920775077" lon="11.239110317071823"><ele>692.0</ele><time>2026-04-08T15:48:42Z</time></trkpt><trkpt lat="45.720730452561526" lon="11.238950461178218"><ele>692.0</ele><time>2026-04-08T15:48:44Z</time></trkpt><trkpt lat="45.720757833073954" lon="11.238831362789108"><ele>692.0</ele><time>2026-04-08T15:48:45Z</time></trkpt><trkpt lat="45.72078897013537" lon="11.238714588419043"><ele>692.0</ele><time>2026-04-08T15:48:46Z</time></trkpt><trkpt lat="45.720816715579225" lon="11.238597961889546"><ele>692.0</ele><time>2026-04-08T15:48:47Z</time></trkpt><trkpt lat="45.72084277366697" lon="11.2384172309704"><ele>692.0</ele><time>2026-04-08T15:48:49Z</time></trkpt><trkpt lat="45.72087828676712" lon="11.238306648935334"><ele>692.0</ele><time>2026-04-08T15:48:50Z</time></trkpt><trkpt lat="45.72096692908954" lon="11.238199952189394"><ele>692.0</ele><time>2026-04-08T15:48:52Z</time></trkpt><trkpt lat="45.72097977954692" lon="11.238074109875143"><ele>692.0</ele><time>2026-04-08T15:48:54Z</time></trkpt><trkpt lat="45.72096897094002" lon="11.237956955466114"><ele>692.0</ele><time>2026-04-08T15:48:55Z</time></trkpt><trkpt lat="45.720918128931615" lon="11.237798429916454"><ele>692.0</ele><time>2026-04-08T15:48:57Z</time></trkpt><trkpt lat="45.7208250515823" lon="11.237688878715828"><ele>690.1666666666666</ele><time>2026-04-08T15:48:59Z</time></trkpt><trkpt lat="45.7207159790538" lon="11.237659459093788"><ele>688.3333333333333</ele><time>2026-04-08T15:49:01Z</time></trkpt><trkpt lat="45.72064507571678" lon="11.237643005135574"><ele>686.5</ele><time>2026-04-08T15:49:02Z</time></trkpt><trkpt lat="45.72056854810128" lon="11.23761927619245"><ele>684.6666666666666</ele><time>2026-04-08T15:49:03Z</time></trkpt><trkpt lat="45.7204781311705" lon="11.23760486444917"><ele>682.8333333333334</ele><time>2026-04-08T15:49:04Z</time></trkpt><trkpt lat="45.72038956820295" lon="11.237578179476886"><ele>681.0</ele><time>2026-04-08T15:49:05Z</time></trkpt><trkpt lat="45.72030336415942" lon="11.237549149093537"><ele>682.5999999999999</ele><time>2026-04-08T15:49:06Z</time></trkpt><trkpt lat="45.72021169539964" lon="11.237535445256745"><ele>684.2</ele><time>2026-04-08T15:49:08Z</time></trkpt><trkpt lat="45.720105966548964" lon="11.237623487329477"><ele>685.8</ele><time>2026-04-08T15:49:10Z</time></trkpt><trkpt lat="45.720030069629985" lon="11.237690353086554"><ele>687.4000000000001</ele><time>2026-04-08T15:49:11Z</time></trkpt><trkpt lat="45.71993360766985" lon="11.237771833582315"><ele>689.0</ele><time>2026-04-08T15:49:12Z</time></trkpt><trkpt lat="45.71985289678476" lon="11.237801336063393"><ele>689.0</ele><time>2026-04-08T15:49:13Z</time></trkpt><trkpt lat="45.71978593756245" lon="11.237798462274805"><ele>689.0</ele><time>2026-04-08T15:49:14Z</time></trkpt><trkpt lat="45.71969065884598" lon="11.237687503375607"><ele>689.0</ele><time>2026-04-08T15:49:16Z</time></trkpt><trkpt lat="45.71965798704266" lon="11.237589946912266"><ele>689.0</ele><time>2026-04-08T15:49:17Z</time></trkpt><trkpt lat="45.719605337855256" lon="11.237480283210807"><ele>689.0</ele><time>2026-04-08T15:49:18Z</time></trkpt><trkpt lat="45.71950410057205" lon="11.237439029900509"><ele>689.0</ele><time>2026-04-08T15:49:20Z</time></trkpt><trkpt lat="45.7194255690553" lon="11.237437929380729"><ele>689.0</ele><time>2026-04-08T15:49:21Z</time></trkpt><trkpt lat="45.71935502413232" lon="11.237441613162096"><ele>689.0</ele><time>2026-04-08T15:49:22Z</time></trkpt><trkpt lat="45.71927023935301" lon="11.237320669281576"><ele>689.0</ele><time>2026-04-08T15:49:24Z</time></trkpt><trkpt lat="45.71920019126225" lon="11.237217457820847"><ele>689.0</ele><time>2026-04-08T15:49:26Z</time></trkpt><trkpt lat="45.719089503322934" lon="11.237203113736927"><ele>688.8000000000001</ele><time>2026-04-08T15:49:28Z</time></trkpt><trkpt lat="45.71895968495381" lon="11.237249308804694"><ele>688.6</ele><time>2026-04-08T15:49:30Z</time></trkpt><trkpt lat="45.71888409553109" lon="11.237291806039574"><ele>688.4</ele><time>2026-04-08T15:49:31Z</time></trkpt><trkpt lat="45.71881289590844" lon="11.237344215840407"><ele>688.2</ele><time>2026-04-08T15:49:32Z</time></trkpt><trkpt lat="45.71868410426722" lon="11.23733281595459"><ele>688.0</ele><time>2026-04-08T15:49:34Z</time></trkpt><trkpt lat="45.718619926700306" lon="11.237309583201169"><ele>690.5</ele><time>2026-04-08T15:49:35Z</time></trkpt><trkpt lat="45.7185629477529" lon="11.237238343306752"><ele>693.0</ele><time>2026-04-08T15:49:36Z</time></trkpt><trkpt lat="45.71851927529112" lon="11.237158969530306"><ele>695.5</ele><time>2026-04-08T15:49:37Z</time></trkpt><trkpt lat="45.718468132238804" lon="11.237025164681906"><ele>698.0</ele><time>2026-04-08T15:49:39Z</time></trkpt><trkpt lat="45.71845103551817" lon="11.236928172425127"><ele>700.5</ele><time>2026-04-08T15:49:40Z</time></trkpt><trkpt lat="45.71843422997584" lon="11.236748123268603"><ele>703.0</ele><time>2026-04-08T15:49:42Z</time></trkpt><trkpt lat="45.7184205519816" lon="11.236643225870079"><ele>703.0</ele><time>2026-04-08T15:49:43Z</time></trkpt><trkpt lat="45.71838890383172" lon="11.236486890223455"><ele>703.0</ele><time>2026-04-08T15:49:45Z</time></trkpt><trkpt lat="45.718275939488755" lon="11.236509427647665"><ele>703.0</ele><time>2026-04-08T15:49:48Z</time></trkpt><trkpt lat="45.718221726336324" lon="11.236593029315252"><ele>703.0</ele><time>2026-04-08T15:49:49Z</time></trkpt><trkpt lat="45.71816200860311" lon="11.236663546659097"><ele>703.0</ele><time>2026-04-08T15:49:50Z</time></trkpt><trkpt lat="45.71809249219531" lon="11.236707648924456"><ele>703.0</ele><time>2026-04-08T15:49:51Z</time></trkpt><trkpt lat="45.71802344277356" lon="11.236770796644054"><ele>703.0</ele><time>2026-04-08T15:49:52Z</time></trkpt><trkpt lat="45.717912999889734" lon="11.236863910390722"><ele>703.0</ele><time>2026-04-08T15:49:53Z</time></trkpt><trkpt lat="45.717836189475726" lon="11.236927118338238"><ele>703.0</ele><time>2026-04-08T15:49:54Z</time></trkpt><trkpt lat="45.7177513438107" lon="11.237042943378773"><ele>703.0</ele><time>2026-04-08T15:49:56Z</time></trkpt><trkpt lat="45.71773163756908" lon="11.237194694789856"><ele>706.4</ele><time>2026-04-08T15:49:58Z</time></trkpt><trkpt lat="45.71773942681952" lon="11.237357495725607"><ele>709.8</ele><time>2026-04-08T15:50:00Z</time></trkpt><trkpt lat="45.71774408121698" lon="11.237465901864214"><ele>713.2</ele><time>2026-04-08T15:50:01Z</time></trkpt><trkpt lat="45.71770406989012" lon="11.237584597482856"><ele>716.6</ele><time>2026-04-08T15:50:03Z</time></trkpt><trkpt lat="45.71760889778302" lon="11.237690116547144"><ele>720.0</ele><time>2026-04-08T15:50:05Z</time></trkpt><trkpt lat="45.71754451466838" lon="11.237779574637365"><ele>720.0</ele><time>2026-04-08T15:50:06Z</time></trkpt><trkpt lat="45.717497184116084" lon="11.237842693638157"><ele>720.0</ele><time>2026-04-08T15:50:07Z</time></trkpt><trkpt lat="45.717419662783215" lon="11.237892539249305"><ele>720.0</ele><time>2026-04-08T15:50:09Z</time></trkpt><trkpt lat="45.71735783571324" lon="11.237913139361059"><ele>720.0</ele><time>2026-04-08T15:50:11Z</time></trkpt><trkpt lat="45.71728413476041" lon="11.238046920902693"><ele>720.0</ele><time>2026-04-08T15:50:13Z</time></trkpt><trkpt lat="45.71722956301513" lon="11.23813184113643"><ele>720.0</ele><time>2026-04-08T15:50:14Z</time></trkpt><trkpt lat="45.71718092422296" lon="11.23821729641352"><ele>724.8333333333334</ele><time>2026-04-08T15:50:15Z</time></trkpt><trkpt lat="45.71713510106994" lon="11.238284867596645"><ele>729.6666666666666</ele><time>2026-04-08T15:50:16Z</time></trkpt><trkpt lat="45.71710421465584" lon="11.23839313621022"><ele>734.5</ele><time>2026-04-08T15:50:18Z</time></trkpt><trkpt lat="45.71708681642265" lon="11.238484318698193"><ele>739.3333333333333</ele><time>2026-04-08T15:50:20Z</time></trkpt><trkpt lat="45.71706318634176" lon="11.238612379461072"><ele>744.1666666666666</ele><time>2026-04-08T15:50:23Z</time></trkpt><trkpt lat="45.717039110671315" lon="11.238725499852121"><ele>749.0</ele><time>2026-04-08T15:50:25Z</time></trkpt><trkpt lat="45.717005820726634" lon="11.238845204924333"><ele>749.0</ele><time>2026-04-08T15:50:27Z</time></trkpt><trkpt lat="45.71696271369194" lon="11.238949384964782"><ele>749.0</ele><time>2026-04-08T15:50:29Z</time></trkpt><trkpt lat="45.716927970921404" lon="11.239029322180713"><ele>749.0</ele><time>2026-04-08T15:50:32Z</time></trkpt><trkpt lat="45.71690503421916" lon="11.239182837872091"><ele>749.0</ele><time>2026-04-08T15:50:35Z</time></trkpt><trkpt lat="45.71686348788891" lon="11.239290850569203"><ele>749.0</ele><time>2026-04-08T15:50:37Z</time></trkpt><trkpt lat="45.716746436060184" lon="11.239385520091005"><ele>748.6666666666666</ele><time>2026-04-08T15:50:39Z</time></trkpt><trkpt lat="45.71668196182574" lon="11.239431197981002"><ele>748.3333333333333</ele><time>2026-04-08T15:50:40Z</time></trkpt><trkpt lat="45.71661388054646" lon="11.239482040533243"><ele>748.0</ele><time>2026-04-08T15:50:42Z</time></trkpt><trkpt lat="45.71652335139425" lon="11.239563703011845"><ele>747.6666666666666</ele><time>2026-04-08T15:50:44Z</time></trkpt><trkpt lat="45.71647085436806" lon="11.239628133788935"><ele>747.3333333333334</ele><time>2026-04-08T15:50:45Z</time></trkpt><trkpt lat="45.716406717271774" lon="11.239726564767565"><ele>747.0</ele><time>2026-04-08T15:50:47Z</time></trkpt><trkpt lat="45.716350645288585" lon="11.239807007032537"><ele>749.5</ele><time>2026-04-08T15:50:48Z</time></trkpt><trkpt lat="45.71624757728211" lon="11.239871918791975"><ele>752.0</ele><time>2026-04-08T15:50:50Z</time></trkpt><trkpt lat="45.71614640141389" lon="11.239916380763932"><ele>754.5</ele><time>2026-04-08T15:50:52Z</time></trkpt><trkpt lat="45.716074154807956" lon="11.239954709348215"><ele>757.0</ele><time>2026-04-08T15:50:53Z</time></trkpt><trkpt lat="45.716017007349464" lon="11.239994097168577"><ele>759.5</ele><time>2026-04-08T15:50:54Z</time></trkpt><trkpt lat="45.71594784797029" lon="11.24004306004659"><ele>762.0</ele><time>2026-04-08T15:50:55Z</time></trkpt><trkpt lat="45.715883857140334" lon="11.240087463232769"><ele>762.0</ele><time>2026-04-08T15:50:56Z</time></trkpt><trkpt lat="45.71583223382047" lon="11.240143748526151"><ele>762.0</ele><time>2026-04-08T15:50:57Z</time></trkpt><trkpt lat="45.71578865459874" lon="11.24023224423475"><ele>762.0</ele><time>2026-04-08T15:50:59Z</time></trkpt><trkpt lat="45.71574031432292" lon="11.240373147414324"><ele>762.0</ele><time>2026-04-08T15:51:01Z</time></trkpt><trkpt lat="45.715709922304235" lon="11.240454099765357"><ele>762.0</ele><time>2026-04-08T15:51:02Z</time></trkpt><trkpt lat="45.71569346415129" lon="11.240587106042499"><ele>762.0</ele><time>2026-04-08T15:51:04Z</time></trkpt><trkpt lat="45.71570037516315" lon="11.240757564570114"><ele>764.1666666666666</ele><time>2026-04-08T15:51:06Z</time></trkpt><trkpt lat="45.71569754964516" lon="11.240852534249433"><ele>766.3333333333333</ele><time>2026-04-08T15:51:07Z</time></trkpt><trkpt lat="45.71569140069809" lon="11.24094806594518"><ele>768.5</ele><time>2026-04-08T15:51:08Z</time></trkpt><trkpt lat="45.715686316061934" lon="11.241047030394387"><ele>770.6666666666666</ele><time>2026-04-08T15:51:09Z</time></trkpt><trkpt lat="45.715677987873335" lon="11.241150671040147"><ele>772.8333333333333</ele><time>2026-04-08T15:51:10Z</time></trkpt><trkpt lat="45.7156352126798" lon="11.241300712635278"><ele>775.0</ele><time>2026-04-08T15:51:12Z</time></trkpt><trkpt lat="45.71556371107328" lon="11.241457551477875"><ele>776.4999999999999</ele><time>2026-04-08T15:51:14Z</time></trkpt><trkpt lat="45.715524193179284" lon="11.241544656097163"><ele>778.0</ele><time>2026-04-08T15:51:15Z</time></trkpt><trkpt lat="45.715492658371915" lon="11.241713809988836"><ele>779.5</ele><time>2026-04-08T15:51:17Z</time></trkpt><trkpt lat="45.71547985609628" lon="11.24181572980324"><ele>781.0</ele><time>2026-04-08T15:51:18Z</time></trkpt><trkpt lat="45.71545670838742" lon="11.241949545675228"><ele>782.4999999999999</ele><time>2026-04-08T15:51:19Z</time></trkpt><trkpt lat="45.71541635594199" lon="11.242019209841581"><ele>784.0</ele><time>2026-04-08T15:51:21Z</time></trkpt><trkpt lat="45.71529729628674" lon="11.242101091498965"><ele>781.8000000000001</ele><time>2026-04-08T15:51:23Z</time></trkpt><trkpt lat="45.715205766871286" lon="11.242193672585348"><ele>779.6</ele><time>2026-04-08T15:51:25Z</time></trkpt><trkpt lat="45.71514919276698" lon="11.24236980692841"><ele>777.4</ele><time>2026-04-08T15:51:27Z</time></trkpt><trkpt lat="45.71511556781168" lon="11.242489185781611"><ele>775.2</ele><time>2026-04-08T15:51:28Z</time></trkpt><trkpt lat="45.7150741373761" lon="11.242621519747214"><ele>773.0</ele><time>2026-04-08T15:51:29Z</time></trkpt><trkpt lat="45.71504062636558" lon="11.242725140269235"><ele>773.0</ele><time>2026-04-08T15:51:30Z</time></trkpt><trkpt lat="45.71500217505444" lon="11.242859054651028"><ele>773.0</ele><time>2026-04-08T15:51:31Z</time></trkpt><trkpt lat="45.71496584394387" lon="11.242955341549516"><ele>773.0</ele><time>2026-04-08T15:51:32Z</time></trkpt><trkpt lat="45.71492778661601" lon="11.243035761271361"><ele>773.0</ele><time>2026-04-08T15:51:33Z</time></trkpt><trkpt lat="45.714882978462825" lon="11.243145196839372"><ele>773.0</ele><time>2026-04-08T15:51:34Z</time></trkpt><trkpt lat="45.71487115046548" lon="11.2433159665101"><ele>773.5</ele><time>2026-04-08T15:51:36Z</time></trkpt><trkpt lat="45.71488593319636" lon="11.243463151243347"><ele>774.0</ele><time>2026-04-08T15:51:37Z</time></trkpt><trkpt lat="45.71490563630994" lon="11.243632932513444"><ele>774.5</ele><time>2026-04-08T15:51:38Z</time></trkpt><trkpt lat="45.714923858732476" lon="11.24385376620592"><ele>775.0</ele><time>2026-04-08T15:51:39Z</time></trkpt><trkpt lat="45.71491802494637" lon="11.244032059592678"><ele>774.9999999999999</ele><time>2026-04-08T15:51:40Z</time></trkpt><trkpt lat="45.714917357239294" lon="11.244160620533593"><ele>775.0</ele><time>2026-04-08T15:51:41Z</time></trkpt><trkpt lat="45.714908924748876" lon="11.244258880895265"><ele>775.0</ele><time>2026-04-08T15:51:42Z</time></trkpt><trkpt lat="45.71488565178786" lon="11.244356451495138"><ele>775.0</ele><time>2026-04-08T15:51:43Z</time></trkpt><trkpt lat="45.71484983159533" lon="11.24443863426998"><ele>774.9999999999999</ele><time>2026-04-08T15:51:45Z</time></trkpt><trkpt lat="45.71472611759183" lon="11.244529112989321"><ele>775.0</ele><time>2026-04-08T15:51:52Z</time></trkpt><trkpt lat="45.714700190540775" lon="11.244616153654908"><ele>774.9999999999999</ele><time>2026-04-08T15:51:53Z</time></trkpt><trkpt lat="45.71468641165799" lon="11.244507797662777"><ele>775.0</ele><time>2026-04-08T15:51:59Z</time></trkpt><trkpt lat="45.71464607991698" lon="11.244426860689005"><ele>775.0</ele><time>2026-04-08T15:52:01Z</time></trkpt><trkpt lat="45.714607870562254" lon="11.244337519862029"><ele>775.0</ele><time>2026-04-08T15:52:12Z</time></trkpt><trkpt lat="45.714636575125986" lon="11.24442016390183"><ele>774.9999999999999</ele><time>2026-04-08T15:52:28Z</time></trkpt><trkpt lat="45.71462233674561" lon="11.244583564028053"><ele>775.0</ele><time>2026-04-08T15:52:31Z</time></trkpt><trkpt lat="45.71458401530946" lon="11.244689525436808"><ele>774.9999999999999</ele><time>2026-04-08T15:52:33Z</time></trkpt><trkpt lat="45.71451887149364" lon="11.244762297059626"><ele>775.0</ele><time>2026-04-08T15:52:35Z</time></trkpt><trkpt lat="45.714454880096305" lon="11.244791178089653"><ele>775.0</ele><time>2026-04-08T15:52:37Z</time></trkpt><trkpt lat="45.714355702100725" lon="11.244836706128938"><ele>775.0</ele><time>2026-04-08T15:52:39Z</time></trkpt><trkpt lat="45.71425345813204" lon="11.244910683140569"><ele>774.9999999999999</ele><time>2026-04-08T15:52:41Z</time></trkpt><trkpt lat="45.71419625681679" lon="11.244959913833108"><ele>775.0</ele><time>2026-04-08T15:52:43Z</time></trkpt><trkpt lat="45.71412383068159" lon="11.24502619125662"><ele>771.2</ele><time>2026-04-08T15:52:45Z</time></trkpt><trkpt lat="45.714027612332885" lon="11.24509139017942"><ele>767.4</ele><time>2026-04-08T15:52:47Z</time></trkpt><trkpt lat="45.71392709310618" lon="11.245146214831001"><ele>763.5999999999999</ele><time>2026-04-08T15:52:49Z</time></trkpt><trkpt lat="45.713803850495665" lon="11.245262197534915"><ele>759.8</ele><time>2026-04-08T15:52:51Z</time></trkpt><trkpt lat="45.713742242626374" lon="11.245302079670855"><ele>756.0</ele><time>2026-04-08T15:52:52Z</time></trkpt><trkpt lat="45.71362532604881" lon="11.24536824935037"><ele>756.0</ele><time>2026-04-08T15:52:54Z</time></trkpt><trkpt lat="45.7135839494148" lon="11.245444680455916"><ele>756.0</ele><time>2026-04-08T15:52:56Z</time></trkpt><trkpt lat="45.7135954080323" lon="11.245548165694393"><ele>756.0</ele><time>2026-04-08T15:52:58Z</time></trkpt><trkpt lat="45.713641271424464" lon="11.2456561776111"><ele>756.0</ele><time>2026-04-08T15:53:00Z</time></trkpt><trkpt lat="45.71365100362437" lon="11.245837302578334"><ele>756.0</ele><time>2026-04-08T15:53:02Z</time></trkpt><trkpt lat="45.7136767254141" lon="11.24596294429441"><ele>756.0</ele><time>2026-04-08T15:53:04Z</time></trkpt><trkpt lat="45.713747128491605" lon="11.246078244688217"><ele>755.8</ele><time>2026-04-08T15:53:06Z</time></trkpt><trkpt lat="45.71379138217782" lon="11.246188410338874"><ele>755.5999999999999</ele><time>2026-04-08T15:53:08Z</time></trkpt><trkpt lat="45.71383038729803" lon="11.246300605788337"><ele>755.4</ele><time>2026-04-08T15:53:11Z</time></trkpt><trkpt lat="45.713874417162344" lon="11.246473292401989"><ele>755.2</ele><time>2026-04-08T15:53:13Z</time></trkpt><trkpt lat="45.71392934610585" lon="11.246632264828797"><ele>755.0</ele><time>2026-04-08T15:53:15Z</time></trkpt><trkpt lat="45.71398681377983" lon="11.246765772249129"><ele>755.0</ele><time>2026-04-08T15:53:17Z</time></trkpt><trkpt lat="45.71403637936457" lon="11.246897386930803"><ele>755.0</ele><time>2026-04-08T15:53:19Z</time></trkpt><trkpt lat="45.71410791947501" lon="11.246970826775494"><ele>755.0</ele><time>2026-04-08T15:53:21Z</time></trkpt><trkpt lat="45.714171813812726" lon="11.246990517229863"><ele>755.0</ele><time>2026-04-08T15:53:22Z</time></trkpt><trkpt lat="45.71423022984872" lon="11.247044918820785"><ele>755.0</ele><time>2026-04-08T15:53:23Z</time></trkpt><trkpt lat="45.71428601895072" lon="11.247218798513662"><ele>753.6666666666666</ele><time>2026-04-08T15:53:25Z</time></trkpt><trkpt lat="45.71431471476516" lon="11.247331214892993"><ele>752.3333333333333</ele><time>2026-04-08T15:53:26Z</time></trkpt><trkpt lat="45.714373169941425" lon="11.247467440136887"><ele>751.0</ele><time>2026-04-08T15:53:27Z</time></trkpt><trkpt lat="45.714434244519815" lon="11.247555159603019"><ele>749.6666666666666</ele><time>2026-04-08T15:53:28Z</time></trkpt><trkpt lat="45.71448010143183" lon="11.247630969271288"><ele>748.3333333333334</ele><time>2026-04-08T15:53:30Z</time></trkpt><trkpt lat="45.71452250191046" lon="11.247731371187246"><ele>747.0</ele><time>2026-04-08T15:53:35Z</time></trkpt><trkpt lat="45.714531775861836" lon="11.247820672123728"><ele>747.0</ele><time>2026-04-08T15:53:37Z</time></trkpt><trkpt lat="45.71458885922879" lon="11.247950567021473"><ele>747.0</ele><time>2026-04-08T15:53:39Z</time></trkpt><trkpt lat="45.714642723799955" lon="11.248106659243525"><ele>747.0</ele><time>2026-04-08T15:53:41Z</time></trkpt><trkpt lat="45.71465547729545" lon="11.248212752052863"><ele>747.0</ele><time>2026-04-08T15:53:43Z</time></trkpt><trkpt lat="45.71461505653848" lon="11.248293713682465"><ele>747.0</ele><time>2026-04-08T15:54:00Z</time></trkpt><trkpt lat="45.71461502444172" lon="11.248402444954845"><ele>747.0</ele><time>2026-04-08T15:54:02Z</time></trkpt><trkpt lat="45.714601043936106" lon="11.248542563462864"><ele>744.8333333333334</ele><time>2026-04-08T15:54:05Z</time></trkpt><trkpt lat="45.71458984459706" lon="11.248639566084023"><ele>742.6666666666666</ele><time>2026-04-08T15:54:06Z</time></trkpt><trkpt lat="45.71457736061036" lon="11.248747695638325"><ele>740.5</ele><time>2026-04-08T15:54:07Z</time></trkpt><trkpt lat="45.714564172569666" lon="11.248861923335776"><ele>738.3333333333333</ele><time>2026-04-08T15:54:08Z</time></trkpt><trkpt lat="45.71455252568263" lon="11.248962802204819"><ele>736.1666666666666</ele><time>2026-04-08T15:54:09Z</time></trkpt><trkpt lat="45.71455000629257" lon="11.249110392230703"><ele>734.0</ele><time>2026-04-08T15:54:10Z</time></trkpt><trkpt lat="45.71452368064913" lon="11.249223220530196"><ele>734.2</ele><time>2026-04-08T15:54:11Z</time></trkpt><trkpt lat="45.71449916388659" lon="11.249308267231989"><ele>734.4000000000001</ele><time>2026-04-08T15:54:12Z</time></trkpt><trkpt lat="45.7145021583596" lon="11.249477875315886"><ele>734.6</ele><time>2026-04-08T15:54:14Z</time></trkpt><trkpt lat="45.71450237400329" lon="11.249585603795934"><ele>734.8</ele><time>2026-04-08T15:54:15Z</time></trkpt><trkpt lat="45.714473227703124" lon="11.249719890188642"><ele>735.0</ele><time>2026-04-08T15:54:17Z</time></trkpt><trkpt lat="45.714467260231764" lon="11.249857589627705"><ele>735.0</ele><time>2026-04-08T15:54:45Z</time></trkpt><trkpt lat="45.714473563290895" lon="11.24998340564961"><ele>735.0</ele><time>2026-04-08T15:54:47Z</time></trkpt><trkpt lat="45.71452138364424" lon="11.25012138659101"><ele>735.0</ele><time>2026-04-08T15:54:49Z</time></trkpt><trkpt lat="45.714457010820674" lon="11.250231308189171"><ele>735.0</ele><time>2026-04-08T15:54:51Z</time></trkpt><trkpt lat="45.71440456627311" lon="11.250365565262918"><ele>735.0</ele><time>2026-04-08T15:54:53Z</time></trkpt><trkpt lat="45.71434598241406" lon="11.250446437175484"><ele>737.1666666666666</ele><time>2026-04-08T15:54:57Z</time></trkpt><trkpt lat="45.71429785023163" lon="11.250527081246817"><ele>739.3333333333334</ele><time>2026-04-08T15:54:59Z</time></trkpt><trkpt lat="45.71426846590832" lon="11.250643565981514"><ele>741.5</ele><time>2026-04-08T15:55:09Z</time></trkpt><trkpt lat="45.714263847580895" lon="11.250771744351649"><ele>743.6666666666667</ele><time>2026-04-08T15:55:11Z</time></trkpt><trkpt lat="45.71428379649057" lon="11.250905172447576"><ele>745.8333333333334</ele><time>2026-04-08T15:55:13Z</time></trkpt><trkpt lat="45.714306067960095" lon="11.251028558253418"><ele>748.0</ele><time>2026-04-08T15:55:15Z</time></trkpt><trkpt lat="45.714346473174466" lon="11.25116572481336"><ele>750.1666666666667</ele><time>2026-04-08T15:55:17Z</time></trkpt><trkpt lat="45.714352720526335" lon="11.251298730187395"><ele>752.3333333333334</ele><time>2026-04-08T15:55:19Z</time></trkpt><trkpt lat="45.71433458027218" lon="11.251400563810655"><ele>754.5</ele><time>2026-04-08T15:55:21Z</time></trkpt><trkpt lat="45.71430349343384" lon="11.25149194984733"><ele>756.6666666666666</ele><time>2026-04-08T15:55:23Z</time></trkpt><trkpt lat="45.714277208121565" lon="11.251650297770968"><ele>758.8333333333333</ele><time>2026-04-08T15:55:25Z</time></trkpt><trkpt lat="45.71425817353385" lon="11.251743526699839"><ele>761.0</ele><time>2026-04-08T15:55:27Z</time></trkpt><trkpt lat="45.71423144875648" lon="11.25184152168208"><ele>762.5</ele><time>2026-04-08T15:55:30Z</time></trkpt><trkpt lat="45.71421653737249" lon="11.251960406767449"><ele>764.0</ele><time>2026-04-08T15:55:32Z</time></trkpt><trkpt lat="45.71424867713378" lon="11.252059438578547"><ele>765.5</ele><time>2026-04-08T15:55:35Z</time></trkpt><trkpt lat="45.71424491810158" lon="11.252176382692078"><ele>767.0</ele><time>2026-04-08T15:55:37Z</time></trkpt><trkpt lat="45.71421603694903" lon="11.252323462871889"><ele>768.5000000000001</ele><time>2026-04-08T15:55:39Z</time></trkpt><trkpt lat="45.71418227634102" lon="11.252410306067153"><ele>770.0</ele><time>2026-04-08T15:55:40Z</time></trkpt><trkpt lat="45.714122403982856" lon="11.252499595960286"><ele>770.1428571428571</ele><time>2026-04-08T15:55:42Z</time></trkpt><trkpt lat="45.71406491036214" lon="11.25254527097657"><ele>770.2857142857142</ele><time>2026-04-08T15:55:44Z</time></trkpt><trkpt lat="45.71402936472867" lon="11.252624542010997"><ele>770.4285714285714</ele><time>2026-04-08T15:56:57Z</time></trkpt><trkpt lat="45.71396621700537" lon="11.252648052226677"><ele>770.5714285714286</ele><time>2026-04-08T15:57:03Z</time></trkpt><trkpt lat="45.71390391714118" lon="11.252741504156205"><ele>770.7142857142857</ele><time>2026-04-08T15:57:06Z</time></trkpt><trkpt lat="45.713869262682834" lon="11.252838895179485"><ele>770.8571428571429</ele><time>2026-04-08T15:57:39Z</time></trkpt><trkpt lat="45.713883191350796" lon="11.252941098780955"><ele>771.0</ele><time>2026-04-08T15:57:43Z</time></trkpt><trkpt lat="45.71392611327481" lon="11.253013991010647"><ele>770.8333333333334</ele><time>2026-04-08T15:57:58Z</time></trkpt><trkpt lat="45.713899802735" lon="11.253129286972218"><ele>770.6666666666667</ele><time>2026-04-08T15:58:24Z</time></trkpt><trkpt lat="45.71383882194686" lon="11.253228919645949"><ele>770.5</ele><time>2026-04-08T15:58:26Z</time></trkpt><trkpt lat="45.7138085232123" lon="11.253324279898337"><ele>770.3333333333334</ele><time>2026-04-08T15:58:30Z</time></trkpt><trkpt lat="45.713756699558694" lon="11.253424381101523"><ele>770.1666666666667</ele><time>2026-04-08T15:58:33Z</time></trkpt><trkpt lat="45.713768939384394" lon="11.253517912023376"><ele>770.0</ele><time>2026-04-08T15:59:22Z</time></trkpt><trkpt lat="45.713710996509164" lon="11.253613427567911"><ele>770.0</ele><time>2026-04-08T15:59:25Z</time></trkpt><trkpt lat="45.71366710930283" lon="11.253781435721585"><ele>770.0</ele><time>2026-04-08T15:59:27Z</time></trkpt><trkpt lat="45.71362332439072" lon="11.253913053300291"><ele>770.0</ele><time>2026-04-08T15:59:28Z</time></trkpt><trkpt lat="45.71358574348867" lon="11.254012538906514"><ele>770.0</ele><time>2026-04-08T15:59:29Z</time></trkpt><trkpt lat="45.713528581662345" lon="11.254161477947354"><ele>770.0</ele><time>2026-04-08T15:59:31Z</time></trkpt><trkpt lat="45.713496906852704" lon="11.254266752902865"><ele>769.2</ele><time>2026-04-08T15:59:32Z</time></trkpt><trkpt lat="45.71348069425472" lon="11.254381405104008"><ele>768.4</ele><time>2026-04-08T15:59:33Z</time></trkpt><trkpt lat="45.713435170441386" lon="11.254518729317999"><ele>767.5999999999999</ele><time>2026-04-08T15:59:35Z</time></trkpt><trkpt lat="45.7133518037105" lon="11.25464333768681"><ele>766.8</ele><time>2026-04-08T15:59:36Z</time></trkpt><trkpt lat="45.7132818828053" lon="11.25473969083313"><ele>766.0</ele><time>2026-04-08T15:59:37Z</time></trkpt><trkpt lat="45.713237434111555" lon="11.254830552676655"><ele>767.8333333333334</ele><time>2026-04-08T15:59:39Z</time></trkpt><trkpt lat="45.71323093098336" lon="11.25504536953737"><ele>769.6666666666667</ele><time>2026-04-08T15:59:41Z</time></trkpt><trkpt lat="45.713219543016244" lon="11.255165233308658"><ele>771.5</ele><time>2026-04-08T15:59:42Z</time></trkpt><trkpt lat="45.71320223360409" lon="11.255271359735653"><ele>773.3333333333334</ele><time>2026-04-08T15:59:43Z</time></trkpt><trkpt lat="45.713176968484426" lon="11.255360668567192"><ele>775.1666666666666</ele><time>2026-04-08T15:59:44Z</time></trkpt><trkpt lat="45.71315111385214" lon="11.255447685735604"><ele>777.0</ele><time>2026-04-08T15:59:45Z</time></trkpt><trkpt lat="45.71313171754672" lon="11.255538275700658"><ele>777.3333333333334</ele><time>2026-04-08T15:59:46Z</time></trkpt><trkpt lat="45.71311264292453" lon="11.255659729568059"><ele>777.6666666666667</ele><time>2026-04-08T15:59:47Z</time></trkpt><trkpt lat="45.71313151754409" lon="11.255749657991606"><ele>778.0</ele><time>2026-04-08T15:59:49Z</time></trkpt><trkpt lat="45.71309405336992" lon="11.255854082396212"><ele>778.3333333333334</ele><time>2026-04-08T15:59:50Z</time></trkpt><trkpt lat="45.71305353394776" lon="11.255940025617472"><ele>778.6666666666667</ele><time>2026-04-08T15:59:51Z</time></trkpt><trkpt lat="45.71298351665078" lon="11.256070974818728"><ele>779.0</ele><time>2026-04-08T15:59:53Z</time></trkpt><trkpt lat="45.7129539986931" lon="11.256166894147086"><ele>779.0</ele><time>2026-04-08T15:59:56Z</time></trkpt><trkpt lat="45.71290937214352" lon="11.256239075188775"><ele>779.0</ele><time>2026-04-08T15:59:58Z</time></trkpt><trkpt lat="45.712842467933996" lon="11.256360316889902"><ele>779.0</ele><time>2026-04-08T16:00:00Z</time></trkpt><trkpt lat="45.71277382899835" lon="11.25648974918875"><ele>779.0</ele><time>2026-04-08T16:00:02Z</time></trkpt><trkpt lat="45.71269985484278" lon="11.256621169155189"><ele>779.0</ele><time>2026-04-08T16:00:04Z</time></trkpt><trkpt lat="45.71263001758369" lon="11.256708831797868"><ele>776.2857142857143</ele><time>2026-04-08T16:00:05Z</time></trkpt><trkpt lat="45.712587925151354" lon="11.25677954837167"><ele>773.5714285714286</ele><time>2026-04-08T16:00:06Z</time></trkpt><trkpt lat="45.712548429334596" lon="11.256854482389691"><ele>770.8571428571429</ele><time>2026-04-08T16:00:07Z</time></trkpt><trkpt lat="45.71250110481007" lon="11.25693122496437"><ele>768.1428571428571</ele><time>2026-04-08T16:00:08Z</time></trkpt><trkpt lat="45.71245470435885" lon="11.257025315549525"><ele>765.4285714285714</ele><time>2026-04-08T16:00:09Z</time></trkpt><trkpt lat="45.712409789502175" lon="11.257113150321214"><ele>762.7142857142858</ele><time>2026-04-08T16:00:10Z</time></trkpt><trkpt lat="45.712374945234835" lon="11.257199161289517"><ele>760.0</ele><time>2026-04-08T16:00:11Z</time></trkpt><trkpt lat="45.71234519948791" lon="11.257281689766032"><ele>760.5714285714286</ele><time>2026-04-08T16:00:12Z</time></trkpt><trkpt lat="45.71234387032771" lon="11.25738041575041"><ele>761.1428571428571</ele><time>2026-04-08T16:00:13Z</time></trkpt><trkpt lat="45.71232962067266" lon="11.257471540794846"><ele>761.7142857142858</ele><time>2026-04-08T16:00:14Z</time></trkpt><trkpt lat="45.712297175152024" lon="11.257558165810748"><ele>762.2857142857142</ele><time>2026-04-08T16:00:15Z</time></trkpt><trkpt lat="45.712245055328644" lon="11.257618425858436"><ele>762.8571428571428</ele><time>2026-04-08T16:00:16Z</time></trkpt><trkpt lat="45.712179619476615" lon="11.257641522045695"><ele>763.4285714285714</ele><time>2026-04-08T16:00:17Z</time></trkpt><trkpt lat="45.71211336708576" lon="11.257648026526924"><ele>764.0</ele><time>2026-04-08T16:00:18Z</time></trkpt><trkpt lat="45.712039823621346" lon="11.257673377440387"><ele>764.0</ele><time>2026-04-08T16:00:19Z</time></trkpt><trkpt lat="45.71196809656727" lon="11.257716336781153"><ele>764.0</ele><time>2026-04-08T16:00:20Z</time></trkpt><trkpt lat="45.71189074598937" lon="11.257766051961978"><ele>764.0</ele><time>2026-04-08T16:00:21Z</time></trkpt><trkpt lat="45.71181331151669" lon="11.257823653016196"><ele>764.0</ele><time>2026-04-08T16:00:22Z</time></trkpt><trkpt lat="45.711750492475915" lon="11.25789327959593"><ele>764.0</ele><time>2026-04-08T16:00:23Z</time></trkpt><trkpt lat="45.71169056495771" lon="11.257982719438939"><ele>764.0</ele><time>2026-04-08T16:00:24Z</time></trkpt><trkpt lat="45.71163192811295" lon="11.258019308713845"><ele>760.5</ele><time>2026-04-08T16:00:25Z</time></trkpt><trkpt lat="45.71155115368322" lon="11.258106899832045"><ele>757.0</ele><time>2026-04-08T16:00:26Z</time></trkpt><trkpt lat="45.71148221804406" lon="11.258164270293229"><ele>753.5</ele><time>2026-04-08T16:00:27Z</time></trkpt><trkpt lat="45.71141676860678" lon="11.25823476111481"><ele>750.0</ele><time>2026-04-08T16:00:28Z</time></trkpt><trkpt lat="45.71135071822574" lon="11.258293940375859"><ele>746.5</ele><time>2026-04-08T16:00:29Z</time></trkpt><trkpt lat="45.7112768284641" lon="11.258354592994978"><ele>743.0</ele><time>2026-04-08T16:00:30Z</time></trkpt><trkpt lat="45.71119823089543" lon="11.258395710478885"><ele>743.0</ele><time>2026-04-08T16:00:31Z</time></trkpt><trkpt lat="45.711119179294585" lon="11.25844769718392"><ele>743.0</ele><time>2026-04-08T16:00:32Z</time></trkpt><trkpt lat="45.711034751493756" lon="11.2584950773412"><ele>743.0</ele><time>2026-04-08T16:00:33Z</time></trkpt><trkpt lat="45.71094204705288" lon="11.258519046665088"><ele>743.0</ele><time>2026-04-08T16:00:34Z</time></trkpt><trkpt lat="45.7108713376973" lon="11.25853385467867"><ele>743.0</ele><time>2026-04-08T16:00:35Z</time></trkpt><trkpt lat="45.710793960642526" lon="11.258547638393178"><ele>743.0</ele><time>2026-04-08T16:00:36Z</time></trkpt><trkpt lat="45.710732502924756" lon="11.258569382257397"><ele>738.4</ele><time>2026-04-08T16:00:37Z</time></trkpt><trkpt lat="45.71062912459214" lon="11.258465129699735"><ele>733.8</ele><time>2026-04-08T16:00:38Z</time></trkpt><trkpt lat="45.710548064642026" lon="11.258527496216916"><ele>729.2</ele><time>2026-04-08T16:00:40Z</time></trkpt><trkpt lat="45.71047508233997" lon="11.258627391814347"><ele>724.6</ele><time>2026-04-08T16:00:43Z</time></trkpt><trkpt lat="45.71047709422274" lon="11.258724249302931"><ele>720.0</ele><time>2026-04-08T16:00:46Z</time></trkpt><trkpt lat="45.71043027976755" lon="11.258788185195622"><ele>720.0</ele><time>2026-04-08T16:00:48Z</time></trkpt><trkpt lat="45.71038405155897" lon="11.258863717594592"><ele>720.0</ele><time>2026-04-08T16:00:49Z</time></trkpt><trkpt lat="45.710322388853754" lon="11.258925082992079"><ele>720.0</ele><time>2026-04-08T16:00:50Z</time></trkpt><trkpt lat="45.71022065909145" lon="11.259000158806662"><ele>720.0</ele><time>2026-04-08T16:00:52Z</time></trkpt><trkpt lat="45.71014320933873" lon="11.259100357810313"><ele>720.0</ele><time>2026-04-08T16:00:54Z</time></trkpt><trkpt lat="45.71007240153709" lon="11.25918598215074"><ele>720.0</ele><time>2026-04-08T16:00:56Z</time></trkpt><trkpt lat="45.710016528110884" lon="11.259245965340734"><ele>720.0</ele><time>2026-04-08T16:00:57Z</time></trkpt><trkpt lat="45.70995942371992" lon="11.259303416484228"><ele>720.0</ele><time>2026-04-08T16:00:58Z</time></trkpt><trkpt lat="45.70988951466792" lon="11.259371995883924"><ele>720.0</ele><time>2026-04-08T16:00:59Z</time></trkpt><trkpt lat="45.709831115584315" lon="11.259426811310119"><ele>720.0</ele><time>2026-04-08T16:01:00Z</time></trkpt><trkpt lat="45.70977233599883" lon="11.25948232700096"><ele>720.0</ele><time>2026-04-08T16:01:01Z</time></trkpt><trkpt lat="45.7097009903694" lon="11.25954886497396"><ele>720.0</ele><time>2026-04-08T16:01:02Z</time></trkpt><trkpt lat="45.70962040578941" lon="11.259625859762721"><ele>720.0</ele><time>2026-04-08T16:01:03Z</time></trkpt><trkpt lat="45.709565997176185" lon="11.259678217382875"><ele>720.0</ele><time>2026-04-08T16:01:04Z</time></trkpt><trkpt lat="45.70951038274797" lon="11.259731735351226"><ele>720.0</ele><time>2026-04-08T16:01:05Z</time></trkpt><trkpt lat="45.70944378393875" lon="11.259796461799818"><ele>720.0</ele><time>2026-04-08T16:01:06Z</time></trkpt><trkpt lat="45.70938563526541" lon="11.259842081575252"><ele>720.0</ele><time>2026-04-08T16:01:07Z</time></trkpt><trkpt lat="45.709276582261325" lon="11.259927264639133"><ele>720.8</ele><time>2026-04-08T16:01:09Z</time></trkpt><trkpt lat="45.709174843392034" lon="11.260034629912276"><ele>721.6</ele><time>2026-04-08T16:01:11Z</time></trkpt><trkpt lat="45.709114109534035" lon="11.26010688759666"><ele>722.4000000000001</ele><time>2026-04-08T16:01:12Z</time></trkpt><trkpt lat="45.70901485232438" lon="11.260184553486248"><ele>723.2</ele><time>2026-04-08T16:01:14Z</time></trkpt><trkpt lat="45.70891616222969" lon="11.260281098784882"><ele>724.0</ele><time>2026-04-08T16:01:16Z</time></trkpt><trkpt lat="45.708845239125885" lon="11.260322949442084"><ele>724.0</ele><time>2026-04-08T16:01:18Z</time></trkpt><trkpt lat="45.70877497967382" lon="11.26030665408104"><ele>724.0</ele><time>2026-04-08T16:01:20Z</time></trkpt><trkpt lat="45.7087214677637" lon="11.260363030996423"><ele>724.0</ele><time>2026-04-08T16:01:23Z</time></trkpt><trkpt lat="45.708636494625665" lon="11.260487959914022"><ele>724.0</ele><time>2026-04-08T16:01:25Z</time></trkpt><trkpt lat="45.7085487969689" lon="11.260592302506444"><ele>724.0</ele><time>2026-04-08T16:01:27Z</time></trkpt><trkpt lat="45.70850421065587" lon="11.260665396527404"><ele>724.0</ele><time>2026-04-08T16:01:28Z</time></trkpt><trkpt lat="45.70842105125997" lon="11.260729881502598"><ele>725.0</ele><time>2026-04-08T16:01:29Z</time></trkpt><trkpt lat="45.708337932155196" lon="11.260831124200847"><ele>726.0</ele><time>2026-04-08T16:01:30Z</time></trkpt><trkpt lat="45.70824483401717" lon="11.260879194339294"><ele>727.0</ele><time>2026-04-08T16:01:31Z</time></trkpt><trkpt lat="45.70813265703899" lon="11.260962652530303"><ele>728.0</ele><time>2026-04-08T16:01:33Z</time></trkpt><trkpt lat="45.708016276239576" lon="11.261038675281023"><ele>728.0</ele><time>2026-04-08T16:01:35Z</time></trkpt><trkpt lat="45.70793978665308" lon="11.26104872878644"><ele>728.0</ele><time>2026-04-08T16:01:36Z</time></trkpt><trkpt lat="45.707816130086385" lon="11.261094681000616"><ele>728.0</ele><time>2026-04-08T16:01:38Z</time></trkpt><trkpt lat="45.70776889712423" lon="11.261159655631165"><ele>728.0</ele><time>2026-04-08T16:01:39Z</time></trkpt><trkpt lat="45.70773194408959" lon="11.26124215327823"><ele>728.0</ele><time>2026-04-08T16:01:40Z</time></trkpt><trkpt lat="45.7076780529887" lon="11.261303769663913"><ele>728.0</ele><time>2026-04-08T16:01:41Z</time></trkpt><trkpt lat="45.70755130226788" lon="11.261261155517639"><ele>728.0</ele><time>2026-04-08T16:01:42Z</time></trkpt><trkpt lat="45.707493413168706" lon="11.261325227218325"><ele>728.0</ele><time>2026-04-08T16:01:43Z</time></trkpt><trkpt lat="45.70744200569971" lon="11.26138212496933"><ele>728.0</ele><time>2026-04-08T16:01:44Z</time></trkpt><trkpt lat="45.70738733529266" lon="11.26148240568026"><ele>728.0</ele><time>2026-04-08T16:01:45Z</time></trkpt><trkpt lat="45.70728892194046" lon="11.261548010210891"><ele>728.0</ele><time>2026-04-08T16:01:46Z</time></trkpt><trkpt lat="45.70719500641597" lon="11.2615917414728"><ele>728.0</ele><time>2026-04-08T16:01:47Z</time></trkpt><trkpt lat="45.70710984129284" lon="11.261630322215863"><ele>728.0</ele><time>2026-04-08T16:01:48Z</time></trkpt><trkpt lat="45.70699822466851" lon="11.26168483135858"><ele>728.0</ele><time>2026-04-08T16:01:49Z</time></trkpt><trkpt lat="45.70693375840853" lon="11.261723037610224"><ele>728.0</ele><time>2026-04-08T16:01:50Z</time></trkpt><trkpt lat="45.706862081574016" lon="11.26178495445885"><ele>728.0</ele><time>2026-04-08T16:01:51Z</time></trkpt><trkpt lat="45.706788911660226" lon="11.26183495427468"><ele>728.0</ele><time>2026-04-08T16:01:52Z</time></trkpt><trkpt lat="45.7067008824637" lon="11.26190034806156"><ele>731.2</ele><time>2026-04-08T16:01:53Z</time></trkpt><trkpt lat="45.70662904737396" lon="11.261935978939464"><ele>734.4</ele><time>2026-04-08T16:01:54Z</time></trkpt><trkpt lat="45.70651873572614" lon="11.262011363036544"><ele>737.6</ele><time>2026-04-08T16:01:56Z</time></trkpt><trkpt lat="45.706398574610546" lon="11.262093280307335"><ele>740.8000000000001</ele><time>2026-04-08T16:01:58Z</time></trkpt><trkpt lat="45.70631834751333" lon="11.262158437350012"><ele>744.0</ele><time>2026-04-08T16:01:59Z</time></trkpt><trkpt lat="45.70622025869892" lon="11.262195275098776"><ele>744.0</ele><time>2026-04-08T16:02:00Z</time></trkpt><trkpt lat="45.70613361815303" lon="11.262234254123925"><ele>744.0</ele><time>2026-04-08T16:02:01Z</time></trkpt><trkpt lat="45.706032664975915" lon="11.262248791671967"><ele>744.0</ele><time>2026-04-08T16:02:02Z</time></trkpt><trkpt lat="45.70593320698905" lon="11.26227064982375"><ele>744.0</ele><time>2026-04-08T16:02:03Z</time></trkpt><trkpt lat="45.70585207883483" lon="11.262300767728263"><ele>744.0</ele><time>2026-04-08T16:02:04Z</time></trkpt><trkpt lat="45.70577928931128" lon="11.262334442186592"><ele>744.4000000000001</ele><time>2026-04-08T16:02:05Z</time></trkpt><trkpt lat="45.705655403820074" lon="11.262415854257547"><ele>744.8</ele><time>2026-04-08T16:02:07Z</time></trkpt><trkpt lat="45.705558291434905" lon="11.262493503624437"><ele>745.2</ele><time>2026-04-08T16:02:08Z</time></trkpt><trkpt lat="45.70546902416151" lon="11.262581719698474"><ele>745.5999999999999</ele><time>2026-04-08T16:02:09Z</time></trkpt><trkpt lat="45.70540255334039" lon="11.2626571755043"><ele>746.0</ele><time>2026-04-08T16:02:10Z</time></trkpt><trkpt lat="45.70534850645761" lon="11.262717743668203"><ele>746.0</ele><time>2026-04-08T16:02:11Z</time></trkpt><trkpt lat="45.70531608997328" lon="11.262846810115972"><ele>746.0</ele><time>2026-04-08T16:02:13Z</time></trkpt><trkpt lat="45.70533737465589" lon="11.262982135728699"><ele>746.0</ele><time>2026-04-08T16:02:15Z</time></trkpt><trkpt lat="45.70534174374213" lon="11.26308931372954"><ele>746.0</ele><time>2026-04-08T16:02:16Z</time></trkpt><trkpt lat="45.70534897910337" lon="11.263200846028026"><ele>746.0</ele><time>2026-04-08T16:02:17Z</time></trkpt><trkpt lat="45.70534924539097" lon="11.263374209567449"><ele>745.5</ele><time>2026-04-08T16:02:19Z</time></trkpt><trkpt lat="45.705270935380824" lon="11.263525172741701"><ele>745.0</ele><time>2026-04-08T16:02:21Z</time></trkpt><trkpt lat="45.70520952243102" lon="11.26357916056963"><ele>744.5</ele><time>2026-04-08T16:02:22Z</time></trkpt><trkpt lat="45.70514950785082" lon="11.263623791968167"><ele>744.0</ele><time>2026-04-08T16:02:23Z</time></trkpt><trkpt lat="45.70506820797067" lon="11.263716036340341"><ele>743.5</ele><time>2026-04-08T16:02:25Z</time></trkpt><trkpt lat="45.705004666103974" lon="11.263764920553356"><ele>743.0</ele><time>2026-04-08T16:02:26Z</time></trkpt><trkpt lat="45.7049161976419" lon="11.26385397460444"><ele>742.2</ele><time>2026-04-08T16:02:27Z</time></trkpt><trkpt lat="45.70485504532219" lon="11.263959985514665"><ele>741.4</ele><time>2026-04-08T16:02:28Z</time></trkpt><trkpt lat="45.704825283612564" lon="11.264072748464317"><ele>740.6</ele><time>2026-04-08T16:02:29Z</time></trkpt><trkpt lat="45.704762458745236" lon="11.26425929497155"><ele>739.8000000000001</ele><time>2026-04-08T16:02:31Z</time></trkpt><trkpt lat="45.70475398513681" lon="11.264367575780064"><ele>739.0</ele><time>2026-04-08T16:02:32Z</time></trkpt><trkpt lat="45.70470989705963" lon="11.264518232114407"><ele>739.0</ele><time>2026-04-08T16:02:34Z</time></trkpt><trkpt lat="45.70466778109843" lon="11.264683985380227"><ele>739.0</ele><time>2026-04-08T16:02:36Z</time></trkpt><trkpt lat="45.704634294269084" lon="11.264778073140418"><ele>739.0</ele><time>2026-04-08T16:02:38Z</time></trkpt><trkpt lat="45.70453970785807" lon="11.264867768321903"><ele>739.0</ele><time>2026-04-08T16:02:40Z</time></trkpt><trkpt lat="45.70447832711367" lon="11.264918423130979"><ele>739.0</ele><time>2026-04-08T16:02:41Z</time></trkpt><trkpt lat="45.70438810894992" lon="11.264969583652077"><ele>739.3333333333334</ele><time>2026-04-08T16:02:42Z</time></trkpt><trkpt lat="45.704287619929204" lon="11.264980406764971"><ele>739.6666666666667</ele><time>2026-04-08T16:02:43Z</time></trkpt><trkpt lat="45.70422127860218" lon="11.264985682357269"><ele>740.0</ele><time>2026-04-08T16:02:44Z</time></trkpt><trkpt lat="45.704145329621525" lon="11.265011298496422"><ele>740.3333333333334</ele><time>2026-04-08T16:02:45Z</time></trkpt><trkpt lat="45.70406168333885" lon="11.264987214506583"><ele>740.6666666666666</ele><time>2026-04-08T16:02:46Z</time></trkpt><trkpt lat="45.70398105666759" lon="11.264990927463407"><ele>741.0</ele><time>2026-04-08T16:02:47Z</time></trkpt><trkpt lat="45.70390768129857" lon="11.265001083457067"><ele>741.0</ele><time>2026-04-08T16:02:48Z</time></trkpt><trkpt lat="45.70383367225229" lon="11.265016974247915"><ele>741.0</ele><time>2026-04-08T16:02:49Z</time></trkpt><trkpt lat="45.70375748341426" lon="11.265026652674047"><ele>741.0</ele><time>2026-04-08T16:02:50Z</time></trkpt><trkpt lat="45.70368971854381" lon="11.265028324457523"><ele>741.0</ele><time>2026-04-08T16:02:51Z</time></trkpt><trkpt lat="45.703516369589096" lon="11.265025576797226"><ele>741.0</ele><time>2026-04-08T16:02:53Z</time></trkpt><trkpt lat="45.70341084328749" lon="11.265041155389424"><ele>739.3333333333334</ele><time>2026-04-08T16:02:54Z</time></trkpt><trkpt lat="45.70333623272715" lon="11.265053148790571"><ele>737.6666666666666</ele><time>2026-04-08T16:02:55Z</time></trkpt><trkpt lat="45.70326071142782" lon="11.265064582965646"><ele>736.0</ele><time>2026-04-08T16:02:56Z</time></trkpt><trkpt lat="45.70318837725993" lon="11.265092332450582"><ele>734.3333333333333</ele><time>2026-04-08T16:02:57Z</time></trkpt><trkpt lat="45.703119513184625" lon="11.265125510939823"><ele>732.6666666666666</ele><time>2026-04-08T16:02:58Z</time></trkpt><trkpt lat="45.70305248206679" lon="11.26519224792077"><ele>731.0</ele><time>2026-04-08T16:02:59Z</time></trkpt><trkpt lat="45.70299958276059" lon="11.26526702204398"><ele>731.0</ele><time>2026-04-08T16:03:00Z</time></trkpt><trkpt lat="45.70293568880883" lon="11.265333561005525"><ele>731.0</ele><time>2026-04-08T16:03:01Z</time></trkpt><trkpt lat="45.702863278952876" lon="11.265338483411385"><ele>731.0</ele><time>2026-04-08T16:03:02Z</time></trkpt><trkpt lat="45.7027954536095" lon="11.265392421966977"><ele>731.0</ele><time>2026-04-08T16:03:03Z</time></trkpt><trkpt lat="45.702732360414984" lon="11.265447332374448"><ele>731.0</ele><time>2026-04-08T16:03:04Z</time></trkpt><trkpt lat="45.70268295932712" lon="11.265515227648729"><ele>731.0</ele><time>2026-04-08T16:03:05Z</time></trkpt><trkpt lat="45.70260513331139" lon="11.265615638759485"><ele>729.3333333333333</ele><time>2026-04-08T16:03:06Z</time></trkpt><trkpt lat="45.702539915485744" lon="11.265718950310697"><ele>727.6666666666666</ele><time>2026-04-08T16:03:07Z</time></trkpt><trkpt lat="45.70248531579795" lon="11.26580569929762"><ele>726.0</ele><time>2026-04-08T16:03:08Z</time></trkpt><trkpt lat="45.70242217869833" lon="11.265887717895376"><ele>724.3333333333334</ele><time>2026-04-08T16:03:09Z</time></trkpt><trkpt lat="45.7023495578519" lon="11.265948756311147"><ele>722.6666666666667</ele><time>2026-04-08T16:03:10Z</time></trkpt><trkpt lat="45.70229574195035" lon="11.265996231150794"><ele>721.0</ele><time>2026-04-08T16:03:11Z</time></trkpt><trkpt lat="45.702229107427506" lon="11.266046777694326"><ele>721.0</ele><time>2026-04-08T16:03:12Z</time></trkpt><trkpt lat="45.702146241613654" lon="11.266192599134092"><ele>721.0</ele><time>2026-04-08T16:03:14Z</time></trkpt><trkpt lat="45.702085383890285" lon="11.266253786844237"><ele>721.0</ele><time>2026-04-08T16:03:15Z</time></trkpt><trkpt lat="45.701986108570026" lon="11.266267776906238"><ele>721.0</ele><time>2026-04-08T16:03:16Z</time></trkpt><trkpt lat="45.70189272752309" lon="11.266306337188258"><ele>721.0</ele><time>2026-04-08T16:03:17Z</time></trkpt><trkpt lat="45.701804574540574" lon="11.266348661253417"><ele>719.1999999999999</ele><time>2026-04-08T16:03:18Z</time></trkpt><trkpt lat="45.701739737649575" lon="11.266369491631144"><ele>717.4</ele><time>2026-04-08T16:03:19Z</time></trkpt><trkpt lat="45.70167330027699" lon="11.266376594389149"><ele>715.6</ele><time>2026-04-08T16:03:21Z</time></trkpt><trkpt lat="45.70161051249272" lon="11.266388087484584"><ele>713.8</ele><time>2026-04-08T16:03:23Z</time></trkpt><trkpt lat="45.70151202290656" lon="11.266337005392522"><ele>712.0</ele><time>2026-04-08T16:03:25Z</time></trkpt><trkpt lat="45.701189919986625" lon="11.26616443489614"><ele>712.0</ele><time>2026-04-08T16:03:27Z</time></trkpt><trkpt lat="45.70112419733164" lon="11.266240916111004"><ele>712.0</ele><time>2026-04-08T16:03:30Z</time></trkpt><trkpt lat="45.7011779454119" lon="11.26617756832106"><ele>712.0</ele><time>2026-04-08T16:04:18Z</time></trkpt><trkpt lat="45.70153946356101" lon="11.266122573789707"><ele>712.0</ele><time>2026-04-08T16:04:20Z</time></trkpt><trkpt lat="45.701548554137695" lon="11.266516742428655"><ele>712.0</ele><time>2026-04-08T16:04:21Z</time></trkpt><trkpt lat="45.70165446670149" lon="11.26645916848673"><ele>712.0</ele><time>2026-04-08T16:04:23Z</time></trkpt><trkpt lat="45.70168151130023" lon="11.26637608315826"><ele>712.0</ele><time>2026-04-08T16:04:26Z</time></trkpt><trkpt lat="45.701587340818634" lon="11.26632368432732"><ele>712.0</ele><time>2026-04-08T16:04:40Z</time></trkpt><trkpt lat="45.701598919030545" lon="11.266198380092307"><ele>712.0</ele><time>2026-04-08T16:04:41Z</time></trkpt><trkpt lat="45.7014937071928" lon="11.266096083707481"><ele>712.0</ele><time>2026-04-08T16:04:43Z</time></trkpt><trkpt lat="45.701406106005834" lon="11.26606934300515"><ele>712.0</ele><time>2026-04-08T16:04:44Z</time></trkpt><trkpt lat="45.701291090516825" lon="11.26608830122555"><ele>712.0</ele><time>2026-04-08T16:04:46Z</time></trkpt><trkpt lat="45.70120608117062" lon="11.26614826912693"><ele>712.0</ele><time>2026-04-08T16:04:48Z</time></trkpt><trkpt lat="45.70111700571604" lon="11.266249877781503"><ele>712.0</ele><time>2026-04-08T16:04:50Z</time></trkpt><trkpt lat="45.70106971006747" lon="11.266310894970154"><ele>712.0</ele><time>2026-04-08T16:04:51Z</time></trkpt><trkpt lat="45.70098796044189" lon="11.266422772222484"><ele>712.0</ele><time>2026-04-08T16:04:53Z</time></trkpt><trkpt lat="45.70092800117159" lon="11.26651012229779"><ele>710.8</ele><time>2026-04-08T16:04:54Z</time></trkpt><trkpt lat="45.70089017766251" lon="11.266585812528207"><ele>709.6</ele><time>2026-04-08T16:04:55Z</time></trkpt><trkpt lat="45.70083268431042" lon="11.266638330975074"><ele>708.4</ele><time>2026-04-08T16:04:56Z</time></trkpt><trkpt lat="45.70074099218549" lon="11.26675474963598"><ele>707.1999999999999</ele><time>2026-04-08T16:04:58Z</time></trkpt><trkpt lat="45.70065647478394" lon="11.266899066408726"><ele>706.0</ele><time>2026-04-08T16:05:00Z</time></trkpt><trkpt lat="45.70062219742178" lon="11.266987737795574"><ele>706.0</ele><time>2026-04-08T16:05:01Z</time></trkpt><trkpt lat="45.70058909727991" lon="11.26706776215444"><ele>706.0</ele><time>2026-04-08T16:05:02Z</time></trkpt><trkpt lat="45.70050865944757" lon="11.267247524270616"><ele>706.0</ele><time>2026-04-08T16:05:04Z</time></trkpt><trkpt lat="45.70046376468058" lon="11.267371210916219"><ele>706.0</ele><time>2026-04-08T16:05:05Z</time></trkpt><trkpt lat="45.70042872499571" lon="11.267478617704223"><ele>706.0</ele><time>2026-04-08T16:05:06Z</time></trkpt><trkpt lat="45.7003939601415" lon="11.267602714698544"><ele>706.1666666666667</ele><time>2026-04-08T16:05:07Z</time></trkpt><trkpt lat="45.70036308824264" lon="11.26771033802881"><ele>706.3333333333334</ele><time>2026-04-08T16:05:08Z</time></trkpt><trkpt lat="45.700334045612124" lon="11.267796432573274"><ele>706.5</ele><time>2026-04-08T16:05:09Z</time></trkpt><trkpt lat="45.70029610588779" lon="11.267919003984945"><ele>706.6666666666666</ele><time>2026-04-08T16:05:11Z</time></trkpt><trkpt lat="45.70027226439253" lon="11.268075919672148"><ele>706.8333333333333</ele><time>2026-04-08T16:05:13Z</time></trkpt><trkpt lat="45.70027192706013" lon="11.26817297031509"><ele>707.0</ele><time>2026-04-08T16:05:14Z</time></trkpt><trkpt lat="45.700272625621935" lon="11.268278690802571"><ele>705.4000000000001</ele><time>2026-04-08T16:05:15Z</time></trkpt><trkpt lat="45.700286727303464" lon="11.268506676431965"><ele>703.8000000000001</ele><time>2026-04-08T16:05:17Z</time></trkpt><trkpt lat="45.70031198759479" lon="11.268677351469352"><ele>702.2</ele><time>2026-04-08T16:05:18Z</time></trkpt><trkpt lat="45.70033817320364" lon="11.268805086096137"><ele>700.6</ele><time>2026-04-08T16:05:19Z</time></trkpt><trkpt lat="45.70036011746124" lon="11.268897027581781"><ele>699.0</ele><time>2026-04-08T16:05:20Z</time></trkpt><trkpt lat="45.700395343503054" lon="11.268979826841731"><ele>697.0</ele><time>2026-04-08T16:05:21Z</time></trkpt><trkpt lat="45.700421412300365" lon="11.269086072467404"><ele>695.0</ele><time>2026-04-08T16:05:23Z</time></trkpt><trkpt lat="45.7004438987254" lon="11.269231233408547"><ele>693.0</ele><time>2026-04-08T16:05:31Z</time></trkpt><trkpt lat="45.700492346085774" lon="11.26942096743832"><ele>691.0</ele><time>2026-04-08T16:05:33Z</time></trkpt><trkpt lat="45.70054918219119" lon="11.269497736677485"><ele>689.0</ele><time>2026-04-08T16:05:34Z</time></trkpt><trkpt lat="45.70058355300029" lon="11.269573443000144"><ele>689.0</ele><time>2026-04-08T16:05:35Z</time></trkpt><trkpt lat="45.70063037507777" lon="11.26965401205744"><ele>689.0</ele><time>2026-04-08T16:05:36Z</time></trkpt><trkpt lat="45.70064979245806" lon="11.269745609050831"><ele>689.0</ele><time>2026-04-08T16:05:37Z</time></trkpt><trkpt lat="45.700709891216796" lon="11.269905562410136"><ele>689.0</ele><time>2026-04-08T16:05:39Z</time></trkpt><trkpt lat="45.70073189800042" lon="11.270033365698303"><ele>689.0</ele><time>2026-04-08T16:05:40Z</time></trkpt><trkpt lat="45.70077244278787" lon="11.270155899923644"><ele>690.8000000000001</ele><time>2026-04-08T16:05:41Z</time></trkpt><trkpt lat="45.700796900160356" lon="11.270268310186044"><ele>692.6</ele><time>2026-04-08T16:05:42Z</time></trkpt><trkpt lat="45.70085868100594" lon="11.270413961061374"><ele>694.4</ele><time>2026-04-08T16:05:44Z</time></trkpt><trkpt lat="45.70096403400956" lon="11.270492635012921"><ele>696.2</ele><time>2026-04-08T16:05:46Z</time></trkpt><trkpt lat="45.701044628450575" lon="11.270545735262274"><ele>698.0</ele><time>2026-04-08T16:05:47Z</time></trkpt><trkpt lat="45.701135524195756" lon="11.270585661296781"><ele>693.4</ele><time>2026-04-08T16:05:48Z</time></trkpt><trkpt lat="45.70120079404158" lon="11.270657315410068"><ele>688.8</ele><time>2026-04-08T16:05:49Z</time></trkpt><trkpt lat="45.701279548881885" lon="11.270767057568914"><ele>684.2</ele><time>2026-04-08T16:05:51Z</time></trkpt><trkpt lat="45.70136003087625" lon="11.270912342713666"><ele>679.6</ele><time>2026-04-08T16:05:53Z</time></trkpt><trkpt lat="45.70141293271204" lon="11.271019093850352"><ele>675.0</ele><time>2026-04-08T16:05:54Z</time></trkpt><trkpt lat="45.70147804410512" lon="11.271147953382172"><ele>675.0</ele><time>2026-04-08T16:05:55Z</time></trkpt><trkpt lat="45.70152240450371" lon="11.271246582674046"><ele>675.0</ele><time>2026-04-08T16:05:56Z</time></trkpt><trkpt lat="45.70157440880656" lon="11.27130921539367"><ele>675.0</ele><time>2026-04-08T16:05:57Z</time></trkpt><trkpt lat="45.70165833411596" lon="11.2714608581424"><ele>675.0</ele><time>2026-04-08T16:05:59Z</time></trkpt><trkpt lat="45.70171652999034" lon="11.271584117373887"><ele>675.0</ele><time>2026-04-08T16:06:01Z</time></trkpt><trkpt lat="45.70173692074796" lon="11.271730004998153"><ele>678.2</ele><time>2026-04-08T16:06:03Z</time></trkpt><trkpt lat="45.701760310884644" lon="11.271843708114195"><ele>681.4</ele><time>2026-04-08T16:06:04Z</time></trkpt><trkpt lat="45.701808168040564" lon="11.272005441981646"><ele>684.5999999999999</ele><time>2026-04-08T16:06:05Z</time></trkpt><trkpt lat="45.701837273359054" lon="11.272123624333776"><ele>687.8</ele><time>2026-04-08T16:06:06Z</time></trkpt><trkpt lat="45.701862153178624" lon="11.272256853970543"><ele>691.0</ele><time>2026-04-08T16:06:07Z</time></trkpt><trkpt lat="45.701870876624476" lon="11.272356268674194"><ele>692.3333333333334</ele><time>2026-04-08T16:06:08Z</time></trkpt><trkpt lat="45.70190250193218" lon="11.272467874738085"><ele>693.6666666666667</ele><time>2026-04-08T16:06:09Z</time></trkpt><trkpt lat="45.701969278801535" lon="11.272572259494973"><ele>695.0</ele><time>2026-04-08T16:06:10Z</time></trkpt><trkpt lat="45.702045470741226" lon="11.272653006884967"><ele>696.3333333333334</ele><time>2026-04-08T16:06:11Z</time></trkpt><trkpt lat="45.70210461099063" lon="11.27270875663584"><ele>697.6666666666666</ele><time>2026-04-08T16:06:12Z</time></trkpt><trkpt lat="45.7021324927027" lon="11.272814060281288"><ele>699.0</ele><time>2026-04-08T16:06:15Z</time></trkpt><trkpt lat="45.702084884800726" lon="11.272937140107116"><ele>695.4000000000001</ele><time>2026-04-08T16:06:17Z</time></trkpt><trkpt lat="45.70207745133572" lon="11.273131039187216"><ele>691.8</ele><time>2026-04-08T16:06:19Z</time></trkpt><trkpt lat="45.70208090469863" lon="11.27324524780517"><ele>688.2</ele><time>2026-04-08T16:06:20Z</time></trkpt><trkpt lat="45.70207435422135" lon="11.273352418980055"><ele>684.5999999999999</ele><time>2026-04-08T16:06:21Z</time></trkpt><trkpt lat="45.70213519316431" lon="11.273471735755724"><ele>681.0</ele><time>2026-04-08T16:06:23Z</time></trkpt><trkpt lat="45.702217896050634" lon="11.273610251299644"><ele>681.0</ele><time>2026-04-08T16:06:25Z</time></trkpt><trkpt lat="45.70227719993183" lon="11.273671284451085"><ele>681.0</ele><time>2026-04-08T16:06:26Z</time></trkpt><trkpt lat="45.70233541811605" lon="11.273744443515369"><ele>681.0</ele><time>2026-04-08T16:06:27Z</time></trkpt><trkpt lat="45.702387756855735" lon="11.273800077510348"><ele>681.0</ele><time>2026-04-08T16:06:28Z</time></trkpt><trkpt lat="45.70244349430421" lon="11.273892520884148"><ele>681.0</ele><time>2026-04-08T16:06:30Z</time></trkpt><trkpt lat="45.7024435265454" lon="11.274063516016932"><ele>681.0</ele><time>2026-04-08T16:06:32Z</time></trkpt><trkpt lat="45.70244608916666" lon="11.27419879949113"><ele>683.1999999999999</ele><time>2026-04-08T16:06:33Z</time></trkpt><trkpt lat="45.70243385152517" lon="11.274337704589644"><ele>685.4</ele><time>2026-04-08T16:06:34Z</time></trkpt><trkpt lat="45.70244432876645" lon="11.274485209394854"><ele>687.6</ele><time>2026-04-08T16:06:35Z</time></trkpt><trkpt lat="45.70248060525285" lon="11.27460806762725"><ele>689.8</ele><time>2026-04-08T16:06:36Z</time></trkpt><trkpt lat="45.702511499039694" lon="11.274710450592314"><ele>692.0</ele><time>2026-04-08T16:06:37Z</time></trkpt><trkpt lat="45.70254185471784" lon="11.274875820049072"><ele>693.0</ele><time>2026-04-08T16:06:39Z</time></trkpt><trkpt lat="45.70253989654947" lon="11.275054525039812"><ele>694.0</ele><time>2026-04-08T16:06:41Z</time></trkpt><trkpt lat="45.70254423934231" lon="11.275156935912317"><ele>695.0</ele><time>2026-04-08T16:06:42Z</time></trkpt><trkpt lat="45.70254308656302" lon="11.275281377668541"><ele>696.0</ele><time>2026-04-08T16:06:43Z</time></trkpt><trkpt lat="45.702535726163994" lon="11.275398647655898"><ele>697.0</ele><time>2026-04-08T16:06:44Z</time></trkpt><trkpt lat="45.70253713247091" lon="11.27548941118445"><ele>698.0</ele><time>2026-04-08T16:06:45Z</time></trkpt><trkpt lat="45.70255576247189" lon="11.27564089462949"><ele>700.0</ele><time>2026-04-08T16:06:47Z</time></trkpt><trkpt lat="45.70258985961791" lon="11.275833587236855"><ele>702.0</ele><time>2026-04-08T16:06:49Z</time></trkpt><trkpt lat="45.70266212614863" lon="11.275882227595142"><ele>704.0</ele><time>2026-04-08T16:06:50Z</time></trkpt><trkpt lat="45.70275944994261" lon="11.276016482172164"><ele>706.0</ele><time>2026-04-08T16:06:52Z</time></trkpt><trkpt lat="45.70284244520455" lon="11.276119795949738"><ele>704.8333333333334</ele><time>2026-04-08T16:06:54Z</time></trkpt><trkpt lat="45.70287119165753" lon="11.276201479515588"><ele>703.6666666666667</ele><time>2026-04-08T16:06:56Z</time></trkpt><trkpt lat="45.702943726023264" lon="11.27636115775822"><ele>702.5</ele><time>2026-04-08T16:06:58Z</time></trkpt><trkpt lat="45.70296509815092" lon="11.27646345432664"><ele>701.3333333333334</ele><time>2026-04-08T16:06:59Z</time></trkpt><trkpt lat="45.7029898597537" lon="11.2765490298604"><ele>700.1666666666666</ele><time>2026-04-08T16:07:00Z</time></trkpt><trkpt lat="45.70301473015802" lon="11.276654687453528"><ele>699.0</ele><time>2026-04-08T16:07:01Z</time></trkpt><trkpt lat="45.703055035397675" lon="11.276787023304758"><ele>699.0</ele><time>2026-04-08T16:07:02Z</time></trkpt><trkpt lat="45.70306578096093" lon="11.276906852797223"><ele>699.0</ele><time>2026-04-08T16:07:03Z</time></trkpt><trkpt lat="45.70308475588879" lon="11.276999610924841"><ele>699.0</ele><time>2026-04-08T16:07:04Z</time></trkpt><trkpt lat="45.70309457579573" lon="11.277119215806751"><ele>699.0</ele><time>2026-04-08T16:07:06Z</time></trkpt><trkpt lat="45.7031253241108" lon="11.277262438335546"><ele>699.0</ele><time>2026-04-08T16:07:08Z</time></trkpt><trkpt lat="45.703150376664546" lon="11.277358596810814"><ele>699.0</ele><time>2026-04-08T16:07:09Z</time></trkpt><trkpt lat="45.70323603789209" lon="11.27751495426405"><ele>698.1666666666666</ele><time>2026-04-08T16:07:11Z</time></trkpt><trkpt lat="45.703289026982866" lon="11.277609475450674"><ele>697.3333333333334</ele><time>2026-04-08T16:07:12Z</time></trkpt><trkpt lat="45.703351392370756" lon="11.277718020396001"><ele>696.5</ele><time>2026-04-08T16:07:14Z</time></trkpt><trkpt lat="45.70336514940954" lon="11.27782799600927"><ele>695.6666666666667</ele><time>2026-04-08T16:07:16Z</time></trkpt><trkpt lat="45.703336910481454" lon="11.277951351456775"><ele>694.8333333333334</ele><time>2026-04-08T16:07:18Z</time></trkpt><trkpt lat="45.70332281398337" lon="11.278086535584245"><ele>694.0</ele><time>2026-04-08T16:10:18Z</time></trkpt><trkpt lat="45.70326353292717" lon="11.278200423237083"><ele>693.0</ele><time>2026-04-08T16:10:20Z</time></trkpt><trkpt lat="45.70316559829456" lon="11.278205469653237"><ele>692.0</ele><time>2026-04-08T16:10:21Z</time></trkpt><trkpt lat="45.703124782044156" lon="11.278323341316273"><ele>691.0</ele><time>2026-04-08T16:10:22Z</time></trkpt><trkpt lat="45.70314633725242" lon="11.278431530673467"><ele>690.0</ele><time>2026-04-08T16:10:23Z</time></trkpt><trkpt lat="45.70312577060605" lon="11.278532107954783"><ele>689.0</ele><time>2026-04-08T16:10:24Z</time></trkpt><trkpt lat="45.703107014066255" lon="11.278638318159047"><ele>688.0</ele><time>2026-04-08T16:10:25Z</time></trkpt><trkpt lat="45.70308011618281" lon="11.278735224340181"><ele>688.0</ele><time>2026-04-08T16:10:26Z</time></trkpt><trkpt lat="45.70300623215595" lon="11.278809691046717"><ele>688.0</ele><time>2026-04-08T16:10:27Z</time></trkpt><trkpt lat="45.70297568553488" lon="11.278918622282752"><ele>688.0</ele><time>2026-04-08T16:10:28Z</time></trkpt><trkpt lat="45.702973181741505" lon="11.279018865776994"><ele>688.0</ele><time>2026-04-08T16:10:29Z</time></trkpt><trkpt lat="45.702982908775176" lon="11.279121165142277"><ele>688.0</ele><time>2026-04-08T16:10:30Z</time></trkpt><trkpt lat="45.70299785764494" lon="11.279225896204428"><ele>688.0</ele><time>2026-04-08T16:10:31Z</time></trkpt><trkpt lat="45.70301254087261" lon="11.279337946127445"><ele>687.2</ele><time>2026-04-08T16:10:32Z</time></trkpt><trkpt lat="45.70302065901041" lon="11.279461865368207"><ele>686.4</ele><time>2026-04-08T16:10:33Z</time></trkpt><trkpt lat="45.70304567418685" lon="11.279599526800013"><ele>685.6</ele><time>2026-04-08T16:10:34Z</time></trkpt><trkpt lat="45.703058987859734" lon="11.27974161201505"><ele>684.8000000000001</ele><time>2026-04-08T16:10:35Z</time></trkpt><trkpt lat="45.70308002819807" lon="11.27994532615631"><ele>684.0</ele><time>2026-04-08T16:10:37Z</time></trkpt><trkpt lat="45.70308284909309" lon="11.28005219842033"><ele>684.0</ele><time>2026-04-08T16:10:38Z</time></trkpt><trkpt lat="45.70308245171041" lon="11.280181232362843"><ele>684.0</ele><time>2026-04-08T16:10:39Z</time></trkpt><trkpt lat="45.703061022597076" lon="11.280282619608153"><ele>684.0</ele><time>2026-04-08T16:10:40Z</time></trkpt><trkpt lat="45.70305132766285" lon="11.280376476719107"><ele>684.0</ele><time>2026-04-08T16:10:41Z</time></trkpt><trkpt lat="45.703036488136334" lon="11.280502391914561"><ele>684.0</ele><time>2026-04-08T16:10:42Z</time></trkpt><trkpt lat="45.703031577049096" lon="11.280608156787125"><ele>684.0</ele><time>2026-04-08T16:10:43Z</time></trkpt><trkpt lat="45.703052420921544" lon="11.280755477380593"><ele>683.6666666666666</ele><time>2026-04-08T16:10:45Z</time></trkpt><trkpt lat="45.703048236964285" lon="11.28090527606823"><ele>683.3333333333334</ele><time>2026-04-08T16:10:47Z</time></trkpt><trkpt lat="45.70306110061407" lon="11.281039289323568"><ele>683.0</ele><time>2026-04-08T16:10:49Z</time></trkpt><trkpt lat="45.70307020788754" lon="11.281134168227203"><ele>682.6666666666667</ele><time>2026-04-08T16:10:50Z</time></trkpt><trkpt lat="45.70307981637583" lon="11.281234268919787"><ele>682.3333333333334</ele><time>2026-04-08T16:10:51Z</time></trkpt><trkpt lat="45.70309059803805" lon="11.28134200833717"><ele>682.0</ele><time>2026-04-08T16:10:52Z</time></trkpt><trkpt lat="45.70311687141723" lon="11.281497266717087"><ele>681.6666666666667</ele><time>2026-04-08T16:10:53Z</time></trkpt><trkpt lat="45.7031163945845" lon="11.28161559021251"><ele>681.3333333333334</ele><time>2026-04-08T16:10:54Z</time></trkpt><trkpt lat="45.70312016599894" lon="11.281758609515022"><ele>681.0</ele><time>2026-04-08T16:10:55Z</time></trkpt><trkpt lat="45.7031174607933" lon="11.281864556526989"><ele>680.6666666666666</ele><time>2026-04-08T16:10:56Z</time></trkpt><trkpt lat="45.70311128061481" lon="11.28196311886448"><ele>680.3333333333333</ele><time>2026-04-08T16:10:57Z</time></trkpt><trkpt lat="45.70305534585657" lon="11.282058705198882"><ele>680.0</ele><time>2026-04-08T16:10:59Z</time></trkpt><trkpt lat="45.70295559916317" lon="11.282164714244821"><ele>680.0</ele><time>2026-04-08T16:11:01Z</time></trkpt><trkpt lat="45.70285415362651" lon="11.28225416090503"><ele>680.0</ele><time>2026-04-08T16:11:03Z</time></trkpt><trkpt lat="45.702783269093345" lon="11.282307888885947"><ele>680.0</ele><time>2026-04-08T16:11:04Z</time></trkpt><trkpt lat="45.702668825579096" lon="11.282399494679986"><ele>680.0</ele><time>2026-04-08T16:11:06Z</time></trkpt><trkpt lat="45.70253084388462" lon="11.282496591553038"><ele>683.8</ele><time>2026-04-08T16:11:08Z</time></trkpt><trkpt lat="45.70245286442734" lon="11.28253149408306"><ele>687.6</ele><time>2026-04-08T16:11:09Z</time></trkpt><trkpt lat="45.70230297083054" lon="11.282545207777533"><ele>691.4000000000001</ele><time>2026-04-08T16:11:11Z</time></trkpt><trkpt lat="45.702228868251076" lon="11.282539698789424"><ele>695.2</ele><time>2026-04-08T16:11:12Z</time></trkpt><trkpt lat="45.70216727292509" lon="11.282510256588083"><ele>699.0</ele><time>2026-04-08T16:11:13Z</time></trkpt><trkpt lat="45.70201613387075" lon="11.282538906047558"><ele>699.0</ele><time>2026-04-08T16:11:15Z</time></trkpt><trkpt lat="45.701929302189285" lon="11.282612060966404"><ele>699.0</ele><time>2026-04-08T16:11:17Z</time></trkpt><trkpt lat="45.701867593007385" lon="11.282757730940071"><ele>699.0</ele><time>2026-04-08T16:11:19Z</time></trkpt><trkpt lat="45.70184342547613" lon="11.28289026470087"><ele>699.0</ele><time>2026-04-08T16:11:20Z</time></trkpt><trkpt lat="45.70177913228276" lon="11.28297385940632"><ele>699.0</ele><time>2026-04-08T16:11:22Z</time></trkpt><trkpt lat="45.70165448453058" lon="11.283029904459433"><ele>698.6</ele><time>2026-04-08T16:11:24Z</time></trkpt><trkpt lat="45.701578649113486" lon="11.28309241637123"><ele>698.2</ele><time>2026-04-08T16:11:25Z</time></trkpt><trkpt lat="45.70143978523638" lon="11.283117555524674"><ele>697.8000000000001</ele><time>2026-04-08T16:11:27Z</time></trkpt><trkpt lat="45.701324736334534" lon="11.283147120691165"><ele>697.4000000000001</ele><time>2026-04-08T16:11:29Z</time></trkpt><trkpt lat="45.70123917878876" lon="11.28316525039806"><ele>697.0</ele><time>2026-04-08T16:11:31Z</time></trkpt><trkpt lat="45.701156650151326" lon="11.283189620466489"><ele>697.0</ele><time>2026-04-08T16:11:34Z</time></trkpt><trkpt lat="45.70109011155775" lon="11.283189754416236"><ele>697.0</ele><time>2026-04-08T16:11:37Z</time></trkpt><trkpt lat="45.70101672353938" lon="11.283174506876854"><ele>697.0</ele><time>2026-04-08T16:11:39Z</time></trkpt><trkpt lat="45.70095028069298" lon="11.283175140566964"><ele>697.0</ele><time>2026-04-08T16:11:40Z</time></trkpt><trkpt lat="45.70087775272296" lon="11.28314864745285"><ele>697.0</ele><time>2026-04-08T16:11:42Z</time></trkpt><trkpt lat="45.70078844231843" lon="11.283130223428026"><ele>697.0</ele><time>2026-04-08T16:11:44Z</time></trkpt><trkpt lat="45.70067525564065" lon="11.283133808030774"><ele>700.6</ele><time>2026-04-08T16:11:46Z</time></trkpt><trkpt lat="45.70056172879159" lon="11.283177922598469"><ele>704.2</ele><time>2026-04-08T16:11:48Z</time></trkpt><trkpt lat="45.70042337001896" lon="11.283185847418332"><ele>707.8</ele><time>2026-04-08T16:11:50Z</time></trkpt><trkpt lat="45.700346321504774" lon="11.283204384929794"><ele>711.4</ele><time>2026-04-08T16:11:51Z</time></trkpt><trkpt lat="45.70026305301254" lon="11.2832210035155"><ele>715.0</ele><time>2026-04-08T16:11:52Z</time></trkpt><trkpt lat="45.70020089046866" lon="11.283286809481362"><ele>718.8333333333334</ele><time>2026-04-08T16:11:53Z</time></trkpt><trkpt lat="45.70013349715804" lon="11.283369611509228"><ele>722.6666666666667</ele><time>2026-04-08T16:11:55Z</time></trkpt><trkpt lat="45.70008594521747" lon="11.283496421760299"><ele>726.5</ele><time>2026-04-08T16:11:56Z</time></trkpt><trkpt lat="45.70004053173574" lon="11.283562372678979"><ele>730.3333333333334</ele><time>2026-04-08T16:11:57Z</time></trkpt><trkpt lat="45.70002769832016" lon="11.28366818669894"><ele>734.1666666666666</ele><time>2026-04-08T16:11:59Z</time></trkpt><trkpt lat="45.7000232620214" lon="11.283777428631245"><ele>738.0</ele><time>2026-04-08T16:12:01Z</time></trkpt><trkpt lat="45.700035199129665" lon="11.283917511463477"><ele>737.5</ele><time>2026-04-08T16:12:03Z</time></trkpt><trkpt lat="45.700036249441105" lon="11.284028183398815"><ele>737.0</ele><time>2026-04-08T16:12:04Z</time></trkpt><trkpt lat="45.700051474013684" lon="11.284122779912462"><ele>736.5</ele><time>2026-04-08T16:12:05Z</time></trkpt><trkpt lat="45.700053827156005" lon="11.284233395247485"><ele>736.0</ele><time>2026-04-08T16:12:06Z</time></trkpt><trkpt lat="45.70005049880543" lon="11.284402006496496"><ele>735.5</ele><time>2026-04-08T16:12:08Z</time></trkpt><trkpt lat="45.70004711158049" lon="11.284522029327247"><ele>735.0</ele><time>2026-04-08T16:12:10Z</time></trkpt><trkpt lat="45.70004159492764" lon="11.28463360246261"><ele>735.0</ele><time>2026-04-08T16:12:11Z</time></trkpt><trkpt lat="45.70003565875795" lon="11.284726627907618"><ele>735.0</ele><time>2026-04-08T16:12:12Z</time></trkpt><trkpt lat="45.70002558366088" lon="11.284832913551469"><ele>735.0</ele><time>2026-04-08T16:12:13Z</time></trkpt><trkpt lat="45.70002751671934" lon="11.284929723164405"><ele>735.0</ele><time>2026-04-08T16:12:14Z</time></trkpt><trkpt lat="45.69996322999762" lon="11.285084193364705"><ele>735.0</ele><time>2026-04-08T16:12:16Z</time></trkpt><trkpt lat="45.69992765455834" lon="11.2851982031544"><ele>735.0</ele><time>2026-04-08T16:12:17Z</time></trkpt><trkpt lat="45.699856538735595" lon="11.28532960129973"><ele>734.8</ele><time>2026-04-08T16:12:19Z</time></trkpt><trkpt lat="45.69977938989692" lon="11.2854761350938"><ele>734.6</ele><time>2026-04-08T16:12:21Z</time></trkpt><trkpt lat="45.69974505210819" lon="11.285558075565824"><ele>734.4000000000001</ele><time>2026-04-08T16:12:22Z</time></trkpt><trkpt lat="45.699707214003446" lon="11.285660077326925"><ele>734.2</ele><time>2026-04-08T16:12:23Z</time></trkpt><trkpt lat="45.69967899715282" lon="11.285784571356041"><ele>734.0</ele><time>2026-04-08T16:12:24Z</time></trkpt><trkpt lat="45.699628090738855" lon="11.285885422677456"><ele>736.0</ele><time>2026-04-08T16:12:25Z</time></trkpt><trkpt lat="45.69957349855874" lon="11.28603114066869"><ele>738.0</ele><time>2026-04-08T16:12:27Z</time></trkpt><trkpt lat="45.699489998350124" lon="11.28618391147072"><ele>740.0</ele><time>2026-04-08T16:12:29Z</time></trkpt><trkpt lat="45.699419536299295" lon="11.28630831403218"><ele>742.0</ele><time>2026-04-08T16:12:31Z</time></trkpt><trkpt lat="45.69942255530982" lon="11.286402350400886"><ele>744.0</ele><time>2026-04-08T16:12:32Z</time></trkpt><trkpt lat="45.69941708407992" lon="11.286502223447254"><ele>744.0</ele><time>2026-04-08T16:12:33Z</time></trkpt><trkpt lat="45.69936407511674" lon="11.286607627189841"><ele>744.0</ele><time>2026-04-08T16:12:35Z</time></trkpt><trkpt lat="45.699317096446954" lon="11.286677885135852"><ele>744.0</ele><time>2026-04-08T16:12:36Z</time></trkpt><trkpt lat="45.69926169838929" lon="11.28675337887536"><ele>744.0</ele><time>2026-04-08T16:12:37Z</time></trkpt><trkpt lat="45.699206313316715" lon="11.286863798858967"><ele>744.0</ele><time>2026-04-08T16:12:38Z</time></trkpt><trkpt lat="45.69914880361475" lon="11.28697970145446"><ele>744.0</ele><time>2026-04-08T16:12:39Z</time></trkpt><trkpt lat="45.69909083475956" lon="11.287085565290482"><ele>744.0</ele><time>2026-04-08T16:12:40Z</time></trkpt><trkpt lat="45.699004090963214" lon="11.287163131380392"><ele>744.0</ele><time>2026-04-08T16:12:42Z</time></trkpt><trkpt lat="45.698888433307076" lon="11.287228737354253"><ele>744.0</ele><time>2026-04-08T16:12:44Z</time></trkpt><trkpt lat="45.698792911506615" lon="11.287302007683673"><ele>744.0</ele><time>2026-04-08T16:12:45Z</time></trkpt><trkpt lat="45.69873425342016" lon="11.287350642847933"><ele>744.0</ele><time>2026-04-08T16:12:46Z</time></trkpt><trkpt lat="45.698708364945176" lon="11.287252217217103"><ele>744.0</ele><time>2026-04-08T16:12:49Z</time></trkpt><trkpt lat="45.69873494447657" lon="11.287133056009809"><ele>744.0</ele><time>2026-04-08T16:12:51Z</time></trkpt><trkpt lat="45.69872716531373" lon="11.287038093557928"><ele>744.0</ele><time>2026-04-08T16:12:52Z</time></trkpt><trkpt lat="45.69870663423627" lon="11.286877408573243"><ele>744.0</ele><time>2026-04-08T16:12:54Z</time></trkpt><trkpt lat="45.69867001599017" lon="11.286787270296522"><ele>744.0</ele><time>2026-04-08T16:12:55Z</time></trkpt><trkpt lat="45.698626435231056" lon="11.286701217189961"><ele>744.0</ele><time>2026-04-08T16:12:56Z</time></trkpt><trkpt lat="45.69856110580744" lon="11.28660211702879"><ele>746.6</ele><time>2026-04-08T16:12:57Z</time></trkpt><trkpt lat="45.69847726140299" lon="11.286499950607915"><ele>749.2</ele><time>2026-04-08T16:12:59Z</time></trkpt><trkpt lat="45.6984145421594" lon="11.28648163867885"><ele>751.8000000000001</ele><time>2026-04-08T16:13:00Z</time></trkpt><trkpt lat="45.698327898406006" lon="11.286434087426056"><ele>754.4000000000001</ele><time>2026-04-08T16:13:02Z</time></trkpt><trkpt lat="45.698231984453855" lon="11.286354623799841"><ele>757.0</ele><time>2026-04-08T16:13:04Z</time></trkpt><trkpt lat="45.698167459937466" lon="11.286299716048404"><ele>758.0</ele><time>2026-04-08T16:13:06Z</time></trkpt><trkpt lat="45.69809320925748" lon="11.286238681913673"><ele>759.0</ele><time>2026-04-08T16:13:12Z</time></trkpt><trkpt lat="45.698035090535036" lon="11.286197419597615"><ele>760.0</ele><time>2026-04-08T16:13:14Z</time></trkpt><trkpt lat="45.69792367308963" lon="11.286119786305983"><ele>761.0</ele><time>2026-04-08T16:13:16Z</time></trkpt><trkpt lat="45.697868889242706" lon="11.286053379832575"><ele>762.0</ele><time>2026-04-08T16:13:18Z</time></trkpt><trkpt lat="45.697794029167405" lon="11.285987997132892"><ele>763.0</ele><time>2026-04-08T16:13:19Z</time></trkpt><trkpt lat="45.697727208518536" lon="11.285903037242532"><ele>760.6666666666667</ele><time>2026-04-08T16:13:22Z</time></trkpt><trkpt lat="45.69768671315084" lon="11.285829354961571"><ele>758.3333333333334</ele><time>2026-04-08T16:13:24Z</time></trkpt><trkpt lat="45.69760061588038" lon="11.285738881431564"><ele>756.0</ele><time>2026-04-08T16:13:27Z</time></trkpt><trkpt lat="45.69757257340992" lon="11.285657668424067"><ele>753.6666666666666</ele><time>2026-04-08T16:13:28Z</time></trkpt><trkpt lat="45.69749450143999" lon="11.2856633476897"><ele>751.3333333333333</ele><time>2026-04-08T16:13:29Z</time></trkpt><trkpt lat="45.69742025378045" lon="11.285679202837528"><ele>749.0</ele><time>2026-04-08T16:13:31Z</time></trkpt><trkpt lat="45.69735156610751" lon="11.285651287321146"><ele>749.0</ele><time>2026-04-08T16:13:32Z</time></trkpt><trkpt lat="45.69728209207411" lon="11.285630180694334"><ele>749.0</ele><time>2026-04-08T16:13:33Z</time></trkpt><trkpt lat="45.697217090316975" lon="11.285626514826687"><ele>749.0</ele><time>2026-04-08T16:13:34Z</time></trkpt><trkpt lat="45.697152631236605" lon="11.285621013482347"><ele>749.0</ele><time>2026-04-08T16:13:35Z</time></trkpt><trkpt lat="45.69704195229838" lon="11.285631205090706"><ele>749.0</ele><time>2026-04-08T16:13:37Z</time></trkpt><trkpt lat="45.69697783313782" lon="11.2856719086041"><ele>749.0</ele><time>2026-04-08T16:13:38Z</time></trkpt><trkpt lat="45.69691741759227" lon="11.285733889006138"><ele>747.2857142857143</ele><time>2026-04-08T16:13:39Z</time></trkpt><trkpt lat="45.6968358043826" lon="11.285788630280287"><ele>745.5714285714286</ele><time>2026-04-08T16:13:40Z</time></trkpt><trkpt lat="45.696799067522115" lon="11.285866032973782"><ele>743.8571428571429</ele><time>2026-04-08T16:13:41Z</time></trkpt><trkpt lat="45.6967765941636" lon="11.285951477594134"><ele>742.1428571428571</ele><time>2026-04-08T16:13:42Z</time></trkpt><trkpt lat="45.69678043205446" lon="11.286052159370906"><ele>740.4285714285714</ele><time>2026-04-08T16:13:43Z</time></trkpt><trkpt lat="45.69676834217714" lon="11.286144988735234"><ele>738.7142857142858</ele><time>2026-04-08T16:13:44Z</time></trkpt><trkpt lat="45.69672021757832" lon="11.286222346151972"><ele>737.0</ele><time>2026-04-08T16:13:46Z</time></trkpt><trkpt lat="45.69664338199934" lon="11.28619130459787"><ele>737.0</ele><time>2026-04-08T16:13:48Z</time></trkpt><trkpt lat="45.69656226176904" lon="11.286181689229178"><ele>737.0</ele><time>2026-04-08T16:13:49Z</time></trkpt><trkpt lat="45.696475211635914" lon="11.286115986572566"><ele>737.0</ele><time>2026-04-08T16:13:50Z</time></trkpt><trkpt lat="45.69640138101392" lon="11.286032072193004"><ele>737.0</ele><time>2026-04-08T16:13:51Z</time></trkpt><trkpt lat="45.69631788025902" lon="11.285951703610555"><ele>737.0</ele><time>2026-04-08T16:13:52Z</time></trkpt><trkpt lat="45.69623712003774" lon="11.285885512965514"><ele>737.0</ele><time>2026-04-08T16:13:53Z</time></trkpt><trkpt lat="45.69615452100962" lon="11.28580491270991"><ele>737.0</ele><time>2026-04-08T16:13:54Z</time></trkpt><trkpt lat="45.69606951008034" lon="11.285717083280224"><ele>737.0</ele><time>2026-04-08T16:13:55Z</time></trkpt><trkpt lat="45.69598800435993" lon="11.285635249238686"><ele>737.0</ele><time>2026-04-08T16:13:56Z</time></trkpt><trkpt lat="45.69590747352768" lon="11.285564877053556"><ele>737.0</ele><time>2026-04-08T16:13:57Z</time></trkpt><trkpt lat="45.69583079553866" lon="11.285509423177526"><ele>731.8</ele><time>2026-04-08T16:13:58Z</time></trkpt><trkpt lat="45.695750891474155" lon="11.285443471984717"><ele>726.6</ele><time>2026-04-08T16:13:59Z</time></trkpt><trkpt lat="45.695648455722434" lon="11.285375358921833"><ele>721.4</ele><time>2026-04-08T16:14:00Z</time></trkpt><trkpt lat="45.6955450830478" lon="11.285300583571972"><ele>716.1999999999999</ele><time>2026-04-08T16:14:01Z</time></trkpt><trkpt lat="45.69546268948037" lon="11.285255218382948"><ele>711.0</ele><time>2026-04-08T16:14:02Z</time></trkpt><trkpt lat="45.69539669167618" lon="11.285210121636284"><ele>711.0</ele><time>2026-04-08T16:14:03Z</time></trkpt><trkpt lat="45.69533070149225" lon="11.285183165190706"><ele>711.0</ele><time>2026-04-08T16:14:04Z</time></trkpt><trkpt lat="45.695250977301384" lon="11.2851445948172"><ele>711.0</ele><time>2026-04-08T16:14:05Z</time></trkpt><trkpt lat="45.695150505482104" lon="11.285109552720781"><ele>711.0</ele><time>2026-04-08T16:14:06Z</time></trkpt><trkpt lat="45.69506138839186" lon="11.28509856924929"><ele>711.0</ele><time>2026-04-08T16:14:07Z</time></trkpt><trkpt lat="45.69496877272639" lon="11.285114359524984"><ele>711.0</ele><time>2026-04-08T16:14:08Z</time></trkpt><trkpt lat="45.69487514464411" lon="11.285122977977851"><ele>713.0</ele><time>2026-04-08T16:14:09Z</time></trkpt><trkpt lat="45.69477506851062" lon="11.28514543905758"><ele>715.0</ele><time>2026-04-08T16:14:10Z</time></trkpt><trkpt lat="45.69469215309683" lon="11.285157673036458"><ele>717.0</ele><time>2026-04-08T16:14:11Z</time></trkpt><trkpt lat="45.69461651904547" lon="11.28515231449967"><ele>719.0</ele><time>2026-04-08T16:14:12Z</time></trkpt><trkpt lat="45.694536109587624" lon="11.285205114246523"><ele>721.0</ele><time>2026-04-08T16:14:14Z</time></trkpt><trkpt lat="45.69452072652046" lon="11.285376254565309"><ele>721.0</ele><time>2026-04-08T16:14:16Z</time></trkpt><trkpt lat="45.69451602249034" lon="11.285494198774435"><ele>721.0</ele><time>2026-04-08T16:14:17Z</time></trkpt><trkpt lat="45.69452091450962" lon="11.285638920761196"><ele>721.0</ele><time>2026-04-08T16:14:18Z</time></trkpt><trkpt lat="45.694524746550705" lon="11.285753039287512"><ele>721.0</ele><time>2026-04-08T16:14:19Z</time></trkpt><trkpt lat="45.69453340273237" lon="11.28585979942459"><ele>721.0</ele><time>2026-04-08T16:14:20Z</time></trkpt><trkpt lat="45.694544966149884" lon="11.285963060860025"><ele>721.0</ele><time>2026-04-08T16:14:21Z</time></trkpt><trkpt lat="45.69457080642872" lon="11.286054313396836"><ele>727.1999999999999</ele><time>2026-04-08T16:14:22Z</time></trkpt><trkpt lat="45.694602358728545" lon="11.286154621909867"><ele>733.4</ele><time>2026-04-08T16:14:23Z</time></trkpt><trkpt lat="45.69462072606635" lon="11.28625871175286"><ele>739.6</ele><time>2026-04-08T16:14:24Z</time></trkpt><trkpt lat="45.69459647761791" lon="11.286346226884996"><ele>745.8</ele><time>2026-04-08T16:14:25Z</time></trkpt><trkpt lat="45.69451579534928" lon="11.286541722286657"><ele>752.0</ele><time>2026-04-08T16:14:27Z</time></trkpt><trkpt lat="45.69447254640977" lon="11.286657180510163"><ele>753.6666666666666</ele><time>2026-04-08T16:14:28Z</time></trkpt><trkpt lat="45.69443165678529" lon="11.286749188455143"><ele>755.3333333333333</ele><time>2026-04-08T16:14:29Z</time></trkpt><trkpt lat="45.69438532446006" lon="11.28683075731012"><ele>757.0</ele><time>2026-04-08T16:14:30Z</time></trkpt><trkpt lat="45.69432436853947" lon="11.286899831528958"><ele>758.6666666666666</ele><time>2026-04-08T16:14:31Z</time></trkpt><trkpt lat="45.6942592807954" lon="11.287004504325436"><ele>760.3333333333334</ele><time>2026-04-08T16:14:32Z</time></trkpt><trkpt lat="45.694220855895246" lon="11.28710307785299"><ele>762.0</ele><time>2026-04-08T16:14:33Z</time></trkpt><trkpt lat="45.69415784434718" lon="11.287202209891054"><ele>756.3333333333334</ele><time>2026-04-08T16:14:34Z</time></trkpt><trkpt lat="45.69411235083441" lon="11.28729542790054"><ele>750.6666666666666</ele><time>2026-04-08T16:14:35Z</time></trkpt><trkpt lat="45.694075508220784" lon="11.287380554245061"><ele>745.0</ele><time>2026-04-08T16:14:36Z</time></trkpt><trkpt lat="45.69404501735018" lon="11.287463290143753"><ele>739.3333333333333</ele><time>2026-04-08T16:14:37Z</time></trkpt><trkpt lat="45.69401275665251" lon="11.287563076898023"><ele>733.6666666666666</ele><time>2026-04-08T16:14:38Z</time></trkpt><trkpt lat="45.69398249898456" lon="11.287690318541328"><ele>728.0</ele><time>2026-04-08T16:14:39Z</time></trkpt><trkpt lat="45.69395655726452" lon="11.287787767052848"><ele>728.0</ele><time>2026-04-08T16:14:40Z</time></trkpt><trkpt lat="45.69391219023753" lon="11.287898111850325"><ele>728.0</ele><time>2026-04-08T16:14:41Z</time></trkpt><trkpt lat="45.69387248805275" lon="11.287982143043408"><ele>728.0</ele><time>2026-04-08T16:14:42Z</time></trkpt><trkpt lat="45.693824170134484" lon="11.288086567035366"><ele>728.0</ele><time>2026-04-08T16:14:43Z</time></trkpt><trkpt lat="45.693780680678316" lon="11.28819090810193"><ele>728.0</ele><time>2026-04-08T16:14:44Z</time></trkpt><trkpt lat="45.69371047363789" lon="11.288277234317093"><ele>728.0</ele><time>2026-04-08T16:14:45Z</time></trkpt><trkpt lat="45.69365005730295" lon="11.2883673428922"><ele>730.8333333333333</ele><time>2026-04-08T16:14:46Z</time></trkpt><trkpt lat="45.693559972554176" lon="11.288447067887716"><ele>733.6666666666666</ele><time>2026-04-08T16:14:48Z</time></trkpt><trkpt lat="45.693473781245295" lon="11.28843141860833"><ele>736.5</ele><time>2026-04-08T16:14:49Z</time></trkpt><trkpt lat="45.693391693726" lon="11.288466682880753"><ele>739.3333333333334</ele><time>2026-04-08T16:14:50Z</time></trkpt><trkpt lat="45.69334242675792" lon="11.288560179847607"><ele>742.1666666666667</ele><time>2026-04-08T16:14:51Z</time></trkpt><trkpt lat="45.69330949235818" lon="11.288655051443508"><ele>745.0</ele><time>2026-04-08T16:14:52Z</time></trkpt><trkpt lat="45.693269402819226" lon="11.288796090254818"><ele>745.0</ele><time>2026-04-08T16:14:53Z</time></trkpt><trkpt lat="45.693238777805675" lon="11.288900570468327"><ele>745.0</ele><time>2026-04-08T16:14:54Z</time></trkpt><trkpt lat="45.69319347351168" lon="11.289033693737009"><ele>745.0</ele><time>2026-04-08T16:14:56Z</time></trkpt><trkpt lat="45.6931361201831" lon="11.289129909194102"><ele>745.0</ele><time>2026-04-08T16:14:58Z</time></trkpt><trkpt lat="45.69303842639837" lon="11.28914867558557"><ele>745.0</ele><time>2026-04-08T16:14:59Z</time></trkpt><trkpt lat="45.69296226968851" lon="11.28915754485246"><ele>745.0</ele><time>2026-04-08T16:15:00Z</time></trkpt><trkpt lat="45.69289238496443" lon="11.289187954124248"><ele>745.0</ele><time>2026-04-08T16:15:01Z</time></trkpt><trkpt lat="45.69279837300534" lon="11.289339261231838"><ele>745.0</ele><time>2026-04-08T16:15:03Z</time></trkpt><trkpt lat="45.69274906490056" lon="11.289439596054134"><ele>745.0</ele><time>2026-04-08T16:15:04Z</time></trkpt><trkpt lat="45.69274009017253" lon="11.289572632958183"><ele>745.0</ele><time>2026-04-08T16:15:05Z</time></trkpt><trkpt lat="45.69272653372161" lon="11.289662224282976"><ele>745.0</ele><time>2026-04-08T16:15:06Z</time></trkpt><trkpt lat="45.6926919609048" lon="11.289854539499641"><ele>745.0</ele><time>2026-04-08T16:15:08Z</time></trkpt><trkpt lat="45.69268459731416" lon="11.289968637880628"><ele>745.0</ele><time>2026-04-08T16:15:09Z</time></trkpt><trkpt lat="45.692648342204144" lon="11.290062359932511"><ele>745.0</ele><time>2026-04-08T16:15:10Z</time></trkpt><trkpt lat="45.69263314289233" lon="11.290185114178739"><ele>745.0</ele><time>2026-04-08T16:15:11Z</time></trkpt><trkpt lat="45.69263193687225" lon="11.290301695327805"><ele>745.0</ele><time>2026-04-08T16:15:12Z</time></trkpt><trkpt lat="45.69264004838174" lon="11.290432387924197"><ele>745.0</ele><time>2026-04-08T16:15:13Z</time></trkpt><trkpt lat="45.692650635035534" lon="11.290539717881625"><ele>744.0</ele><time>2026-04-08T16:15:14Z</time></trkpt><trkpt lat="45.69263659503337" lon="11.290641564858506"><ele>743.0</ele><time>2026-04-08T16:15:15Z</time></trkpt><trkpt lat="45.692637856814756" lon="11.29073856678216"><ele>742.0</ele><time>2026-04-08T16:15:16Z</time></trkpt><trkpt lat="45.69265334665937" lon="11.290882687986281"><ele>741.0</ele><time>2026-04-08T16:15:18Z</time></trkpt><trkpt lat="45.69264533367747" lon="11.291071626778898"><ele>740.0</ele><time>2026-04-08T16:15:20Z</time></trkpt><trkpt lat="45.692659918530644" lon="11.291199461208706"><ele>740.0</ele><time>2026-04-08T16:15:21Z</time></trkpt><trkpt lat="45.692702760260985" lon="11.291358331992774"><ele>740.0</ele><time>2026-04-08T16:15:23Z</time></trkpt><trkpt lat="45.69273425835157" lon="11.291452075946694"><ele>740.0</ele><time>2026-04-08T16:15:24Z</time></trkpt><trkpt lat="45.69283412872932" lon="11.291584274189683"><ele>740.0</ele><time>2026-04-08T16:15:26Z</time></trkpt><trkpt lat="45.69290031707003" lon="11.291621649260096"><ele>740.0</ele><time>2026-04-08T16:15:27Z</time></trkpt><trkpt lat="45.69297295237052" lon="11.291645207509898"><ele>732.3333333333333</ele><time>2026-04-08T16:15:28Z</time></trkpt><trkpt lat="45.69303816631773" lon="11.29167889389364"><ele>724.6666666666666</ele><time>2026-04-08T16:15:29Z</time></trkpt><trkpt lat="45.693110047755695" lon="11.291733180847187"><ele>717.0</ele><time>2026-04-08T16:15:31Z</time></trkpt><trkpt lat="45.69308321164836" lon="11.291852789231806"><ele>709.3333333333334</ele><time>2026-04-08T16:15:33Z</time></trkpt><trkpt lat="45.69302523967841" lon="11.291999701592834"><ele>701.6666666666667</ele><time>2026-04-08T16:15:35Z</time></trkpt><trkpt lat="45.69297912892879" lon="11.292103128480683"><ele>694.0</ele><time>2026-04-08T16:15:36Z</time></trkpt><trkpt lat="45.692940930415155" lon="11.29218238230329"><ele>694.0</ele><time>2026-04-08T16:15:37Z</time></trkpt><trkpt lat="45.69290362140092" lon="11.2922564046714"><ele>694.0</ele><time>2026-04-08T16:15:38Z</time></trkpt><trkpt lat="45.692835535264194" lon="11.292392287714605"><ele>694.0</ele><time>2026-04-08T16:15:40Z</time></trkpt><trkpt lat="45.69279965914562" lon="11.292466560060518"><ele>694.0</ele><time>2026-04-08T16:15:41Z</time></trkpt><trkpt lat="45.69277557953938" lon="11.292563725803593"><ele>694.0</ele><time>2026-04-08T16:15:42Z</time></trkpt><trkpt lat="45.69275575677285" lon="11.292660413062086"><ele>694.0</ele><time>2026-04-08T16:15:43Z</time></trkpt><trkpt lat="45.69276143823462" lon="11.292829932859082"><ele>693.4000000000001</ele><time>2026-04-08T16:15:45Z</time></trkpt><trkpt lat="45.69278638056425" lon="11.292961882605686"><ele>692.8</ele><time>2026-04-08T16:15:46Z</time></trkpt><trkpt lat="45.69285784549691" lon="11.293094456628111"><ele>692.2</ele><time>2026-04-08T16:15:47Z</time></trkpt><trkpt lat="45.69292252590324" lon="11.293206709856781"><ele>691.5999999999999</ele><time>2026-04-08T16:15:48Z</time></trkpt><trkpt lat="45.69295115304694" lon="11.293324861193774"><ele>691.0</ele><time>2026-04-08T16:15:49Z</time></trkpt><trkpt lat="45.69298141413756" lon="11.293416312434225"><ele>691.8333333333334</ele><time>2026-04-08T16:15:50Z</time></trkpt><trkpt lat="45.69298016560306" lon="11.293554538132124"><ele>692.6666666666667</ele><time>2026-04-08T16:15:52Z</time></trkpt><trkpt lat="45.692944861659896" lon="11.2936521289166"><ele>693.5</ele><time>2026-04-08T16:15:53Z</time></trkpt><trkpt lat="45.6929274765784" lon="11.293782208448357"><ele>694.3333333333334</ele><time>2026-04-08T16:15:54Z</time></trkpt><trkpt lat="45.69288605118027" lon="11.293892938492345"><ele>695.1666666666666</ele><time>2026-04-08T16:15:55Z</time></trkpt><trkpt lat="45.692913035485354" lon="11.293983034180899"><ele>696.0</ele><time>2026-04-08T16:15:56Z</time></trkpt><trkpt lat="45.69292033038021" lon="11.294077949490593"><ele>696.0</ele><time>2026-04-08T16:15:57Z</time></trkpt><trkpt lat="45.69296319673233" lon="11.294201269538174"><ele>696.0</ele><time>2026-04-08T16:15:58Z</time></trkpt><trkpt lat="45.69300040471715" lon="11.294305537526707"><ele>696.0</ele><time>2026-04-08T16:15:59Z</time></trkpt><trkpt lat="45.693049351696594" lon="11.294386453116708"><ele>696.0</ele><time>2026-04-08T16:16:00Z</time></trkpt><trkpt lat="45.693114269188335" lon="11.294461347299618"><ele>696.0</ele><time>2026-04-08T16:16:01Z</time></trkpt><trkpt lat="45.69318977424105" lon="11.29455501871119"><ele>696.0</ele><time>2026-04-08T16:16:02Z</time></trkpt><trkpt lat="45.693259236985924" lon="11.294619397114678"><ele>696.0</ele><time>2026-04-08T16:16:03Z</time></trkpt><trkpt lat="45.693325508759074" lon="11.294650814788994"><ele>696.0</ele><time>2026-04-08T16:16:04Z</time></trkpt><trkpt lat="45.69340847725067" lon="11.294647165568481"><ele>696.0</ele><time>2026-04-08T16:16:05Z</time></trkpt><trkpt lat="45.69351608243864" lon="11.294664313364779"><ele>696.0</ele><time>2026-04-08T16:16:06Z</time></trkpt><trkpt lat="45.69360420415562" lon="11.294677035551839"><ele>696.0</ele><time>2026-04-08T16:16:07Z</time></trkpt><trkpt lat="45.693672995321336" lon="11.294739125462938"><ele>696.0</ele><time>2026-04-08T16:16:09Z</time></trkpt><trkpt lat="45.69366226284832" lon="11.294841264057256"><ele>689.8333333333334</ele><time>2026-04-08T16:16:10Z</time></trkpt><trkpt lat="45.69367822701566" lon="11.294974159573698"><ele>683.6666666666666</ele><time>2026-04-08T16:16:11Z</time></trkpt><trkpt lat="45.69368990838578" lon="11.295081029313693"><ele>677.5</ele><time>2026-04-08T16:16:12Z</time></trkpt><trkpt lat="45.693712547571785" lon="11.295171405481772"><ele>671.3333333333333</ele><time>2026-04-08T16:16:13Z</time></trkpt><trkpt lat="45.693738703813" lon="11.29525516333728"><ele>665.1666666666666</ele><time>2026-04-08T16:16:14Z</time></trkpt><trkpt lat="45.693783726185" lon="11.295425070505651"><ele>659.0</ele><time>2026-04-08T16:16:16Z</time></trkpt><trkpt lat="45.69379415974012" lon="11.295574951049018"><ele>660.25</ele><time>2026-04-08T16:16:18Z</time></trkpt><trkpt lat="45.69371255378409" lon="11.29574225978767"><ele>661.5</ele><time>2026-04-08T16:16:20Z</time></trkpt><trkpt lat="45.6936688921781" lon="11.295821464554567"><ele>662.75</ele><time>2026-04-08T16:16:21Z</time></trkpt><trkpt lat="45.69360886954564" lon="11.296034189188855"><ele>664.0</ele><time>2026-04-08T16:16:23Z</time></trkpt><trkpt lat="45.69358682041076" lon="11.296163418116763"><ele>664.0</ele><time>2026-04-08T16:16:24Z</time></trkpt><trkpt lat="45.69358163660491" lon="11.296266415436126"><ele>664.0</ele><time>2026-04-08T16:16:25Z</time></trkpt><trkpt lat="45.69359714882432" lon="11.296363608420164"><ele>664.0</ele><time>2026-04-08T16:16:26Z</time></trkpt><trkpt lat="45.69363055100012" lon="11.296460137457439"><ele>664.0</ele><time>2026-04-08T16:16:27Z</time></trkpt><trkpt lat="45.693665123846635" lon="11.296547507851894"><ele>664.0</ele><time>2026-04-08T16:16:28Z</time></trkpt><trkpt lat="45.69368370414633" lon="11.296700807099407"><ele>664.0</ele><time>2026-04-08T16:16:30Z</time></trkpt><trkpt lat="45.69371625689464" lon="11.296784068567035"><ele>663.2</ele><time>2026-04-08T16:16:32Z</time></trkpt><trkpt lat="45.69359676512388" lon="11.296952133093212"><ele>662.4000000000001</ele><time>2026-04-08T16:16:34Z</time></trkpt><trkpt lat="45.69354458211033" lon="11.297009885321156"><ele>661.6</ele><time>2026-04-08T16:16:35Z</time></trkpt><trkpt lat="45.69348894959729" lon="11.297110737346937"><ele>660.8</ele><time>2026-04-08T16:16:36Z</time></trkpt><trkpt lat="45.69346375995821" lon="11.297206672533747"><ele>660.0</ele><time>2026-04-08T16:16:37Z</time></trkpt><trkpt lat="45.69341858967104" lon="11.297305441287616"><ele>667.8333333333334</ele><time>2026-04-08T16:16:38Z</time></trkpt><trkpt lat="45.693401371872376" lon="11.297416783861296"><ele>675.6666666666666</ele><time>2026-04-08T16:16:39Z</time></trkpt><trkpt lat="45.69339219087387" lon="11.297555970544568"><ele>683.5</ele><time>2026-04-08T16:16:40Z</time></trkpt><trkpt lat="45.69340449514135" lon="11.297653094673846"><ele>691.3333333333333</ele><time>2026-04-08T16:16:41Z</time></trkpt><trkpt lat="45.69344561629982" lon="11.297742314890588"><ele>699.1666666666666</ele><time>2026-04-08T16:16:42Z</time></trkpt><trkpt lat="45.69349133931428" lon="11.297845564657482"><ele>707.0</ele><time>2026-04-08T16:16:43Z</time></trkpt><trkpt lat="45.69351166348791" lon="11.297953701459543"><ele>704.0</ele><time>2026-04-08T16:16:44Z</time></trkpt><trkpt lat="45.69348367165739" lon="11.298085997163733"><ele>701.0</ele><time>2026-04-08T16:16:46Z</time></trkpt><trkpt lat="45.69340039192415" lon="11.298232783253779"><ele>698.0</ele><time>2026-04-08T16:16:48Z</time></trkpt><trkpt lat="45.69334763970128" lon="11.29830577931852"><ele>695.0</ele><time>2026-04-08T16:16:49Z</time></trkpt><trkpt lat="45.69328026788552" lon="11.298364262150084"><ele>692.0</ele><time>2026-04-08T16:16:50Z</time></trkpt><trkpt lat="45.69320486997531" lon="11.298406999333292"><ele>692.0</ele><time>2026-04-08T16:16:51Z</time></trkpt><trkpt lat="45.693139515133716" lon="11.298426023892619"><ele>692.0</ele><time>2026-04-08T16:16:52Z</time></trkpt><trkpt lat="45.69310473090433" lon="11.298559804973557"><ele>692.0</ele><time>2026-04-08T16:16:54Z</time></trkpt><trkpt lat="45.69312439202543" lon="11.298710325117018"><ele>692.0</ele><time>2026-04-08T16:16:56Z</time></trkpt><trkpt lat="45.693150315735245" lon="11.298808033082747"><ele>692.0</ele><time>2026-04-08T16:16:57Z</time></trkpt><trkpt lat="45.69316065739141" lon="11.298938291252748"><ele>692.0</ele><time>2026-04-08T16:16:58Z</time></trkpt><trkpt lat="45.69316705438928" lon="11.29905535236705"><ele>691.2</ele><time>2026-04-08T16:16:59Z</time></trkpt><trkpt lat="45.69317396882477" lon="11.299149948970001"><ele>690.4000000000001</ele><time>2026-04-08T16:17:00Z</time></trkpt><trkpt lat="45.69325626453775" lon="11.299260468771024"><ele>689.5999999999999</ele><time>2026-04-08T16:17:02Z</time></trkpt><trkpt lat="45.69334304275971" lon="11.299327921418644"><ele>688.8</ele><time>2026-04-08T16:17:03Z</time></trkpt><trkpt lat="45.6934054492493" lon="11.299400712348511"><ele>688.0</ele><time>2026-04-08T16:17:04Z</time></trkpt><trkpt lat="45.693418110735344" lon="11.299545878316682"><ele>688.0</ele><time>2026-04-08T16:17:06Z</time></trkpt><trkpt lat="45.69339755645554" lon="11.299715797575521"><ele>688.0</ele><time>2026-04-08T16:17:08Z</time></trkpt><trkpt lat="45.693362639510276" lon="11.299811376081601"><ele>688.0</ele><time>2026-04-08T16:17:09Z</time></trkpt><trkpt lat="45.69337854594579" lon="11.299962453750135"><ele>688.0</ele><time>2026-04-08T16:17:11Z</time></trkpt><trkpt lat="45.69341203983908" lon="11.300040464991106"><ele>688.0</ele><time>2026-04-08T16:17:12Z</time></trkpt><trkpt lat="45.69347038807777" lon="11.300100733939777"><ele>688.0</ele><time>2026-04-08T16:17:13Z</time></trkpt><trkpt lat="45.693561757605444" lon="11.300167680519321"><ele>681.8</ele><time>2026-04-08T16:17:14Z</time></trkpt><trkpt lat="45.69364593752384" lon="11.300262844059114"><ele>675.5999999999999</ele><time>2026-04-08T16:17:15Z</time></trkpt><trkpt lat="45.693713974773814" lon="11.30031748832496"><ele>669.4000000000001</ele><time>2026-04-08T16:17:16Z</time></trkpt><trkpt lat="45.69379185365095" lon="11.300440972679032"><ele>663.2</ele><time>2026-04-08T16:17:18Z</time></trkpt><trkpt lat="45.69375126191177" lon="11.30059741435582"><ele>657.0</ele><time>2026-04-08T16:17:20Z</time></trkpt><trkpt lat="45.69372223396353" lon="11.30069437955988"><ele>657.0</ele><time>2026-04-08T16:17:21Z</time></trkpt><trkpt lat="45.693672905989814" lon="11.300783875530422"><ele>657.0</ele><time>2026-04-08T16:17:22Z</time></trkpt><trkpt lat="45.69362591976446" lon="11.300907994815871"><ele>657.0</ele><time>2026-04-08T16:17:23Z</time></trkpt><trkpt lat="45.69355964453501" lon="11.301001207009708"><ele>657.0</ele><time>2026-04-08T16:17:24Z</time></trkpt><trkpt lat="45.69349992402515" lon="11.301109364777366"><ele>657.0</ele><time>2026-04-08T16:17:25Z</time></trkpt><trkpt lat="45.69344327179429" lon="11.30121032919819"><ele>662.5714285714286</ele><time>2026-04-08T16:17:26Z</time></trkpt><trkpt lat="45.693417885471376" lon="11.301294243098516"><ele>668.1428571428572</ele><time>2026-04-08T16:17:27Z</time></trkpt><trkpt lat="45.69338511628988" lon="11.301377492300198"><ele>673.7142857142858</ele><time>2026-04-08T16:17:28Z</time></trkpt><trkpt lat="45.69335395433854" lon="11.301456185090037"><ele>679.2857142857142</ele><time>2026-04-08T16:17:29Z</time></trkpt><trkpt lat="45.69330884152101" lon="11.3015615270422"><ele>684.8571428571429</ele><time>2026-04-08T16:17:30Z</time></trkpt><trkpt lat="45.69327618711308" lon="11.301643093540493"><ele>690.4285714285714</ele><time>2026-04-08T16:17:31Z</time></trkpt><trkpt lat="45.6932306505523" lon="11.301709810704397"><ele>696.0</ele><time>2026-04-08T16:17:32Z</time></trkpt><trkpt lat="45.69317346048926" lon="11.301764975244168"><ele>696.0</ele><time>2026-04-08T16:17:33Z</time></trkpt><trkpt lat="45.69310648974323" lon="11.301824129586759"><ele>696.0</ele><time>2026-04-08T16:17:34Z</time></trkpt><trkpt lat="45.6930485981836" lon="11.30197042946085"><ele>696.0</ele><time>2026-04-08T16:17:36Z</time></trkpt><trkpt lat="45.69304842606451" lon="11.302117451581555"><ele>696.0</ele><time>2026-04-08T16:17:37Z</time></trkpt><trkpt lat="45.693023457335265" lon="11.302221586606159"><ele>696.0</ele><time>2026-04-08T16:17:38Z</time></trkpt><trkpt lat="45.69299309952928" lon="11.30236266114017"><ele>690.5999999999999</ele><time>2026-04-08T16:17:40Z</time></trkpt><trkpt lat="45.69294957428522" lon="11.302530016250284"><ele>685.2</ele><time>2026-04-08T16:17:42Z</time></trkpt><trkpt lat="45.692895564606566" lon="11.302595283715815"><ele>679.8</ele><time>2026-04-08T16:17:43Z</time></trkpt><trkpt lat="45.69280650311051" lon="11.30269879586707"><ele>674.4000000000001</ele><time>2026-04-08T16:17:45Z</time></trkpt><trkpt lat="45.69276521597943" lon="11.302769131855584"><ele>669.0</ele><time>2026-04-08T16:17:46Z</time></trkpt><trkpt lat="45.692707434445204" lon="11.302876078933652"><ele>675.5</ele><time>2026-04-08T16:17:48Z</time></trkpt><trkpt lat="45.69266097019485" lon="11.302959916297878"><ele>682.0</ele><time>2026-04-08T16:17:49Z</time></trkpt><trkpt lat="45.69263620459059" lon="11.303064688352606"><ele>688.5</ele><time>2026-04-08T16:17:50Z</time></trkpt><trkpt lat="45.69259524858368" lon="11.303178936762526"><ele>695.0</ele><time>2026-04-08T16:17:51Z</time></trkpt><trkpt lat="45.69256127204976" lon="11.303281403231798"><ele>701.5</ele><time>2026-04-08T16:17:52Z</time></trkpt><trkpt lat="45.692563394072025" lon="11.303400395643514"><ele>708.0</ele><time>2026-04-08T16:17:53Z</time></trkpt><trkpt lat="45.692571731785186" lon="11.303536282974525"><ele>708.0</ele><time>2026-04-08T16:17:54Z</time></trkpt><trkpt lat="45.69258920931674" lon="11.303674934103958"><ele>708.0</ele><time>2026-04-08T16:17:55Z</time></trkpt><trkpt lat="45.69260887860681" lon="11.30379289024507"><ele>708.0</ele><time>2026-04-08T16:17:56Z</time></trkpt><trkpt lat="45.69259516994561" lon="11.303883772908343"><ele>708.0</ele><time>2026-04-08T16:17:57Z</time></trkpt><trkpt lat="45.69262375106117" lon="11.304008201385015"><ele>708.0</ele><time>2026-04-08T16:17:58Z</time></trkpt><trkpt lat="45.692667063556776" lon="11.304130748426651"><ele>708.0</ele><time>2026-04-08T16:17:59Z</time></trkpt><trkpt lat="45.692695325127815" lon="11.304219637515057"><ele>707.4</ele><time>2026-04-08T16:18:00Z</time></trkpt><trkpt lat="45.69271198265404" lon="11.304330275724823"><ele>706.8</ele><time>2026-04-08T16:18:01Z</time></trkpt><trkpt lat="45.69272254073916" lon="11.304520615222991"><ele>706.2</ele><time>2026-04-08T16:18:03Z</time></trkpt><trkpt lat="45.6927883199045" lon="11.304663585025805"><ele>705.6</ele><time>2026-04-08T16:18:05Z</time></trkpt><trkpt lat="45.69284769179577" lon="11.304711084477042"><ele>705.0</ele><time>2026-04-08T16:18:06Z</time></trkpt><trkpt lat="45.692904498915766" lon="11.304755120558962"><ele>697.8333333333334</ele><time>2026-04-08T16:18:07Z</time></trkpt><trkpt lat="45.69297106444599" lon="11.304793700876848"><ele>690.6666666666666</ele><time>2026-04-08T16:18:08Z</time></trkpt><trkpt lat="45.6930393779684" lon="11.304818923502047"><ele>683.5</ele><time>2026-04-08T16:18:09Z</time></trkpt><trkpt lat="45.69311746264792" lon="11.304839349821687"><ele>676.3333333333333</ele><time>2026-04-08T16:18:10Z</time></trkpt><trkpt lat="45.69320034715189" lon="11.304878082196508"><ele>669.1666666666666</ele><time>2026-04-08T16:18:12Z</time></trkpt><trkpt lat="45.69325197880008" lon="11.30500037493144"><ele>662.0</ele><time>2026-04-08T16:18:14Z</time></trkpt><trkpt lat="45.69323689602908" lon="11.305090359309427"><ele>662.0</ele><time>2026-04-08T16:18:15Z</time></trkpt><trkpt lat="45.69324412300667" lon="11.3052090313573"><ele>662.0</ele><time>2026-04-08T16:18:16Z</time></trkpt><trkpt lat="45.69325110535185" lon="11.305322008003376"><ele>662.0</ele><time>2026-04-08T16:18:17Z</time></trkpt><trkpt lat="45.693316085376246" lon="11.305487805806521"><ele>662.0</ele><time>2026-04-08T16:18:19Z</time></trkpt><trkpt lat="45.69335836968066" lon="11.305585974127805"><ele>662.0</ele><time>2026-04-08T16:18:20Z</time></trkpt><trkpt lat="45.69337214173071" lon="11.30568981197209"><ele>665.8</ele><time>2026-04-08T16:18:21Z</time></trkpt><trkpt lat="45.693380087196665" lon="11.305803338636371"><ele>669.6</ele><time>2026-04-08T16:18:22Z</time></trkpt><trkpt lat="45.69338484043415" lon="11.305916067098723"><ele>673.4</ele><time>2026-04-08T16:18:23Z</time></trkpt><trkpt lat="45.69340906689844" lon="11.306076757795292"><ele>677.1999999999999</ele><time>2026-04-08T16:18:25Z</time></trkpt><trkpt lat="45.69342583449862" lon="11.306223079182999"><ele>681.0</ele><time>2026-04-08T16:18:27Z</time></trkpt><trkpt lat="45.69341723569757" lon="11.306343681239937"><ele>684.25</ele><time>2026-04-08T16:18:29Z</time></trkpt><trkpt lat="45.69344287788877" lon="11.306518644719638"><ele>687.5</ele><time>2026-04-08T16:18:31Z</time></trkpt><trkpt lat="45.693469467072624" lon="11.306685517589328"><ele>690.75</ele><time>2026-04-08T16:18:33Z</time></trkpt><trkpt lat="45.69348341655803" lon="11.30683823715629"><ele>694.0</ele><time>2026-04-08T16:18:35Z</time></trkpt><trkpt lat="45.69355352656372" lon="11.306981564161202"><ele>694.0</ele><time>2026-04-08T16:18:37Z</time></trkpt><trkpt lat="45.693587172893636" lon="11.307067844794817"><ele>694.0</ele><time>2026-04-08T16:18:38Z</time></trkpt><trkpt lat="45.69364152840949" lon="11.307158793385273"><ele>694.0</ele><time>2026-04-08T16:18:39Z</time></trkpt><trkpt lat="45.69369661479267" lon="11.307219311438395"><ele>694.0</ele><time>2026-04-08T16:18:40Z</time></trkpt><trkpt lat="45.693756666317114" lon="11.307288833136234"><ele>694.0</ele><time>2026-04-08T16:18:41Z</time></trkpt><trkpt lat="45.693797800823084" lon="11.30736651334306"><ele>694.0</ele><time>2026-04-08T16:18:42Z</time></trkpt><trkpt lat="45.69386751316778" lon="11.30754834713375"><ele>690.0</ele><time>2026-04-08T16:18:44Z</time></trkpt><trkpt lat="45.69391056416745" lon="11.307653192053252"><ele>686.0</ele><time>2026-04-08T16:18:45Z</time></trkpt><trkpt lat="45.69393659061068" lon="11.307741264188738"><ele>682.0</ele><time>2026-04-08T16:18:46Z</time></trkpt><trkpt lat="45.69396752518816" lon="11.307822924825057"><ele>678.0</ele><time>2026-04-08T16:18:47Z</time></trkpt><trkpt lat="45.69400926434417" lon="11.307926101726688"><ele>674.0</ele><time>2026-04-08T16:18:48Z</time></trkpt><trkpt lat="45.6940478472168" lon="11.308030297902103"><ele>670.0</ele><time>2026-04-08T16:18:49Z</time></trkpt><trkpt lat="45.69410058673896" lon="11.308127889789889"><ele>670.0</ele><time>2026-04-08T16:18:50Z</time></trkpt><trkpt lat="45.69414822829281" lon="11.30822350658724"><ele>670.0</ele><time>2026-04-08T16:18:51Z</time></trkpt><trkpt lat="45.69419580430575" lon="11.308319505387459"><ele>670.0</ele><time>2026-04-08T16:18:52Z</time></trkpt><trkpt lat="45.69427677564949" lon="11.308466097932342"><ele>670.0</ele><time>2026-04-08T16:18:54Z</time></trkpt><trkpt lat="45.694316620072804" lon="11.30855665209409"><ele>670.0</ele><time>2026-04-08T16:18:55Z</time></trkpt><trkpt lat="45.69434076095118" lon="11.30870764333737"><ele>670.0</ele><time>2026-04-08T16:18:57Z</time></trkpt><trkpt lat="45.69430760429386" lon="11.308792585099118"><ele>670.0</ele><time>2026-04-08T16:18:58Z</time></trkpt><trkpt lat="45.69427774772802" lon="11.308934698510464"><ele>670.0</ele><time>2026-04-08T16:18:59Z</time></trkpt><trkpt lat="45.6942441296131" lon="11.309037014714592"><ele>670.0</ele><time>2026-04-08T16:19:00Z</time></trkpt><trkpt lat="45.694192081706646" lon="11.309114486272081"><ele>670.0</ele><time>2026-04-08T16:19:01Z</time></trkpt><trkpt lat="45.69414075221859" lon="11.309178361486453"><ele>670.0</ele><time>2026-04-08T16:19:02Z</time></trkpt><trkpt lat="45.69402664504526" lon="11.30930260409279"><ele>669.8333333333334</ele><time>2026-04-08T16:19:04Z</time></trkpt><trkpt lat="45.69393521838529" lon="11.309392435889489"><ele>669.6666666666667</ele><time>2026-04-08T16:19:05Z</time></trkpt><trkpt lat="45.69386683900003" lon="11.30946569859105"><ele>669.5</ele><time>2026-04-08T16:19:06Z</time></trkpt><trkpt lat="45.693798407141614" lon="11.309524962394901"><ele>669.3333333333334</ele><time>2026-04-08T16:19:07Z</time></trkpt><trkpt lat="45.693720904018264" lon="11.30957464838081"><ele>669.1666666666666</ele><time>2026-04-08T16:19:08Z</time></trkpt><trkpt lat="45.69365340748549" lon="11.309605190235876"><ele>669.0</ele><time>2026-04-08T16:19:09Z</time></trkpt><trkpt lat="45.693535158006014" lon="11.309660298459901"><ele>672.5</ele><time>2026-04-08T16:19:11Z</time></trkpt><trkpt lat="45.693467795396046" lon="11.309664400426444"><ele>676.0</ele><time>2026-04-08T16:19:12Z</time></trkpt><trkpt lat="45.693393809887155" lon="11.309649073110508"><ele>679.5</ele><time>2026-04-08T16:19:13Z</time></trkpt><trkpt lat="45.69332729646409" lon="11.309603415441954"><ele>683.0</ele><time>2026-04-08T16:19:14Z</time></trkpt><trkpt lat="45.69325518467729" lon="11.309570532436068"><ele>686.5</ele><time>2026-04-08T16:19:15Z</time></trkpt><trkpt lat="45.693149322149225" lon="11.309528511210578"><ele>690.0</ele><time>2026-04-08T16:19:16Z</time></trkpt><trkpt lat="45.693080220423596" lon="11.309495982536253"><ele>690.0</ele><time>2026-04-08T16:19:17Z</time></trkpt><trkpt lat="45.69299244099795" lon="11.309481490661948"><ele>690.0</ele><time>2026-04-08T16:19:18Z</time></trkpt><trkpt lat="45.69289592807918" lon="11.309469053878464"><ele>690.0</ele><time>2026-04-08T16:19:19Z</time></trkpt><trkpt lat="45.692821082652166" lon="11.309445147031044"><ele>690.0</ele><time>2026-04-08T16:19:20Z</time></trkpt><trkpt lat="45.69272504025729" lon="11.309433095174871"><ele>690.0</ele><time>2026-04-08T16:19:21Z</time></trkpt><trkpt lat="45.69261479535876" lon="11.309422323299321"><ele>689.8</ele><time>2026-04-08T16:19:22Z</time></trkpt><trkpt lat="45.692508421824634" lon="11.3094171545354"><ele>689.6</ele><time>2026-04-08T16:19:23Z</time></trkpt><trkpt lat="45.69241328508192" lon="11.309409954471125"><ele>689.4000000000001</ele><time>2026-04-08T16:19:24Z</time></trkpt><trkpt lat="45.692317085990474" lon="11.309404988529309"><ele>689.2</ele><time>2026-04-08T16:19:25Z</time></trkpt><trkpt lat="45.692232023601235" lon="11.309404356439968"><ele>689.0</ele><time>2026-04-08T16:19:26Z</time></trkpt><trkpt lat="45.69213581143545" lon="11.309390605414718"><ele>689.0</ele><time>2026-04-08T16:19:27Z</time></trkpt><trkpt lat="45.69204644914828" lon="11.309391198782452"><ele>689.0</ele><time>2026-04-08T16:19:28Z</time></trkpt><trkpt lat="45.6919555013655" lon="11.309367871687702"><ele>689.0</ele><time>2026-04-08T16:19:29Z</time></trkpt><trkpt lat="45.691853604042095" lon="11.309356423596107"><ele>689.0</ele><time>2026-04-08T16:19:30Z</time></trkpt><trkpt lat="45.69175863840818" lon="11.30936411387236"><ele>689.0</ele><time>2026-04-08T16:19:31Z</time></trkpt><trkpt lat="45.69168101232619" lon="11.309370219001362"><ele>687.4000000000001</ele><time>2026-04-08T16:19:32Z</time></trkpt><trkpt lat="45.691585357086325" lon="11.309340737779571"><ele>685.8</ele><time>2026-04-08T16:19:33Z</time></trkpt><trkpt lat="45.691497477830396" lon="11.309301696755615"><ele>684.2</ele><time>2026-04-08T16:19:34Z</time></trkpt><trkpt lat="45.69138998044528" lon="11.309263817042648"><ele>682.5999999999999</ele><time>2026-04-08T16:19:35Z</time></trkpt><trkpt lat="45.69131332120741" lon="11.309242963005003"><ele>681.0</ele><time>2026-04-08T16:19:36Z</time></trkpt><trkpt lat="45.69122412879534" lon="11.309260912818052"><ele>681.0</ele><time>2026-04-08T16:19:37Z</time></trkpt><trkpt lat="45.691139768316056" lon="11.309287468824236"><ele>681.0</ele><time>2026-04-08T16:19:38Z</time></trkpt><trkpt lat="45.691044061659895" lon="11.309295269578048"><ele>681.0</ele><time>2026-04-08T16:19:39Z</time></trkpt><trkpt lat="45.69095294851038" lon="11.309292861106133"><ele>681.0</ele><time>2026-04-08T16:19:40Z</time></trkpt><trkpt lat="45.69088376224837" lon="11.309273468095405"><ele>681.0</ele><time>2026-04-08T16:19:41Z</time></trkpt><trkpt lat="45.69080271884696" lon="11.309216974727795"><ele>681.0</ele><time>2026-04-08T16:19:43Z</time></trkpt><trkpt lat="45.690771379023886" lon="11.309123824652833"><ele>679.3333333333334</ele><time>2026-04-08T16:19:44Z</time></trkpt><trkpt lat="45.69072435556949" lon="11.309031377154652"><ele>677.6666666666666</ele><time>2026-04-08T16:19:45Z</time></trkpt><trkpt lat="45.69067958834177" lon="11.308966982049634"><ele>676.0</ele><time>2026-04-08T16:19:46Z</time></trkpt><trkpt lat="45.690623747292726" lon="11.308885615966961"><ele>674.3333333333333</ele><time>2026-04-08T16:19:47Z</time></trkpt><trkpt lat="45.69055324960104" lon="11.308853700545333"><ele>672.6666666666666</ele><time>2026-04-08T16:19:48Z</time></trkpt><trkpt lat="45.690482518882355" lon="11.308819632021539"><ele>671.0</ele><time>2026-04-08T16:19:49Z</time></trkpt><trkpt lat="45.69038565450524" lon="11.308793504843518"><ele>674.5</ele><time>2026-04-08T16:19:50Z</time></trkpt><trkpt lat="45.690292822365464" lon="11.308785963962185"><ele>678.0</ele><time>2026-04-08T16:19:51Z</time></trkpt><trkpt lat="45.69021031460521" lon="11.30876028011753"><ele>681.5</ele><time>2026-04-08T16:19:52Z</time></trkpt><trkpt lat="45.690149490959655" lon="11.30871104224168"><ele>685.0</ele><time>2026-04-08T16:19:53Z</time></trkpt><trkpt lat="45.69009129411824" lon="11.3086512860129"><ele>688.5</ele><time>2026-04-08T16:19:54Z</time></trkpt><trkpt lat="45.6900295199156" lon="11.308578058151017"><ele>692.0</ele><time>2026-04-08T16:19:55Z</time></trkpt><trkpt lat="45.68995365362267" lon="11.308496850035572"><ele>692.0</ele><time>2026-04-08T16:19:56Z</time></trkpt><trkpt lat="45.6898729245119" lon="11.308435022489672"><ele>692.0</ele><time>2026-04-08T16:19:57Z</time></trkpt><trkpt lat="45.6897910820739" lon="11.30837472039071"><ele>692.0</ele><time>2026-04-08T16:19:58Z</time></trkpt><trkpt lat="45.68972541719136" lon="11.308337377666055"><ele>692.0</ele><time>2026-04-08T16:19:59Z</time></trkpt><trkpt lat="45.68966063721914" lon="11.30833870205595"><ele>692.0</ele><time>2026-04-08T16:20:00Z</time></trkpt><trkpt lat="45.68957174766343" lon="11.308362819601243"><ele>692.0</ele><time>2026-04-08T16:20:01Z</time></trkpt><trkpt lat="45.68947407248384" lon="11.308383219283925"><ele>690.1666666666666</ele><time>2026-04-08T16:20:02Z</time></trkpt><trkpt lat="45.689397458296774" lon="11.308389814700408"><ele>688.3333333333333</ele><time>2026-04-08T16:20:03Z</time></trkpt><trkpt lat="45.689296609000735" lon="11.308396478171746"><ele>686.5</ele><time>2026-04-08T16:20:04Z</time></trkpt><trkpt lat="45.68920319371201" lon="11.308400741916149"><ele>684.6666666666666</ele><time>2026-04-08T16:20:05Z</time></trkpt><trkpt lat="45.689123342996666" lon="11.3084050837395"><ele>682.8333333333334</ele><time>2026-04-08T16:20:06Z</time></trkpt><trkpt lat="45.68905846440969" lon="11.308405880562999"><ele>681.0</ele><time>2026-04-08T16:20:07Z</time></trkpt><trkpt lat="45.6889846298692" lon="11.308364638527655"><ele>681.0</ele><time>2026-04-08T16:20:08Z</time></trkpt><trkpt lat="45.68889785445895" lon="11.308329562507222"><ele>681.0</ele><time>2026-04-08T16:20:09Z</time></trkpt><trkpt lat="45.688807432443404" lon="11.308296875353088"><ele>681.0</ele><time>2026-04-08T16:20:10Z</time></trkpt><trkpt lat="45.68869590424684" lon="11.3082974633754"><ele>681.0</ele><time>2026-04-08T16:20:11Z</time></trkpt><trkpt lat="45.688591026030004" lon="11.308286228254891"><ele>681.0</ele><time>2026-04-08T16:20:12Z</time></trkpt><trkpt lat="45.68849829977744" lon="11.308289846502177"><ele>678.8333333333334</ele><time>2026-04-08T16:20:13Z</time></trkpt><trkpt lat="45.688386481051815" lon="11.308276951341261"><ele>676.6666666666666</ele><time>2026-04-08T16:20:14Z</time></trkpt><trkpt lat="45.68829744267206" lon="11.308271322972686"><ele>674.5</ele><time>2026-04-08T16:20:15Z</time></trkpt><trkpt lat="45.688215003252715" lon="11.308267076501124"><ele>672.3333333333333</ele><time>2026-04-08T16:20:16Z</time></trkpt><trkpt lat="45.688149407493704" lon="11.308277370621349"><ele>670.1666666666666</ele><time>2026-04-08T16:20:17Z</time></trkpt><trkpt lat="45.68808629355528" lon="11.30831407826571"><ele>668.0</ele><time>2026-04-08T16:20:18Z</time></trkpt><trkpt lat="45.688003344461585" lon="11.308399929029939"><ele>668.0</ele><time>2026-04-08T16:20:19Z</time></trkpt><trkpt lat="45.68789781344793" lon="11.308477981733674"><ele>668.0</ele><time>2026-04-08T16:20:20Z</time></trkpt><trkpt lat="45.687826592621036" lon="11.30851214334424"><ele>668.0</ele><time>2026-04-08T16:20:21Z</time></trkpt><trkpt lat="45.68775683056701" lon="11.30854898674552"><ele>668.0</ele><time>2026-04-08T16:20:22Z</time></trkpt><trkpt lat="45.68769394632226" lon="11.30855323577941"><ele>668.0</ele><time>2026-04-08T16:20:23Z</time></trkpt><trkpt lat="45.687620811642546" lon="11.308538419885815"><ele>668.0</ele><time>2026-04-08T16:20:24Z</time></trkpt><trkpt lat="45.68753734704058" lon="11.308498019504194"><ele>669.5</ele><time>2026-04-08T16:20:25Z</time></trkpt><trkpt lat="45.687479061266096" lon="11.308455399370004"><ele>671.0</ele><time>2026-04-08T16:20:26Z</time></trkpt><trkpt lat="45.687428670201776" lon="11.30837962380078"><ele>672.5</ele><time>2026-04-08T16:20:27Z</time></trkpt><trkpt lat="45.68738715770399" lon="11.308275397219397"><ele>674.0</ele><time>2026-04-08T16:20:28Z</time></trkpt><trkpt lat="45.687356289766285" lon="11.308153249266885"><ele>675.5</ele><time>2026-04-08T16:20:29Z</time></trkpt><trkpt lat="45.68733532060252" lon="11.308033124119499"><ele>677.0</ele><time>2026-04-08T16:20:30Z</time></trkpt><trkpt lat="45.68731645004279" lon="11.307940402904167"><ele>677.0</ele><time>2026-04-08T16:20:31Z</time></trkpt><trkpt lat="45.687220058167355" lon="11.30778976971156"><ele>677.0</ele><time>2026-04-08T16:20:33Z</time></trkpt><trkpt lat="45.687143402736325" lon="11.307721367597793"><ele>677.0</ele><time>2026-04-08T16:20:34Z</time></trkpt><trkpt lat="45.68708873882878" lon="11.307667081018144"><ele>677.0</ele><time>2026-04-08T16:20:35Z</time></trkpt><trkpt lat="45.68706892175359" lon="11.307573753978861"><ele>677.0</ele><time>2026-04-08T16:20:36Z</time></trkpt><trkpt lat="45.68704660281086" lon="11.307480025769392"><ele>677.0</ele><time>2026-04-08T16:20:37Z</time></trkpt><trkpt lat="45.687041688502006" lon="11.307336483175561"><ele>680.2</ele><time>2026-04-08T16:20:38Z</time></trkpt><trkpt lat="45.687039687438826" lon="11.307161999089516"><ele>683.4000000000001</ele><time>2026-04-08T16:20:39Z</time></trkpt><trkpt lat="45.687055070946194" lon="11.307008378921825"><ele>686.5999999999999</ele><time>2026-04-08T16:20:40Z</time></trkpt><trkpt lat="45.68703735541227" lon="11.306868114559338"><ele>689.8</ele><time>2026-04-08T16:20:41Z</time></trkpt><trkpt lat="45.68701512862373" lon="11.306741393494228"><ele>693.0</ele><time>2026-04-08T16:20:42Z</time></trkpt><trkpt lat="45.68698670173134" lon="11.306636906005169"><ele>693.0</ele><time>2026-04-08T16:20:43Z</time></trkpt><trkpt lat="45.68693632088527" lon="11.306541781445592"><ele>693.0</ele><time>2026-04-08T16:20:44Z</time></trkpt><trkpt lat="45.686927112692146" lon="11.30644993577983"><ele>693.0</ele><time>2026-04-08T16:20:45Z</time></trkpt><trkpt lat="45.686935508845224" lon="11.306331364194584"><ele>693.0</ele><time>2026-04-08T16:20:46Z</time></trkpt><trkpt lat="45.68696627098747" lon="11.306227093092232"><ele>693.0</ele><time>2026-04-08T16:20:47Z</time></trkpt><trkpt lat="45.68697089373731" lon="11.306083049263503"><ele>693.0</ele><time>2026-04-08T16:20:48Z</time></trkpt><trkpt lat="45.68700571871199" lon="11.30599562296343"><ele>693.2</ele><time>2026-04-08T16:20:49Z</time></trkpt><trkpt lat="45.68701045851888" lon="11.305831922293361"><ele>693.4</ele><time>2026-04-08T16:20:51Z</time></trkpt><trkpt lat="45.68696186736416" lon="11.305751580810323"><ele>693.6</ele><time>2026-04-08T16:20:53Z</time></trkpt><trkpt lat="45.68683336114045" lon="11.305795266455782"><ele>693.8000000000001</ele><time>2026-04-08T16:20:55Z</time></trkpt><trkpt lat="45.68674359917605" lon="11.305859752199042"><ele>694.0</ele><time>2026-04-08T16:20:56Z</time></trkpt><trkpt lat="45.6866754090383" lon="11.30595548619909"><ele>692.3333333333334</ele><time>2026-04-08T16:20:57Z</time></trkpt><trkpt lat="45.68661206685437" lon="11.306039218226177"><ele>690.6666666666667</ele><time>2026-04-08T16:20:58Z</time></trkpt><trkpt lat="45.68651679460602" lon="11.306123578340715"><ele>689.0</ele><time>2026-04-08T16:20:59Z</time></trkpt><trkpt lat="45.68643907331104" lon="11.306194247408085"><ele>687.3333333333334</ele><time>2026-04-08T16:21:00Z</time></trkpt><trkpt lat="45.6863758346489" lon="11.306249179130322"><ele>685.6666666666666</ele><time>2026-04-08T16:21:01Z</time></trkpt><trkpt lat="45.686321130035516" lon="11.306294222108992"><ele>684.0</ele><time>2026-04-08T16:21:02Z</time></trkpt><trkpt lat="45.68625022953836" lon="11.306383925906744"><ele>680.3333333333334</ele><time>2026-04-08T16:21:03Z</time></trkpt><trkpt lat="45.68617414317055" lon="11.306474718086433"><ele>676.6666666666666</ele><time>2026-04-08T16:21:04Z</time></trkpt><trkpt lat="45.686110352450505" lon="11.306529465797306"><ele>673.0</ele><time>2026-04-08T16:21:05Z</time></trkpt><trkpt lat="45.68605629439132" lon="11.306587807211347"><ele>669.3333333333333</ele><time>2026-04-08T16:21:06Z</time></trkpt><trkpt lat="45.68593521497918" lon="11.306608681988786"><ele>665.6666666666666</ele><time>2026-04-08T16:21:08Z</time></trkpt><trkpt lat="45.685859492834496" lon="11.306622578026042"><ele>662.0</ele><time>2026-04-08T16:21:09Z</time></trkpt><trkpt lat="45.68576888962904" lon="11.306620600903925"><ele>661.2</ele><time>2026-04-08T16:21:10Z</time></trkpt><trkpt lat="45.685624823750146" lon="11.306655740489507"><ele>660.4000000000001</ele><time>2026-04-08T16:21:12Z</time></trkpt><trkpt lat="45.68551573238832" lon="11.306684485585246"><ele>659.5999999999999</ele><time>2026-04-08T16:21:13Z</time></trkpt><trkpt lat="45.6854245178083" lon="11.306714733282995"><ele>658.8</ele><time>2026-04-08T16:21:14Z</time></trkpt><trkpt lat="45.685347919841035" lon="11.30673763093977"><ele>658.0</ele><time>2026-04-08T16:21:15Z</time></trkpt><trkpt lat="45.6852728386222" lon="11.306758792267182"><ele>656.5</ele><time>2026-04-08T16:21:16Z</time></trkpt><trkpt lat="45.68520037813816" lon="11.306774162419392"><ele>655.0</ele><time>2026-04-08T16:21:17Z</time></trkpt><trkpt lat="45.685095555503565" lon="11.30684416666124"><ele>653.5</ele><time>2026-04-08T16:21:19Z</time></trkpt><trkpt lat="45.68503788964652" lon="11.306943835461064"><ele>652.0</ele><time>2026-04-08T16:21:20Z</time></trkpt><trkpt lat="45.685005799487804" lon="11.307024523268744"><ele>650.5</ele><time>2026-04-08T16:21:21Z</time></trkpt><trkpt lat="45.684987239724194" lon="11.307146695745374"><ele>649.0</ele><time>2026-04-08T16:21:22Z</time></trkpt><trkpt lat="45.68498050809023" lon="11.307263172361614"><ele>647.0</ele><time>2026-04-08T16:21:23Z</time></trkpt><trkpt lat="45.68497925957713" lon="11.30738512142384"><ele>645.0</ele><time>2026-04-08T16:21:24Z</time></trkpt><trkpt lat="45.68496951173255" lon="11.30749158334937"><ele>643.0</ele><time>2026-04-08T16:21:25Z</time></trkpt><trkpt lat="45.6849301102774" lon="11.307628906891832"><ele>641.0</ele><time>2026-04-08T16:21:27Z</time></trkpt><trkpt lat="45.684882268453315" lon="11.307691685301267"><ele>639.0</ele><time>2026-04-08T16:21:28Z</time></trkpt><trkpt lat="45.68481104292484" lon="11.307761147494626"><ele>637.0</ele><time>2026-04-08T16:21:29Z</time></trkpt><trkpt lat="45.68471954503684" lon="11.307856794472585"><ele>637.0</ele><time>2026-04-08T16:21:30Z</time></trkpt><trkpt lat="45.68463059496584" lon="11.307950687083002"><ele>637.0</ele><time>2026-04-08T16:21:31Z</time></trkpt><trkpt lat="45.68457121227776" lon="11.308034216323497"><ele>637.0</ele><time>2026-04-08T16:21:32Z</time></trkpt><trkpt lat="45.684506410370716" lon="11.30813448072945"><ele>637.0</ele><time>2026-04-08T16:21:33Z</time></trkpt><trkpt lat="45.68442708383132" lon="11.308233417374812"><ele>637.0</ele><time>2026-04-08T16:21:34Z</time></trkpt><trkpt lat="45.684365201131705" lon="11.308315339824487"><ele>636.8000000000001</ele><time>2026-04-08T16:21:36Z</time></trkpt><trkpt lat="45.68430164545516" lon="11.308424532701528"><ele>636.6</ele><time>2026-04-08T16:21:38Z</time></trkpt><trkpt lat="45.684259185248045" lon="11.308532585214293"><ele>636.4000000000001</ele><time>2026-04-08T16:21:39Z</time></trkpt><trkpt lat="45.68421505701991" lon="11.30867123324639"><ele>636.2</ele><time>2026-04-08T16:21:40Z</time></trkpt><trkpt lat="45.68416042908336" lon="11.308780557059084"><ele>636.0</ele><time>2026-04-08T16:21:41Z</time></trkpt><trkpt lat="45.68412748118756" lon="11.308880437690156"><ele>636.0</ele><time>2026-04-08T16:21:42Z</time></trkpt><trkpt lat="45.684099860757094" lon="11.308970669033076"><ele>636.0</ele><time>2026-04-08T16:21:43Z</time></trkpt><trkpt lat="45.68407570598549" lon="11.309054281719082"><ele>636.0</ele><time>2026-04-08T16:21:44Z</time></trkpt><trkpt lat="45.684072772067445" lon="11.309256483104145"><ele>636.0</ele><time>2026-04-08T16:21:46Z</time></trkpt><trkpt lat="45.68404575248539" lon="11.309365368941945"><ele>636.0</ele><time>2026-04-08T16:21:47Z</time></trkpt><trkpt lat="45.68401934434143" lon="11.309449543868073"><ele>636.0</ele><time>2026-04-08T16:21:48Z</time></trkpt><trkpt lat="45.683973583751644" lon="11.309592636604272"><ele>636.0</ele><time>2026-04-08T16:21:50Z</time></trkpt><trkpt lat="45.68394185982453" lon="11.309729241347027"><ele>636.0</ele><time>2026-04-08T16:21:52Z</time></trkpt><trkpt lat="45.68377919809535" lon="11.309777863630671"><ele>636.0</ele><time>2026-04-08T16:21:54Z</time></trkpt><trkpt lat="45.68370736892414" lon="11.309804660765977"><ele>636.0</ele><time>2026-04-08T16:21:55Z</time></trkpt><trkpt lat="45.68362520049006" lon="11.309838048594386"><ele>636.0</ele><time>2026-04-08T16:21:56Z</time></trkpt><trkpt lat="45.6835609919852" lon="11.309850068977964"><ele>637.6666666666666</ele><time>2026-04-08T16:21:57Z</time></trkpt><trkpt lat="45.683476815600706" lon="11.309873178917208"><ele>639.3333333333334</ele><time>2026-04-08T16:21:58Z</time></trkpt><trkpt lat="45.68341247279459" lon="11.309844521139306"><ele>641.0</ele><time>2026-04-08T16:21:59Z</time></trkpt><trkpt lat="45.6833457364532" lon="11.30987861114747"><ele>642.6666666666667</ele><time>2026-04-08T16:22:00Z</time></trkpt><trkpt lat="45.683244485963776" lon="11.309930877298372"><ele>644.3333333333334</ele><time>2026-04-08T16:22:02Z</time></trkpt><trkpt lat="45.68317864885919" lon="11.309978646275258"><ele>646.0</ele><time>2026-04-08T16:22:03Z</time></trkpt><trkpt lat="45.683124159226324" lon="11.310049431253312"><ele>646.0</ele><time>2026-04-08T16:22:04Z</time></trkpt><trkpt lat="45.68306665234528" lon="11.310135358156515"><ele>646.0</ele><time>2026-04-08T16:22:05Z</time></trkpt><trkpt lat="45.68299461272044" lon="11.310248811546456"><ele>646.0</ele><time>2026-04-08T16:22:06Z</time></trkpt><trkpt lat="45.682925538310705" lon="11.310344027430931"><ele>646.0</ele><time>2026-04-08T16:22:07Z</time></trkpt><trkpt lat="45.68279803111231" lon="11.310444630387938"><ele>646.0</ele><time>2026-04-08T16:22:09Z</time></trkpt><trkpt lat="45.682727813683606" lon="11.310495624053477"><ele>647.3333333333334</ele><time>2026-04-08T16:22:10Z</time></trkpt><trkpt lat="45.68258120718375" lon="11.310056780469353"><ele>648.6666666666666</ele><time>2026-04-08T16:22:12Z</time></trkpt><trkpt lat="45.68250362214098" lon="11.310074215338483"><ele>650.0</ele><time>2026-04-08T16:22:13Z</time></trkpt><trkpt lat="45.68249306322703" lon="11.309977814417708"><ele>674.0</ele><time>2026-04-08T16:22:14Z</time></trkpt><trkpt lat="45.68237945671757" lon="11.310658945673982"><ele>674.0</ele><time>2026-04-08T16:22:15Z</time></trkpt><trkpt lat="45.68229787804272" lon="11.310670667505063"><ele>674.0</ele><time>2026-04-08T16:22:16Z</time></trkpt><trkpt lat="45.682234982890456" lon="11.310683417829775"><ele>674.0</ele><time>2026-04-08T16:22:17Z</time></trkpt><trkpt lat="45.68214520335804" lon="11.310777101296765"><ele>674.0</ele><time>2026-04-08T16:22:19Z</time></trkpt><trkpt lat="45.68210665269438" lon="11.310869075979474"><ele>674.0</ele><time>2026-04-08T16:22:20Z</time></trkpt><trkpt lat="45.68207166327136" lon="11.310951070403794"><ele>674.0</ele><time>2026-04-08T16:22:21Z</time></trkpt><trkpt lat="45.68198615850167" lon="11.31109079320653"><ele>674.1666666666666</ele><time>2026-04-08T16:22:23Z</time></trkpt><trkpt lat="45.68192156813246" lon="11.311175859678862"><ele>674.3333333333333</ele><time>2026-04-08T16:22:24Z</time></trkpt><trkpt lat="45.68187847379708" lon="11.311272454574794"><ele>674.5</ele><time>2026-04-08T16:22:25Z</time></trkpt><trkpt lat="45.68182283501746" lon="11.311411554633931"><ele>674.6666666666666</ele><time>2026-04-08T16:22:27Z</time></trkpt><trkpt lat="45.68179110621862" lon="11.311499020404591"><ele>674.8333333333334</ele><time>2026-04-08T16:22:28Z</time></trkpt><trkpt lat="45.6817495506563" lon="11.311585175884183"><ele>675.0</ele><time>2026-04-08T16:22:29Z</time></trkpt><trkpt lat="45.681717748461516" lon="11.311682338587795"><ele>675.0</ele><time>2026-04-08T16:22:30Z</time></trkpt><trkpt lat="45.68168501596725" lon="11.311771194914463"><ele>675.0</ele><time>2026-04-08T16:22:31Z</time></trkpt><trkpt lat="45.68165607792572" lon="11.311857178472792"><ele>675.0</ele><time>2026-04-08T16:22:32Z</time></trkpt><trkpt lat="45.68161369118838" lon="11.311960903986408"><ele>675.0</ele><time>2026-04-08T16:22:33Z</time></trkpt><trkpt lat="45.68157593997888" lon="11.312048193108438"><ele>675.0</ele><time>2026-04-08T16:22:34Z</time></trkpt><trkpt lat="45.68154050735587" lon="11.312135041417848"><ele>675.0</ele><time>2026-04-08T16:22:35Z</time></trkpt><trkpt lat="45.68152261945616" lon="11.312242470473468"><ele>675.0</ele><time>2026-04-08T16:22:36Z</time></trkpt><trkpt lat="45.68153296585632" lon="11.312486819028166"><ele>676.8</ele><time>2026-04-08T16:22:38Z</time></trkpt><trkpt lat="45.68154105744921" lon="11.312624126203316"><ele>678.6</ele><time>2026-04-08T16:22:39Z</time></trkpt><trkpt lat="45.68156067512894" lon="11.312743917914524"><ele>680.4000000000001</ele><time>2026-04-08T16:22:40Z</time></trkpt><trkpt lat="45.6815807734427" lon="11.312922446708857"><ele>682.2</ele><time>2026-04-08T16:22:42Z</time></trkpt><trkpt lat="45.68163329420572" lon="11.313079827534002"><ele>684.0</ele><time>2026-04-08T16:22:44Z</time></trkpt><trkpt lat="45.681657880643044" lon="11.31319711750851"><ele>684.5714285714286</ele><time>2026-04-08T16:22:45Z</time></trkpt><trkpt lat="45.68167434931379" lon="11.313310255742225"><ele>685.1428571428571</ele><time>2026-04-08T16:22:46Z</time></trkpt><trkpt lat="45.681684079293944" lon="11.313412183069099"><ele>685.7142857142858</ele><time>2026-04-08T16:22:47Z</time></trkpt><trkpt lat="45.6817042760673" lon="11.313513488950196"><ele>686.2857142857142</ele><time>2026-04-08T16:22:48Z</time></trkpt><trkpt lat="45.68173612435214" lon="11.313591965507772"><ele>686.8571428571429</ele><time>2026-04-08T16:22:49Z</time></trkpt><trkpt lat="45.681791478239376" lon="11.313697442224466"><ele>687.4285714285714</ele><time>2026-04-08T16:22:50Z</time></trkpt><trkpt lat="45.68182252420394" lon="11.313779094959054"><ele>688.0</ele><time>2026-04-08T16:22:51Z</time></trkpt><trkpt lat="45.681828783983306" lon="11.313936062999044"><ele>688.5999999999999</ele><time>2026-04-08T16:22:53Z</time></trkpt><trkpt lat="45.68182100770862" lon="11.31405460148422"><ele>689.1999999999999</ele><time>2026-04-08T16:22:54Z</time></trkpt><trkpt lat="45.68181205128332" lon="11.314161995179212"><ele>689.8</ele><time>2026-04-08T16:22:55Z</time></trkpt><trkpt lat="45.681752949382606" lon="11.314318137742653"><ele>690.4</ele><time>2026-04-08T16:22:57Z</time></trkpt><trkpt lat="45.681702064113416" lon="11.314434208901844"><ele>691.0</ele><time>2026-04-08T16:22:58Z</time></trkpt><trkpt lat="45.68164361405188" lon="11.314525100985113"><ele>691.0</ele><time>2026-04-08T16:22:59Z</time></trkpt><trkpt lat="45.68159754375" lon="11.3146022272883"><ele>691.0</ele><time>2026-04-08T16:23:00Z</time></trkpt><trkpt lat="45.68155316561604" lon="11.314699196083003"><ele>691.0</ele><time>2026-04-08T16:23:01Z</time></trkpt><trkpt lat="45.681523521412664" lon="11.314783131769596"><ele>691.0</ele><time>2026-04-08T16:23:02Z</time></trkpt><trkpt lat="45.68146734197683" lon="11.314926505991645"><ele>691.0</ele><time>2026-04-08T16:23:04Z</time></trkpt><trkpt lat="45.68144544108418" lon="11.315013882629653"><ele>691.0</ele><time>2026-04-08T16:23:05Z</time></trkpt><trkpt lat="45.681397147390726" lon="11.315097531973294"><ele>691.1999999999999</ele><time>2026-04-08T16:23:07Z</time></trkpt><trkpt lat="45.681301473654905" lon="11.315149201170192"><ele>691.4</ele><time>2026-04-08T16:23:09Z</time></trkpt><trkpt lat="45.681189752284155" lon="11.315237695505653"><ele>691.6</ele><time>2026-04-08T16:23:11Z</time></trkpt><trkpt lat="45.6811255394346" lon="11.315313661635637"><ele>691.8</ele><time>2026-04-08T16:23:12Z</time></trkpt><trkpt lat="45.681077524803385" lon="11.315375597927337"><ele>692.0</ele><time>2026-04-08T16:23:13Z</time></trkpt><trkpt lat="45.6810185499603" lon="11.315466145923699"><ele>692.2</ele><time>2026-04-08T16:23:14Z</time></trkpt><trkpt lat="45.68096684006827" lon="11.315534690514196"><ele>692.4000000000001</ele><time>2026-04-08T16:23:15Z</time></trkpt><trkpt lat="45.68090125517764" lon="11.315589482840544"><ele>692.5999999999999</ele><time>2026-04-08T16:23:16Z</time></trkpt><trkpt lat="45.6808186392469" lon="11.315667573629593"><ele>692.8</ele><time>2026-04-08T16:23:17Z</time></trkpt><trkpt lat="45.68073185630264" lon="11.315738248878704"><ele>693.0</ele><time>2026-04-08T16:23:18Z</time></trkpt><trkpt lat="45.68063628980653" lon="11.315821100249192"><ele>692.6666666666666</ele><time>2026-04-08T16:23:19Z</time></trkpt><trkpt lat="45.68056801644081" lon="11.315880766472786"><ele>692.3333333333334</ele><time>2026-04-08T16:23:20Z</time></trkpt><trkpt lat="45.68052152121126" lon="11.315945071278414"><ele>692.0</ele><time>2026-04-08T16:23:21Z</time></trkpt><trkpt lat="45.680423316950154" lon="11.316065250155617"><ele>691.6666666666667</ele><time>2026-04-08T16:23:23Z</time></trkpt><trkpt lat="45.68036344336333" lon="11.316131450857318"><ele>691.3333333333334</ele><time>2026-04-08T16:23:24Z</time></trkpt><trkpt lat="45.68030563012992" lon="11.316177567319084"><ele>691.0</ele><time>2026-04-08T16:23:25Z</time></trkpt><trkpt lat="45.680225154333456" lon="11.316242194732292"><ele>690.5</ele><time>2026-04-08T16:23:27Z</time></trkpt><trkpt lat="45.680168074867694" lon="11.31630509964972"><ele>690.0</ele><time>2026-04-08T16:23:29Z</time></trkpt><trkpt lat="45.68010898207074" lon="11.316357781819708"><ele>689.5</ele><time>2026-04-08T16:23:32Z</time></trkpt><trkpt lat="45.68005071155368" lon="11.316286083264037"><ele>689.0</ele><time>2026-04-08T16:23:35Z</time></trkpt><trkpt lat="45.68000067468472" lon="11.316209556470419"><ele>688.5</ele><time>2026-04-08T16:23:37Z</time></trkpt><trkpt lat="45.67987739578923" lon="11.316162142209475"><ele>688.0</ele><time>2026-04-08T16:23:39Z</time></trkpt><trkpt lat="45.67979184930369" lon="11.316165999117416"><ele>688.0</ele><time>2026-04-08T16:23:40Z</time></trkpt><trkpt lat="45.67970217420786" lon="11.316193342539458"><ele>688.0</ele><time>2026-04-08T16:23:41Z</time></trkpt><trkpt lat="45.67959859877679" lon="11.316207866910865"><ele>688.0</ele><time>2026-04-08T16:23:42Z</time></trkpt><trkpt lat="45.67950068819527" lon="11.316220926695756"><ele>688.0</ele><time>2026-04-08T16:23:43Z</time></trkpt><trkpt lat="45.67940966164442" lon="11.316243264171902"><ele>688.0</ele><time>2026-04-08T16:23:44Z</time></trkpt><trkpt lat="45.67932079901469" lon="11.316250995954752"><ele>687.0</ele><time>2026-04-08T16:23:45Z</time></trkpt><trkpt lat="45.67918950419754" lon="11.316258986796733"><ele>686.0</ele><time>2026-04-08T16:23:47Z</time></trkpt><trkpt lat="45.67910228243399" lon="11.316274159306218"><ele>685.0</ele><time>2026-04-08T16:23:48Z</time></trkpt><trkpt lat="45.679025772854665" lon="11.31630708196412"><ele>684.0</ele><time>2026-04-08T16:23:49Z</time></trkpt><trkpt lat="45.67895163180178" lon="11.316350057070139"><ele>683.0</ele><time>2026-04-08T16:23:50Z</time></trkpt><trkpt lat="45.67887158414831" lon="11.316411547161051"><ele>683.0</ele><time>2026-04-08T16:23:52Z</time></trkpt><trkpt lat="45.67883098030836" lon="11.31649466108395"><ele>683.0</ele><time>2026-04-08T16:23:54Z</time></trkpt><trkpt lat="45.67881413655779" lon="11.31664339845398"><ele>683.0</ele><time>2026-04-08T16:23:56Z</time></trkpt><trkpt lat="45.67880000184614" lon="11.316741416343135"><ele>683.0</ele><time>2026-04-08T16:23:57Z</time></trkpt><trkpt lat="45.67878394967712" lon="11.316833476585032"><ele>683.0</ele><time>2026-04-08T16:23:58Z</time></trkpt><trkpt lat="45.67874192119701" lon="11.316919078642755"><ele>683.0</ele><time>2026-04-08T16:23:59Z</time></trkpt><trkpt lat="45.678690869794586" lon="11.316972883251529"><ele>683.0</ele><time>2026-04-08T16:24:00Z</time></trkpt><trkpt lat="45.67858162306195" lon="11.31699926723218"><ele>685.6666666666666</ele><time>2026-04-08T16:24:02Z</time></trkpt><trkpt lat="45.67848959130278" lon="11.31699378130702"><ele>688.3333333333333</ele><time>2026-04-08T16:24:03Z</time></trkpt><trkpt lat="45.678424860026205" lon="11.317013677407017"><ele>691.0</ele><time>2026-04-08T16:24:04Z</time></trkpt><trkpt lat="45.67836678295466" lon="11.317087573979048"><ele>693.6666666666666</ele><time>2026-04-08T16:24:06Z</time></trkpt><trkpt lat="45.67832734850923" lon="11.317164682941932"><ele>696.3333333333334</ele><time>2026-04-08T16:24:08Z</time></trkpt><trkpt lat="45.67827056352433" lon="11.317292806146323"><ele>699.0</ele><time>2026-04-08T16:24:10Z</time></trkpt><trkpt lat="45.67821092744808" lon="11.317423243883738"><ele>699.2</ele><time>2026-04-08T16:24:12Z</time></trkpt><trkpt lat="45.678154427910286" lon="11.317589375186708"><ele>699.4000000000001</ele><time>2026-04-08T16:24:14Z</time></trkpt><trkpt lat="45.678125418694535" lon="11.317669339898552"><ele>699.6</ele><time>2026-04-08T16:24:15Z</time></trkpt><trkpt lat="45.67809680927992" lon="11.317758264282462"><ele>699.8</ele><time>2026-04-08T16:24:16Z</time></trkpt><trkpt lat="45.67806163422022" lon="11.317856141678968"><ele>700.0</ele><time>2026-04-08T16:24:17Z</time></trkpt><trkpt lat="45.677998968477745" lon="11.317990448189429"><ele>698.8</ele><time>2026-04-08T16:24:18Z</time></trkpt><trkpt lat="45.67793225348293" lon="11.318103098403622"><ele>697.6</ele><time>2026-04-08T16:24:19Z</time></trkpt><trkpt lat="45.67787156953271" lon="11.318198882167476"><ele>696.4000000000001</ele><time>2026-04-08T16:24:20Z</time></trkpt><trkpt lat="45.67783772685445" lon="11.318278376914995"><ele>695.2</ele><time>2026-04-08T16:24:21Z</time></trkpt><trkpt lat="45.677796809642516" lon="11.31842852537614"><ele>694.0</ele><time>2026-04-08T16:24:23Z</time></trkpt><trkpt lat="45.67778436650894" lon="11.318585517670519"><ele>694.0</ele><time>2026-04-08T16:24:25Z</time></trkpt><trkpt lat="45.67779134067496" lon="11.318685198677445"><ele>694.0</ele><time>2026-04-08T16:24:26Z</time></trkpt><trkpt lat="45.67779099320103" lon="11.318785661545652"><ele>694.0</ele><time>2026-04-08T16:24:27Z</time></trkpt><trkpt lat="45.677783073109644" lon="11.318882763825624"><ele>694.0</ele><time>2026-04-08T16:24:28Z</time></trkpt><trkpt lat="45.677756211289626" lon="11.318965337478907"><ele>694.0</ele><time>2026-04-08T16:24:29Z</time></trkpt><trkpt lat="45.67771475353335" lon="11.31906866644311"><ele>694.0</ele><time>2026-04-08T16:24:30Z</time></trkpt><trkpt lat="45.67763982151333" lon="11.31918893346098"><ele>697.8000000000001</ele><time>2026-04-08T16:24:32Z</time></trkpt><trkpt lat="45.677536308476704" lon="11.319282453320682"><ele>701.6</ele><time>2026-04-08T16:24:34Z</time></trkpt><trkpt lat="45.67745141584895" lon="11.319345678457088"><ele>705.4</ele><time>2026-04-08T16:24:36Z</time></trkpt><trkpt lat="45.67737786060981" lon="11.319422926018682"><ele>709.2</ele><time>2026-04-08T16:24:38Z</time></trkpt><trkpt lat="45.67732915084889" lon="11.319480906672592"><ele>713.0</ele><time>2026-04-08T16:24:39Z</time></trkpt><trkpt lat="45.67721945546142" lon="11.319535903850102"><ele>713.0</ele><time>2026-04-08T16:24:41Z</time></trkpt><trkpt lat="45.67711216452532" lon="11.319610211356316"><ele>713.0</ele><time>2026-04-08T16:24:43Z</time></trkpt><trkpt lat="45.677044109417444" lon="11.319708188360917"><ele>713.0</ele><time>2026-04-08T16:24:45Z</time></trkpt><trkpt lat="45.67698243867761" lon="11.319771008096083"><ele>713.0</ele><time>2026-04-08T16:24:47Z</time></trkpt><trkpt lat="45.6769058132649" lon="11.319900023825616"><ele>713.0</ele><time>2026-04-08T16:24:49Z</time></trkpt><trkpt lat="45.676837415386004" lon="11.320000794552609"><ele>713.5</ele><time>2026-04-08T16:24:52Z</time></trkpt><trkpt lat="45.67674986195199" lon="11.320107043178556"><ele>714.0</ele><time>2026-04-08T16:24:54Z</time></trkpt><trkpt lat="45.67666699464009" lon="11.320208134019607"><ele>714.5</ele><time>2026-04-08T16:24:56Z</time></trkpt><trkpt lat="45.676584357288135" lon="11.320316744810956"><ele>715.0</ele><time>2026-04-08T16:24:58Z</time></trkpt><trkpt lat="45.67648916113074" lon="11.320440045624713"><ele>715.0</ele><time>2026-04-08T16:25:00Z</time></trkpt><trkpt lat="45.676460816159235" lon="11.320526048988818"><ele>715.0</ele><time>2026-04-08T16:25:01Z</time></trkpt><trkpt lat="45.67643925667508" lon="11.320688324772822"><ele>715.0</ele><time>2026-04-08T16:25:03Z</time></trkpt><trkpt lat="45.67641913615142" lon="11.320781656914972"><ele>715.0</ele><time>2026-04-08T16:25:04Z</time></trkpt><trkpt lat="45.676384470019165" lon="11.320872684889785"><ele>715.0</ele><time>2026-04-08T16:25:05Z</time></trkpt><trkpt lat="45.67629569159581" lon="11.321013177684708"><ele>713.6</ele><time>2026-04-08T16:25:07Z</time></trkpt><trkpt lat="45.67624022183929" lon="11.321089857046905"><ele>712.2</ele><time>2026-04-08T16:25:08Z</time></trkpt><trkpt lat="45.676180079344384" lon="11.32117749752781"><ele>710.8</ele><time>2026-04-08T16:25:10Z</time></trkpt><trkpt lat="45.67608652407288" lon="11.321277037431043"><ele>709.4</ele><time>2026-04-08T16:25:12Z</time></trkpt><trkpt lat="45.676065222642094" lon="11.32139556340522"><ele>708.0</ele><time>2026-04-08T16:25:14Z</time></trkpt><trkpt lat="45.676120113433974" lon="11.321493281706806"><ele>707.2857142857143</ele><time>2026-04-08T16:25:16Z</time></trkpt><trkpt lat="45.67615914036312" lon="11.321599454007744"><ele>706.5714285714286</ele><time>2026-04-08T16:25:18Z</time></trkpt><trkpt lat="45.676190624867075" lon="11.321684990202227"><ele>705.8571428571429</ele><time>2026-04-08T16:25:23Z</time></trkpt><trkpt lat="45.67618597091359" lon="11.321786798122526"><ele>705.1428571428571</ele><time>2026-04-08T16:25:26Z</time></trkpt><trkpt lat="45.67611224537971" lon="11.321817146294729"><ele>704.4285714285714</ele><time>2026-04-08T16:25:28Z</time></trkpt><trkpt lat="45.676038187135305" lon="11.321820223034567"><ele>703.7142857142857</ele><time>2026-04-08T16:25:30Z</time></trkpt><trkpt lat="45.67596585995774" lon="11.321829519448125"><ele>703.0</ele><time>2026-04-08T16:25:32Z</time></trkpt><trkpt lat="45.67589734936091" lon="11.321774820713898"><ele>701.2</ele><time>2026-04-08T16:25:34Z</time></trkpt><trkpt lat="45.67584051299771" lon="11.321627752240465"><ele>699.4</ele><time>2026-04-08T16:25:36Z</time></trkpt><trkpt lat="45.675795173439724" lon="11.321539447891789"><ele>697.6</ele><time>2026-04-08T16:25:37Z</time></trkpt><trkpt lat="45.67568946397555" lon="11.321434223559034"><ele>695.8000000000001</ele><time>2026-04-08T16:25:39Z</time></trkpt><trkpt lat="45.67557852660828" lon="11.321404107976843"><ele>694.0</ele><time>2026-04-08T16:25:41Z</time></trkpt><trkpt lat="45.67550964191132" lon="11.321421436644957"><ele>694.0</ele><time>2026-04-08T16:25:42Z</time></trkpt><trkpt lat="45.675423550820945" lon="11.321447442596176"><ele>694.0</ele><time>2026-04-08T16:25:43Z</time></trkpt><trkpt lat="45.67532788414943" lon="11.321489335089705"><ele>694.0</ele><time>2026-04-08T16:25:44Z</time></trkpt><trkpt lat="45.67524338138302" lon="11.321534933423898"><ele>694.0</ele><time>2026-04-08T16:25:45Z</time></trkpt><trkpt lat="45.6751620637737" lon="11.32158077908807"><ele>694.0</ele><time>2026-04-08T16:25:46Z</time></trkpt><trkpt lat="45.675091833744055" lon="11.321611791495638"><ele>694.0</ele><time>2026-04-08T16:25:47Z</time></trkpt><trkpt lat="45.67502436449181" lon="11.321633620425873"><ele>693.3333333333334</ele><time>2026-04-08T16:25:48Z</time></trkpt><trkpt lat="45.67495362661297" lon="11.321633993273162"><ele>692.6666666666667</ele><time>2026-04-08T16:25:49Z</time></trkpt><trkpt lat="45.67487434948266" lon="11.321619986705787"><ele>692.0</ele><time>2026-04-08T16:25:50Z</time></trkpt><trkpt lat="45.67478417907577" lon="11.321574412237537"><ele>691.3333333333334</ele><time>2026-04-08T16:25:51Z</time></trkpt><trkpt lat="45.67472931650269" lon="11.321508307568147"><ele>690.6666666666666</ele><time>2026-04-08T16:25:52Z</time></trkpt><trkpt lat="45.674664037791764" lon="11.321472518433113"><ele>690.0</ele><time>2026-04-08T16:25:53Z</time></trkpt><trkpt lat="45.674609862122935" lon="11.321395692586469"><ele>689.3333333333334</ele><time>2026-04-08T16:25:54Z</time></trkpt><trkpt lat="45.674544197022065" lon="11.321300320813165"><ele>688.6666666666666</ele><time>2026-04-08T16:25:55Z</time></trkpt><trkpt lat="45.67449849931494" lon="11.321190779748006"><ele>688.0</ele><time>2026-04-08T16:25:56Z</time></trkpt><trkpt lat="45.674445232851795" lon="11.321140640619483"><ele>687.3333333333333</ele><time>2026-04-08T16:25:57Z</time></trkpt><trkpt lat="45.6743680134167" lon="11.321014780950255"><ele>686.6666666666666</ele><time>2026-04-08T16:25:59Z</time></trkpt><trkpt lat="45.67431193940409" lon="11.320933189904016"><ele>686.0</ele><time>2026-04-08T16:26:01Z</time></trkpt><trkpt lat="45.67423074442011" lon="11.320865009278593"><ele>686.0</ele><time>2026-04-08T16:26:04Z</time></trkpt><trkpt lat="45.67406281310332" lon="11.32104414213172"><ele>686.0</ele><time>2026-04-08T16:26:05Z</time></trkpt><trkpt lat="45.67398699307478" lon="11.321058265651335"><ele>686.0</ele><time>2026-04-08T16:26:06Z</time></trkpt><trkpt lat="45.67390290439233" lon="11.321045256063078"><ele>686.0</ele><time>2026-04-08T16:26:07Z</time></trkpt><trkpt lat="45.67381452701954" lon="11.321039690173569"><ele>686.0</ele><time>2026-04-08T16:26:08Z</time></trkpt><trkpt lat="45.673740407741725" lon="11.321059401673232"><ele>686.0</ele><time>2026-04-08T16:26:09Z</time></trkpt><trkpt lat="45.67365252728768" lon="11.321076913762642"><ele>686.0</ele><time>2026-04-08T16:26:10Z</time></trkpt><trkpt lat="45.67358389038225" lon="11.321064960355283"><ele>686.0</ele><time>2026-04-08T16:26:11Z</time></trkpt><trkpt lat="45.673500109972736" lon="11.32106338813635"><ele>686.0</ele><time>2026-04-08T16:26:12Z</time></trkpt><trkpt lat="45.67339198955623" lon="11.321065211434167"><ele>686.0</ele><time>2026-04-08T16:26:13Z</time></trkpt><trkpt lat="45.673297781527396" lon="11.321073649868792"><ele>684.5</ele><time>2026-04-08T16:26:14Z</time></trkpt><trkpt lat="45.67320941790782" lon="11.321086013704"><ele>683.0</ele><time>2026-04-08T16:26:15Z</time></trkpt><trkpt lat="45.67313540254554" lon="11.32109669796229"><ele>681.5</ele><time>2026-04-08T16:26:16Z</time></trkpt><trkpt lat="45.673064280616195" lon="11.321113144253305"><ele>680.0</ele><time>2026-04-08T16:26:17Z</time></trkpt><trkpt lat="45.672970752587304" lon="11.321133121858033"><ele>678.5</ele><time>2026-04-08T16:26:18Z</time></trkpt><trkpt lat="45.67287768443099" lon="11.321147605257922"><ele>677.0</ele><time>2026-04-08T16:26:19Z</time></trkpt><trkpt lat="45.67273966543031" lon="11.321180715137475"><ele>677.8333333333333</ele><time>2026-04-08T16:26:21Z</time></trkpt><trkpt lat="45.67268006775908" lon="11.321217233526061"><ele>678.6666666666666</ele><time>2026-04-08T16:26:22Z</time></trkpt><trkpt lat="45.67258404998341" lon="11.321314671250693"><ele>679.5</ele><time>2026-04-08T16:26:24Z</time></trkpt><trkpt lat="45.67253067388935" lon="11.321382630819167"><ele>680.3333333333334</ele><time>2026-04-08T16:26:25Z</time></trkpt><trkpt lat="45.67245923663291" lon="11.321484674448016"><ele>681.1666666666667</ele><time>2026-04-08T16:26:27Z</time></trkpt><trkpt lat="45.67242284054762" lon="11.321601267638213"><ele>682.0</ele><time>2026-04-08T16:26:29Z</time></trkpt><trkpt lat="45.672362999416215" lon="11.321687195600578"><ele>682.0</ele><time>2026-04-08T16:26:30Z</time></trkpt><trkpt lat="45.67231110429897" lon="11.321754789134078"><ele>682.0</ele><time>2026-04-08T16:26:31Z</time></trkpt><trkpt lat="45.672261445214964" lon="11.32183480146266"><ele>682.0</ele><time>2026-04-08T16:26:32Z</time></trkpt><trkpt lat="45.672214399336596" lon="11.321904039198577"><ele>682.0</ele><time>2026-04-08T16:26:33Z</time></trkpt><trkpt lat="45.67214582819392" lon="11.322030931778686"><ele>682.0</ele><time>2026-04-08T16:26:35Z</time></trkpt><trkpt lat="45.672086377868744" lon="11.322123045848873"><ele>682.0</ele><time>2026-04-08T16:26:36Z</time></trkpt><trkpt lat="45.672032093334366" lon="11.32221122002251"><ele>684.8333333333334</ele><time>2026-04-08T16:26:37Z</time></trkpt><trkpt lat="45.67197687247886" lon="11.322286066733504"><ele>687.6666666666667</ele><time>2026-04-08T16:26:38Z</time></trkpt><trkpt lat="45.6719336326907" lon="11.322358873538743"><ele>690.5</ele><time>2026-04-08T16:26:39Z</time></trkpt><trkpt lat="45.67188152708141" lon="11.322427492335345"><ele>693.3333333333334</ele><time>2026-04-08T16:26:40Z</time></trkpt><trkpt lat="45.67182791618939" lon="11.322511990283438"><ele>696.1666666666666</ele><time>2026-04-08T16:26:41Z</time></trkpt><trkpt lat="45.671777846891686" lon="11.322598116918263"><ele>699.0</ele><time>2026-04-08T16:26:42Z</time></trkpt><trkpt lat="45.67171082099706" lon="11.32268757543242"><ele>695.0</ele><time>2026-04-08T16:26:43Z</time></trkpt><trkpt lat="45.671668372486614" lon="11.322760281761774"><ele>691.0</ele><time>2026-04-08T16:26:44Z</time></trkpt><trkpt lat="45.67162823272181" lon="11.32283063461726"><ele>687.0</ele><time>2026-04-08T16:26:45Z</time></trkpt><trkpt lat="45.67159020078496" lon="11.322951106280183"><ele>683.0</ele><time>2026-04-08T16:26:47Z</time></trkpt><trkpt lat="45.67157905678817" lon="11.323083921474549"><ele>679.0</ele><time>2026-04-08T16:26:49Z</time></trkpt><trkpt lat="45.671570619329074" lon="11.323181143423671"><ele>675.0</ele><time>2026-04-08T16:26:50Z</time></trkpt><trkpt lat="45.67156491138347" lon="11.323282578334462"><ele>675.0</ele><time>2026-04-08T16:26:51Z</time></trkpt><trkpt lat="45.67156424723815" lon="11.32343472418245"><ele>675.0</ele><time>2026-04-08T16:26:53Z</time></trkpt><trkpt lat="45.67156251388726" lon="11.323525798751977"><ele>675.0</ele><time>2026-04-08T16:26:54Z</time></trkpt><trkpt lat="45.67156755828734" lon="11.323652807074804"><ele>675.0</ele><time>2026-04-08T16:26:56Z</time></trkpt><trkpt lat="45.67161806223921" lon="11.323784743336155"><ele>675.0</ele><time>2026-04-08T16:26:58Z</time></trkpt><trkpt lat="45.671637736188934" lon="11.323878875601919"><ele>675.0</ele><time>2026-04-08T16:26:59Z</time></trkpt><trkpt lat="45.67163098599643" lon="11.323969243535126"><ele>675.1666666666666</ele><time>2026-04-08T16:27:00Z</time></trkpt><trkpt lat="45.67161863249022" lon="11.324093949776515"><ele>675.3333333333334</ele><time>2026-04-08T16:27:02Z</time></trkpt><trkpt lat="45.67159286263178" lon="11.32424159503937"><ele>675.5</ele><time>2026-04-08T16:27:04Z</time></trkpt><trkpt lat="45.671550889577496" lon="11.324350083137272"><ele>675.6666666666667</ele><time>2026-04-08T16:27:06Z</time></trkpt><trkpt lat="45.67152081474936" lon="11.324440391622748"><ele>675.8333333333334</ele><time>2026-04-08T16:27:08Z</time></trkpt><trkpt lat="45.671458220902934" lon="11.324546193273367"><ele>676.0</ele><time>2026-04-08T16:27:10Z</time></trkpt><trkpt lat="45.67140746228372" lon="11.324626579116353"><ele>676.5</ele><time>2026-04-08T16:27:11Z</time></trkpt><trkpt lat="45.67132031923718" lon="11.324741185672284"><ele>677.0</ele><time>2026-04-08T16:27:13Z</time></trkpt><trkpt lat="45.671263757154875" lon="11.324809820332874"><ele>677.5</ele><time>2026-04-08T16:27:14Z</time></trkpt><trkpt lat="45.67122231849805" lon="11.324878709288049"><ele>678.0</ele><time>2026-04-08T16:27:15Z</time></trkpt><trkpt lat="45.67116249939479" lon="11.325020574922469"><ele>678.5</ele><time>2026-04-08T16:27:17Z</time></trkpt><trkpt lat="45.67114006606236" lon="11.325110584066678"><ele>679.0</ele><time>2026-04-08T16:27:18Z</time></trkpt><trkpt lat="45.67111657071207" lon="11.325236872044119"><ele>678.6</ele><time>2026-04-08T16:27:19Z</time></trkpt><trkpt lat="45.67105385804713" lon="11.325373979217852"><ele>678.2</ele><time>2026-04-08T16:27:21Z</time></trkpt><trkpt lat="45.67105519532899" lon="11.325552277945043"><ele>677.8000000000001</ele><time>2026-04-08T16:27:23Z</time></trkpt><trkpt lat="45.67104549206589" lon="11.325646737835045"><ele>677.4000000000001</ele><time>2026-04-08T16:27:24Z</time></trkpt><trkpt lat="45.67107662018186" lon="11.325777942512248"><ele>677.0</ele><time>2026-04-08T16:27:26Z</time></trkpt><trkpt lat="45.671129003332595" lon="11.32586870934595"><ele>677.0</ele><time>2026-04-08T16:27:28Z</time></trkpt><trkpt lat="45.67120166035444" lon="11.325967057811866"><ele>677.0</ele><time>2026-04-08T16:27:30Z</time></trkpt><trkpt lat="45.671273207083786" lon="11.326087319108083"><ele>677.0</ele><time>2026-04-08T16:27:32Z</time></trkpt><trkpt lat="45.67132995601581" lon="11.3262166351839"><ele>677.0</ele><time>2026-04-08T16:27:34Z</time></trkpt><trkpt lat="45.67133504068334" lon="11.32634375511584"><ele>677.0</ele><time>2026-04-08T16:27:36Z</time></trkpt><trkpt lat="45.67129652982708" lon="11.32649173996084"><ele>674.5</ele><time>2026-04-08T16:27:38Z</time></trkpt><trkpt lat="45.67124672082289" lon="11.326560099361004"><ele>672.0</ele><time>2026-04-08T16:27:39Z</time></trkpt><trkpt lat="45.67118363788781" lon="11.326622308766664"><ele>669.5</ele><time>2026-04-08T16:27:40Z</time></trkpt><trkpt lat="45.67112609417355" lon="11.32668648472679"><ele>667.0</ele><time>2026-04-08T16:27:41Z</time></trkpt><trkpt lat="45.67103509973672" lon="11.326777215031685"><ele>664.5</ele><time>2026-04-08T16:27:43Z</time></trkpt><trkpt lat="45.67095179408381" lon="11.326759228823967"><ele>662.0</ele><time>2026-04-08T16:27:46Z</time></trkpt><trkpt lat="45.67086200100087" lon="11.326593809736405"><ele>661.1666666666666</ele><time>2026-04-08T16:27:48Z</time></trkpt><trkpt lat="45.67079674255087" lon="11.32648754667584"><ele>660.3333333333333</ele><time>2026-04-08T16:27:49Z</time></trkpt><trkpt lat="45.67072956477058" lon="11.326410789006896"><ele>659.5</ele><time>2026-04-08T16:27:50Z</time></trkpt><trkpt lat="45.67065834147599" lon="11.326348723674585"><ele>658.6666666666666</ele><time>2026-04-08T16:27:51Z</time></trkpt><trkpt lat="45.67059223618148" lon="11.326320827076346"><ele>657.8333333333334</ele><time>2026-04-08T16:27:52Z</time></trkpt><trkpt lat="45.67053319581695" lon="11.326289089072041"><ele>657.0</ele><time>2026-04-08T16:27:53Z</time></trkpt><trkpt lat="45.670455766829974" lon="11.326224853545183"><ele>657.0</ele><time>2026-04-08T16:27:55Z</time></trkpt><trkpt lat="45.67037738080744" lon="11.326239925545925"><ele>657.0</ele><time>2026-04-08T16:27:57Z</time></trkpt><trkpt lat="45.6703146409324" lon="11.32628431388964"><ele>657.0</ele><time>2026-04-08T16:28:07Z</time></trkpt><trkpt lat="45.670342468966" lon="11.326469029207201"><ele>657.0</ele><time>2026-04-08T16:28:15Z</time></trkpt><trkpt lat="45.67034691760285" lon="11.326561761836073"><ele>657.0</ele><time>2026-04-08T16:28:19Z</time></trkpt><trkpt lat="45.67033598103518" lon="11.326654002951097"><ele>657.0</ele><time>2026-04-08T16:28:21Z</time></trkpt><trkpt lat="45.67032276720536" lon="11.326758630457427"><ele>655.4285714285714</ele><time>2026-04-08T16:28:23Z</time></trkpt><trkpt lat="45.67027613986782" lon="11.32682189612393"><ele>653.8571428571429</ele><time>2026-04-08T16:28:25Z</time></trkpt><trkpt lat="45.670223886645225" lon="11.326901514826304"><ele>652.2857142857143</ele><time>2026-04-08T16:28:27Z</time></trkpt><trkpt lat="45.67016470663555" lon="11.326970061987566"><ele>650.7142857142858</ele><time>2026-04-08T16:28:29Z</time></trkpt><trkpt lat="45.67010215359407" lon="11.32701391286434"><ele>649.1428571428571</ele><time>2026-04-08T16:28:31Z</time></trkpt><trkpt lat="45.670028581782574" lon="11.32707706845694"><ele>647.5714285714287</ele><time>2026-04-08T16:28:33Z</time></trkpt><trkpt lat="45.669972306354374" lon="11.327134260211439"><ele>646.0</ele><time>2026-04-08T16:28:36Z</time></trkpt><trkpt lat="45.669890874563876" lon="11.327200846677108"><ele>645.8333333333334</ele><time>2026-04-08T16:28:42Z</time></trkpt><trkpt lat="45.66980386755893" lon="11.327253839976132"><ele>645.6666666666667</ele><time>2026-04-08T16:28:44Z</time></trkpt><trkpt lat="45.66971828947828" lon="11.327279031773038"><ele>645.5</ele><time>2026-04-08T16:28:46Z</time></trkpt><trkpt lat="45.66962072217973" lon="11.327279025854244"><ele>645.3333333333334</ele><time>2026-04-08T16:28:48Z</time></trkpt><trkpt lat="45.66954545741625" lon="11.327228564004203"><ele>645.1666666666666</ele><time>2026-04-08T16:28:51Z</time></trkpt><trkpt lat="45.669490760252216" lon="11.32715041800641"><ele>645.0</ele><time>2026-04-08T16:28:59Z</time></trkpt><trkpt lat="45.66941619849421" lon="11.327090305203884"><ele>644.8333333333334</ele><time>2026-04-08T16:29:01Z</time></trkpt><trkpt lat="45.669350462224905" lon="11.32707075067646"><ele>644.6666666666666</ele><time>2026-04-08T16:29:03Z</time></trkpt><trkpt lat="45.66928906974738" lon="11.327041144112629"><ele>644.5</ele><time>2026-04-08T16:29:57Z</time></trkpt><trkpt lat="45.669219488209954" lon="11.326985848539987"><ele>644.3333333333333</ele><time>2026-04-08T16:30:00Z</time></trkpt><trkpt lat="45.66911001824523" lon="11.326958948438376"><ele>644.1666666666666</ele><time>2026-04-08T16:30:03Z</time></trkpt><trkpt lat="45.669050660060535" lon="11.326927590512726"><ele>644.0</ele><time>2026-04-08T16:30:42Z</time></trkpt><trkpt lat="45.66909912889871" lon="11.326829475223565"><ele>644.0</ele><time>2026-04-08T16:30:45Z</time></trkpt><trkpt lat="45.66901913738608" lon="11.326747665618853"><ele>644.0</ele><time>2026-04-08T16:30:48Z</time></trkpt><trkpt lat="45.66894919774149" lon="11.326705199329751"><ele>644.0</ele><time>2026-04-08T16:30:50Z</time></trkpt><trkpt lat="45.66889662990052" lon="11.326638046659092"><ele>644.0</ele><time>2026-04-08T16:30:52Z</time></trkpt><trkpt lat="45.66883387944098" lon="11.326611100309838"><ele>644.0</ele><time>2026-04-08T16:30:53Z</time></trkpt><trkpt lat="45.668745062407524" lon="11.326578819662773"><ele>644.0</ele><time>2026-04-08T16:30:54Z</time></trkpt><trkpt lat="45.66868819378031" lon="11.326523614423673"><ele>644.0</ele><time>2026-04-08T16:30:55Z</time></trkpt><trkpt lat="45.66862261868496" lon="11.326480956624927"><ele>644.0</ele><time>2026-04-08T16:30:56Z</time></trkpt><trkpt lat="45.668517226108854" lon="11.326408677186864"><ele>644.0</ele><time>2026-04-08T16:30:58Z</time></trkpt><trkpt lat="45.668448738254945" lon="11.326348678810184"><ele>644.0</ele><time>2026-04-08T16:31:00Z</time></trkpt><trkpt lat="45.668357396241774" lon="11.326302159559669"><ele>644.0</ele><time>2026-04-08T16:31:02Z</time></trkpt><trkpt lat="45.668271155633896" lon="11.326310714158861"><ele>644.3333333333333</ele><time>2026-04-08T16:31:05Z</time></trkpt><trkpt lat="45.66819276864422" lon="11.326354869138562"><ele>644.6666666666666</ele><time>2026-04-08T16:31:07Z</time></trkpt><trkpt lat="45.668128258144705" lon="11.326443299255395"><ele>645.0</ele><time>2026-04-08T16:31:10Z</time></trkpt><trkpt lat="45.668068060311064" lon="11.326544799062791"><ele>645.3333333333334</ele><time>2026-04-08T16:31:12Z</time></trkpt><trkpt lat="45.66804844626801" lon="11.326631168570753"><ele>645.6666666666667</ele><time>2026-04-08T16:31:15Z</time></trkpt><trkpt lat="45.66802889040555" lon="11.326726965640281"><ele>646.0</ele><time>2026-04-08T16:31:17Z</time></trkpt><trkpt lat="45.66796131777141" lon="11.326760813591703"><ele>646.0</ele><time>2026-04-08T16:31:20Z</time></trkpt><trkpt lat="45.66790473130623" lon="11.326835852680938"><ele>646.0</ele><time>2026-04-08T16:31:23Z</time></trkpt><trkpt lat="45.66783290129769" lon="11.326838324545557"><ele>646.0</ele><time>2026-04-08T16:31:25Z</time></trkpt><trkpt lat="45.66774389739238" lon="11.326785196578836"><ele>646.0</ele><time>2026-04-08T16:31:29Z</time></trkpt><trkpt lat="45.667649696450475" lon="11.326823381142413"><ele>646.0</ele><time>2026-04-08T16:31:36Z</time></trkpt><trkpt lat="45.66758165456877" lon="11.326796864611394"><ele>646.0</ele><time>2026-04-08T16:31:38Z</time></trkpt><trkpt lat="45.667501858755706" lon="11.326762862933593"><ele>648.5999999999999</ele><time>2026-04-08T16:31:40Z</time></trkpt><trkpt lat="45.667413974922475" lon="11.326772730040823"><ele>651.2</ele><time>2026-04-08T16:31:42Z</time></trkpt><trkpt lat="45.66734667524337" lon="11.326797556638322"><ele>653.8</ele><time>2026-04-08T16:31:44Z</time></trkpt><trkpt lat="45.66724199658173" lon="11.326765097329965"><ele>656.4000000000001</ele><time>2026-04-08T16:31:46Z</time></trkpt><trkpt lat="45.66712933219225" lon="11.32668962453755"><ele>659.0</ele><time>2026-04-08T16:31:48Z</time></trkpt><trkpt lat="45.66706383998658" lon="11.326651583690136"><ele>659.0</ele><time>2026-04-08T16:31:49Z</time></trkpt><trkpt lat="45.66699782099522" lon="11.326599021019955"><ele>659.0</ele><time>2026-04-08T16:31:50Z</time></trkpt><trkpt lat="45.666907819878844" lon="11.326597619123637"><ele>659.0</ele><time>2026-04-08T16:31:52Z</time></trkpt><trkpt lat="45.66682322039563" lon="11.326620046697013"><ele>659.0</ele><time>2026-04-08T16:31:54Z</time></trkpt><trkpt lat="45.66675283705165" lon="11.326654928561613"><ele>659.0</ele><time>2026-04-08T16:31:55Z</time></trkpt><trkpt lat="45.66666967558374" lon="11.326737274238292"><ele>659.0</ele><time>2026-04-08T16:31:57Z</time></trkpt><trkpt lat="45.66660197981629" lon="11.326806712488544"><ele>659.8000000000001</ele><time>2026-04-08T16:32:00Z</time></trkpt><trkpt lat="45.666513597078236" lon="11.326857148628216"><ele>660.6</ele><time>2026-04-08T16:32:01Z</time></trkpt><trkpt lat="45.66644799153144" lon="11.326919468426317"><ele>661.4</ele><time>2026-04-08T16:32:02Z</time></trkpt><trkpt lat="45.6663381294169" lon="11.327069757066653"><ele>662.2</ele><time>2026-04-08T16:32:04Z</time></trkpt><trkpt lat="45.666286510884746" lon="11.327147979380445"><ele>663.0</ele><time>2026-04-08T16:32:05Z</time></trkpt><trkpt lat="45.66624882885771" lon="11.327225759449057"><ele>663.2</ele><time>2026-04-08T16:32:06Z</time></trkpt><trkpt lat="45.6662291347457" lon="11.327312653813697"><ele>663.4</ele><time>2026-04-08T16:32:07Z</time></trkpt><trkpt lat="45.66619055637776" lon="11.327469504362567"><ele>663.6</ele><time>2026-04-08T16:32:09Z</time></trkpt><trkpt lat="45.66616451880978" lon="11.32760694819618"><ele>663.8000000000001</ele><time>2026-04-08T16:32:11Z</time></trkpt><trkpt lat="45.66612312381605" lon="11.32768268379613"><ele>664.0</ele><time>2026-04-08T16:32:12Z</time></trkpt><trkpt lat="45.666006682771446" lon="11.327780857557872"><ele>664.0</ele><time>2026-04-08T16:32:14Z</time></trkpt><trkpt lat="45.66588309625646" lon="11.327800878041252"><ele>664.0</ele><time>2026-04-08T16:32:16Z</time></trkpt><trkpt lat="45.665805549976376" lon="11.327822893991595"><ele>664.0</ele><time>2026-04-08T16:32:18Z</time></trkpt><trkpt lat="45.665719482846335" lon="11.327875952918852"><ele>664.0</ele><time>2026-04-08T16:32:49Z</time></trkpt><trkpt lat="45.665617622735496" lon="11.327923087414963"><ele>664.0</ele><time>2026-04-08T16:32:51Z</time></trkpt><trkpt lat="45.66553847234566" lon="11.327919128325906"><ele>664.0</ele><time>2026-04-08T16:32:53Z</time></trkpt><trkpt lat="45.665452451987555" lon="11.32781625607213"><ele>664.0</ele><time>2026-04-08T16:32:55Z</time></trkpt><trkpt lat="45.665351692666015" lon="11.327785696670349"><ele>664.0</ele><time>2026-04-08T16:32:57Z</time></trkpt><trkpt lat="45.66525967830681" lon="11.327741573911748"><ele>664.0</ele><time>2026-04-08T16:32:59Z</time></trkpt><trkpt lat="45.66520386356545" lon="11.32763972084914"><ele>664.0</ele><time>2026-04-08T16:33:01Z</time></trkpt><trkpt lat="45.66513180800064" lon="11.327590892730258"><ele>665.6</ele><time>2026-04-08T16:33:03Z</time></trkpt><trkpt lat="45.66505948175225" lon="11.327620372353106"><ele>667.2</ele><time>2026-04-08T16:33:05Z</time></trkpt><trkpt lat="45.66496573284445" lon="11.327663736126256"><ele>668.8000000000001</ele><time>2026-04-08T16:33:09Z</time></trkpt><trkpt lat="45.66485835330543" lon="11.327663546473206"><ele>670.4000000000001</ele><time>2026-04-08T16:33:12Z</time></trkpt><trkpt lat="45.66480242922621" lon="11.32758977598486"><ele>672.0</ele><time>2026-04-08T16:33:14Z</time></trkpt><trkpt lat="45.6647630584891" lon="11.327459458803107"><ele>672.0</ele><time>2026-04-08T16:33:17Z</time></trkpt><trkpt lat="45.66468764307761" lon="11.327376626589349"><ele>672.0</ele><time>2026-04-08T16:33:20Z</time></trkpt><trkpt lat="45.66462588554939" lon="11.327341741934632"><ele>672.0</ele><time>2026-04-08T16:33:22Z</time></trkpt><trkpt lat="45.66454310079851" lon="11.32731397749905"><ele>672.0</ele><time>2026-04-08T16:33:24Z</time></trkpt><trkpt lat="45.66446346701053" lon="11.327330804150032"><ele>672.0</ele><time>2026-04-08T16:33:26Z</time></trkpt><trkpt lat="45.6643962370893" lon="11.327365015889555"><ele>672.0</ele><time>2026-04-08T16:33:28Z</time></trkpt><trkpt lat="45.66433153702711" lon="11.327371317162893"><ele>674.5</ele><time>2026-04-08T16:33:29Z</time></trkpt><trkpt lat="45.6642405215279" lon="11.327386740290384"><ele>677.0</ele><time>2026-04-08T16:33:30Z</time></trkpt><trkpt lat="45.66417231349621" lon="11.327429651706817"><ele>679.5</ele><time>2026-04-08T16:33:31Z</time></trkpt><trkpt lat="45.66409403635571" lon="11.32751270315879"><ele>682.0</ele><time>2026-04-08T16:33:33Z</time></trkpt><trkpt lat="45.66404403121111" lon="11.327567820144973"><ele>684.5</ele><time>2026-04-08T16:33:34Z</time></trkpt><trkpt lat="45.66396645780568" lon="11.327672114789372"><ele>687.0</ele><time>2026-04-08T16:33:36Z</time></trkpt><trkpt lat="45.66391292556577" lon="11.327819717960109"><ele>687.0</ele><time>2026-04-08T16:33:38Z</time></trkpt><trkpt lat="45.66384860743631" lon="11.327945173089361"><ele>687.0</ele><time>2026-04-08T16:33:40Z</time></trkpt><trkpt lat="45.663779060166725" lon="11.32801719464316"><ele>687.0</ele><time>2026-04-08T16:33:42Z</time></trkpt><trkpt lat="45.663684389371205" lon="11.328138196533938"><ele>687.0</ele><time>2026-04-08T16:33:44Z</time></trkpt><trkpt lat="45.66362470364693" lon="11.328211504426555"><ele>687.0</ele><time>2026-04-08T16:33:45Z</time></trkpt><trkpt lat="45.663574127479464" lon="11.328287552722434"><ele>687.3333333333334</ele><time>2026-04-08T16:33:46Z</time></trkpt><trkpt lat="45.663517524678944" lon="11.328367651294679"><ele>687.6666666666666</ele><time>2026-04-08T16:33:47Z</time></trkpt><trkpt lat="45.6634475432196" lon="11.32844744460551"><ele>688.0</ele><time>2026-04-08T16:33:48Z</time></trkpt><trkpt lat="45.66339934071101" lon="11.32851185304777"><ele>688.3333333333333</ele><time>2026-04-08T16:33:49Z</time></trkpt><trkpt lat="45.663308213534506" lon="11.328621134635677"><ele>688.6666666666666</ele><time>2026-04-08T16:33:51Z</time></trkpt><trkpt lat="45.663251824236006" lon="11.328676622096014"><ele>689.0</ele><time>2026-04-08T16:33:52Z</time></trkpt><trkpt lat="45.66317037345204" lon="11.328726785351774"><ele>689.0</ele><time>2026-04-08T16:33:53Z</time></trkpt><trkpt lat="45.66307848626935" lon="11.32874575141634"><ele>689.0</ele><time>2026-04-08T16:33:54Z</time></trkpt><trkpt lat="45.6630004154468" lon="11.328742661010521"><ele>689.0</ele><time>2026-04-08T16:33:55Z</time></trkpt><trkpt lat="45.66290669574619" lon="11.328761395663678"><ele>689.0</ele><time>2026-04-08T16:33:56Z</time></trkpt><trkpt lat="45.66281695102928" lon="11.328753001619761"><ele>689.0</ele><time>2026-04-08T16:33:57Z</time></trkpt><trkpt lat="45.66272112185265" lon="11.328726567729612"><ele>688.8333333333333</ele><time>2026-04-08T16:33:58Z</time></trkpt><trkpt lat="45.662618502936375" lon="11.328667277624083"><ele>688.6666666666666</ele><time>2026-04-08T16:34:00Z</time></trkpt><trkpt lat="45.662548304669876" lon="11.328667855756338"><ele>688.5</ele><time>2026-04-08T16:34:01Z</time></trkpt><trkpt lat="45.662470599204795" lon="11.328678968508038"><ele>688.3333333333334</ele><time>2026-04-08T16:34:02Z</time></trkpt><trkpt lat="45.662401997637765" lon="11.328700654698933"><ele>688.1666666666667</ele><time>2026-04-08T16:34:03Z</time></trkpt><trkpt lat="45.66232499320036" lon="11.32873824731928"><ele>688.0</ele><time>2026-04-08T16:34:04Z</time></trkpt><trkpt lat="45.662239639888156" lon="11.32881126376301"><ele>688.0</ele><time>2026-04-08T16:34:05Z</time></trkpt><trkpt lat="45.6621661811207" lon="11.328884467027448"><ele>688.0</ele><time>2026-04-08T16:34:06Z</time></trkpt><trkpt lat="45.6620712592132" lon="11.328981404339"><ele>688.0</ele><time>2026-04-08T16:34:07Z</time></trkpt><trkpt lat="45.66199851633964" lon="11.329039959165918"><ele>688.0</ele><time>2026-04-08T16:34:08Z</time></trkpt><trkpt lat="45.661902803535654" lon="11.329104346309926"><ele>688.0</ele><time>2026-04-08T16:34:10Z</time></trkpt><trkpt lat="45.661790683490544" lon="11.329164025089202"><ele>690.1666666666667</ele><time>2026-04-08T16:34:12Z</time></trkpt><trkpt lat="45.66174049687929" lon="11.329219687477742"><ele>692.3333333333334</ele><time>2026-04-08T16:34:13Z</time></trkpt><trkpt lat="45.66166903197205" lon="11.32933294152254"><ele>694.5</ele><time>2026-04-08T16:34:15Z</time></trkpt><trkpt lat="45.661627893519736" lon="11.329418246682017"><ele>696.6666666666666</ele><time>2026-04-08T16:34:16Z</time></trkpt><trkpt lat="45.661553442784324" lon="11.329495058183262"><ele>698.8333333333333</ele><time>2026-04-08T16:34:18Z</time></trkpt><trkpt lat="45.661450804092816" lon="11.329483045432807"><ele>701.0</ele><time>2026-04-08T16:34:20Z</time></trkpt><trkpt lat="45.661328950869155" lon="11.329448756300007"><ele>701.0</ele><time>2026-04-08T16:34:22Z</time></trkpt><trkpt lat="45.661254447718164" lon="11.3294579358"><ele>701.0</ele><time>2026-04-08T16:34:23Z</time></trkpt><trkpt lat="45.66118744135521" lon="11.32947792522417"><ele>701.0</ele><time>2026-04-08T16:34:24Z</time></trkpt><trkpt lat="45.66111545393477" lon="11.32949952403125"><ele>701.0</ele><time>2026-04-08T16:34:25Z</time></trkpt><trkpt lat="45.661015090241754" lon="11.32952070653733"><ele>701.0</ele><time>2026-04-08T16:34:26Z</time></trkpt><trkpt lat="45.660958323942744" lon="11.329572673651821"><ele>701.0</ele><time>2026-04-08T16:34:27Z</time></trkpt><trkpt lat="45.66083776553829" lon="11.329623266872773"><ele>700.5</ele><time>2026-04-08T16:34:29Z</time></trkpt><trkpt lat="45.660775034191055" lon="11.32966476009336"><ele>700.0</ele><time>2026-04-08T16:34:30Z</time></trkpt><trkpt lat="45.66071262993912" lon="11.329709717753548"><ele>699.5</ele><time>2026-04-08T16:34:31Z</time></trkpt><trkpt lat="45.660647988449796" lon="11.32975749475321"><ele>699.0</ele><time>2026-04-08T16:34:32Z</time></trkpt><trkpt lat="45.66058368873981" lon="11.329828622250043"><ele>698.5</ele><time>2026-04-08T16:34:33Z</time></trkpt><trkpt lat="45.66045533945627" lon="11.329905334683328"><ele>698.0</ele><time>2026-04-08T16:34:35Z</time></trkpt><trkpt lat="45.660382572276376" lon="11.32996195008212"><ele>698.0</ele><time>2026-04-08T16:34:36Z</time></trkpt><trkpt lat="45.6603168012425" lon="11.330006593326123"><ele>698.0</ele><time>2026-04-08T16:34:37Z</time></trkpt><trkpt lat="45.66025125226699" lon="11.330039046136688"><ele>698.0</ele><time>2026-04-08T16:34:38Z</time></trkpt><trkpt lat="45.660142062886486" lon="11.330045964339542"><ele>698.0</ele><time>2026-04-08T16:34:40Z</time></trkpt><trkpt lat="45.66007077550067" lon="11.330066902968083"><ele>698.0</ele><time>2026-04-08T16:34:44Z</time></trkpt><trkpt lat="45.659998284981214" lon="11.330041689030455"><ele>698.0</ele><time>2026-04-08T16:34:46Z</time></trkpt><trkpt lat="45.65992569982339" lon="11.330039287251124"><ele>698.5999999999999</ele><time>2026-04-08T16:34:47Z</time></trkpt><trkpt lat="45.659823496211686" lon="11.330035905435938"><ele>699.1999999999999</ele><time>2026-04-08T16:34:49Z</time></trkpt><trkpt lat="45.6597424807273" lon="11.330127801250644"><ele>699.8</ele><time>2026-04-08T16:34:50Z</time></trkpt><trkpt lat="45.659649547863395" lon="11.330110476495964"><ele>700.4</ele><time>2026-04-08T16:34:51Z</time></trkpt><trkpt lat="45.65958232427438" lon="11.33006462382437"><ele>701.0</ele><time>2026-04-08T16:34:52Z</time></trkpt><trkpt lat="45.65948057729286" lon="11.329977577525831"><ele>701.8333333333333</ele><time>2026-04-08T16:34:54Z</time></trkpt><trkpt lat="45.65941802082269" lon="11.329962900179058"><ele>702.6666666666666</ele><time>2026-04-08T16:34:55Z</time></trkpt><trkpt lat="45.65933504253163" lon="11.32995212477623"><ele>703.5</ele><time>2026-04-08T16:34:56Z</time></trkpt><trkpt lat="45.6592450425059" lon="11.329968125356356"><ele>704.3333333333334</ele><time>2026-04-08T16:34:57Z</time></trkpt><trkpt lat="45.65915916019335" lon="11.32997226959192"><ele>705.1666666666667</ele><time>2026-04-08T16:34:58Z</time></trkpt><trkpt lat="45.65909257441252" lon="11.329979848775116"><ele>706.0</ele><time>2026-04-08T16:34:59Z</time></trkpt><trkpt lat="45.658997742627136" lon="11.330079745785202"><ele>706.0</ele><time>2026-04-08T16:35:01Z</time></trkpt><trkpt lat="45.65893846540051" lon="11.330174657644136"><ele>706.0</ele><time>2026-04-08T16:35:02Z</time></trkpt><trkpt lat="45.658873723537276" lon="11.330244810306327"><ele>706.0</ele><time>2026-04-08T16:35:03Z</time></trkpt><trkpt lat="45.658777319688284" lon="11.330282712185682"><ele>706.0</ele><time>2026-04-08T16:35:05Z</time></trkpt><trkpt lat="45.65868489379742" lon="11.330290146092857"><ele>706.0</ele><time>2026-04-08T16:35:07Z</time></trkpt><trkpt lat="45.65859102107807" lon="11.330252786370588"><ele>706.4</ele><time>2026-04-08T16:35:09Z</time></trkpt><trkpt lat="45.65851122329072" lon="11.330239899923557"><ele>706.8</ele><time>2026-04-08T16:35:11Z</time></trkpt><trkpt lat="45.658406947446856" lon="11.330252514432374"><ele>707.1999999999999</ele><time>2026-04-08T16:35:13Z</time></trkpt><trkpt lat="45.658336941684816" lon="11.330266178672138"><ele>707.5999999999999</ele><time>2026-04-08T16:35:14Z</time></trkpt><trkpt lat="45.65824965901143" lon="11.330313524185074"><ele>708.0</ele><time>2026-04-08T16:35:16Z</time></trkpt><trkpt lat="45.65814696191905" lon="11.330389334739193"><ele>708.0</ele><time>2026-04-08T16:35:18Z</time></trkpt><trkpt lat="45.658066047716375" lon="11.330454523783965"><ele>708.0</ele><time>2026-04-08T16:35:20Z</time></trkpt><trkpt lat="45.65798927418947" lon="11.330454237866011"><ele>708.0</ele><time>2026-04-08T16:35:22Z</time></trkpt><trkpt lat="45.65788657822515" lon="11.330428681624396"><ele>708.0</ele><time>2026-04-08T16:35:24Z</time></trkpt><trkpt lat="45.65779105476997" lon="11.330447170743986"><ele>708.0</ele><time>2026-04-08T16:35:26Z</time></trkpt><trkpt lat="45.657677792937754" lon="11.33046259156597"><ele>707.5</ele><time>2026-04-08T16:35:28Z</time></trkpt><trkpt lat="45.65759607027456" lon="11.330463582576538"><ele>707.0</ele><time>2026-04-08T16:35:29Z</time></trkpt><trkpt lat="45.657518230244214" lon="11.330441094965005"><ele>706.5</ele><time>2026-04-08T16:35:30Z</time></trkpt><trkpt lat="45.6574454129778" lon="11.330410950869465"><ele>706.0</ele><time>2026-04-08T16:35:31Z</time></trkpt><trkpt lat="45.657326017040134" lon="11.330356180246593"><ele>705.5</ele><time>2026-04-08T16:35:33Z</time></trkpt><trkpt lat="45.65724775637558" lon="11.330324869994636"><ele>705.0</ele><time>2026-04-08T16:35:34Z</time></trkpt><trkpt lat="45.657184755005446" lon="11.330288821536952"><ele>705.0</ele><time>2026-04-08T16:35:35Z</time></trkpt><trkpt lat="45.657112193328125" lon="11.33027343639417"><ele>705.0</ele><time>2026-04-08T16:35:36Z</time></trkpt><trkpt lat="45.65700514465821" lon="11.33030131782993"><ele>705.0</ele><time>2026-04-08T16:35:38Z</time></trkpt><trkpt lat="45.65693627588121" lon="11.330343503387677"><ele>705.0</ele><time>2026-04-08T16:35:40Z</time></trkpt><trkpt lat="45.65686314822435" lon="11.330347517349917"><ele>705.0</ele><time>2026-04-08T16:35:42Z</time></trkpt><trkpt lat="45.65678665686588" lon="11.330316969728834"><ele>705.0</ele><time>2026-04-08T16:35:44Z</time></trkpt><trkpt lat="45.6567242098379" lon="11.330286395395866"><ele>705.3333333333334</ele><time>2026-04-08T16:35:47Z</time></trkpt><trkpt lat="45.65665000602016" lon="11.330308655850976"><ele>705.6666666666666</ele><time>2026-04-08T16:35:49Z</time></trkpt><trkpt lat="45.656557371139385" lon="11.330235030451748"><ele>706.0</ele><time>2026-04-08T16:35:53Z</time></trkpt><trkpt lat="45.6564506406588" lon="11.330207735318112"><ele>706.3333333333333</ele><time>2026-04-08T16:35:56Z</time></trkpt><trkpt lat="45.65638525056076" lon="11.330201863670018"><ele>706.6666666666666</ele><time>2026-04-08T16:35:58Z</time></trkpt><trkpt lat="45.65630564861661" lon="11.330195837759977"><ele>707.0</ele><time>2026-04-08T16:36:01Z</time></trkpt><trkpt lat="45.65623448589204" lon="11.33011339434077"><ele>707.0</ele><time>2026-04-08T16:36:03Z</time></trkpt><trkpt lat="45.656153255168704" lon="11.330051081523376"><ele>707.0</ele><time>2026-04-08T16:36:05Z</time></trkpt><trkpt lat="45.65606571614971" lon="11.329986069029177"><ele>707.0</ele><time>2026-04-08T16:36:07Z</time></trkpt><trkpt lat="45.65600199642992" lon="11.32991726845431"><ele>707.0</ele><time>2026-04-08T16:36:09Z</time></trkpt><trkpt lat="45.65591913558126" lon="11.329847912000716"><ele>707.0</ele><time>2026-04-08T16:36:11Z</time></trkpt><trkpt lat="45.655842776287145" lon="11.32977268541757"><ele>702.2</ele><time>2026-04-08T16:36:13Z</time></trkpt><trkpt lat="45.65573511815867" lon="11.32971131077508"><ele>697.4000000000001</ele><time>2026-04-08T16:36:15Z</time></trkpt><trkpt lat="45.6556396281151" lon="11.32968006434545"><ele>692.5999999999999</ele><time>2026-04-08T16:36:17Z</time></trkpt><trkpt lat="45.65557865068399" lon="11.329636439025686"><ele>687.8</ele><time>2026-04-08T16:36:18Z</time></trkpt><trkpt lat="45.65546906608903" lon="11.329550143719661"><ele>683.0</ele><time>2026-04-08T16:36:20Z</time></trkpt><trkpt lat="45.65539257033683" lon="11.329536106841111"><ele>683.0</ele><time>2026-04-08T16:36:22Z</time></trkpt><trkpt lat="45.655305216817254" lon="11.329525504130471"><ele>683.0</ele><time>2026-04-08T16:36:24Z</time></trkpt><trkpt lat="45.655221302739314" lon="11.329490976799343"><ele>683.0</ele><time>2026-04-08T16:36:28Z</time></trkpt><trkpt lat="45.65517127365687" lon="11.32935141621112"><ele>683.0</ele><time>2026-04-08T16:36:31Z</time></trkpt><trkpt lat="45.6551029486527" lon="11.329226559449085"><ele>683.0</ele><time>2026-04-08T16:36:33Z</time></trkpt><trkpt lat="45.6550094228686" lon="11.329133996714535"><ele>681.5999999999999</ele><time>2026-04-08T16:36:35Z</time></trkpt><trkpt lat="45.65491272745047" lon="11.329104417301105"><ele>680.1999999999999</ele><time>2026-04-08T16:36:37Z</time></trkpt><trkpt lat="45.65483147964796" lon="11.329077358997184"><ele>678.8</ele><time>2026-04-08T16:36:38Z</time></trkpt><trkpt lat="45.654771309304145" lon="11.329033748765768"><ele>677.4</ele><time>2026-04-08T16:36:39Z</time></trkpt><trkpt lat="45.65467549453526" lon="11.32894631064639"><ele>676.0</ele><time>2026-04-08T16:36:41Z</time></trkpt><trkpt lat="45.65462778461388" lon="11.328826455144878"><ele>676.0</ele><time>2026-04-08T16:36:44Z</time></trkpt><trkpt lat="45.654556456495975" lon="11.32879440114323"><ele>676.0</ele><time>2026-04-08T16:36:46Z</time></trkpt><trkpt lat="45.654486217029415" lon="11.328795896802232"><ele>676.0</ele><time>2026-04-08T16:36:48Z</time></trkpt><trkpt lat="45.65443979041642" lon="11.328721678040203"><ele>676.0</ele><time>2026-04-08T16:36:53Z</time></trkpt><trkpt lat="45.654387432878515" lon="11.328625732828101"><ele>676.0</ele><time>2026-04-08T16:36:56Z</time></trkpt><trkpt lat="45.654291313257744" lon="11.328655353488546"><ele>676.0</ele><time>2026-04-08T16:36:59Z</time></trkpt><trkpt lat="45.65418907816067" lon="11.32854821417805"><ele>679.8333333333334</ele><time>2026-04-08T16:37:01Z</time></trkpt><trkpt lat="45.65414289263612" lon="11.328450227893905"><ele>683.6666666666667</ele><time>2026-04-08T16:37:03Z</time></trkpt><trkpt lat="45.65403633478167" lon="11.328422525663358"><ele>687.5</ele><time>2026-04-08T16:37:05Z</time></trkpt><trkpt lat="45.653966369480045" lon="11.328390015701656"><ele>691.3333333333334</ele><time>2026-04-08T16:37:09Z</time></trkpt><trkpt lat="45.653896596970945" lon="11.328376449992556"><ele>695.1666666666666</ele><time>2026-04-08T16:37:12Z</time></trkpt><trkpt lat="45.65382679371862" lon="11.328374008359187"><ele>699.0</ele><time>2026-04-08T16:37:13Z</time></trkpt><trkpt lat="45.65376371934156" lon="11.328333245443812"><ele>699.0</ele><time>2026-04-08T16:37:14Z</time></trkpt><trkpt lat="45.65370455225501" lon="11.328266097581087"><ele>699.0</ele><time>2026-04-08T16:37:16Z</time></trkpt><trkpt lat="45.65362736139632" lon="11.328242666766947"><ele>699.0</ele><time>2026-04-08T16:37:18Z</time></trkpt><trkpt lat="45.653530508685535" lon="11.328229523504241"><ele>699.0</ele><time>2026-04-08T16:37:20Z</time></trkpt><trkpt lat="45.65346173172833" lon="11.32821735548142"><ele>699.0</ele><time>2026-04-08T16:37:21Z</time></trkpt><trkpt lat="45.65339270297551" lon="11.32819285880799"><ele>699.0</ele><time>2026-04-08T16:37:22Z</time></trkpt><trkpt lat="45.65329029853417" lon="11.328120956848561"><ele>697.4000000000001</ele><time>2026-04-08T16:37:24Z</time></trkpt><trkpt lat="45.6532058461386" lon="11.328082610761681"><ele>695.8</ele><time>2026-04-08T16:37:25Z</time></trkpt><trkpt lat="45.65310396741189" lon="11.328010382247282"><ele>694.2</ele><time>2026-04-08T16:37:27Z</time></trkpt><trkpt lat="45.6530083844648" lon="11.327908704606369"><ele>692.5999999999999</ele><time>2026-04-08T16:37:29Z</time></trkpt><trkpt lat="45.65292746579579" lon="11.327960808680752"><ele>691.0</ele><time>2026-04-08T16:37:31Z</time></trkpt><trkpt lat="45.65285184909809" lon="11.327970754405213"><ele>691.4</ele><time>2026-04-08T16:37:32Z</time></trkpt><trkpt lat="45.65274352704485" lon="11.328008309361238"><ele>691.8</ele><time>2026-04-08T16:37:34Z</time></trkpt><trkpt lat="45.65267762016721" lon="11.32801123688321"><ele>692.1999999999999</ele><time>2026-04-08T16:37:35Z</time></trkpt><trkpt lat="45.65260634665657" lon="11.327997328143113"><ele>692.5999999999999</ele><time>2026-04-08T16:37:36Z</time></trkpt><trkpt lat="45.65254160180244" lon="11.327961516772426"><ele>693.0</ele><time>2026-04-08T16:37:37Z</time></trkpt><trkpt lat="45.65239617690943" lon="11.32793460939543"><ele>693.0</ele><time>2026-04-08T16:37:39Z</time></trkpt><trkpt lat="45.65233347809993" lon="11.327913195410755"><ele>693.0</ele><time>2026-04-08T16:37:40Z</time></trkpt><trkpt lat="45.652225128310874" lon="11.327885005169955"><ele>693.0</ele><time>2026-04-08T16:37:42Z</time></trkpt><trkpt lat="45.65215750399677" lon="11.327881556383804"><ele>693.0</ele><time>2026-04-08T16:37:43Z</time></trkpt><trkpt lat="45.65208199484185" lon="11.32788141302627"><ele>693.0</ele><time>2026-04-08T16:37:44Z</time></trkpt><trkpt lat="45.65200534331186" lon="11.327891505816302"><ele>693.0</ele><time>2026-04-08T16:37:45Z</time></trkpt><trkpt lat="45.651887684819044" lon="11.327933569746135"><ele>691.4</ele><time>2026-04-08T16:37:47Z</time></trkpt><trkpt lat="45.65181336402155" lon="11.327982216987591"><ele>689.8</ele><time>2026-04-08T16:37:48Z</time></trkpt><trkpt lat="45.65174224470089" lon="11.32800919450594"><ele>688.2</ele><time>2026-04-08T16:37:49Z</time></trkpt><trkpt lat="45.6516272146648" lon="11.328047992817753"><ele>686.6</ele><time>2026-04-08T16:37:51Z</time></trkpt><trkpt lat="45.651546032843" lon="11.328057643626662"><ele>685.0</ele><time>2026-04-08T16:37:52Z</time></trkpt><trkpt lat="45.65144931436728" lon="11.328077566010782"><ele>686.0</ele><time>2026-04-08T16:37:53Z</time></trkpt><trkpt lat="45.65136891783181" lon="11.32808923712468"><ele>687.0</ele><time>2026-04-08T16:37:54Z</time></trkpt><trkpt lat="45.651298137769984" lon="11.328102845982784"><ele>688.0</ele><time>2026-04-08T16:37:55Z</time></trkpt><trkpt lat="45.651199397126554" lon="11.328163974195295"><ele>689.0</ele><time>2026-04-08T16:37:57Z</time></trkpt><trkpt lat="45.65114526543696" lon="11.328218433437057"><ele>690.0</ele><time>2026-04-08T16:37:58Z</time></trkpt><trkpt lat="45.65108161727624" lon="11.328299099128861"><ele>691.0</ele><time>2026-04-08T16:37:59Z</time></trkpt><trkpt lat="45.6510296260405" lon="11.328385738509533"><ele>691.0</ele><time>2026-04-08T16:38:00Z</time></trkpt><trkpt lat="45.65097438811077" lon="11.328474490800314"><ele>691.0</ele><time>2026-04-08T16:38:01Z</time></trkpt><trkpt lat="45.650933047079235" lon="11.328561592176257"><ele>691.0</ele><time>2026-04-08T16:38:02Z</time></trkpt><trkpt lat="45.65090678341" lon="11.328650695398016"><ele>691.0</ele><time>2026-04-08T16:38:03Z</time></trkpt><trkpt lat="45.65088413048313" lon="11.328740015932308"><ele>691.0</ele><time>2026-04-08T16:38:04Z</time></trkpt><trkpt lat="45.650855082753345" lon="11.328887052925422"><ele>691.0</ele><time>2026-04-08T16:38:06Z</time></trkpt><trkpt lat="45.65082663200624" lon="11.32906758325582"><ele>693.0</ele><time>2026-04-08T16:38:08Z</time></trkpt><trkpt lat="45.65079769666478" lon="11.329221171191744"><ele>695.0</ele><time>2026-04-08T16:38:10Z</time></trkpt><trkpt lat="45.65075278528435" lon="11.329335167440785"><ele>697.0</ele><time>2026-04-08T16:38:12Z</time></trkpt><trkpt lat="45.650725067369294" lon="11.329495057527673"><ele>699.0</ele><time>2026-04-08T16:38:16Z</time></trkpt><trkpt lat="45.650705924081215" lon="11.329614806076421"><ele>701.0</ele><time>2026-04-08T16:38:18Z</time></trkpt><trkpt lat="45.65070020041205" lon="11.329773770339402"><ele>703.5999999999999</ele><time>2026-04-08T16:38:21Z</time></trkpt><trkpt lat="45.65068664936207" lon="11.329913151738733"><ele>706.2</ele><time>2026-04-08T16:38:23Z</time></trkpt><trkpt lat="45.65067570069846" lon="11.330027007694854"><ele>708.8</ele><time>2026-04-08T16:38:25Z</time></trkpt><trkpt lat="45.65066341482586" lon="11.330203546432472"><ele>711.4000000000001</ele><time>2026-04-08T16:38:27Z</time></trkpt><trkpt lat="45.65066167683987" lon="11.330325955099052"><ele>714.0</ele><time>2026-04-08T16:38:29Z</time></trkpt><trkpt lat="45.65066533524046" lon="11.330491009754585"><ele>716.6666666666666</ele><time>2026-04-08T16:38:31Z</time></trkpt><trkpt lat="45.65066598872892" lon="11.330644833698704"><ele>719.3333333333333</ele><time>2026-04-08T16:38:33Z</time></trkpt><trkpt lat="45.65058025160398" lon="11.331107956514593"><ele>722.0</ele><time>2026-04-08T16:38:35Z</time></trkpt><trkpt lat="45.65043841522542" lon="11.33124434313644"><ele>722.0</ele><time>2026-04-08T16:38:36Z</time></trkpt><trkpt lat="45.65035003137312" lon="11.331303884982436"><ele>722.0</ele><time>2026-04-08T16:38:39Z</time></trkpt><trkpt lat="45.65006830491535" lon="11.330515408328322"><ele>715.5</ele><time>2026-04-08T16:38:43Z</time></trkpt><trkpt lat="45.65003872992319" lon="11.330429030304494"><ele>709.0</ele><time>2026-04-08T16:38:44Z</time></trkpt><trkpt lat="45.650013610158965" lon="11.330325837786798"><ele>702.5</ele><time>2026-04-08T16:38:45Z</time></trkpt><trkpt lat="45.64998379492871" lon="11.330239320764765"><ele>696.0</ele><time>2026-04-08T16:38:46Z</time></trkpt><trkpt lat="45.64993354056948" lon="11.3301234193573"><ele>689.5</ele><time>2026-04-08T16:38:48Z</time></trkpt><trkpt lat="45.649889352336785" lon="11.33003225807748"><ele>683.0</ele><time>2026-04-08T16:38:50Z</time></trkpt><trkpt lat="45.64982641804427" lon="11.330001335738903"><ele>683.0</ele><time>2026-04-08T16:38:52Z</time></trkpt><trkpt lat="45.649747736677924" lon="11.330056510462464"><ele>683.0</ele><time>2026-04-08T16:38:54Z</time></trkpt><trkpt lat="45.64965471314808" lon="11.330021433293382"><ele>683.0</ele><time>2026-04-08T16:38:57Z</time></trkpt><trkpt lat="45.64956833170353" lon="11.329949952444311"><ele>683.0</ele><time>2026-04-08T16:38:59Z</time></trkpt><trkpt lat="45.649506642105884" lon="11.329900623463336"><ele>683.0</ele><time>2026-04-08T16:39:01Z</time></trkpt><trkpt lat="45.6494173727747" lon="11.32986231507818"><ele>683.0</ele><time>2026-04-08T16:39:03Z</time></trkpt><trkpt lat="45.64931898021934" lon="11.329856486086397"><ele>680.4</ele><time>2026-04-08T16:39:05Z</time></trkpt><trkpt lat="45.64923150636909" lon="11.329869953240676"><ele>677.8</ele><time>2026-04-08T16:39:07Z</time></trkpt><trkpt lat="45.64914588035449" lon="11.329882816909182"><ele>675.2</ele><time>2026-04-08T16:39:09Z</time></trkpt><trkpt lat="45.64909848388183" lon="11.329950460336931"><ele>672.6</ele><time>2026-04-08T16:39:11Z</time></trkpt><trkpt lat="45.64903221334526" lon="11.330084594991774"><ele>670.0</ele><time>2026-04-08T16:39:13Z</time></trkpt><trkpt lat="45.64893196923491" lon="11.330188759194087"><ele>670.0</ele><time>2026-04-08T16:39:15Z</time></trkpt><trkpt lat="45.64880939906086" lon="11.330285224086879"><ele>670.0</ele><time>2026-04-08T16:39:17Z</time></trkpt><trkpt lat="45.648744023045666" lon="11.330332789795929"><ele>670.0</ele><time>2026-04-08T16:39:18Z</time></trkpt><trkpt lat="45.64868183870455" lon="11.330373944079602"><ele>670.0</ele><time>2026-04-08T16:39:19Z</time></trkpt><trkpt lat="45.64857311081475" lon="11.330427887695455"><ele>670.0</ele><time>2026-04-08T16:39:21Z</time></trkpt><trkpt lat="45.648472707765215" lon="11.330471163129122"><ele>667.6666666666667</ele><time>2026-04-08T16:39:23Z</time></trkpt><trkpt lat="45.64840564915387" lon="11.330526606561701"><ele>665.3333333333334</ele><time>2026-04-08T16:39:24Z</time></trkpt><trkpt lat="45.648351939710444" lon="11.330592176561002"><ele>663.0</ele><time>2026-04-08T16:39:25Z</time></trkpt><trkpt lat="45.648319328669025" lon="11.330682235636884"><ele>660.6666666666666</ele><time>2026-04-08T16:39:26Z</time></trkpt><trkpt lat="45.64830075628208" lon="11.3308516439349"><ele>658.3333333333333</ele><time>2026-04-08T16:39:28Z</time></trkpt><trkpt lat="45.6482226107911" lon="11.330950755602286"><ele>656.0</ele><time>2026-04-08T16:39:30Z</time></trkpt><trkpt lat="45.64814343910373" lon="11.330980517308614"><ele>656.0</ele><time>2026-04-08T16:39:31Z</time></trkpt><trkpt lat="45.648074460394724" lon="11.331002936637686"><ele>656.0</ele><time>2026-04-08T16:39:32Z</time></trkpt><trkpt lat="45.64800801314397" lon="11.331026833932901"><ele>656.0</ele><time>2026-04-08T16:39:33Z</time></trkpt><trkpt lat="45.647936653098625" lon="11.331007240851859"><ele>656.0</ele><time>2026-04-08T16:39:35Z</time></trkpt><trkpt lat="45.64793525163896" lon="11.330868327127286"><ele>656.0</ele><time>2026-04-08T16:39:37Z</time></trkpt><trkpt lat="45.64792459426153" lon="11.330695508570273"><ele>656.0</ele><time>2026-04-08T16:39:39Z</time></trkpt><trkpt lat="45.647899845228125" lon="11.330542599969451"><ele>654.8</ele><time>2026-04-08T16:39:41Z</time></trkpt><trkpt lat="45.64785875823945" lon="11.330400531523726"><ele>653.5999999999999</ele><time>2026-04-08T16:39:43Z</time></trkpt><trkpt lat="45.64780354310173" lon="11.330286096107324"><ele>652.4</ele><time>2026-04-08T16:39:45Z</time></trkpt><trkpt lat="45.64776165231391" lon="11.330155337818693"><ele>651.2</ele><time>2026-04-08T16:39:47Z</time></trkpt><trkpt lat="45.64770721033194" lon="11.330026880068274"><ele>650.0</ele><time>2026-04-08T16:39:49Z</time></trkpt><trkpt lat="45.64767077998312" lon="11.32994866780633"><ele>647.6666666666666</ele><time>2026-04-08T16:39:50Z</time></trkpt><trkpt lat="45.64762430846987" lon="11.32987989430735"><ele>645.3333333333333</ele><time>2026-04-08T16:39:51Z</time></trkpt><trkpt lat="45.647564355790834" lon="11.329749451695708"><ele>643.0</ele><time>2026-04-08T16:39:53Z</time></trkpt><trkpt lat="45.64753991575261" lon="11.329660964910731"><ele>640.6666666666666</ele><time>2026-04-08T16:39:55Z</time></trkpt><trkpt lat="45.647446223616" lon="11.32967937098696"><ele>638.3333333333334</ele><time>2026-04-08T16:39:57Z</time></trkpt><trkpt lat="45.647389589419056" lon="11.329722774171902"><ele>636.0</ele><time>2026-04-08T16:39:58Z</time></trkpt><trkpt lat="45.64733906526677" lon="11.329816724315366"><ele>636.0</ele><time>2026-04-08T16:39:59Z</time></trkpt><trkpt lat="45.64727849022952" lon="11.329871796392498"><ele>636.0</ele><time>2026-04-08T16:40:00Z</time></trkpt><trkpt lat="45.647216001424106" lon="11.329893621661014"><ele>636.0</ele><time>2026-04-08T16:40:01Z</time></trkpt><trkpt lat="45.64715127832324" lon="11.329941421638837"><ele>636.0</ele><time>2026-04-08T16:40:02Z</time></trkpt><trkpt lat="45.64709855346598" lon="11.330011026722248"><ele>636.0</ele><time>2026-04-08T16:40:03Z</time></trkpt><trkpt lat="45.64698672892902" lon="11.330098022337296"><ele>636.0</ele><time>2026-04-08T16:40:05Z</time></trkpt><trkpt lat="45.64688584409141" lon="11.330151946992329"><ele>633.6666666666666</ele><time>2026-04-08T16:40:07Z</time></trkpt><trkpt lat="45.64682822630623" lon="11.330196593812046"><ele>631.3333333333334</ele><time>2026-04-08T16:40:08Z</time></trkpt><trkpt lat="45.64676218414824" lon="11.33020257401343"><ele>629.0</ele><time>2026-04-08T16:40:09Z</time></trkpt><trkpt lat="45.64669727874058" lon="11.330161213446669"><ele>626.6666666666667</ele><time>2026-04-08T16:40:10Z</time></trkpt><trkpt lat="45.64659919382568" lon="11.330111777697192"><ele>624.3333333333334</ele><time>2026-04-08T16:40:12Z</time></trkpt><trkpt lat="45.64650638280821" lon="11.330082123111703"><ele>622.0</ele><time>2026-04-08T16:40:14Z</time></trkpt><trkpt lat="45.64662651953181" lon="11.329920489648662"><ele>622.0</ele><time>2026-04-08T16:40:16Z</time></trkpt><trkpt lat="45.64651464148783" lon="11.329751384443508"><ele>622.0</ele><time>2026-04-08T16:40:22Z</time></trkpt><trkpt lat="45.646490559083816" lon="11.329654749113283"><ele>622.0</ele><time>2026-04-08T16:40:23Z</time></trkpt><trkpt lat="45.64644577009067" lon="11.329486964703863"><ele>622.0</ele><time>2026-04-08T16:40:25Z</time></trkpt><trkpt lat="45.646422785506715" lon="11.3293866317379"><ele>622.0</ele><time>2026-04-08T16:40:26Z</time></trkpt><trkpt lat="45.646398026541554" lon="11.329278551769256"><ele>620.0</ele><time>2026-04-08T16:40:27Z</time></trkpt><trkpt lat="45.646371410772346" lon="11.329162368574034"><ele>618.0</ele><time>2026-04-08T16:40:28Z</time></trkpt><trkpt lat="45.646308419028536" lon="11.328997929374173"><ele>616.0</ele><time>2026-04-08T16:40:30Z</time></trkpt><trkpt lat="45.64628106370543" lon="11.328912017064676"><ele>614.0</ele><time>2026-04-08T16:40:31Z</time></trkpt><trkpt lat="45.64619236066007" lon="11.328803169256828"><ele>612.0</ele><time>2026-04-08T16:40:33Z</time></trkpt><trkpt lat="45.6461158252728" lon="11.328751720057754"><ele>609.4285714285714</ele><time>2026-04-08T16:40:34Z</time></trkpt><trkpt lat="45.646047405293324" lon="11.328725227364957"><ele>606.8571428571429</ele><time>2026-04-08T16:40:35Z</time></trkpt><trkpt lat="45.64597057190165" lon="11.328712625653544"><ele>604.2857142857143</ele><time>2026-04-08T16:40:36Z</time></trkpt><trkpt lat="45.645900292905914" lon="11.328705101680768"><ele>601.7142857142858</ele><time>2026-04-08T16:40:37Z</time></trkpt><trkpt lat="45.64582830633686" lon="11.328700964309334"><ele>599.1428571428572</ele><time>2026-04-08T16:40:38Z</time></trkpt><trkpt lat="45.645758450402894" lon="11.328675238096466"><ele>596.5714285714286</ele><time>2026-04-08T16:40:39Z</time></trkpt><trkpt lat="45.64569842520419" lon="11.328639272658597"><ele>594.0</ele><time>2026-04-08T16:40:40Z</time></trkpt><trkpt lat="45.645613712338424" lon="11.328548930988598"><ele>594.0</ele><time>2026-04-08T16:40:42Z</time></trkpt><trkpt lat="45.64552047426774" lon="11.328450739366152"><ele>594.0</ele><time>2026-04-08T16:40:44Z</time></trkpt><trkpt lat="45.64545682941799" lon="11.328430222247214"><ele>594.0</ele><time>2026-04-08T16:40:45Z</time></trkpt><trkpt lat="45.645319103573534" lon="11.328412010903614"><ele>594.0</ele><time>2026-04-08T16:40:47Z</time></trkpt><trkpt lat="45.645192880434294" lon="11.328427101500223"><ele>594.0</ele><time>2026-04-08T16:40:49Z</time></trkpt><trkpt lat="45.645076146082964" lon="11.328429769683108"><ele>592.8571428571429</ele><time>2026-04-08T16:40:51Z</time></trkpt><trkpt lat="45.64501749411948" lon="11.328396213672663"><ele>591.7142857142858</ele><time>2026-04-08T16:40:52Z</time></trkpt><trkpt lat="45.64494217795435" lon="11.328484667266281"><ele>590.5714285714286</ele><time>2026-04-08T16:40:53Z</time></trkpt><trkpt lat="45.64487689641802" lon="11.328517093453346"><ele>589.4285714285714</ele><time>2026-04-08T16:40:54Z</time></trkpt><trkpt lat="45.64480687112852" lon="11.32854465993965"><ele>588.2857142857142</ele><time>2026-04-08T16:40:55Z</time></trkpt><trkpt lat="45.6447392321372" lon="11.328537927308245"><ele>587.1428571428571</ele><time>2026-04-08T16:40:56Z</time></trkpt><trkpt lat="45.644670796588514" lon="11.328494914909824"><ele>586.0</ele><time>2026-04-08T16:40:57Z</time></trkpt><trkpt lat="45.644590249851724" lon="11.328468605999792"><ele>586.0</ele><time>2026-04-08T16:40:58Z</time></trkpt><trkpt lat="45.6445103000448" lon="11.328435186479279"><ele>586.0</ele><time>2026-04-08T16:40:59Z</time></trkpt><trkpt lat="45.64444516828384" lon="11.328406859295908"><ele>586.0</ele><time>2026-04-08T16:41:00Z</time></trkpt><trkpt lat="45.64437193126202" lon="11.328399924417552"><ele>586.0</ele><time>2026-04-08T16:41:01Z</time></trkpt><trkpt lat="45.64429995132293" lon="11.328351704762348"><ele>586.0</ele><time>2026-04-08T16:41:02Z</time></trkpt><trkpt lat="45.644228240317254" lon="11.328331568355889"><ele>586.0</ele><time>2026-04-08T16:41:03Z</time></trkpt><trkpt lat="45.64414017841922" lon="11.328314015096959"><ele>585.0</ele><time>2026-04-08T16:41:04Z</time></trkpt><trkpt lat="45.644020572540825" lon="11.328329396968588"><ele>584.0</ele><time>2026-04-08T16:41:05Z</time></trkpt><trkpt lat="45.64391255035104" lon="11.328331028794077"><ele>583.0</ele><time>2026-04-08T16:41:06Z</time></trkpt><trkpt lat="45.643789239963645" lon="11.328333760669155"><ele>582.0</ele><time>2026-04-08T16:41:07Z</time></trkpt><trkpt lat="45.64367839882943" lon="11.32833323371349"><ele>581.4</ele><time>2026-04-08T16:41:08Z</time></trkpt><trkpt lat="45.64356333882564" lon="11.328317215495204"><ele>580.8000000000001</ele><time>2026-04-08T16:41:09Z</time></trkpt><trkpt lat="45.64345880063375" lon="11.328317964457419"><ele>580.2</ele><time>2026-04-08T16:41:10Z</time></trkpt><trkpt lat="45.643358416606105" lon="11.328343698883161"><ele>579.6</ele><time>2026-04-08T16:41:11Z</time></trkpt><trkpt lat="45.64324281615619" lon="11.32835064343622"><ele>579.0</ele><time>2026-04-08T16:41:12Z</time></trkpt><trkpt lat="45.64312586782435" lon="11.32837426176009"><ele>579.0</ele><time>2026-04-08T16:41:13Z</time></trkpt><trkpt lat="45.64300688621151" lon="11.328413209948254"><ele>579.0</ele><time>2026-04-08T16:41:14Z</time></trkpt><trkpt lat="45.642874695991104" lon="11.328457958336518"><ele>579.0</ele><time>2026-04-08T16:41:15Z</time></trkpt><trkpt lat="45.64275323095992" lon="11.328506623526563"><ele>579.0</ele><time>2026-04-08T16:41:16Z</time></trkpt><trkpt lat="45.64265287973227" lon="11.328544804270141"><ele>578.0</ele><time>2026-04-08T16:41:17Z</time></trkpt><trkpt lat="45.642540587816036" lon="11.328571427848248"><ele>577.0</ele><time>2026-04-08T16:41:18Z</time></trkpt><trkpt lat="45.64243855246906" lon="11.328630976320252"><ele>576.0</ele><time>2026-04-08T16:41:19Z</time></trkpt><trkpt lat="45.64233990131218" lon="11.328658368036502"><ele>575.0</ele><time>2026-04-08T16:41:20Z</time></trkpt><trkpt lat="45.64224827746213" lon="11.328673892980447"><ele>574.0</ele><time>2026-04-08T16:41:21Z</time></trkpt><trkpt lat="45.64217503332415" lon="11.328648388892773"><ele>574.0</ele><time>2026-04-08T16:41:22Z</time></trkpt><trkpt lat="45.64210953763598" lon="11.3286458169408"><ele>574.0</ele><time>2026-04-08T16:41:23Z</time></trkpt><trkpt lat="45.642022931489414" lon="11.3285981860387"><ele>574.0</ele><time>2026-04-08T16:41:24Z</time></trkpt><trkpt lat="45.64192671845256" lon="11.32854153718407"><ele>574.0</ele><time>2026-04-08T16:41:25Z</time></trkpt><trkpt lat="45.6418160105996" lon="11.328489659483763"><ele>574.0</ele><time>2026-04-08T16:41:26Z</time></trkpt><trkpt lat="45.64171433589333" lon="11.328446662283238"><ele>576.2</ele><time>2026-04-08T16:41:27Z</time></trkpt><trkpt lat="45.64161712947951" lon="11.328423438367347"><ele>578.4</ele><time>2026-04-08T16:41:28Z</time></trkpt><trkpt lat="45.64151146383817" lon="11.328412644675714"><ele>580.6</ele><time>2026-04-08T16:41:29Z</time></trkpt><trkpt lat="45.64142816443868" lon="11.328394869700505"><ele>582.8</ele><time>2026-04-08T16:41:30Z</time></trkpt><trkpt lat="45.64134658259984" lon="11.328376622100798"><ele>585.0</ele><time>2026-04-08T16:41:31Z</time></trkpt><trkpt lat="45.64125276786775" lon="11.328358634740164"><ele>585.0</ele><time>2026-04-08T16:41:32Z</time></trkpt><trkpt lat="45.64115276417758" lon="11.328340549007585"><ele>585.0</ele><time>2026-04-08T16:41:33Z</time></trkpt><trkpt lat="45.641061027372906" lon="11.328339160173456"><ele>585.0</ele><time>2026-04-08T16:41:34Z</time></trkpt><trkpt lat="45.640974802154304" lon="11.328359175506607"><ele>585.0</ele><time>2026-04-08T16:41:35Z</time></trkpt><trkpt lat="45.640896511256145" lon="11.32839959910574"><ele>585.0</ele><time>2026-04-08T16:41:36Z</time></trkpt><trkpt lat="45.640846431468354" lon="11.328463383071876"><ele>585.0</ele><time>2026-04-08T16:41:37Z</time></trkpt><trkpt lat="45.640796378963394" lon="11.328569882014541"><ele>585.6</ele><time>2026-04-08T16:41:38Z</time></trkpt><trkpt lat="45.64074209760332" lon="11.328679382680601"><ele>586.2</ele><time>2026-04-08T16:41:39Z</time></trkpt><trkpt lat="45.64070270658882" lon="11.328796881403086"><ele>586.8</ele><time>2026-04-08T16:41:40Z</time></trkpt><trkpt lat="45.640657140937286" lon="11.32891618766538"><ele>587.4</ele><time>2026-04-08T16:41:41Z</time></trkpt><trkpt lat="45.640599490506574" lon="11.329022089476611"><ele>588.0</ele><time>2026-04-08T16:41:42Z</time></trkpt><trkpt lat="45.64052392737927" lon="11.3291311646211"><ele>588.0</ele><time>2026-04-08T16:41:43Z</time></trkpt><trkpt lat="45.64044244901023" lon="11.329230021939836"><ele>588.0</ele><time>2026-04-08T16:41:44Z</time></trkpt><trkpt lat="45.64036989188328" lon="11.329339712000852"><ele>588.0</ele><time>2026-04-08T16:41:45Z</time></trkpt><trkpt lat="45.64030593287839" lon="11.329460065703062"><ele>588.0</ele><time>2026-04-08T16:41:46Z</time></trkpt><trkpt lat="45.640251737417266" lon="11.329550085316539"><ele>588.0</ele><time>2026-04-08T16:41:47Z</time></trkpt><trkpt lat="45.640181889588355" lon="11.329625113407106"><ele>588.0</ele><time>2026-04-08T16:41:48Z</time></trkpt><trkpt lat="45.640095790951506" lon="11.329636402362123"><ele>588.0</ele><time>2026-04-08T16:41:49Z</time></trkpt><trkpt lat="45.640021230844624" lon="11.329692685831317"><ele>588.0</ele><time>2026-04-08T16:41:50Z</time></trkpt><trkpt lat="45.639958643201524" lon="11.329770176671593"><ele>588.0</ele><time>2026-04-08T16:41:51Z</time></trkpt><trkpt lat="45.639892051916206" lon="11.329868727380434"><ele>588.0</ele><time>2026-04-08T16:41:52Z</time></trkpt><trkpt lat="45.63982029936926" lon="11.329971035922014"><ele>589.6</ele><time>2026-04-08T16:41:53Z</time></trkpt><trkpt lat="45.63974276336994" lon="11.330070380699317"><ele>591.1999999999999</ele><time>2026-04-08T16:41:54Z</time></trkpt><trkpt lat="45.63966697313413" lon="11.330175026509114"><ele>592.8</ele><time>2026-04-08T16:41:55Z</time></trkpt><trkpt lat="45.639590926686694" lon="11.330266484581736"><ele>594.4</ele><time>2026-04-08T16:41:56Z</time></trkpt><trkpt lat="45.63950300635146" lon="11.330330366330674"><ele>596.0</ele><time>2026-04-08T16:41:57Z</time></trkpt><trkpt lat="45.639423485892415" lon="11.330378745361585"><ele>596.0</ele><time>2026-04-08T16:41:58Z</time></trkpt><trkpt lat="45.63932933304861" lon="11.330418144412718"><ele>596.0</ele><time>2026-04-08T16:41:59Z</time></trkpt><trkpt lat="45.63923704248408" lon="11.330462140328894"><ele>596.0</ele><time>2026-04-08T16:42:00Z</time></trkpt><trkpt lat="45.639142133274845" lon="11.330526197801454"><ele>596.0</ele><time>2026-04-08T16:42:01Z</time></trkpt><trkpt lat="45.63905766250584" lon="11.330599635197911"><ele>596.0</ele><time>2026-04-08T16:42:02Z</time></trkpt><trkpt lat="45.639007948725215" lon="11.330663717889749"><ele>598.8</ele><time>2026-04-08T16:42:03Z</time></trkpt><trkpt lat="45.63895066340999" lon="11.330754210297316"><ele>601.6</ele><time>2026-04-08T16:42:05Z</time></trkpt><trkpt lat="45.6388578781928" lon="11.330830809182578"><ele>604.4</ele><time>2026-04-08T16:42:07Z</time></trkpt><trkpt lat="45.63879562353395" lon="11.33085925826707"><ele>607.2</ele><time>2026-04-08T16:42:08Z</time></trkpt><trkpt lat="45.63867207495949" lon="11.330919352420942"><ele>610.0</ele><time>2026-04-08T16:42:09Z</time></trkpt><trkpt lat="45.63855917034625" lon="11.330897887765959"><ele>610.0</ele><time>2026-04-08T16:42:10Z</time></trkpt><trkpt lat="45.63849179204756" lon="11.330876702267002"><ele>610.0</ele><time>2026-04-08T16:42:11Z</time></trkpt><trkpt lat="45.63842027466244" lon="11.330854215438185"><ele>610.0</ele><time>2026-04-08T16:42:12Z</time></trkpt><trkpt lat="45.63835411989591" lon="11.33084539098352"><ele>610.0</ele><time>2026-04-08T16:42:13Z</time></trkpt><trkpt lat="45.63827996785954" lon="11.330853847770193"><ele>610.0</ele><time>2026-04-08T16:42:14Z</time></trkpt><trkpt lat="45.638198610659494" lon="11.330853847767731"><ele>610.0</ele><time>2026-04-08T16:42:15Z</time></trkpt><trkpt lat="45.63806205956645" lon="11.33043270309966"><ele>610.4</ele><time>2026-04-08T16:42:17Z</time></trkpt><trkpt lat="45.637987515600635" lon="11.330427314282026"><ele>610.8</ele><time>2026-04-08T16:42:18Z</time></trkpt><trkpt lat="45.63788680327445" lon="11.330429128753304"><ele>611.2</ele><time>2026-04-08T16:42:20Z</time></trkpt><trkpt lat="45.63781976017059" lon="11.330389049019766"><ele>611.6</ele><time>2026-04-08T16:42:21Z</time></trkpt><trkpt lat="45.637743916453765" lon="11.33033470978957"><ele>612.0</ele><time>2026-04-08T16:42:22Z</time></trkpt><trkpt lat="45.63761618885978" lon="11.330252593509613"><ele>612.0</ele><time>2026-04-08T16:42:24Z</time></trkpt><trkpt lat="45.63753801552361" lon="11.33016498433995"><ele>612.0</ele><time>2026-04-08T16:42:26Z</time></trkpt><trkpt lat="45.63749296115995" lon="11.330098644242705"><ele>612.0</ele><time>2026-04-08T16:42:27Z</time></trkpt><trkpt lat="45.637430152046306" lon="11.330011527823876"><ele>612.0</ele><time>2026-04-08T16:42:28Z</time></trkpt><trkpt lat="45.637388692790275" lon="11.329913348128247"><ele>612.0</ele><time>2026-04-08T16:42:29Z</time></trkpt><trkpt lat="45.637322387006755" lon="11.329784095347666"><ele>612.0</ele><time>2026-04-08T16:42:31Z</time></trkpt><trkpt lat="45.63725297086488" lon="11.329692679541044"><ele>610.3333333333334</ele><time>2026-04-08T16:42:33Z</time></trkpt><trkpt lat="45.63724751140242" lon="11.32958615879848"><ele>608.6666666666666</ele><time>2026-04-08T16:42:35Z</time></trkpt><trkpt lat="45.637273650275596" lon="11.329458039080482"><ele>607.0</ele><time>2026-04-08T16:42:37Z</time></trkpt><trkpt lat="45.6372690261742" lon="11.329332482355204"><ele>605.3333333333333</ele><time>2026-04-08T16:42:39Z</time></trkpt><trkpt lat="45.637283511946364" lon="11.32922741575702"><ele>603.6666666666666</ele><time>2026-04-08T16:42:41Z</time></trkpt><trkpt lat="45.637319573376104" lon="11.329115201222956"><ele>602.0</ele><time>2026-04-08T16:42:43Z</time></trkpt><trkpt lat="45.63729677034751" lon="11.328968078617416"><ele>600.5</ele><time>2026-04-08T16:42:45Z</time></trkpt><trkpt lat="45.63729202364365" lon="11.328830154540116"><ele>599.0</ele><time>2026-04-08T16:42:47Z</time></trkpt><trkpt lat="45.63732109303191" lon="11.328704443759383"><ele>597.5</ele><time>2026-04-08T16:42:49Z</time></trkpt><trkpt lat="45.63733647628401" lon="11.328609488218282"><ele>596.0</ele><time>2026-04-08T16:42:51Z</time></trkpt><trkpt lat="45.6373965320386" lon="11.328473940747557"><ele>594.5</ele><time>2026-04-08T16:42:54Z</time></trkpt><trkpt lat="45.637436295165024" lon="11.32837525013193"><ele>593.0</ele><time>2026-04-08T16:42:56Z</time></trkpt><trkpt lat="45.63749918368806" lon="11.328370833419573"><ele>593.0</ele><time>2026-04-08T16:42:58Z</time></trkpt><trkpt lat="45.63755687407151" lon="11.328510875076239"><ele>593.0</ele><time>2026-04-08T16:43:00Z</time></trkpt><trkpt lat="45.63756927765941" lon="11.328613179029086"><ele>593.0</ele><time>2026-04-08T16:43:02Z</time></trkpt><trkpt lat="45.63757873095579" lon="11.328704535834738"><ele>593.0</ele><time>2026-04-08T16:43:04Z</time></trkpt><trkpt lat="45.637643963112936" lon="11.32871523744872"><ele>593.0</ele><time>2026-04-08T16:43:06Z</time></trkpt><trkpt lat="45.63771340202966" lon="11.32870816803629"><ele>593.0</ele><time>2026-04-08T16:43:07Z</time></trkpt><trkpt lat="45.63778956059154" lon="11.328697796276984"><ele>588.6</ele><time>2026-04-08T16:43:09Z</time></trkpt><trkpt lat="45.63788379089326" lon="11.328631855054248"><ele>584.1999999999999</ele><time>2026-04-08T16:43:11Z</time></trkpt><trkpt lat="45.63799989121569" lon="11.328555098259963"><ele>579.8</ele><time>2026-04-08T16:43:13Z</time></trkpt><trkpt lat="45.63806027975943" lon="11.328492573129418"><ele>575.4</ele><time>2026-04-08T16:43:14Z</time></trkpt><trkpt lat="45.63811967171592" lon="11.328415894934729"><ele>571.0</ele><time>2026-04-08T16:43:15Z</time></trkpt><trkpt lat="45.6381690097282" lon="11.328344349756087"><ele>571.0</ele><time>2026-04-08T16:43:16Z</time></trkpt><trkpt lat="45.638235082022874" lon="11.328205119815886"><ele>571.0</ele><time>2026-04-08T16:43:18Z</time></trkpt><trkpt lat="45.63828790356466" lon="11.328080866853202"><ele>571.0</ele><time>2026-04-08T16:43:20Z</time></trkpt><trkpt lat="45.638357780676756" lon="11.32791838421213"><ele>571.0</ele><time>2026-04-08T16:43:22Z</time></trkpt><trkpt lat="45.63839644445988" lon="11.327826165272894"><ele>571.0</ele><time>2026-04-08T16:43:23Z</time></trkpt><trkpt lat="45.63843495732115" lon="11.327680949879257"><ele>570.5</ele><time>2026-04-08T16:43:25Z</time></trkpt><trkpt lat="45.63846345934021" lon="11.327583107658853"><ele>570.0</ele><time>2026-04-08T16:43:27Z</time></trkpt><trkpt lat="45.63838935796056" lon="11.327526068477914"><ele>569.5</ele><time>2026-04-08T16:43:28Z</time></trkpt><trkpt lat="45.63835403681641" lon="11.327426682399535"><ele>569.0</ele><time>2026-04-08T16:43:29Z</time></trkpt><trkpt lat="45.63831146432078" lon="11.327343205343864"><ele>568.5</ele><time>2026-04-08T16:43:30Z</time></trkpt><trkpt lat="45.63825683263526" lon="11.32723851476491"><ele>568.0</ele><time>2026-04-08T16:43:31Z</time></trkpt><trkpt lat="45.63817895511576" lon="11.32716177850893"><ele>566.6</ele><time>2026-04-08T16:43:32Z</time></trkpt><trkpt lat="45.63809048182046" lon="11.32707713061506"><ele>565.1999999999999</ele><time>2026-04-08T16:43:33Z</time></trkpt><trkpt lat="45.638010591656446" lon="11.326982360529437"><ele>563.8</ele><time>2026-04-08T16:43:34Z</time></trkpt><trkpt lat="45.637952905698214" lon="11.326880329460295"><ele>562.4</ele><time>2026-04-08T16:43:35Z</time></trkpt><trkpt lat="45.637873188789605" lon="11.3267910531953"><ele>561.0</ele><time>2026-04-08T16:43:36Z</time></trkpt><trkpt lat="45.63778067822791" lon="11.32673105373429"><ele>560.4</ele><time>2026-04-08T16:43:37Z</time></trkpt><trkpt lat="45.637692834884696" lon="11.326674426547102"><ele>559.8</ele><time>2026-04-08T16:43:38Z</time></trkpt><trkpt lat="45.637608702988544" lon="11.326653614031159"><ele>559.1999999999999</ele><time>2026-04-08T16:43:39Z</time></trkpt><trkpt lat="45.63752275512405" lon="11.326651625130106"><ele>558.6</ele><time>2026-04-08T16:43:40Z</time></trkpt><trkpt lat="45.637441653573866" lon="11.326655547027498"><ele>558.0</ele><time>2026-04-08T16:43:41Z</time></trkpt><trkpt lat="45.63733422146558" lon="11.326657594308926"><ele>558.0</ele><time>2026-04-08T16:43:42Z</time></trkpt><trkpt lat="45.63720824268253" lon="11.326651850198271"><ele>558.0</ele><time>2026-04-08T16:43:43Z</time></trkpt><trkpt lat="45.63708512543562" lon="11.326641236193133"><ele>558.0</ele><time>2026-04-08T16:43:44Z</time></trkpt><trkpt lat="45.63698129172885" lon="11.3266247218268"><ele>558.0</ele><time>2026-04-08T16:43:45Z</time></trkpt><trkpt lat="45.63688096812506" lon="11.326593866081238"><ele>558.0</ele><time>2026-04-08T16:43:46Z</time></trkpt><trkpt lat="45.63679451818202" lon="11.326546438081369"><ele>558.0</ele><time>2026-04-08T16:43:47Z</time></trkpt><trkpt lat="45.63673943167408" lon="11.326449181157747"><ele>558.0</ele><time>2026-04-08T16:43:48Z</time></trkpt><trkpt lat="45.636669249542585" lon="11.326398457951704"><ele>558.0</ele><time>2026-04-08T16:43:49Z</time></trkpt><trkpt lat="45.63658963897109" lon="11.326412556041074"><ele>558.0</ele><time>2026-04-08T16:43:50Z</time></trkpt><trkpt lat="45.63649507987688" lon="11.32642163797767"><ele>558.0</ele><time>2026-04-08T16:43:51Z</time></trkpt><trkpt lat="45.63640081107885" lon="11.326470050952997"><ele>558.0</ele><time>2026-04-08T16:43:52Z</time></trkpt><trkpt lat="45.636320812825645" lon="11.326554003942713"><ele>558.0</ele><time>2026-04-08T16:43:53Z</time></trkpt><trkpt lat="45.63624493236185" lon="11.326646991920125"><ele>558.0</ele><time>2026-04-08T16:43:54Z</time></trkpt><trkpt lat="45.636155744712994" lon="11.326755504397516"><ele>558.0</ele><time>2026-04-08T16:43:55Z</time></trkpt><trkpt lat="45.63607462249077" lon="11.326843049256512"><ele>558.0</ele><time>2026-04-08T16:43:56Z</time></trkpt><trkpt lat="45.63598101509221" lon="11.326876027715612"><ele>555.6</ele><time>2026-04-08T16:43:57Z</time></trkpt><trkpt lat="45.63588496875547" lon="11.326916514838624"><ele>553.1999999999999</ele><time>2026-04-08T16:43:58Z</time></trkpt><trkpt lat="45.63577951623081" lon="11.326922657238342"><ele>550.8</ele><time>2026-04-08T16:43:59Z</time></trkpt><trkpt lat="45.63566380850122" lon="11.326958321630531"><ele>548.4</ele><time>2026-04-08T16:44:00Z</time></trkpt><trkpt lat="45.63554848306708" lon="11.327013672697136"><ele>546.0</ele><time>2026-04-08T16:44:01Z</time></trkpt><trkpt lat="45.635430974580224" lon="11.327085106053564"><ele>546.0</ele><time>2026-04-08T16:44:02Z</time></trkpt><trkpt lat="45.635322036923704" lon="11.327155603551429"><ele>546.0</ele><time>2026-04-08T16:44:03Z</time></trkpt><trkpt lat="45.635220409869284" lon="11.32722354355551"><ele>546.0</ele><time>2026-04-08T16:44:04Z</time></trkpt><trkpt lat="45.63511977688275" lon="11.32729144572038"><ele>546.0</ele><time>2026-04-08T16:44:05Z</time></trkpt><trkpt lat="45.635046895523345" lon="11.327365538204665"><ele>546.0</ele><time>2026-04-08T16:44:06Z</time></trkpt><trkpt lat="45.634964830632306" lon="11.327413893953244"><ele>545.6</ele><time>2026-04-08T16:44:07Z</time></trkpt><trkpt lat="45.63487592490199" lon="11.327459679277991"><ele>545.2</ele><time>2026-04-08T16:44:08Z</time></trkpt><trkpt lat="45.63479136339546" lon="11.327546406125917"><ele>544.8</ele><time>2026-04-08T16:44:09Z</time></trkpt><trkpt lat="45.634698430998164" lon="11.327631517218867"><ele>544.4</ele><time>2026-04-08T16:44:10Z</time></trkpt><trkpt lat="45.634604379016494" lon="11.327686756787555"><ele>544.0</ele><time>2026-04-08T16:44:11Z</time></trkpt><trkpt lat="45.6345213871029" lon="11.327729909880691"><ele>541.2</ele><time>2026-04-08T16:44:12Z</time></trkpt><trkpt lat="45.63439349369753" lon="11.327740668379356"><ele>538.4</ele><time>2026-04-08T16:44:14Z</time></trkpt><trkpt lat="45.634360023605026" lon="11.327633135049565"><ele>535.6</ele><time>2026-04-08T16:44:15Z</time></trkpt><trkpt lat="45.634315013444215" lon="11.327552332759954"><ele>532.8</ele><time>2026-04-08T16:44:16Z</time></trkpt><trkpt lat="45.63424822323914" lon="11.327475745308496"><ele>530.0</ele><time>2026-04-08T16:44:17Z</time></trkpt><trkpt lat="45.6341720285852" lon="11.327388274851781"><ele>530.0</ele><time>2026-04-08T16:44:18Z</time></trkpt><trkpt lat="45.63408807990605" lon="11.32730884171508"><ele>530.0</ele><time>2026-04-08T16:44:19Z</time></trkpt><trkpt lat="45.63400996570931" lon="11.327228830240982"><ele>530.0</ele><time>2026-04-08T16:44:20Z</time></trkpt><trkpt lat="45.63394660175482" lon="11.327171029949815"><ele>530.0</ele><time>2026-04-08T16:44:21Z</time></trkpt><trkpt lat="45.63387173339112" lon="11.32710432426496"><ele>530.0</ele><time>2026-04-08T16:44:22Z</time></trkpt><trkpt lat="45.633798726428374" lon="11.327050236837653"><ele>530.0</ele><time>2026-04-08T16:44:23Z</time></trkpt><trkpt lat="45.63372415298083" lon="11.327007153341157"><ele>525.6</ele><time>2026-04-08T16:44:24Z</time></trkpt><trkpt lat="45.63362817323038" lon="11.32696771943089"><ele>521.2</ele><time>2026-04-08T16:44:25Z</time></trkpt><trkpt lat="45.633539330271624" lon="11.326934047750143"><ele>516.8</ele><time>2026-04-08T16:44:26Z</time></trkpt><trkpt lat="45.63343168913914" lon="11.326876705353108"><ele>512.4</ele><time>2026-04-08T16:44:27Z</time></trkpt><trkpt lat="45.63334120674029" lon="11.326878431886232"><ele>508.0</ele><time>2026-04-08T16:44:28Z</time></trkpt><trkpt lat="45.633267458444685" lon="11.326862305095203"><ele>508.00000000000006</ele><time>2026-04-08T16:44:29Z</time></trkpt><trkpt lat="45.63319683464184" lon="11.326835557757835"><ele>508.0</ele><time>2026-04-08T16:44:30Z</time></trkpt><trkpt lat="45.633147399565196" lon="11.326767267874203"><ele>508.0</ele><time>2026-04-08T16:44:31Z</time></trkpt><trkpt lat="45.633082558435646" lon="11.32676276895097"><ele>508.0</ele><time>2026-04-08T16:44:32Z</time></trkpt><trkpt lat="45.63297454141151" lon="11.326833537385717"><ele>508.00000000000006</ele><time>2026-04-08T16:44:34Z</time></trkpt><trkpt lat="45.63296311226315" lon="11.32696896956255"><ele>508.0</ele><time>2026-04-08T16:44:35Z</time></trkpt><trkpt lat="45.632936828481" lon="11.32708811084435"><ele>509.1666666666667</ele><time>2026-04-08T16:44:36Z</time></trkpt><trkpt lat="45.63289627348716" lon="11.327230394679345"><ele>510.33333333333337</ele><time>2026-04-08T16:44:37Z</time></trkpt><trkpt lat="45.63286880561682" lon="11.327332937645778"><ele>511.5</ele><time>2026-04-08T16:44:38Z</time></trkpt><trkpt lat="45.63285411804259" lon="11.32745259212327"><ele>512.6666666666666</ele><time>2026-04-08T16:44:39Z</time></trkpt><trkpt lat="45.6328538194226" lon="11.32757068857419"><ele>513.8333333333333</ele><time>2026-04-08T16:44:40Z</time></trkpt><trkpt lat="45.63287939799515" lon="11.327696449587068"><ele>515.0</ele><time>2026-04-08T16:44:41Z</time></trkpt><trkpt lat="45.63289283516587" lon="11.327819105505316"><ele>515.0</ele><time>2026-04-08T16:44:42Z</time></trkpt><trkpt lat="45.63288355439805" lon="11.327914301126125"><ele>515.0</ele><time>2026-04-08T16:44:43Z</time></trkpt><trkpt lat="45.63288346961752" lon="11.328034279825662"><ele>515.0</ele><time>2026-04-08T16:44:45Z</time></trkpt><trkpt lat="45.63276083922755" lon="11.328082111910517"><ele>515.0</ele><time>2026-04-08T16:44:47Z</time></trkpt><trkpt lat="45.632671928713805" lon="11.328098147455385"><ele>515.0</ele><time>2026-04-08T16:44:48Z</time></trkpt><trkpt lat="45.63260232105311" lon="11.32812207450996"><ele>515.0</ele><time>2026-04-08T16:44:49Z</time></trkpt><trkpt lat="45.63251510386716" lon="11.328204595681736"><ele>509.4</ele><time>2026-04-08T16:44:51Z</time></trkpt><trkpt lat="45.6324214027376" lon="11.328314940593671"><ele>503.8</ele><time>2026-04-08T16:44:53Z</time></trkpt><trkpt lat="45.632321088276804" lon="11.328311619105232"><ele>498.20000000000005</ele><time>2026-04-08T16:44:54Z</time></trkpt><trkpt lat="45.63221475775317" lon="11.3283467060529"><ele>492.6</ele><time>2026-04-08T16:44:55Z</time></trkpt><trkpt lat="45.63210274351633" lon="11.328361844208471"><ele>487.0</ele><time>2026-04-08T16:44:56Z</time></trkpt><trkpt lat="45.63198526750132" lon="11.328369736751974"><ele>484.0</ele><time>2026-04-08T16:44:57Z</time></trkpt><trkpt lat="45.631866955024904" lon="11.328361715055873"><ele>481.0</ele><time>2026-04-08T16:44:58Z</time></trkpt><trkpt lat="45.63175469286859" lon="11.32833344607455"><ele>478.0</ele><time>2026-04-08T16:44:59Z</time></trkpt><trkpt lat="45.63164712644068" lon="11.32828883351167"><ele>475.0</ele><time>2026-04-08T16:45:00Z</time></trkpt><trkpt lat="45.631531917100915" lon="11.328242930504684"><ele>475.0</ele><time>2026-04-08T16:45:01Z</time></trkpt><trkpt lat="45.63140442157912" lon="11.32820634454522"><ele>475.0</ele><time>2026-04-08T16:45:02Z</time></trkpt><trkpt lat="45.631290874381435" lon="11.328187795284048"><ele>475.0</ele><time>2026-04-08T16:45:03Z</time></trkpt><trkpt lat="45.63118459975342" lon="11.328183710356743"><ele>475.0</ele><time>2026-04-08T16:45:04Z</time></trkpt><trkpt lat="45.631089989187245" lon="11.328172804815345"><ele>475.0</ele><time>2026-04-08T16:45:05Z</time></trkpt><trkpt lat="45.63100030557651" lon="11.328151061336552"><ele>473.6666666666667</ele><time>2026-04-08T16:45:06Z</time></trkpt><trkpt lat="45.63092292339443" lon="11.328106123806032"><ele>472.33333333333337</ele><time>2026-04-08T16:45:07Z</time></trkpt><trkpt lat="45.6308618532582" lon="11.328043314214606"><ele>471.0</ele><time>2026-04-08T16:45:08Z</time></trkpt><trkpt lat="45.63077745533675" lon="11.327991109329153"><ele>469.66666666666663</ele><time>2026-04-08T16:45:09Z</time></trkpt><trkpt lat="45.63069030095058" lon="11.327990284089054"><ele>468.3333333333333</ele><time>2026-04-08T16:45:10Z</time></trkpt><trkpt lat="45.63059438982924" lon="11.328029011708882"><ele>467.0</ele><time>2026-04-08T16:45:11Z</time></trkpt><trkpt lat="45.63050002194732" lon="11.328086958892799"><ele>465.8</ele><time>2026-04-08T16:45:12Z</time></trkpt><trkpt lat="45.63040611948131" lon="11.328147250659054"><ele>464.6</ele><time>2026-04-08T16:45:13Z</time></trkpt><trkpt lat="45.6303097993786" lon="11.328177579744224"><ele>463.40000000000003</ele><time>2026-04-08T16:45:14Z</time></trkpt><trkpt lat="45.63023875108206" lon="11.328243436204508"><ele>462.20000000000005</ele><time>2026-04-08T16:45:15Z</time></trkpt><trkpt lat="45.63015169099481" lon="11.328256973026471"><ele>461.0</ele><time>2026-04-08T16:45:16Z</time></trkpt><trkpt lat="45.63007316171863" lon="11.32826593848818"><ele>458.8</ele><time>2026-04-08T16:45:17Z</time></trkpt><trkpt lat="45.629987607381985" lon="11.328292325807743"><ele>456.6</ele><time>2026-04-08T16:45:18Z</time></trkpt><trkpt lat="45.6299217655635" lon="11.328336375570236"><ele>454.4</ele><time>2026-04-08T16:45:19Z</time></trkpt><trkpt lat="45.6298131460409" lon="11.328343673383602"><ele>452.2</ele><time>2026-04-08T16:45:21Z</time></trkpt><trkpt lat="45.62973808671847" lon="11.328297612113287"><ele>450.0</ele><time>2026-04-08T16:45:23Z</time></trkpt><trkpt lat="45.62965359181344" lon="11.328510411696287"><ele>450.0</ele><time>2026-04-08T16:45:25Z</time></trkpt><trkpt lat="45.629618112835075" lon="11.328607941692036"><ele>450.0</ele><time>2026-04-08T16:45:26Z</time></trkpt><trkpt lat="45.629586973707774" lon="11.328693547140446"><ele>450.0</ele><time>2026-04-08T16:45:27Z</time></trkpt><trkpt lat="45.629578167041586" lon="11.328827449637979"><ele>450.0</ele><time>2026-04-08T16:45:28Z</time></trkpt><trkpt lat="45.62958145612623" lon="11.32892335657251"><ele>450.0</ele><time>2026-04-08T16:45:29Z</time></trkpt><trkpt lat="45.629624029203185" lon="11.32902436740818"><ele>450.0</ele><time>2026-04-08T16:45:30Z</time></trkpt><trkpt lat="45.62973022313189" lon="11.329091283558245"><ele>449.0</ele><time>2026-04-08T16:45:31Z</time></trkpt><trkpt lat="45.62977935023452" lon="11.329200102167398"><ele>448.0</ele><time>2026-04-08T16:45:32Z</time></trkpt><trkpt lat="45.62984593359142" lon="11.329322446008787"><ele>447.0</ele><time>2026-04-08T16:45:33Z</time></trkpt><trkpt lat="45.62989830529389" lon="11.329428341587604"><ele>446.0</ele><time>2026-04-08T16:45:34Z</time></trkpt><trkpt lat="45.62994905424295" lon="11.329524697102903"><ele>445.0</ele><time>2026-04-08T16:45:35Z</time></trkpt><trkpt lat="45.630000759966" lon="11.329606289272958"><ele>445.00000000000006</ele><time>2026-04-08T16:45:36Z</time></trkpt><trkpt lat="45.63006626494577" lon="11.329673774776147"><ele>445.0</ele><time>2026-04-08T16:45:37Z</time></trkpt><trkpt lat="45.63014084599366" lon="11.329741928388852"><ele>445.0</ele><time>2026-04-08T16:45:38Z</time></trkpt><trkpt lat="45.63022044008581" lon="11.329806372137076"><ele>445.0</ele><time>2026-04-08T16:45:39Z</time></trkpt><trkpt lat="45.63028825881309" lon="11.329856089548622"><ele>445.00000000000006</ele><time>2026-04-08T16:45:40Z</time></trkpt><trkpt lat="45.63034501652523" lon="11.329907097106583"><ele>445.0</ele><time>2026-04-08T16:45:41Z</time></trkpt><trkpt lat="45.630402297558064" lon="11.32998719040601"><ele>444.4</ele><time>2026-04-08T16:45:42Z</time></trkpt><trkpt lat="45.630450997107445" lon="11.330075907652052"><ele>443.8</ele><time>2026-04-08T16:45:43Z</time></trkpt><trkpt lat="45.630500639600264" lon="11.330178260890346"><ele>443.20000000000005</ele><time>2026-04-08T16:45:44Z</time></trkpt><trkpt lat="45.630564172043556" lon="11.330304611511464"><ele>442.6</ele><time>2026-04-08T16:45:45Z</time></trkpt><trkpt lat="45.630630791187585" lon="11.330437555792608"><ele>442.0</ele><time>2026-04-08T16:45:46Z</time></trkpt><trkpt lat="45.630684447536346" lon="11.330545830217215"><ele>439.6</ele><time>2026-04-08T16:45:47Z</time></trkpt><trkpt lat="45.630737703198456" lon="11.330651230363538"><ele>437.20000000000005</ele><time>2026-04-08T16:45:48Z</time></trkpt><trkpt lat="45.63078395987701" lon="11.330740654336106"><ele>434.8</ele><time>2026-04-08T16:45:49Z</time></trkpt><trkpt lat="45.630849202015135" lon="11.330830315346363"><ele>432.4</ele><time>2026-04-08T16:45:51Z</time></trkpt><trkpt lat="45.63072638184675" lon="11.330927666439644"><ele>430.0</ele><time>2026-04-08T16:45:57Z</time></trkpt><trkpt lat="45.63065421910147" lon="11.33090265045036"><ele>430.00000000000006</ele><time>2026-04-08T16:45:59Z</time></trkpt><trkpt lat="45.63056878173274" lon="11.330897311647247"><ele>430.0</ele><time>2026-04-08T16:46:01Z</time></trkpt><trkpt lat="45.63049540795297" lon="11.330893113737794"><ele>430.0</ele><time>2026-04-08T16:46:03Z</time></trkpt><trkpt lat="45.630406381156895" lon="11.330870515010048"><ele>430.0</ele><time>2026-04-08T16:46:06Z</time></trkpt><trkpt lat="45.63031090925695" lon="11.330866923292895"><ele>430.00000000000006</ele><time>2026-04-08T16:46:10Z</time></trkpt><trkpt lat="45.6302395195194" lon="11.330961448807699"><ele>430.0</ele><time>2026-04-08T16:46:12Z</time></trkpt><trkpt lat="45.63018654321475" lon="11.33103599369894"><ele>427.00000000000006</ele><time>2026-04-08T16:46:14Z</time></trkpt><trkpt lat="45.630132521848914" lon="11.331137146706892"><ele>424.0</ele><time>2026-04-08T16:46:18Z</time></trkpt><trkpt lat="45.63007816021116" lon="11.331214292079636"><ele>421.0</ele><time>2026-04-08T16:46:20Z</time></trkpt><trkpt lat="45.630007151699594" lon="11.33130847608882"><ele>418.0</ele><time>2026-04-08T16:46:22Z</time></trkpt><trkpt lat="45.62991654263398" lon="11.331344436870916"><ele>415.00000000000006</ele><time>2026-04-08T16:46:24Z</time></trkpt><trkpt lat="45.62982878006314" lon="11.331328139176536"><ele>412.0</ele><time>2026-04-08T16:46:26Z</time></trkpt><trkpt lat="45.629758334484045" lon="11.33133074206824"><ele>412.00000000000006</ele><time>2026-04-08T16:46:28Z</time></trkpt><trkpt lat="45.62966111709851" lon="11.33132850984478"><ele>412.0</ele><time>2026-04-08T16:46:30Z</time></trkpt><trkpt lat="45.62959486184032" lon="11.33141239175634"><ele>412.0</ele><time>2026-04-08T16:46:32Z</time></trkpt><trkpt lat="45.629537939047864" lon="11.331469276368267"><ele>412.0</ele><time>2026-04-08T16:46:34Z</time></trkpt><trkpt lat="45.62947345599879" lon="11.331560613518027"><ele>412.00000000000006</ele><time>2026-04-08T16:46:36Z</time></trkpt><trkpt lat="45.62941772148233" lon="11.331603926883497"><ele>412.0</ele><time>2026-04-08T16:46:39Z</time></trkpt><trkpt lat="45.6293469179394" lon="11.331629194033264"><ele>408.1666666666667</ele><time>2026-04-08T16:46:41Z</time></trkpt><trkpt lat="45.62926181398202" lon="11.331700387286357"><ele>404.33333333333337</ele><time>2026-04-08T16:46:43Z</time></trkpt><trkpt lat="45.62921824016988" lon="11.331768488540147"><ele>400.5</ele><time>2026-04-08T16:46:45Z</time></trkpt><trkpt lat="45.62916038978567" lon="11.33185636845237"><ele>396.66666666666663</ele><time>2026-04-08T16:46:48Z</time></trkpt><trkpt lat="45.62912246804877" lon="11.331934401032251"><ele>392.8333333333333</ele><time>2026-04-08T16:46:50Z</time></trkpt><trkpt lat="45.62906706531213" lon="11.332021967830729"><ele>389.0</ele><time>2026-04-08T16:46:53Z</time></trkpt><trkpt lat="45.62901002152176" lon="11.332087194162408"><ele>388.99999999999994</ele><time>2026-04-08T16:46:55Z</time></trkpt><trkpt lat="45.62895570649069" lon="11.332148925169964"><ele>389.0</ele><time>2026-04-08T16:46:57Z</time></trkpt><trkpt lat="45.62889537014878" lon="11.332219348178002"><ele>389.0</ele><time>2026-04-08T16:47:01Z</time></trkpt><trkpt lat="45.62893909035075" lon="11.332313169843745"><ele>389.0</ele><time>2026-04-08T16:47:03Z</time></trkpt><trkpt lat="45.628980005391355" lon="11.332465787716247"><ele>388.99999999999994</ele><time>2026-04-08T16:47:05Z</time></trkpt><trkpt lat="45.629034365228705" lon="11.33252052811626"><ele>389.0</ele><time>2026-04-08T16:47:07Z</time></trkpt><trkpt lat="45.629081607957836" lon="11.332594116077638"><ele>387.7142857142857</ele><time>2026-04-08T16:47:09Z</time></trkpt><trkpt lat="45.62908502536318" lon="11.332686052520117"><ele>386.4285714285714</ele><time>2026-04-08T16:47:10Z</time></trkpt><trkpt lat="45.629080409426734" lon="11.332791790649207"><ele>385.1428571428571</ele><time>2026-04-08T16:47:11Z</time></trkpt><trkpt lat="45.62905827371742" lon="11.332901203957528"><ele>383.8571428571429</ele><time>2026-04-08T16:47:12Z</time></trkpt><trkpt lat="45.62902701248516" lon="11.332989838699076"><ele>382.57142857142856</ele><time>2026-04-08T16:47:13Z</time></trkpt><trkpt lat="45.6289820426065" lon="11.333061893069027"><ele>381.2857142857143</ele><time>2026-04-08T16:47:14Z</time></trkpt><trkpt lat="45.62892967387636" lon="11.333126573109755"><ele>380.0</ele><time>2026-04-08T16:47:15Z</time></trkpt><trkpt lat="45.62887267476795" lon="11.333189884486641"><ele>379.0</ele><time>2026-04-08T16:47:16Z</time></trkpt><trkpt lat="45.62881966264589" lon="11.333252873015496"><ele>378.0</ele><time>2026-04-08T16:47:17Z</time></trkpt><trkpt lat="45.62876656275382" lon="11.33331767579828"><ele>377.0</ele><time>2026-04-08T16:47:18Z</time></trkpt><trkpt lat="45.62869055130794" lon="11.33341624650419"><ele>376.0</ele><time>2026-04-08T16:47:20Z</time></trkpt><trkpt lat="45.62859594877449" lon="11.333533658766605"><ele>375.0</ele><time>2026-04-08T16:47:22Z</time></trkpt><trkpt lat="45.628529999586625" lon="11.333593200451684"><ele>374.0</ele><time>2026-04-08T16:47:23Z</time></trkpt><trkpt lat="45.62848546851811" lon="11.333680702096766"><ele>371.6666666666667</ele><time>2026-04-08T16:47:24Z</time></trkpt><trkpt lat="45.62842853708861" lon="11.333761332729503"><ele>369.33333333333337</ele><time>2026-04-08T16:47:25Z</time></trkpt><trkpt lat="45.62837350670809" lon="11.333838000424418"><ele>367.0</ele><time>2026-04-08T16:47:26Z</time></trkpt><trkpt lat="45.628318953645646" lon="11.333917408589958"><ele>364.6666666666667</ele><time>2026-04-08T16:47:27Z</time></trkpt><trkpt lat="45.628263662094135" lon="11.333993774830855"><ele>362.3333333333333</ele><time>2026-04-08T16:47:28Z</time></trkpt><trkpt lat="45.62820173256558" lon="11.334066970280775"><ele>360.0</ele><time>2026-04-08T16:47:29Z</time></trkpt><trkpt lat="45.628123884319194" lon="11.33414535584698"><ele>359.1666666666667</ele><time>2026-04-08T16:47:30Z</time></trkpt><trkpt lat="45.628054177012636" lon="11.334184805865675"><ele>358.3333333333333</ele><time>2026-04-08T16:47:31Z</time></trkpt><trkpt lat="45.62797581655034" lon="11.334186367718425"><ele>357.5</ele><time>2026-04-08T16:47:32Z</time></trkpt><trkpt lat="45.62788013263516" lon="11.334206359149853"><ele>356.66666666666663</ele><time>2026-04-08T16:47:33Z</time></trkpt><trkpt lat="45.62778683015384" lon="11.334236500528934"><ele>355.8333333333333</ele><time>2026-04-08T16:47:34Z</time></trkpt><trkpt lat="45.62769550718728" lon="11.334269744695245"><ele>355.0</ele><time>2026-04-08T16:47:35Z</time></trkpt><trkpt lat="45.62760046170243" lon="11.334304705293125"><ele>352.8333333333333</ele><time>2026-04-08T16:47:36Z</time></trkpt><trkpt lat="45.627531736850855" lon="11.33435520159649"><ele>350.66666666666663</ele><time>2026-04-08T16:47:37Z</time></trkpt><trkpt lat="45.62745411347468" lon="11.334383589839286"><ele>348.5</ele><time>2026-04-08T16:47:38Z</time></trkpt><trkpt lat="45.62734664503046" lon="11.334410783309865"><ele>346.3333333333333</ele><time>2026-04-08T16:47:40Z</time></trkpt><trkpt lat="45.627277444441404" lon="11.334383131874437"><ele>344.1666666666667</ele><time>2026-04-08T16:47:42Z</time></trkpt><trkpt lat="45.62726159198553" lon="11.334260416491762"><ele>342.0</ele><time>2026-04-08T16:47:44Z</time></trkpt><trkpt lat="45.627315846877856" lon="11.334193942075776"><ele>342.0</ele><time>2026-04-08T16:47:46Z</time></trkpt><trkpt lat="45.62718213405361" lon="11.334065635397689"><ele>342.0</ele><time>2026-04-08T16:47:48Z</time></trkpt><trkpt lat="45.62710744227401" lon="11.334095190775914"><ele>342.0</ele><time>2026-04-08T16:47:49Z</time></trkpt><trkpt lat="45.62703140246803" lon="11.33415196949955"><ele>342.0</ele><time>2026-04-08T16:47:51Z</time></trkpt><trkpt lat="45.626959400754316" lon="11.334207361391687"><ele>342.0</ele><time>2026-04-08T16:47:53Z</time></trkpt><trkpt lat="45.62687616904866" lon="11.334249857863258"><ele>325.0</ele><time>2026-04-08T16:47:56Z</time></trkpt><trkpt lat="45.62684104951213" lon="11.334937388240007"><ele>325.0</ele><time>2026-04-08T16:48:22Z</time></trkpt><trkpt lat="45.62680531495898" lon="11.335044757188024"><ele>325.0</ele><time>2026-04-08T16:48:23Z</time></trkpt><trkpt lat="45.62675887393401" lon="11.335165954875523"><ele>325.0</ele><time>2026-04-08T16:48:24Z</time></trkpt><trkpt lat="45.62672729039762" lon="11.335258568468742"><ele>325.0</ele><time>2026-04-08T16:48:25Z</time></trkpt><trkpt lat="45.626689661801485" lon="11.33537488958629"><ele>325.0</ele><time>2026-04-08T16:48:26Z</time></trkpt><trkpt lat="45.626639959741766" lon="11.335490508186663"><ele>325.0</ele><time>2026-04-08T16:48:27Z</time></trkpt><trkpt lat="45.62660170150979" lon="11.335598843388263"><ele>324.8333333333333</ele><time>2026-04-08T16:48:28Z</time></trkpt><trkpt lat="45.62658073250586" lon="11.335705899270435"><ele>324.66666666666663</ele><time>2026-04-08T16:48:29Z</time></trkpt><trkpt lat="45.62656504120504" lon="11.335805878083413"><ele>324.5</ele><time>2026-04-08T16:48:30Z</time></trkpt><trkpt lat="45.626551253020395" lon="11.33590247886757"><ele>324.3333333333333</ele><time>2026-04-08T16:48:31Z</time></trkpt><trkpt lat="45.626562975302605" lon="11.336072534037449"><ele>324.1666666666667</ele><time>2026-04-08T16:48:33Z</time></trkpt><trkpt lat="45.626636783821674" lon="11.336187812780375"><ele>324.0</ele><time>2026-04-08T16:48:35Z</time></trkpt><trkpt lat="45.62676542999282" lon="11.336227957223262"><ele>324.0</ele><time>2026-04-08T16:48:37Z</time></trkpt><trkpt lat="45.62684808501634" lon="11.336261561865753"><ele>324.0</ele><time>2026-04-08T16:48:38Z</time></trkpt><trkpt lat="45.62692552209791" lon="11.33631749950839"><ele>324.0</ele><time>2026-04-08T16:48:39Z</time></trkpt><trkpt lat="45.627022478529334" lon="11.336373432126035"><ele>324.0</ele><time>2026-04-08T16:48:40Z</time></trkpt><trkpt lat="45.62711780432502" lon="11.336432846535953"><ele>324.0</ele><time>2026-04-08T16:48:41Z</time></trkpt><trkpt lat="45.62719404850836" lon="11.336475762588314"><ele>324.3333333333333</ele><time>2026-04-08T16:48:42Z</time></trkpt><trkpt lat="45.62724492366929" lon="11.336590451554638"><ele>324.6666666666667</ele><time>2026-04-08T16:48:44Z</time></trkpt><trkpt lat="45.62721085590918" lon="11.336695439404815"><ele>325.0</ele><time>2026-04-08T16:48:46Z</time></trkpt><trkpt lat="45.627205412016544" lon="11.336833199027243"><ele>325.33333333333337</ele><time>2026-04-08T16:48:48Z</time></trkpt><trkpt lat="45.627219808294" lon="11.336931765689657"><ele>325.6666666666667</ele><time>2026-04-08T16:48:50Z</time></trkpt><trkpt lat="45.62726886923567" lon="11.337021737590689"><ele>326.0</ele><time>2026-04-08T16:48:52Z</time></trkpt><trkpt lat="45.62732271359121" lon="11.337081035262445"><ele>326.0</ele><time>2026-04-08T16:48:53Z</time></trkpt><trkpt lat="45.62738217516634" lon="11.337150862343625"><ele>326.0</ele><time>2026-04-08T16:48:54Z</time></trkpt><trkpt lat="45.627450052762114" lon="11.337223686804618"><ele>326.0</ele><time>2026-04-08T16:48:55Z</time></trkpt><trkpt lat="45.62750191259586" lon="11.337285314717105"><ele>326.0</ele><time>2026-04-08T16:48:56Z</time></trkpt><trkpt lat="45.62760202011431" lon="11.33733442223478"><ele>326.0</ele><time>2026-04-08T16:48:58Z</time></trkpt><trkpt lat="45.62770580897654" lon="11.337363776915234"><ele>326.0</ele><time>2026-04-08T16:49:00Z</time></trkpt><trkpt lat="45.627821523740074" lon="11.33731591139334"><ele>326.4</ele><time>2026-04-08T16:49:02Z</time></trkpt><trkpt lat="45.627906700490215" lon="11.33731973259892"><ele>326.8</ele><time>2026-04-08T16:49:04Z</time></trkpt><trkpt lat="45.62799581844953" lon="11.337345649135319"><ele>327.2</ele><time>2026-04-08T16:49:06Z</time></trkpt><trkpt lat="45.62810342479681" lon="11.3372953926173"><ele>327.59999999999997</ele><time>2026-04-08T16:49:08Z</time></trkpt><trkpt lat="45.62817149744623" lon="11.337302921749878"><ele>328.0</ele><time>2026-04-08T16:49:09Z</time></trkpt><trkpt lat="45.62826267079046" lon="11.33734178154521"><ele>328.0</ele><time>2026-04-08T16:49:11Z</time></trkpt><trkpt lat="45.628343044774574" lon="11.337412006668925"><ele>328.0</ele><time>2026-04-08T16:49:13Z</time></trkpt><trkpt lat="45.62840310460425" lon="11.337474403516408"><ele>328.0</ele><time>2026-04-08T16:49:14Z</time></trkpt><trkpt lat="45.62850515379005" lon="11.337493001742063"><ele>328.0</ele><time>2026-04-08T16:49:16Z</time></trkpt><trkpt lat="45.6286025307039" lon="11.337469834561043"><ele>328.0</ele><time>2026-04-08T16:49:18Z</time></trkpt><trkpt lat="45.628706124185406" lon="11.337399977709524"><ele>329.3333333333333</ele><time>2026-04-08T16:49:20Z</time></trkpt><trkpt lat="45.6287723312892" lon="11.3374046023486"><ele>330.66666666666663</ele><time>2026-04-08T16:49:21Z</time></trkpt><trkpt lat="45.62883503987837" lon="11.33741819822472"><ele>332.0</ele><time>2026-04-08T16:49:22Z</time></trkpt><trkpt lat="45.62894499355483" lon="11.337449307178213"><ele>333.3333333333333</ele><time>2026-04-08T16:49:24Z</time></trkpt><trkpt lat="45.62904833365675" lon="11.337453084257632"><ele>334.6666666666667</ele><time>2026-04-08T16:49:26Z</time></trkpt><trkpt lat="45.62912983455927" lon="11.33743537784064"><ele>336.0</ele><time>2026-04-08T16:49:28Z</time></trkpt><trkpt lat="45.629161572023946" lon="11.337529570412498"><ele>336.0</ele><time>2026-04-08T16:49:31Z</time></trkpt><trkpt lat="45.62911524224593" lon="11.33764574776991"><ele>336.0</ele><time>2026-04-08T16:49:56Z</time></trkpt><trkpt lat="45.62906505904631" lon="11.337777311918115"><ele>336.0</ele><time>2026-04-08T16:49:58Z</time></trkpt><trkpt lat="45.629034523686315" lon="11.337857754583563"><ele>336.0</ele><time>2026-04-08T16:49:59Z</time></trkpt><trkpt lat="45.62899212866168" lon="11.337942673875862"><ele>336.0</ele><time>2026-04-08T16:50:00Z</time></trkpt><trkpt lat="45.62895406563837" lon="11.33803627776025"><ele>336.0</ele><time>2026-04-08T16:50:01Z</time></trkpt><trkpt lat="45.62889229971831" lon="11.338147275919908"><ele>336.1666666666667</ele><time>2026-04-08T16:50:03Z</time></trkpt><trkpt lat="45.628889852150905" lon="11.338263627333221"><ele>336.3333333333333</ele><time>2026-04-08T16:50:06Z</time></trkpt><trkpt lat="45.628891597302015" lon="11.338403874518566"><ele>336.5</ele><time>2026-04-08T16:50:09Z</time></trkpt><trkpt lat="45.62893882173632" lon="11.338514800784951"><ele>336.66666666666663</ele><time>2026-04-08T16:50:11Z</time></trkpt><trkpt lat="45.628996129536134" lon="11.33858232691573"><ele>336.8333333333333</ele><time>2026-04-08T16:50:13Z</time></trkpt><trkpt lat="45.62905426604801" lon="11.338692025165543"><ele>337.0</ele><time>2026-04-08T16:50:15Z</time></trkpt><trkpt lat="45.62911840859393" lon="11.33870994204121"><ele>337.0</ele><time>2026-04-08T16:50:17Z</time></trkpt><trkpt lat="45.629215103027946" lon="11.338591868198174"><ele>337.0</ele><time>2026-04-08T16:50:19Z</time></trkpt><trkpt lat="45.629271934813566" lon="11.338495945683997"><ele>337.0</ele><time>2026-04-08T16:50:20Z</time></trkpt><trkpt lat="45.6293207251647" lon="11.338380329510562"><ele>337.0</ele><time>2026-04-08T16:50:22Z</time></trkpt><trkpt lat="45.62939130034662" lon="11.338247274053463"><ele>337.0</ele><time>2026-04-08T16:50:24Z</time></trkpt><trkpt lat="45.62947250263082" lon="11.338127464221838"><ele>340.8</ele><time>2026-04-08T16:50:26Z</time></trkpt><trkpt lat="45.6295624466736" lon="11.338054503880189"><ele>344.6</ele><time>2026-04-08T16:50:28Z</time></trkpt><trkpt lat="45.62964834210735" lon="11.338012408272917"><ele>348.40000000000003</ele><time>2026-04-08T16:50:30Z</time></trkpt><trkpt lat="45.62974190375085" lon="11.337968735984385"><ele>352.20000000000005</ele><time>2026-04-08T16:50:32Z</time></trkpt><trkpt lat="45.62983176631479" lon="11.337994245710544"><ele>356.0</ele><time>2026-04-08T16:50:38Z</time></trkpt><trkpt lat="45.62990657702884" lon="11.338050093093521"><ele>356.0</ele><time>2026-04-08T16:50:40Z</time></trkpt><trkpt lat="45.63000765163612" lon="11.338018878544046"><ele>356.0</ele><time>2026-04-08T16:50:43Z</time></trkpt><trkpt lat="45.63007518456641" lon="11.338033717202888"><ele>356.0</ele><time>2026-04-08T16:50:53Z</time></trkpt><trkpt lat="45.63011616504213" lon="11.338120944500277"><ele>356.0</ele><time>2026-04-08T16:51:00Z</time></trkpt><trkpt lat="45.630110335981676" lon="11.338225577710453"><ele>356.0</ele><time>2026-04-08T16:51:03Z</time></trkpt><trkpt lat="45.63002975234385" lon="11.338334156487567"><ele>356.0</ele><time>2026-04-08T16:51:05Z</time></trkpt><trkpt lat="45.62999211099107" lon="11.338411162206667"><ele>357.33333333333337</ele><time>2026-04-08T16:51:07Z</time></trkpt><trkpt lat="45.63000227836322" lon="11.338507787401271"><ele>358.6666666666667</ele><time>2026-04-08T16:51:10Z</time></trkpt><trkpt lat="45.63012391795872" lon="11.33849301321023"><ele>360.0</ele><time>2026-04-08T16:51:13Z</time></trkpt><trkpt lat="45.63020660722099" lon="11.338510619533302"><ele>361.3333333333333</ele><time>2026-04-08T16:51:15Z</time></trkpt><trkpt lat="45.630292747511774" lon="11.338532898380382"><ele>362.66666666666663</ele><time>2026-04-08T16:51:17Z</time></trkpt><trkpt lat="45.630356014033666" lon="11.338518713149757"><ele>364.0</ele><time>2026-04-08T16:51:19Z</time></trkpt><trkpt lat="45.63045255054839" lon="11.338501777447377"><ele>366.66666666666663</ele><time>2026-04-08T16:51:21Z</time></trkpt><trkpt lat="45.63053184707203" lon="11.338535370008952"><ele>369.3333333333333</ele><time>2026-04-08T16:51:23Z</time></trkpt><trkpt lat="45.63061900682569" lon="11.338529207946749"><ele>372.0</ele><time>2026-04-08T16:51:26Z</time></trkpt><trkpt lat="45.63070386382881" lon="11.338505861404805"><ele>374.6666666666667</ele><time>2026-04-08T16:51:29Z</time></trkpt><trkpt lat="45.63078190007875" lon="11.338509491170988"><ele>377.33333333333337</ele><time>2026-04-08T16:51:31Z</time></trkpt><trkpt lat="45.63083283084217" lon="11.338570054446043"><ele>380.0</ele><time>2026-04-08T16:51:33Z</time></trkpt><trkpt lat="45.6308535809546" lon="11.33868925790467"><ele>380.0</ele><time>2026-04-08T16:51:35Z</time></trkpt><trkpt lat="45.630888238641504" lon="11.338827779250687"><ele>380.0</ele><time>2026-04-08T16:51:37Z</time></trkpt><trkpt lat="45.63095946085604" lon="11.338937762319429"><ele>380.0</ele><time>2026-04-08T16:51:39Z</time></trkpt><trkpt lat="45.63103727419761" lon="11.339048831040135"><ele>380.0</ele><time>2026-04-08T16:51:41Z</time></trkpt><trkpt lat="45.63109576551891" lon="11.339112129681936"><ele>380.0</ele><time>2026-04-08T16:51:42Z</time></trkpt><trkpt lat="45.63114907424295" lon="11.33917446231318"><ele>385.5</ele><time>2026-04-08T16:51:43Z</time></trkpt><trkpt lat="45.631197145175314" lon="11.339242253095215"><ele>391.0</ele><time>2026-04-08T16:51:44Z</time></trkpt><trkpt lat="45.63123834672983" lon="11.339314291234002"><ele>396.5</ele><time>2026-04-08T16:51:46Z</time></trkpt><trkpt lat="45.63128099217236" lon="11.339435221307514"><ele>402.0</ele><time>2026-04-08T16:51:48Z</time></trkpt><trkpt lat="45.631321351478604" lon="11.339519172649483"><ele>407.49999999999994</ele><time>2026-04-08T16:51:50Z</time></trkpt><trkpt lat="45.63123277415214" lon="11.339601260700297"><ele>413.0</ele><time>2026-04-08T16:51:52Z</time></trkpt><trkpt lat="45.63115962875241" lon="11.339655171787497"><ele>414.66666666666663</ele><time>2026-04-08T16:51:53Z</time></trkpt><trkpt lat="45.6310857763416" lon="11.339706528130082"><ele>416.3333333333333</ele><time>2026-04-08T16:51:54Z</time></trkpt><trkpt lat="45.631027628228296" lon="11.33975012510153"><ele>418.0</ele><time>2026-04-08T16:51:55Z</time></trkpt><trkpt lat="45.630954690187615" lon="11.339796499913842"><ele>419.66666666666663</ele><time>2026-04-08T16:51:57Z</time></trkpt><trkpt lat="45.63084544860014" lon="11.33985284753284"><ele>421.3333333333333</ele><time>2026-04-08T16:51:59Z</time></trkpt><trkpt lat="45.630774251009065" lon="11.339853925445704"><ele>423.0</ele><time>2026-04-08T16:52:00Z</time></trkpt><trkpt lat="45.63067230334939" lon="11.339886281188763"><ele>423.0</ele><time>2026-04-08T16:52:02Z</time></trkpt><trkpt lat="45.6306080033824" lon="11.339947534354938"><ele>423.0</ele><time>2026-04-08T16:52:03Z</time></trkpt><trkpt lat="45.63047707279639" lon="11.339970863357582"><ele>423.0</ele><time>2026-04-08T16:52:05Z</time></trkpt><trkpt lat="45.63033286194133" lon="11.340022752480012"><ele>423.0</ele><time>2026-04-08T16:52:07Z</time></trkpt><trkpt lat="45.63026266610308" lon="11.340043553508302"><ele>423.0</ele><time>2026-04-08T16:52:08Z</time></trkpt><trkpt lat="45.630195092757184" lon="11.340075668229618"><ele>420.6666666666667</ele><time>2026-04-08T16:52:09Z</time></trkpt><trkpt lat="45.63013739821584" lon="11.340116932317688"><ele>418.33333333333337</ele><time>2026-04-08T16:52:11Z</time></trkpt><trkpt lat="45.63007339248528" lon="11.340143630353504"><ele>416.0</ele><time>2026-04-08T16:52:12Z</time></trkpt><trkpt lat="45.62998169296417" lon="11.340214547154167"><ele>413.6666666666667</ele><time>2026-04-08T16:52:14Z</time></trkpt><trkpt lat="45.62992297746922" lon="11.340295664490787"><ele>411.33333333333337</ele><time>2026-04-08T16:52:16Z</time></trkpt><trkpt lat="45.62986020465863" lon="11.340388630299914"><ele>409.0</ele><time>2026-04-08T16:52:18Z</time></trkpt><trkpt lat="45.629820868976665" lon="11.340542006080375"><ele>412.83333333333337</ele><time>2026-04-08T16:52:20Z</time></trkpt><trkpt lat="45.62977718464121" lon="11.340712535283602"><ele>416.6666666666667</ele><time>2026-04-08T16:52:22Z</time></trkpt><trkpt lat="45.6297599122926" lon="11.340813073689075"><ele>420.5</ele><time>2026-04-08T16:52:23Z</time></trkpt><trkpt lat="45.629734849824246" lon="11.340918981422515"><ele>424.33333333333337</ele><time>2026-04-08T16:52:24Z</time></trkpt><trkpt lat="45.62968035683644" lon="11.341008489383288"><ele>428.1666666666667</ele><time>2026-04-08T16:52:25Z</time></trkpt><trkpt lat="45.62961613213645" lon="11.341083957202224"><ele>432.0</ele><time>2026-04-08T16:52:26Z</time></trkpt><trkpt lat="45.62954953797213" lon="11.341157409741298"><ele>432.0</ele><time>2026-04-08T16:52:27Z</time></trkpt><trkpt lat="45.629475938706086" lon="11.341212812616718"><ele>432.0</ele><time>2026-04-08T16:52:28Z</time></trkpt><trkpt lat="45.629420172761094" lon="11.341260956904566"><ele>432.0</ele><time>2026-04-08T16:52:29Z</time></trkpt><trkpt lat="45.62936610122637" lon="11.341318311901293"><ele>432.0</ele><time>2026-04-08T16:52:30Z</time></trkpt><trkpt lat="45.62928580128866" lon="11.341397944918324"><ele>432.0</ele><time>2026-04-08T16:52:31Z</time></trkpt><trkpt lat="45.62921396187295" lon="11.341452726546454"><ele>432.0</ele><time>2026-04-08T16:52:32Z</time></trkpt><trkpt lat="45.62916530075419" lon="11.341516624175032"><ele>430.42857142857144</ele><time>2026-04-08T16:52:33Z</time></trkpt><trkpt lat="45.629135200650595" lon="11.341613459673061"><ele>428.85714285714283</ele><time>2026-04-08T16:52:35Z</time></trkpt><trkpt lat="45.62911223897607" lon="11.341702525878977"><ele>427.28571428571433</ele><time>2026-04-08T16:52:36Z</time></trkpt><trkpt lat="45.6290939153758" lon="11.341795865043224"><ele>425.7142857142857</ele><time>2026-04-08T16:52:37Z</time></trkpt><trkpt lat="45.629086616591806" lon="11.341885498583949"><ele>424.14285714285717</ele><time>2026-04-08T16:52:38Z</time></trkpt><trkpt lat="45.62908554133924" lon="11.341976165084192"><ele>422.5714285714286</ele><time>2026-04-08T16:52:39Z</time></trkpt><trkpt lat="45.62911380552757" lon="11.342122888496172"><ele>421.0</ele><time>2026-04-08T16:52:41Z</time></trkpt><trkpt lat="45.62918540064922" lon="11.342194378441539"><ele>422.6</ele><time>2026-04-08T16:52:43Z</time></trkpt><trkpt lat="45.629295643476866" lon="11.342264402248341"><ele>424.20000000000005</ele><time>2026-04-08T16:52:45Z</time></trkpt><trkpt lat="45.62935068483681" lon="11.342317427191375"><ele>425.79999999999995</ele><time>2026-04-08T16:52:46Z</time></trkpt><trkpt lat="45.629442345879696" lon="11.342384659515737"><ele>427.4</ele><time>2026-04-08T16:52:47Z</time></trkpt><trkpt lat="45.62952713546626" lon="11.342477615789821"><ele>429.0</ele><time>2026-04-08T16:52:49Z</time></trkpt><trkpt lat="45.629602938641696" lon="11.342553359277701"><ele>431.6</ele><time>2026-04-08T16:52:51Z</time></trkpt><trkpt lat="45.6296698077185" lon="11.342617803383957"><ele>434.2</ele><time>2026-04-08T16:52:54Z</time></trkpt><trkpt lat="45.629738174242" lon="11.342519649077412"><ele>436.80000000000007</ele><time>2026-04-08T16:52:57Z</time></trkpt><trkpt lat="45.62975970760205" lon="11.342405719702999"><ele>439.40000000000003</ele><time>2026-04-08T16:52:58Z</time></trkpt><trkpt lat="45.629789605041346" lon="11.342298318857067"><ele>442.0</ele><time>2026-04-08T16:52:59Z</time></trkpt><trkpt lat="45.62984805534682" lon="11.342127700509824"><ele>442.00000000000006</ele><time>2026-04-08T16:53:01Z</time></trkpt><trkpt lat="45.62989555263704" lon="11.342022147012694"><ele>442.0</ele><time>2026-04-08T16:53:02Z</time></trkpt><trkpt lat="45.62998643341283" lon="11.341947543617179"><ele>442.0</ele><time>2026-04-08T16:53:04Z</time></trkpt><trkpt lat="45.630041075428935" lon="11.341894809298331"><ele>442.0</ele><time>2026-04-08T16:53:05Z</time></trkpt><trkpt lat="45.6301215760188" lon="11.34192873043167"><ele>442.00000000000006</ele><time>2026-04-08T16:53:06Z</time></trkpt><trkpt lat="45.63020281178939" lon="11.341934607322068"><ele>442.0</ele><time>2026-04-08T16:53:07Z</time></trkpt><trkpt lat="45.63027367227643" lon="11.341951651018967"><ele>445.40000000000003</ele><time>2026-04-08T16:53:08Z</time></trkpt><trkpt lat="45.63035241476674" lon="11.342028597509117"><ele>448.80000000000007</ele><time>2026-04-08T16:53:10Z</time></trkpt><trkpt lat="45.63043522622365" lon="11.342134124278733"><ele>452.2</ele><time>2026-04-08T16:53:12Z</time></trkpt><trkpt lat="45.63043570032029" lon="11.342248164447856"><ele>455.6</ele><time>2026-04-08T16:53:14Z</time></trkpt><trkpt lat="45.63044231722369" lon="11.342400512051897"><ele>459.0</ele><time>2026-04-08T16:53:16Z</time></trkpt><trkpt lat="45.630402448581286" lon="11.342537876710795"><ele>460.4</ele><time>2026-04-08T16:53:19Z</time></trkpt><trkpt lat="45.630349473511046" lon="11.3425894186465"><ele>461.79999999999995</ele><time>2026-04-08T16:53:20Z</time></trkpt><trkpt lat="45.63024975195692" lon="11.342665520596395"><ele>463.20000000000005</ele><time>2026-04-08T16:53:22Z</time></trkpt><trkpt lat="45.63019183302249" lon="11.34274205920156"><ele>464.6</ele><time>2026-04-08T16:53:23Z</time></trkpt><trkpt lat="45.63009018194656" lon="11.342838347462655"><ele>466.0</ele><time>2026-04-08T16:53:25Z</time></trkpt><trkpt lat="45.630047021969766" lon="11.34292421653676"><ele>465.00000000000006</ele><time>2026-04-08T16:53:26Z</time></trkpt><trkpt lat="45.629999706539714" lon="11.343030754979152"><ele>464.0</ele><time>2026-04-08T16:53:27Z</time></trkpt><trkpt lat="45.62994724433005" lon="11.343139357724436"><ele>463.0</ele><time>2026-04-08T16:53:28Z</time></trkpt><trkpt lat="45.62989187833636" lon="11.343223708964619"><ele>462.0</ele><time>2026-04-08T16:53:29Z</time></trkpt><trkpt lat="45.62983027645638" lon="11.343309155091028"><ele>461.00000000000006</ele><time>2026-04-08T16:53:30Z</time></trkpt><trkpt lat="45.62977467730438" lon="11.3433841489553"><ele>460.0</ele><time>2026-04-08T16:53:31Z</time></trkpt><trkpt lat="45.6296964890918" lon="11.343486763893704"><ele>460.0</ele><time>2026-04-08T16:53:32Z</time></trkpt><trkpt lat="45.6296108628309" lon="11.343598074549467"><ele>460.0</ele><time>2026-04-08T16:53:33Z</time></trkpt><trkpt lat="45.62953587256717" lon="11.343693946407058"><ele>460.0</ele><time>2026-04-08T16:53:34Z</time></trkpt><trkpt lat="45.629463001626426" lon="11.343784821812932"><ele>460.0</ele><time>2026-04-08T16:53:35Z</time></trkpt><trkpt lat="45.62940046065239" lon="11.343862815171411"><ele>460.0</ele><time>2026-04-08T16:53:36Z</time></trkpt><trkpt lat="45.629335188503184" lon="11.343944158614669"><ele>460.1666666666667</ele><time>2026-04-08T16:53:37Z</time></trkpt><trkpt lat="45.6292920460173" lon="11.34403089629028"><ele>460.33333333333337</ele><time>2026-04-08T16:53:38Z</time></trkpt><trkpt lat="45.629237188101584" lon="11.344088986402605"><ele>460.5</ele><time>2026-04-08T16:53:39Z</time></trkpt><trkpt lat="45.62915359829401" lon="11.34412166257475"><ele>460.66666666666663</ele><time>2026-04-08T16:53:40Z</time></trkpt><trkpt lat="45.62905705341469" lon="11.344182441128376"><ele>460.8333333333333</ele><time>2026-04-08T16:53:41Z</time></trkpt><trkpt lat="45.62896068998723" lon="11.344237217503489"><ele>461.0</ele><time>2026-04-08T16:53:42Z</time></trkpt><trkpt lat="45.628876170540295" lon="11.344292646603002"><ele>461.0</ele><time>2026-04-08T16:53:43Z</time></trkpt><trkpt lat="45.62878776038822" lon="11.344316122208783"><ele>461.0</ele><time>2026-04-08T16:53:44Z</time></trkpt><trkpt lat="45.62869606998105" lon="11.344353038431908"><ele>461.0</ele><time>2026-04-08T16:53:45Z</time></trkpt><trkpt lat="45.62860912875883" lon="11.344388079786215"><ele>461.0</ele><time>2026-04-08T16:53:46Z</time></trkpt><trkpt lat="45.62851455275995" lon="11.344428004286055"><ele>461.0</ele><time>2026-04-08T16:53:47Z</time></trkpt><trkpt lat="45.62842844165109" lon="11.344490161847817"><ele>459.99999999999994</ele><time>2026-04-08T16:53:48Z</time></trkpt><trkpt lat="45.628345098553034" lon="11.344515130873154"><ele>459.0</ele><time>2026-04-08T16:53:49Z</time></trkpt><trkpt lat="45.628279252210916" lon="11.344558454422414"><ele>458.0</ele><time>2026-04-08T16:53:50Z</time></trkpt><trkpt lat="45.62821710435654" lon="11.344595416563221"><ele>457.0</ele><time>2026-04-08T16:53:51Z</time></trkpt><trkpt lat="45.628158255517974" lon="11.344684605790919"><ele>455.99999999999994</ele><time>2026-04-08T16:53:52Z</time></trkpt><trkpt lat="45.628116500952736" lon="11.344788304458993"><ele>455.0</ele><time>2026-04-08T16:53:53Z</time></trkpt><trkpt lat="45.628062444812855" lon="11.34486663877098"><ele>455.99999999999994</ele><time>2026-04-08T16:53:55Z</time></trkpt><trkpt lat="45.62802065112816" lon="11.344772416438898"><ele>457.0</ele><time>2026-04-08T16:53:57Z</time></trkpt><trkpt lat="45.627911514986465" lon="11.344809170391118"><ele>458.0</ele><time>2026-04-08T16:53:59Z</time></trkpt><trkpt lat="45.62787383255445" lon="11.344881531662766"><ele>459.0</ele><time>2026-04-08T16:54:01Z</time></trkpt><trkpt lat="45.62783942404097" lon="11.344767677398405"><ele>459.99999999999994</ele><time>2026-04-08T16:54:02Z</time></trkpt><trkpt lat="45.62775446922279" lon="11.34476767739211"><ele>461.0</ele><time>2026-04-08T16:54:04Z</time></trkpt><trkpt lat="45.62772170399811" lon="11.344886485918767"><ele>460.99999999999994</ele><time>2026-04-08T16:54:05Z</time></trkpt><trkpt lat="45.6276488239857" lon="11.344893150759773"><ele>461.0</ele><time>2026-04-08T16:54:07Z</time></trkpt><trkpt lat="45.62756807729565" lon="11.344898315830802"><ele>461.0</ele><time>2026-04-08T16:54:09Z</time></trkpt><trkpt lat="45.627469210488144" lon="11.34487585990274"><ele>461.0</ele><time>2026-04-08T16:54:13Z</time></trkpt><trkpt lat="45.62740751823497" lon="11.344749285278679"><ele>460.99999999999994</ele><time>2026-04-08T16:54:15Z</time></trkpt><trkpt lat="45.6273429708438" lon="11.344686141619464"><ele>461.0</ele><time>2026-04-08T16:54:16Z</time></trkpt><trkpt lat="45.62727232538077" lon="11.34460199358348"><ele>461.20000000000005</ele><time>2026-04-08T16:54:17Z</time></trkpt><trkpt lat="45.627189060525744" lon="11.344522839868974"><ele>461.40000000000003</ele><time>2026-04-08T16:54:18Z</time></trkpt><trkpt lat="45.6271043350543" lon="11.344446389453845"><ele>461.6</ele><time>2026-04-08T16:54:19Z</time></trkpt><trkpt lat="45.62702696572229" lon="11.344346696622926"><ele>461.8</ele><time>2026-04-08T16:54:20Z</time></trkpt><trkpt lat="45.62694536816952" lon="11.344261519630713"><ele>462.0</ele><time>2026-04-08T16:54:21Z</time></trkpt><trkpt lat="45.62685490965663" lon="11.344203672814556"><ele>457.8</ele><time>2026-04-08T16:54:22Z</time></trkpt><trkpt lat="45.62677379219766" lon="11.344130789467645"><ele>453.6</ele><time>2026-04-08T16:54:23Z</time></trkpt><trkpt lat="45.626686641314315" lon="11.344070412319953"><ele>449.40000000000003</ele><time>2026-04-08T16:54:24Z</time></trkpt><trkpt lat="45.62660077827129" lon="11.344006552083705"><ele>445.20000000000005</ele><time>2026-04-08T16:54:25Z</time></trkpt><trkpt lat="45.62649256619146" lon="11.34396348966869"><ele>441.0</ele><time>2026-04-08T16:54:26Z</time></trkpt><trkpt lat="45.6263963952416" lon="11.34395183718701"><ele>441.0</ele><time>2026-04-08T16:54:27Z</time></trkpt><trkpt lat="45.62628552897936" lon="11.343967869722043"><ele>441.0</ele><time>2026-04-08T16:54:28Z</time></trkpt><trkpt lat="45.62617856810724" lon="11.343966690943294"><ele>441.0</ele><time>2026-04-08T16:54:29Z</time></trkpt><trkpt lat="45.6260743866522" lon="11.343999101463764"><ele>441.0</ele><time>2026-04-08T16:54:30Z</time></trkpt><trkpt lat="45.625973541132225" lon="11.344033994844574"><ele>441.0</ele><time>2026-04-08T16:54:31Z</time></trkpt><trkpt lat="45.625881006495945" lon="11.344070820576137"><ele>437.5</ele><time>2026-04-08T16:54:32Z</time></trkpt><trkpt lat="45.625800653481114" lon="11.34412581147602"><ele>434.0</ele><time>2026-04-08T16:54:33Z</time></trkpt><trkpt lat="45.625718376565445" lon="11.34414793967874"><ele>430.5</ele><time>2026-04-08T16:54:34Z</time></trkpt><trkpt lat="45.625644052942405" lon="11.344116386482858"><ele>427.0</ele><time>2026-04-08T16:54:35Z</time></trkpt><trkpt lat="45.62555548172686" lon="11.344082362698487"><ele>423.5</ele><time>2026-04-08T16:54:36Z</time></trkpt><trkpt lat="45.625461217611566" lon="11.344028225490904"><ele>420.0</ele><time>2026-04-08T16:54:37Z</time></trkpt><trkpt lat="45.62536974222161" lon="11.343967116277087"><ele>418.2</ele><time>2026-04-08T16:54:38Z</time></trkpt><trkpt lat="45.625267951889626" lon="11.343913085851321"><ele>416.4</ele><time>2026-04-08T16:54:39Z</time></trkpt><trkpt lat="45.62518740736395" lon="11.343851744862953"><ele>414.6</ele><time>2026-04-08T16:54:40Z</time></trkpt><trkpt lat="45.62509967359917" lon="11.343793907845829"><ele>412.8</ele><time>2026-04-08T16:54:41Z</time></trkpt><trkpt lat="45.625009481828556" lon="11.343752757378233"><ele>411.0</ele><time>2026-04-08T16:54:42Z</time></trkpt><trkpt lat="45.62493941651747" lon="11.343733293720566"><ele>411.0</ele><time>2026-04-08T16:54:43Z</time></trkpt><trkpt lat="45.62483855540528" lon="11.34368900572483"><ele>411.0</ele><time>2026-04-08T16:54:45Z</time></trkpt><trkpt lat="45.624768948359566" lon="11.343669969997185"><ele>411.0</ele><time>2026-04-08T16:54:47Z</time></trkpt><trkpt lat="45.62471708357242" lon="11.343865439422842"><ele>411.0</ele><time>2026-04-08T16:54:49Z</time></trkpt><trkpt lat="45.62472613853792" lon="11.344013355532148"><ele>411.0</ele><time>2026-04-08T16:54:51Z</time></trkpt><trkpt lat="45.62473009118061" lon="11.344114386893631"><ele>411.0</ele><time>2026-04-08T16:54:52Z</time></trkpt><trkpt lat="45.62470641819686" lon="11.344254404531034"><ele>411.0</ele><time>2026-04-08T16:54:54Z</time></trkpt><trkpt lat="45.62462476388199" lon="11.344286787813505"><ele>411.0</ele><time>2026-04-08T16:54:56Z</time></trkpt><trkpt lat="45.62449790204584" lon="11.344298960951258"><ele>411.0</ele><time>2026-04-08T16:54:58Z</time></trkpt><trkpt lat="45.624406578317135" lon="11.344331235646647"><ele>411.0</ele><time>2026-04-08T16:55:00Z</time></trkpt><trkpt lat="45.6243331229456" lon="11.344386340042508"><ele>409.6</ele><time>2026-04-08T16:55:02Z</time></trkpt><trkpt lat="45.62425707220694" lon="11.344434626785771"><ele>408.20000000000005</ele><time>2026-04-08T16:55:04Z</time></trkpt><trkpt lat="45.624144590729834" lon="11.344470717230939"><ele>406.79999999999995</ele><time>2026-04-08T16:55:06Z</time></trkpt><trkpt lat="45.624039889724735" lon="11.344526970092176"><ele>405.4</ele><time>2026-04-08T16:55:08Z</time></trkpt><trkpt lat="45.623982541438444" lon="11.344631774235777"><ele>404.0</ele><time>2026-04-08T16:55:10Z</time></trkpt><trkpt lat="45.62394864265848" lon="11.344737041480382"><ele>401.79999999999995</ele><time>2026-04-08T16:55:12Z</time></trkpt><trkpt lat="45.623928106815214" lon="11.34484343174179"><ele>399.59999999999997</ele><time>2026-04-08T16:55:14Z</time></trkpt><trkpt lat="45.62392221575245" lon="11.3449902864805"><ele>397.4</ele><time>2026-04-08T16:55:16Z</time></trkpt><trkpt lat="45.62394506324919" lon="11.345093007542125"><ele>395.2</ele><time>2026-04-08T16:55:18Z</time></trkpt><trkpt lat="45.623914660375696" lon="11.345248058710158"><ele>393.0</ele><time>2026-04-08T16:55:26Z</time></trkpt><trkpt lat="45.62389269996652" lon="11.345402936541907"><ele>393.0</ele><time>2026-04-08T16:55:28Z</time></trkpt><trkpt lat="45.62383769046615" lon="11.345544838182803"><ele>393.0</ele><time>2026-04-08T16:55:30Z</time></trkpt><trkpt lat="45.62395291298131" lon="11.34570574231964"><ele>393.0</ele><time>2026-04-08T16:55:31Z</time></trkpt><trkpt lat="45.62395563234838" lon="11.345807650241886"><ele>393.0</ele><time>2026-04-08T16:55:32Z</time></trkpt><trkpt lat="45.62395895258455" lon="11.34589871307427"><ele>393.0</ele><time>2026-04-08T16:55:33Z</time></trkpt><trkpt lat="45.62396077012648" lon="11.346000924959238"><ele>392.3333333333333</ele><time>2026-04-08T16:55:34Z</time></trkpt><trkpt lat="45.62396654976018" lon="11.346150215532626"><ele>391.66666666666663</ele><time>2026-04-08T16:55:35Z</time></trkpt><trkpt lat="45.623963407282716" lon="11.346250879979854"><ele>391.0</ele><time>2026-04-08T16:55:36Z</time></trkpt><trkpt lat="45.623962258404646" lon="11.346345035862509"><ele>390.3333333333333</ele><time>2026-04-08T16:55:37Z</time></trkpt><trkpt lat="45.62396369508204" lon="11.346440099754501"><ele>389.66666666666663</ele><time>2026-04-08T16:55:38Z</time></trkpt><trkpt lat="45.623992763634455" lon="11.34658168090738"><ele>389.0</ele><time>2026-04-08T16:55:40Z</time></trkpt><trkpt lat="45.624055398697266" lon="11.34671441324746"><ele>388.16666666666663</ele><time>2026-04-08T16:55:42Z</time></trkpt><trkpt lat="45.624104410213164" lon="11.346781886125605"><ele>387.3333333333333</ele><time>2026-04-08T16:55:43Z</time></trkpt><trkpt lat="45.624148631844506" lon="11.346865035088"><ele>386.5</ele><time>2026-04-08T16:55:44Z</time></trkpt><trkpt lat="45.62418631949504" lon="11.346942874205325"><ele>385.66666666666663</ele><time>2026-04-08T16:55:45Z</time></trkpt><trkpt lat="45.624218358616616" lon="11.347037203667252"><ele>384.8333333333333</ele><time>2026-04-08T16:55:46Z</time></trkpt><trkpt lat="45.624297535232195" lon="11.347158280912561"><ele>384.0</ele><time>2026-04-08T16:55:48Z</time></trkpt><trkpt lat="45.62435681028094" lon="11.347232992441251"><ele>382.6666666666667</ele><time>2026-04-08T16:55:49Z</time></trkpt><trkpt lat="45.62442666419359" lon="11.347318301133635"><ele>381.3333333333333</ele><time>2026-04-08T16:55:50Z</time></trkpt><trkpt lat="45.6244858144085" lon="11.347389545120626"><ele>380.0</ele><time>2026-04-08T16:55:51Z</time></trkpt><trkpt lat="45.624533220710155" lon="11.3474540429579"><ele>378.66666666666663</ele><time>2026-04-08T16:55:52Z</time></trkpt><trkpt lat="45.62463176172097" lon="11.34753765528925"><ele>377.3333333333333</ele><time>2026-04-08T16:55:54Z</time></trkpt><trkpt lat="45.624705739194454" lon="11.347596878707597"><ele>376.0</ele><time>2026-04-08T16:55:56Z</time></trkpt><trkpt lat="45.62469591462075" lon="11.347728427203677"><ele>379.0</ele><time>2026-04-08T16:55:58Z</time></trkpt><trkpt lat="45.624663629274295" lon="11.347829971439271"><ele>382.0</ele><time>2026-04-08T16:55:59Z</time></trkpt><trkpt lat="45.62463052600076" lon="11.347913538089562"><ele>385.0</ele><time>2026-04-08T16:56:00Z</time></trkpt><trkpt lat="45.62462546433472" lon="11.34809253321205"><ele>388.0</ele><time>2026-04-08T16:56:02Z</time></trkpt><trkpt lat="45.62462311429376" lon="11.34821394452546"><ele>391.00000000000006</ele><time>2026-04-08T16:56:04Z</time></trkpt><trkpt lat="45.624553444987264" lon="11.348268033811998"><ele>394.0</ele><time>2026-04-08T16:56:06Z</time></trkpt><trkpt lat="45.624484330321074" lon="11.34826965259398"><ele>392.6666666666667</ele><time>2026-04-08T16:56:07Z</time></trkpt><trkpt lat="45.62439691033758" lon="11.348238737175018"><ele>391.33333333333337</ele><time>2026-04-08T16:56:08Z</time></trkpt><trkpt lat="45.624306882072396" lon="11.3482155526837"><ele>390.0</ele><time>2026-04-08T16:56:09Z</time></trkpt><trkpt lat="45.62421209102515" lon="11.348197837979509"><ele>388.66666666666663</ele><time>2026-04-08T16:56:10Z</time></trkpt><trkpt lat="45.624143288325875" lon="11.348201869153288"><ele>387.3333333333333</ele><time>2026-04-08T16:56:11Z</time></trkpt><trkpt lat="45.624066682458185" lon="11.34818758787854"><ele>386.0</ele><time>2026-04-08T16:56:12Z</time></trkpt><trkpt lat="45.623994191647704" lon="11.348198089032019"><ele>385.99999999999994</ele><time>2026-04-08T16:56:13Z</time></trkpt><trkpt lat="45.623912378799794" lon="11.348218438253241"><ele>386.0</ele><time>2026-04-08T16:56:14Z</time></trkpt><trkpt lat="45.62379125339522" lon="11.348280067757045"><ele>386.0</ele><time>2026-04-08T16:56:16Z</time></trkpt><trkpt lat="45.62373055540412" lon="11.348327750552734"><ele>386.0</ele><time>2026-04-08T16:56:17Z</time></trkpt><trkpt lat="45.62365580555624" lon="11.348383606672083"><ele>385.99999999999994</ele><time>2026-04-08T16:56:18Z</time></trkpt><trkpt lat="45.623597422636315" lon="11.348430436732365"><ele>386.0</ele><time>2026-04-08T16:56:19Z</time></trkpt><trkpt lat="45.62354046569527" lon="11.348526722137848"><ele>386.66666666666663</ele><time>2026-04-08T16:56:21Z</time></trkpt><trkpt lat="45.62354918102897" lon="11.34867082400123"><ele>387.3333333333333</ele><time>2026-04-08T16:56:23Z</time></trkpt><trkpt lat="45.62356642675302" lon="11.348779427651852"><ele>388.0</ele><time>2026-04-08T16:56:24Z</time></trkpt><trkpt lat="45.623571558271806" lon="11.348877775159218"><ele>388.66666666666663</ele><time>2026-04-08T16:56:25Z</time></trkpt><trkpt lat="45.62353122647824" lon="11.348997866539854"><ele>389.3333333333333</ele><time>2026-04-08T16:56:27Z</time></trkpt><trkpt lat="45.623464887194565" lon="11.349024407238831"><ele>390.0</ele><time>2026-04-08T16:56:29Z</time></trkpt><trkpt lat="45.62338667070621" lon="11.348919403342613"><ele>386.6</ele><time>2026-04-08T16:56:31Z</time></trkpt><trkpt lat="45.62336806342405" lon="11.348820452186496"><ele>383.2</ele><time>2026-04-08T16:56:32Z</time></trkpt><trkpt lat="45.62332713401228" lon="11.348641881451359"><ele>379.79999999999995</ele><time>2026-04-08T16:56:34Z</time></trkpt><trkpt lat="45.62325006901891" lon="11.348540525528634"><ele>376.4</ele><time>2026-04-08T16:56:36Z</time></trkpt><trkpt lat="45.623116534987446" lon="11.348520393182028"><ele>373.0</ele><time>2026-04-08T16:56:38Z</time></trkpt><trkpt lat="45.623042582769145" lon="11.348503023105144"><ele>373.0</ele><time>2026-04-08T16:56:39Z</time></trkpt><trkpt lat="45.62296471983793" lon="11.348462713537666"><ele>373.0</ele><time>2026-04-08T16:56:40Z</time></trkpt><trkpt lat="45.6229012397408" lon="11.34844144211648"><ele>373.0</ele><time>2026-04-08T16:56:41Z</time></trkpt><trkpt lat="45.62282804620854" lon="11.34843224725301"><ele>373.0</ele><time>2026-04-08T16:56:42Z</time></trkpt><trkpt lat="45.62275768969198" lon="11.34843085976859"><ele>373.0</ele><time>2026-04-08T16:56:43Z</time></trkpt><trkpt lat="45.62268049001063" lon="11.348448462906422"><ele>373.0</ele><time>2026-04-08T16:56:44Z</time></trkpt><trkpt lat="45.622603144327705" lon="11.348483857746473"><ele>373.16666666666663</ele><time>2026-04-08T16:56:45Z</time></trkpt><trkpt lat="45.62251774337576" lon="11.348515166230827"><ele>373.3333333333333</ele><time>2026-04-08T16:56:46Z</time></trkpt><trkpt lat="45.622456439100816" lon="11.348563029761081"><ele>373.5</ele><time>2026-04-08T16:56:47Z</time></trkpt><trkpt lat="45.622405517158406" lon="11.348616374155865"><ele>373.6666666666667</ele><time>2026-04-08T16:56:48Z</time></trkpt><trkpt lat="45.622339141422906" lon="11.34859813060399"><ele>373.83333333333337</ele><time>2026-04-08T16:56:49Z</time></trkpt><trkpt lat="45.62221656184038" lon="11.348679228442052"><ele>374.0</ele><time>2026-04-08T16:56:51Z</time></trkpt><trkpt lat="45.622166469749445" lon="11.348742274240903"><ele>374.0</ele><time>2026-04-08T16:56:52Z</time></trkpt><trkpt lat="45.62212112606943" lon="11.348838060717137"><ele>374.0</ele><time>2026-04-08T16:56:53Z</time></trkpt><trkpt lat="45.622104754688074" lon="11.348951203417492"><ele>374.0</ele><time>2026-04-08T16:56:54Z</time></trkpt><trkpt lat="45.6220521884263" lon="11.349057968550671"><ele>374.0</ele><time>2026-04-08T16:56:55Z</time></trkpt><trkpt lat="45.622016605763186" lon="11.349172700034428"><ele>374.0</ele><time>2026-04-08T16:56:56Z</time></trkpt><trkpt lat="45.62198863541272" lon="11.349332982218442"><ele>373.5</ele><time>2026-04-08T16:56:57Z</time></trkpt><trkpt lat="45.62194946442571" lon="11.34947526256161"><ele>373.0</ele><time>2026-04-08T16:56:58Z</time></trkpt><trkpt lat="45.621910284448575" lon="11.349579032004621"><ele>372.5</ele><time>2026-04-08T16:56:59Z</time></trkpt><trkpt lat="45.621886060847274" lon="11.349675360397335"><ele>372.0</ele><time>2026-04-08T16:57:00Z</time></trkpt><trkpt lat="45.62185636091852" lon="11.349762564699228"><ele>371.5</ele><time>2026-04-08T16:57:01Z</time></trkpt><trkpt lat="45.621756481313945" lon="11.34983437718326"><ele>371.0</ele><time>2026-04-08T16:57:03Z</time></trkpt><trkpt lat="45.62171349182725" lon="11.349901474013077"><ele>371.0</ele><time>2026-04-08T16:57:04Z</time></trkpt><trkpt lat="45.62169158502769" lon="11.350030444545274"><ele>371.0</ele><time>2026-04-08T16:57:05Z</time></trkpt><trkpt lat="45.62167194741108" lon="11.350122354980568"><ele>371.0</ele><time>2026-04-08T16:57:06Z</time></trkpt><trkpt lat="45.62163280053554" lon="11.350222795173613"><ele>371.0</ele><time>2026-04-08T16:57:08Z</time></trkpt><trkpt lat="45.62163007904649" lon="11.350376185359396"><ele>371.0</ele><time>2026-04-08T16:57:11Z</time></trkpt><trkpt lat="45.6216457356099" lon="11.35047204146282"><ele>371.0</ele><time>2026-04-08T16:57:12Z</time></trkpt><trkpt lat="45.62165696788105" lon="11.350568899458931"><ele>371.1666666666667</ele><time>2026-04-08T16:57:13Z</time></trkpt><trkpt lat="45.62166614843969" lon="11.350675417805396"><ele>371.33333333333337</ele><time>2026-04-08T16:57:14Z</time></trkpt><trkpt lat="45.621676030048846" lon="11.35079007012963"><ele>371.5</ele><time>2026-04-08T16:57:15Z</time></trkpt><trkpt lat="45.621687446636436" lon="11.350922532210085"><ele>371.6666666666667</ele><time>2026-04-08T16:57:16Z</time></trkpt><trkpt lat="45.621697255022674" lon="11.35104783698439"><ele>371.8333333333333</ele><time>2026-04-08T16:57:17Z</time></trkpt><trkpt lat="45.62170619295985" lon="11.351171330502206"><ele>372.0</ele><time>2026-04-08T16:57:18Z</time></trkpt><trkpt lat="45.62171300465358" lon="11.351300310477798"><ele>371.6</ele><time>2026-04-08T16:57:19Z</time></trkpt><trkpt lat="45.62171656398521" lon="11.351418560901715"><ele>371.20000000000005</ele><time>2026-04-08T16:57:20Z</time></trkpt><trkpt lat="45.62169644376495" lon="11.35159098745427"><ele>370.8</ele><time>2026-04-08T16:57:22Z</time></trkpt><trkpt lat="45.62169655589542" lon="11.351684435627764"><ele>370.4</ele><time>2026-04-08T16:57:23Z</time></trkpt><trkpt lat="45.62174727433813" lon="11.35177793235487"><ele>370.0</ele><time>2026-04-08T16:57:24Z</time></trkpt><trkpt lat="45.62180884518431" lon="11.351886590578573"><ele>370.0</ele><time>2026-04-08T16:57:25Z</time></trkpt><trkpt lat="45.621877058417624" lon="11.35199225094153"><ele>370.0</ele><time>2026-04-08T16:57:26Z</time></trkpt><trkpt lat="45.621946637508834" lon="11.352080535810284"><ele>370.0</ele><time>2026-04-08T16:57:27Z</time></trkpt><trkpt lat="45.62201960963828" lon="11.352170814453144"><ele>370.0</ele><time>2026-04-08T16:57:28Z</time></trkpt><trkpt lat="45.62208965370049" lon="11.352261460449593"><ele>370.0</ele><time>2026-04-08T16:57:29Z</time></trkpt><trkpt lat="45.62213806359575" lon="11.352380093766328"><ele>371.0</ele><time>2026-04-08T16:57:30Z</time></trkpt><trkpt lat="45.622198997829365" lon="11.35249955118814"><ele>372.0</ele><time>2026-04-08T16:57:31Z</time></trkpt><trkpt lat="45.62224083649747" lon="11.352604433211726"><ele>373.0</ele><time>2026-04-08T16:57:32Z</time></trkpt><trkpt lat="45.62227745326734" lon="11.352743963570155"><ele>374.0</ele><time>2026-04-08T16:57:34Z</time></trkpt><trkpt lat="45.62226037729303" lon="11.35284696598714"><ele>375.0</ele><time>2026-04-08T16:57:36Z</time></trkpt><trkpt lat="45.62218711328549" lon="11.352849985210678"><ele>376.0</ele><time>2026-04-08T16:57:37Z</time></trkpt><trkpt lat="45.622111436441685" lon="11.352845486185485"><ele>376.0</ele><time>2026-04-08T16:57:38Z</time></trkpt><trkpt lat="45.6220366763466" lon="11.352850795069026"><ele>376.0</ele><time>2026-04-08T16:57:39Z</time></trkpt><trkpt lat="45.62195664867404" lon="11.352897913855836"><ele>376.0</ele><time>2026-04-08T16:57:40Z</time></trkpt><trkpt lat="45.621898378467094" lon="11.352980798489808"><ele>376.0</ele><time>2026-04-08T16:57:41Z</time></trkpt><trkpt lat="45.62182250953319" lon="11.353078911816723"><ele>376.0</ele><time>2026-04-08T16:57:42Z</time></trkpt><trkpt lat="45.621762395101" lon="11.353160596585179"><ele>376.0</ele><time>2026-04-08T16:57:43Z</time></trkpt><trkpt lat="45.62168271111558" lon="11.353265806039378"><ele>373.0</ele><time>2026-04-08T16:57:44Z</time></trkpt><trkpt lat="45.62159986878605" lon="11.353355833621318"><ele>370.0</ele><time>2026-04-08T16:57:45Z</time></trkpt><trkpt lat="45.621517487283505" lon="11.353416686964513"><ele>367.0</ele><time>2026-04-08T16:57:46Z</time></trkpt><trkpt lat="45.62143187196217" lon="11.353450695473791"><ele>364.0</ele><time>2026-04-08T16:57:47Z</time></trkpt><trkpt lat="45.621354067655936" lon="11.35345299977096"><ele>361.0</ele><time>2026-04-08T16:57:48Z</time></trkpt><trkpt lat="45.62126334418932" lon="11.353477102103511"><ele>361.0</ele><time>2026-04-08T16:57:49Z</time></trkpt><trkpt lat="45.62117706748965" lon="11.353521655473749"><ele>361.0</ele><time>2026-04-08T16:57:50Z</time></trkpt><trkpt lat="45.62109669494067" lon="11.353540889075592"><ele>361.0</ele><time>2026-04-08T16:57:51Z</time></trkpt><trkpt lat="45.621009261920115" lon="11.353544850864798"><ele>361.0</ele><time>2026-04-08T16:57:52Z</time></trkpt><trkpt lat="45.62092916177602" lon="11.353550872545762"><ele>361.0</ele><time>2026-04-08T16:57:53Z</time></trkpt><trkpt lat="45.62084467054186" lon="11.353551679010147"><ele>361.0</ele><time>2026-04-08T16:57:54Z</time></trkpt><trkpt lat="45.62074944509279" lon="11.353554301269993"><ele>360.4</ele><time>2026-04-08T16:57:55Z</time></trkpt><trkpt lat="45.62066943638049" lon="11.353591428771074"><ele>359.8</ele><time>2026-04-08T16:57:56Z</time></trkpt><trkpt lat="45.62060605452813" lon="11.353624200065797"><ele>359.2</ele><time>2026-04-08T16:57:57Z</time></trkpt><trkpt lat="45.62050190955167" lon="11.353768061471662"><ele>358.59999999999997</ele><time>2026-04-08T16:57:59Z</time></trkpt><trkpt lat="45.62044638416925" lon="11.353860461789347"><ele>358.0</ele><time>2026-04-08T16:58:00Z</time></trkpt><trkpt lat="45.62037296702003" lon="11.353981303982627"><ele>358.4</ele><time>2026-04-08T16:58:01Z</time></trkpt><trkpt lat="45.62030509255984" lon="11.354105348536955"><ele>358.79999999999995</ele><time>2026-04-08T16:58:02Z</time></trkpt><trkpt lat="45.62024371978389" lon="11.354225244000437"><ele>359.2</ele><time>2026-04-08T16:58:03Z</time></trkpt><trkpt lat="45.620175003733706" lon="11.354331466642812"><ele>359.6</ele><time>2026-04-08T16:58:04Z</time></trkpt><trkpt lat="45.62012474418963" lon="11.354441542365565"><ele>360.0</ele><time>2026-04-08T16:58:05Z</time></trkpt><trkpt lat="45.620077682015676" lon="11.35454522832478"><ele>360.0</ele><time>2026-04-08T16:58:06Z</time></trkpt><trkpt lat="45.62002333446772" lon="11.354670149553804"><ele>360.0</ele><time>2026-04-08T16:58:07Z</time></trkpt><trkpt lat="45.61997343967285" lon="11.354777088245411"><ele>360.0</ele><time>2026-04-08T16:58:08Z</time></trkpt><trkpt lat="45.61993005126975" lon="11.354869026025664"><ele>360.0</ele><time>2026-04-08T16:58:09Z</time></trkpt><trkpt lat="45.619896585305746" lon="11.354967394552713"><ele>360.0</ele><time>2026-04-08T16:58:10Z</time></trkpt><trkpt lat="45.61987291090621" lon="11.35507210673344"><ele>360.0</ele><time>2026-04-08T16:58:11Z</time></trkpt><trkpt lat="45.61989605794524" lon="11.35519546942331"><ele>360.3333333333333</ele><time>2026-04-08T16:58:12Z</time></trkpt><trkpt lat="45.619893606143954" lon="11.355303620707176"><ele>360.6666666666667</ele><time>2026-04-08T16:58:13Z</time></trkpt><trkpt lat="45.61984711817207" lon="11.355467741333944"><ele>361.0</ele><time>2026-04-08T16:58:15Z</time></trkpt><trkpt lat="45.6197975678987" lon="11.355524979008356"><ele>361.33333333333337</ele><time>2026-04-08T16:58:16Z</time></trkpt><trkpt lat="45.61970130194386" lon="11.355516286444333"><ele>361.6666666666667</ele><time>2026-04-08T16:58:17Z</time></trkpt><trkpt lat="45.61962947813563" lon="11.355560470266623"><ele>362.0</ele><time>2026-04-08T16:58:18Z</time></trkpt><trkpt lat="45.61955561850165" lon="11.355636685841295"><ele>363.20000000000005</ele><time>2026-04-08T16:58:19Z</time></trkpt><trkpt lat="45.61948130454076" lon="11.355697449268838"><ele>364.4</ele><time>2026-04-08T16:58:20Z</time></trkpt><trkpt lat="45.619391792603366" lon="11.355772123856163"><ele>365.6</ele><time>2026-04-08T16:58:21Z</time></trkpt><trkpt lat="45.61929111445533" lon="11.355821024598558"><ele>366.79999999999995</ele><time>2026-04-08T16:58:22Z</time></trkpt><trkpt lat="45.6192023465901" lon="11.355863886747159"><ele>368.0</ele><time>2026-04-08T16:58:23Z</time></trkpt><trkpt lat="45.61913509670415" lon="11.355871159579186"><ele>368.0</ele><time>2026-04-08T16:58:24Z</time></trkpt><trkpt lat="45.618996046648604" lon="11.355846752235669"><ele>368.0</ele><time>2026-04-08T16:58:26Z</time></trkpt><trkpt lat="45.6189111872468" lon="11.355836328470783"><ele>368.0</ele><time>2026-04-08T16:58:27Z</time></trkpt><trkpt lat="45.61880472033476" lon="11.355828703064502"><ele>368.0</ele><time>2026-04-08T16:58:28Z</time></trkpt><trkpt lat="45.618704917931886" lon="11.355854876389918"><ele>368.0</ele><time>2026-04-08T16:58:29Z</time></trkpt><trkpt lat="45.61861818200463" lon="11.355874023951518"><ele>367.83333333333337</ele><time>2026-04-08T16:58:30Z</time></trkpt><trkpt lat="45.61854473272092" lon="11.355911654750873"><ele>367.6666666666667</ele><time>2026-04-08T16:58:31Z</time></trkpt><trkpt lat="45.61845789892529" lon="11.355957392850593"><ele>367.5</ele><time>2026-04-08T16:58:32Z</time></trkpt><trkpt lat="45.61835712075264" lon="11.356011390353567"><ele>367.3333333333333</ele><time>2026-04-08T16:58:33Z</time></trkpt><trkpt lat="45.61828406511479" lon="11.356042089113872"><ele>367.16666666666663</ele><time>2026-04-08T16:58:34Z</time></trkpt><trkpt lat="45.618215825479496" lon="11.35604093638778"><ele>367.0</ele><time>2026-04-08T16:58:35Z</time></trkpt><trkpt lat="45.618099079809575" lon="11.356044103149749"><ele>367.0</ele><time>2026-04-08T16:58:37Z</time></trkpt><trkpt lat="45.617984151970084" lon="11.355950798632476"><ele>367.0</ele><time>2026-04-08T16:58:39Z</time></trkpt><trkpt lat="45.617886783265185" lon="11.355877884333605"><ele>367.0</ele><time>2026-04-08T16:58:40Z</time></trkpt><trkpt lat="45.61779091051533" lon="11.355808914087968"><ele>367.0</ele><time>2026-04-08T16:58:41Z</time></trkpt><trkpt lat="45.61768946033677" lon="11.355759486230097"><ele>369.0</ele><time>2026-04-08T16:58:42Z</time></trkpt><trkpt lat="45.617590377940424" lon="11.355678529927339"><ele>371.0</ele><time>2026-04-08T16:58:43Z</time></trkpt><trkpt lat="45.617503396987225" lon="11.355620229528347"><ele>373.0</ele><time>2026-04-08T16:58:44Z</time></trkpt><trkpt lat="45.617423529744904" lon="11.355564538743252"><ele>375.0</ele><time>2026-04-08T16:58:45Z</time></trkpt><trkpt lat="45.61734213792175" lon="11.355502338575926"><ele>377.0</ele><time>2026-04-08T16:58:46Z</time></trkpt><trkpt lat="45.61725951663535" lon="11.3554299057554"><ele>372.8</ele><time>2026-04-08T16:58:47Z</time></trkpt><trkpt lat="45.6171821294717" lon="11.35534389528184"><ele>368.6</ele><time>2026-04-08T16:58:48Z</time></trkpt><trkpt lat="45.61709245739073" lon="11.35528898274677"><ele>364.40000000000003</ele><time>2026-04-08T16:58:49Z</time></trkpt><trkpt lat="45.617018253900454" lon="11.355215140632048"><ele>360.20000000000005</ele><time>2026-04-08T16:58:50Z</time></trkpt><trkpt lat="45.616930418939646" lon="11.355143845676222"><ele>356.0</ele><time>2026-04-08T16:58:51Z</time></trkpt><trkpt lat="45.616862399122546" lon="11.35506866191709"><ele>356.0</ele><time>2026-04-08T16:58:52Z</time></trkpt><trkpt lat="45.616796263574074" lon="11.354992398014009"><ele>356.0</ele><time>2026-04-08T16:58:53Z</time></trkpt><trkpt lat="45.61674642912198" lon="11.354928865172614"><ele>356.0</ele><time>2026-04-08T16:58:54Z</time></trkpt><trkpt lat="45.61670014717102" lon="11.354854251427117"><ele>356.0</ele><time>2026-04-08T16:58:55Z</time></trkpt><trkpt lat="45.616655275606995" lon="11.354777355253859"><ele>356.0</ele><time>2026-04-08T16:58:56Z</time></trkpt><trkpt lat="45.616607135649176" lon="11.354651261189307"><ele>356.0</ele><time>2026-04-08T16:58:58Z</time></trkpt><trkpt lat="45.61656387618142" lon="11.354542043392911"><ele>353.5</ele><time>2026-04-08T16:59:01Z</time></trkpt><trkpt lat="45.61650781189643" lon="11.354453226842677"><ele>351.0</ele><time>2026-04-08T16:59:03Z</time></trkpt><trkpt lat="45.616315294557495" lon="11.354535647310495"><ele>348.5</ele><time>2026-04-08T16:59:04Z</time></trkpt><trkpt lat="45.616215359562794" lon="11.354561879206681"><ele>346.0</ele><time>2026-04-08T16:59:06Z</time></trkpt><trkpt lat="45.61610723664387" lon="11.354707520492262"><ele>349.0</ele><time>2026-04-08T16:59:08Z</time></trkpt><trkpt lat="45.61602691086124" lon="11.354785220985292"><ele>352.0</ele><time>2026-04-08T16:59:10Z</time></trkpt><trkpt lat="45.61593774442424" lon="11.354705370159465"><ele>355.0</ele><time>2026-04-08T16:59:12Z</time></trkpt><trkpt lat="45.61585321085709" lon="11.35458057620927"><ele>358.0</ele><time>2026-04-08T16:59:14Z</time></trkpt><trkpt lat="45.615798935173515" lon="11.35452059762563"><ele>361.0</ele><time>2026-04-08T16:59:15Z</time></trkpt><trkpt lat="45.61574970539196" lon="11.354464151518124"><ele>361.0</ele><time>2026-04-08T16:59:16Z</time></trkpt><trkpt lat="45.615692345523925" lon="11.354406406098903"><ele>361.0</ele><time>2026-04-08T16:59:17Z</time></trkpt><trkpt lat="45.615601934038715" lon="11.354337378243233"><ele>361.0</ele><time>2026-04-08T16:59:18Z</time></trkpt><trkpt lat="45.615523183188316" lon="11.354260107515787"><ele>361.0</ele><time>2026-04-08T16:59:19Z</time></trkpt><trkpt lat="45.61538127135859" lon="11.354200886601483"><ele>361.0</ele><time>2026-04-08T16:59:21Z</time></trkpt><trkpt lat="45.615298489073034" lon="11.35415992279922"><ele>361.0</ele><time>2026-04-08T16:59:22Z</time></trkpt><trkpt lat="45.61521450630982" lon="11.354116450600399"><ele>361.0</ele><time>2026-04-08T16:59:23Z</time></trkpt><trkpt lat="45.61511572052668" lon="11.354012493274766"><ele>361.0</ele><time>2026-04-08T16:59:25Z</time></trkpt><trkpt lat="45.61506137808276" lon="11.353952257718504"><ele>361.0</ele><time>2026-04-08T16:59:26Z</time></trkpt><trkpt lat="45.61498413085779" lon="11.353897986929505"><ele>361.0</ele><time>2026-04-08T16:59:27Z</time></trkpt><trkpt lat="45.61491246386753" lon="11.353862752696024"><ele>361.0</ele><time>2026-04-08T16:59:28Z</time></trkpt><trkpt lat="45.61479763707248" lon="11.353806703686065"><ele>361.0</ele><time>2026-04-08T16:59:30Z</time></trkpt><trkpt lat="45.61474586671882" lon="11.353736081719855"><ele>361.0</ele><time>2026-04-08T16:59:31Z</time></trkpt><trkpt lat="45.61464826005244" lon="11.353653091679934"><ele>361.0</ele><time>2026-04-08T16:59:33Z</time></trkpt><trkpt lat="45.61458345074211" lon="11.353620314885436"><ele>361.0</ele><time>2026-04-08T16:59:34Z</time></trkpt><trkpt lat="45.61451867139152" lon="11.353575259292572"><ele>361.0</ele><time>2026-04-08T16:59:35Z</time></trkpt><trkpt lat="45.61445293175658" lon="11.353547333863853"><ele>361.0</ele><time>2026-04-08T16:59:36Z</time></trkpt><trkpt lat="45.61437922959795" lon="11.353523842742094"><ele>363.5</ele><time>2026-04-08T16:59:38Z</time></trkpt><trkpt lat="45.61431220688305" lon="11.353515026881743"><ele>366.0</ele><time>2026-04-08T16:59:40Z</time></trkpt><trkpt lat="45.614215106315534" lon="11.353497398475158"><ele>368.5</ele><time>2026-04-08T16:59:42Z</time></trkpt><trkpt lat="45.61412570404395" lon="11.353486671171307"><ele>371.0</ele><time>2026-04-08T16:59:44Z</time></trkpt><trkpt lat="45.614040746511186" lon="11.353485442345711"><ele>373.5</ele><time>2026-04-08T16:59:46Z</time></trkpt><trkpt lat="45.61396159518546" lon="11.353502153326096"><ele>376.0</ele><time>2026-04-08T16:59:48Z</time></trkpt><trkpt lat="45.61387509030931" lon="11.353511905478362"><ele>376.0</ele><time>2026-04-08T16:59:50Z</time></trkpt><trkpt lat="45.61377606649822" lon="11.353493717178164"><ele>376.0</ele><time>2026-04-08T16:59:52Z</time></trkpt><trkpt lat="45.613664525581605" lon="11.35343735715742"><ele>376.0</ele><time>2026-04-08T16:59:54Z</time></trkpt><trkpt lat="45.6135700704807" lon="11.35344415503938"><ele>376.0</ele><time>2026-04-08T16:59:56Z</time></trkpt><trkpt lat="45.61350274299725" lon="11.353541016807933"><ele>376.0</ele><time>2026-04-08T16:59:58Z</time></trkpt><trkpt lat="45.61347177792128" lon="11.353639741890412"><ele>375.0</ele><time>2026-04-08T17:00:00Z</time></trkpt><trkpt lat="45.613413157170584" lon="11.353718055749502"><ele>374.0</ele><time>2026-04-08T17:00:02Z</time></trkpt><trkpt lat="45.61343198987874" lon="11.35381009105571"><ele>373.0</ele><time>2026-04-08T17:00:05Z</time></trkpt><trkpt lat="45.61348092524509" lon="11.353884092785647"><ele>372.0</ele><time>2026-04-08T17:00:07Z</time></trkpt><trkpt lat="45.613585537122965" lon="11.353926998085097"><ele>371.0</ele><time>2026-04-08T17:00:09Z</time></trkpt><trkpt lat="45.61367726118224" lon="11.354005502180682"><ele>370.0</ele><time>2026-04-08T17:00:11Z</time></trkpt><trkpt lat="45.61373861046362" lon="11.354037167152008"><ele>370.0</ele><time>2026-04-08T17:00:12Z</time></trkpt><trkpt lat="45.61379974579876" lon="11.354140606587206"><ele>370.0</ele><time>2026-04-08T17:00:14Z</time></trkpt><trkpt lat="45.61381530305214" lon="11.354270575468268"><ele>370.0</ele><time>2026-04-08T17:00:16Z</time></trkpt><trkpt lat="45.61380184749456" lon="11.354366715524266"><ele>370.0</ele><time>2026-04-08T17:00:17Z</time></trkpt><trkpt lat="45.61378872424983" lon="11.354475396227476"><ele>370.0</ele><time>2026-04-08T17:00:18Z</time></trkpt><trkpt lat="45.61379949103678" lon="11.354584699443352"><ele>370.0</ele><time>2026-04-08T17:00:19Z</time></trkpt><trkpt lat="45.61380536104227" lon="11.354674887812186"><ele>368.6</ele><time>2026-04-08T17:00:20Z</time></trkpt><trkpt lat="45.613820233912186" lon="11.354793847707308"><ele>367.2</ele><time>2026-04-08T17:00:21Z</time></trkpt><trkpt lat="45.61381237176953" lon="11.354891643878924"><ele>365.79999999999995</ele><time>2026-04-08T17:00:22Z</time></trkpt><trkpt lat="45.61379320392035" lon="11.355064950401516"><ele>364.4</ele><time>2026-04-08T17:00:24Z</time></trkpt><trkpt lat="45.61380644068952" lon="11.355221777694204"><ele>363.0</ele><time>2026-04-08T17:00:26Z</time></trkpt><trkpt lat="45.613796762313754" lon="11.355357215239833"><ele>363.0</ele><time>2026-04-08T17:00:28Z</time></trkpt><trkpt lat="45.61381425248848" lon="11.355487001992541"><ele>363.0</ele><time>2026-04-08T17:00:30Z</time></trkpt><trkpt lat="45.61386195181848" lon="11.355562047571961"><ele>363.0</ele><time>2026-04-08T17:00:32Z</time></trkpt><trkpt lat="45.613913907084225" lon="11.355626079438743"><ele>363.0</ele><time>2026-04-08T17:00:33Z</time></trkpt><trkpt lat="45.61393276923055" lon="11.355718099262296"><ele>363.0</ele><time>2026-04-08T17:00:35Z</time></trkpt><trkpt lat="45.61392969041617" lon="11.355867820202667"><ele>363.0</ele><time>2026-04-08T17:00:37Z</time></trkpt><trkpt lat="45.61393881296522" lon="11.355998347051335"><ele>362.8333333333333</ele><time>2026-04-08T17:00:39Z</time></trkpt><trkpt lat="45.61390379821047" lon="11.356148802457463"><ele>362.6666666666667</ele><time>2026-04-08T17:00:41Z</time></trkpt><trkpt lat="45.61387776691844" lon="11.356282005441264"><ele>362.5</ele><time>2026-04-08T17:00:43Z</time></trkpt><trkpt lat="45.613868343713406" lon="11.356379619470605"><ele>362.33333333333337</ele><time>2026-04-08T17:00:44Z</time></trkpt><trkpt lat="45.613861923214074" lon="11.356487033207042"><ele>362.1666666666667</ele><time>2026-04-08T17:00:46Z</time></trkpt><trkpt lat="45.613858477821125" lon="11.356597632389645"><ele>362.0</ele><time>2026-04-08T17:00:47Z</time></trkpt><trkpt lat="45.6138675511183" lon="11.356709412064555"><ele>362.0</ele><time>2026-04-08T17:00:48Z</time></trkpt><trkpt lat="45.613869061355956" lon="11.35680625755185"><ele>362.0</ele><time>2026-04-08T17:00:49Z</time></trkpt><trkpt lat="45.613893087856916" lon="11.356976039865746"><ele>362.0</ele><time>2026-04-08T17:00:51Z</time></trkpt><trkpt lat="45.61389298303813" lon="11.357157664722761"><ele>362.0</ele><time>2026-04-08T17:00:53Z</time></trkpt><trkpt lat="45.61387933812151" lon="11.35726211744609"><ele>362.0</ele><time>2026-04-08T17:00:54Z</time></trkpt><trkpt lat="45.613868841655645" lon="11.357423898541132"><ele>364.0</ele><time>2026-04-08T17:00:56Z</time></trkpt><trkpt lat="45.6138549166737" lon="11.357524585783668"><ele>366.0</ele><time>2026-04-08T17:00:57Z</time></trkpt><trkpt lat="45.61382575551037" lon="11.357625127924063"><ele>368.0</ele><time>2026-04-08T17:00:58Z</time></trkpt><trkpt lat="45.61379463640433" lon="11.35770932889473"><ele>370.0</ele><time>2026-04-08T17:00:59Z</time></trkpt><trkpt lat="45.61376203376589" lon="11.357915601487768"><ele>372.0</ele><time>2026-04-08T17:01:01Z</time></trkpt><trkpt lat="45.613734521507176" lon="11.358014002673897"><ele>374.0</ele><time>2026-04-08T17:01:02Z</time></trkpt><trkpt lat="45.61369920244205" lon="11.358101569357187"><ele>368.0</ele><time>2026-04-08T17:01:03Z</time></trkpt><trkpt lat="45.61360540898125" lon="11.358209332661854"><ele>362.0</ele><time>2026-04-08T17:01:05Z</time></trkpt><trkpt lat="45.613539431203755" lon="11.358245833778701"><ele>356.0</ele><time>2026-04-08T17:01:06Z</time></trkpt><trkpt lat="45.6134292450745" lon="11.358290701922009"><ele>350.0</ele><time>2026-04-08T17:01:08Z</time></trkpt><trkpt lat="45.61335058324733" lon="11.358356571494014"><ele>344.0</ele><time>2026-04-08T17:01:10Z</time></trkpt><trkpt lat="45.61329212633042" lon="11.35840813897509"><ele>344.0</ele><time>2026-04-08T17:01:12Z</time></trkpt><trkpt lat="45.61323429670936" lon="11.358330546525082"><ele>344.0</ele><time>2026-04-08T17:01:14Z</time></trkpt><trkpt lat="45.61320567069896" lon="11.358226647705457"><ele>344.0</ele><time>2026-04-08T17:01:15Z</time></trkpt><trkpt lat="45.61316492937594" lon="11.358130694208262"><ele>344.0</ele><time>2026-04-08T17:01:16Z</time></trkpt><trkpt lat="45.613117053585526" lon="11.358046161855123"><ele>344.0</ele><time>2026-04-08T17:01:17Z</time></trkpt><trkpt lat="45.61302065213624" lon="11.357935920333203"><ele>344.0</ele><time>2026-04-08T17:01:19Z</time></trkpt><trkpt lat="45.612952790659435" lon="11.357875395865788"><ele>342.33333333333337</ele><time>2026-04-08T17:01:20Z</time></trkpt><trkpt lat="45.612893996794945" lon="11.357809103622104"><ele>340.6666666666667</ele><time>2026-04-08T17:01:21Z</time></trkpt><trkpt lat="45.6128434600875" lon="11.35774329989595"><ele>339.0</ele><time>2026-04-08T17:01:22Z</time></trkpt><trkpt lat="45.612793434820894" lon="11.35767187091058"><ele>337.3333333333333</ele><time>2026-04-08T17:01:23Z</time></trkpt><trkpt lat="45.61275777754037" lon="11.357583782033123"><ele>335.66666666666663</ele><time>2026-04-08T17:01:24Z</time></trkpt><trkpt lat="45.612721351845025" lon="11.357493808999964"><ele>334.0</ele><time>2026-04-08T17:01:25Z</time></trkpt><trkpt lat="45.612682900246426" lon="11.35736180317652"><ele>328.5</ele><time>2026-04-08T17:01:27Z</time></trkpt><trkpt lat="45.61272331683483" lon="11.357279355783614"><ele>323.0</ele><time>2026-04-08T17:01:29Z</time></trkpt><trkpt lat="45.61261851200897" lon="11.357600321564698"><ele>317.5</ele><time>2026-04-08T17:01:32Z</time></trkpt><trkpt lat="45.612605009946726" lon="11.357741796343674"><ele>312.0</ele><time>2026-04-08T17:01:33Z</time></trkpt><trkpt lat="45.61258323822679" lon="11.357881534676165"><ele>312.0</ele><time>2026-04-08T17:01:34Z</time></trkpt><trkpt lat="45.61256203482971" lon="11.35801288348392"><ele>312.0</ele><time>2026-04-08T17:01:35Z</time></trkpt><trkpt lat="45.612547427945344" lon="11.35812138024324"><ele>312.0</ele><time>2026-04-08T17:01:36Z</time></trkpt><trkpt lat="45.612552784051786" lon="11.358317667626068"><ele>312.0</ele><time>2026-04-08T17:01:38Z</time></trkpt><trkpt lat="45.6125776637329" lon="11.358403890004736"><ele>312.0</ele><time>2026-04-08T17:01:39Z</time></trkpt><trkpt lat="45.61258546729251" lon="11.358548053411726"><ele>312.0</ele><time>2026-04-08T17:01:40Z</time></trkpt><trkpt lat="45.61259267136989" lon="11.35865766840687"><ele>312.0</ele><time>2026-04-08T17:01:41Z</time></trkpt><trkpt lat="45.612607962773104" lon="11.358762399911747"><ele>312.0</ele><time>2026-04-08T17:01:42Z</time></trkpt><trkpt lat="45.61262734370413" lon="11.358857363713183"><ele>312.0</ele><time>2026-04-08T17:01:43Z</time></trkpt><trkpt lat="45.61264461712933" lon="11.358962983827363"><ele>312.0</ele><time>2026-04-08T17:01:44Z</time></trkpt><trkpt lat="45.612656680444694" lon="11.359059076120605"><ele>312.0</ele><time>2026-04-08T17:01:45Z</time></trkpt><trkpt lat="45.61263553347022" lon="11.359221742633006"><ele>311.2</ele><time>2026-04-08T17:01:47Z</time></trkpt><trkpt lat="45.61266150278164" lon="11.359391202088707"><ele>310.4</ele><time>2026-04-08T17:01:49Z</time></trkpt><trkpt lat="45.61271512380956" lon="11.359473957115775"><ele>309.6</ele><time>2026-04-08T17:01:50Z</time></trkpt><trkpt lat="45.61274909630014" lon="11.359571943914286"><ele>308.8</ele><time>2026-04-08T17:01:51Z</time></trkpt><trkpt lat="45.612760086193944" lon="11.359667722077608"><ele>308.0</ele><time>2026-04-08T17:01:52Z</time></trkpt><trkpt lat="45.61274307579902" lon="11.359872793248336"><ele>306.83333333333337</ele><time>2026-04-08T17:01:54Z</time></trkpt><trkpt lat="45.61272675232021" lon="11.35999384699422"><ele>305.6666666666667</ele><time>2026-04-08T17:01:55Z</time></trkpt><trkpt lat="45.612720269670874" lon="11.360093852480084"><ele>304.5</ele><time>2026-04-08T17:01:56Z</time></trkpt><trkpt lat="45.61271249405701" lon="11.360206224210344"><ele>303.3333333333333</ele><time>2026-04-08T17:01:57Z</time></trkpt><trkpt lat="45.612711826728166" lon="11.360333778245083"><ele>302.16666666666663</ele><time>2026-04-08T17:01:58Z</time></trkpt><trkpt lat="45.61271005216657" lon="11.3604579891285"><ele>301.0</ele><time>2026-04-08T17:01:59Z</time></trkpt><trkpt lat="45.612696093543995" lon="11.360587620460334"><ele>300.42857142857144</ele><time>2026-04-08T17:02:00Z</time></trkpt><trkpt lat="45.61267775864814" lon="11.36067533144842"><ele>299.8571428571429</ele><time>2026-04-08T17:02:01Z</time></trkpt><trkpt lat="45.61265306510915" lon="11.36077991682785"><ele>299.2857142857143</ele><time>2026-04-08T17:02:02Z</time></trkpt><trkpt lat="45.61262439606682" lon="11.36088288684065"><ele>298.7142857142857</ele><time>2026-04-08T17:02:03Z</time></trkpt><trkpt lat="45.61258206435083" lon="11.360975434652502"><ele>298.14285714285717</ele><time>2026-04-08T17:02:04Z</time></trkpt><trkpt lat="45.61253221334837" lon="11.361036863463006"><ele>297.57142857142856</ele><time>2026-04-08T17:02:05Z</time></trkpt><trkpt lat="45.61248303701069" lon="11.361109456402174"><ele>297.0</ele><time>2026-04-08T17:02:06Z</time></trkpt><trkpt lat="45.61245602040146" lon="11.361220215061493"><ele>297.0</ele><time>2026-04-08T17:02:07Z</time></trkpt><trkpt lat="45.61239944363019" lon="11.361327956264153"><ele>297.0</ele><time>2026-04-08T17:02:08Z</time></trkpt><trkpt lat="45.612300599618486" lon="11.361466873210082"><ele>297.0</ele><time>2026-04-08T17:02:10Z</time></trkpt><trkpt lat="45.61223647169887" lon="11.361565343280773"><ele>297.0</ele><time>2026-04-08T17:02:11Z</time></trkpt><trkpt lat="45.612182033790376" lon="11.361651323232701"><ele>297.0</ele><time>2026-04-08T17:02:12Z</time></trkpt><trkpt lat="45.61213419808556" lon="11.361729809487796"><ele>296.0</ele><time>2026-04-08T17:02:13Z</time></trkpt><trkpt lat="45.61209251238849" lon="11.361804679650731"><ele>295.0</ele><time>2026-04-08T17:02:14Z</time></trkpt><trkpt lat="45.61205505121961" lon="11.36189283914915"><ele>294.0</ele><time>2026-04-08T17:02:15Z</time></trkpt><trkpt lat="45.61202391939338" lon="11.361973791471854"><ele>293.0</ele><time>2026-04-08T17:02:16Z</time></trkpt><trkpt lat="45.61194744603328" lon="11.362101486348932"><ele>292.0</ele><time>2026-04-08T17:02:18Z</time></trkpt><trkpt lat="45.61190191578913" lon="11.362189211384067"><ele>291.0</ele><time>2026-04-08T17:02:19Z</time></trkpt><trkpt lat="45.61185795453926" lon="11.36229626887472"><ele>291.0</ele><time>2026-04-08T17:02:20Z</time></trkpt><trkpt lat="45.61182336131467" lon="11.362376993596698"><ele>291.0</ele><time>2026-04-08T17:02:21Z</time></trkpt><trkpt lat="45.61175539924118" lon="11.362485994232257"><ele>291.0</ele><time>2026-04-08T17:02:23Z</time></trkpt><trkpt lat="45.61167276224164" lon="11.362595768846726"><ele>291.0</ele><time>2026-04-08T17:02:25Z</time></trkpt><trkpt lat="45.611656670439636" lon="11.362738653092332"><ele>291.0</ele><time>2026-04-08T17:02:26Z</time></trkpt><trkpt lat="45.61160233619648" lon="11.3628401668694"><ele>291.0</ele><time>2026-04-08T17:02:27Z</time></trkpt><trkpt lat="45.61157451175152" lon="11.362965808819002"><ele>291.0</ele><time>2026-04-08T17:02:28Z</time></trkpt><trkpt lat="45.611536627901636" lon="11.363084765310925"><ele>291.0</ele><time>2026-04-08T17:02:29Z</time></trkpt><trkpt lat="45.611509932618475" lon="11.36321222006198"><ele>291.0</ele><time>2026-04-08T17:02:30Z</time></trkpt><trkpt lat="45.61149215294994" lon="11.363345161916442"><ele>291.0</ele><time>2026-04-08T17:02:31Z</time></trkpt><trkpt lat="45.61145880625124" lon="11.363472630980008"><ele>291.6</ele><time>2026-04-08T17:02:32Z</time></trkpt><trkpt lat="45.6114381626244" lon="11.363615427395912"><ele>292.20000000000005</ele><time>2026-04-08T17:02:33Z</time></trkpt><trkpt lat="45.61141513334507" lon="11.363748445181137"><ele>292.79999999999995</ele><time>2026-04-08T17:02:34Z</time></trkpt><trkpt lat="45.611398990970216" lon="11.363909795965075"><ele>293.4</ele><time>2026-04-08T17:02:35Z</time></trkpt><trkpt lat="45.61136065071475" lon="11.364064181554065"><ele>294.0</ele><time>2026-04-08T17:02:36Z</time></trkpt><trkpt lat="45.61133145663435" lon="11.364213202171332"><ele>294.0</ele><time>2026-04-08T17:02:37Z</time></trkpt><trkpt lat="45.61130537258628" lon="11.364347855831708"><ele>294.0</ele><time>2026-04-08T17:02:38Z</time></trkpt><trkpt lat="45.61128751072423" lon="11.364476524168847"><ele>294.0</ele><time>2026-04-08T17:02:39Z</time></trkpt><trkpt lat="45.611280633053894" lon="11.364607006802128"><ele>294.0</ele><time>2026-04-08T17:02:40Z</time></trkpt><trkpt lat="45.61128143826139" lon="11.364750972752917"><ele>294.0</ele><time>2026-04-08T17:02:41Z</time></trkpt><trkpt lat="45.61128391441877" lon="11.364893086084326"><ele>293.2</ele><time>2026-04-08T17:02:42Z</time></trkpt><trkpt lat="45.6112906365585" lon="11.365030956837407"><ele>292.4</ele><time>2026-04-08T17:02:43Z</time></trkpt><trkpt lat="45.611297936762355" lon="11.365167293184827"><ele>291.6</ele><time>2026-04-08T17:02:44Z</time></trkpt><trkpt lat="45.611312360388766" lon="11.365308649255619"><ele>290.8</ele><time>2026-04-08T17:02:45Z</time></trkpt><trkpt lat="45.61132744754281" lon="11.365438832767216"><ele>290.0</ele><time>2026-04-08T17:02:46Z</time></trkpt><trkpt lat="45.61132625799492" lon="11.365552660610428"><ele>289.6666666666667</ele><time>2026-04-08T17:02:47Z</time></trkpt><trkpt lat="45.611320039372245" lon="11.365657889003545"><ele>289.33333333333337</ele><time>2026-04-08T17:02:48Z</time></trkpt><trkpt lat="45.61125489530244" lon="11.365729635539946"><ele>289.0</ele><time>2026-04-08T17:02:49Z</time></trkpt><trkpt lat="45.611193361915674" lon="11.365797380196492"><ele>288.6666666666667</ele><time>2026-04-08T17:02:50Z</time></trkpt><trkpt lat="45.6111556988132" lon="11.36589399409301"><ele>288.3333333333333</ele><time>2026-04-08T17:02:51Z</time></trkpt><trkpt lat="45.61112039260421" lon="11.365983599922197"><ele>288.0</ele><time>2026-04-08T17:02:52Z</time></trkpt><trkpt lat="45.61115593537654" lon="11.36610737799904"><ele>288.0</ele><time>2026-04-08T17:02:53Z</time></trkpt><trkpt lat="45.61118097859696" lon="11.366209139486225"><ele>288.0</ele><time>2026-04-08T17:02:54Z</time></trkpt><trkpt lat="45.611204429299995" lon="11.366305494814519"><ele>288.0</ele><time>2026-04-08T17:02:55Z</time></trkpt><trkpt lat="45.611225903396054" lon="11.366397229190333"><ele>288.0</ele><time>2026-04-08T17:02:56Z</time></trkpt><trkpt lat="45.611253327811944" lon="11.366496275955413"><ele>288.0</ele><time>2026-04-08T17:02:57Z</time></trkpt><trkpt lat="45.61129232480674" lon="11.366599527538899"><ele>288.0</ele><time>2026-04-08T17:02:58Z</time></trkpt><trkpt lat="45.611352043424766" lon="11.36672637912078"><ele>286.2</ele><time>2026-04-08T17:02:59Z</time></trkpt><trkpt lat="45.61139972442177" lon="11.366829642518727"><ele>284.4</ele><time>2026-04-08T17:03:00Z</time></trkpt><trkpt lat="45.61142770101778" lon="11.36694590727814"><ele>282.59999999999997</ele><time>2026-04-08T17:03:01Z</time></trkpt><trkpt lat="45.61147678767953" lon="11.367077824528726"><ele>280.8</ele><time>2026-04-08T17:03:03Z</time></trkpt><trkpt lat="45.611414453278705" lon="11.36713850354406"><ele>279.0</ele><time>2026-04-08T17:03:07Z</time></trkpt><trkpt lat="45.61129160030685" lon="11.367137001846809"><ele>279.0</ele><time>2026-04-08T17:03:09Z</time></trkpt><trkpt lat="45.61121414730407" lon="11.367155963448694"><ele>279.0</ele><time>2026-04-08T17:03:10Z</time></trkpt><trkpt lat="45.611126976331704" lon="11.36720232602482"><ele>279.0</ele><time>2026-04-08T17:03:11Z</time></trkpt><trkpt lat="45.61101959441555" lon="11.367259543966897"><ele>279.0</ele><time>2026-04-08T17:03:12Z</time></trkpt><trkpt lat="45.610911250057086" lon="11.367330373256008"><ele>279.0</ele><time>2026-04-08T17:03:13Z</time></trkpt><trkpt lat="45.610815188546084" lon="11.367420594790838"><ele>278.0</ele><time>2026-04-08T17:03:14Z</time></trkpt><trkpt lat="45.610732344282525" lon="11.367513960391948"><ele>277.0</ele><time>2026-04-08T17:03:15Z</time></trkpt><trkpt lat="45.61065403778476" lon="11.367607963287501"><ele>276.0</ele><time>2026-04-08T17:03:16Z</time></trkpt><trkpt lat="45.61058937261433" lon="11.367684896073863"><ele>275.0</ele><time>2026-04-08T17:03:17Z</time></trkpt><trkpt lat="45.61050844468518" lon="11.367746601090058"><ele>274.0</ele><time>2026-04-08T17:03:18Z</time></trkpt><trkpt lat="45.61041527815133" lon="11.367790147213734"><ele>274.0</ele><time>2026-04-08T17:03:19Z</time></trkpt><trkpt lat="45.61032940707604" lon="11.367830634867683"><ele>274.0</ele><time>2026-04-08T17:03:20Z</time></trkpt><trkpt lat="45.610230124062504" lon="11.367853736223605"><ele>274.0</ele><time>2026-04-08T17:03:21Z</time></trkpt><trkpt lat="45.61013726401583" lon="11.367866223680016"><ele>274.0</ele><time>2026-04-08T17:03:22Z</time></trkpt><trkpt lat="45.61003832773056" lon="11.367863463645454"><ele>274.0</ele><time>2026-04-08T17:03:23Z</time></trkpt><trkpt lat="45.6099544300401" lon="11.367852463809895"><ele>275.0</ele><time>2026-04-08T17:03:24Z</time></trkpt><trkpt lat="45.60988900470518" lon="11.367807587268825"><ele>276.0</ele><time>2026-04-08T17:03:25Z</time></trkpt><trkpt lat="45.609824274541936" lon="11.367798101902338"><ele>277.0</ele><time>2026-04-08T17:03:26Z</time></trkpt><trkpt lat="45.60971529544095" lon="11.367747045412068"><ele>278.0</ele><time>2026-04-08T17:03:28Z</time></trkpt><trkpt lat="45.60965049275382" lon="11.367689039700583"><ele>279.0</ele><time>2026-04-08T17:03:30Z</time></trkpt><trkpt lat="45.60956254358708" lon="11.367870869339491"><ele>279.0</ele><time>2026-04-08T17:03:31Z</time></trkpt><trkpt lat="45.609494405919946" lon="11.36795958945227"><ele>279.0</ele><time>2026-04-08T17:03:32Z</time></trkpt><trkpt lat="45.60941568318515" lon="11.36801601330076"><ele>279.0</ele><time>2026-04-08T17:03:33Z</time></trkpt><trkpt lat="45.609353185361215" lon="11.368082592234803"><ele>279.0</ele><time>2026-04-08T17:03:34Z</time></trkpt><trkpt lat="45.60929809513086" lon="11.36814293921813"><ele>279.0</ele><time>2026-04-08T17:03:35Z</time></trkpt><trkpt lat="45.609237689780144" lon="11.368229214911775"><ele>279.0</ele><time>2026-04-08T17:03:36Z</time></trkpt><trkpt lat="45.60919002065246" lon="11.368339452441331"><ele>279.2</ele><time>2026-04-08T17:03:37Z</time></trkpt><trkpt lat="45.60918841262954" lon="11.368451463394457"><ele>279.4</ele><time>2026-04-08T17:03:38Z</time></trkpt><trkpt lat="45.60918984501034" lon="11.36857060523163"><ele>279.6</ele><time>2026-04-08T17:03:39Z</time></trkpt><trkpt lat="45.60920911124844" lon="11.36870394393267"><ele>279.8</ele><time>2026-04-08T17:03:40Z</time></trkpt><trkpt lat="45.60924165877602" lon="11.368842009871518"><ele>280.0</ele><time>2026-04-08T17:03:41Z</time></trkpt><trkpt lat="45.60927409447418" lon="11.368966938898016"><ele>282.0</ele><time>2026-04-08T17:03:42Z</time></trkpt><trkpt lat="45.609299518849475" lon="11.369056260895393"><ele>284.0</ele><time>2026-04-08T17:03:43Z</time></trkpt><trkpt lat="45.60933316295709" lon="11.369134362821"><ele>286.0</ele><time>2026-04-08T17:03:44Z</time></trkpt><trkpt lat="45.60938224220135" lon="11.369333953542073"><ele>288.0</ele><time>2026-04-08T17:03:46Z</time></trkpt><trkpt lat="45.60941266030511" lon="11.369509679795689"><ele>290.0</ele><time>2026-04-08T17:03:48Z</time></trkpt><trkpt lat="45.60942652581776" lon="11.3696029875322"><ele>290.4</ele><time>2026-04-08T17:03:49Z</time></trkpt><trkpt lat="45.60944277748685" lon="11.369710039722943"><ele>290.8</ele><time>2026-04-08T17:03:50Z</time></trkpt><trkpt lat="45.60947171706731" lon="11.369880075481591"><ele>291.2</ele><time>2026-04-08T17:03:52Z</time></trkpt><trkpt lat="45.60955106313241" lon="11.370042845360624"><ele>291.6</ele><time>2026-04-08T17:03:54Z</time></trkpt><trkpt lat="45.60962595298512" lon="11.370072392098589"><ele>292.0</ele><time>2026-04-08T17:03:55Z</time></trkpt><trkpt lat="45.60969676268693" lon="11.370163460604381"><ele>290.0</ele><time>2026-04-08T17:03:57Z</time></trkpt><trkpt lat="45.609688476355316" lon="11.370265262966383"><ele>288.0</ele><time>2026-04-08T17:03:59Z</time></trkpt><trkpt lat="45.60967921281502" lon="11.370401068410825"><ele>286.0</ele><time>2026-04-08T17:04:01Z</time></trkpt><trkpt lat="45.609667579275644" lon="11.370507243376707"><ele>284.0</ele><time>2026-04-08T17:04:02Z</time></trkpt><trkpt lat="45.60967068074273" lon="11.370605355740983"><ele>282.0</ele><time>2026-04-08T17:04:03Z</time></trkpt><trkpt lat="45.60960712092876" lon="11.370740633221605"><ele>280.0</ele><time>2026-04-08T17:04:05Z</time></trkpt><trkpt lat="45.60960756175685" lon="11.370877515129013"><ele>279.66666666666663</ele><time>2026-04-08T17:04:07Z</time></trkpt><trkpt lat="45.60956946387909" lon="11.371003263711177"><ele>279.3333333333333</ele><time>2026-04-08T17:04:09Z</time></trkpt><trkpt lat="45.609498799249515" lon="11.37109624559534"><ele>279.0</ele><time>2026-04-08T17:04:11Z</time></trkpt><trkpt lat="45.609411055977695" lon="11.371197540830432"><ele>278.6666666666667</ele><time>2026-04-08T17:04:13Z</time></trkpt><trkpt lat="45.609355913369605" lon="11.371263806514584"><ele>278.33333333333337</ele><time>2026-04-08T17:04:14Z</time></trkpt><trkpt lat="45.60929869086491" lon="11.37131120189151"><ele>278.0</ele><time>2026-04-08T17:04:15Z</time></trkpt><trkpt lat="45.60918230351886" lon="11.371383697225617"><ele>276.0</ele><time>2026-04-08T17:04:17Z</time></trkpt><trkpt lat="45.60911271947392" lon="11.37140007601655"><ele>274.0</ele><time>2026-04-08T17:04:18Z</time></trkpt><trkpt lat="45.60904155441863" lon="11.371411483225586"><ele>272.0</ele><time>2026-04-08T17:04:19Z</time></trkpt><trkpt lat="45.60893943639156" lon="11.371438366474687"><ele>270.0</ele><time>2026-04-08T17:04:21Z</time></trkpt><trkpt lat="45.60887166029311" lon="11.371454786094482"><ele>268.0</ele><time>2026-04-08T17:04:22Z</time></trkpt><trkpt lat="45.60879549389734" lon="11.371550447487019"><ele>266.0</ele><time>2026-04-08T17:04:24Z</time></trkpt><trkpt lat="45.608749428841676" lon="11.37170747097679"><ele>266.0</ele><time>2026-04-08T17:04:26Z</time></trkpt><trkpt lat="45.60874069559547" lon="11.371805493620375"><ele>266.0</ele><time>2026-04-08T17:04:28Z</time></trkpt><trkpt lat="45.608712129761486" lon="11.371914978872466"><ele>266.0</ele><time>2026-04-08T17:04:30Z</time></trkpt><trkpt lat="45.60862012250444" lon="11.371951208144312"><ele>266.0</ele><time>2026-04-08T17:04:32Z</time></trkpt><trkpt lat="45.60854458244384" lon="11.37195865819147"><ele>266.0</ele><time>2026-04-08T17:04:33Z</time></trkpt><trkpt lat="45.60847782487993" lon="11.371980063439862"><ele>266.0</ele><time>2026-04-08T17:04:34Z</time></trkpt><trkpt lat="45.608413022691096" lon="11.37200123429605"><ele>265.8</ele><time>2026-04-08T17:04:35Z</time></trkpt><trkpt lat="45.60830329650023" lon="11.371995111180855"><ele>265.6</ele><time>2026-04-08T17:04:37Z</time></trkpt><trkpt lat="45.608178330207814" lon="11.372006885368219"><ele>265.4</ele><time>2026-04-08T17:04:39Z</time></trkpt><trkpt lat="45.60805177662478" lon="11.371977443310913"><ele>265.2</ele><time>2026-04-08T17:04:41Z</time></trkpt><trkpt lat="45.60797953517665" lon="11.371958300452254"><ele>265.0</ele><time>2026-04-08T17:04:42Z</time></trkpt><trkpt lat="45.60791171314783" lon="11.371926152643812"><ele>265.0</ele><time>2026-04-08T17:04:43Z</time></trkpt><trkpt lat="45.60784860143609" lon="11.371883861623271"><ele>265.0</ele><time>2026-04-08T17:04:44Z</time></trkpt><trkpt lat="45.607738520751546" lon="11.371836233922796"><ele>265.0</ele><time>2026-04-08T17:04:46Z</time></trkpt><trkpt lat="45.60762529525517" lon="11.371830633657275"><ele>265.0</ele><time>2026-04-08T17:04:48Z</time></trkpt><trkpt lat="45.60752496456172" lon="11.371915095619956"><ele>265.0</ele><time>2026-04-08T17:04:50Z</time></trkpt><trkpt lat="45.60745755741186" lon="11.371964133659574"><ele>262.3333333333333</ele><time>2026-04-08T17:04:51Z</time></trkpt><trkpt lat="45.607334597520456" lon="11.372006296744216"><ele>259.66666666666663</ele><time>2026-04-08T17:04:53Z</time></trkpt><trkpt lat="45.60727107222439" lon="11.372013791881477"><ele>257.0</ele><time>2026-04-08T17:04:54Z</time></trkpt><trkpt lat="45.607199648791955" lon="11.372007219717375"><ele>254.33333333333331</ele><time>2026-04-08T17:04:56Z</time></trkpt><trkpt lat="45.607130323421686" lon="11.372000656816283"><ele>251.66666666666666</ele><time>2026-04-08T17:04:58Z</time></trkpt><trkpt lat="45.60702651138654" lon="11.371983438959084"><ele>249.0</ele><time>2026-04-08T17:05:00Z</time></trkpt><trkpt lat="45.6069250484617" lon="11.37196633708382"><ele>247.83333333333334</ele><time>2026-04-08T17:05:02Z</time></trkpt><trkpt lat="45.60685385687689" lon="11.37195486455648"><ele>246.66666666666669</ele><time>2026-04-08T17:05:04Z</time></trkpt><trkpt lat="45.606780521794626" lon="11.371950783746842"><ele>245.5</ele><time>2026-04-08T17:05:08Z</time></trkpt><trkpt lat="45.606673505942155" lon="11.371951614088449"><ele>244.33333333333334</ele><time>2026-04-08T17:05:11Z</time></trkpt><trkpt lat="45.60660085593938" lon="11.37195171335473"><ele>243.16666666666669</ele><time>2026-04-08T17:05:13Z</time></trkpt><trkpt lat="45.60651837998996" lon="11.371989373282725"><ele>242.0</ele><time>2026-04-08T17:05:15Z</time></trkpt><trkpt lat="45.606431197841104" lon="11.372014155279114"><ele>242.0</ele><time>2026-04-08T17:05:17Z</time></trkpt><trkpt lat="45.60631639850767" lon="11.372049585769853"><ele>242.0</ele><time>2026-04-08T17:05:19Z</time></trkpt><trkpt lat="45.606231196041996" lon="11.372074415924638"><ele>242.0</ele><time>2026-04-08T17:05:21Z</time></trkpt><trkpt lat="45.606159013888536" lon="11.372065873479931"><ele>242.0</ele><time>2026-04-08T17:05:23Z</time></trkpt><trkpt lat="45.60609559070968" lon="11.372105963469291"><ele>242.0</ele><time>2026-04-08T17:05:26Z</time></trkpt><trkpt lat="45.606045286151556" lon="11.372286924912874"><ele>240.50000000000003</ele><time>2026-04-08T17:05:28Z</time></trkpt><trkpt lat="45.60603717855992" lon="11.372423187895459"><ele>239.0</ele><time>2026-04-08T17:05:29Z</time></trkpt><trkpt lat="45.60602105551229" lon="11.37255005989565"><ele>237.5</ele><time>2026-04-08T17:05:30Z</time></trkpt><trkpt lat="45.60602228080129" lon="11.372661896820308"><ele>236.0</ele><time>2026-04-08T17:05:31Z</time></trkpt><trkpt lat="45.60602134748294" lon="11.372752094948607"><ele>234.50000000000003</ele><time>2026-04-08T17:05:32Z</time></trkpt><trkpt lat="45.60601289499097" lon="11.372855069070582"><ele>233.0</ele><time>2026-04-08T17:05:33Z</time></trkpt><trkpt lat="45.60600055681215" lon="11.372978417727964"><ele>232.8</ele><time>2026-04-08T17:05:34Z</time></trkpt><trkpt lat="45.60599575550002" lon="11.373123226477428"><ele>232.60000000000002</ele><time>2026-04-08T17:05:35Z</time></trkpt><trkpt lat="45.60599878179201" lon="11.37325381657841"><ele>232.39999999999998</ele><time>2026-04-08T17:05:36Z</time></trkpt><trkpt lat="45.606007138097716" lon="11.373376339443436"><ele>232.2</ele><time>2026-04-08T17:05:37Z</time></trkpt><trkpt lat="45.60602795331423" lon="11.373488794856222"><ele>232.0</ele><time>2026-04-08T17:05:38Z</time></trkpt><trkpt lat="45.6060609545523" lon="11.3736187516052"><ele>232.0</ele><time>2026-04-08T17:05:39Z</time></trkpt><trkpt lat="45.60607264048971" lon="11.373727478621246"><ele>232.0</ele><time>2026-04-08T17:05:40Z</time></trkpt><trkpt lat="45.60609430276216" lon="11.37384527778199"><ele>232.0</ele><time>2026-04-08T17:05:41Z</time></trkpt><trkpt lat="45.60609783887686" lon="11.373974394895754"><ele>232.0</ele><time>2026-04-08T17:05:42Z</time></trkpt><trkpt lat="45.60610129341016" lon="11.374094871623424"><ele>232.0</ele><time>2026-04-08T17:05:43Z</time></trkpt><trkpt lat="45.606092687374705" lon="11.374267098255716"><ele>230.99999999999997</ele><time>2026-04-08T17:05:45Z</time></trkpt><trkpt lat="45.6060363209639" lon="11.374378492756378"><ele>230.0</ele><time>2026-04-08T17:05:46Z</time></trkpt><trkpt lat="45.606007525303895" lon="11.374480742579873"><ele>229.0</ele><time>2026-04-08T17:05:47Z</time></trkpt><trkpt lat="45.60596615684117" lon="11.37458347670261"><ele>228.0</ele><time>2026-04-08T17:05:48Z</time></trkpt><trkpt lat="45.60591941013036" lon="11.374680383305284"><ele>226.99999999999997</ele><time>2026-04-08T17:05:49Z</time></trkpt><trkpt lat="45.60588236767805" lon="11.374768998437316"><ele>226.0</ele><time>2026-04-08T17:05:50Z</time></trkpt><trkpt lat="45.60583650566529" lon="11.374870753669972"><ele>225.83333333333331</ele><time>2026-04-08T17:05:51Z</time></trkpt><trkpt lat="45.605783931658685" lon="11.374965518118874"><ele>225.66666666666666</ele><time>2026-04-08T17:05:52Z</time></trkpt><trkpt lat="45.60571771782082" lon="11.375083470620462"><ele>225.5</ele><time>2026-04-08T17:05:53Z</time></trkpt><trkpt lat="45.60568145453015" lon="11.375183256918124"><ele>225.33333333333331</ele><time>2026-04-08T17:05:54Z</time></trkpt><trkpt lat="45.6056446302348" lon="11.375276504897858"><ele>225.16666666666666</ele><time>2026-04-08T17:05:55Z</time></trkpt><trkpt lat="45.605617699556106" lon="11.37536739677036"><ele>225.0</ele><time>2026-04-08T17:05:56Z</time></trkpt><trkpt lat="45.60553816924328" lon="11.375492188559708"><ele>225.0</ele><time>2026-04-08T17:05:58Z</time></trkpt><trkpt lat="45.60545123654013" lon="11.375496219364198"><ele>225.0</ele><time>2026-04-08T17:06:00Z</time></trkpt><trkpt lat="45.60541134301152" lon="11.375414726106518"><ele>225.0</ele><time>2026-04-08T17:06:01Z</time></trkpt><trkpt lat="45.60534080159886" lon="11.375377428329134"><ele>225.0</ele><time>2026-04-08T17:06:02Z</time></trkpt><trkpt lat="45.60524534406163" lon="11.375389492829228"><ele>225.0</ele><time>2026-04-08T17:06:04Z</time></trkpt><trkpt lat="45.60517587910082" lon="11.375516824765233"><ele>225.0</ele><time>2026-04-08T17:06:06Z</time></trkpt><trkpt lat="45.605124556435804" lon="11.375623698577046"><ele>224.16666666666666</ele><time>2026-04-08T17:06:08Z</time></trkpt><trkpt lat="45.60501924430482" lon="11.375578439090791"><ele>223.33333333333331</ele><time>2026-04-08T17:06:10Z</time></trkpt><trkpt lat="45.604962004134116" lon="11.375537444388666"><ele>222.5</ele><time>2026-04-08T17:06:11Z</time></trkpt><trkpt lat="45.60488565271444" lon="11.375501943675037"><ele>221.66666666666666</ele><time>2026-04-08T17:06:12Z</time></trkpt><trkpt lat="45.604812399663906" lon="11.37545790152395"><ele>220.83333333333331</ele><time>2026-04-08T17:06:13Z</time></trkpt><trkpt lat="45.60472986941913" lon="11.375429933067528"><ele>220.0</ele><time>2026-04-08T17:06:15Z</time></trkpt><trkpt lat="45.60466193866134" lon="11.375558074365596"><ele>218.99999999999997</ele><time>2026-04-08T17:06:17Z</time></trkpt><trkpt lat="45.60460432543763" lon="11.375674831137342"><ele>218.0</ele><time>2026-04-08T17:06:18Z</time></trkpt><trkpt lat="45.60455587354691" lon="11.375798944048306"><ele>217.0</ele><time>2026-04-08T17:06:19Z</time></trkpt><trkpt lat="45.60449628444686" lon="11.375870308261263"><ele>216.0</ele><time>2026-04-08T17:06:20Z</time></trkpt><trkpt lat="45.6044311785572" lon="11.375853630931928"><ele>214.99999999999997</ele><time>2026-04-08T17:06:21Z</time></trkpt><trkpt lat="45.60436167846065" lon="11.375864081124655"><ele>214.0</ele><time>2026-04-08T17:06:22Z</time></trkpt><trkpt lat="45.60428149993931" lon="11.375883963498724"><ele>211.16666666666666</ele><time>2026-04-08T17:06:23Z</time></trkpt><trkpt lat="45.60420242726613" lon="11.37587168998532"><ele>208.33333333333331</ele><time>2026-04-08T17:06:24Z</time></trkpt><trkpt lat="45.604116283537536" lon="11.375842760932294"><ele>205.5</ele><time>2026-04-08T17:06:25Z</time></trkpt><trkpt lat="45.60403390191436" lon="11.375804931883238"><ele>202.66666666666669</ele><time>2026-04-08T17:06:26Z</time></trkpt><trkpt lat="45.60394867160169" lon="11.375754800264492"><ele>199.83333333333334</ele><time>2026-04-08T17:06:27Z</time></trkpt><trkpt lat="45.603866896753146" lon="11.375698507712002"><ele>197.0</ele><time>2026-04-08T17:06:28Z</time></trkpt><trkpt lat="45.60378008851913" lon="11.375649616080151"><ele>197.0</ele><time>2026-04-08T17:06:29Z</time></trkpt><trkpt lat="45.603683084588305" lon="11.375601398424921"><ele>197.0</ele><time>2026-04-08T17:06:30Z</time></trkpt><trkpt lat="45.60358242726938" lon="11.375572104575232"><ele>197.0</ele><time>2026-04-08T17:06:31Z</time></trkpt><trkpt lat="45.60350015469444" lon="11.375578193643664"><ele>197.0</ele><time>2026-04-08T17:06:32Z</time></trkpt><trkpt lat="45.6034313024886" lon="11.37558594002738"><ele>197.0</ele><time>2026-04-08T17:06:33Z</time></trkpt><trkpt lat="45.603332316587924" lon="11.375600601843438"><ele>197.25</ele><time>2026-04-08T17:06:35Z</time></trkpt><trkpt lat="45.60323703258661" lon="11.37550581977926"><ele>197.5</ele><time>2026-04-08T17:06:37Z</time></trkpt><trkpt lat="45.60315513943502" lon="11.375417826070654"><ele>197.75</ele><time>2026-04-08T17:06:38Z</time></trkpt><trkpt lat="45.603044624185515" lon="11.375330841803684"><ele>198.0</ele><time>2026-04-08T17:06:39Z</time></trkpt><trkpt lat="45.60294668443032" lon="11.375256190886333"><ele>195.0</ele><time>2026-04-08T17:06:40Z</time></trkpt><trkpt lat="45.60283091665461" lon="11.375179446909502"><ele>192.0</ele><time>2026-04-08T17:06:41Z</time></trkpt><trkpt lat="45.60271500053059" lon="11.37510639494802"><ele>189.0</ele><time>2026-04-08T17:06:42Z</time></trkpt><trkpt lat="45.60263276549956" lon="11.375064104279085"><ele>186.0</ele><time>2026-04-08T17:06:43Z</time></trkpt><trkpt lat="45.60256606458492" lon="11.375031201050941"><ele>183.0</ele><time>2026-04-08T17:06:44Z</time></trkpt><trkpt lat="45.60250524344317" lon="11.374999283299793"><ele>183.0</ele><time>2026-04-08T17:06:45Z</time></trkpt><trkpt lat="45.602402650857925" lon="11.374933360291607"><ele>183.0</ele><time>2026-04-08T17:06:47Z</time></trkpt><trkpt lat="45.60234442649674" lon="11.374871762782298"><ele>183.0</ele><time>2026-04-08T17:06:48Z</time></trkpt><trkpt lat="45.60231454752243" lon="11.374761725500436"><ele>183.0</ele><time>2026-04-08T17:06:49Z</time></trkpt><trkpt lat="45.602275796725955" lon="11.37465636721345"><ele>183.0</ele><time>2026-04-08T17:06:50Z</time></trkpt><trkpt lat="45.60229527731224" lon="11.374494669602749"><ele>182.4</ele><time>2026-04-08T17:06:51Z</time></trkpt><trkpt lat="45.60229223872742" lon="11.374327967857868"><ele>181.8</ele><time>2026-04-08T17:06:52Z</time></trkpt><trkpt lat="45.60230508873167" lon="11.374179678286865"><ele>181.2</ele><time>2026-04-08T17:06:53Z</time></trkpt><trkpt lat="45.6023104903439" lon="11.374048299216685"><ele>180.6</ele><time>2026-04-08T17:06:54Z</time></trkpt><trkpt lat="45.602311272824686" lon="11.373896002409758"><ele>180.0</ele><time>2026-04-08T17:06:55Z</time></trkpt><trkpt lat="45.60228982996119" lon="11.373747472465034"><ele>179.6</ele><time>2026-04-08T17:06:56Z</time></trkpt><trkpt lat="45.60225250768577" lon="11.373614486950922"><ele>179.2</ele><time>2026-04-08T17:06:57Z</time></trkpt><trkpt lat="45.60221447362682" lon="11.373470723853488"><ele>178.8</ele><time>2026-04-08T17:06:58Z</time></trkpt><trkpt lat="45.60219480859302" lon="11.373314119411953"><ele>178.4</ele><time>2026-04-08T17:06:59Z</time></trkpt><trkpt lat="45.60218686089321" lon="11.373161377640233"><ele>178.0</ele><time>2026-04-08T17:07:00Z</time></trkpt><trkpt lat="45.60218721624503" lon="11.373008941861865"><ele>177.4</ele><time>2026-04-08T17:07:01Z</time></trkpt><trkpt lat="45.60218495826471" lon="11.3728612282309"><ele>176.8</ele><time>2026-04-08T17:07:02Z</time></trkpt><trkpt lat="45.60220389712477" lon="11.372713236726725"><ele>176.2</ele><time>2026-04-08T17:07:03Z</time></trkpt><trkpt lat="45.602267389013996" lon="11.372577651512934"><ele>175.6</ele><time>2026-04-08T17:07:04Z</time></trkpt><trkpt lat="45.602312134565466" lon="11.372429760604602"><ele>175.0</ele><time>2026-04-08T17:07:05Z</time></trkpt><trkpt lat="45.602335799335954" lon="11.372256219120333"><ele>174.25</ele><time>2026-04-08T17:07:06Z</time></trkpt><trkpt lat="45.60237074434491" lon="11.372100150431933"><ele>173.5</ele><time>2026-04-08T17:07:07Z</time></trkpt><trkpt lat="45.60240357307939" lon="11.371932695377918"><ele>172.75</ele><time>2026-04-08T17:07:08Z</time></trkpt><trkpt lat="45.602430761814716" lon="11.37175668290987"><ele>172.0</ele><time>2026-04-08T17:07:09Z</time></trkpt><trkpt lat="45.60245650281356" lon="11.371598090719486"><ele>172.0</ele><time>2026-04-08T17:07:10Z</time></trkpt><trkpt lat="45.602484947634686" lon="11.371473362704831"><ele>172.0</ele><time>2026-04-08T17:07:11Z</time></trkpt><trkpt lat="45.60253006621689" lon="11.37132474469147"><ele>172.0</ele><time>2026-04-08T17:07:12Z</time></trkpt><trkpt lat="45.60259310285351" lon="11.37119444321686"><ele>172.0</ele><time>2026-04-08T17:07:13Z</time></trkpt><trkpt lat="45.60267233546315" lon="11.371093113966168"><ele>172.0</ele><time>2026-04-08T17:07:14Z</time></trkpt><trkpt lat="45.602752243986174" lon="11.371003316181389"><ele>173.25</ele><time>2026-04-08T17:07:15Z</time></trkpt><trkpt lat="45.60283387583906" lon="11.37089678915674"><ele>174.5</ele><time>2026-04-08T17:07:16Z</time></trkpt><trkpt lat="45.60290452174816" lon="11.37078060594049"><ele>175.75</ele><time>2026-04-08T17:07:17Z</time></trkpt><trkpt lat="45.60297533622356" lon="11.370652103955685"><ele>177.0</ele><time>2026-04-08T17:07:18Z</time></trkpt><trkpt lat="45.603033076861784" lon="11.370503556373693"><ele>177.0</ele><time>2026-04-08T17:07:19Z</time></trkpt><trkpt lat="45.603077102265345" lon="11.370360182490437"><ele>177.0</ele><time>2026-04-08T17:07:20Z</time></trkpt><trkpt lat="45.60311349006218" lon="11.370231056204782"><ele>177.0</ele><time>2026-04-08T17:07:21Z</time></trkpt><trkpt lat="45.60314161289722" lon="11.370102198420968"><ele>177.0</ele><time>2026-04-08T17:07:22Z</time></trkpt><trkpt lat="45.60317796990693" lon="11.369966387369736"><ele>177.0</ele><time>2026-04-08T17:07:23Z</time></trkpt><trkpt lat="45.603221541601656" lon="11.369823066107141"><ele>176.6</ele><time>2026-04-08T17:07:24Z</time></trkpt><trkpt lat="45.60325795629242" lon="11.3696909284231"><ele>176.2</ele><time>2026-04-08T17:07:25Z</time></trkpt><trkpt lat="45.603278332096096" lon="11.369588338587635"><ele>175.8</ele><time>2026-04-08T17:07:26Z</time></trkpt><trkpt lat="45.60330463807215" lon="11.369498185905776"><ele>175.4</ele><time>2026-04-08T17:07:27Z</time></trkpt><trkpt lat="45.603326742403596" lon="11.369402493468034"><ele>175.0</ele><time>2026-04-08T17:07:29Z</time></trkpt><trkpt lat="45.60313286468214" lon="11.369339811047844"><ele>175.0</ele><time>2026-04-08T17:07:34Z</time></trkpt><trkpt lat="45.60305519856307" lon="11.369346580785823"><ele>175.0</ele><time>2026-04-08T17:07:35Z</time></trkpt><trkpt lat="45.602950585259755" lon="11.369340338314831"><ele>175.0</ele><time>2026-04-08T17:07:36Z</time></trkpt><trkpt lat="45.602849716498085" lon="11.369333531580235"><ele>175.0</ele><time>2026-04-08T17:07:37Z</time></trkpt><trkpt lat="45.602736326036414" lon="11.369323655152547"><ele>175.0</ele><time>2026-04-08T17:07:38Z</time></trkpt><trkpt lat="45.602619424476714" lon="11.36929721242154"><ele>173.0</ele><time>2026-04-08T17:07:39Z</time></trkpt><trkpt lat="45.60251459851646" lon="11.369265843939782"><ele>171.0</ele><time>2026-04-08T17:07:40Z</time></trkpt><trkpt lat="45.60239310543988" lon="11.369233320359056"><ele>169.0</ele><time>2026-04-08T17:07:41Z</time></trkpt><trkpt lat="45.60227713181043" lon="11.369190478700027"><ele>167.0</ele><time>2026-04-08T17:07:42Z</time></trkpt><trkpt lat="45.602168991899525" lon="11.369153129124003"><ele>167.0</ele><time>2026-04-08T17:07:43Z</time></trkpt><trkpt lat="45.602067958220886" lon="11.369118077043382"><ele>167.0</ele><time>2026-04-08T17:07:44Z</time></trkpt><trkpt lat="45.60197216938849" lon="11.369079467202974"><ele>167.0</ele><time>2026-04-08T17:07:45Z</time></trkpt><trkpt lat="45.60187745164746" lon="11.369026270217987"><ele>167.0</ele><time>2026-04-08T17:07:46Z</time></trkpt><trkpt lat="45.60179703904408" lon="11.368946826476915"><ele>167.0</ele><time>2026-04-08T17:07:47Z</time></trkpt><trkpt lat="45.60172807883968" lon="11.368845717664886"><ele>166.5</ele><time>2026-04-08T17:07:48Z</time></trkpt><trkpt lat="45.601663801093345" lon="11.3687245895862"><ele>166.0</ele><time>2026-04-08T17:07:49Z</time></trkpt><trkpt lat="45.60159698350308" lon="11.368589760995972"><ele>165.5</ele><time>2026-04-08T17:07:50Z</time></trkpt><trkpt lat="45.60153358886471" lon="11.368436175656703"><ele>165.0</ele><time>2026-04-08T17:07:51Z</time></trkpt><trkpt lat="45.601481656447916" lon="11.368276587320437"><ele>165.0</ele><time>2026-04-08T17:07:52Z</time></trkpt><trkpt lat="45.601406483118105" lon="11.368137367521161"><ele>165.0</ele><time>2026-04-08T17:07:53Z</time></trkpt><trkpt lat="45.60130087316646" lon="11.36806341553589"><ele>165.0</ele><time>2026-04-08T17:07:54Z</time></trkpt><trkpt lat="45.601213868775005" lon="11.367991511852633"><ele>165.0</ele><time>2026-04-08T17:07:55Z</time></trkpt><trkpt lat="45.601123326364046" lon="11.367921223260707"><ele>165.0</ele><time>2026-04-08T17:07:56Z</time></trkpt><trkpt lat="45.601032275213996" lon="11.36784897877578"><ele>165.0</ele><time>2026-04-08T17:07:57Z</time></trkpt><trkpt lat="45.60092877696329" lon="11.367768592870092"><ele>165.0</ele><time>2026-04-08T17:07:58Z</time></trkpt><trkpt lat="45.600817302013034" lon="11.367678027665328"><ele>165.0</ele><time>2026-04-08T17:07:59Z</time></trkpt><trkpt lat="45.600710202815435" lon="11.367584686076798"><ele>165.0</ele><time>2026-04-08T17:08:00Z</time></trkpt><trkpt lat="45.600610832723746" lon="11.367503411317422"><ele>165.0</ele><time>2026-04-08T17:08:01Z</time></trkpt><trkpt lat="45.600522091214266" lon="11.367426607298052"><ele>165.0</ele><time>2026-04-08T17:08:02Z</time></trkpt><trkpt lat="45.60044389819697" lon="11.36736149946441"><ele>165.0</ele><time>2026-04-08T17:08:03Z</time></trkpt><trkpt lat="45.60036180610599" lon="11.367297211640695"><ele>165.0</ele><time>2026-04-08T17:08:04Z</time></trkpt><trkpt lat="45.600282688764764" lon="11.367230795533734"><ele>165.0</ele><time>2026-04-08T17:08:05Z</time></trkpt><trkpt lat="45.60021085180759" lon="11.367152552971177"><ele>165.0</ele><time>2026-04-08T17:08:06Z</time></trkpt><trkpt lat="45.60013096828546" lon="11.367035643674303"><ele>165.0</ele><time>2026-04-08T17:08:07Z</time></trkpt><trkpt lat="45.60006066046633" lon="11.366947041392322"><ele>165.0</ele><time>2026-04-08T17:08:08Z</time></trkpt><trkpt lat="45.599964117375706" lon="11.366852691410145"><ele>165.0</ele><time>2026-04-08T17:08:09Z</time></trkpt><trkpt lat="45.59986874034323" lon="11.366771695519699"><ele>165.0</ele><time>2026-04-08T17:08:10Z</time></trkpt><trkpt lat="45.59977732454529" lon="11.36668661965715"><ele>165.0</ele><time>2026-04-08T17:08:11Z</time></trkpt><trkpt lat="45.59968109634997" lon="11.366596541639877"><ele>165.0</ele><time>2026-04-08T17:08:12Z</time></trkpt><trkpt lat="45.59957591492265" lon="11.366489440655183"><ele>165.0</ele><time>2026-04-08T17:08:13Z</time></trkpt><trkpt lat="45.59950382290066" lon="11.366428870397526"><ele>165.0</ele><time>2026-04-08T17:08:14Z</time></trkpt><trkpt lat="45.599404919261936" lon="11.366333009495925"><ele>165.0</ele><time>2026-04-08T17:08:15Z</time></trkpt><trkpt lat="45.599309336156" lon="11.366240739951705"><ele>165.16666666666666</ele><time>2026-04-08T17:08:16Z</time></trkpt><trkpt lat="45.59922393639719" lon="11.366156074286575"><ele>165.33333333333334</ele><time>2026-04-08T17:08:17Z</time></trkpt><trkpt lat="45.59915055199528" lon="11.366072577599043"><ele>165.5</ele><time>2026-04-08T17:08:18Z</time></trkpt><trkpt lat="45.59909083617694" lon="11.365996722160377"><ele>165.66666666666669</ele><time>2026-04-08T17:08:19Z</time></trkpt><trkpt lat="45.59904232325862" lon="11.365915905363913"><ele>165.83333333333334</ele><time>2026-04-08T17:08:20Z</time></trkpt><trkpt lat="45.59899801282661" lon="11.365795618145437"><ele>166.0</ele><time>2026-04-08T17:08:22Z</time></trkpt><trkpt lat="45.59900582624022" lon="11.365651266994771"><ele>165.83333333333334</ele><time>2026-04-08T17:08:26Z</time></trkpt><trkpt lat="45.59894098308003" lon="11.365510408096807"><ele>165.66666666666669</ele><time>2026-04-08T17:08:28Z</time></trkpt><trkpt lat="45.598903844729605" lon="11.365435563830092"><ele>165.5</ele><time>2026-04-08T17:08:29Z</time></trkpt><trkpt lat="45.598834757246735" lon="11.365438565461922"><ele>165.33333333333334</ele><time>2026-04-08T17:08:30Z</time></trkpt><trkpt lat="45.59876633176523" lon="11.365430423623124"><ele>165.16666666666666</ele><time>2026-04-08T17:08:31Z</time></trkpt><trkpt lat="45.59868425983246" lon="11.365447784257682"><ele>165.0</ele><time>2026-04-08T17:08:32Z</time></trkpt><trkpt lat="45.59857197613792" lon="11.365406085148301"><ele>165.0</ele><time>2026-04-08T17:08:34Z</time></trkpt><trkpt lat="45.59851661282006" lon="11.365330168126993"><ele>165.0</ele><time>2026-04-08T17:08:35Z</time></trkpt><trkpt lat="45.59845483980286" lon="11.36523561678956"><ele>165.0</ele><time>2026-04-08T17:08:36Z</time></trkpt><trkpt lat="45.598380248188576" lon="11.36515567048846"><ele>165.0</ele><time>2026-04-08T17:08:37Z</time></trkpt><trkpt lat="45.59830323158405" lon="11.36506125524611"><ele>165.0</ele><time>2026-04-08T17:08:38Z</time></trkpt><trkpt lat="45.59823785492532" lon="11.364953176685532"><ele>165.0</ele><time>2026-04-08T17:08:39Z</time></trkpt><trkpt lat="45.59816989439316" lon="11.364855119989304"><ele>165.0</ele><time>2026-04-08T17:08:40Z</time></trkpt><trkpt lat="45.59809548509769" lon="11.364756699645586"><ele>165.0</ele><time>2026-04-08T17:08:41Z</time></trkpt><trkpt lat="45.59803511380216" lon="11.364659367883842"><ele>165.0</ele><time>2026-04-08T17:08:42Z</time></trkpt><trkpt lat="45.5979709501291" lon="11.364592444091253"><ele>165.0</ele><time>2026-04-08T17:08:43Z</time></trkpt><trkpt lat="45.59790671394827" lon="11.364561287873867"><ele>165.0</ele><time>2026-04-08T17:08:44Z</time></trkpt><trkpt lat="45.59782780642797" lon="11.364559116341571"><ele>165.16666666666666</ele><time>2026-04-08T17:08:45Z</time></trkpt><trkpt lat="45.59773222843279" lon="11.364568996581767"><ele>165.33333333333334</ele><time>2026-04-08T17:08:46Z</time></trkpt><trkpt lat="45.59762616011199" lon="11.364573785786"><ele>165.5</ele><time>2026-04-08T17:08:47Z</time></trkpt><trkpt lat="45.59753218283276" lon="11.364579714245668"><ele>165.66666666666669</ele><time>2026-04-08T17:08:48Z</time></trkpt><trkpt lat="45.597450880818805" lon="11.364590654258443"><ele>165.83333333333334</ele><time>2026-04-08T17:08:49Z</time></trkpt><trkpt lat="45.597387032707324" lon="11.364598185599165"><ele>166.0</ele><time>2026-04-08T17:08:50Z</time></trkpt><trkpt lat="45.597301753047766" lon="11.364602265670316"><ele>166.0</ele><time>2026-04-08T17:08:52Z</time></trkpt><trkpt lat="45.59719818926931" lon="11.364539519863506"><ele>166.0</ele><time>2026-04-08T17:08:54Z</time></trkpt><trkpt lat="45.59712642576093" lon="11.364536684668307"><ele>166.0</ele><time>2026-04-08T17:08:55Z</time></trkpt><trkpt lat="45.597055389484524" lon="11.36460086923978"><ele>166.0</ele><time>2026-04-08T17:08:56Z</time></trkpt><trkpt lat="45.59694324842693" lon="11.364646051836056"><ele>166.0</ele><time>2026-04-08T17:08:58Z</time></trkpt><trkpt lat="45.59684843899207" lon="11.36457275158328"><ele>165.66666666666669</ele><time>2026-04-08T17:09:00Z</time></trkpt><trkpt lat="45.596754015071994" lon="11.364452074727314"><ele>165.33333333333334</ele><time>2026-04-08T17:09:02Z</time></trkpt><trkpt lat="45.59673464709455" lon="11.364354816126676"><ele>165.0</ele><time>2026-04-08T17:09:03Z</time></trkpt><trkpt lat="45.59669189999421" lon="11.36427890704003"><ele>164.66666666666666</ele><time>2026-04-08T17:09:04Z</time></trkpt><trkpt lat="45.59666100255884" lon="11.36419217054358"><ele>164.33333333333331</ele><time>2026-04-08T17:09:05Z</time></trkpt><trkpt lat="45.59660933520897" lon="11.364072423808656"><ele>164.0</ele><time>2026-04-08T17:09:07Z</time></trkpt><trkpt lat="45.596544151739444" lon="11.36406589012297"><ele>163.99999999999997</ele><time>2026-04-08T17:09:09Z</time></trkpt><trkpt lat="45.596495242171024" lon="11.364128534864111"><ele>164.0</ele><time>2026-04-08T17:09:10Z</time></trkpt><trkpt lat="45.59644978318151" lon="11.364202157088517"><ele>164.0</ele><time>2026-04-08T17:09:11Z</time></trkpt><trkpt lat="45.59640616551613" lon="11.364268668638742"><ele>164.0</ele><time>2026-04-08T17:09:12Z</time></trkpt><trkpt lat="45.59634761563237" lon="11.364359640776062"><ele>164.0</ele><time>2026-04-08T17:09:13Z</time></trkpt><trkpt lat="45.59630285594247" lon="11.364429186424841"><ele>163.99999999999997</ele><time>2026-04-08T17:09:14Z</time></trkpt><trkpt lat="45.596265830187484" lon="11.364520684980377"><ele>164.0</ele><time>2026-04-08T17:09:15Z</time></trkpt><trkpt lat="45.59621930511927" lon="11.364590794926317"><ele>163.0</ele><time>2026-04-08T17:09:16Z</time></trkpt><trkpt lat="45.59615119097293" lon="11.364687210462124"><ele>162.0</ele><time>2026-04-08T17:09:17Z</time></trkpt><trkpt lat="45.596063320237455" lon="11.364789352830691"><ele>161.0</ele><time>2026-04-08T17:09:18Z</time></trkpt><trkpt lat="45.59596374066372" lon="11.364938835883944"><ele>160.0</ele><time>2026-04-08T17:09:19Z</time></trkpt><trkpt lat="45.59588142020498" lon="11.365062564518718"><ele>160.0</ele><time>2026-04-08T17:09:20Z</time></trkpt><trkpt lat="45.59581362042259" lon="11.365163715588107"><ele>160.0</ele><time>2026-04-08T17:09:21Z</time></trkpt><trkpt lat="45.59575516165456" lon="11.365282794594082"><ele>160.0</ele><time>2026-04-08T17:09:22Z</time></trkpt><trkpt lat="45.5956725783103" lon="11.365373252631434"><ele>160.0</ele><time>2026-04-08T17:09:23Z</time></trkpt><trkpt lat="45.59560681609004" lon="11.36547340948926"><ele>160.0</ele><time>2026-04-08T17:09:24Z</time></trkpt><trkpt lat="45.5955430380111" lon="11.365572740149492"><ele>160.6</ele><time>2026-04-08T17:09:25Z</time></trkpt><trkpt lat="45.59547927158328" lon="11.365672052869789"><ele>161.2</ele><time>2026-04-08T17:09:26Z</time></trkpt><trkpt lat="45.59541291780399" lon="11.365775395032756"><ele>161.8</ele><time>2026-04-08T17:09:27Z</time></trkpt><trkpt lat="45.59533163416457" lon="11.365901989647913"><ele>162.4</ele><time>2026-04-08T17:09:28Z</time></trkpt><trkpt lat="45.59524457223163" lon="11.366034924294837"><ele>163.0</ele><time>2026-04-08T17:09:29Z</time></trkpt><trkpt lat="45.59517453638419" lon="11.366137342752138"><ele>161.8</ele><time>2026-04-08T17:09:30Z</time></trkpt><trkpt lat="45.59510671061072" lon="11.366236529238298"><ele>160.60000000000002</ele><time>2026-04-08T17:09:31Z</time></trkpt><trkpt lat="45.59504895277421" lon="11.366321794767995"><ele>159.39999999999998</ele><time>2026-04-08T17:09:32Z</time></trkpt><trkpt lat="45.59499565675338" lon="11.366400844226643"><ele>158.2</ele><time>2026-04-08T17:09:33Z</time></trkpt><trkpt lat="45.59492115896612" lon="11.366511340301956"><ele>157.0</ele><time>2026-04-08T17:09:34Z</time></trkpt><trkpt lat="45.5948623103259" lon="11.36661345729553"><ele>156.6</ele><time>2026-04-08T17:09:35Z</time></trkpt><trkpt lat="45.594796483789935" lon="11.366714920804123"><ele>156.2</ele><time>2026-04-08T17:09:36Z</time></trkpt><trkpt lat="45.59473738224132" lon="11.366803079517359"><ele>155.8</ele><time>2026-04-08T17:09:37Z</time></trkpt><trkpt lat="45.59465974321607" lon="11.366899075699935"><ele>155.4</ele><time>2026-04-08T17:09:38Z</time></trkpt><trkpt lat="45.59460212708789" lon="11.366984532729209"><ele>155.0</ele><time>2026-04-08T17:09:39Z</time></trkpt><trkpt lat="45.5945379755257" lon="11.367079683176557"><ele>155.6</ele><time>2026-04-08T17:09:40Z</time></trkpt><trkpt lat="45.5944739121351" lon="11.367175795072136"><ele>156.2</ele><time>2026-04-08T17:09:41Z</time></trkpt><trkpt lat="45.5944218161939" lon="11.367292044374905"><ele>156.8</ele><time>2026-04-08T17:09:42Z</time></trkpt><trkpt lat="45.59435021633793" lon="11.367398232543263"><ele>157.4</ele><time>2026-04-08T17:09:43Z</time></trkpt><trkpt lat="45.59427889748434" lon="11.367493596206439"><ele>158.0</ele><time>2026-04-08T17:09:44Z</time></trkpt><trkpt lat="45.59422015180388" lon="11.367602196712618"><ele>158.0</ele><time>2026-04-08T17:09:45Z</time></trkpt><trkpt lat="45.59415852642013" lon="11.367688324380707"><ele>158.0</ele><time>2026-04-08T17:09:46Z</time></trkpt><trkpt lat="45.594100279467625" lon="11.367786668527938"><ele>158.0</ele><time>2026-04-08T17:09:47Z</time></trkpt><trkpt lat="45.59402241276085" lon="11.36787176132184"><ele>158.0</ele><time>2026-04-08T17:09:48Z</time></trkpt><trkpt lat="45.59394491929726" lon="11.367988577758169"><ele>158.0</ele><time>2026-04-08T17:09:49Z</time></trkpt><trkpt lat="45.59390726185194" lon="11.368077000814386"><ele>158.0</ele><time>2026-04-08T17:09:50Z</time></trkpt><trkpt lat="45.59382618128812" lon="11.368176906194206"><ele>158.0</ele><time>2026-04-08T17:09:52Z</time></trkpt><trkpt lat="45.59378259800416" lon="11.368244315166576"><ele>158.0</ele><time>2026-04-08T17:09:53Z</time></trkpt><trkpt lat="45.59369357893885" lon="11.368380419536397"><ele>158.0</ele><time>2026-04-08T17:09:55Z</time></trkpt><trkpt lat="45.59364447408024" lon="11.368461758512298"><ele>158.0</ele><time>2026-04-08T17:09:56Z</time></trkpt><trkpt lat="45.59358073943651" lon="11.368514129614475"><ele>158.0</ele><time>2026-04-08T17:09:57Z</time></trkpt><trkpt lat="45.59352752643376" lon="11.368571454646176"><ele>158.0</ele><time>2026-04-08T17:09:58Z</time></trkpt><trkpt lat="45.59346532818888" lon="11.368669771219356"><ele>158.0</ele><time>2026-04-08T17:09:59Z</time></trkpt><trkpt lat="45.593412522826384" lon="11.368775775293225"><ele>158.0</ele><time>2026-04-08T17:10:00Z</time></trkpt><trkpt lat="45.593342291263774" lon="11.368899883883898"><ele>158.0</ele><time>2026-04-08T17:10:01Z</time></trkpt><trkpt lat="45.59327595116472" lon="11.368995958331315"><ele>158.0</ele><time>2026-04-08T17:10:02Z</time></trkpt><trkpt lat="45.59322081454785" lon="11.369076413544681"><ele>158.0</ele><time>2026-04-08T17:10:03Z</time></trkpt><trkpt lat="45.593149600772826" lon="11.369200166056865"><ele>158.0</ele><time>2026-04-08T17:10:05Z</time></trkpt><trkpt lat="45.59309367370694" lon="11.36928483398912"><ele>158.0</ele><time>2026-04-08T17:10:07Z</time></trkpt><trkpt lat="45.59304128465936" lon="11.369343074574303"><ele>158.0</ele><time>2026-04-08T17:10:09Z</time></trkpt><trkpt lat="45.593002414997855" lon="11.369414815543195"><ele>158.0</ele><time>2026-04-08T17:10:13Z</time></trkpt><trkpt lat="45.592947635590654" lon="11.369540893317511"><ele>158.0</ele><time>2026-04-08T17:20:58Z</time></trkpt><trkpt lat="45.592897033811354" lon="11.369617449147624"><ele>158.0</ele><time>2026-04-08T17:20:59Z</time></trkpt><trkpt lat="45.592837169654324" lon="11.369710147308663"><ele>158.0</ele><time>2026-04-08T17:21:00Z</time></trkpt><trkpt lat="45.59276942836283" lon="11.369815544585153"><ele>158.0</ele><time>2026-04-08T17:21:01Z</time></trkpt><trkpt lat="45.59268952864885" lon="11.36993286161415"><ele>158.0</ele><time>2026-04-08T17:21:02Z</time></trkpt><trkpt lat="45.59260494944867" lon="11.370068332469558"><ele>158.0</ele><time>2026-04-08T17:21:03Z</time></trkpt><trkpt lat="45.59252623813017" lon="11.37016316902198"><ele>158.0</ele><time>2026-04-08T17:21:04Z</time></trkpt><trkpt lat="45.5924476677706" lon="11.370247654881371"><ele>158.0</ele><time>2026-04-08T17:21:05Z</time></trkpt><trkpt lat="45.592394172626044" lon="11.370351096668541"><ele>158.0</ele><time>2026-04-08T17:21:06Z</time></trkpt><trkpt lat="45.59227318207407" lon="11.37033612843387"><ele>158.0</ele><time>2026-04-08T17:21:07Z</time></trkpt><trkpt lat="45.59217758272436" lon="11.370389747349552"><ele>158.0</ele><time>2026-04-08T17:21:08Z</time></trkpt><trkpt lat="45.5920930215594" lon="11.37044176729857"><ele>158.0</ele><time>2026-04-08T17:21:09Z</time></trkpt><trkpt lat="45.59199328767625" lon="11.37050640718595"><ele>158.0</ele><time>2026-04-08T17:21:10Z</time></trkpt><trkpt lat="45.59189816593175" lon="11.370563985564605"><ele>158.0</ele><time>2026-04-08T17:21:11Z</time></trkpt><trkpt lat="45.59180765266963" lon="11.370625735996047"><ele>158.0</ele><time>2026-04-08T17:21:12Z</time></trkpt><trkpt lat="45.59171397669814" lon="11.370690950497565"><ele>157.75</ele><time>2026-04-08T17:21:13Z</time></trkpt><trkpt lat="45.59162462195718" lon="11.370741423517968"><ele>157.5</ele><time>2026-04-08T17:21:14Z</time></trkpt><trkpt lat="45.591511073740314" lon="11.37081198036372"><ele>157.25</ele><time>2026-04-08T17:21:15Z</time></trkpt><trkpt lat="45.591388545811725" lon="11.370888017201105"><ele>157.0</ele><time>2026-04-08T17:21:16Z</time></trkpt><trkpt lat="45.59128207479184" lon="11.370967921872106"><ele>157.0</ele><time>2026-04-08T17:21:17Z</time></trkpt><trkpt lat="45.591190782371285" lon="11.371025145748778"><ele>157.0</ele><time>2026-04-08T17:21:18Z</time></trkpt><trkpt lat="45.59111132382693" lon="11.371085301461683"><ele>157.0</ele><time>2026-04-08T17:21:19Z</time></trkpt><trkpt lat="45.591035520780004" lon="11.371137387394937"><ele>157.0</ele><time>2026-04-08T17:21:20Z</time></trkpt><trkpt lat="45.590940921133374" lon="11.371201096062677"><ele>157.0</ele><time>2026-04-08T17:21:22Z</time></trkpt><trkpt lat="45.59087348852985" lon="11.371234806915991"><ele>157.16666666666669</ele><time>2026-04-08T17:21:24Z</time></trkpt><trkpt lat="45.59079510395122" lon="11.37125412730802"><ele>157.33333333333334</ele><time>2026-04-08T17:21:30Z</time></trkpt><trkpt lat="45.59074915042806" lon="11.371160877794816"><ele>157.5</ele><time>2026-04-08T17:21:31Z</time></trkpt><trkpt lat="45.59072745112821" lon="11.371065514993672"><ele>157.66666666666666</ele><time>2026-04-08T17:21:32Z</time></trkpt><trkpt lat="45.59069806490848" lon="11.370971077877112"><ele>157.83333333333331</ele><time>2026-04-08T17:21:33Z</time></trkpt><trkpt lat="45.59066123198705" lon="11.370878025956422"><ele>158.0</ele><time>2026-04-08T17:21:34Z</time></trkpt><trkpt lat="45.590612757138224" lon="11.37075732096066"><ele>158.0</ele><time>2026-04-08T17:21:35Z</time></trkpt><trkpt lat="45.59056260545845" lon="11.37064648171872"><ele>158.0</ele><time>2026-04-08T17:21:36Z</time></trkpt><trkpt lat="45.590510912414715" lon="11.370519988775625"><ele>158.0</ele><time>2026-04-08T17:21:37Z</time></trkpt><trkpt lat="45.59045830214784" lon="11.370391926377428"><ele>158.0</ele><time>2026-04-08T17:21:38Z</time></trkpt><trkpt lat="45.59040107188985" lon="11.370259984667884"><ele>158.0</ele><time>2026-04-08T17:21:39Z</time></trkpt><trkpt lat="45.59034002437342" lon="11.3701129761322"><ele>157.6</ele><time>2026-04-08T17:21:40Z</time></trkpt><trkpt lat="45.59027477126442" lon="11.369970230468123"><ele>157.20000000000002</ele><time>2026-04-08T17:21:41Z</time></trkpt><trkpt lat="45.59021731643484" lon="11.36984514217495"><ele>156.8</ele><time>2026-04-08T17:21:42Z</time></trkpt><trkpt lat="45.590168621910664" lon="11.369742454646499"><ele>156.4</ele><time>2026-04-08T17:21:43Z</time></trkpt><trkpt lat="45.59012104665838" lon="11.3696214180525"><ele>156.0</ele><time>2026-04-08T17:21:44Z</time></trkpt><trkpt lat="45.59006665404014" lon="11.369505880768632"><ele>156.0</ele><time>2026-04-08T17:21:45Z</time></trkpt><trkpt lat="45.59000591224611" lon="11.369379478163667"><ele>156.0</ele><time>2026-04-08T17:21:46Z</time></trkpt><trkpt lat="45.589954610956276" lon="11.369266111351399"><ele>156.0</ele><time>2026-04-08T17:21:47Z</time></trkpt><trkpt lat="45.589910649405745" lon="11.369165845796857"><ele>156.0</ele><time>2026-04-08T17:21:48Z</time></trkpt><trkpt lat="45.58985836144874" lon="11.36904914708037"><ele>156.0</ele><time>2026-04-08T17:21:49Z</time></trkpt><trkpt lat="45.58979876201487" lon="11.368933759873936"><ele>156.66666666666666</ele><time>2026-04-08T17:21:50Z</time></trkpt><trkpt lat="45.58974796861221" lon="11.368816649128169"><ele>157.33333333333334</ele><time>2026-04-08T17:21:51Z</time></trkpt><trkpt lat="45.58970694620241" lon="11.36873129100449"><ele>158.0</ele><time>2026-04-08T17:21:52Z</time></trkpt><trkpt lat="45.58967766597408" lon="11.368629952693288"><ele>158.66666666666669</ele><time>2026-04-08T17:21:53Z</time></trkpt><trkpt lat="45.58966389235128" lon="11.3685345336144"><ele>159.33333333333334</ele><time>2026-04-08T17:21:54Z</time></trkpt><trkpt lat="45.58965983070744" lon="11.368419922150554"><ele>160.0</ele><time>2026-04-08T17:21:55Z</time></trkpt><trkpt lat="45.58967324059387" lon="11.368306773455835"><ele>160.0</ele><time>2026-04-08T17:21:56Z</time></trkpt><trkpt lat="45.589698395637626" lon="11.368197438702484"><ele>160.0</ele><time>2026-04-08T17:21:57Z</time></trkpt><trkpt lat="45.589719690874134" lon="11.368080320530819"><ele>160.0</ele><time>2026-04-08T17:21:58Z</time></trkpt><trkpt lat="45.58971191971663" lon="11.367974809059216"><ele>160.0</ele><time>2026-04-08T17:21:59Z</time></trkpt><trkpt lat="45.58966551585054" lon="11.367905547673521"><ele>160.0</ele><time>2026-04-08T17:22:00Z</time></trkpt><trkpt lat="45.58959925884237" lon="11.367869415844767"><ele>160.0</ele><time>2026-04-08T17:22:01Z</time></trkpt><trkpt lat="45.58952943662637" lon="11.367889350619548"><ele>160.0</ele><time>2026-04-08T17:22:02Z</time></trkpt><trkpt lat="45.58946405191486" lon="11.367963326462943"><ele>159.83333333333334</ele><time>2026-04-08T17:22:03Z</time></trkpt><trkpt lat="45.58943311134352" lon="11.368067765431228"><ele>159.66666666666669</ele><time>2026-04-08T17:22:04Z</time></trkpt><trkpt lat="45.58943835114819" lon="11.368183959303389"><ele>159.5</ele><time>2026-04-08T17:22:05Z</time></trkpt><trkpt lat="45.58946713816781" lon="11.368307872785092"><ele>159.33333333333334</ele><time>2026-04-08T17:22:06Z</time></trkpt><trkpt lat="45.58947711942894" lon="11.368404822120189"><ele>159.16666666666666</ele><time>2026-04-08T17:22:07Z</time></trkpt><trkpt lat="45.58944961115733" lon="11.36850797095546"><ele>159.0</ele><time>2026-04-08T17:22:08Z</time></trkpt><trkpt lat="45.58938886472705" lon="11.368567701387565"><ele>159.0</ele><time>2026-04-08T17:22:09Z</time></trkpt><trkpt lat="45.58930933702977" lon="11.368616988348748"><ele>159.0</ele><time>2026-04-08T17:22:10Z</time></trkpt><trkpt lat="45.58921338068684" lon="11.368661514665227"><ele>159.0</ele><time>2026-04-08T17:22:11Z</time></trkpt><trkpt lat="45.589125001105366" lon="11.368709928013155"><ele>159.0</ele><time>2026-04-08T17:22:12Z</time></trkpt><trkpt lat="45.589031600864494" lon="11.368768184040018"><ele>159.0</ele><time>2026-04-08T17:22:13Z</time></trkpt><trkpt lat="45.588927281644345" lon="11.368821368830304"><ele>158.6</ele><time>2026-04-08T17:22:14Z</time></trkpt><trkpt lat="45.588819207507925" lon="11.368884433953275"><ele>158.2</ele><time>2026-04-08T17:22:15Z</time></trkpt><trkpt lat="45.58871254498397" lon="11.368954091672197"><ele>157.79999999999998</ele><time>2026-04-08T17:22:16Z</time></trkpt><trkpt lat="45.58862153006194" lon="11.36900511498492"><ele>157.4</ele><time>2026-04-08T17:22:17Z</time></trkpt><trkpt lat="45.588537764664615" lon="11.369058293935357"><ele>157.0</ele><time>2026-04-08T17:22:18Z</time></trkpt><trkpt lat="45.58844434529308" lon="11.369114286384196"><ele>156.83333333333334</ele><time>2026-04-08T17:22:19Z</time></trkpt><trkpt lat="45.58835558776691" lon="11.369171043238739"><ele>156.66666666666669</ele><time>2026-04-08T17:22:20Z</time></trkpt><trkpt lat="45.58827313225167" lon="11.369224016721196"><ele>156.5</ele><time>2026-04-08T17:22:21Z</time></trkpt><trkpt lat="45.588195854261" lon="11.369275908060361"><ele>156.33333333333334</ele><time>2026-04-08T17:22:22Z</time></trkpt><trkpt lat="45.58813133425358" lon="11.369319094400142"><ele>156.16666666666666</ele><time>2026-04-08T17:22:23Z</time></trkpt><trkpt lat="45.588057779511104" lon="11.369371060850026"><ele>156.0</ele><time>2026-04-08T17:22:24Z</time></trkpt><trkpt lat="45.587967365715336" lon="11.369438242047924"><ele>156.0</ele><time>2026-04-08T17:22:25Z</time></trkpt><trkpt lat="45.58787770124692" lon="11.369507271495795"><ele>156.0</ele><time>2026-04-08T17:22:26Z</time></trkpt><trkpt lat="45.58777836548017" lon="11.36959327722882"><ele>156.0</ele><time>2026-04-08T17:22:27Z</time></trkpt><trkpt lat="45.58766412722024" lon="11.369684342365648"><ele>156.0</ele><time>2026-04-08T17:22:28Z</time></trkpt><trkpt lat="45.58756390354789" lon="11.369768036654298"><ele>156.0</ele><time>2026-04-08T17:22:29Z</time></trkpt><trkpt lat="45.58748387281414" lon="11.369823410630435"><ele>156.0</ele><time>2026-04-08T17:22:30Z</time></trkpt><trkpt lat="45.58741180945089" lon="11.369861544456134"><ele>156.0</ele><time>2026-04-08T17:22:31Z</time></trkpt><trkpt lat="45.58734754024533" lon="11.369916821852607"><ele>156.0</ele><time>2026-04-08T17:22:32Z</time></trkpt><trkpt lat="45.5872503551472" lon="11.369993703783704"><ele>156.0</ele><time>2026-04-08T17:22:33Z</time></trkpt><trkpt lat="45.58714942269831" lon="11.370067051542225"><ele>156.0</ele><time>2026-04-08T17:22:34Z</time></trkpt><trkpt lat="45.587054660440565" lon="11.370138337520652"><ele>156.0</ele><time>2026-04-08T17:22:35Z</time></trkpt><trkpt lat="45.58694605156867" lon="11.370223350217183"><ele>156.0</ele><time>2026-04-08T17:22:36Z</time></trkpt><trkpt lat="45.58683420462222" lon="11.37031447354697"><ele>156.0</ele><time>2026-04-08T17:22:37Z</time></trkpt><trkpt lat="45.586704347538564" lon="11.370411517799514"><ele>155.33333333333334</ele><time>2026-04-08T17:22:38Z</time></trkpt><trkpt lat="45.58655708501183" lon="11.370519830888684"><ele>154.66666666666669</ele><time>2026-04-08T17:22:39Z</time></trkpt><trkpt lat="45.58641124148674" lon="11.370624210566527"><ele>154.0</ele><time>2026-04-08T17:22:40Z</time></trkpt><trkpt lat="45.586282348914224" lon="11.370683415267717"><ele>153.4</ele><time>2026-04-08T17:22:41Z</time></trkpt><trkpt lat="45.58615451316397" lon="11.370728161250565"><ele>152.8</ele><time>2026-04-08T17:22:42Z</time></trkpt><trkpt lat="45.586042554269525" lon="11.370761828655466"><ele>152.2</ele><time>2026-04-08T17:22:43Z</time></trkpt><trkpt lat="45.585948927657554" lon="11.370793220577362"><ele>151.6</ele><time>2026-04-08T17:22:44Z</time></trkpt><trkpt lat="45.585868415348365" lon="11.370826027878033"><ele>151.0</ele><time>2026-04-08T17:22:45Z</time></trkpt><trkpt lat="45.585777660907894" lon="11.3708573268847"><ele>151.0</ele><time>2026-04-08T17:22:46Z</time></trkpt><trkpt lat="45.58568443241963" lon="11.370894112960729"><ele>151.0</ele><time>2026-04-08T17:22:47Z</time></trkpt><trkpt lat="45.585579775983916" lon="11.370932232858504"><ele>151.0</ele><time>2026-04-08T17:22:48Z</time></trkpt><trkpt lat="45.58546855624088" lon="11.370982801917505"><ele>151.0</ele><time>2026-04-08T17:22:49Z</time></trkpt><trkpt lat="45.58536599388565" lon="11.371039206200008"><ele>151.0</ele><time>2026-04-08T17:22:50Z</time></trkpt><trkpt lat="45.58527336030132" lon="11.37109290451361"><ele>151.0</ele><time>2026-04-08T17:22:51Z</time></trkpt><trkpt lat="45.585172907921134" lon="11.371158142583983"><ele>151.0</ele><time>2026-04-08T17:22:52Z</time></trkpt><trkpt lat="45.58507606597757" lon="11.371210523591495"><ele>151.0</ele><time>2026-04-08T17:22:53Z</time></trkpt><trkpt lat="45.58500444431651" lon="11.371263198605615"><ele>151.0</ele><time>2026-04-08T17:22:54Z</time></trkpt><trkpt lat="45.58491750963707" lon="11.371305015461338"><ele>151.0</ele><time>2026-04-08T17:22:56Z</time></trkpt><trkpt lat="45.58497691100202" lon="11.37149878056834"><ele>150.8</ele><time>2026-04-08T17:22:58Z</time></trkpt><trkpt lat="45.58502016781258" lon="11.371595533222147"><ele>150.6</ele><time>2026-04-08T17:22:59Z</time></trkpt><trkpt lat="45.5850584273395" lon="11.371741497547948"><ele>150.4</ele><time>2026-04-08T17:23:00Z</time></trkpt><trkpt lat="45.58511303797692" lon="11.371881603847132"><ele>150.2</ele><time>2026-04-08T17:23:01Z</time></trkpt><trkpt lat="45.58515254489303" lon="11.371982960730556"><ele>150.0</ele><time>2026-04-08T17:23:02Z</time></trkpt><trkpt lat="45.58518327405567" lon="11.372110640547891"><ele>150.0</ele><time>2026-04-08T17:23:04Z</time></trkpt><trkpt lat="45.5850854510945" lon="11.372144306031343"><ele>150.0</ele><time>2026-04-08T17:23:05Z</time></trkpt><trkpt lat="45.58500958064226" lon="11.372223560219943"><ele>150.0</ele><time>2026-04-08T17:23:06Z</time></trkpt><trkpt lat="45.58492090432581" lon="11.372273823887964"><ele>150.0</ele><time>2026-04-08T17:23:07Z</time></trkpt><trkpt lat="45.5848399567094" lon="11.372339639188702"><ele>150.0</ele><time>2026-04-08T17:23:09Z</time></trkpt><trkpt lat="45.584903171974396" lon="11.37252215904714"><ele>149.2</ele><time>2026-04-08T17:23:10Z</time></trkpt><trkpt lat="45.58495455258703" lon="11.37263295610259"><ele>148.4</ele><time>2026-04-08T17:23:11Z</time></trkpt><trkpt lat="45.58501032496666" lon="11.372756835336967"><ele>147.6</ele><time>2026-04-08T17:23:12Z</time></trkpt><trkpt lat="45.58506575191161" lon="11.37288302756873"><ele>146.8</ele><time>2026-04-08T17:23:13Z</time></trkpt><trkpt lat="45.585096801184164" lon="11.37300874711429"><ele>146.0</ele><time>2026-04-08T17:23:14Z</time></trkpt><trkpt lat="45.58513317234015" lon="11.373100777538472"><ele>146.0</ele><time>2026-04-08T17:23:15Z</time></trkpt><trkpt lat="45.58520585868949" lon="11.373237971190001"><ele>146.0</ele><time>2026-04-08T17:23:17Z</time></trkpt><trkpt lat="45.58520739120762" lon="11.373341288959612"><ele>146.0</ele><time>2026-04-08T17:23:19Z</time></trkpt><trkpt lat="45.585121307443394" lon="11.373381245340282"><ele>146.0</ele><time>2026-04-08T17:23:21Z</time></trkpt><trkpt lat="45.58501636019541" lon="11.37345222101559"><ele>146.0</ele><time>2026-04-08T17:23:23Z</time></trkpt><trkpt lat="45.585064456215555" lon="11.373518828415552"><ele>146.0</ele><time>2026-04-08T17:23:26Z</time></trkpt></trkseg></trk></gpx>